<?xml version="1.0" encoding="UTF-8"?>
<TrainingCenterDatabase xmlns="http://www.garmin.com/xmlschemas/TrainingCenterDatabase/v2" xmlns:xsi="http://www.w3.org/2001/XMLSchema-instance" xsi:schemaLocation="http://www.garmin.com/xmlschemas/TrainingCenterDatabase/v2 http://www.garmin.com/xmlschemas/TrainingCenterDatabasev2.xsd">
  <Activities>
    <Activity Sport="Other">
      <Id>2022-02-12T09:06:03.000Z</Id>
      <Lap StartTime="2022-02-12T09:06:03.000Z">
        <TotalTimeSeconds>14207</TotalTimeSeconds>
        <DistanceMeters>16070</DistanceMeters>
        <Track>
          <Trackpoint>
            <Time>2022-02-12T09:06:03.000Z</Time>
            <Position>
              <LatitudeDegrees>40.66228338517248630523681640625</LatitudeDegrees>
              <LongitudeDegrees>24.7017118893563747406005859375</LongitudeDegrees>
            </Position>
            <AltitudeMeters>271</AltitudeMeters>
            <DistanceMeters>0</DistanceMeters>
          </Trackpoint>
          <Trackpoint>
            <Time>2022-02-12T09:06:05.000Z</Time>
            <Position>
              <LatitudeDegrees>40.66229746676981449127197265625</LatitudeDegrees>
              <LongitudeDegrees>24.7017286531627178192138671875</LongitudeDegrees>
            </Position>
            <AltitudeMeters>271.20001220703125</AltitudeMeters>
            <DistanceMeters>2.1120742797812</DistanceMeters>
          </Trackpoint>
          <Trackpoint>
            <Time>2022-02-12T09:06:07.000Z</Time>
            <Position>
              <LatitudeDegrees>40.66231481730937957763671875</LatitudeDegrees>
              <LongitudeDegrees>24.70174499787390232086181640625</LongitudeDegrees>
            </Position>
            <AltitudeMeters>270.600006103515625</AltitudeMeters>
            <DistanceMeters>4.4858408439209</DistanceMeters>
          </Trackpoint>
          <Trackpoint>
            <Time>2022-02-12T09:06:09.000Z</Time>
            <Position>
              <LatitudeDegrees>40.662336610257625579833984375</LatitudeDegrees>
              <LongitudeDegrees>24.7017650306224822998046875</LongitudeDegrees>
            </Position>
            <AltitudeMeters>270.79998779296875</AltitudeMeters>
            <DistanceMeters>7.4423783454162</DistanceMeters>
          </Trackpoint>
          <Trackpoint>
            <Time>2022-02-12T09:06:11.000Z</Time>
            <Position>
              <LatitudeDegrees>40.66235446371138095855712890625</LatitudeDegrees>
              <LongitudeDegrees>24.70178657211363315582275390625</LongitudeDegrees>
            </Position>
            <AltitudeMeters>271</AltitudeMeters>
            <DistanceMeters>10.136850735503</DistanceMeters>
          </Trackpoint>
          <Trackpoint>
            <Time>2022-02-12T09:06:12.000Z</Time>
            <Position>
              <LatitudeDegrees>40.66236435435712337493896484375</LatitudeDegrees>
              <LongitudeDegrees>24.70179696567356586456298828125</LongitudeDegrees>
            </Position>
            <AltitudeMeters>271</AltitudeMeters>
            <DistanceMeters>11.543117687837</DistanceMeters>
          </Trackpoint>
          <Trackpoint>
            <Time>2022-02-12T09:06:13.000Z</Time>
            <Position>
              <LatitudeDegrees>40.66237256862223148345947265625</LatitudeDegrees>
              <LongitudeDegrees>24.70180819742381572723388671875</LongitudeDegrees>
            </Position>
            <AltitudeMeters>271</AltitudeMeters>
            <DistanceMeters>12.863270994723</DistanceMeters>
          </Trackpoint>
          <Trackpoint>
            <Time>2022-02-12T09:06:19.000Z</Time>
            <Position>
              <LatitudeDegrees>40.66243040375411510467529296875</LatitudeDegrees>
              <LongitudeDegrees>24.7018778510391712188720703125</LongitudeDegrees>
            </Position>
            <AltitudeMeters>271.600006103515625</AltitudeMeters>
            <DistanceMeters>21.581939672062</DistanceMeters>
          </Trackpoint>
          <Trackpoint>
            <Time>2022-02-12T09:06:22.000Z</Time>
            <Position>
              <LatitudeDegrees>40.6624641828238964080810546875</LatitudeDegrees>
              <LongitudeDegrees>24.7019066847860813140869140625</LongitudeDegrees>
            </Position>
            <AltitudeMeters>272</AltitudeMeters>
            <DistanceMeters>26.061317961342</DistanceMeters>
          </Trackpoint>
          <Trackpoint>
            <Time>2022-02-12T09:06:24.000Z</Time>
            <Position>
              <LatitudeDegrees>40.6624930165708065032958984375</LatitudeDegrees>
              <LongitudeDegrees>24.701927639544010162353515625</LongitudeDegrees>
            </Position>
            <AltitudeMeters>272.399993896484375</AltitudeMeters>
            <DistanceMeters>29.724471465594</DistanceMeters>
          </Trackpoint>
          <Trackpoint>
            <Time>2022-02-12T09:06:28.000Z</Time>
            <Position>
              <LatitudeDegrees>40.66253970377147197723388671875</LatitudeDegrees>
              <LongitudeDegrees>24.70197767950594425201416015625</LongitudeDegrees>
            </Position>
            <AltitudeMeters>273.20001220703125</AltitudeMeters>
            <DistanceMeters>36.422338273285</DistanceMeters>
          </Trackpoint>
          <Trackpoint>
            <Time>2022-02-12T09:06:30.000Z</Time>
            <Position>
              <LatitudeDegrees>40.6625640951097011566162109375</LatitudeDegrees>
              <LongitudeDegrees>24.70199829898774623870849609375</LongitudeDegrees>
            </Position>
            <AltitudeMeters>273.600006103515625</AltitudeMeters>
            <DistanceMeters>39.646251731645</DistanceMeters>
          </Trackpoint>
          <Trackpoint>
            <Time>2022-02-12T09:06:31.000Z</Time>
            <Position>
              <LatitudeDegrees>40.66257641650736331939697265625</LatitudeDegrees>
              <LongitudeDegrees>24.7020089440047740936279296875</LongitudeDegrees>
            </Position>
            <AltitudeMeters>273.79998779296875</AltitudeMeters>
            <DistanceMeters>41.283912473024</DistanceMeters>
          </Trackpoint>
          <Trackpoint>
            <Time>2022-02-12T09:06:35.000Z</Time>
            <Position>
              <LatitudeDegrees>40.66263123415410518646240234375</LatitudeDegrees>
              <LongitudeDegrees>24.70205730758607387542724609375</LongitudeDegrees>
            </Position>
            <AltitudeMeters>274.20001220703125</AltitudeMeters>
            <DistanceMeters>48.626225212918</DistanceMeters>
          </Trackpoint>
          <Trackpoint>
            <Time>2022-02-12T09:06:36.000Z</Time>
            <Position>
              <LatitudeDegrees>40.6626425497233867645263671875</LatitudeDegrees>
              <LongitudeDegrees>24.70206518657505512237548828125</LongitudeDegrees>
            </Position>
            <AltitudeMeters>274.399993896484375</AltitudeMeters>
            <DistanceMeters>50.051625928468</DistanceMeters>
          </Trackpoint>
          <Trackpoint>
            <Time>2022-02-12T09:06:37.000Z</Time>
            <Position>
              <LatitudeDegrees>40.6626542843878269195556640625</LatitudeDegrees>
              <LongitudeDegrees>24.70207323320209980010986328125</LongitudeDegrees>
            </Position>
            <AltitudeMeters>274.600006103515625</AltitudeMeters>
            <DistanceMeters>51.523773457267</DistanceMeters>
          </Trackpoint>
          <Trackpoint>
            <Time>2022-02-12T09:06:39.000Z</Time>
            <Position>
              <LatitudeDegrees>40.6626762449741363525390625</LatitudeDegrees>
              <LongitudeDegrees>24.70208949409425258636474609375</LongitudeDegrees>
            </Position>
            <AltitudeMeters>275.20001220703125</AltitudeMeters>
            <DistanceMeters>54.32665884669</DistanceMeters>
          </Trackpoint>
          <Trackpoint>
            <Time>2022-02-12T09:06:41.000Z</Time>
            <Position>
              <LatitudeDegrees>40.66269946284592151641845703125</LatitudeDegrees>
              <LongitudeDegrees>24.7021048329770565032958984375</LongitudeDegrees>
            </Position>
            <AltitudeMeters>275.600006103515625</AltitudeMeters>
            <DistanceMeters>57.21834534199</DistanceMeters>
          </Trackpoint>
          <Trackpoint>
            <Time>2022-02-12T09:06:46.000Z</Time>
            <Position>
              <LatitudeDegrees>40.66275562159717082977294921875</LatitudeDegrees>
              <LongitudeDegrees>24.70215168781578540802001953125</LongitudeDegrees>
            </Position>
            <AltitudeMeters>276.600006103515625</AltitudeMeters>
            <DistanceMeters>64.614574320157</DistanceMeters>
          </Trackpoint>
          <Trackpoint>
            <Time>2022-02-12T09:06:49.000Z</Time>
            <Position>
              <LatitudeDegrees>40.66278822720050811767578125</LatitudeDegrees>
              <LongitudeDegrees>24.70217834226787090301513671875</LongitudeDegrees>
            </Position>
            <AltitudeMeters>277.399993896484375</AltitudeMeters>
            <DistanceMeters>68.884436652873</DistanceMeters>
          </Trackpoint>
          <Trackpoint>
            <Time>2022-02-12T09:06:51.000Z</Time>
            <Position>
              <LatitudeDegrees>40.6628143787384033203125</LatitudeDegrees>
              <LongitudeDegrees>24.70218957401812076568603515625</LongitudeDegrees>
            </Position>
            <AltitudeMeters>277.79998779296875</AltitudeMeters>
            <DistanceMeters>71.946008038424</DistanceMeters>
          </Trackpoint>
          <Trackpoint>
            <Time>2022-02-12T09:06:56.000Z</Time>
            <Position>
              <LatitudeDegrees>40.66286601126194000244140625</LatitudeDegrees>
              <LongitudeDegrees>24.702220000326633453369140625</LongitudeDegrees>
            </Position>
            <AltitudeMeters>278.79998779296875</AltitudeMeters>
            <DistanceMeters>78.240765812642</DistanceMeters>
          </Trackpoint>
          <Trackpoint>
            <Time>2022-02-12T09:07:02.000Z</Time>
            <Position>
              <LatitudeDegrees>40.66292778588831424713134765625</LatitudeDegrees>
              <LongitudeDegrees>24.7022510133683681488037109375</LongitudeDegrees>
            </Position>
            <AltitudeMeters>280</AltitudeMeters>
            <DistanceMeters>85.597822167263</DistanceMeters>
          </Trackpoint>
          <Trackpoint>
            <Time>2022-02-12T09:07:03.000Z</Time>
            <Position>
              <LatitudeDegrees>40.66294111311435699462890625</LatitudeDegrees>
              <LongitudeDegrees>24.70225746743381023406982421875</LongitudeDegrees>
            </Position>
            <AltitudeMeters>280.20001220703125</AltitudeMeters>
            <DistanceMeters>87.176524513663</DistanceMeters>
          </Trackpoint>
          <Trackpoint>
            <Time>2022-02-12T09:07:08.000Z</Time>
            <Position>
              <LatitudeDegrees>40.66299517638981342315673828125</LatitudeDegrees>
              <LongitudeDegrees>24.70228177495300769805908203125</LongitudeDegrees>
            </Position>
            <AltitudeMeters>281</AltitudeMeters>
            <DistanceMeters>93.534798826682</DistanceMeters>
          </Trackpoint>
          <Trackpoint>
            <Time>2022-02-12T09:07:11.000Z</Time>
            <Position>
              <LatitudeDegrees>40.66302937455475330352783203125</LatitudeDegrees>
              <LongitudeDegrees>24.7022996284067630767822265625</LongitudeDegrees>
            </Position>
            <AltitudeMeters>282</AltitudeMeters>
            <DistanceMeters>97.628674970384</DistanceMeters>
          </Trackpoint>
          <Trackpoint>
            <Time>2022-02-12T09:07:12.000Z</Time>
            <Position>
              <LatitudeDegrees>40.663039684295654296875</LatitudeDegrees>
              <LongitudeDegrees>24.70230390317738056182861328125</LongitudeDegrees>
            </Position>
            <AltitudeMeters>282.20001220703125</AltitudeMeters>
            <DistanceMeters>98.83067839427</DistanceMeters>
          </Trackpoint>
          <Trackpoint>
            <Time>2022-02-12T09:07:18.000Z</Time>
            <Position>
              <LatitudeDegrees>40.663103051483631134033203125</LatitudeDegrees>
              <LongitudeDegrees>24.70234229229390621185302734375</LongitudeDegrees>
            </Position>
            <AltitudeMeters>283.20001220703125</AltitudeMeters>
            <DistanceMeters>106.59209836472</DistanceMeters>
          </Trackpoint>
          <Trackpoint>
            <Time>2022-02-12T09:07:20.000Z</Time>
            <Position>
              <LatitudeDegrees>40.6631209887564182281494140625</LatitudeDegrees>
              <LongitudeDegrees>24.7023536078631877899169921875</LongitudeDegrees>
            </Position>
            <AltitudeMeters>283.600006103515625</AltitudeMeters>
            <DistanceMeters>108.80440517721</DistanceMeters>
          </Trackpoint>
          <Trackpoint>
            <Time>2022-02-12T09:07:24.000Z</Time>
            <Position>
              <LatitudeDegrees>40.6631582044064998626708984375</LatitudeDegrees>
              <LongitudeDegrees>24.70238051377236843109130859375</LongitudeDegrees>
            </Position>
            <AltitudeMeters>284.399993896484375</AltitudeMeters>
            <DistanceMeters>113.52714684033</DistanceMeters>
          </Trackpoint>
          <Trackpoint>
            <Time>2022-02-12T09:07:27.000Z</Time>
            <Position>
              <LatitudeDegrees>40.6631913967430591583251953125</LatitudeDegrees>
              <LongitudeDegrees>24.7024102695286273956298828125</LongitudeDegrees>
            </Position>
            <AltitudeMeters>285.20001220703125</AltitudeMeters>
            <DistanceMeters>117.99542380328</DistanceMeters>
          </Trackpoint>
          <Trackpoint>
            <Time>2022-02-12T09:07:28.000Z</Time>
            <Position>
              <LatitudeDegrees>40.66320396959781646728515625</LatitudeDegrees>
              <LongitudeDegrees>24.70242074690759181976318359375</LongitudeDegrees>
            </Position>
            <AltitudeMeters>285.399993896484375</AltitudeMeters>
            <DistanceMeters>119.65227118278</DistanceMeters>
          </Trackpoint>
          <Trackpoint>
            <Time>2022-02-12T09:07:33.000Z</Time>
            <Position>
              <LatitudeDegrees>40.66324780695140361785888671875</LatitudeDegrees>
              <LongitudeDegrees>24.70247439108788967132568359375</LongitudeDegrees>
            </Position>
            <AltitudeMeters>286.399993896484375</AltitudeMeters>
            <DistanceMeters>126.31024724637</DistanceMeters>
          </Trackpoint>
          <Trackpoint>
            <Time>2022-02-12T09:07:34.000Z</Time>
            <Position>
              <LatitudeDegrees>40.6632561050355434417724609375</LatitudeDegrees>
              <LongitudeDegrees>24.70249593257904052734375</LongitudeDegrees>
            </Position>
            <AltitudeMeters>286.399993896484375</AltitudeMeters>
            <DistanceMeters>128.35276904971</DistanceMeters>
          </Trackpoint>
          <Trackpoint>
            <Time>2022-02-12T09:07:39.000Z</Time>
            <Position>
              <LatitudeDegrees>40.6632923148572444915771484375</LatitudeDegrees>
              <LongitudeDegrees>24.70261688344180583953857421875</LongitudeDegrees>
            </Position>
            <AltitudeMeters>287.399993896484375</AltitudeMeters>
            <DistanceMeters>139.33113096292</DistanceMeters>
          </Trackpoint>
          <Trackpoint>
            <Time>2022-02-12T09:07:42.000Z</Time>
            <Position>
              <LatitudeDegrees>40.66331419162452220916748046875</LatitudeDegrees>
              <LongitudeDegrees>24.702698774635791778564453125</LongitudeDegrees>
            </Position>
            <AltitudeMeters>287.600006103515625</AltitudeMeters>
            <DistanceMeters>146.66175064464</DistanceMeters>
          </Trackpoint>
          <Trackpoint>
            <Time>2022-02-12T09:07:47.000Z</Time>
            <Position>
              <LatitudeDegrees>40.66334671340882778167724609375</LatitudeDegrees>
              <LongitudeDegrees>24.70281804911792278289794921875</LongitudeDegrees>
            </Position>
            <AltitudeMeters>288.79998779296875</AltitudeMeters>
            <DistanceMeters>157.36312576479</DistanceMeters>
          </Trackpoint>
          <Trackpoint>
            <Time>2022-02-12T09:07:49.000Z</Time>
            <Position>
              <LatitudeDegrees>40.66336398012936115264892578125</LatitudeDegrees>
              <LongitudeDegrees>24.70286431722342967987060546875</LongitudeDegrees>
            </Position>
            <AltitudeMeters>289.399993896484375</AltitudeMeters>
            <DistanceMeters>161.71675993131</DistanceMeters>
          </Trackpoint>
          <Trackpoint>
            <Time>2022-02-12T09:07:52.000Z</Time>
            <Position>
              <LatitudeDegrees>40.66339851357042789459228515625</LatitudeDegrees>
              <LongitudeDegrees>24.70293774269521236419677734375</LongitudeDegrees>
            </Position>
            <AltitudeMeters>289.79998779296875</AltitudeMeters>
            <DistanceMeters>169.01095011308</DistanceMeters>
          </Trackpoint>
          <Trackpoint>
            <Time>2022-02-12T09:07:57.000Z</Time>
            <Position>
              <LatitudeDegrees>40.66345081664621829986572265625</LatitudeDegrees>
              <LongitudeDegrees>24.70306632108986377716064453125</LongitudeDegrees>
            </Position>
            <AltitudeMeters>289.79998779296875</AltitudeMeters>
            <DistanceMeters>181.32855314335</DistanceMeters>
          </Trackpoint>
          <Trackpoint>
            <Time>2022-02-12T09:08:03.000Z</Time>
            <Position>
              <LatitudeDegrees>40.66353748552501201629638671875</LatitudeDegrees>
              <LongitudeDegrees>24.703228510916233062744140625</LongitudeDegrees>
            </Position>
            <AltitudeMeters>289.79998779296875</AltitudeMeters>
            <DistanceMeters>198.07834254613</DistanceMeters>
          </Trackpoint>
          <Trackpoint>
            <Time>2022-02-12T09:08:05.000Z</Time>
            <Position>
              <LatitudeDegrees>40.66356212832033634185791015625</LatitudeDegrees>
              <LongitudeDegrees>24.70328726805746555328369140625</LongitudeDegrees>
            </Position>
            <AltitudeMeters>290</AltitudeMeters>
            <DistanceMeters>203.74658848183</DistanceMeters>
          </Trackpoint>
          <Trackpoint>
            <Time>2022-02-12T09:08:11.000Z</Time>
            <Position>
              <LatitudeDegrees>40.6636257469654083251953125</LatitudeDegrees>
              <LongitudeDegrees>24.70343462191522121429443359375</LongitudeDegrees>
            </Position>
            <AltitudeMeters>290.20001220703125</AltitudeMeters>
            <DistanceMeters>218.06128354202</DistanceMeters>
          </Trackpoint>
          <Trackpoint>
            <Time>2022-02-12T09:08:13.000Z</Time>
            <Position>
              <LatitudeDegrees>40.66364787518978118896484375</LatitudeDegrees>
              <LongitudeDegrees>24.7034865058958530426025390625</LongitudeDegrees>
            </Position>
            <AltitudeMeters>290.20001220703125</AltitudeMeters>
            <DistanceMeters>223.08693014855</DistanceMeters>
          </Trackpoint>
          <Trackpoint>
            <Time>2022-02-12T09:08:19.000Z</Time>
            <Position>
              <LatitudeDegrees>40.66372842527925968170166015625</LatitudeDegrees>
              <LongitudeDegrees>24.70364458858966827392578125</LongitudeDegrees>
            </Position>
            <AltitudeMeters>290.399993896484375</AltitudeMeters>
            <DistanceMeters>239.1652704994</DistanceMeters>
          </Trackpoint>
          <Trackpoint>
            <Time>2022-02-12T09:08:21.000Z</Time>
            <Position>
              <LatitudeDegrees>40.66375457681715488433837890625</LatitudeDegrees>
              <LongitudeDegrees>24.7037007473409175872802734375</LongitudeDegrees>
            </Position>
            <AltitudeMeters>290.79998779296875</AltitudeMeters>
            <DistanceMeters>244.72900144633</DistanceMeters>
          </Trackpoint>
          <Trackpoint>
            <Time>2022-02-12T09:08:22.000Z</Time>
            <Position>
              <LatitudeDegrees>40.66376849077641963958740234375</LatitudeDegrees>
              <LongitudeDegrees>24.703728742897510528564453125</LongitudeDegrees>
            </Position>
            <AltitudeMeters>291.20001220703125</AltitudeMeters>
            <DistanceMeters>247.55754307221</DistanceMeters>
          </Trackpoint>
          <Trackpoint>
            <Time>2022-02-12T09:08:27.000Z</Time>
            <Position>
              <LatitudeDegrees>40.66380671225488185882568359375</LatitudeDegrees>
              <LongitudeDegrees>24.70385053195059299468994140625</LongitudeDegrees>
            </Position>
            <AltitudeMeters>292</AltitudeMeters>
            <DistanceMeters>258.68500496608</DistanceMeters>
          </Trackpoint>
          <Trackpoint>
            <Time>2022-02-12T09:08:32.000Z</Time>
            <Position>
              <LatitudeDegrees>40.66384694539010524749755859375</LatitudeDegrees>
              <LongitudeDegrees>24.7039776854217052459716796875</LongitudeDegrees>
            </Position>
            <AltitudeMeters>292.20001220703125</AltitudeMeters>
            <DistanceMeters>270.31675613948</DistanceMeters>
          </Trackpoint>
          <Trackpoint>
            <Time>2022-02-12T09:08:34.000Z</Time>
            <Position>
              <LatitudeDegrees>40.66386052407324314117431640625</LatitudeDegrees>
              <LongitudeDegrees>24.70403241924941539764404296875</LongitudeDegrees>
            </Position>
            <AltitudeMeters>292</AltitudeMeters>
            <DistanceMeters>275.17893056357</DistanceMeters>
          </Trackpoint>
          <Trackpoint>
            <Time>2022-02-12T09:08:40.000Z</Time>
            <Position>
              <LatitudeDegrees>40.663920454680919647216796875</LatitudeDegrees>
              <LongitudeDegrees>24.70417834818363189697265625</LongitudeDegrees>
            </Position>
            <AltitudeMeters>291.399993896484375</AltitudeMeters>
            <DistanceMeters>289.18884639436</DistanceMeters>
          </Trackpoint>
          <Trackpoint>
            <Time>2022-02-12T09:08:46.000Z</Time>
            <Position>
              <LatitudeDegrees>40.66396429203450679779052734375</LatitudeDegrees>
              <LongitudeDegrees>24.7043238580226898193359375</LongitudeDegrees>
            </Position>
            <AltitudeMeters>292.399993896484375</AltitudeMeters>
            <DistanceMeters>302.40746883358</DistanceMeters>
          </Trackpoint>
          <Trackpoint>
            <Time>2022-02-12T09:08:47.000Z</Time>
            <Position>
              <LatitudeDegrees>40.66397418268024921417236328125</LatitudeDegrees>
              <LongitudeDegrees>24.70435193739831447601318359375</LongitudeDegrees>
            </Position>
            <AltitudeMeters>292.600006103515625</AltitudeMeters>
            <DistanceMeters>305.02372530887</DistanceMeters>
          </Trackpoint>
          <Trackpoint>
            <Time>2022-02-12T09:08:52.000Z</Time>
            <Position>
              <LatitudeDegrees>40.66399413160979747772216796875</LatitudeDegrees>
              <LongitudeDegrees>24.70448504202067852020263671875</LongitudeDegrees>
            </Position>
            <AltitudeMeters>293.399993896484375</AltitudeMeters>
            <DistanceMeters>316.47828818708</DistanceMeters>
          </Trackpoint>
          <Trackpoint>
            <Time>2022-02-12T09:08:54.000Z</Time>
            <Position>
              <LatitudeDegrees>40.66399924457073211669921875</LatitudeDegrees>
              <LongitudeDegrees>24.7045446373522281646728515625</LongitudeDegrees>
            </Position>
            <AltitudeMeters>293.600006103515625</AltitudeMeters>
            <DistanceMeters>321.54063516728</DistanceMeters>
          </Trackpoint>
          <Trackpoint>
            <Time>2022-02-12T09:09:00.000Z</Time>
            <Position>
              <LatitudeDegrees>40.6640248931944370269775390625</LatitudeDegrees>
              <LongitudeDegrees>24.70472644083201885223388671875</LongitudeDegrees>
            </Position>
            <AltitudeMeters>294.20001220703125</AltitudeMeters>
            <DistanceMeters>337.15280424705</DistanceMeters>
          </Trackpoint>
          <Trackpoint>
            <Time>2022-02-12T09:09:01.000Z</Time>
            <Position>
              <LatitudeDegrees>40.664035119116306304931640625</LatitudeDegrees>
              <LongitudeDegrees>24.70474873669445514678955078125</LongitudeDegrees>
            </Position>
            <AltitudeMeters>294.399993896484375</AltitudeMeters>
            <DistanceMeters>339.34872337604</DistanceMeters>
          </Trackpoint>
          <Trackpoint>
            <Time>2022-02-12T09:09:02.000Z</Time>
            <Position>
              <LatitudeDegrees>40.66404643468558788299560546875</LatitudeDegrees>
              <LongitudeDegrees>24.7047729603946208953857421875</LongitudeDegrees>
            </Position>
            <AltitudeMeters>294.600006103515625</AltitudeMeters>
            <DistanceMeters>341.75085135924</DistanceMeters>
          </Trackpoint>
          <Trackpoint>
            <Time>2022-02-12T09:09:08.000Z</Time>
            <Position>
              <LatitudeDegrees>40.66412505693733692169189453125</LatitudeDegrees>
              <LongitudeDegrees>24.7049070708453655242919921875</LongitudeDegrees>
            </Position>
            <AltitudeMeters>295.399993896484375</AltitudeMeters>
            <DistanceMeters>356.06112995877</DistanceMeters>
          </Trackpoint>
          <Trackpoint>
            <Time>2022-02-12T09:09:09.000Z</Time>
            <Position>
              <LatitudeDegrees>40.6641449220478534698486328125</LatitudeDegrees>
              <LongitudeDegrees>24.70492408610880374908447265625</LongitudeDegrees>
            </Position>
            <AltitudeMeters>295.399993896484375</AltitudeMeters>
            <DistanceMeters>358.69458751661</DistanceMeters>
          </Trackpoint>
          <Trackpoint>
            <Time>2022-02-12T09:09:15.000Z</Time>
            <Position>
              <LatitudeDegrees>40.66423988901078701019287109375</LatitudeDegrees>
              <LongitudeDegrees>24.70506909303367137908935546875</LongitudeDegrees>
            </Position>
            <AltitudeMeters>296</AltitudeMeters>
            <DistanceMeters>374.86868145048</DistanceMeters>
          </Trackpoint>
          <Trackpoint>
            <Time>2022-02-12T09:09:17.000Z</Time>
            <Position>
              <LatitudeDegrees>40.664271824061870574951171875</LatitudeDegrees>
              <LongitudeDegrees>24.7051136009395122528076171875</LongitudeDegrees>
            </Position>
            <AltitudeMeters>296.20001220703125</AltitudeMeters>
            <DistanceMeters>380.04043999347</DistanceMeters>
          </Trackpoint>
          <Trackpoint>
            <Time>2022-02-12T09:09:21.000Z</Time>
            <Position>
              <LatitudeDegrees>40.6643400527536869049072265625</LatitudeDegrees>
              <LongitudeDegrees>24.7051974199712276458740234375</LongitudeDegrees>
            </Position>
            <AltitudeMeters>296.399993896484375</AltitudeMeters>
            <DistanceMeters>390.42055907415</DistanceMeters>
          </Trackpoint>
          <Trackpoint>
            <Time>2022-02-12T09:09:24.000Z</Time>
            <Position>
              <LatitudeDegrees>40.6643916852772235870361328125</LatitudeDegrees>
              <LongitudeDegrees>24.7052483819425106048583984375</LongitudeDegrees>
            </Position>
            <AltitudeMeters>296.399993896484375</AltitudeMeters>
            <DistanceMeters>397.59995155138</DistanceMeters>
          </Trackpoint>
          <Trackpoint>
            <Time>2022-02-12T09:09:28.000Z</Time>
            <Position>
              <LatitudeDegrees>40.6644580699503421783447265625</LatitudeDegrees>
              <LongitudeDegrees>24.70534418709576129913330078125</LongitudeDegrees>
            </Position>
            <AltitudeMeters>296.79998779296875</AltitudeMeters>
            <DistanceMeters>408.55484616248</DistanceMeters>
          </Trackpoint>
          <Trackpoint>
            <Time>2022-02-12T09:09:34.000Z</Time>
            <Position>
              <LatitudeDegrees>40.6645053438842296600341796875</LatitudeDegrees>
              <LongitudeDegrees>24.7055082209408283233642578125</LongitudeDegrees>
            </Position>
            <AltitudeMeters>297</AltitudeMeters>
            <DistanceMeters>423.36926406849</DistanceMeters>
          </Trackpoint>
          <Trackpoint>
            <Time>2022-02-12T09:09:40.000Z</Time>
            <Position>
              <LatitudeDegrees>40.6645573116838932037353515625</LatitudeDegrees>
              <LongitudeDegrees>24.70567292533814907073974609375</LongitudeDegrees>
            </Position>
            <AltitudeMeters>297.399993896484375</AltitudeMeters>
            <DistanceMeters>438.42972422479</DistanceMeters>
          </Trackpoint>
          <Trackpoint>
            <Time>2022-02-12T09:09:42.000Z</Time>
            <Position>
              <LatitudeDegrees>40.66457399167120456695556640625</LatitudeDegrees>
              <LongitudeDegrees>24.7057251445949077606201171875</LongitudeDegrees>
            </Position>
            <AltitudeMeters>297.399993896484375</AltitudeMeters>
            <DistanceMeters>443.21325991598</DistanceMeters>
          </Trackpoint>
          <Trackpoint>
            <Time>2022-02-12T09:09:48.000Z</Time>
            <Position>
              <LatitudeDegrees>40.66463752649724483489990234375</LatitudeDegrees>
              <LongitudeDegrees>24.7058830596506595611572265625</LongitudeDegrees>
            </Position>
            <AltitudeMeters>297.399993896484375</AltitudeMeters>
            <DistanceMeters>458.30486645967</DistanceMeters>
          </Trackpoint>
          <Trackpoint>
            <Time>2022-02-12T09:09:50.000Z</Time>
            <Position>
              <LatitudeDegrees>40.66465563140809535980224609375</LatitudeDegrees>
              <LongitudeDegrees>24.70593762584030628204345703125</LongitudeDegrees>
            </Position>
            <AltitudeMeters>297.20001220703125</AltitudeMeters>
            <DistanceMeters>463.33320754228</DistanceMeters>
          </Trackpoint>
          <Trackpoint>
            <Time>2022-02-12T09:09:56.000Z</Time>
            <Position>
              <LatitudeDegrees>40.66470541991293430328369140625</LatitudeDegrees>
              <LongitudeDegrees>24.70606301911175251007080078125</LongitudeDegrees>
            </Position>
            <AltitudeMeters>297</AltitudeMeters>
            <DistanceMeters>475.28241541276</DistanceMeters>
          </Trackpoint>
          <Trackpoint>
            <Time>2022-02-12T09:09:58.000Z</Time>
            <Position>
              <LatitudeDegrees>40.664724446833133697509765625</LatitudeDegrees>
              <LongitudeDegrees>24.70610677264630794525146484375</LongitudeDegrees>
            </Position>
            <AltitudeMeters>297.600006103515625</AltitudeMeters>
            <DistanceMeters>479.54063023818</DistanceMeters>
          </Trackpoint>
          <Trackpoint>
            <Time>2022-02-12T09:10:03.000Z</Time>
            <Position>
              <LatitudeDegrees>40.66476233303546905517578125</LatitudeDegrees>
              <LongitudeDegrees>24.7062240354716777801513671875</LongitudeDegrees>
            </Position>
            <AltitudeMeters>298.20001220703125</AltitudeMeters>
            <DistanceMeters>490.3013305054</DistanceMeters>
          </Trackpoint>
          <Trackpoint>
            <Time>2022-02-12T09:10:09.000Z</Time>
            <Position>
              <LatitudeDegrees>40.66484145820140838623046875</LatitudeDegrees>
              <LongitudeDegrees>24.70636694692075252532958984375</LongitudeDegrees>
            </Position>
            <AltitudeMeters>298.600006103515625</AltitudeMeters>
            <DistanceMeters>505.23897385803</DistanceMeters>
          </Trackpoint>
          <Trackpoint>
            <Time>2022-02-12T09:10:10.000Z</Time>
            <Position>
              <LatitudeDegrees>40.66485076211392879486083984375</LatitudeDegrees>
              <LongitudeDegrees>24.7063913382589817047119140625</LongitudeDegrees>
            </Position>
            <AltitudeMeters>298.79998779296875</AltitudeMeters>
            <DistanceMeters>507.54324922114</DistanceMeters>
          </Trackpoint>
          <Trackpoint>
            <Time>2022-02-12T09:10:16.000Z</Time>
            <Position>
              <LatitudeDegrees>40.6648892350494861602783203125</LatitudeDegrees>
              <LongitudeDegrees>24.70655285753309726715087890625</LongitudeDegrees>
            </Position>
            <AltitudeMeters>299.399993896484375</AltitudeMeters>
            <DistanceMeters>521.8364801179</DistanceMeters>
          </Trackpoint>
          <Trackpoint>
            <Time>2022-02-12T09:10:17.000Z</Time>
            <Position>
              <LatitudeDegrees>40.66489401273429393768310546875</LatitudeDegrees>
              <LongitudeDegrees>24.70657867379486560821533203125</LongitudeDegrees>
            </Position>
            <AltitudeMeters>299.600006103515625</AltitudeMeters>
            <DistanceMeters>524.08120340947</DistanceMeters>
          </Trackpoint>
          <Trackpoint>
            <Time>2022-02-12T09:10:18.000Z</Time>
            <Position>
              <LatitudeDegrees>40.6648976169526576995849609375</LatitudeDegrees>
              <LongitudeDegrees>24.70660666935145854949951171875</LongitudeDegrees>
            </Position>
            <AltitudeMeters>299.79998779296875</AltitudeMeters>
            <DistanceMeters>526.47956924787</DistanceMeters>
          </Trackpoint>
          <Trackpoint>
            <Time>2022-02-12T09:10:24.000Z</Time>
            <Position>
              <LatitudeDegrees>40.664889402687549591064453125</LatitudeDegrees>
              <LongitudeDegrees>24.7068268619477748870849609375</LongitudeDegrees>
            </Position>
            <AltitudeMeters>300</AltitudeMeters>
            <DistanceMeters>545.09219541121</DistanceMeters>
          </Trackpoint>
          <Trackpoint>
            <Time>2022-02-12T09:10:30.000Z</Time>
            <Position>
              <LatitudeDegrees>40.66486987285315990447998046875</LatitudeDegrees>
              <LongitudeDegrees>24.70702190883457660675048828125</LongitudeDegrees>
            </Position>
            <AltitudeMeters>299.79998779296875</AltitudeMeters>
            <DistanceMeters>561.70231057012</DistanceMeters>
          </Trackpoint>
          <Trackpoint>
            <Time>2022-02-12T09:10:31.000Z</Time>
            <Position>
              <LatitudeDegrees>40.664874650537967681884765625</LatitudeDegrees>
              <LongitudeDegrees>24.707053340971469879150390625</LongitudeDegrees>
            </Position>
            <AltitudeMeters>299.79998779296875</AltitudeMeters>
            <DistanceMeters>564.41015511375</DistanceMeters>
          </Trackpoint>
          <Trackpoint>
            <Time>2022-02-12T09:10:37.000Z</Time>
            <Position>
              <LatitudeDegrees>40.6648949347436428070068359375</LatitudeDegrees>
              <LongitudeDegrees>24.70723983831703662872314453125</LongitudeDegrees>
            </Position>
            <AltitudeMeters>299.600006103515625</AltitudeMeters>
            <DistanceMeters>580.31684370565</DistanceMeters>
          </Trackpoint>
          <Trackpoint>
            <Time>2022-02-12T09:10:39.000Z</Time>
            <Position>
              <LatitudeDegrees>40.66491915844380855560302734375</LatitudeDegrees>
              <LongitudeDegrees>24.70729239284992218017578125</LongitudeDegrees>
            </Position>
            <AltitudeMeters>299.399993896484375</AltitudeMeters>
            <DistanceMeters>585.50777311268</DistanceMeters>
          </Trackpoint>
          <Trackpoint>
            <Time>2022-02-12T09:10:44.000Z</Time>
            <Position>
              <LatitudeDegrees>40.6649760715663433074951171875</LatitudeDegrees>
              <LongitudeDegrees>24.70743128098547458648681640625</LongitudeDegrees>
            </Position>
            <AltitudeMeters>299.79998779296875</AltitudeMeters>
            <DistanceMeters>598.83490984854</DistanceMeters>
          </Trackpoint>
          <Trackpoint>
            <Time>2022-02-12T09:10:46.000Z</Time>
            <Position>
              <LatitudeDegrees>40.66499576903879642486572265625</LatitudeDegrees>
              <LongitudeDegrees>24.70748484134674072265625</LongitudeDegrees>
            </Position>
            <AltitudeMeters>300.20001220703125</AltitudeMeters>
            <DistanceMeters>603.86055645507</DistanceMeters>
          </Trackpoint>
          <Trackpoint>
            <Time>2022-02-12T09:10:51.000Z</Time>
            <Position>
              <LatitudeDegrees>40.665037594735622406005859375</LatitudeDegrees>
              <LongitudeDegrees>24.70759606920182704925537109375</LongitudeDegrees>
            </Position>
            <AltitudeMeters>300.600006103515625</AltitudeMeters>
            <DistanceMeters>614.34153350593</DistanceMeters>
          </Trackpoint>
          <Trackpoint>
            <Time>2022-02-12T09:14:12.000Z</Time>
            <Position>
              <LatitudeDegrees>40.665036253631114959716796875</LatitudeDegrees>
              <LongitudeDegrees>24.7076006792485713958740234375</LongitudeDegrees>
            </Position>
            <AltitudeMeters>301.20001220703125</AltitudeMeters>
            <DistanceMeters>614.76650589195</DistanceMeters>
          </Trackpoint>
          <Trackpoint>
            <Time>2022-02-12T09:14:13.000Z</Time>
            <Position>
              <LatitudeDegrees>40.6650344096124172210693359375</LatitudeDegrees>
              <LongitudeDegrees>24.707613922655582427978515625</LongitudeDegrees>
            </Position>
            <AltitudeMeters>301.20001220703125</AltitudeMeters>
            <DistanceMeters>615.90682646439</DistanceMeters>
          </Trackpoint>
          <Trackpoint>
            <Time>2022-02-12T09:14:16.000Z</Time>
            <Position>
              <LatitudeDegrees>40.66506383009254932403564453125</LatitudeDegrees>
              <LongitudeDegrees>24.7076781280338764190673828125</LongitudeDegrees>
            </Position>
            <AltitudeMeters>301</AltitudeMeters>
            <DistanceMeters>622.24019835968</DistanceMeters>
          </Trackpoint>
          <Trackpoint>
            <Time>2022-02-12T09:14:19.000Z</Time>
            <Position>
              <LatitudeDegrees>40.665114037692546844482421875</LatitudeDegrees>
              <LongitudeDegrees>24.7077726759016513824462890625</LongitudeDegrees>
            </Position>
            <AltitudeMeters>300.79998779296875</AltitudeMeters>
            <DistanceMeters>631.9840283937</DistanceMeters>
          </Trackpoint>
          <Trackpoint>
            <Time>2022-02-12T09:14:22.000Z</Time>
            <Position>
              <LatitudeDegrees>40.66516525112092494964599609375</LatitudeDegrees>
              <LongitudeDegrees>24.70787250436842441558837890625</LongitudeDegrees>
            </Position>
            <AltitudeMeters>300.20001220703125</AltitudeMeters>
            <DistanceMeters>642.15854540206</DistanceMeters>
          </Trackpoint>
          <Trackpoint>
            <Time>2022-02-12T09:14:23.000Z</Time>
            <Position>
              <LatitudeDegrees>40.66518402658402919769287109375</LatitudeDegrees>
              <LongitudeDegrees>24.70790133811533451080322265625</LongitudeDegrees>
            </Position>
            <AltitudeMeters>300.20001220703125</AltitudeMeters>
            <DistanceMeters>645.36701655607</DistanceMeters>
          </Trackpoint>
          <Trackpoint>
            <Time>2022-02-12T09:14:28.000Z</Time>
            <Position>
              <LatitudeDegrees>40.665228702127933502197265625</LatitudeDegrees>
              <LongitudeDegrees>24.70806696452200412750244140625</LongitudeDegrees>
            </Position>
            <AltitudeMeters>299.79998779296875</AltitudeMeters>
            <DistanceMeters>660.20823027399</DistanceMeters>
          </Trackpoint>
          <Trackpoint>
            <Time>2022-02-12T09:14:29.000Z</Time>
            <Position>
              <LatitudeDegrees>40.66523012705147266387939453125</LatitudeDegrees>
              <LongitudeDegrees>24.7081032581627368927001953125</LongitudeDegrees>
            </Position>
            <AltitudeMeters>299.79998779296875</AltitudeMeters>
            <DistanceMeters>663.27863738177</DistanceMeters>
          </Trackpoint>
          <Trackpoint>
            <Time>2022-02-12T09:14:35.000Z</Time>
            <Position>
              <LatitudeDegrees>40.6652295403182506561279296875</LatitudeDegrees>
              <LongitudeDegrees>24.7083057649433612823486328125</LongitudeDegrees>
            </Position>
            <AltitudeMeters>300</AltitudeMeters>
            <DistanceMeters>680.37552524158</DistanceMeters>
          </Trackpoint>
          <Trackpoint>
            <Time>2022-02-12T09:14:36.000Z</Time>
            <Position>
              <LatitudeDegrees>40.6652295403182506561279296875</LatitudeDegrees>
              <LongitudeDegrees>24.70833711326122283935546875</LongitudeDegrees>
            </Position>
            <AltitudeMeters>300</AltitudeMeters>
            <DistanceMeters>683.02266319048</DistanceMeters>
          </Trackpoint>
          <Trackpoint>
            <Time>2022-02-12T09:14:42.000Z</Time>
            <Position>
              <LatitudeDegrees>40.66523750312626361846923828125</LatitudeDegrees>
              <LongitudeDegrees>24.70852763392031192779541015625</LongitudeDegrees>
            </Position>
            <AltitudeMeters>299.600006103515625</AltitudeMeters>
            <DistanceMeters>699.13186356935</DistanceMeters>
          </Trackpoint>
          <Trackpoint>
            <Time>2022-02-12T09:14:43.000Z</Time>
            <Position>
              <LatitudeDegrees>40.6652377545833587646484375</LatitudeDegrees>
              <LongitudeDegrees>24.7085602395236492156982421875</LongitudeDegrees>
            </Position>
            <AltitudeMeters>299.79998779296875</AltitudeMeters>
            <DistanceMeters>701.88271872003</DistanceMeters>
          </Trackpoint>
          <Trackpoint>
            <Time>2022-02-12T09:14:48.000Z</Time>
            <Position>
              <LatitudeDegrees>40.66526432521641254425048828125</LatitudeDegrees>
              <LongitudeDegrees>24.7087104432284832000732421875</LongitudeDegrees>
            </Position>
            <AltitudeMeters>299.600006103515625</AltitudeMeters>
            <DistanceMeters>714.90380605219</DistanceMeters>
          </Trackpoint>
          <Trackpoint>
            <Time>2022-02-12T09:14:49.000Z</Time>
            <Position>
              <LatitudeDegrees>40.6652680970728397369384765625</LatitudeDegrees>
              <LongitudeDegrees>24.70873986370861530303955078125</LongitudeDegrees>
            </Position>
            <AltitudeMeters>299.600006103515625</AltitudeMeters>
            <DistanceMeters>717.42156570388</DistanceMeters>
          </Trackpoint>
          <Trackpoint>
            <Time>2022-02-12T09:14:53.000Z</Time>
            <Position>
              <LatitudeDegrees>40.6652860343456268310546875</LatitudeDegrees>
              <LongitudeDegrees>24.70884807407855987548828125</LongitudeDegrees>
            </Position>
            <AltitudeMeters>299.79998779296875</AltitudeMeters>
            <DistanceMeters>726.77288968946</DistanceMeters>
          </Trackpoint>
          <Trackpoint>
            <Time>2022-02-12T09:14:56.000Z</Time>
            <Position>
              <LatitudeDegrees>40.66530372016131877899169921875</LatitudeDegrees>
              <LongitudeDegrees>24.70892493613064289093017578125</LongitudeDegrees>
            </Position>
            <AltitudeMeters>300</AltitudeMeters>
            <DistanceMeters>733.55382983464</DistanceMeters>
          </Trackpoint>
          <Trackpoint>
            <Time>2022-02-12T09:15:02.000Z</Time>
            <Position>
              <LatitudeDegrees>40.6653468869626522064208984375</LatitudeDegrees>
              <LongitudeDegrees>24.7090955078601837158203125</LongitudeDegrees>
            </Position>
            <AltitudeMeters>300.20001220703125</AltitudeMeters>
            <DistanceMeters>748.73492370178</DistanceMeters>
          </Trackpoint>
          <Trackpoint>
            <Time>2022-02-12T09:15:03.000Z</Time>
            <Position>
              <LatitudeDegrees>40.66535870544612407684326171875</LatitudeDegrees>
              <LongitudeDegrees>24.7091218270361423492431640625</LongitudeDegrees>
            </Position>
            <AltitudeMeters>300.20001220703125</AltitudeMeters>
            <DistanceMeters>751.31643419287</DistanceMeters>
          </Trackpoint>
          <Trackpoint>
            <Time>2022-02-12T09:15:09.000Z</Time>
            <Position>
              <LatitudeDegrees>40.66542073152959346771240234375</LatitudeDegrees>
              <LongitudeDegrees>24.709263145923614501953125</LongitudeDegrees>
            </Position>
            <AltitudeMeters>300.600006103515625</AltitudeMeters>
            <DistanceMeters>765.10087718248</DistanceMeters>
          </Trackpoint>
          <Trackpoint>
            <Time>2022-02-12T09:15:15.000Z</Time>
            <Position>
              <LatitudeDegrees>40.66545409150421619415283203125</LatitudeDegrees>
              <LongitudeDegrees>24.709449224174022674560546875</LongitudeDegrees>
            </Position>
            <AltitudeMeters>301.20001220703125</AltitudeMeters>
            <DistanceMeters>781.24339606719</DistanceMeters>
          </Trackpoint>
          <Trackpoint>
            <Time>2022-02-12T09:15:21.000Z</Time>
            <Position>
              <LatitudeDegrees>40.66539927385747432708740234375</LatitudeDegrees>
              <LongitudeDegrees>24.70965080894529819488525390625</LongitudeDegrees>
            </Position>
            <AltitudeMeters>301.600006103515625</AltitudeMeters>
            <DistanceMeters>799.32271234415</DistanceMeters>
          </Trackpoint>
          <Trackpoint>
            <Time>2022-02-12T09:15:26.000Z</Time>
            <Position>
              <LatitudeDegrees>40.6653034687042236328125</LatitudeDegrees>
              <LongitudeDegrees>24.709764383733272552490234375</LongitudeDegrees>
            </Position>
            <AltitudeMeters>301.399993896484375</AltitudeMeters>
            <DistanceMeters>813.66324793159</DistanceMeters>
          </Trackpoint>
          <Trackpoint>
            <Time>2022-02-12T09:15:32.000Z</Time>
            <Position>
              <LatitudeDegrees>40.665209256112575531005859375</LatitudeDegrees>
              <LongitudeDegrees>24.7099187783896923065185546875</LongitudeDegrees>
            </Position>
            <AltitudeMeters>301.399993896484375</AltitudeMeters>
            <DistanceMeters>830.3928082756</DistanceMeters>
          </Trackpoint>
          <Trackpoint>
            <Time>2022-02-12T09:15:35.000Z</Time>
            <Position>
              <LatitudeDegrees>40.66517673432826995849609375</LatitudeDegrees>
              <LongitudeDegrees>24.70999429933726787567138671875</LongitudeDegrees>
            </Position>
            <AltitudeMeters>300.79998779296875</AltitudeMeters>
            <DistanceMeters>837.72404384639</DistanceMeters>
          </Trackpoint>
          <Trackpoint>
            <Time>2022-02-12T09:15:40.000Z</Time>
            <Position>
              <LatitudeDegrees>40.66514630801975727081298828125</LatitudeDegrees>
              <LongitudeDegrees>24.71012924797832965850830078125</LongitudeDegrees>
            </Position>
            <AltitudeMeters>300.20001220703125</AltitudeMeters>
            <DistanceMeters>849.60960297877</DistanceMeters>
          </Trackpoint>
          <Trackpoint>
            <Time>2022-02-12T09:15:42.000Z</Time>
            <Position>
              <LatitudeDegrees>40.66515527665615081787109375</LatitudeDegrees>
              <LongitudeDegrees>24.71018305979669094085693359375</LongitudeDegrees>
            </Position>
            <AltitudeMeters>299.399993896484375</AltitudeMeters>
            <DistanceMeters>854.26106115441</DistanceMeters>
          </Trackpoint>
          <Trackpoint>
            <Time>2022-02-12T09:15:43.000Z</Time>
            <Position>
              <LatitudeDegrees>40.66515686921775341033935546875</LatitudeDegrees>
              <LongitudeDegrees>24.71021356992423534393310546875</LongitudeDegrees>
            </Position>
            <AltitudeMeters>299</AltitudeMeters>
            <DistanceMeters>856.84257164551</DistanceMeters>
          </Trackpoint>
          <Trackpoint>
            <Time>2022-02-12T09:15:49.000Z</Time>
            <Position>
              <LatitudeDegrees>40.66518989391624927520751953125</LatitudeDegrees>
              <LongitudeDegrees>24.7103814594447612762451171875</LongitudeDegrees>
            </Position>
            <AltitudeMeters>298.600006103515625</AltitudeMeters>
            <DistanceMeters>871.48563024546</DistanceMeters>
          </Trackpoint>
          <Trackpoint>
            <Time>2022-02-12T09:15:52.000Z</Time>
            <Position>
              <LatitudeDegrees>40.66520330496132373809814453125</LatitudeDegrees>
              <LongitudeDegrees>24.7104595787823200225830078125</LongitudeDegrees>
            </Position>
            <AltitudeMeters>298</AltitudeMeters>
            <DistanceMeters>878.24723338642</DistanceMeters>
          </Trackpoint>
          <Trackpoint>
            <Time>2022-02-12T09:15:56.000Z</Time>
            <Position>
              <LatitudeDegrees>40.66522903740406036376953125</LatitudeDegrees>
              <LongitudeDegrees>24.71056871116161346435546875</LongitudeDegrees>
            </Position>
            <AltitudeMeters>297.399993896484375</AltitudeMeters>
            <DistanceMeters>887.89560413286</DistanceMeters>
          </Trackpoint>
          <Trackpoint>
            <Time>2022-02-12T09:15:59.000Z</Time>
            <Position>
              <LatitudeDegrees>40.66525041125714778900146484375</LatitudeDegrees>
              <LongitudeDegrees>24.7106483392417430877685546875</LongitudeDegrees>
            </Position>
            <AltitudeMeters>296.79998779296875</AltitudeMeters>
            <DistanceMeters>895.02704091182</DistanceMeters>
          </Trackpoint>
          <Trackpoint>
            <Time>2022-02-12T09:16:02.000Z</Time>
            <Position>
              <LatitudeDegrees>40.6652721203863620758056640625</LatitudeDegrees>
              <LongitudeDegrees>24.71073056571185588836669921875</LongitudeDegrees>
            </Position>
            <AltitudeMeters>296.399993896484375</AltitudeMeters>
            <DistanceMeters>902.37734344738</DistanceMeters>
          </Trackpoint>
          <Trackpoint>
            <Time>2022-02-12T09:16:08.000Z</Time>
            <Position>
              <LatitudeDegrees>40.66531847231090068817138671875</LatitudeDegrees>
              <LongitudeDegrees>24.710903652012348175048828125</LongitudeDegrees>
            </Position>
            <AltitudeMeters>296</AltitudeMeters>
            <DistanceMeters>917.87456620191</DistanceMeters>
          </Trackpoint>
          <Trackpoint>
            <Time>2022-02-12T09:16:09.000Z</Time>
            <Position>
              <LatitudeDegrees>40.66532098688185214996337890625</LatitudeDegrees>
              <LongitudeDegrees>24.7109323181211948394775390625</LongitudeDegrees>
            </Position>
            <AltitudeMeters>295.600006103515625</AltitudeMeters>
            <DistanceMeters>920.30843763385</DistanceMeters>
          </Trackpoint>
          <Trackpoint>
            <Time>2022-02-12T09:16:10.000Z</Time>
            <Position>
              <LatitudeDegrees>40.665327943861484527587890625</LatitudeDegrees>
              <LongitudeDegrees>24.71096165478229522705078125</LongitudeDegrees>
            </Position>
            <AltitudeMeters>295.20001220703125</AltitudeMeters>
            <DistanceMeters>922.90390233736</DistanceMeters>
          </Trackpoint>
          <Trackpoint>
            <Time>2022-02-12T09:16:16.000Z</Time>
            <Position>
              <LatitudeDegrees>40.6653676740825176239013671875</LatitudeDegrees>
              <LongitudeDegrees>24.7111405245959758758544921875</LongitudeDegrees>
            </Position>
            <AltitudeMeters>294.600006103515625</AltitudeMeters>
            <DistanceMeters>938.63907523177</DistanceMeters>
          </Trackpoint>
          <Trackpoint>
            <Time>2022-02-12T09:16:22.000Z</Time>
            <Position>
              <LatitudeDegrees>40.66540095023810863494873046875</LatitudeDegrees>
              <LongitudeDegrees>24.7113121859729290008544921875</LongitudeDegrees>
            </Position>
            <AltitudeMeters>294.79998779296875</AltitudeMeters>
            <DistanceMeters>953.59755992123</DistanceMeters>
          </Trackpoint>
          <Trackpoint>
            <Time>2022-02-12T09:16:23.000Z</Time>
            <Position>
              <LatitudeDegrees>40.66540715284645557403564453125</LatitudeDegrees>
              <LongitudeDegrees>24.711341522634029388427734375</LongitudeDegrees>
            </Position>
            <AltitudeMeters>294.79998779296875</AltitudeMeters>
            <DistanceMeters>956.17031059579</DistanceMeters>
          </Trackpoint>
          <Trackpoint>
            <Time>2022-02-12T09:16:29.000Z</Time>
            <Position>
              <LatitudeDegrees>40.66543422639369964599609375</LatitudeDegrees>
              <LongitudeDegrees>24.71151595003902912139892578125</LongitudeDegrees>
            </Position>
            <AltitudeMeters>295</AltitudeMeters>
            <DistanceMeters>971.20136220996</DistanceMeters>
          </Trackpoint>
          <Trackpoint>
            <Time>2022-02-12T09:16:32.000Z</Time>
            <Position>
              <LatitudeDegrees>40.66544587723910808563232421875</LatitudeDegrees>
              <LongitudeDegrees>24.7116102464497089385986328125</LongitudeDegrees>
            </Position>
            <AltitudeMeters>295</AltitudeMeters>
            <DistanceMeters>979.26688579509</DistanceMeters>
          </Trackpoint>
          <Trackpoint>
            <Time>2022-02-12T09:16:38.000Z</Time>
            <Position>
              <LatitudeDegrees>40.6654665805399417877197265625</LatitudeDegrees>
              <LongitudeDegrees>24.71176153980195522308349609375</LongitudeDegrees>
            </Position>
            <AltitudeMeters>295</AltitudeMeters>
            <DistanceMeters>992.24629664991</DistanceMeters>
          </Trackpoint>
          <Trackpoint>
            <Time>2022-02-12T09:16:40.000Z</Time>
            <Position>
              <LatitudeDegrees>40.6654806621372699737548828125</LatitudeDegrees>
              <LongitudeDegrees>24.7118164412677288055419921875</LongitudeDegrees>
            </Position>
            <AltitudeMeters>295</AltitudeMeters>
            <DistanceMeters>997.13901906723</DistanceMeters>
          </Trackpoint>
          <Trackpoint>
            <Time>2022-02-12T09:16:42.000Z</Time>
            <Position>
              <LatitudeDegrees>40.66549683921039104461669921875</LatitudeDegrees>
              <LongitudeDegrees>24.7118608653545379638671875</LongitudeDegrees>
            </Position>
            <AltitudeMeters>295.20001220703125</AltitudeMeters>
            <DistanceMeters>1001.2985414517</DistanceMeters>
          </Trackpoint>
          <Trackpoint>
            <Time>2022-02-12T09:16:46.000Z</Time>
            <Position>
              <LatitudeDegrees>40.66554226912558078765869140625</LatitudeDegrees>
              <LongitudeDegrees>24.71195197664201259613037109375</LongitudeDegrees>
            </Position>
            <AltitudeMeters>295.399993896484375</AltitudeMeters>
            <DistanceMeters>1010.5033883963</DistanceMeters>
          </Trackpoint>
          <Trackpoint>
            <Time>2022-02-12T09:16:52.000Z</Time>
            <Position>
              <LatitudeDegrees>40.665595829486846923828125</LatitudeDegrees>
              <LongitudeDegrees>24.7121151722967624664306640625</LongitudeDegrees>
            </Position>
            <AltitudeMeters>294.79998779296875</AltitudeMeters>
            <DistanceMeters>1025.5158048536</DistanceMeters>
          </Trackpoint>
          <Trackpoint>
            <Time>2022-02-12T09:16:53.000Z</Time>
            <Position>
              <LatitudeDegrees>40.66559851169586181640625</LatitudeDegrees>
              <LongitudeDegrees>24.7121507115662097930908203125</LongitudeDegrees>
            </Position>
            <AltitudeMeters>294.79998779296875</AltitudeMeters>
            <DistanceMeters>1028.5313126017</DistanceMeters>
          </Trackpoint>
          <Trackpoint>
            <Time>2022-02-12T09:16:57.000Z</Time>
            <Position>
              <LatitudeDegrees>40.6656312011182308197021484375</LatitudeDegrees>
              <LongitudeDegrees>24.7122650407254695892333984375</LongitudeDegrees>
            </Position>
            <AltitudeMeters>295</AltitudeMeters>
            <DistanceMeters>1038.8459798607</DistanceMeters>
          </Trackpoint>
          <Trackpoint>
            <Time>2022-02-12T09:17:00.000Z</Time>
            <Position>
              <LatitudeDegrees>40.6656533293426036834716796875</LatitudeDegrees>
              <LongitudeDegrees>24.7123478539288043975830078125</LongitudeDegrees>
            </Position>
            <AltitudeMeters>295.600006103515625</AltitudeMeters>
            <DistanceMeters>1046.2580635815</DistanceMeters>
          </Trackpoint>
          <Trackpoint>
            <Time>2022-02-12T09:17:01.000Z</Time>
            <Position>
              <LatitudeDegrees>40.66565726883709430694580078125</LatitudeDegrees>
              <LongitudeDegrees>24.7123776935040950775146484375</LongitudeDegrees>
            </Position>
            <AltitudeMeters>295.79998779296875</AltitudeMeters>
            <DistanceMeters>1048.8149709607</DistanceMeters>
          </Trackpoint>
          <Trackpoint>
            <Time>2022-02-12T09:17:07.000Z</Time>
            <Position>
              <LatitudeDegrees>40.665723569691181182861328125</LatitudeDegrees>
              <LongitudeDegrees>24.71254860050976276397705078125</LongitudeDegrees>
            </Position>
            <AltitudeMeters>297</AltitudeMeters>
            <DistanceMeters>1065.0214142302</DistanceMeters>
          </Trackpoint>
          <Trackpoint>
            <Time>2022-02-12T09:17:12.000Z</Time>
            <Position>
              <LatitudeDegrees>40.66574293188750743865966796875</LatitudeDegrees>
              <LongitudeDegrees>24.712698720395565032958984375</LongitudeDegrees>
            </Position>
            <AltitudeMeters>298.20001220703125</AltitudeMeters>
            <DistanceMeters>1077.8774435221</DistanceMeters>
          </Trackpoint>
          <Trackpoint>
            <Time>2022-02-12T09:17:14.000Z</Time>
            <Position>
              <LatitudeDegrees>40.66573605872690677642822265625</LatitudeDegrees>
              <LongitudeDegrees>24.712763763964176177978515625</LongitudeDegrees>
            </Position>
            <AltitudeMeters>298.399993896484375</AltitudeMeters>
            <DistanceMeters>1083.4216639556</DistanceMeters>
          </Trackpoint>
          <Trackpoint>
            <Time>2022-02-12T09:17:20.000Z</Time>
            <Position>
              <LatitudeDegrees>40.6657213903963565826416015625</LatitudeDegrees>
              <LongitudeDegrees>24.7129483334720134735107421875</LongitudeDegrees>
            </Position>
            <AltitudeMeters>299</AltitudeMeters>
            <DistanceMeters>1099.0892610289</DistanceMeters>
          </Trackpoint>
          <Trackpoint>
            <Time>2022-02-12T09:17:21.000Z</Time>
            <Position>
              <LatitudeDegrees>40.6657230667769908905029296875</LatitudeDegrees>
              <LongitudeDegrees>24.71297607757151126861572265625</LongitudeDegrees>
            </Position>
            <AltitudeMeters>299.20001220703125</AltitudeMeters>
            <DistanceMeters>1101.4400921126</DistanceMeters>
          </Trackpoint>
          <Trackpoint>
            <Time>2022-02-12T09:17:27.000Z</Time>
            <Position>
              <LatitudeDegrees>40.665743686258792877197265625</LatitudeDegrees>
              <LongitudeDegrees>24.7131404466927051544189453125</LongitudeDegrees>
            </Position>
            <AltitudeMeters>299.20001220703125</AltitudeMeters>
            <DistanceMeters>1115.5053299255</DistanceMeters>
          </Trackpoint>
          <Trackpoint>
            <Time>2022-02-12T09:17:33.000Z</Time>
            <Position>
              <LatitudeDegrees>40.66575902514159679412841796875</LatitudeDegrees>
              <LongitudeDegrees>24.713306911289691925048828125</LongitudeDegrees>
            </Position>
            <AltitudeMeters>300.20001220703125</AltitudeMeters>
            <DistanceMeters>1129.6620780195</DistanceMeters>
          </Trackpoint>
          <Trackpoint>
            <Time>2022-02-12T09:17:34.000Z</Time>
            <Position>
              <LatitudeDegrees>40.6657569296658039093017578125</LatitudeDegrees>
              <LongitudeDegrees>24.7133375890552997589111328125</LongitudeDegrees>
            </Position>
            <AltitudeMeters>300.399993896484375</AltitudeMeters>
            <DistanceMeters>1132.2644917708</DistanceMeters>
          </Trackpoint>
          <Trackpoint>
            <Time>2022-02-12T09:17:35.000Z</Time>
            <Position>
              <LatitudeDegrees>40.6657586060464382171630859375</LatitudeDegrees>
              <LongitudeDegrees>24.7133660875260829925537109375</LongitudeDegrees>
            </Position>
            <AltitudeMeters>300.600006103515625</AltitudeMeters>
            <DistanceMeters>1134.6778710005</DistanceMeters>
          </Trackpoint>
          <Trackpoint>
            <Time>2022-02-12T09:17:41.000Z</Time>
            <Position>
              <LatitudeDegrees>40.66580168902873992919921875</LatitudeDegrees>
              <LongitudeDegrees>24.71350707113742828369140625</LongitudeDegrees>
            </Position>
            <AltitudeMeters>301.399993896484375</AltitudeMeters>
            <DistanceMeters>1147.5103483152</DistanceMeters>
          </Trackpoint>
          <Trackpoint>
            <Time>2022-02-12T09:17:42.000Z</Time>
            <Position>
              <LatitudeDegrees>40.665810741484165191650390625</LatitudeDegrees>
              <LongitudeDegrees>24.71353054046630859375</LongitudeDegrees>
            </Position>
            <AltitudeMeters>301.399993896484375</AltitudeMeters>
            <DistanceMeters>1149.7348666656</DistanceMeters>
          </Trackpoint>
          <Trackpoint>
            <Time>2022-02-12T09:17:43.000Z</Time>
            <Position>
              <LatitudeDegrees>40.66581987775862216949462890625</LatitudeDegrees>
              <LongitudeDegrees>24.7135506570339202880859375</LongitudeDegrees>
            </Position>
            <AltitudeMeters>301.600006103515625</AltitudeMeters>
            <DistanceMeters>1151.7145265295</DistanceMeters>
          </Trackpoint>
          <Trackpoint>
            <Time>2022-02-12T09:17:46.000Z</Time>
            <Position>
              <LatitudeDegrees>40.66584485583007335662841796875</LatitudeDegrees>
              <LongitudeDegrees>24.71361578442156314849853515625</LongitudeDegrees>
            </Position>
            <AltitudeMeters>302.20001220703125</AltitudeMeters>
            <DistanceMeters>1157.8758933722</DistanceMeters>
          </Trackpoint>
          <Trackpoint>
            <Time>2022-02-12T09:17:49.000Z</Time>
            <Position>
              <LatitudeDegrees>40.66586614586412906646728515625</LatitudeDegrees>
              <LongitudeDegrees>24.71367739140987396240234375</LongitudeDegrees>
            </Position>
            <AltitudeMeters>302.399993896484375</AltitudeMeters>
            <DistanceMeters>1163.5917324684</DistanceMeters>
          </Trackpoint>
          <Trackpoint>
            <Time>2022-02-12T09:17:50.000Z</Time>
            <Position>
              <LatitudeDegrees>40.66587117500603199005126953125</LatitudeDegrees>
              <LongitudeDegrees>24.7136981785297393798828125</LongitudeDegrees>
            </Position>
            <AltitudeMeters>302.600006103515625</AltitudeMeters>
            <DistanceMeters>1165.4343688251</DistanceMeters>
          </Trackpoint>
          <Trackpoint>
            <Time>2022-02-12T09:17:53.000Z</Time>
            <Position>
              <LatitudeDegrees>40.66589263267815113067626953125</LatitudeDegrees>
              <LongitudeDegrees>24.71375961787998676300048828125</LongitudeDegrees>
            </Position>
            <AltitudeMeters>303</AltitudeMeters>
            <DistanceMeters>1171.145466453</DistanceMeters>
          </Trackpoint>
          <Trackpoint>
            <Time>2022-02-12T09:18:18.000Z</Time>
            <Position>
              <LatitudeDegrees>40.665908642113208770751953125</LatitudeDegrees>
              <LongitudeDegrees>24.71378794871270656585693359375</LongitudeDegrees>
            </Position>
            <AltitudeMeters>304</AltitudeMeters>
            <DistanceMeters>1174.1263380069</DistanceMeters>
          </Trackpoint>
          <Trackpoint>
            <Time>2022-02-12T09:18:19.000Z</Time>
            <Position>
              <LatitudeDegrees>40.66589958965778350830078125</LatitudeDegrees>
              <LongitudeDegrees>24.71379951573908329010009765625</LongitudeDegrees>
            </Position>
            <AltitudeMeters>304</AltitudeMeters>
            <DistanceMeters>1175.5326049592</DistanceMeters>
          </Trackpoint>
          <Trackpoint>
            <Time>2022-02-12T09:18:25.000Z</Time>
            <Position>
              <LatitudeDegrees>40.66593177616596221923828125</LatitudeDegrees>
              <LongitudeDegrees>24.71390529535710811614990234375</LongitudeDegrees>
            </Position>
            <AltitudeMeters>303.399993896484375</AltitudeMeters>
            <DistanceMeters>1185.1552035613</DistanceMeters>
          </Trackpoint>
          <Trackpoint>
            <Time>2022-02-12T09:18:26.000Z</Time>
            <Position>
              <LatitudeDegrees>40.66594392992556095123291015625</LatitudeDegrees>
              <LongitudeDegrees>24.71393245272338390350341796875</LongitudeDegrees>
            </Position>
            <AltitudeMeters>303</AltitudeMeters>
            <DistanceMeters>1187.8176479285</DistanceMeters>
          </Trackpoint>
          <Trackpoint>
            <Time>2022-02-12T09:18:28.000Z</Time>
            <Position>
              <LatitudeDegrees>40.6659671477973461151123046875</LatitudeDegrees>
              <LongitudeDegrees>24.71398894675076007843017578125</LongitudeDegrees>
            </Position>
            <AltitudeMeters>302.600006103515625</AltitudeMeters>
            <DistanceMeters>1193.2416675685</DistanceMeters>
          </Trackpoint>
          <Trackpoint>
            <Time>2022-02-12T09:18:33.000Z</Time>
            <Position>
              <LatitudeDegrees>40.66602875478565692901611328125</LatitudeDegrees>
              <LongitudeDegrees>24.71413613297045230865478515625</LongitudeDegrees>
            </Position>
            <AltitudeMeters>302.600006103515625</AltitudeMeters>
            <DistanceMeters>1207.434091081</DistanceMeters>
          </Trackpoint>
          <Trackpoint>
            <Time>2022-02-12T09:18:38.000Z</Time>
            <Position>
              <LatitudeDegrees>40.666054151952266693115234375</LatitudeDegrees>
              <LongitudeDegrees>24.714267142117023468017578125</LongitudeDegrees>
            </Position>
            <AltitudeMeters>303</AltitudeMeters>
            <DistanceMeters>1218.8499600028</DistanceMeters>
          </Trackpoint>
          <Trackpoint>
            <Time>2022-02-12T09:18:44.000Z</Time>
            <Position>
              <LatitudeDegrees>40.6661255657672882080078125</LatitudeDegrees>
              <LongitudeDegrees>24.71447375603020191192626953125</LongitudeDegrees>
            </Position>
            <AltitudeMeters>303.600006103515625</AltitudeMeters>
            <DistanceMeters>1238.0189941635</DistanceMeters>
          </Trackpoint>
          <Trackpoint>
            <Time>2022-02-12T09:18:46.000Z</Time>
            <Position>
              <LatitudeDegrees>40.66615532152354717254638671875</LatitudeDegrees>
              <LongitudeDegrees>24.71452874131500720977783203125</LongitudeDegrees>
            </Position>
            <AltitudeMeters>303.79998779296875</AltitudeMeters>
            <DistanceMeters>1243.7221805844</DistanceMeters>
          </Trackpoint>
          <Trackpoint>
            <Time>2022-02-12T09:18:50.000Z</Time>
            <Position>
              <LatitudeDegrees>40.66620661877095699310302734375</LatitudeDegrees>
              <LongitudeDegrees>24.7146315872669219970703125</LongitudeDegrees>
            </Position>
            <AltitudeMeters>304</AltitudeMeters>
            <DistanceMeters>1254.1144716826</DistanceMeters>
          </Trackpoint>
          <Trackpoint>
            <Time>2022-02-12T09:18:56.000Z</Time>
            <Position>
              <LatitudeDegrees>40.666277445852756500244140625</LatitudeDegrees>
              <LongitudeDegrees>24.714791513979434967041015625</LongitudeDegrees>
            </Position>
            <AltitudeMeters>304.399993896484375</AltitudeMeters>
            <DistanceMeters>1269.7491820841</DistanceMeters>
          </Trackpoint>
          <Trackpoint>
            <Time>2022-02-12T09:18:57.000Z</Time>
            <Position>
              <LatitudeDegrees>40.6662910245358943939208984375</LatitudeDegrees>
              <LongitudeDegrees>24.71481489948928356170654296875</LongitudeDegrees>
            </Position>
            <AltitudeMeters>304.20001220703125</AltitudeMeters>
            <DistanceMeters>1272.2362692084</DistanceMeters>
          </Trackpoint>
          <Trackpoint>
            <Time>2022-02-12T09:19:02.000Z</Time>
            <Position>
              <LatitudeDegrees>40.66637568175792694091796875</LatitudeDegrees>
              <LongitudeDegrees>24.71491657197475433349609375</LongitudeDegrees>
            </Position>
            <AltitudeMeters>304.79998779296875</AltitudeMeters>
            <DistanceMeters>1284.9822530976</DistanceMeters>
          </Trackpoint>
          <Trackpoint>
            <Time>2022-02-12T09:19:03.000Z</Time>
            <Position>
              <LatitudeDegrees>40.66639152355492115020751953125</LatitudeDegrees>
              <LongitudeDegrees>24.71493534743785858154296875</LongitudeDegrees>
            </Position>
            <AltitudeMeters>305</AltitudeMeters>
            <DistanceMeters>1287.3522124956</DistanceMeters>
          </Trackpoint>
          <Trackpoint>
            <Time>2022-02-12T09:19:09.000Z</Time>
            <Position>
              <LatitudeDegrees>40.66648037172853946685791015625</LatitudeDegrees>
              <LongitudeDegrees>24.7150485031306743621826171875</LongitudeDegrees>
            </Position>
            <AltitudeMeters>304.79998779296875</AltitudeMeters>
            <DistanceMeters>1301.1018917803</DistanceMeters>
          </Trackpoint>
          <Trackpoint>
            <Time>2022-02-12T09:19:15.000Z</Time>
            <Position>
              <LatitudeDegrees>40.6665887497365474700927734375</LatitudeDegrees>
              <LongitudeDegrees>24.71512821502983570098876953125</LongitudeDegrees>
            </Position>
            <AltitudeMeters>305.20001220703125</AltitudeMeters>
            <DistanceMeters>1314.9151287384</DistanceMeters>
          </Trackpoint>
          <Trackpoint>
            <Time>2022-02-12T09:19:16.000Z</Time>
            <Position>
              <LatitudeDegrees>40.66660978831350803375244140625</LatitudeDegrees>
              <LongitudeDegrees>24.71514497883617877960205078125</LongitudeDegrees>
            </Position>
            <AltitudeMeters>305.20001220703125</AltitudeMeters>
            <DistanceMeters>1317.6528218272</DistanceMeters>
          </Trackpoint>
          <Trackpoint>
            <Time>2022-02-12T09:19:22.000Z</Time>
            <Position>
              <LatitudeDegrees>40.66671900451183319091796875</LatitudeDegrees>
              <LongitudeDegrees>24.715250842273235321044921875</LongitudeDegrees>
            </Position>
            <AltitudeMeters>305.79998779296875</AltitudeMeters>
            <DistanceMeters>1332.7408378383</DistanceMeters>
          </Trackpoint>
          <Trackpoint>
            <Time>2022-02-12T09:19:23.000Z</Time>
            <Position>
              <LatitudeDegrees>40.66673736087977886199951171875</LatitudeDegrees>
              <LongitudeDegrees>24.71527104265987873077392578125</LongitudeDegrees>
            </Position>
            <AltitudeMeters>305.79998779296875</AltitudeMeters>
            <DistanceMeters>1335.4049774902</DistanceMeters>
          </Trackpoint>
          <Trackpoint>
            <Time>2022-02-12T09:19:29.000Z</Time>
            <Position>
              <LatitudeDegrees>40.6668358482420444488525390625</LatitudeDegrees>
              <LongitudeDegrees>24.71539023332297801971435546875</LongitudeDegrees>
            </Position>
            <AltitudeMeters>305.600006103515625</AltitudeMeters>
            <DistanceMeters>1350.2850807965</DistanceMeters>
          </Trackpoint>
          <Trackpoint>
            <Time>2022-02-12T09:19:30.000Z</Time>
            <Position>
              <LatitudeDegrees>40.66684800200164318084716796875</LatitudeDegrees>
              <LongitudeDegrees>24.71540875732898712158203125</LongitudeDegrees>
            </Position>
            <AltitudeMeters>305.600006103515625</AltitudeMeters>
            <DistanceMeters>1352.3539588099</DistanceMeters>
          </Trackpoint>
          <Trackpoint>
            <Time>2022-02-12T09:19:36.000Z</Time>
            <Position>
              <LatitudeDegrees>40.66693735308945178985595703125</LatitudeDegrees>
              <LongitudeDegrees>24.71552635543048381805419921875</LongitudeDegrees>
            </Position>
            <AltitudeMeters>307</AltitudeMeters>
            <DistanceMeters>1366.406350481</DistanceMeters>
          </Trackpoint>
          <Trackpoint>
            <Time>2022-02-12T09:19:39.000Z</Time>
            <Position>
              <LatitudeDegrees>40.666987560689449310302734375</LatitudeDegrees>
              <LongitudeDegrees>24.71558787859976291656494140625</LongitudeDegrees>
            </Position>
            <AltitudeMeters>307.399993896484375</AltitudeMeters>
            <DistanceMeters>1374.0363506667</DistanceMeters>
          </Trackpoint>
          <Trackpoint>
            <Time>2022-02-12T09:19:45.000Z</Time>
            <Position>
              <LatitudeDegrees>40.66706190817058086395263671875</LatitudeDegrees>
              <LongitudeDegrees>24.715714193880558013916015625</LongitudeDegrees>
            </Position>
            <AltitudeMeters>307.600006103515625</AltitudeMeters>
            <DistanceMeters>1387.5341587233</DistanceMeters>
          </Trackpoint>
          <Trackpoint>
            <Time>2022-02-12T09:19:49.000Z</Time>
            <Position>
              <LatitudeDegrees>40.66712158732116222381591796875</LatitudeDegrees>
              <LongitudeDegrees>24.71578367985785007476806640625</LongitudeDegrees>
            </Position>
            <AltitudeMeters>308</AltitudeMeters>
            <DistanceMeters>1396.3956227534</DistanceMeters>
          </Trackpoint>
          <Trackpoint>
            <Time>2022-02-12T09:19:51.000Z</Time>
            <Position>
              <LatitudeDegrees>40.66716483794152736663818359375</LatitudeDegrees>
              <LongitudeDegrees>24.71581268124282360076904296875</LongitudeDegrees>
            </Position>
            <AltitudeMeters>308.20001220703125</AltitudeMeters>
            <DistanceMeters>1401.7962844642</DistanceMeters>
          </Trackpoint>
          <Trackpoint>
            <Time>2022-02-12T09:19:57.000Z</Time>
            <Position>
              <LatitudeDegrees>40.6672351621091365814208984375</LatitudeDegrees>
              <LongitudeDegrees>24.71588912419974803924560546875</LongitudeDegrees>
            </Position>
            <AltitudeMeters>308.20001220703125</AltitudeMeters>
            <DistanceMeters>1411.9405809482</DistanceMeters>
          </Trackpoint>
          <Trackpoint>
            <Time>2022-02-12T09:20:03.000Z</Time>
            <Position>
              <LatitudeDegrees>40.6672821007668972015380859375</LatitudeDegrees>
              <LongitudeDegrees>24.71602424047887325286865234375</LongitudeDegrees>
            </Position>
            <AltitudeMeters>308.600006103515625</AltitudeMeters>
            <DistanceMeters>1424.486986512</DistanceMeters>
          </Trackpoint>
          <Trackpoint>
            <Time>2022-02-12T09:20:05.000Z</Time>
            <Position>
              <LatitudeDegrees>40.667309425771236419677734375</LatitudeDegrees>
              <LongitudeDegrees>24.71606732346117496490478515625</LongitudeDegrees>
            </Position>
            <AltitudeMeters>309</AltitudeMeters>
            <DistanceMeters>1429.226905308</DistanceMeters>
          </Trackpoint>
          <Trackpoint>
            <Time>2022-02-12T09:20:10.000Z</Time>
            <Position>
              <LatitudeDegrees>40.66739265806972980499267578125</LatitudeDegrees>
              <LongitudeDegrees>24.71614946611225605010986328125</LongitudeDegrees>
            </Position>
            <AltitudeMeters>310</AltitudeMeters>
            <DistanceMeters>1440.7991148491</DistanceMeters>
          </Trackpoint>
          <Trackpoint>
            <Time>2022-02-12T09:20:11.000Z</Time>
            <Position>
              <LatitudeDegrees>40.66740724258124828338623046875</LatitudeDegrees>
              <LongitudeDegrees>24.7161629609763622283935546875</LongitudeDegrees>
            </Position>
            <AltitudeMeters>310.20001220703125</AltitudeMeters>
            <DistanceMeters>1442.7833308982</DistanceMeters>
          </Trackpoint>
          <Trackpoint>
            <Time>2022-02-12T09:20:12.000Z</Time>
            <Position>
              <LatitudeDegrees>40.66741981543600559234619140625</LatitudeDegrees>
              <LongitudeDegrees>24.7161790542304515838623046875</LongitudeDegrees>
            </Position>
            <AltitudeMeters>310.20001220703125</AltitudeMeters>
            <DistanceMeters>1444.7354303473</DistanceMeters>
          </Trackpoint>
          <Trackpoint>
            <Time>2022-02-12T09:20:14.000Z</Time>
            <Position>
              <LatitudeDegrees>40.66744227893650531768798828125</LatitudeDegrees>
              <LongitudeDegrees>24.7162167727947235107421875</LongitudeDegrees>
            </Position>
            <AltitudeMeters>310.79998779296875</AltitudeMeters>
            <DistanceMeters>1448.7838360515</DistanceMeters>
          </Trackpoint>
          <Trackpoint>
            <Time>2022-02-12T09:20:16.000Z</Time>
            <Position>
              <LatitudeDegrees>40.66746021620929241180419921875</LatitudeDegrees>
              <LongitudeDegrees>24.71625222824513912200927734375</LongitudeDegrees>
            </Position>
            <AltitudeMeters>311.20001220703125</AltitudeMeters>
            <DistanceMeters>1452.3810710375</DistanceMeters>
          </Trackpoint>
          <Trackpoint>
            <Time>2022-02-12T09:20:22.000Z</Time>
            <Position>
              <LatitudeDegrees>40.66748267970979213714599609375</LatitudeDegrees>
              <LongitudeDegrees>24.71638717688620090484619140625</LongitudeDegrees>
            </Position>
            <AltitudeMeters>312.20001220703125</AltitudeMeters>
            <DistanceMeters>1464.0446083066</DistanceMeters>
          </Trackpoint>
          <Trackpoint>
            <Time>2022-02-12T09:20:23.000Z</Time>
            <Position>
              <LatitudeDegrees>40.66748217679560184478759765625</LatitudeDegrees>
              <LongitudeDegrees>24.71641299314796924591064453125</LongitudeDegrees>
            </Position>
            <AltitudeMeters>312.399993896484375</AltitudeMeters>
            <DistanceMeters>1466.2260872284</DistanceMeters>
          </Trackpoint>
          <Trackpoint>
            <Time>2022-02-12T09:20:27.000Z</Time>
            <Position>
              <LatitudeDegrees>40.66745904274284839630126953125</LatitudeDegrees>
              <LongitudeDegrees>24.71650502644479274749755859375</LongitudeDegrees>
            </Position>
            <AltitudeMeters>313.20001220703125</AltitudeMeters>
            <DistanceMeters>1474.4116334663</DistanceMeters>
          </Trackpoint>
          <Trackpoint>
            <Time>2022-02-12T09:20:28.000Z</Time>
            <Position>
              <LatitudeDegrees>40.6674587912857532501220703125</LatitudeDegrees>
              <LongitudeDegrees>24.716525562107563018798828125</LongitudeDegrees>
            </Position>
            <AltitudeMeters>313.399993896484375</AltitudeMeters>
            <DistanceMeters>1476.1483100431</DistanceMeters>
          </Trackpoint>
          <Trackpoint>
            <Time>2022-02-12T09:20:34.000Z</Time>
            <Position>
              <LatitudeDegrees>40.66745535470545291900634765625</LatitudeDegrees>
              <LongitudeDegrees>24.71667132340371608734130859375</LongitudeDegrees>
            </Position>
            <AltitudeMeters>314</AltitudeMeters>
            <DistanceMeters>1488.4593133749</DistanceMeters>
          </Trackpoint>
          <Trackpoint>
            <Time>2022-02-12T09:20:36.000Z</Time>
            <Position>
              <LatitudeDegrees>40.6674494035542011260986328125</LatitudeDegrees>
              <LongitudeDegrees>24.7167235426604747772216796875</LongitudeDegrees>
            </Position>
            <AltitudeMeters>314.20001220703125</AltitudeMeters>
            <DistanceMeters>1492.9164613617</DistanceMeters>
          </Trackpoint>
          <Trackpoint>
            <Time>2022-02-12T09:20:41.000Z</Time>
            <Position>
              <LatitudeDegrees>40.6674188934266567230224609375</LatitudeDegrees>
              <LongitudeDegrees>24.716861508786678314208984375</LongitudeDegrees>
            </Position>
            <AltitudeMeters>314.79998779296875</AltitudeMeters>
            <DistanceMeters>1505.0494043761</DistanceMeters>
          </Trackpoint>
          <Trackpoint>
            <Time>2022-02-12T09:20:46.000Z</Time>
            <Position>
              <LatitudeDegrees>40.66739936359226703643798828125</LatitudeDegrees>
              <LongitudeDegrees>24.71699620597064495086669921875</LongitudeDegrees>
            </Position>
            <AltitudeMeters>315.399993896484375</AltitudeMeters>
            <DistanceMeters>1516.6266849142</DistanceMeters>
          </Trackpoint>
          <Trackpoint>
            <Time>2022-02-12T09:20:49.000Z</Time>
            <Position>
              <LatitudeDegrees>40.6674225814640522003173828125</LatitudeDegrees>
              <LongitudeDegrees>24.71706476993858814239501953125</LongitudeDegrees>
            </Position>
            <AltitudeMeters>316</AltitudeMeters>
            <DistanceMeters>1522.9643327446</DistanceMeters>
          </Trackpoint>
          <Trackpoint>
            <Time>2022-02-12T09:20:51.000Z</Time>
            <Position>
              <LatitudeDegrees>40.66743775270879268646240234375</LatitudeDegrees>
              <LongitudeDegrees>24.71710802055895328521728515625</LongitudeDegrees>
            </Position>
            <AltitudeMeters>316.399993896484375</AltitudeMeters>
            <DistanceMeters>1526.9870056107</DistanceMeters>
          </Trackpoint>
          <Trackpoint>
            <Time>2022-02-12T09:20:56.000Z</Time>
            <Position>
              <LatitudeDegrees>40.66747597418725490570068359375</LatitudeDegrees>
              <LongitudeDegrees>24.7171999700367450714111328125</LongitudeDegrees>
            </Position>
            <AltitudeMeters>317.20001220703125</AltitudeMeters>
            <DistanceMeters>1535.8392936415</DistanceMeters>
          </Trackpoint>
          <Trackpoint>
            <Time>2022-02-12T09:20:59.000Z</Time>
            <Position>
              <LatitudeDegrees>40.6675033830106258392333984375</LatitudeDegrees>
              <LongitudeDegrees>24.717259146273136138916015625</LongitudeDegrees>
            </Position>
            <AltitudeMeters>317.600006103515625</AltitudeMeters>
            <DistanceMeters>1541.693278618</DistanceMeters>
          </Trackpoint>
          <Trackpoint>
            <Time>2022-02-12T09:21:03.000Z</Time>
            <Position>
              <LatitudeDegrees>40.6675134412944316864013671875</LatitudeDegrees>
              <LongitudeDegrees>24.71735025756061077117919921875</LongitudeDegrees>
            </Position>
            <AltitudeMeters>318</AltitudeMeters>
            <DistanceMeters>1549.4663244487</DistanceMeters>
          </Trackpoint>
          <Trackpoint>
            <Time>2022-02-12T09:21:05.000Z</Time>
            <Position>
              <LatitudeDegrees>40.66751972772181034088134765625</LatitudeDegrees>
              <LongitudeDegrees>24.71738914959132671356201171875</LongitudeDegrees>
            </Position>
            <AltitudeMeters>318.600006103515625</AltitudeMeters>
            <DistanceMeters>1552.8233373176</DistanceMeters>
          </Trackpoint>
          <Trackpoint>
            <Time>2022-02-12T09:21:07.000Z</Time>
            <Position>
              <LatitudeDegrees>40.6675375811755657196044921875</LatitudeDegrees>
              <LongitudeDegrees>24.71742602996528148651123046875</LongitudeDegrees>
            </Position>
            <AltitudeMeters>319</AltitudeMeters>
            <DistanceMeters>1556.5183982892</DistanceMeters>
          </Trackpoint>
          <Trackpoint>
            <Time>2022-02-12T09:21:11.000Z</Time>
            <Position>
              <LatitudeDegrees>40.66757940687239170074462890625</LatitudeDegrees>
              <LongitudeDegrees>24.717505909502506256103515625</LongitudeDegrees>
            </Position>
            <AltitudeMeters>319.600006103515625</AltitudeMeters>
            <DistanceMeters>1564.7127651614</DistanceMeters>
          </Trackpoint>
          <Trackpoint>
            <Time>2022-02-12T09:21:17.000Z</Time>
            <Position>
              <LatitudeDegrees>40.66763321869075298309326171875</LatitudeDegrees>
              <LongitudeDegrees>24.7176435403525829315185546875</LongitudeDegrees>
            </Position>
            <AltitudeMeters>320.399993896484375</AltitudeMeters>
            <DistanceMeters>1577.7847250967</DistanceMeters>
          </Trackpoint>
          <Trackpoint>
            <Time>2022-02-12T09:21:18.000Z</Time>
            <Position>
              <LatitudeDegrees>40.66764562390744686126708984375</LatitudeDegrees>
              <LongitudeDegrees>24.7176676802337169647216796875</LongitudeDegrees>
            </Position>
            <AltitudeMeters>320.399993896484375</AltitudeMeters>
            <DistanceMeters>1580.2444306111</DistanceMeters>
          </Trackpoint>
          <Trackpoint>
            <Time>2022-02-12T09:21:19.000Z</Time>
            <Position>
              <LatitudeDegrees>40.66765685565769672393798828125</LatitudeDegrees>
              <LongitudeDegrees>24.7176908142864704132080078125</LongitudeDegrees>
            </Position>
            <AltitudeMeters>320.600006103515625</AltitudeMeters>
            <DistanceMeters>1582.5643283589</DistanceMeters>
          </Trackpoint>
          <Trackpoint>
            <Time>2022-02-12T09:21:25.000Z</Time>
            <Position>
              <LatitudeDegrees>40.667673535645008087158203125</LatitudeDegrees>
              <LongitudeDegrees>24.71783506684005260467529296875</LongitudeDegrees>
            </Position>
            <AltitudeMeters>321.600006103515625</AltitudeMeters>
            <DistanceMeters>1594.8833975087</DistanceMeters>
          </Trackpoint>
          <Trackpoint>
            <Time>2022-02-12T09:21:27.000Z</Time>
            <Position>
              <LatitudeDegrees>40.667678229510784149169921875</LatitudeDegrees>
              <LongitudeDegrees>24.7178862802684307098388671875</LongitudeDegrees>
            </Position>
            <AltitudeMeters>321.79998779296875</AltitudeMeters>
            <DistanceMeters>1599.2380686252</DistanceMeters>
          </Trackpoint>
          <Trackpoint>
            <Time>2022-02-12T09:21:31.000Z</Time>
            <Position>
              <LatitudeDegrees>40.667697004973888397216796875</LatitudeDegrees>
              <LongitudeDegrees>24.717969931662082672119140625</LongitudeDegrees>
            </Position>
            <AltitudeMeters>322.399993896484375</AltitudeMeters>
            <DistanceMeters>1606.6024857183</DistanceMeters>
          </Trackpoint>
          <Trackpoint>
            <Time>2022-02-12T09:21:34.000Z</Time>
            <Position>
              <LatitudeDegrees>40.6677317060530185699462890625</LatitudeDegrees>
              <LongitudeDegrees>24.7180274315178394317626953125</LongitudeDegrees>
            </Position>
            <AltitudeMeters>322.79998779296875</AltitudeMeters>
            <DistanceMeters>1612.8062092618</DistanceMeters>
          </Trackpoint>
          <Trackpoint>
            <Time>2022-02-12T09:21:38.000Z</Time>
            <Position>
              <LatitudeDegrees>40.66778141073882579803466796875</LatitudeDegrees>
              <LongitudeDegrees>24.71809364855289459228515625</LongitudeDegrees>
            </Position>
            <AltitudeMeters>324</AltitudeMeters>
            <DistanceMeters>1620.6710693141</DistanceMeters>
          </Trackpoint>
          <Trackpoint>
            <Time>2022-02-12T09:21:44.000Z</Time>
            <Position>
              <LatitudeDegrees>40.66784963943064212799072265625</LatitudeDegrees>
              <LongitudeDegrees>24.7181987576186656951904296875</LongitudeDegrees>
            </Position>
            <AltitudeMeters>325</AltitudeMeters>
            <DistanceMeters>1632.3504671908</DistanceMeters>
          </Trackpoint>
          <Trackpoint>
            <Time>2022-02-12T09:21:46.000Z</Time>
            <Position>
              <LatitudeDegrees>40.66786170937120914459228515625</LatitudeDegrees>
              <LongitudeDegrees>24.71824561245739459991455078125</LongitudeDegrees>
            </Position>
            <AltitudeMeters>325.600006103515625</AltitudeMeters>
            <DistanceMeters>1636.5273209935</DistanceMeters>
          </Trackpoint>
          <Trackpoint>
            <Time>2022-02-12T09:21:51.000Z</Time>
            <Position>
              <LatitudeDegrees>40.66789892502129077911376953125</LatitudeDegrees>
              <LongitudeDegrees>24.7183828242123126983642578125</LongitudeDegrees>
            </Position>
            <AltitudeMeters>325.79998779296875</AltitudeMeters>
            <DistanceMeters>1648.8291522037</DistanceMeters>
          </Trackpoint>
          <Trackpoint>
            <Time>2022-02-12T09:21:53.000Z</Time>
            <Position>
              <LatitudeDegrees>40.667897164821624755859375</LatitudeDegrees>
              <LongitudeDegrees>24.71843889914453029632568359375</LongitudeDegrees>
            </Position>
            <AltitudeMeters>326.20001220703125</AltitudeMeters>
            <DistanceMeters>1653.568118348</DistanceMeters>
          </Trackpoint>
          <Trackpoint>
            <Time>2022-02-12T09:21:57.000Z</Time>
            <Position>
              <LatitudeDegrees>40.66787947900593280792236328125</LatitudeDegrees>
              <LongitudeDegrees>24.71852816641330718994140625</LongitudeDegrees>
            </Position>
            <AltitudeMeters>327.20001220703125</AltitudeMeters>
            <DistanceMeters>1661.3568315633</DistanceMeters>
          </Trackpoint>
          <Trackpoint>
            <Time>2022-02-12T09:21:58.000Z</Time>
            <Position>
              <LatitudeDegrees>40.66787461750209331512451171875</LatitudeDegrees>
              <LongitudeDegrees>24.7185481153428554534912109375</LongitudeDegrees>
            </Position>
            <AltitudeMeters>327.399993896484375</AltitudeMeters>
            <DistanceMeters>1663.1244306269</DistanceMeters>
          </Trackpoint>
          <Trackpoint>
            <Time>2022-02-12T09:22:04.000Z</Time>
            <Position>
              <LatitudeDegrees>40.66779783926904201507568359375</LatitudeDegrees>
              <LongitudeDegrees>24.7186334431171417236328125</LongitudeDegrees>
            </Position>
            <AltitudeMeters>328.399993896484375</AltitudeMeters>
            <DistanceMeters>1674.3012851721</DistanceMeters>
          </Trackpoint>
          <Trackpoint>
            <Time>2022-02-12T09:22:05.000Z</Time>
            <Position>
              <LatitudeDegrees>40.66778074018657207489013671875</LatitudeDegrees>
              <LongitudeDegrees>24.71864291466772556304931640625</LongitudeDegrees>
            </Position>
            <AltitudeMeters>328.600006103515625</AltitudeMeters>
            <DistanceMeters>1676.3657938501</DistanceMeters>
          </Trackpoint>
          <Trackpoint>
            <Time>2022-02-12T09:22:11.000Z</Time>
            <Position>
              <LatitudeDegrees>40.667688958346843719482421875</LatitudeDegrees>
              <LongitudeDegrees>24.7186768613755702972412109375</LongitudeDegrees>
            </Position>
            <AltitudeMeters>329.399993896484375</AltitudeMeters>
            <DistanceMeters>1686.9756446007</DistanceMeters>
          </Trackpoint>
          <Trackpoint>
            <Time>2022-02-12T09:22:12.000Z</Time>
            <Position>
              <LatitudeDegrees>40.66767663694918155670166015625</LatitudeDegrees>
              <LongitudeDegrees>24.718679375946521759033203125</LongitudeDegrees>
            </Position>
            <AltitudeMeters>329.600006103515625</AltitudeMeters>
            <DistanceMeters>1688.3592544468</DistanceMeters>
          </Trackpoint>
          <Trackpoint>
            <Time>2022-02-12T09:22:13.000Z</Time>
            <Position>
              <LatitudeDegrees>40.6676571071147918701171875</LatitudeDegrees>
              <LongitudeDegrees>24.71868650056421756744384765625</LongitudeDegrees>
            </Position>
            <AltitudeMeters>329.79998779296875</AltitudeMeters>
            <DistanceMeters>1690.6120089744</DistanceMeters>
          </Trackpoint>
          <Trackpoint>
            <Time>2022-02-12T09:22:17.000Z</Time>
            <Position>
              <LatitudeDegrees>40.66758845932781696319580078125</LatitudeDegrees>
              <LongitudeDegrees>24.71874467097222805023193359375</LongitudeDegrees>
            </Position>
            <AltitudeMeters>330.79998779296875</AltitudeMeters>
            <DistanceMeters>1699.6948927891</DistanceMeters>
          </Trackpoint>
          <Trackpoint>
            <Time>2022-02-12T09:22:21.000Z</Time>
            <Position>
              <LatitudeDegrees>40.66754244267940521240234375</LatitudeDegrees>
              <LongitudeDegrees>24.7188025899231433868408203125</LongitudeDegrees>
            </Position>
            <AltitudeMeters>331.399993896484375</AltitudeMeters>
            <DistanceMeters>1706.7767742178</DistanceMeters>
          </Trackpoint>
          <Trackpoint>
            <Time>2022-02-12T09:22:27.000Z</Time>
            <Position>
              <LatitudeDegrees>40.66742576658725738525390625</LatitudeDegrees>
              <LongitudeDegrees>24.7188565693795680999755859375</LongitudeDegrees>
            </Position>
            <AltitudeMeters>331.20001220703125</AltitudeMeters>
            <DistanceMeters>1720.5395821976</DistanceMeters>
          </Trackpoint>
          <Trackpoint>
            <Time>2022-02-12T09:22:29.000Z</Time>
            <Position>
              <LatitudeDegrees>40.6673749722540378570556640625</LatitudeDegrees>
              <LongitudeDegrees>24.7188723273575305938720703125</LongitudeDegrees>
            </Position>
            <AltitudeMeters>331.600006103515625</AltitudeMeters>
            <DistanceMeters>1726.3478836356</DistanceMeters>
          </Trackpoint>
          <Trackpoint>
            <Time>2022-02-12T09:22:30.000Z</Time>
            <Position>
              <LatitudeDegrees>40.6673468090593814849853515625</LatitudeDegrees>
              <LongitudeDegrees>24.71888062544167041778564453125</LongitudeDegrees>
            </Position>
            <AltitudeMeters>331.79998779296875</AltitudeMeters>
            <DistanceMeters>1729.5591680046</DistanceMeters>
          </Trackpoint>
          <Trackpoint>
            <Time>2022-02-12T09:22:35.000Z</Time>
            <Position>
              <LatitudeDegrees>40.66727631725370883941650390625</LatitudeDegrees>
              <LongitudeDegrees>24.7189719043672084808349609375</LongitudeDegrees>
            </Position>
            <AltitudeMeters>333</AltitudeMeters>
            <DistanceMeters>1740.5568424811</DistanceMeters>
          </Trackpoint>
          <Trackpoint>
            <Time>2022-02-12T09:22:36.000Z</Time>
            <Position>
              <LatitudeDegrees>40.6672750599682331085205078125</LatitudeDegrees>
              <LongitudeDegrees>24.718994200229644775390625</LongitudeDegrees>
            </Position>
            <AltitudeMeters>333.20001220703125</AltitudeMeters>
            <DistanceMeters>1742.4430689041</DistanceMeters>
          </Trackpoint>
          <Trackpoint>
            <Time>2022-02-12T09:22:42.000Z</Time>
            <Position>
              <LatitudeDegrees>40.66730934195220470428466796875</LatitudeDegrees>
              <LongitudeDegrees>24.7191368602216243743896484375</LongitudeDegrees>
            </Position>
            <AltitudeMeters>333.79998779296875</AltitudeMeters>
            <DistanceMeters>1755.076976899</DistanceMeters>
          </Trackpoint>
          <Trackpoint>
            <Time>2022-02-12T09:22:48.000Z</Time>
            <Position>
              <LatitudeDegrees>40.6674071587622165679931640625</LatitudeDegrees>
              <LongitudeDegrees>24.71924758516252040863037109375</LongitudeDegrees>
            </Position>
            <AltitudeMeters>334</AltitudeMeters>
            <DistanceMeters>1769.4266400711</DistanceMeters>
          </Trackpoint>
          <Trackpoint>
            <Time>2022-02-12T09:22:49.000Z</Time>
            <Position>
              <LatitudeDegrees>40.667422078549861907958984375</LatitudeDegrees>
              <LongitudeDegrees>24.71925730817019939422607421875</LongitudeDegrees>
            </Position>
            <AltitudeMeters>334</AltitudeMeters>
            <DistanceMeters>1771.2814875379</DistanceMeters>
          </Trackpoint>
          <Trackpoint>
            <Time>2022-02-12T09:22:50.000Z</Time>
            <Position>
              <LatitudeDegrees>40.6674400158226490020751953125</LatitudeDegrees>
              <LongitudeDegrees>24.71926845610141754150390625</LongitudeDegrees>
            </Position>
            <AltitudeMeters>334</AltitudeMeters>
            <DistanceMeters>1773.4897088311</DistanceMeters>
          </Trackpoint>
          <Trackpoint>
            <Time>2022-02-12T09:22:55.000Z</Time>
            <Position>
              <LatitudeDegrees>40.667532384395599365234375</LatitudeDegrees>
              <LongitudeDegrees>24.71933676861226558685302734375</LongitudeDegrees>
            </Position>
            <AltitudeMeters>334.399993896484375</AltitudeMeters>
            <DistanceMeters>1785.277618583</DistanceMeters>
          </Trackpoint>
          <Trackpoint>
            <Time>2022-02-12T09:22:58.000Z</Time>
            <Position>
              <LatitudeDegrees>40.66758829168975353240966796875</LatitudeDegrees>
              <LongitudeDegrees>24.719394855201244354248046875</LongitudeDegrees>
            </Position>
            <AltitudeMeters>334.399993896484375</AltitudeMeters>
            <DistanceMeters>1793.2008181538</DistanceMeters>
          </Trackpoint>
          <Trackpoint>
            <Time>2022-02-12T09:23:00.000Z</Time>
            <Position>
              <LatitudeDegrees>40.6676270999014377593994140625</LatitudeDegrees>
              <LongitudeDegrees>24.71943081356585025787353515625</LongitudeDegrees>
            </Position>
            <AltitudeMeters>334.399993896484375</AltitudeMeters>
            <DistanceMeters>1798.4805762905</DistanceMeters>
          </Trackpoint>
          <Trackpoint>
            <Time>2022-02-12T09:23:04.000Z</Time>
            <Position>
              <LatitudeDegrees>40.667701028287410736083984375</LatitudeDegrees>
              <LongitudeDegrees>24.7194942645728588104248046875</LongitudeDegrees>
            </Position>
            <AltitudeMeters>334.600006103515625</AltitudeMeters>
            <DistanceMeters>1808.2987261182</DistanceMeters>
          </Trackpoint>
          <Trackpoint>
            <Time>2022-02-12T09:23:09.000Z</Time>
            <Position>
              <LatitudeDegrees>40.66776699386537075042724609375</LatitudeDegrees>
              <LongitudeDegrees>24.7196018882095813751220703125</LongitudeDegrees>
            </Position>
            <AltitudeMeters>335</AltitudeMeters>
            <DistanceMeters>1819.9796702183</DistanceMeters>
          </Trackpoint>
          <Trackpoint>
            <Time>2022-02-12T09:23:10.000Z</Time>
            <Position>
              <LatitudeDegrees>40.6677702628076076507568359375</LatitudeDegrees>
              <LongitudeDegrees>24.719624854624271392822265625</LongitudeDegrees>
            </Position>
            <AltitudeMeters>335.20001220703125</AltitudeMeters>
            <DistanceMeters>1821.9524760748</DistanceMeters>
          </Trackpoint>
          <Trackpoint>
            <Time>2022-02-12T09:23:16.000Z</Time>
            <Position>
              <LatitudeDegrees>40.667812339961528778076171875</LatitudeDegrees>
              <LongitudeDegrees>24.71975334919989109039306640625</LongitudeDegrees>
            </Position>
            <AltitudeMeters>336</AltitudeMeters>
            <DistanceMeters>1833.7679312849</DistanceMeters>
          </Trackpoint>
          <Trackpoint>
            <Time>2022-02-12T09:23:17.000Z</Time>
            <Position>
              <LatitudeDegrees>40.66781577654182910919189453125</LatitudeDegrees>
              <LongitudeDegrees>24.71977681852877140045166015625</LongitudeDegrees>
            </Position>
            <AltitudeMeters>336.20001220703125</AltitudeMeters>
            <DistanceMeters>1835.7837523087</DistanceMeters>
          </Trackpoint>
          <Trackpoint>
            <Time>2022-02-12T09:23:23.000Z</Time>
            <Position>
              <LatitudeDegrees>40.6678641401231288909912109375</LatitudeDegrees>
              <LongitudeDegrees>24.71989315934479236602783203125</LongitudeDegrees>
            </Position>
            <AltitudeMeters>336.79998779296875</AltitudeMeters>
            <DistanceMeters>1846.9840122146</DistanceMeters>
          </Trackpoint>
          <Trackpoint>
            <Time>2022-02-12T09:23:29.000Z</Time>
            <Position>
              <LatitudeDegrees>40.6679268367588520050048828125</LatitudeDegrees>
              <LongitudeDegrees>24.72004017792642116546630859375</LongitudeDegrees>
            </Position>
            <AltitudeMeters>337</AltitudeMeters>
            <DistanceMeters>1861.2228069782</DistanceMeters>
          </Trackpoint>
          <Trackpoint>
            <Time>2022-02-12T09:23:30.000Z</Time>
            <Position>
              <LatitudeDegrees>40.66793002188205718994140625</LatitudeDegrees>
              <LongitudeDegrees>24.72006800584495067596435546875</LongitudeDegrees>
            </Position>
            <AltitudeMeters>337.20001220703125</AltitudeMeters>
            <DistanceMeters>1863.5984748374</DistanceMeters>
          </Trackpoint>
          <Trackpoint>
            <Time>2022-02-12T09:23:35.000Z</Time>
            <Position>
              <LatitudeDegrees>40.66794184036552906036376953125</LatitudeDegrees>
              <LongitudeDegrees>24.72019641660153865814208984375</LongitudeDegrees>
            </Position>
            <AltitudeMeters>338</AltitudeMeters>
            <DistanceMeters>1874.518280671</DistanceMeters>
          </Trackpoint>
          <Trackpoint>
            <Time>2022-02-12T09:23:37.000Z</Time>
            <Position>
              <LatitudeDegrees>40.6679462827742099761962890625</LatitudeDegrees>
              <LongitudeDegrees>24.72024100832641124725341796875</LongitudeDegrees>
            </Position>
            <AltitudeMeters>338.399993896484375</AltitudeMeters>
            <DistanceMeters>1878.3145949367</DistanceMeters>
          </Trackpoint>
          <Trackpoint>
            <Time>2022-02-12T09:23:43.000Z</Time>
            <Position>
              <LatitudeDegrees>40.6679845042526721954345703125</LatitudeDegrees>
              <LongitudeDegrees>24.72034829668700695037841796875</LongitudeDegrees>
            </Position>
            <AltitudeMeters>339.399993896484375</AltitudeMeters>
            <DistanceMeters>1888.3213185607</DistanceMeters>
          </Trackpoint>
          <Trackpoint>
            <Time>2022-02-12T09:23:44.000Z</Time>
            <Position>
              <LatitudeDegrees>40.66799179650843143463134765625</LatitudeDegrees>
              <LongitudeDegrees>24.720365814864635467529296875</LongitudeDegrees>
            </Position>
            <AltitudeMeters>339.600006103515625</AltitudeMeters>
            <DistanceMeters>1890.010550385</DistanceMeters>
          </Trackpoint>
          <Trackpoint>
            <Time>2022-02-12T09:23:49.000Z</Time>
            <Position>
              <LatitudeDegrees>40.66802264191210269927978515625</LatitudeDegrees>
              <LongitudeDegrees>24.72046832554042339324951171875</LongitudeDegrees>
            </Position>
            <AltitudeMeters>340.600006103515625</AltitudeMeters>
            <DistanceMeters>1899.3207439268</DistanceMeters>
          </Trackpoint>
          <Trackpoint>
            <Time>2022-02-12T09:23:55.000Z</Time>
            <Position>
              <LatitudeDegrees>40.668058432638645172119140625</LatitudeDegrees>
              <LongitudeDegrees>24.720597155392169952392578125</LongitudeDegrees>
            </Position>
            <AltitudeMeters>341.399993896484375</AltitudeMeters>
            <DistanceMeters>1910.9030932417</DistanceMeters>
          </Trackpoint>
          <Trackpoint>
            <Time>2022-02-12T09:23:57.000Z</Time>
            <Position>
              <LatitudeDegrees>40.6680699996650218963623046875</LatitudeDegrees>
              <LongitudeDegrees>24.72063898108899593353271484375</LongitudeDegrees>
            </Position>
            <AltitudeMeters>341.79998779296875</AltitudeMeters>
            <DistanceMeters>1914.661156514</DistanceMeters>
          </Trackpoint>
          <Trackpoint>
            <Time>2022-02-12T09:24:02.000Z</Time>
            <Position>
              <LatitudeDegrees>40.668093971908092498779296875</LatitudeDegrees>
              <LongitudeDegrees>24.720743335783481597900390625</LongitudeDegrees>
            </Position>
            <AltitudeMeters>342.79998779296875</AltitudeMeters>
            <DistanceMeters>1923.8664939521</DistanceMeters>
          </Trackpoint>
          <Trackpoint>
            <Time>2022-02-12T09:24:08.000Z</Time>
            <Position>
              <LatitudeDegrees>40.66811241209506988525390625</LatitudeDegrees>
              <LongitudeDegrees>24.72086847759783267974853515625</LongitudeDegrees>
            </Position>
            <AltitudeMeters>343.79998779296875</AltitudeMeters>
            <DistanceMeters>1934.6292919444</DistanceMeters>
          </Trackpoint>
          <Trackpoint>
            <Time>2022-02-12T09:24:09.000Z</Time>
            <Position>
              <LatitudeDegrees>40.66811618395149707794189453125</LatitudeDegrees>
              <LongitudeDegrees>24.72088322974741458892822265625</LongitudeDegrees>
            </Position>
            <AltitudeMeters>344</AltitudeMeters>
            <DistanceMeters>1935.9460207233</DistanceMeters>
          </Trackpoint>
          <Trackpoint>
            <Time>2022-02-12T09:24:14.000Z</Time>
            <Position>
              <LatitudeDegrees>40.6681444309651851654052734375</LatitudeDegrees>
              <LongitudeDegrees>24.72095556557178497314453125</LongitudeDegrees>
            </Position>
            <AltitudeMeters>345</AltitudeMeters>
            <DistanceMeters>1942.8156043713</DistanceMeters>
          </Trackpoint>
          <Trackpoint>
            <Time>2022-02-12T09:24:17.000Z</Time>
            <Position>
              <LatitudeDegrees>40.66816614009439945220947265625</LatitudeDegrees>
              <LongitudeDegrees>24.72098951227962970733642578125</LongitudeDegrees>
            </Position>
            <AltitudeMeters>345.600006103515625</AltitudeMeters>
            <DistanceMeters>1946.5664521554</DistanceMeters>
          </Trackpoint>
          <Trackpoint>
            <Time>2022-02-12T09:24:20.000Z</Time>
            <Position>
              <LatitudeDegrees>40.668194554746150970458984375</LatitudeDegrees>
              <LongitudeDegrees>24.72103360109031200408935546875</LongitudeDegrees>
            </Position>
            <AltitudeMeters>346.20001220703125</AltitudeMeters>
            <DistanceMeters>1951.4508622492</DistanceMeters>
          </Trackpoint>
          <Trackpoint>
            <Time>2022-02-12T09:24:24.000Z</Time>
            <Position>
              <LatitudeDegrees>40.6682255677878856658935546875</LatitudeDegrees>
              <LongitudeDegrees>24.72110040485858917236328125</LongitudeDegrees>
            </Position>
            <AltitudeMeters>347</AltitudeMeters>
            <DistanceMeters>1958.0625640018</DistanceMeters>
          </Trackpoint>
          <Trackpoint>
            <Time>2022-02-12T09:24:26.000Z</Time>
            <Position>
              <LatitudeDegrees>40.66824124194681644439697265625</LatitudeDegrees>
              <LongitudeDegrees>24.72114197909832000732421875</LongitudeDegrees>
            </Position>
            <AltitudeMeters>347.399993896484375</AltitudeMeters>
            <DistanceMeters>1961.9806158079</DistanceMeters>
          </Trackpoint>
          <Trackpoint>
            <Time>2022-02-12T09:24:31.000Z</Time>
            <Position>
              <LatitudeDegrees>40.66827292554080486297607421875</LatitudeDegrees>
              <LongitudeDegrees>24.7212474234402179718017578125</LongitudeDegrees>
            </Position>
            <AltitudeMeters>348.20001220703125</AltitudeMeters>
            <DistanceMeters>1971.5552351767</DistanceMeters>
          </Trackpoint>
          <Trackpoint>
            <Time>2022-02-12T09:24:33.000Z</Time>
            <Position>
              <LatitudeDegrees>40.668278373777866363525390625</LatitudeDegrees>
              <LongitudeDegrees>24.721289165318012237548828125</LongitudeDegrees>
            </Position>
            <AltitudeMeters>348.600006103515625</AltitudeMeters>
            <DistanceMeters>1975.1310690997</DistanceMeters>
          </Trackpoint>
          <Trackpoint>
            <Time>2022-02-12T09:24:38.000Z</Time>
            <Position>
              <LatitudeDegrees>40.66831885837018489837646484375</LatitudeDegrees>
              <LongitudeDegrees>24.72139033488929271697998046875</LongitudeDegrees>
            </Position>
            <AltitudeMeters>349</AltitudeMeters>
            <DistanceMeters>1984.7883269669</DistanceMeters>
          </Trackpoint>
          <Trackpoint>
            <Time>2022-02-12T09:24:42.000Z</Time>
            <Position>
              <LatitudeDegrees>40.6683301739394664764404296875</LatitudeDegrees>
              <LongitudeDegrees>24.7214713878929615020751953125</LongitudeDegrees>
            </Position>
            <AltitudeMeters>349.600006103515625</AltitudeMeters>
            <DistanceMeters>1991.7454247626</DistanceMeters>
          </Trackpoint>
          <Trackpoint>
            <Time>2022-02-12T09:24:44.000Z</Time>
            <Position>
              <LatitudeDegrees>40.668349452316761016845703125</LatitudeDegrees>
              <LongitudeDegrees>24.72151958383619785308837890625</LongitudeDegrees>
            </Position>
            <AltitudeMeters>350.20001220703125</AltitudeMeters>
            <DistanceMeters>1996.3461311415</DistanceMeters>
          </Trackpoint>
          <Trackpoint>
            <Time>2022-02-12T09:24:45.000Z</Time>
            <Position>
              <LatitudeDegrees>40.66835657693445682525634765625</LatitudeDegrees>
              <LongitudeDegrees>24.7215407900512218475341796875</LongitudeDegrees>
            </Position>
            <AltitudeMeters>350.399993896484375</AltitudeMeters>
            <DistanceMeters>1998.3028509509</DistanceMeters>
          </Trackpoint>
          <Trackpoint>
            <Time>2022-02-12T09:24:47.000Z</Time>
            <Position>
              <LatitudeDegrees>40.66836864687502384185791015625</LatitudeDegrees>
              <LongitudeDegrees>24.7215790115296840667724609375</LongitudeDegrees>
            </Position>
            <AltitudeMeters>350.600006103515625</AltitudeMeters>
            <DistanceMeters>2001.7969407253</DistanceMeters>
          </Trackpoint>
          <Trackpoint>
            <Time>2022-02-12T09:24:51.000Z</Time>
            <Position>
              <LatitudeDegrees>40.66838356666266918182373046875</LatitudeDegrees>
              <LongitudeDegrees>24.72166090272367000579833984375</LongitudeDegrees>
            </Position>
            <AltitudeMeters>351</AltitudeMeters>
            <DistanceMeters>2008.9068189193</DistanceMeters>
          </Trackpoint>
          <Trackpoint>
            <Time>2022-02-12T09:24:53.000Z</Time>
            <Position>
              <LatitudeDegrees>40.66839429549872875213623046875</LatitudeDegrees>
              <LongitudeDegrees>24.72170046530663967132568359375</LongitudeDegrees>
            </Position>
            <AltitudeMeters>351.600006103515625</AltitudeMeters>
            <DistanceMeters>2012.4534929227</DistanceMeters>
          </Trackpoint>
          <Trackpoint>
            <Time>2022-02-12T09:24:54.000Z</Time>
            <Position>
              <LatitudeDegrees>40.6684019230306148529052734375</LatitudeDegrees>
              <LongitudeDegrees>24.72172175534069538116455078125</LongitudeDegrees>
            </Position>
            <AltitudeMeters>351.79998779296875</AltitudeMeters>
            <DistanceMeters>2014.442254719</DistanceMeters>
          </Trackpoint>
          <Trackpoint>
            <Time>2022-02-12T09:24:59.000Z</Time>
            <Position>
              <LatitudeDegrees>40.668430589139461517333984375</LatitudeDegrees>
              <LongitudeDegrees>24.72182937897741794586181640625</LongitudeDegrees>
            </Position>
            <AltitudeMeters>352.79998779296875</AltitudeMeters>
            <DistanceMeters>2024.072357786</DistanceMeters>
          </Trackpoint>
          <Trackpoint>
            <Time>2022-02-12T09:25:00.000Z</Time>
            <Position>
              <LatitudeDegrees>40.6684371270239353179931640625</LatitudeDegrees>
              <LongitudeDegrees>24.72185150720179080963134765625</LongitudeDegrees>
            </Position>
            <AltitudeMeters>352.79998779296875</AltitudeMeters>
            <DistanceMeters>2026.0791996068</DistanceMeters>
          </Trackpoint>
          <Trackpoint>
            <Time>2022-02-12T09:25:06.000Z</Time>
            <Position>
              <LatitudeDegrees>40.66846805624663829803466796875</LatitudeDegrees>
              <LongitudeDegrees>24.7219773195683956146240234375</LongitudeDegrees>
            </Position>
            <AltitudeMeters>353.399993896484375</AltitudeMeters>
            <DistanceMeters>2037.2447374526</DistanceMeters>
          </Trackpoint>
          <Trackpoint>
            <Time>2022-02-12T09:25:08.000Z</Time>
            <Position>
              <LatitudeDegrees>40.66847325302660465240478515625</LatitudeDegrees>
              <LongitudeDegrees>24.72203205339610576629638671875</LongitudeDegrees>
            </Position>
            <AltitudeMeters>353.79998779296875</AltitudeMeters>
            <DistanceMeters>2041.9020160161</DistanceMeters>
          </Trackpoint>
          <Trackpoint>
            <Time>2022-02-12T09:25:09.000Z</Time>
            <Position>
              <LatitudeDegrees>40.66847392357885837554931640625</LatitudeDegrees>
              <LongitudeDegrees>24.72205661237239837646484375</LongitudeDegrees>
            </Position>
            <AltitudeMeters>354</AltitudeMeters>
            <DistanceMeters>2043.9752541567</DistanceMeters>
          </Trackpoint>
          <Trackpoint>
            <Time>2022-02-12T09:25:14.000Z</Time>
            <Position>
              <LatitudeDegrees>40.66847853362560272216796875</LatitudeDegrees>
              <LongitudeDegrees>24.72213598899543285369873046875</LongitudeDegrees>
            </Position>
            <AltitudeMeters>354.600006103515625</AltitudeMeters>
            <DistanceMeters>2050.6960013155</DistanceMeters>
          </Trackpoint>
          <Trackpoint>
            <Time>2022-02-12T09:25:15.000Z</Time>
            <Position>
              <LatitudeDegrees>40.66848414950072765350341796875</LatitudeDegrees>
              <LongitudeDegrees>24.7221452929079532623291015625</LongitudeDegrees>
            </Position>
            <AltitudeMeters>354.79998779296875</AltitudeMeters>
            <DistanceMeters>2051.701669532</DistanceMeters>
          </Trackpoint>
          <Trackpoint>
            <Time>2022-02-12T09:25:20.000Z</Time>
            <Position>
              <LatitudeDegrees>40.66851935349404811859130859375</LatitudeDegrees>
              <LongitudeDegrees>24.72220857627689838409423828125</LongitudeDegrees>
            </Position>
            <AltitudeMeters>355</AltitudeMeters>
            <DistanceMeters>2058.3276963709</DistanceMeters>
          </Trackpoint>
          <Trackpoint>
            <Time>2022-02-12T09:25:22.000Z</Time>
            <Position>
              <LatitudeDegrees>40.6685397215187549591064453125</LatitudeDegrees>
              <LongitudeDegrees>24.72223766148090362548828125</LongitudeDegrees>
            </Position>
            <AltitudeMeters>355.600006103515625</AltitudeMeters>
            <DistanceMeters>2061.6698819674</DistanceMeters>
          </Trackpoint>
          <Trackpoint>
            <Time>2022-02-12T09:25:26.000Z</Time>
            <Position>
              <LatitudeDegrees>40.6685749255120754241943359375</LatitudeDegrees>
              <LongitudeDegrees>24.72230480052530765533447265625</LongitudeDegrees>
            </Position>
            <AltitudeMeters>356.20001220703125</AltitudeMeters>
            <DistanceMeters>2068.5604655379</DistanceMeters>
          </Trackpoint>
          <Trackpoint>
            <Time>2022-02-12T09:25:27.000Z</Time>
            <Position>
              <LatitudeDegrees>40.6685916893184185028076171875</LatitudeDegrees>
              <LongitudeDegrees>24.72232089377939701080322265625</LongitudeDegrees>
            </Position>
            <AltitudeMeters>356.20001220703125</AltitudeMeters>
            <DistanceMeters>2070.8666994865</DistanceMeters>
          </Trackpoint>
          <Trackpoint>
            <Time>2022-02-12T09:25:28.000Z</Time>
            <Position>
              <LatitudeDegrees>40.66860836930572986602783203125</LatitudeDegrees>
              <LongitudeDegrees>24.722337238490581512451171875</LongitudeDegrees>
            </Position>
            <AltitudeMeters>356.399993896484375</AltitudeMeters>
            <DistanceMeters>2073.1787992367</DistanceMeters>
          </Trackpoint>
          <Trackpoint>
            <Time>2022-02-12T09:25:34.000Z</Time>
            <Position>
              <LatitudeDegrees>40.66872269846498966217041015625</LatitudeDegrees>
              <LongitudeDegrees>24.722420386970043182373046875</LongitudeDegrees>
            </Position>
            <AltitudeMeters>357.20001220703125</AltitudeMeters>
            <DistanceMeters>2087.7113636309</DistanceMeters>
          </Trackpoint>
          <Trackpoint>
            <Time>2022-02-12T09:25:40.000Z</Time>
            <Position>
              <LatitudeDegrees>40.6688464991748332977294921875</LatitudeDegrees>
              <LongitudeDegrees>24.722486436367034912109375</LongitudeDegrees>
            </Position>
            <AltitudeMeters>358</AltitudeMeters>
            <DistanceMeters>2102.5759840602</DistanceMeters>
          </Trackpoint>
          <Trackpoint>
            <Time>2022-02-12T09:25:42.000Z</Time>
            <Position>
              <LatitudeDegrees>40.6688830442726612091064453125</LatitudeDegrees>
              <LongitudeDegrees>24.72252105362713336944580078125</LongitudeDegrees>
            </Position>
            <AltitudeMeters>358.399993896484375</AltitudeMeters>
            <DistanceMeters>2107.5845319896</DistanceMeters>
          </Trackpoint>
          <Trackpoint>
            <Time>2022-02-12T09:25:48.000Z</Time>
            <Position>
              <LatitudeDegrees>40.66899829544126987457275390625</LatitudeDegrees>
              <LongitudeDegrees>24.72261442802846431732177734375</LongitudeDegrees>
            </Position>
            <AltitudeMeters>358.399993896484375</AltitudeMeters>
            <DistanceMeters>2122.6407944424</DistanceMeters>
          </Trackpoint>
          <Trackpoint>
            <Time>2022-02-12T09:25:50.000Z</Time>
            <Position>
              <LatitudeDegrees>40.66903618164360523223876953125</LatitudeDegrees>
              <LongitudeDegrees>24.722650051116943359375</LongitudeDegrees>
            </Position>
            <AltitudeMeters>358.600006103515625</AltitudeMeters>
            <DistanceMeters>2127.8204041879</DistanceMeters>
          </Trackpoint>
          <Trackpoint>
            <Time>2022-02-12T09:25:53.000Z</Time>
            <Position>
              <LatitudeDegrees>40.66907876171171665191650390625</LatitudeDegrees>
              <LongitudeDegrees>24.7227088920772075653076171875</LongitudeDegrees>
            </Position>
            <AltitudeMeters>359.399993896484375</AltitudeMeters>
            <DistanceMeters>2134.6860431995</DistanceMeters>
          </Trackpoint>
          <Trackpoint>
            <Time>2022-02-12T09:25:56.000Z</Time>
            <Position>
              <LatitudeDegrees>40.66911782138049602508544921875</LatitudeDegrees>
              <LongitudeDegrees>24.72276580519974231719970703125</LongitudeDegrees>
            </Position>
            <AltitudeMeters>359.399993896484375</AltitudeMeters>
            <DistanceMeters>2141.1660011827</DistanceMeters>
          </Trackpoint>
          <Trackpoint>
            <Time>2022-02-12T09:26:02.000Z</Time>
            <Position>
              <LatitudeDegrees>40.6692203320562839508056640625</LatitudeDegrees>
              <LongitudeDegrees>24.72288331948220729827880859375</LongitudeDegrees>
            </Position>
            <AltitudeMeters>359.399993896484375</AltitudeMeters>
            <DistanceMeters>2156.2854054427</DistanceMeters>
          </Trackpoint>
          <Trackpoint>
            <Time>2022-02-12T09:26:03.000Z</Time>
            <Position>
              <LatitudeDegrees>40.66923617385327816009521484375</LatitudeDegrees>
              <LongitudeDegrees>24.722903184592723846435546875</LongitudeDegrees>
            </Position>
            <AltitudeMeters>359.600006103515625</AltitudeMeters>
            <DistanceMeters>2158.7174210822</DistanceMeters>
          </Trackpoint>
          <Trackpoint>
            <Time>2022-02-12T09:26:09.000Z</Time>
            <Position>
              <LatitudeDegrees>40.66935653798282146453857421875</LatitudeDegrees>
              <LongitudeDegrees>24.72300603054463863372802734375</LongitudeDegrees>
            </Position>
            <AltitudeMeters>359.600006103515625</AltitudeMeters>
            <DistanceMeters>2174.6813434512</DistanceMeters>
          </Trackpoint>
          <Trackpoint>
            <Time>2022-02-12T09:26:15.000Z</Time>
            <Position>
              <LatitudeDegrees>40.6694496609270572662353515625</LatitudeDegrees>
              <LongitudeDegrees>24.72309756092727184295654296875</LongitudeDegrees>
            </Position>
            <AltitudeMeters>359.399993896484375</AltitudeMeters>
            <DistanceMeters>2187.6091682808</DistanceMeters>
          </Trackpoint>
          <Trackpoint>
            <Time>2022-02-12T09:26:21.000Z</Time>
            <Position>
              <LatitudeDegrees>40.66955502144992351531982421875</LatitudeDegrees>
              <LongitudeDegrees>24.723186492919921875</LongitudeDegrees>
            </Position>
            <AltitudeMeters>359.20001220703125</AltitudeMeters>
            <DistanceMeters>2201.5334194753</DistanceMeters>
          </Trackpoint>
          <Trackpoint>
            <Time>2022-02-12T09:26:22.000Z</Time>
            <Position>
              <LatitudeDegrees>40.66957932896912097930908203125</LatitudeDegrees>
              <LongitudeDegrees>24.72320065833628177642822265625</LongitudeDegrees>
            </Position>
            <AltitudeMeters>359</AltitudeMeters>
            <DistanceMeters>2204.4914837197</DistanceMeters>
          </Trackpoint>
          <Trackpoint>
            <Time>2022-02-12T09:26:28.000Z</Time>
            <Position>
              <LatitudeDegrees>40.66968276165425777435302734375</LatitudeDegrees>
              <LongitudeDegrees>24.72333644516766071319580078125</LongitudeDegrees>
            </Position>
            <AltitudeMeters>358.79998779296875</AltitudeMeters>
            <DistanceMeters>2220.7377172642</DistanceMeters>
          </Trackpoint>
          <Trackpoint>
            <Time>2022-02-12T09:26:33.000Z</Time>
            <Position>
              <LatitudeDegrees>40.66962744109332561492919921875</LatitudeDegrees>
              <LongitudeDegrees>24.72347281873226165771484375</LongitudeDegrees>
            </Position>
            <AltitudeMeters>359.600006103515625</AltitudeMeters>
            <DistanceMeters>2233.7941250055</DistanceMeters>
          </Trackpoint>
          <Trackpoint>
            <Time>2022-02-12T09:26:39.000Z</Time>
            <Position>
              <LatitudeDegrees>40.6695264391601085662841796875</LatitudeDegrees>
              <LongitudeDegrees>24.72359242849051952362060546875</LongitudeDegrees>
            </Position>
            <AltitudeMeters>360.399993896484375</AltitudeMeters>
            <DistanceMeters>2248.9048666472</DistanceMeters>
          </Trackpoint>
          <Trackpoint>
            <Time>2022-02-12T09:26:40.000Z</Time>
            <Position>
              <LatitudeDegrees>40.66950556822121143341064453125</LatitudeDegrees>
              <LongitudeDegrees>24.723602570593357086181640625</LongitudeDegrees>
            </Position>
            <AltitudeMeters>360.600006103515625</AltitudeMeters>
            <DistanceMeters>2251.3792133952</DistanceMeters>
          </Trackpoint>
          <Trackpoint>
            <Time>2022-02-12T09:26:46.000Z</Time>
            <Position>
              <LatitudeDegrees>40.66938855685293674468994140625</LatitudeDegrees>
              <LongitudeDegrees>24.7236516885459423065185546875</LongitudeDegrees>
            </Position>
            <AltitudeMeters>361</AltitudeMeters>
            <DistanceMeters>2265.0468829623</DistanceMeters>
          </Trackpoint>
          <Trackpoint>
            <Time>2022-02-12T09:26:52.000Z</Time>
            <Position>
              <LatitudeDegrees>40.6693095155060291290283203125</LatitudeDegrees>
              <LongitudeDegrees>24.7237807698547840118408203125</LongitudeDegrees>
            </Position>
            <AltitudeMeters>361.20001220703125</AltitudeMeters>
            <DistanceMeters>2279.0522862237</DistanceMeters>
          </Trackpoint>
          <Trackpoint>
            <Time>2022-02-12T09:26:54.000Z</Time>
            <Position>
              <LatitudeDegrees>40.66930389963090419769287109375</LatitudeDegrees>
              <LongitudeDegrees>24.72382812760770320892333984375</LongitudeDegrees>
            </Position>
            <AltitudeMeters>361.79998779296875</AltitudeMeters>
            <DistanceMeters>2283.099576511</DistanceMeters>
          </Trackpoint>
          <Trackpoint>
            <Time>2022-02-12T09:26:58.000Z</Time>
            <Position>
              <LatitudeDegrees>40.66933223046362400054931640625</LatitudeDegrees>
              <LongitudeDegrees>24.72392954863607883453369140625</LongitudeDegrees>
            </Position>
            <AltitudeMeters>362.600006103515625</AltitudeMeters>
            <DistanceMeters>2292.224120599</DistanceMeters>
          </Trackpoint>
          <Trackpoint>
            <Time>2022-02-12T09:27:00.000Z</Time>
            <Position>
              <LatitudeDegrees>40.66936022602021694183349609375</LatitudeDegrees>
              <LongitudeDegrees>24.7239779122173786163330078125</LongitudeDegrees>
            </Position>
            <AltitudeMeters>362.79998779296875</AltitudeMeters>
            <DistanceMeters>2297.360839724</DistanceMeters>
          </Trackpoint>
          <Trackpoint>
            <Time>2022-02-12T09:27:04.000Z</Time>
            <Position>
              <LatitudeDegrees>40.6694060750305652618408203125</LatitudeDegrees>
              <LongitudeDegrees>24.72404840402305126190185546875</LongitudeDegrees>
            </Position>
            <AltitudeMeters>364</AltitudeMeters>
            <DistanceMeters>2305.2003996783</DistanceMeters>
          </Trackpoint>
          <Trackpoint>
            <Time>2022-02-12T09:27:10.000Z</Time>
            <Position>
              <LatitudeDegrees>40.66951118409633636474609375</LatitudeDegrees>
              <LongitudeDegrees>24.724122248589992523193359375</LongitudeDegrees>
            </Position>
            <AltitudeMeters>364.79998779296875</AltitudeMeters>
            <DistanceMeters>2318.4565411833</DistanceMeters>
          </Trackpoint>
          <Trackpoint>
            <Time>2022-02-12T09:27:11.000Z</Time>
            <Position>
              <LatitudeDegrees>40.6695338152348995208740234375</LatitudeDegrees>
              <LongitudeDegrees>24.7241291217505931854248046875</LongitudeDegrees>
            </Position>
            <AltitudeMeters>365.20001220703125</AltitudeMeters>
            <DistanceMeters>2321.0415472893</DistanceMeters>
          </Trackpoint>
          <Trackpoint>
            <Time>2022-02-12T09:27:17.000Z</Time>
            <Position>
              <LatitudeDegrees>40.66962786018848419189453125</LatitudeDegrees>
              <LongitudeDegrees>24.7241321392357349395751953125</LongitudeDegrees>
            </Position>
            <AltitudeMeters>366.399993896484375</AltitudeMeters>
            <DistanceMeters>2331.511749199</DistanceMeters>
          </Trackpoint>
          <Trackpoint>
            <Time>2022-02-12T09:27:23.000Z</Time>
            <Position>
              <LatitudeDegrees>40.66970958374440670013427734375</LatitudeDegrees>
              <LongitudeDegrees>24.7241163812577724456787109375</LongitudeDegrees>
            </Position>
            <AltitudeMeters>367.399993896484375</AltitudeMeters>
            <DistanceMeters>2340.7043252995</DistanceMeters>
          </Trackpoint>
          <Trackpoint>
            <Time>2022-02-12T09:27:25.000Z</Time>
            <Position>
              <LatitudeDegrees>40.66973489709198474884033203125</LatitudeDegrees>
              <LongitudeDegrees>24.72411713562905788421630859375</LongitudeDegrees>
            </Position>
            <AltitudeMeters>367.79998779296875</AltitudeMeters>
            <DistanceMeters>2343.5232732009</DistanceMeters>
          </Trackpoint>
          <Trackpoint>
            <Time>2022-02-12T09:27:31.000Z</Time>
            <Position>
              <LatitudeDegrees>40.66980949603021144866943359375</LatitudeDegrees>
              <LongitudeDegrees>24.72408679313957691192626953125</LongitudeDegrees>
            </Position>
            <AltitudeMeters>368.399993896484375</AltitudeMeters>
            <DistanceMeters>2352.2123737957</DistanceMeters>
          </Trackpoint>
          <Trackpoint>
            <Time>2022-02-12T09:27:33.000Z</Time>
            <Position>
              <LatitudeDegrees>40.66985140554606914520263671875</LatitudeDegrees>
              <LongitudeDegrees>24.72408394329249858856201171875</LongitudeDegrees>
            </Position>
            <AltitudeMeters>368.399993896484375</AltitudeMeters>
            <DistanceMeters>2356.8832050589</DistanceMeters>
          </Trackpoint>
          <Trackpoint>
            <Time>2022-02-12T09:27:34.000Z</Time>
            <Position>
              <LatitudeDegrees>40.6698700971901416778564453125</LatitudeDegrees>
              <LongitudeDegrees>24.72408578731119632720947265625</LongitudeDegrees>
            </Position>
            <AltitudeMeters>368.600006103515625</AltitudeMeters>
            <DistanceMeters>2358.9694689075</DistanceMeters>
          </Trackpoint>
          <Trackpoint>
            <Time>2022-02-12T09:27:40.000Z</Time>
            <Position>
              <LatitudeDegrees>40.66997629590332508087158203125</LatitudeDegrees>
              <LongitudeDegrees>24.7240922413766384124755859375</LongitudeDegrees>
            </Position>
            <AltitudeMeters>369.600006103515625</AltitudeMeters>
            <DistanceMeters>2370.8017258852</DistanceMeters>
          </Trackpoint>
          <Trackpoint>
            <Time>2022-02-12T09:27:42.000Z</Time>
            <Position>
              <LatitudeDegrees>40.67001803778111934661865234375</LatitudeDegrees>
              <LongitudeDegrees>24.72410556860268115997314453125</LongitudeDegrees>
            </Position>
            <AltitudeMeters>369.600006103515625</AltitudeMeters>
            <DistanceMeters>2375.5814846033</DistanceMeters>
          </Trackpoint>
          <Trackpoint>
            <Time>2022-02-12T09:27:48.000Z</Time>
            <Position>
              <LatitudeDegrees>40.67013102583587169647216796875</LatitudeDegrees>
              <LongitudeDegrees>24.72417715005576610565185546875</LongitudeDegrees>
            </Position>
            <AltitudeMeters>370</AltitudeMeters>
            <DistanceMeters>2389.533917652</DistanceMeters>
          </Trackpoint>
          <Trackpoint>
            <Time>2022-02-12T09:27:50.000Z</Time>
            <Position>
              <LatitudeDegrees>40.67016958259046077728271484375</LatitudeDegrees>
              <LongitudeDegrees>24.72420481033623218536376953125</LongitudeDegrees>
            </Position>
            <AltitudeMeters>370.20001220703125</AltitudeMeters>
            <DistanceMeters>2394.4201761509</DistanceMeters>
          </Trackpoint>
          <Trackpoint>
            <Time>2022-02-12T09:27:56.000Z</Time>
            <Position>
              <LatitudeDegrees>40.6703083030879497528076171875</LatitudeDegrees>
              <LongitudeDegrees>24.72428695298731327056884765625</LongitudeDegrees>
            </Position>
            <AltitudeMeters>370.399993896484375</AltitudeMeters>
            <DistanceMeters>2411.3456050999</DistanceMeters>
          </Trackpoint>
          <Trackpoint>
            <Time>2022-02-12T09:27:58.000Z</Time>
            <Position>
              <LatitudeDegrees>40.67034610547125339508056640625</LatitudeDegrees>
              <LongitudeDegrees>24.72432098351418972015380859375</LongitudeDegrees>
            </Position>
            <AltitudeMeters>370.399993896484375</AltitudeMeters>
            <DistanceMeters>2416.4399588077</DistanceMeters>
          </Trackpoint>
          <Trackpoint>
            <Time>2022-02-12T09:28:02.000Z</Time>
            <Position>
              <LatitudeDegrees>40.6704125739634037017822265625</LatitudeDegrees>
              <LongitudeDegrees>24.72439348697662353515625</LongitudeDegrees>
            </Position>
            <AltitudeMeters>370.79998779296875</AltitudeMeters>
            <DistanceMeters>2426.0418898891</DistanceMeters>
          </Trackpoint>
          <Trackpoint>
            <Time>2022-02-12T09:28:04.000Z</Time>
            <Position>
              <LatitudeDegrees>40.6704350374639034271240234375</LatitudeDegrees>
              <LongitudeDegrees>24.7244248352944850921630859375</LongitudeDegrees>
            </Position>
            <AltitudeMeters>370.79998779296875</AltitudeMeters>
            <DistanceMeters>2429.6815495083</DistanceMeters>
          </Trackpoint>
          <Trackpoint>
            <Time>2022-02-12T09:28:10.000Z</Time>
            <Position>
              <LatitudeDegrees>40.6705054454505443572998046875</LatitudeDegrees>
              <LongitudeDegrees>24.7245636396110057830810546875</LongitudeDegrees>
            </Position>
            <AltitudeMeters>371.79998779296875</AltitudeMeters>
            <DistanceMeters>2443.7782108941</DistanceMeters>
          </Trackpoint>
          <Trackpoint>
            <Time>2022-02-12T09:28:11.000Z</Time>
            <Position>
              <LatitudeDegrees>40.67051709629595279693603515625</LatitudeDegrees>
              <LongitudeDegrees>24.7245804034173488616943359375</LongitudeDegrees>
            </Position>
            <AltitudeMeters>371.79998779296875</AltitudeMeters>
            <DistanceMeters>2445.7000072583</DistanceMeters>
          </Trackpoint>
          <Trackpoint>
            <Time>2022-02-12T09:28:12.000Z</Time>
            <Position>
              <LatitudeDegrees>40.6705305911600589752197265625</LatitudeDegrees>
              <LongitudeDegrees>24.72459943033754825592041015625</LongitudeDegrees>
            </Position>
            <AltitudeMeters>372</AltitudeMeters>
            <DistanceMeters>2447.9000347522</DistanceMeters>
          </Trackpoint>
          <Trackpoint>
            <Time>2022-02-12T09:28:17.000Z</Time>
            <Position>
              <LatitudeDegrees>40.67058348096907138824462890625</LatitudeDegrees>
              <LongitudeDegrees>24.7247011028230190277099609375</LongitudeDegrees>
            </Position>
            <AltitudeMeters>372.600006103515625</AltitudeMeters>
            <DistanceMeters>2458.3079546703</DistanceMeters>
          </Trackpoint>
          <Trackpoint>
            <Time>2022-02-12T09:28:18.000Z</Time>
            <Position>
              <LatitudeDegrees>40.670592449605464935302734375</LatitudeDegrees>
              <LongitudeDegrees>24.72472113557159900665283203125</LongitudeDegrees>
            </Position>
            <AltitudeMeters>373</AltitudeMeters>
            <DistanceMeters>2460.2715846359</DistanceMeters>
          </Trackpoint>
          <Trackpoint>
            <Time>2022-02-12T09:28:24.000Z</Time>
            <Position>
              <LatitudeDegrees>40.6706623546779155731201171875</LatitudeDegrees>
              <LongitudeDegrees>24.7248435951769351959228515625</LongitudeDegrees>
            </Position>
            <AltitudeMeters>374</AltitudeMeters>
            <DistanceMeters>2473.2098827124</DistanceMeters>
          </Trackpoint>
          <Trackpoint>
            <Time>2022-02-12T09:28:25.000Z</Time>
            <Position>
              <LatitudeDegrees>40.6706750951707363128662109375</LatitudeDegrees>
              <LongitudeDegrees>24.72486111335456371307373046875</LongitudeDegrees>
            </Position>
            <AltitudeMeters>374</AltitudeMeters>
            <DistanceMeters>2475.2590253493</DistanceMeters>
          </Trackpoint>
          <Trackpoint>
            <Time>2022-02-12T09:28:31.000Z</Time>
            <Position>
              <LatitudeDegrees>40.670771487057209014892578125</LatitudeDegrees>
              <LongitudeDegrees>24.72498818300664424896240234375</LongitudeDegrees>
            </Position>
            <AltitudeMeters>374.399993896484375</AltitudeMeters>
            <DistanceMeters>2490.4305990501</DistanceMeters>
          </Trackpoint>
          <Trackpoint>
            <Time>2022-02-12T09:28:35.000Z</Time>
            <Position>
              <LatitudeDegrees>40.67082940600812435150146484375</LatitudeDegrees>
              <LongitudeDegrees>24.72505867481231689453125</LongitudeDegrees>
            </Position>
            <AltitudeMeters>375.399993896484375</AltitudeMeters>
            <DistanceMeters>2499.2039890225</DistanceMeters>
          </Trackpoint>
          <Trackpoint>
            <Time>2022-02-12T09:28:38.000Z</Time>
            <Position>
              <LatitudeDegrees>40.67087751813232898712158203125</LatitudeDegrees>
              <LongitudeDegrees>24.7251138277351856231689453125</LongitudeDegrees>
            </Position>
            <AltitudeMeters>375.79998779296875</AltitudeMeters>
            <DistanceMeters>2506.3005189018</DistanceMeters>
          </Trackpoint>
          <Trackpoint>
            <Time>2022-02-12T09:28:44.000Z</Time>
            <Position>
              <LatitudeDegrees>40.67095681093633174896240234375</LatitudeDegrees>
              <LongitudeDegrees>24.7251785360276699066162109375</LongitudeDegrees>
            </Position>
            <AltitudeMeters>376.20001220703125</AltitudeMeters>
            <DistanceMeters>2516.6797680064</DistanceMeters>
          </Trackpoint>
          <Trackpoint>
            <Time>2022-02-12T09:28:45.000Z</Time>
            <Position>
              <LatitudeDegrees>40.6709765084087848663330078125</LatitudeDegrees>
              <LongitudeDegrees>24.72519085742533206939697265625</LongitudeDegrees>
            </Position>
            <AltitudeMeters>376.399993896484375</AltitudeMeters>
            <DistanceMeters>2519.1062077526</DistanceMeters>
          </Trackpoint>
          <Trackpoint>
            <Time>2022-02-12T09:28:51.000Z</Time>
            <Position>
              <LatitudeDegrees>40.67106326110661029815673828125</LatitudeDegrees>
              <LongitudeDegrees>24.7252368740737438201904296875</LongitudeDegrees>
            </Position>
            <AltitudeMeters>376.79998779296875</AltitudeMeters>
            <DistanceMeters>2529.5141276707</DistanceMeters>
          </Trackpoint>
          <Trackpoint>
            <Time>2022-02-12T09:28:54.000Z</Time>
            <Position>
              <LatitudeDegrees>40.67111170850694179534912109375</LatitudeDegrees>
              <LongitudeDegrees>24.7252623550593852996826171875</LongitudeDegrees>
            </Position>
            <AltitudeMeters>377.600006103515625</AltitudeMeters>
            <DistanceMeters>2535.320874216</DistanceMeters>
          </Trackpoint>
          <Trackpoint>
            <Time>2022-02-12T09:29:00.000Z</Time>
            <Position>
              <LatitudeDegrees>40.6712257862091064453125</LatitudeDegrees>
              <LongitudeDegrees>24.72531893290579319000244140625</LongitudeDegrees>
            </Position>
            <AltitudeMeters>377.79998779296875</AltitudeMeters>
            <DistanceMeters>2548.8867489732</DistanceMeters>
          </Trackpoint>
          <Trackpoint>
            <Time>2022-02-12T09:29:06.000Z</Time>
            <Position>
              <LatitudeDegrees>40.6713436357676982879638671875</LatitudeDegrees>
              <LongitudeDegrees>24.72537743858993053436279296875</LongitudeDegrees>
            </Position>
            <AltitudeMeters>378.399993896484375</AltitudeMeters>
            <DistanceMeters>2562.9031088114</DistanceMeters>
          </Trackpoint>
          <Trackpoint>
            <Time>2022-02-12T09:29:07.000Z</Time>
            <Position>
              <LatitudeDegrees>40.67136450670659542083740234375</LatitudeDegrees>
              <LongitudeDegrees>24.725392274558544158935546875</LongitudeDegrees>
            </Position>
            <AltitudeMeters>378.600006103515625</AltitudeMeters>
            <DistanceMeters>2565.5434154252</DistanceMeters>
          </Trackpoint>
          <Trackpoint>
            <Time>2022-02-12T09:29:13.000Z</Time>
            <Position>
              <LatitudeDegrees>40.67146877758204936981201171875</LatitudeDegrees>
              <LongitudeDegrees>24.72548439167439937591552734375</LongitudeDegrees>
            </Position>
            <AltitudeMeters>379</AltitudeMeters>
            <DistanceMeters>2579.5136352582</DistanceMeters>
          </Trackpoint>
          <Trackpoint>
            <Time>2022-02-12T09:29:15.000Z</Time>
            <Position>
              <LatitudeDegrees>40.67149509675800800323486328125</LatitudeDegrees>
              <LongitudeDegrees>24.7255191765725612640380859375</LongitudeDegrees>
            </Position>
            <AltitudeMeters>379.600006103515625</AltitudeMeters>
            <DistanceMeters>2583.6612002819</DistanceMeters>
          </Trackpoint>
          <Trackpoint>
            <Time>2022-02-12T09:29:16.000Z</Time>
            <Position>
              <LatitudeDegrees>40.67150917835533618927001953125</LatitudeDegrees>
              <LongitudeDegrees>24.7255386225879192352294921875</LongitudeDegrees>
            </Position>
            <AltitudeMeters>379.79998779296875</AltitudeMeters>
            <DistanceMeters>2585.9339087379</DistanceMeters>
          </Trackpoint>
          <Trackpoint>
            <Time>2022-02-12T09:29:22.000Z</Time>
            <Position>
              <LatitudeDegrees>40.671580843627452850341796875</LatitudeDegrees>
              <LongitudeDegrees>24.72566376440227031707763671875</LongitudeDegrees>
            </Position>
            <AltitudeMeters>380.20001220703125</AltitudeMeters>
            <DistanceMeters>2599.1716450803</DistanceMeters>
          </Trackpoint>
          <Trackpoint>
            <Time>2022-02-12T09:29:24.000Z</Time>
            <Position>
              <LatitudeDegrees>40.671609342098236083984375</LatitudeDegrees>
              <LongitudeDegrees>24.72570709884166717529296875</LongitudeDegrees>
            </Position>
            <AltitudeMeters>380.79998779296875</AltitudeMeters>
            <DistanceMeters>2604.0133471001</DistanceMeters>
          </Trackpoint>
          <Trackpoint>
            <Time>2022-02-12T09:29:29.000Z</Time>
            <Position>
              <LatitudeDegrees>40.671659968793392181396484375</LatitudeDegrees>
              <LongitudeDegrees>24.72582469694316387176513671875</LongitudeDegrees>
            </Position>
            <AltitudeMeters>381.600006103515625</AltitudeMeters>
            <DistanceMeters>2615.4284249836</DistanceMeters>
          </Trackpoint>
          <Trackpoint>
            <Time>2022-02-12T09:29:31.000Z</Time>
            <Position>
              <LatitudeDegrees>40.67167514003813266754150390625</LatitudeDegrees>
              <LongitudeDegrees>24.72586342133581638336181640625</LongitudeDegrees>
            </Position>
            <AltitudeMeters>381.79998779296875</AltitudeMeters>
            <DistanceMeters>2619.106339408</DistanceMeters>
          </Trackpoint>
          <Trackpoint>
            <Time>2022-02-12T09:29:32.000Z</Time>
            <Position>
              <LatitudeDegrees>40.67168301902711391448974609375</LatitudeDegrees>
              <LongitudeDegrees>24.725884459912776947021484375</LongitudeDegrees>
            </Position>
            <AltitudeMeters>381.79998779296875</AltitudeMeters>
            <DistanceMeters>2621.0859992719</DistanceMeters>
          </Trackpoint>
          <Trackpoint>
            <Time>2022-02-12T09:29:35.000Z</Time>
            <Position>
              <LatitudeDegrees>40.6717084161937236785888671875</LatitudeDegrees>
              <LongitudeDegrees>24.72593969665467739105224609375</LongitudeDegrees>
            </Position>
            <AltitudeMeters>382.399993896484375</AltitudeMeters>
            <DistanceMeters>2626.5390756266</DistanceMeters>
          </Trackpoint>
          <Trackpoint>
            <Time>2022-02-12T09:29:39.000Z</Time>
            <Position>
              <LatitudeDegrees>40.67172643728554248809814453125</LatitudeDegrees>
              <LongitudeDegrees>24.72598663531243801116943359375</LongitudeDegrees>
            </Position>
            <AltitudeMeters>383</AltitudeMeters>
            <DistanceMeters>2630.9799862261</DistanceMeters>
          </Trackpoint>
          <Trackpoint>
            <Time>2022-02-12T09:29:41.000Z</Time>
            <Position>
              <LatitudeDegrees>40.67172828130424022674560546875</LatitudeDegrees>
              <LongitudeDegrees>24.72601831890642642974853515625</LongitudeDegrees>
            </Position>
            <AltitudeMeters>383.399993896484375</AltitudeMeters>
            <DistanceMeters>2633.6610197674</DistanceMeters>
          </Trackpoint>
          <Trackpoint>
            <Time>2022-02-12T09:31:48.000Z</Time>
            <Position>
              <LatitudeDegrees>40.6718016229569911956787109375</LatitudeDegrees>
              <LongitudeDegrees>24.72613315097987651824951171875</LongitudeDegrees>
            </Position>
            <AltitudeMeters>384</AltitudeMeters>
            <DistanceMeters>2646.3341780017</DistanceMeters>
          </Trackpoint>
          <Trackpoint>
            <Time>2022-02-12T09:31:49.000Z</Time>
            <Position>
              <LatitudeDegrees>40.67181176505982875823974609375</LatitudeDegrees>
              <LongitudeDegrees>24.72613600082695484161376953125</LongitudeDegrees>
            </Position>
            <AltitudeMeters>384</AltitudeMeters>
            <DistanceMeters>2647.4823901602</DistanceMeters>
          </Trackpoint>
          <Trackpoint>
            <Time>2022-02-12T09:31:51.000Z</Time>
            <Position>
              <LatitudeDegrees>40.6718421913683414459228515625</LatitudeDegrees>
              <LongitudeDegrees>24.72615477629005908966064453125</LongitudeDegrees>
            </Position>
            <AltitudeMeters>384.20001220703125</AltitudeMeters>
            <DistanceMeters>2651.2211811861</DistanceMeters>
          </Trackpoint>
          <Trackpoint>
            <Time>2022-02-12T09:31:53.000Z</Time>
            <Position>
              <LatitudeDegrees>40.6718898005783557891845703125</LatitudeDegrees>
              <LongitudeDegrees>24.72617723979055881500244140625</LongitudeDegrees>
            </Position>
            <AltitudeMeters>384.399993896484375</AltitudeMeters>
            <DistanceMeters>2656.8494587348</DistanceMeters>
          </Trackpoint>
          <Trackpoint>
            <Time>2022-02-12T09:31:54.000Z</Time>
            <Position>
              <LatitudeDegrees>40.6719102524220943450927734375</LatitudeDegrees>
              <LongitudeDegrees>24.7261903993785381317138671875</LongitudeDegrees>
            </Position>
            <AltitudeMeters>384.600006103515625</AltitudeMeters>
            <DistanceMeters>2659.3850877353</DistanceMeters>
          </Trackpoint>
          <Trackpoint>
            <Time>2022-02-12T09:31:56.000Z</Time>
            <Position>
              <LatitudeDegrees>40.67194336093962192535400390625</LatitudeDegrees>
              <LongitudeDegrees>24.72621537744998931884765625</LongitudeDegrees>
            </Position>
            <AltitudeMeters>384.79998779296875</AltitudeMeters>
            <DistanceMeters>2663.6305597446</DistanceMeters>
          </Trackpoint>
          <Trackpoint>
            <Time>2022-02-12T09:31:58.000Z</Time>
            <Position>
              <LatitudeDegrees>40.671969093382358551025390625</LatitudeDegrees>
              <LongitudeDegrees>24.7262427024543285369873046875</LongitudeDegrees>
            </Position>
            <AltitudeMeters>385.20001220703125</AltitudeMeters>
            <DistanceMeters>2667.308474169</DistanceMeters>
          </Trackpoint>
          <Trackpoint>
            <Time>2022-02-12T09:32:00.000Z</Time>
            <Position>
              <LatitudeDegrees>40.6719947420060634613037109375</LatitudeDegrees>
              <LongitudeDegrees>24.72627631388604640960693359375</LongitudeDegrees>
            </Position>
            <AltitudeMeters>385.79998779296875</AltitudeMeters>
            <DistanceMeters>2671.3333912042</DistanceMeters>
          </Trackpoint>
          <Trackpoint>
            <Time>2022-02-12T09:32:02.000Z</Time>
            <Position>
              <LatitudeDegrees>40.67202667705714702606201171875</LatitudeDegrees>
              <LongitudeDegrees>24.726309590041637420654296875</LongitudeDegrees>
            </Position>
            <AltitudeMeters>386.399993896484375</AltitudeMeters>
            <DistanceMeters>2675.8648803451</DistanceMeters>
          </Trackpoint>
          <Trackpoint>
            <Time>2022-02-12T09:32:05.000Z</Time>
            <Position>
              <LatitudeDegrees>40.6720733642578125</LatitudeDegrees>
              <LongitudeDegrees>24.72635258920490741729736328125</LongitudeDegrees>
            </Position>
            <AltitudeMeters>387</AltitudeMeters>
            <DistanceMeters>2682.2039528463</DistanceMeters>
          </Trackpoint>
          <Trackpoint>
            <Time>2022-02-12T09:32:07.000Z</Time>
            <Position>
              <LatitudeDegrees>40.67211418412625789642333984375</LatitudeDegrees>
              <LongitudeDegrees>24.726385362446308135986328125</LongitudeDegrees>
            </Position>
            <AltitudeMeters>387.399993896484375</AltitudeMeters>
            <DistanceMeters>2687.5237516747</DistanceMeters>
          </Trackpoint>
          <Trackpoint>
            <Time>2022-02-12T09:32:08.000Z</Time>
            <Position>
              <LatitudeDegrees>40.6721342168748378753662109375</LatitudeDegrees>
              <LongitudeDegrees>24.726396091282367706298828125</LongitudeDegrees>
            </Position>
            <AltitudeMeters>387.399993896484375</AltitudeMeters>
            <DistanceMeters>2689.9296359198</DistanceMeters>
          </Trackpoint>
          <Trackpoint>
            <Time>2022-02-12T09:32:11.000Z</Time>
            <Position>
              <LatitudeDegrees>40.67218492738902568817138671875</LatitudeDegrees>
              <LongitudeDegrees>24.72644546069204807281494140625</LongitudeDegrees>
            </Position>
            <AltitudeMeters>388</AltitudeMeters>
            <DistanceMeters>2696.9461861243</DistanceMeters>
          </Trackpoint>
          <Trackpoint>
            <Time>2022-02-12T09:32:13.000Z</Time>
            <Position>
              <LatitudeDegrees>40.672216527163982391357421875</LatitudeDegrees>
              <LongitudeDegrees>24.72647957503795623779296875</LongitudeDegrees>
            </Position>
            <AltitudeMeters>388.79998779296875</AltitudeMeters>
            <DistanceMeters>2701.4925962444</DistanceMeters>
          </Trackpoint>
          <Trackpoint>
            <Time>2022-02-12T09:32:19.000Z</Time>
            <Position>
              <LatitudeDegrees>40.67226422019302845001220703125</LatitudeDegrees>
              <LongitudeDegrees>24.72662600688636302947998046875</LongitudeDegrees>
            </Position>
            <AltitudeMeters>389.79998779296875</AltitudeMeters>
            <DistanceMeters>2714.9455064162</DistanceMeters>
          </Trackpoint>
          <Trackpoint>
            <Time>2022-02-12T09:32:20.000Z</Time>
            <Position>
              <LatitudeDegrees>40.6722785532474517822265625</LatitudeDegrees>
              <LongitudeDegrees>24.72664411179721355438232421875</LongitudeDegrees>
            </Position>
            <AltitudeMeters>389.79998779296875</AltitudeMeters>
            <DistanceMeters>2717.155771413</DistanceMeters>
          </Trackpoint>
          <Trackpoint>
            <Time>2022-02-12T09:32:24.000Z</Time>
            <Position>
              <LatitudeDegrees>40.67229925654828548431396484375</LatitudeDegrees>
              <LongitudeDegrees>24.7267301939427852630615234375</LongitudeDegrees>
            </Position>
            <AltitudeMeters>390.399993896484375</AltitudeMeters>
            <DistanceMeters>2724.7792595906</DistanceMeters>
          </Trackpoint>
          <Trackpoint>
            <Time>2022-02-12T09:32:26.000Z</Time>
            <Position>
              <LatitudeDegrees>40.6723105721175670623779296875</LatitudeDegrees>
              <LongitudeDegrees>24.726761542260646820068359375</LongitudeDegrees>
            </Position>
            <AltitudeMeters>391.20001220703125</AltitudeMeters>
            <DistanceMeters>2727.7081796342</DistanceMeters>
          </Trackpoint>
          <Trackpoint>
            <Time>2022-02-12T09:32:27.000Z</Time>
            <Position>
              <LatitudeDegrees>40.672317445278167724609375</LatitudeDegrees>
              <LongitudeDegrees>24.7267717681825160980224609375</LongitudeDegrees>
            </Position>
            <AltitudeMeters>391.399993896484375</AltitudeMeters>
            <DistanceMeters>2728.8563917926</DistanceMeters>
          </Trackpoint>
          <Trackpoint>
            <Time>2022-02-12T09:32:31.000Z</Time>
            <Position>
              <LatitudeDegrees>40.672348625957965850830078125</LatitudeDegrees>
              <LongitudeDegrees>24.7268088161945343017578125</LongitudeDegrees>
            </Position>
            <AltitudeMeters>392.20001220703125</AltitudeMeters>
            <DistanceMeters>2733.5272230557</DistanceMeters>
          </Trackpoint>
          <Trackpoint>
            <Time>2022-02-12T09:32:34.000Z</Time>
            <Position>
              <LatitudeDegrees>40.6723880209028720855712890625</LatitudeDegrees>
              <LongitudeDegrees>24.72685365937650203704833984375</LongitudeDegrees>
            </Position>
            <AltitudeMeters>392.79998779296875</AltitudeMeters>
            <DistanceMeters>2739.3199567856</DistanceMeters>
          </Trackpoint>
          <Trackpoint>
            <Time>2022-02-12T09:32:36.000Z</Time>
            <Position>
              <LatitudeDegrees>40.67241123877465724945068359375</LatitudeDegrees>
              <LongitudeDegrees>24.72688701935112476348876953125</LongitudeDegrees>
            </Position>
            <AltitudeMeters>393.399993896484375</AltitudeMeters>
            <DistanceMeters>2743.142346573</DistanceMeters>
          </Trackpoint>
          <Trackpoint>
            <Time>2022-02-12T09:32:39.000Z</Time>
            <Position>
              <LatitudeDegrees>40.67245348356664180755615234375</LatitudeDegrees>
              <LongitudeDegrees>24.7269330359995365142822265625</LongitudeDegrees>
            </Position>
            <AltitudeMeters>394.600006103515625</AltitudeMeters>
            <DistanceMeters>2749.2411075023</DistanceMeters>
          </Trackpoint>
          <Trackpoint>
            <Time>2022-02-12T09:32:40.000Z</Time>
            <Position>
              <LatitudeDegrees>40.6724614463746547698974609375</LatitudeDegrees>
              <LongitudeDegrees>24.72694468684494495391845703125</LongitudeDegrees>
            </Position>
            <AltitudeMeters>394.79998779296875</AltitudeMeters>
            <DistanceMeters>2750.5646764767</DistanceMeters>
          </Trackpoint>
          <Trackpoint>
            <Time>2022-02-12T09:32:45.000Z</Time>
            <Position>
              <LatitudeDegrees>40.6725114025175571441650390625</LatitudeDegrees>
              <LongitudeDegrees>24.7270624525845050811767578125</LongitudeDegrees>
            </Position>
            <AltitudeMeters>395.399993896484375</AltitudeMeters>
            <DistanceMeters>2761.9559976687</DistanceMeters>
          </Trackpoint>
          <Trackpoint>
            <Time>2022-02-12T09:32:46.000Z</Time>
            <Position>
              <LatitudeDegrees>40.67252137698233127593994140625</LatitudeDegrees>
              <LongitudeDegrees>24.72708550281822681427001953125</LongitudeDegrees>
            </Position>
            <AltitudeMeters>395.79998779296875</AltitudeMeters>
            <DistanceMeters>2764.1966945476</DistanceMeters>
          </Trackpoint>
          <Trackpoint>
            <Time>2022-02-12T09:32:52.000Z</Time>
            <Position>
              <LatitudeDegrees>40.67257720045745372772216796875</LatitudeDegrees>
              <LongitudeDegrees>24.7271911986172199249267578125</LongitudeDegrees>
            </Position>
            <AltitudeMeters>396.600006103515625</AltitudeMeters>
            <DistanceMeters>2775.069262355</DistanceMeters>
          </Trackpoint>
          <Trackpoint>
            <Time>2022-02-12T09:32:53.000Z</Time>
            <Position>
              <LatitudeDegrees>40.6725922040641307830810546875</LatitudeDegrees>
              <LongitudeDegrees>24.727210141718387603759765625</LongitudeDegrees>
            </Position>
            <AltitudeMeters>396.79998779296875</AltitudeMeters>
            <DistanceMeters>2777.3794084929</DistanceMeters>
          </Trackpoint>
          <Trackpoint>
            <Time>2022-02-12T09:32:58.000Z</Time>
            <Position>
              <LatitudeDegrees>40.67260586656630039215087890625</LatitudeDegrees>
              <LongitudeDegrees>24.72730779089033603668212890625</LongitudeDegrees>
            </Position>
            <AltitudeMeters>397.600006103515625</AltitudeMeters>
            <DistanceMeters>2785.7611741025</DistanceMeters>
          </Trackpoint>
          <Trackpoint>
            <Time>2022-02-12T09:32:59.000Z</Time>
            <Position>
              <LatitudeDegrees>40.67260016687214374542236328125</LatitudeDegrees>
              <LongitudeDegrees>24.7273253090679645538330078125</LongitudeDegrees>
            </Position>
            <AltitudeMeters>397.79998779296875</AltitudeMeters>
            <DistanceMeters>2787.3682216634</DistanceMeters>
          </Trackpoint>
          <Trackpoint>
            <Time>2022-02-12T09:33:00.000Z</Time>
            <Position>
              <LatitudeDegrees>40.67258876748383045196533203125</LatitudeDegrees>
              <LongitudeDegrees>24.727340228855609893798828125</LongitudeDegrees>
            </Position>
            <AltitudeMeters>398</AltitudeMeters>
            <DistanceMeters>2789.1510808581</DistanceMeters>
          </Trackpoint>
          <Trackpoint>
            <Time>2022-02-12T09:33:03.000Z</Time>
            <Position>
              <LatitudeDegrees>40.67257552407681941986083984375</LatitudeDegrees>
              <LongitudeDegrees>24.72737283445894718170166015625</LongitudeDegrees>
            </Position>
            <AltitudeMeters>399</AltitudeMeters>
            <DistanceMeters>2792.2739773597</DistanceMeters>
          </Trackpoint>
          <Trackpoint>
            <Time>2022-02-12T09:33:05.000Z</Time>
            <Position>
              <LatitudeDegrees>40.67257166840136051177978515625</LatitudeDegrees>
              <LongitudeDegrees>24.72737752832472324371337890625</LongitudeDegrees>
            </Position>
            <AltitudeMeters>399.20001220703125</AltitudeMeters>
            <DistanceMeters>2792.8597613684</DistanceMeters>
          </Trackpoint>
          <Trackpoint>
            <Time>2022-02-12T09:33:11.000Z</Time>
            <Position>
              <LatitudeDegrees>40.67255557514727115631103515625</LatitudeDegrees>
              <LongitudeDegrees>24.7274302504956722259521484375</LongitudeDegrees>
            </Position>
            <AltitudeMeters>398.79998779296875</AltitudeMeters>
            <DistanceMeters>2797.6564930452</DistanceMeters>
          </Trackpoint>
          <Trackpoint>
            <Time>2022-02-12T09:33:12.000Z</Time>
            <Position>
              <LatitudeDegrees>40.67254501394927501678466796875</LatitudeDegrees>
              <LongitudeDegrees>24.72744508646428585052490234375</LongitudeDegrees>
            </Position>
            <AltitudeMeters>398.79998779296875</AltitudeMeters>
            <DistanceMeters>2799.3748745503</DistanceMeters>
          </Trackpoint>
          <Trackpoint>
            <Time>2022-02-12T09:33:17.000Z</Time>
            <Position>
              <LatitudeDegrees>40.6724537350237369537353515625</LatitudeDegrees>
              <LongitudeDegrees>24.72748850472271442413330078125</LongitudeDegrees>
            </Position>
            <AltitudeMeters>398.79998779296875</AltitudeMeters>
            <DistanceMeters>2810.1753619238</DistanceMeters>
          </Trackpoint>
          <Trackpoint>
            <Time>2022-02-12T09:33:19.000Z</Time>
            <Position>
              <LatitudeDegrees>40.6724225543439388275146484375</LatitudeDegrees>
              <LongitudeDegrees>24.727483727037906646728515625</LongitudeDegrees>
            </Position>
            <AltitudeMeters>399</AltitudeMeters>
            <DistanceMeters>2813.6694516982</DistanceMeters>
          </Trackpoint>
          <Trackpoint>
            <Time>2022-02-12T09:33:23.000Z</Time>
            <Position>
              <LatitudeDegrees>40.6723536550998687744140625</LatitudeDegrees>
              <LongitudeDegrees>24.72745816223323345184326171875</LongitudeDegrees>
            </Position>
            <AltitudeMeters>399.399993896484375</AltitudeMeters>
            <DistanceMeters>2821.6358421763</DistanceMeters>
          </Trackpoint>
          <Trackpoint>
            <Time>2022-02-12T09:33:29.000Z</Time>
            <Position>
              <LatitudeDegrees>40.6722347997128963470458984375</LatitudeDegrees>
              <LongitudeDegrees>24.72739244811236858367919921875</LongitudeDegrees>
            </Position>
            <AltitudeMeters>399.79998779296875</AltitudeMeters>
            <DistanceMeters>2835.9804701578</DistanceMeters>
          </Trackpoint>
          <Trackpoint>
            <Time>2022-02-12T09:33:31.000Z</Time>
            <Position>
              <LatitudeDegrees>40.67219783551990985870361328125</LatitudeDegrees>
              <LongitudeDegrees>24.72737803123891353607177734375</LongitudeDegrees>
            </Position>
            <AltitudeMeters>400.20001220703125</AltitudeMeters>
            <DistanceMeters>2840.2703764263</DistanceMeters>
          </Trackpoint>
          <Trackpoint>
            <Time>2022-02-12T09:33:37.000Z</Time>
            <Position>
              <LatitudeDegrees>40.6720664910972118377685546875</LatitudeDegrees>
              <LongitudeDegrees>24.72733385860919952392578125</LongitudeDegrees>
            </Position>
            <AltitudeMeters>401</AltitudeMeters>
            <DistanceMeters>2855.3571954034</DistanceMeters>
          </Trackpoint>
          <Trackpoint>
            <Time>2022-02-12T09:33:43.000Z</Time>
            <Position>
              <LatitudeDegrees>40.6719330511987209320068359375</LatitudeDegrees>
              <LongitudeDegrees>24.72727895714342594146728515625</LongitudeDegrees>
            </Position>
            <AltitudeMeters>401.399993896484375</AltitudeMeters>
            <DistanceMeters>2870.9154803075</DistanceMeters>
          </Trackpoint>
          <Trackpoint>
            <Time>2022-02-12T09:33:46.000Z</Time>
            <Position>
              <LatitudeDegrees>40.671863146126270294189453125</LatitudeDegrees>
              <LongitudeDegrees>24.72724978812038898468017578125</LongitudeDegrees>
            </Position>
            <AltitudeMeters>401.79998779296875</AltitudeMeters>
            <DistanceMeters>2879.0756141114</DistanceMeters>
          </Trackpoint>
          <Trackpoint>
            <Time>2022-02-12T09:33:49.000Z</Time>
            <Position>
              <LatitudeDegrees>40.67181780003011226654052734375</LatitudeDegrees>
              <LongitudeDegrees>24.72723403014242649078369140625</LongitudeDegrees>
            </Position>
            <AltitudeMeters>402.399993896484375</AltitudeMeters>
            <DistanceMeters>2884.2960327448</DistanceMeters>
          </Trackpoint>
          <Trackpoint>
            <Time>2022-02-12T09:33:52.000Z</Time>
            <Position>
              <LatitudeDegrees>40.67176633514463901519775390625</LatitudeDegrees>
              <LongitudeDegrees>24.7272096388041973114013671875</LongitudeDegrees>
            </Position>
            <AltitudeMeters>402.600006103515625</AltitudeMeters>
            <DistanceMeters>2890.3821952116</DistanceMeters>
          </Trackpoint>
          <Trackpoint>
            <Time>2022-02-12T09:33:56.000Z</Time>
            <Position>
              <LatitudeDegrees>40.6717050634324550628662109375</LatitudeDegrees>
              <LongitudeDegrees>24.72719932906329631805419921875</LongitudeDegrees>
            </Position>
            <AltitudeMeters>403.399993896484375</AltitudeMeters>
            <DistanceMeters>2897.257034854</DistanceMeters>
          </Trackpoint>
          <Trackpoint>
            <Time>2022-02-12T09:33:58.000Z</Time>
            <Position>
              <LatitudeDegrees>40.6716812588274478912353515625</LatitudeDegrees>
              <LongitudeDegrees>24.7271911986172199249267578125</LongitudeDegrees>
            </Position>
            <AltitudeMeters>403.600006103515625</AltitudeMeters>
            <DistanceMeters>2899.993078233</DistanceMeters>
          </Trackpoint>
          <Trackpoint>
            <Time>2022-02-12T09:34:02.000Z</Time>
            <Position>
              <LatitudeDegrees>40.67162417806684970855712890625</LatitudeDegrees>
              <LongitudeDegrees>24.727175273001194000244140625</LongitudeDegrees>
            </Position>
            <AltitudeMeters>404.600006103515625</AltitudeMeters>
            <DistanceMeters>2906.4869566576</DistanceMeters>
          </Trackpoint>
          <Trackpoint>
            <Time>2022-02-12T09:34:07.000Z</Time>
            <Position>
              <LatitudeDegrees>40.6715394370257854461669921875</LatitudeDegrees>
              <LongitudeDegrees>24.72714769653975963592529296875</LongitudeDegrees>
            </Position>
            <AltitudeMeters>404.79998779296875</AltitudeMeters>
            <DistanceMeters>2916.2020150204</DistanceMeters>
          </Trackpoint>
          <Trackpoint>
            <Time>2022-02-12T09:34:13.000Z</Time>
            <Position>
              <LatitudeDegrees>40.6714318133890628814697265625</LatitudeDegrees>
              <LongitudeDegrees>24.72710293717682361602783203125</LongitudeDegrees>
            </Position>
            <AltitudeMeters>405.600006103515625</AltitudeMeters>
            <DistanceMeters>2928.7620880885</DistanceMeters>
          </Trackpoint>
          <Trackpoint>
            <Time>2022-02-12T09:34:14.000Z</Time>
            <Position>
              <LatitudeDegrees>40.6714140437543392181396484375</LatitudeDegrees>
              <LongitudeDegrees>24.727099835872650146484375</LongitudeDegrees>
            </Position>
            <AltitudeMeters>405.600006103515625</AltitudeMeters>
            <DistanceMeters>2930.7553852653</DistanceMeters>
          </Trackpoint>
          <Trackpoint>
            <Time>2022-02-12T09:34:20.000Z</Time>
            <Position>
              <LatitudeDegrees>40.67131941206753253936767578125</LatitudeDegrees>
              <LongitudeDegrees>24.7270839102566242218017578125</LongitudeDegrees>
            </Position>
            <AltitudeMeters>406.600006103515625</AltitudeMeters>
            <DistanceMeters>2941.3728931804</DistanceMeters>
          </Trackpoint>
          <Trackpoint>
            <Time>2022-02-12T09:34:22.000Z</Time>
            <Position>
              <LatitudeDegrees>40.6712930090725421905517578125</LatitudeDegrees>
              <LongitudeDegrees>24.7270741872489452362060546875</LongitudeDegrees>
            </Position>
            <AltitudeMeters>406.79998779296875</AltitudeMeters>
            <DistanceMeters>2944.4241238852</DistanceMeters>
          </Trackpoint>
          <Trackpoint>
            <Time>2022-02-12T09:34:28.000Z</Time>
            <Position>
              <LatitudeDegrees>40.6712021492421627044677734375</LatitudeDegrees>
              <LongitudeDegrees>24.72705331631004810333251953125</LongitudeDegrees>
            </Position>
            <AltitudeMeters>407.600006103515625</AltitudeMeters>
            <DistanceMeters>2954.6896483287</DistanceMeters>
          </Trackpoint>
          <Trackpoint>
            <Time>2022-02-12T09:34:30.000Z</Time>
            <Position>
              <LatitudeDegrees>40.67116367630660533905029296875</LatitudeDegrees>
              <LongitudeDegrees>24.72703286446630954742431640625</LongitudeDegrees>
            </Position>
            <AltitudeMeters>408.20001220703125</AltitudeMeters>
            <DistanceMeters>2959.3060300729</DistanceMeters>
          </Trackpoint>
          <Trackpoint>
            <Time>2022-02-12T09:34:36.000Z</Time>
            <Position>
              <LatitudeDegrees>40.67105638794600963592529296875</LatitudeDegrees>
              <LongitudeDegrees>24.7269662283360958099365234375</LongitudeDegrees>
            </Position>
            <AltitudeMeters>408.600006103515625</AltitudeMeters>
            <DistanceMeters>2972.5061950363</DistanceMeters>
          </Trackpoint>
          <Trackpoint>
            <Time>2022-02-12T09:34:37.000Z</Time>
            <Position>
              <LatitudeDegrees>40.67103442735970020294189453125</LatitudeDegrees>
              <LongitudeDegrees>24.7269528172910213470458984375</LongitudeDegrees>
            </Position>
            <AltitudeMeters>408.600006103515625</AltitudeMeters>
            <DistanceMeters>2975.2006674264</DistanceMeters>
          </Trackpoint>
          <Trackpoint>
            <Time>2022-02-12T09:34:38.000Z</Time>
            <Position>
              <LatitudeDegrees>40.67101447843015193939208984375</LatitudeDegrees>
              <LongitudeDegrees>24.72693957388401031494140625</LongitudeDegrees>
            </Position>
            <AltitudeMeters>408.79998779296875</AltitudeMeters>
            <DistanceMeters>2977.6877545508</DistanceMeters>
          </Trackpoint>
          <Trackpoint>
            <Time>2022-02-12T09:34:44.000Z</Time>
            <Position>
              <LatitudeDegrees>40.6708910129964351654052734375</LatitudeDegrees>
              <LongitudeDegrees>24.7268743626773357391357421875</LongitudeDegrees>
            </Position>
            <AltitudeMeters>409.600006103515625</AltitudeMeters>
            <DistanceMeters>2992.491196554</DistanceMeters>
          </Trackpoint>
          <Trackpoint>
            <Time>2022-02-12T09:34:45.000Z</Time>
            <Position>
              <LatitudeDegrees>40.67087047733366489410400390625</LatitudeDegrees>
              <LongitudeDegrees>24.72686204127967357635498046875</LongitudeDegrees>
            </Position>
            <AltitudeMeters>409.79998779296875</AltitudeMeters>
            <DistanceMeters>2995.0017728539</DistanceMeters>
          </Trackpoint>
          <Trackpoint>
            <Time>2022-02-12T09:34:48.000Z</Time>
            <Position>
              <LatitudeDegrees>40.67080794833600521087646484375</LatitudeDegrees>
              <LongitudeDegrees>24.72683303989470005035400390625</LongitudeDegrees>
            </Position>
            <AltitudeMeters>410.600006103515625</AltitudeMeters>
            <DistanceMeters>3002.3796655615</DistanceMeters>
          </Trackpoint>
          <Trackpoint>
            <Time>2022-02-12T09:34:51.000Z</Time>
            <Position>
              <LatitudeDegrees>40.670750029385089874267578125</LatitudeDegrees>
              <LongitudeDegrees>24.72679532133042812347412109375</LongitudeDegrees>
            </Position>
            <AltitudeMeters>410.79998779296875</AltitudeMeters>
            <DistanceMeters>3009.5697411968</DistanceMeters>
          </Trackpoint>
          <Trackpoint>
            <Time>2022-02-12T09:34:55.000Z</Time>
            <Position>
              <LatitudeDegrees>40.6706724129617214202880859375</LatitudeDegrees>
              <LongitudeDegrees>24.72675508819520473480224609375</LongitudeDegrees>
            </Position>
            <AltitudeMeters>411.600006103515625</AltitudeMeters>
            <DistanceMeters>3018.8522510636</DistanceMeters>
          </Trackpoint>
          <Trackpoint>
            <Time>2022-02-12T09:34:56.000Z</Time>
            <Position>
              <LatitudeDegrees>40.67065338604152202606201171875</LatitudeDegrees>
              <LongitudeDegrees>24.72674821503460407257080078125</LongitudeDegrees>
            </Position>
            <AltitudeMeters>411.600006103515625</AltitudeMeters>
            <DistanceMeters>3021.0481701926</DistanceMeters>
          </Trackpoint>
          <Trackpoint>
            <Time>2022-02-12T09:34:58.000Z</Time>
            <Position>
              <LatitudeDegrees>40.67061918787658214569091796875</LatitudeDegrees>
              <LongitudeDegrees>24.72673245705664157867431640625</LongitudeDegrees>
            </Position>
            <AltitudeMeters>412</AltitudeMeters>
            <DistanceMeters>3025.0798122401</DistanceMeters>
          </Trackpoint>
          <Trackpoint>
            <Time>2022-02-12T09:35:02.000Z</Time>
            <Position>
              <LatitudeDegrees>40.67055464722216129302978515625</LatitudeDegrees>
              <LongitudeDegrees>24.72672273404896259307861328125</LongitudeDegrees>
            </Position>
            <AltitudeMeters>412.600006103515625</AltitudeMeters>
            <DistanceMeters>3032.3099652492</DistanceMeters>
          </Trackpoint>
          <Trackpoint>
            <Time>2022-02-12T09:35:04.000Z</Time>
            <Position>
              <LatitudeDegrees>40.6705329380929470062255859375</LatitudeDegrees>
              <LongitudeDegrees>24.72671686671674251556396484375</LongitudeDegrees>
            </Position>
            <AltitudeMeters>412.79998779296875</AltitudeMeters>
            <DistanceMeters>3034.7770022418</DistanceMeters>
          </Trackpoint>
          <Trackpoint>
            <Time>2022-02-12T09:35:05.000Z</Time>
            <Position>
              <LatitudeDegrees>40.67051927559077739715576171875</LatitudeDegrees>
              <LongitudeDegrees>24.72671602852642536163330078125</LongitudeDegrees>
            </Position>
            <AltitudeMeters>412.79998779296875</AltitudeMeters>
            <DistanceMeters>3036.2974296717</DistanceMeters>
          </Trackpoint>
          <Trackpoint>
            <Time>2022-02-12T09:36:43.000Z</Time>
            <Position>
              <LatitudeDegrees>40.67052866332232952117919921875</LatitudeDegrees>
              <LongitudeDegrees>24.72666054032742977142333984375</LongitudeDegrees>
            </Position>
            <AltitudeMeters>412.600006103515625</AltitudeMeters>
            <DistanceMeters>3041.096043527</DistanceMeters>
          </Trackpoint>
          <Trackpoint>
            <Time>2022-02-12T09:36:44.000Z</Time>
            <Position>
              <LatitudeDegrees>40.67052933387458324432373046875</LatitudeDegrees>
              <LongitudeDegrees>24.726664982736110687255859375</LongitudeDegrees>
            </Position>
            <AltitudeMeters>412.79998779296875</AltitudeMeters>
            <DistanceMeters>3041.4878487076</DistanceMeters>
          </Trackpoint>
          <Trackpoint>
            <Time>2022-02-12T09:36:45.000Z</Time>
            <Position>
              <LatitudeDegrees>40.6705285795032978057861328125</LatitudeDegrees>
              <LongitudeDegrees>24.72668216563761234283447265625</LongitudeDegrees>
            </Position>
            <AltitudeMeters>412.79998779296875</AltitudeMeters>
            <DistanceMeters>3042.9414779203</DistanceMeters>
          </Trackpoint>
          <Trackpoint>
            <Time>2022-02-12T09:36:46.000Z</Time>
            <Position>
              <LatitudeDegrees>40.6705352850258350372314453125</LatitudeDegrees>
              <LongitudeDegrees>24.726706556975841522216796875</LongitudeDegrees>
            </Position>
            <AltitudeMeters>413</AltitudeMeters>
            <DistanceMeters>3045.1332809836</DistanceMeters>
          </Trackpoint>
          <Trackpoint>
            <Time>2022-02-12T09:36:48.000Z</Time>
            <Position>
              <LatitudeDegrees>40.6705431640148162841796875</LatitudeDegrees>
              <LongitudeDegrees>24.7267610393464565277099609375</LongitudeDegrees>
            </Position>
            <AltitudeMeters>413.399993896484375</AltitudeMeters>
            <DistanceMeters>3049.8156976252</DistanceMeters>
          </Trackpoint>
          <Trackpoint>
            <Time>2022-02-12T09:36:49.000Z</Time>
            <Position>
              <LatitudeDegrees>40.67054945044219493865966796875</LatitudeDegrees>
              <LongitudeDegrees>24.72678643651306629180908203125</LongitudeDegrees>
            </Position>
            <AltitudeMeters>413.399993896484375</AltitudeMeters>
            <DistanceMeters>3052.070455492</DistanceMeters>
          </Trackpoint>
          <Trackpoint>
            <Time>2022-02-12T09:36:52.000Z</Time>
            <Position>
              <LatitudeDegrees>40.67059270106256008148193359375</LatitudeDegrees>
              <LongitudeDegrees>24.72684435546398162841796875</LongitudeDegrees>
            </Position>
            <AltitudeMeters>413.79998779296875</AltitudeMeters>
            <DistanceMeters>3058.9321475996</DistanceMeters>
          </Trackpoint>
          <Trackpoint>
            <Time>2022-02-12T09:36:54.000Z</Time>
            <Position>
              <LatitudeDegrees>40.6706174276769161224365234375</LatitudeDegrees>
              <LongitudeDegrees>24.726880230009555816650390625</LongitudeDegrees>
            </Position>
            <AltitudeMeters>414</AltitudeMeters>
            <DistanceMeters>3063.0238173965</DistanceMeters>
          </Trackpoint>
          <Trackpoint>
            <Time>2022-02-12T09:36:57.000Z</Time>
            <Position>
              <LatitudeDegrees>40.67065648734569549560546875</LatitudeDegrees>
              <LongitudeDegrees>24.72693647257983684539794921875</LongitudeDegrees>
            </Position>
            <AltitudeMeters>415.20001220703125</AltitudeMeters>
            <DistanceMeters>3069.4618334634</DistanceMeters>
          </Trackpoint>
          <Trackpoint>
            <Time>2022-02-12T09:37:00.000Z</Time>
            <Position>
              <LatitudeDegrees>40.67070920951664447784423828125</LatitudeDegrees>
              <LongitudeDegrees>24.72698659636080265045166015625</LongitudeDegrees>
            </Position>
            <AltitudeMeters>416.20001220703125</AltitudeMeters>
            <DistanceMeters>3076.6963564656</DistanceMeters>
          </Trackpoint>
          <Trackpoint>
            <Time>2022-02-12T09:37:01.000Z</Time>
            <Position>
              <LatitudeDegrees>40.67072882317006587982177734375</LatitudeDegrees>
              <LongitudeDegrees>24.72699883393943309783935546875</LongitudeDegrees>
            </Position>
            <AltitudeMeters>416.399993896484375</AltitudeMeters>
            <DistanceMeters>3079.1116058073</DistanceMeters>
          </Trackpoint>
          <Trackpoint>
            <Time>2022-02-12T09:37:02.000Z</Time>
            <Position>
              <LatitudeDegrees>40.67074826918542385101318359375</LatitudeDegrees>
              <LongitudeDegrees>24.72701241262257099151611328125</LongitudeDegrees>
            </Position>
            <AltitudeMeters>416.399993896484375</AltitudeMeters>
            <DistanceMeters>3081.5602729466</DistanceMeters>
          </Trackpoint>
          <Trackpoint>
            <Time>2022-02-12T09:37:06.000Z</Time>
            <Position>
              <LatitudeDegrees>40.67083041183650493621826171875</LatitudeDegrees>
              <LongitudeDegrees>24.7270741872489452362060546875</LongitudeDegrees>
            </Position>
            <AltitudeMeters>417</AltitudeMeters>
            <DistanceMeters>3092.085527234</DistanceMeters>
          </Trackpoint>
          <Trackpoint>
            <Time>2022-02-12T09:37:08.000Z</Time>
            <Position>
              <LatitudeDegrees>40.67086125724017620086669921875</LatitudeDegrees>
              <LongitudeDegrees>24.727110229432582855224609375</LongitudeDegrees>
            </Position>
            <AltitudeMeters>417.399993896484375</AltitudeMeters>
            <DistanceMeters>3096.6724737253</DistanceMeters>
          </Trackpoint>
          <Trackpoint>
            <Time>2022-02-12T09:37:09.000Z</Time>
            <Position>
              <LatitudeDegrees>40.67087148316204547882080078125</LatitudeDegrees>
              <LongitudeDegrees>24.72713009454309940338134765625</LongitudeDegrees>
            </Position>
            <AltitudeMeters>417.79998779296875</AltitudeMeters>
            <DistanceMeters>3098.6972341323</DistanceMeters>
          </Trackpoint>
          <Trackpoint>
            <Time>2022-02-12T09:37:12.000Z</Time>
            <Position>
              <LatitudeDegrees>40.67090727388858795166015625</LatitudeDegrees>
              <LongitudeDegrees>24.72718759439885616302490234375</LongitudeDegrees>
            </Position>
            <AltitudeMeters>418.79998779296875</AltitudeMeters>
            <DistanceMeters>3104.9761921473</DistanceMeters>
          </Trackpoint>
          <Trackpoint>
            <Time>2022-02-12T09:37:16.000Z</Time>
            <Position>
              <LatitudeDegrees>40.67095689475536346435546875</LatitudeDegrees>
              <LongitudeDegrees>24.727252386510372161865234375</LongitudeDegrees>
            </Position>
            <AltitudeMeters>419.79998779296875</AltitudeMeters>
            <DistanceMeters>3112.7498188146</DistanceMeters>
          </Trackpoint>
          <Trackpoint>
            <Time>2022-02-12T09:37:17.000Z</Time>
            <Position>
              <LatitudeDegrees>40.67096234299242496490478515625</LatitudeDegrees>
              <LongitudeDegrees>24.72726386971771717071533203125</LongitudeDegrees>
            </Position>
            <AltitudeMeters>420.20001220703125</AltitudeMeters>
            <DistanceMeters>3113.890139387</DistanceMeters>
          </Trackpoint>
          <Trackpoint>
            <Time>2022-02-12T09:37:21.000Z</Time>
            <Position>
              <LatitudeDegrees>40.67100006155669689178466796875</LatitudeDegrees>
              <LongitudeDegrees>24.72731617279350757598876953125</LongitudeDegrees>
            </Position>
            <AltitudeMeters>421</AltitudeMeters>
            <DistanceMeters>3119.9822337875</DistanceMeters>
          </Trackpoint>
          <Trackpoint>
            <Time>2022-02-12T09:37:24.000Z</Time>
            <Position>
              <LatitudeDegrees>40.67102520726621150970458984375</LatitudeDegrees>
              <LongitudeDegrees>24.72737484611570835113525390625</LongitudeDegrees>
            </Position>
            <AltitudeMeters>421.20001220703125</AltitudeMeters>
            <DistanceMeters>3125.6711523118</DistanceMeters>
          </Trackpoint>
          <Trackpoint>
            <Time>2022-02-12T09:37:28.000Z</Time>
            <Position>
              <LatitudeDegrees>40.671071223914623260498046875</LatitudeDegrees>
              <LongitudeDegrees>24.72744525410234928131103515625</LongitudeDegrees>
            </Position>
            <AltitudeMeters>422.20001220703125</AltitudeMeters>
            <DistanceMeters>3133.5176203831</DistanceMeters>
          </Trackpoint>
          <Trackpoint>
            <Time>2022-02-12T09:37:31.000Z</Time>
            <Position>
              <LatitudeDegrees>40.671099722385406494140625</LatitudeDegrees>
              <LongitudeDegrees>24.727500490844249725341796875</LongitudeDegrees>
            </Position>
            <AltitudeMeters>422.600006103515625</AltitudeMeters>
            <DistanceMeters>3139.1571176334</DistanceMeters>
          </Trackpoint>
          <Trackpoint>
            <Time>2022-02-12T09:37:37.000Z</Time>
            <Position>
              <LatitudeDegrees>40.67118010483682155609130859375</LatitudeDegrees>
              <LongitudeDegrees>24.7275828011333942413330078125</LongitudeDegrees>
            </Position>
            <AltitudeMeters>423.20001220703125</AltitudeMeters>
            <DistanceMeters>3150.4856412098</DistanceMeters>
          </Trackpoint>
          <Trackpoint>
            <Time>2022-02-12T09:37:38.000Z</Time>
            <Position>
              <LatitudeDegrees>40.6711868941783905029296875</LatitudeDegrees>
              <LongitudeDegrees>24.72759805619716644287109375</LongitudeDegrees>
            </Position>
            <AltitudeMeters>423.20001220703125</AltitudeMeters>
            <DistanceMeters>3151.9821234042</DistanceMeters>
          </Trackpoint>
          <Trackpoint>
            <Time>2022-02-12T09:37:42.000Z</Time>
            <Position>
              <LatitudeDegrees>40.67122268490493297576904296875</LatitudeDegrees>
              <LongitudeDegrees>24.72765035927295684814453125</LongitudeDegrees>
            </Position>
            <AltitudeMeters>424.399993896484375</AltitudeMeters>
            <DistanceMeters>3157.9302188563</DistanceMeters>
          </Trackpoint>
          <Trackpoint>
            <Time>2022-02-12T09:37:44.000Z</Time>
            <Position>
              <LatitudeDegrees>40.67123324610292911529541015625</LatitudeDegrees>
              <LongitudeDegrees>24.7276743315160274505615234375</LongitudeDegrees>
            </Position>
            <AltitudeMeters>424.79998779296875</AltitudeMeters>
            <DistanceMeters>3160.2694978745</DistanceMeters>
          </Trackpoint>
          <Trackpoint>
            <Time>2022-02-12T09:37:46.000Z</Time>
            <Position>
              <LatitudeDegrees>40.67124246619641780853271484375</LatitudeDegrees>
              <LongitudeDegrees>24.7276934422552585601806640625</LongitudeDegrees>
            </Position>
            <AltitudeMeters>425.399993896484375</AltitudeMeters>
            <DistanceMeters>3162.1818736116</DistanceMeters>
          </Trackpoint>
          <Trackpoint>
            <Time>2022-02-12T09:37:50.000Z</Time>
            <Position>
              <LatitudeDegrees>40.67127549089491367340087890625</LatitudeDegrees>
              <LongitudeDegrees>24.727732837200164794921875</LongitudeDegrees>
            </Position>
            <AltitudeMeters>426</AltitudeMeters>
            <DistanceMeters>3167.1387716339</DistanceMeters>
          </Trackpoint>
          <Trackpoint>
            <Time>2022-02-12T09:37:51.000Z</Time>
            <Position>
              <LatitudeDegrees>40.6712816096842288970947265625</LatitudeDegrees>
              <LongitudeDegrees>24.7277422249317169189453125</LongitudeDegrees>
            </Position>
            <AltitudeMeters>426</AltitudeMeters>
            <DistanceMeters>3168.1797371344</DistanceMeters>
          </Trackpoint>
          <Trackpoint>
            <Time>2022-02-12T09:37:53.000Z</Time>
            <Position>
              <LatitudeDegrees>40.6712936796247959136962890625</LatitudeDegrees>
              <LongitudeDegrees>24.7277668677270412445068359375</LongitudeDegrees>
            </Position>
            <AltitudeMeters>426.399993896484375</AltitudeMeters>
            <DistanceMeters>3170.6540838824</DistanceMeters>
          </Trackpoint>
          <Trackpoint>
            <Time>2022-02-12T09:37:54.000Z</Time>
            <Position>
              <LatitudeDegrees>40.6712995469570159912109375</LatitudeDegrees>
              <LongitudeDegrees>24.7277799434959888458251953125</LongitudeDegrees>
            </Position>
            <AltitudeMeters>426.600006103515625</AltitudeMeters>
            <DistanceMeters>3171.9360643474</DistanceMeters>
          </Trackpoint>
          <Trackpoint>
            <Time>2022-02-12T09:37:57.000Z</Time>
            <Position>
              <LatitudeDegrees>40.67132242955267429351806640625</LatitudeDegrees>
              <LongitudeDegrees>24.727810956537723541259765625</LongitudeDegrees>
            </Position>
            <AltitudeMeters>427.600006103515625</AltitudeMeters>
            <DistanceMeters>3175.5893441046</DistanceMeters>
          </Trackpoint>
          <Trackpoint>
            <Time>2022-02-12T09:37:58.000Z</Time>
            <Position>
              <LatitudeDegrees>40.67133215256035327911376953125</LatitudeDegrees>
              <LongitudeDegrees>24.72781925462186336517333984375</LongitudeDegrees>
            </Position>
            <AltitudeMeters>427.79998779296875</AltitudeMeters>
            <DistanceMeters>3176.8783491728</DistanceMeters>
          </Trackpoint>
          <Trackpoint>
            <Time>2022-02-12T09:38:00.000Z</Time>
            <Position>
              <LatitudeDegrees>40.6713577173650264739990234375</LatitudeDegrees>
              <LongitudeDegrees>24.72783953882753849029541015625</LongitudeDegrees>
            </Position>
            <AltitudeMeters>428.20001220703125</AltitudeMeters>
            <DistanceMeters>3180.1988496378</DistanceMeters>
          </Trackpoint>
          <Trackpoint>
            <Time>2022-02-12T09:38:04.000Z</Time>
            <Position>
              <LatitudeDegrees>40.671397782862186431884765625</LatitudeDegrees>
              <LongitudeDegrees>24.72789041697978973388671875</LongitudeDegrees>
            </Position>
            <AltitudeMeters>429</AltitudeMeters>
            <DistanceMeters>3186.390188306</DistanceMeters>
          </Trackpoint>
          <Trackpoint>
            <Time>2022-02-12T09:38:05.000Z</Time>
            <Position>
              <LatitudeDegrees>40.6714023090898990631103515625</LatitudeDegrees>
              <LongitudeDegrees>24.72790525294840335845947265625</LongitudeDegrees>
            </Position>
            <AltitudeMeters>429.20001220703125</AltitudeMeters>
            <DistanceMeters>3187.7407716768</DistanceMeters>
          </Trackpoint>
          <Trackpoint>
            <Time>2022-02-12T09:38:06.000Z</Time>
            <Position>
              <LatitudeDegrees>40.671410858631134033203125</LatitudeDegrees>
              <LongitudeDegrees>24.7279180772602558135986328125</LongitudeDegrees>
            </Position>
            <AltitudeMeters>429.399993896484375</AltitudeMeters>
            <DistanceMeters>3189.1819231547</DistanceMeters>
          </Trackpoint>
          <Trackpoint>
            <Time>2022-02-12T09:38:10.000Z</Time>
            <Position>
              <LatitudeDegrees>40.67144447006285190582275390625</LatitudeDegrees>
              <LongitudeDegrees>24.7279697097837924957275390625</LongitudeDegrees>
            </Position>
            <AltitudeMeters>430.20001220703125</AltitudeMeters>
            <DistanceMeters>3194.9261288723</DistanceMeters>
          </Trackpoint>
          <Trackpoint>
            <Time>2022-02-12T09:38:11.000Z</Time>
            <Position>
              <LatitudeDegrees>40.67145369015634059906005859375</LatitudeDegrees>
              <LongitudeDegrees>24.72798521630465984344482421875</LongitudeDegrees>
            </Position>
            <AltitudeMeters>430.399993896484375</AltitudeMeters>
            <DistanceMeters>3196.5911314153</DistanceMeters>
          </Trackpoint>
          <Trackpoint>
            <Time>2022-02-12T09:38:16.000Z</Time>
            <Position>
              <LatitudeDegrees>40.67148889414966106414794921875</LatitudeDegrees>
              <LongitudeDegrees>24.72805176861584186553955078125</LongitudeDegrees>
            </Position>
            <AltitudeMeters>431.20001220703125</AltitudeMeters>
            <DistanceMeters>3203.4409691654</DistanceMeters>
          </Trackpoint>
          <Trackpoint>
            <Time>2022-02-12T09:38:17.000Z</Time>
            <Position>
              <LatitudeDegrees>40.67149610258638858795166015625</LatitudeDegrees>
              <LongitudeDegrees>24.728066436946392059326171875</LongitudeDegrees>
            </Position>
            <AltitudeMeters>431.20001220703125</AltitudeMeters>
            <DistanceMeters>3204.9192379162</DistanceMeters>
          </Trackpoint>
          <Trackpoint>
            <Time>2022-02-12T09:38:18.000Z</Time>
            <Position>
              <LatitudeDegrees>40.671499706804752349853515625</LatitudeDegrees>
              <LongitudeDegrees>24.72808009944856166839599609375</LongitudeDegrees>
            </Position>
            <AltitudeMeters>431.399993896484375</AltitudeMeters>
            <DistanceMeters>3206.1361736322</DistanceMeters>
          </Trackpoint>
          <Trackpoint>
            <Time>2022-02-12T09:38:22.000Z</Time>
            <Position>
              <LatitudeDegrees>40.67151823081076145172119140625</LatitudeDegrees>
              <LongitudeDegrees>24.72814162261784076690673828125</LongitudeDegrees>
            </Position>
            <AltitudeMeters>432.20001220703125</AltitudeMeters>
            <DistanceMeters>3211.724196927</DistanceMeters>
          </Trackpoint>
          <Trackpoint>
            <Time>2022-02-12T09:38:25.000Z</Time>
            <Position>
              <LatitudeDegrees>40.67152694799005985260009765625</LatitudeDegrees>
              <LongitudeDegrees>24.728182442486286163330078125</LongitudeDegrees>
            </Position>
            <AltitudeMeters>432.600006103515625</AltitudeMeters>
            <DistanceMeters>3215.305077901</DistanceMeters>
          </Trackpoint>
          <Trackpoint>
            <Time>2022-02-12T09:38:29.000Z</Time>
            <Position>
              <LatitudeDegrees>40.67154807038605213165283203125</LatitudeDegrees>
              <LongitudeDegrees>24.7282384335994720458984375</LongitudeDegrees>
            </Position>
            <AltitudeMeters>433.20001220703125</AltitudeMeters>
            <DistanceMeters>3220.5848360378</DistanceMeters>
          </Trackpoint>
          <Trackpoint>
            <Time>2022-02-12T09:38:34.000Z</Time>
            <Position>
              <LatitudeDegrees>40.6715749762952327728271484375</LatitudeDegrees>
              <LongitudeDegrees>24.72831931896507740020751953125</LongitudeDegrees>
            </Position>
            <AltitudeMeters>434.399993896484375</AltitudeMeters>
            <DistanceMeters>3228.0406492455</DistanceMeters>
          </Trackpoint>
          <Trackpoint>
            <Time>2022-02-12T09:38:40.000Z</Time>
            <Position>
              <LatitudeDegrees>40.67162535153329372406005859375</LatitudeDegrees>
              <LongitudeDegrees>24.72845342941582202911376953125</LongitudeDegrees>
            </Position>
            <AltitudeMeters>435.399993896484375</AltitudeMeters>
            <DistanceMeters>3240.6738424709</DistanceMeters>
          </Trackpoint>
          <Trackpoint>
            <Time>2022-02-12T09:38:41.000Z</Time>
            <Position>
              <LatitudeDegrees>40.67163339816033840179443359375</LatitudeDegrees>
              <LongitudeDegrees>24.728480167686939239501953125</LongitudeDegrees>
            </Position>
            <AltitudeMeters>435.600006103515625</AltitudeMeters>
            <DistanceMeters>3243.100282217</DistanceMeters>
          </Trackpoint>
          <Trackpoint>
            <Time>2022-02-12T09:38:47.000Z</Time>
            <Position>
              <LatitudeDegrees>40.6716886349022388458251953125</LatitudeDegrees>
              <LongitudeDegrees>24.728646464645862579345703125</LongitudeDegrees>
            </Position>
            <AltitudeMeters>436</AltitudeMeters>
            <DistanceMeters>3258.4258258716</DistanceMeters>
          </Trackpoint>
          <Trackpoint>
            <Time>2022-02-12T09:38:48.000Z</Time>
            <Position>
              <LatitudeDegrees>40.6717047281563282012939453125</LatitudeDegrees>
              <LongitudeDegrees>24.7286734543740749359130859375</LongitudeDegrees>
            </Position>
            <AltitudeMeters>436</AltitudeMeters>
            <DistanceMeters>3261.3237511799</DistanceMeters>
          </Trackpoint>
          <Trackpoint>
            <Time>2022-02-12T09:38:53.000Z</Time>
            <Position>
              <LatitudeDegrees>40.671737082302570343017578125</LatitudeDegrees>
              <LongitudeDegrees>24.72876003943383693695068359375</LongitudeDegrees>
            </Position>
            <AltitudeMeters>436</AltitudeMeters>
            <DistanceMeters>3269.4728113815</DistanceMeters>
          </Trackpoint>
          <Trackpoint>
            <Time>2022-02-12T09:38:56.000Z</Time>
            <Position>
              <LatitudeDegrees>40.67175661213696002960205078125</LatitudeDegrees>
              <LongitudeDegrees>24.72878468222916126251220703125</LongitudeDegrees>
            </Position>
            <AltitudeMeters>436.20001220703125</AltitudeMeters>
            <DistanceMeters>3272.4808234488</DistanceMeters>
          </Trackpoint>
          <Trackpoint>
            <Time>2022-02-12T09:42:34.000Z</Time>
            <Position>
              <LatitudeDegrees>40.67171352915465831756591796875</LatitudeDegrees>
              <LongitudeDegrees>24.72873439081013202667236328125</LongitudeDegrees>
            </Position>
            <AltitudeMeters>436.79998779296875</AltitudeMeters>
            <DistanceMeters>3278.885088216</DistanceMeters>
          </Trackpoint>
          <Trackpoint>
            <Time>2022-02-12T09:42:35.000Z</Time>
            <Position>
              <LatitudeDegrees>40.67171704955399036407470703125</LatitudeDegrees>
              <LongitudeDegrees>24.72874009050428867340087890625</LongitudeDegrees>
            </Position>
            <AltitudeMeters>436.79998779296875</AltitudeMeters>
            <DistanceMeters>3279.5009317112</DistanceMeters>
          </Trackpoint>
          <Trackpoint>
            <Time>2022-02-12T09:42:36.000Z</Time>
            <Position>
              <LatitudeDegrees>40.671720989048480987548828125</LatitudeDegrees>
              <LongitudeDegrees>24.72874931059777736663818359375</LongitudeDegrees>
            </Position>
            <AltitudeMeters>436.600006103515625</AltitudeMeters>
            <DistanceMeters>3280.3923613086</DistanceMeters>
          </Trackpoint>
          <Trackpoint>
            <Time>2022-02-12T09:42:37.000Z</Time>
            <Position>
              <LatitudeDegrees>40.67172425799071788787841796875</LatitudeDegrees>
              <LongitudeDegrees>24.72875542938709259033203125</LongitudeDegrees>
            </Position>
            <AltitudeMeters>436.600006103515625</AltitudeMeters>
            <DistanceMeters>3281.0226972219</DistanceMeters>
          </Trackpoint>
          <Trackpoint>
            <Time>2022-02-12T09:42:39.000Z</Time>
            <Position>
              <LatitudeDegrees>40.67174144089221954345703125</LatitudeDegrees>
              <LongitudeDegrees>24.7287721931934356689453125</LongitudeDegrees>
            </Position>
            <AltitudeMeters>436</AltitudeMeters>
            <DistanceMeters>3283.4021631137</DistanceMeters>
          </Trackpoint>
          <Trackpoint>
            <Time>2022-02-12T09:42:42.000Z</Time>
            <Position>
              <LatitudeDegrees>40.671797096729278564453125</LatitudeDegrees>
              <LongitudeDegrees>24.728812761604785919189453125</LongitudeDegrees>
            </Position>
            <AltitudeMeters>436</AltitudeMeters>
            <DistanceMeters>3290.4808560854</DistanceMeters>
          </Trackpoint>
          <Trackpoint>
            <Time>2022-02-12T09:42:44.000Z</Time>
            <Position>
              <LatitudeDegrees>40.6718493998050689697265625</LatitudeDegrees>
              <LongitudeDegrees>24.7288394160568714141845703125</LongitudeDegrees>
            </Position>
            <AltitudeMeters>436.600006103515625</AltitudeMeters>
            <DistanceMeters>3296.7223102252</DistanceMeters>
          </Trackpoint>
          <Trackpoint>
            <Time>2022-02-12T09:42:45.000Z</Time>
            <Position>
              <LatitudeDegrees>40.6718703545629978179931640625</LatitudeDegrees>
              <LongitudeDegrees>24.7288558445870876312255859375</LongitudeDegrees>
            </Position>
            <AltitudeMeters>436.399993896484375</AltitudeMeters>
            <DistanceMeters>3299.4334875018</DistanceMeters>
          </Trackpoint>
          <Trackpoint>
            <Time>2022-02-12T09:42:47.000Z</Time>
            <Position>
              <LatitudeDegrees>40.67191435955464839935302734375</LatitudeDegrees>
              <LongitudeDegrees>24.72889062948524951934814453125</LongitudeDegrees>
            </Position>
            <AltitudeMeters>436.79998779296875</AltitudeMeters>
            <DistanceMeters>3305.1430037653</DistanceMeters>
          </Trackpoint>
          <Trackpoint>
            <Time>2022-02-12T09:42:49.000Z</Time>
            <Position>
              <LatitudeDegrees>40.67195811308920383453369140625</LatitudeDegrees>
              <LongitudeDegrees>24.7289275936782360076904296875</LongitudeDegrees>
            </Position>
            <AltitudeMeters>437.399993896484375</AltitudeMeters>
            <DistanceMeters>3310.9263767559</DistanceMeters>
          </Trackpoint>
          <Trackpoint>
            <Time>2022-02-12T09:42:51.000Z</Time>
            <Position>
              <LatitudeDegrees>40.6719937361776828765869140625</LatitudeDegrees>
              <LongitudeDegrees>24.72896732389926910400390625</LongitudeDegrees>
            </Position>
            <AltitudeMeters>438</AltitudeMeters>
            <DistanceMeters>3316.1190454591</DistanceMeters>
          </Trackpoint>
          <Trackpoint>
            <Time>2022-02-12T09:42:54.000Z</Time>
            <Position>
              <LatitudeDegrees>40.67204679362475872039794921875</LatitudeDegrees>
              <LongitudeDegrees>24.7290154360234737396240234375</LongitudeDegrees>
            </Position>
            <AltitudeMeters>439</AltitudeMeters>
            <DistanceMeters>3323.285849127</DistanceMeters>
          </Trackpoint>
          <Trackpoint>
            <Time>2022-02-12T09:42:55.000Z</Time>
            <Position>
              <LatitudeDegrees>40.6720651499927043914794921875</LatitudeDegrees>
              <LongitudeDegrees>24.72903027199208736419677734375</LongitudeDegrees>
            </Position>
            <AltitudeMeters>439.20001220703125</AltitudeMeters>
            <DistanceMeters>3325.6823316782</DistanceMeters>
          </Trackpoint>
          <Trackpoint>
            <Time>2022-02-12T09:42:58.000Z</Time>
            <Position>
              <LatitudeDegrees>40.67210881970822811126708984375</LatitudeDegrees>
              <LongitudeDegrees>24.729081653058528900146484375</LongitudeDegrees>
            </Position>
            <AltitudeMeters>440.399993896484375</AltitudeMeters>
            <DistanceMeters>3332.1970349935</DistanceMeters>
          </Trackpoint>
          <Trackpoint>
            <Time>2022-02-12T09:43:01.000Z</Time>
            <Position>
              <LatitudeDegrees>40.67214402370154857635498046875</LatitudeDegrees>
              <LongitudeDegrees>24.72913303412497043609619140625</LongitudeDegrees>
            </Position>
            <AltitudeMeters>441</AltitudeMeters>
            <DistanceMeters>3338.042529777</DistanceMeters>
          </Trackpoint>
          <Trackpoint>
            <Time>2022-02-12T09:43:04.000Z</Time>
            <Position>
              <LatitudeDegrees>40.672182328999042510986328125</LatitudeDegrees>
              <LongitudeDegrees>24.72918801940977573394775390625</LongitudeDegrees>
            </Position>
            <AltitudeMeters>441.600006103515625</AltitudeMeters>
            <DistanceMeters>3344.3458889095</DistanceMeters>
          </Trackpoint>
          <Trackpoint>
            <Time>2022-02-12T09:43:06.000Z</Time>
            <Position>
              <LatitudeDegrees>40.6722088158130645751953125</LatitudeDegrees>
              <LongitudeDegrees>24.72922540269792079925537109375</LongitudeDegrees>
            </Position>
            <AltitudeMeters>442.20001220703125</AltitudeMeters>
            <DistanceMeters>3348.6641186228</DistanceMeters>
          </Trackpoint>
          <Trackpoint>
            <Time>2022-02-12T09:43:07.000Z</Time>
            <Position>
              <LatitudeDegrees>40.67222113721072673797607421875</LatitudeDegrees>
              <LongitudeDegrees>24.72924300469458103179931640625</LongitudeDegrees>
            </Position>
            <AltitudeMeters>442.600006103515625</AltitudeMeters>
            <DistanceMeters>3350.6844142825</DistanceMeters>
          </Trackpoint>
          <Trackpoint>
            <Time>2022-02-12T09:43:09.000Z</Time>
            <Position>
              <LatitudeDegrees>40.6722490489482879638671875</LatitudeDegrees>
              <LongitudeDegrees>24.7292776219546794891357421875</LongitudeDegrees>
            </Position>
            <AltitudeMeters>443</AltitudeMeters>
            <DistanceMeters>3354.9500448379</DistanceMeters>
          </Trackpoint>
          <Trackpoint>
            <Time>2022-02-12T09:43:12.000Z</Time>
            <Position>
              <LatitudeDegrees>40.6722830794751644134521484375</LatitudeDegrees>
              <LongitudeDegrees>24.72933520562946796417236328125</LongitudeDegrees>
            </Position>
            <AltitudeMeters>443.600006103515625</AltitudeMeters>
            <DistanceMeters>3361.1128771026</DistanceMeters>
          </Trackpoint>
          <Trackpoint>
            <Time>2022-02-12T09:43:16.000Z</Time>
            <Position>
              <LatitudeDegrees>40.6723166070878505706787109375</LatitudeDegrees>
              <LongitudeDegrees>24.7294056974351406097412109375</LongitudeDegrees>
            </Position>
            <AltitudeMeters>444.399993896484375</AltitudeMeters>
            <DistanceMeters>3368.1365020651</DistanceMeters>
          </Trackpoint>
          <Trackpoint>
            <Time>2022-02-12T09:43:18.000Z</Time>
            <Position>
              <LatitudeDegrees>40.67232876084744930267333984375</LatitudeDegrees>
              <LongitudeDegrees>24.72943536937236785888671875</LongitudeDegrees>
            </Position>
            <AltitudeMeters>444.79998779296875</AltitudeMeters>
            <DistanceMeters>3370.9825481944</DistanceMeters>
          </Trackpoint>
          <Trackpoint>
            <Time>2022-02-12T09:43:23.000Z</Time>
            <Position>
              <LatitudeDegrees>40.672356002032756805419921875</LatitudeDegrees>
              <LongitudeDegrees>24.72949597053229808807373046875</LongitudeDegrees>
            </Position>
            <AltitudeMeters>445.79998779296875</AltitudeMeters>
            <DistanceMeters>3376.9291253068</DistanceMeters>
          </Trackpoint>
          <Trackpoint>
            <Time>2022-02-12T09:43:28.000Z</Time>
            <Position>
              <LatitudeDegrees>40.672385506331920623779296875</LatitudeDegrees>
              <LongitudeDegrees>24.72956679761409759521484375</LongitudeDegrees>
            </Position>
            <AltitudeMeters>446.79998779296875</AltitudeMeters>
            <DistanceMeters>3383.7512227843</DistanceMeters>
          </Trackpoint>
          <Trackpoint>
            <Time>2022-02-12T09:43:29.000Z</Time>
            <Position>
              <LatitudeDegrees>40.6723938882350921630859375</LatitudeDegrees>
              <LongitudeDegrees>24.7295827232301235198974609375</LongitudeDegrees>
            </Position>
            <AltitudeMeters>447</AltitudeMeters>
            <DistanceMeters>3385.3861241965</DistanceMeters>
          </Trackpoint>
          <Trackpoint>
            <Time>2022-02-12T09:43:31.000Z</Time>
            <Position>
              <LatitudeDegrees>40.6724051199853420257568359375</LatitudeDegrees>
              <LongitudeDegrees>24.7296197712421417236328125</LongitudeDegrees>
            </Position>
            <AltitudeMeters>447.600006103515625</AltitudeMeters>
            <DistanceMeters>3388.753879534</DistanceMeters>
          </Trackpoint>
          <Trackpoint>
            <Time>2022-02-12T09:43:34.000Z</Time>
            <Position>
              <LatitudeDegrees>40.672417692840099334716796875</LatitudeDegrees>
              <LongitudeDegrees>24.72967014648020267486572265625</LongitudeDegrees>
            </Position>
            <AltitudeMeters>448.20001220703125</AltitudeMeters>
            <DistanceMeters>3393.2302329192</DistanceMeters>
          </Trackpoint>
          <Trackpoint>
            <Time>2022-02-12T09:43:37.000Z</Time>
            <Position>
              <LatitudeDegrees>40.6724463589489459991455078125</LatitudeDegrees>
              <LongitudeDegrees>24.729698561131954193115234375</LongitudeDegrees>
            </Position>
            <AltitudeMeters>448.399993896484375</AltitudeMeters>
            <DistanceMeters>3397.2213549227</DistanceMeters>
          </Trackpoint>
          <Trackpoint>
            <Time>2022-02-12T09:43:39.000Z</Time>
            <Position>
              <LatitudeDegrees>40.67246505059301853179931640625</LatitudeDegrees>
              <LongitudeDegrees>24.72972781397402286529541015625</LongitudeDegrees>
            </Position>
            <AltitudeMeters>448.399993896484375</AltitudeMeters>
            <DistanceMeters>3400.449467098</DistanceMeters>
          </Trackpoint>
          <Trackpoint>
            <Time>2022-02-12T09:43:44.000Z</Time>
            <Position>
              <LatitudeDegrees>40.67251416854560375213623046875</LatitudeDegrees>
              <LongitudeDegrees>24.72979201935231685638427734375</LongitudeDegrees>
            </Position>
            <AltitudeMeters>449.20001220703125</AltitudeMeters>
            <DistanceMeters>3408.1472175243</DistanceMeters>
          </Trackpoint>
          <Trackpoint>
            <Time>2022-02-12T09:43:46.000Z</Time>
            <Position>
              <LatitudeDegrees>40.672535039484500885009765625</LatitudeDegrees>
              <LongitudeDegrees>24.729812555015087127685546875</LongitudeDegrees>
            </Position>
            <AltitudeMeters>450</AltitudeMeters>
            <DistanceMeters>3411.0467004384</DistanceMeters>
          </Trackpoint>
          <Trackpoint>
            <Time>2022-02-12T09:43:47.000Z</Time>
            <Position>
              <LatitudeDegrees>40.67254283465445041656494140625</LatitudeDegrees>
              <LongitudeDegrees>24.72982219420373439788818359375</LongitudeDegrees>
            </Position>
            <AltitudeMeters>450.600006103515625</AltitudeMeters>
            <DistanceMeters>3412.2335837205</DistanceMeters>
          </Trackpoint>
          <Trackpoint>
            <Time>2022-02-12T09:43:48.000Z</Time>
            <Position>
              <LatitudeDegrees>40.6725523062050342559814453125</LatitudeDegrees>
              <LongitudeDegrees>24.729831330478191375732421875</LongitudeDegrees>
            </Position>
            <AltitudeMeters>451</AltitudeMeters>
            <DistanceMeters>3413.5399850554</DistanceMeters>
          </Trackpoint>
          <Trackpoint>
            <Time>2022-02-12T09:43:49.000Z</Time>
            <Position>
              <LatitudeDegrees>40.672557838261127471923828125</LatitudeDegrees>
              <LongitudeDegrees>24.7298378683626651763916015625</LongitudeDegrees>
            </Position>
            <AltitudeMeters>451.20001220703125</AltitudeMeters>
            <DistanceMeters>3414.3684087452</DistanceMeters>
          </Trackpoint>
          <Trackpoint>
            <Time>2022-02-12T09:43:52.000Z</Time>
            <Position>
              <LatitudeDegrees>40.67257116548717021942138671875</LatitudeDegrees>
              <LongitudeDegrees>24.72987466491758823394775390625</LongitudeDegrees>
            </Position>
            <AltitudeMeters>451.399993896484375</AltitudeMeters>
            <DistanceMeters>3417.8091107401</DistanceMeters>
          </Trackpoint>
          <Trackpoint>
            <Time>2022-02-12T09:43:55.000Z</Time>
            <Position>
              <LatitudeDegrees>40.67258231341838836669921875</LatitudeDegrees>
              <LongitudeDegrees>24.72991489805281162261962890625</LongitudeDegrees>
            </Position>
            <AltitudeMeters>451.79998779296875</AltitudeMeters>
            <DistanceMeters>3421.4251238334</DistanceMeters>
          </Trackpoint>
          <Trackpoint>
            <Time>2022-02-12T09:43:56.000Z</Time>
            <Position>
              <LatitudeDegrees>40.67258767783641815185546875</LatitudeDegrees>
              <LongitudeDegrees>24.7299250401556491851806640625</LongitudeDegrees>
            </Position>
            <AltitudeMeters>452</AltitudeMeters>
            <DistanceMeters>3422.466089334</DistanceMeters>
          </Trackpoint>
          <Trackpoint>
            <Time>2022-02-12T09:43:59.000Z</Time>
            <Position>
              <LatitudeDegrees>40.67259111441671848297119140625</LatitudeDegrees>
              <LongitudeDegrees>24.72995295189321041107177734375</LongitudeDegrees>
            </Position>
            <AltitudeMeters>452.20001220703125</AltitudeMeters>
            <DistanceMeters>3424.8531331618</DistanceMeters>
          </Trackpoint>
          <Trackpoint>
            <Time>2022-02-12T09:44:00.000Z</Time>
            <Position>
              <LatitudeDegrees>40.67259698174893856048583984375</LatitudeDegrees>
              <LongitudeDegrees>24.72996703349053859710693359375</LongitudeDegrees>
            </Position>
            <AltitudeMeters>452.399993896484375</AltitudeMeters>
            <DistanceMeters>3426.2070554336</DistanceMeters>
          </Trackpoint>
          <Trackpoint>
            <Time>2022-02-12T09:44:02.000Z</Time>
            <Position>
              <LatitudeDegrees>40.67260670475661754608154296875</LatitudeDegrees>
              <LongitudeDegrees>24.7300034947693347930908203125</LongitudeDegrees>
            </Position>
            <AltitudeMeters>452.79998779296875</AltitudeMeters>
            <DistanceMeters>3429.4685627617</DistanceMeters>
          </Trackpoint>
          <Trackpoint>
            <Time>2022-02-12T09:44:07.000Z</Time>
            <Position>
              <LatitudeDegrees>40.67258692346513271331787109375</LatitudeDegrees>
              <LongitudeDegrees>24.73009225912392139434814453125</LongitudeDegrees>
            </Position>
            <AltitudeMeters>454</AltitudeMeters>
            <DistanceMeters>3437.2781169297</DistanceMeters>
          </Trackpoint>
          <Trackpoint>
            <Time>2022-02-12T09:44:13.000Z</Time>
            <Position>
              <LatitudeDegrees>40.6725419126451015472412109375</LatitudeDegrees>
              <LongitudeDegrees>24.73013081587851047515869140625</LongitudeDegrees>
            </Position>
            <AltitudeMeters>455</AltitudeMeters>
            <DistanceMeters>3443.2519651121</DistanceMeters>
          </Trackpoint>
          <Trackpoint>
            <Time>2022-02-12T09:44:14.000Z</Time>
            <Position>
              <LatitudeDegrees>40.6725362129509449005126953125</LatitudeDegrees>
              <LongitudeDegrees>24.73012561909854412078857421875</LongitudeDegrees>
            </Position>
            <AltitudeMeters>455.20001220703125</AltitudeMeters>
            <DistanceMeters>3444.0239657891</DistanceMeters>
          </Trackpoint>
          <Trackpoint>
            <Time>2022-02-12T09:44:20.000Z</Time>
            <Position>
              <LatitudeDegrees>40.6724406592547893524169921875</LatitudeDegrees>
              <LongitudeDegrees>24.7300799377262592315673828125</LongitudeDegrees>
            </Position>
            <AltitudeMeters>456</AltitudeMeters>
            <DistanceMeters>3455.3373341432</DistanceMeters>
          </Trackpoint>
          <Trackpoint>
            <Time>2022-02-12T09:44:21.000Z</Time>
            <Position>
              <LatitudeDegrees>40.67242314107716083526611328125</LatitudeDegrees>
              <LongitudeDegrees>24.73006962798535823822021484375</LongitudeDegrees>
            </Position>
            <AltitudeMeters>456.20001220703125</AltitudeMeters>
            <DistanceMeters>3457.4749072252</DistanceMeters>
          </Trackpoint>
          <Trackpoint>
            <Time>2022-02-12T09:44:24.000Z</Time>
            <Position>
              <LatitudeDegrees>40.6723839975893497467041015625</LatitudeDegrees>
              <LongitudeDegrees>24.73004263825714588165283203125</LongitudeDegrees>
            </Position>
            <AltitudeMeters>457.399993896484375</AltitudeMeters>
            <DistanceMeters>3462.3906456808</DistanceMeters>
          </Trackpoint>
          <Trackpoint>
            <Time>2022-02-12T09:44:30.000Z</Time>
            <Position>
              <LatitudeDegrees>40.6723249889910221099853515625</LatitudeDegrees>
              <LongitudeDegrees>24.72998748533427715301513671875</LongitudeDegrees>
            </Position>
            <AltitudeMeters>458.20001220703125</AltitudeMeters>
            <DistanceMeters>3470.4416014448</DistanceMeters>
          </Trackpoint>
          <Trackpoint>
            <Time>2022-02-12T09:44:32.000Z</Time>
            <Position>
              <LatitudeDegrees>40.6723095662891864776611328125</LatitudeDegrees>
              <LongitudeDegrees>24.72996200434863567352294921875</LongitudeDegrees>
            </Position>
            <AltitudeMeters>458.399993896484375</AltitudeMeters>
            <DistanceMeters>3473.1940974278</DistanceMeters>
          </Trackpoint>
          <Trackpoint>
            <Time>2022-02-12T09:44:38.000Z</Time>
            <Position>
              <LatitudeDegrees>40.6722351349890232086181640625</LatitudeDegrees>
              <LongitudeDegrees>24.7299072705209255218505859375</LongitudeDegrees>
            </Position>
            <AltitudeMeters>459.20001220703125</AltitudeMeters>
            <DistanceMeters>3482.6796486342</DistanceMeters>
          </Trackpoint>
          <Trackpoint>
            <Time>2022-02-12T09:44:40.000Z</Time>
            <Position>
              <LatitudeDegrees>40.67219783551990985870361328125</LatitudeDegrees>
              <LongitudeDegrees>24.72988991998136043548583984375</LongitudeDegrees>
            </Position>
            <AltitudeMeters>459.399993896484375</AltitudeMeters>
            <DistanceMeters>3487.081755408</DistanceMeters>
          </Trackpoint>
          <Trackpoint>
            <Time>2022-02-12T09:44:46.000Z</Time>
            <Position>
              <LatitudeDegrees>40.67209490574896335601806640625</LatitudeDegrees>
              <LongitudeDegrees>24.72981448285281658172607421875</LongitudeDegrees>
            </Position>
            <AltitudeMeters>460.600006103515625</AltitudeMeters>
            <DistanceMeters>3500.1888986645</DistanceMeters>
          </Trackpoint>
          <Trackpoint>
            <Time>2022-02-12T09:44:52.000Z</Time>
            <Position>
              <LatitudeDegrees>40.67197839729487895965576171875</LatitudeDegrees>
              <LongitudeDegrees>24.72974382340908050537109375</LongitudeDegrees>
            </Position>
            <AltitudeMeters>461.600006103515625</AltitudeMeters>
            <DistanceMeters>3514.462531164</DistanceMeters>
          </Trackpoint>
          <Trackpoint>
            <Time>2022-02-12T09:44:54.000Z</Time>
            <Position>
              <LatitudeDegrees>40.67193883471190929412841796875</LatitudeDegrees>
              <LongitudeDegrees>24.72972580231726169586181640625</LongitudeDegrees>
            </Position>
            <AltitudeMeters>462</AltitudeMeters>
            <DistanceMeters>3519.121748241</DistanceMeters>
          </Trackpoint>
          <Trackpoint>
            <Time>2022-02-12T09:45:00.000Z</Time>
            <Position>
              <LatitudeDegrees>40.67183925770223140716552734375</LatitudeDegrees>
              <LongitudeDegrees>24.72968079149723052978515625</LongitudeDegrees>
            </Position>
            <AltitudeMeters>462</AltitudeMeters>
            <DistanceMeters>3530.8378137933</DistanceMeters>
          </Trackpoint>
          <Trackpoint>
            <Time>2022-02-12T09:45:01.000Z</Time>
            <Position>
              <LatitudeDegrees>40.67181947641074657440185546875</LatitudeDegrees>
              <LongitudeDegrees>24.7296695597469806671142578125</LongitudeDegrees>
            </Position>
            <AltitudeMeters>462</AltitudeMeters>
            <DistanceMeters>3533.2361796317</DistanceMeters>
          </Trackpoint>
          <Trackpoint>
            <Time>2022-02-12T09:45:07.000Z</Time>
            <Position>
              <LatitudeDegrees>40.6716911494731903076171875</LatitudeDegrees>
              <LongitudeDegrees>24.729658327996730804443359375</LongitudeDegrees>
            </Position>
            <AltitudeMeters>462</AltitudeMeters>
            <DistanceMeters>3547.5508746919</DistanceMeters>
          </Trackpoint>
          <Trackpoint>
            <Time>2022-02-12T09:45:12.000Z</Time>
            <Position>
              <LatitudeDegrees>40.67155745811760425567626953125</LatitudeDegrees>
              <LongitudeDegrees>24.7296521253883838653564453125</LongitudeDegrees>
            </Position>
            <AltitudeMeters>462.79998779296875</AltitudeMeters>
            <DistanceMeters>3562.440078052</DistanceMeters>
          </Trackpoint>
          <Trackpoint>
            <Time>2022-02-12T09:45:13.000Z</Time>
            <Position>
              <LatitudeDegrees>40.67152686417102813720703125</LatitudeDegrees>
              <LongitudeDegrees>24.7296444140374660491943359375</LongitudeDegrees>
            </Position>
            <AltitudeMeters>463</AltitudeMeters>
            <DistanceMeters>3565.9056229832</DistanceMeters>
          </Trackpoint>
          <Trackpoint>
            <Time>2022-02-12T09:45:19.000Z</Time>
            <Position>
              <LatitudeDegrees>40.671376325190067291259765625</LatitudeDegrees>
              <LongitudeDegrees>24.72960644401609897613525390625</LongitudeDegrees>
            </Position>
            <AltitudeMeters>463.600006103515625</AltitudeMeters>
            <DistanceMeters>3582.9644401604</DistanceMeters>
          </Trackpoint>
          <Trackpoint>
            <Time>2022-02-12T09:45:21.000Z</Time>
            <Position>
              <LatitudeDegrees>40.6713402830064296722412109375</LatitudeDegrees>
              <LongitudeDegrees>24.7295897640287876129150390625</LongitudeDegrees>
            </Position>
            <AltitudeMeters>463.79998779296875</AltitudeMeters>
            <DistanceMeters>3587.2162883516</DistanceMeters>
          </Trackpoint>
          <Trackpoint>
            <Time>2022-02-12T09:45:25.000Z</Time>
            <Position>
              <LatitudeDegrees>40.6712849624454975128173828125</LatitudeDegrees>
              <LongitudeDegrees>24.72953167743980884552001953125</LongitudeDegrees>
            </Position>
            <AltitudeMeters>464.20001220703125</AltitudeMeters>
            <DistanceMeters>3595.0874607218</DistanceMeters>
          </Trackpoint>
          <Trackpoint>
            <Time>2022-02-12T09:45:31.000Z</Time>
            <Position>
              <LatitudeDegrees>40.6712249480187892913818359375</LatitudeDegrees>
              <LongitudeDegrees>24.72946344874799251556396484375</LongitudeDegrees>
            </Position>
            <AltitudeMeters>464.600006103515625</AltitudeMeters>
            <DistanceMeters>3603.9080694673</DistanceMeters>
          </Trackpoint>
          <Trackpoint>
            <Time>2022-02-12T09:45:32.000Z</Time>
            <Position>
              <LatitudeDegrees>40.67122452892363071441650390625</LatitudeDegrees>
              <LongitudeDegrees>24.7294563241302967071533203125</LongitudeDegrees>
            </Position>
            <AltitudeMeters>464.600006103515625</AltitudeMeters>
            <DistanceMeters>3604.5090711792</DistanceMeters>
          </Trackpoint>
          <Trackpoint>
            <Time>2022-02-12T09:45:33.000Z</Time>
            <Position>
              <LatitudeDegrees>40.67122285254299640655517578125</LatitudeDegrees>
              <LongitudeDegrees>24.72945414483547210693359375</LongitudeDegrees>
            </Position>
            <AltitudeMeters>464.79998779296875</AltitudeMeters>
            <DistanceMeters>3604.7778473157</DistanceMeters>
          </Trackpoint>
          <Trackpoint>
            <Time>2022-02-12T09:49:12.000Z</Time>
            <Position>
              <LatitudeDegrees>40.6712299771606922149658203125</LatitudeDegrees>
              <LongitudeDegrees>24.72949982620775699615478515625</LongitudeDegrees>
            </Position>
            <AltitudeMeters>464.20001220703125</AltitudeMeters>
            <DistanceMeters>3608.7165871308</DistanceMeters>
          </Trackpoint>
          <Trackpoint>
            <Time>2022-02-12T09:49:13.000Z</Time>
            <Position>
              <LatitudeDegrees>40.6712232716381549835205078125</LatitudeDegrees>
              <LongitudeDegrees>24.72949362359941005706787109375</LongitudeDegrees>
            </Position>
            <AltitudeMeters>464.20001220703125</AltitudeMeters>
            <DistanceMeters>3609.6280513555</DistanceMeters>
          </Trackpoint>
          <Trackpoint>
            <Time>2022-02-12T09:49:16.000Z</Time>
            <Position>
              <LatitudeDegrees>40.671185888350009918212890625</LatitudeDegrees>
              <LongitudeDegrees>24.7294432483613491058349609375</LongitudeDegrees>
            </Position>
            <AltitudeMeters>464.79998779296875</AltitudeMeters>
            <DistanceMeters>3615.5769058321</DistanceMeters>
          </Trackpoint>
          <Trackpoint>
            <Time>2022-02-12T09:49:17.000Z</Time>
            <Position>
              <LatitudeDegrees>40.67117658443748950958251953125</LatitudeDegrees>
              <LongitudeDegrees>24.72942740656435489654541015625</LongitudeDegrees>
            </Position>
            <AltitudeMeters>465</AltitudeMeters>
            <DistanceMeters>3617.2661376564</DistanceMeters>
          </Trackpoint>
          <Trackpoint>
            <Time>2022-02-12T09:49:21.000Z</Time>
            <Position>
              <LatitudeDegrees>40.67113299854099750518798828125</LatitudeDegrees>
              <LongitudeDegrees>24.7293728403747081756591796875</LongitudeDegrees>
            </Position>
            <AltitudeMeters>465.399993896484375</AltitudeMeters>
            <DistanceMeters>3623.9559103623</DistanceMeters>
          </Trackpoint>
          <Trackpoint>
            <Time>2022-02-12T09:49:23.000Z</Time>
            <Position>
              <LatitudeDegrees>40.67110483534634113311767578125</LatitudeDegrees>
              <LongitudeDegrees>24.72934828139841556549072265625</LongitudeDegrees>
            </Position>
            <AltitudeMeters>466.20001220703125</AltitudeMeters>
            <DistanceMeters>3627.7139736345</DistanceMeters>
          </Trackpoint>
          <Trackpoint>
            <Time>2022-02-12T09:49:25.000Z</Time>
            <Position>
              <LatitudeDegrees>40.671077929437160491943359375</LatitudeDegrees>
              <LongitudeDegrees>24.7293319366872310638427734375</LongitudeDegrees>
            </Position>
            <AltitudeMeters>466.79998779296875</AltitudeMeters>
            <DistanceMeters>3631.0112773874</DistanceMeters>
          </Trackpoint>
          <Trackpoint>
            <Time>2022-02-12T09:49:26.000Z</Time>
            <Position>
              <LatitudeDegrees>40.671059824526309967041015625</LatitudeDegrees>
              <LongitudeDegrees>24.7293252311646938323974609375</LongitudeDegrees>
            </Position>
            <AltitudeMeters>467.20001220703125</AltitudeMeters>
            <DistanceMeters>3633.1061800466</DistanceMeters>
          </Trackpoint>
          <Trackpoint>
            <Time>2022-02-12T09:49:30.000Z</Time>
            <Position>
              <LatitudeDegrees>40.67098245956003665924072265625</LatitudeDegrees>
              <LongitudeDegrees>24.72930955700576305389404296875</LongitudeDegrees>
            </Position>
            <AltitudeMeters>468</AltitudeMeters>
            <DistanceMeters>3641.8186322036</DistanceMeters>
          </Trackpoint>
          <Trackpoint>
            <Time>2022-02-12T09:49:31.000Z</Time>
            <Position>
              <LatitudeDegrees>40.67096636630594730377197265625</LatitudeDegrees>
              <LongitudeDegrees>24.7293071262538433074951171875</LongitudeDegrees>
            </Position>
            <AltitudeMeters>468.20001220703125</AltitudeMeters>
            <DistanceMeters>3643.6216373394</DistanceMeters>
          </Trackpoint>
          <Trackpoint>
            <Time>2022-02-12T09:49:32.000Z</Time>
            <Position>
              <LatitudeDegrees>40.67095614038407802581787109375</LatitudeDegrees>
              <LongitudeDegrees>24.7293101437389850616455078125</LongitudeDegrees>
            </Position>
            <AltitudeMeters>468.399993896484375</AltitudeMeters>
            <DistanceMeters>3644.7854721501</DistanceMeters>
          </Trackpoint>
          <Trackpoint>
            <Time>2022-02-12T09:49:34.000Z</Time>
            <Position>
              <LatitudeDegrees>40.67094348371028900146484375</LatitudeDegrees>
              <LongitudeDegrees>24.72932447679340839385986328125</LongitudeDegrees>
            </Position>
            <AltitudeMeters>469.399993896484375</AltitudeMeters>
            <DistanceMeters>3646.6427522048</DistanceMeters>
          </Trackpoint>
          <Trackpoint>
            <Time>2022-02-12T09:49:35.000Z</Time>
            <Position>
              <LatitudeDegrees>40.670933760702610015869140625</LatitudeDegrees>
              <LongitudeDegrees>24.72933168523013591766357421875</LongitudeDegrees>
            </Position>
            <AltitudeMeters>469.79998779296875</AltitudeMeters>
            <DistanceMeters>3647.8817489746</DistanceMeters>
          </Trackpoint>
          <Trackpoint>
            <Time>2022-02-12T09:49:36.000Z</Time>
            <Position>
              <LatitudeDegrees>40.6709240376949310302734375</LatitudeDegrees>
              <LongitudeDegrees>24.72934040240943431854248046875</LongitudeDegrees>
            </Position>
            <AltitudeMeters>470.20001220703125</AltitudeMeters>
            <DistanceMeters>3649.1916018382</DistanceMeters>
          </Trackpoint>
          <Trackpoint>
            <Time>2022-02-12T09:49:37.000Z</Time>
            <Position>
              <LatitudeDegrees>40.67091238684952259063720703125</LatitudeDegrees>
              <LongitudeDegrees>24.72934761084616184234619140625</LongitudeDegrees>
            </Position>
            <AltitudeMeters>470.399993896484375</AltitudeMeters>
            <DistanceMeters>3650.6264737591</DistanceMeters>
          </Trackpoint>
          <Trackpoint>
            <Time>2022-02-12T09:49:39.000Z</Time>
            <Position>
              <LatitudeDegrees>40.67089092917740345001220703125</LatitudeDegrees>
              <LongitudeDegrees>24.729357250034809112548828125</LongitudeDegrees>
            </Position>
            <AltitudeMeters>470.600006103515625</AltitudeMeters>
            <DistanceMeters>3653.1478174121</DistanceMeters>
          </Trackpoint>
          <Trackpoint>
            <Time>2022-02-12T09:49:40.000Z</Time>
            <Position>
              <LatitudeDegrees>40.67088757641613483428955078125</LatitudeDegrees>
              <LongitudeDegrees>24.729362614452838897705078125</LongitudeDegrees>
            </Position>
            <AltitudeMeters>470.600006103515625</AltitudeMeters>
            <DistanceMeters>3653.7336014208</DistanceMeters>
          </Trackpoint>
          <Trackpoint>
            <Time>2022-02-12T09:49:42.000Z</Time>
            <Position>
              <LatitudeDegrees>40.670884139835834503173828125</LatitudeDegrees>
              <LongitudeDegrees>24.729383401572704315185546875</LongitudeDegrees>
            </Position>
            <AltitudeMeters>470.79998779296875</AltitudeMeters>
            <DistanceMeters>3655.5290783186</DistanceMeters>
          </Trackpoint>
          <Trackpoint>
            <Time>2022-02-12T09:49:46.000Z</Time>
            <Position>
              <LatitudeDegrees>40.67088791169226169586181640625</LatitudeDegrees>
              <LongitudeDegrees>24.7294368781149387359619140625</LongitudeDegrees>
            </Position>
            <AltitudeMeters>471</AltitudeMeters>
            <DistanceMeters>3660.0625597607</DistanceMeters>
          </Trackpoint>
          <Trackpoint>
            <Time>2022-02-12T09:49:49.000Z</Time>
            <Position>
              <LatitudeDegrees>40.67090316675603389739990234375</LatitudeDegrees>
              <LongitudeDegrees>24.72948021255433559417724609375</LongitudeDegrees>
            </Position>
            <AltitudeMeters>472</AltitudeMeters>
            <DistanceMeters>3664.0942018082</DistanceMeters>
          </Trackpoint>
          <Trackpoint>
            <Time>2022-02-12T09:49:52.000Z</Time>
            <Position>
              <LatitudeDegrees>40.6709265522658824920654296875</LatitudeDegrees>
              <LongitudeDegrees>24.72952161915600299835205078125</LongitudeDegrees>
            </Position>
            <AltitudeMeters>473.20001220703125</AltitudeMeters>
            <DistanceMeters>3668.4530182575</DistanceMeters>
          </Trackpoint>
          <Trackpoint>
            <Time>2022-02-12T09:49:57.000Z</Time>
            <Position>
              <LatitudeDegrees>40.6709587387740612030029296875</LatitudeDegrees>
              <LongitudeDegrees>24.72955581732094287872314453125</LongitudeDegrees>
            </Position>
            <AltitudeMeters>474</AltitudeMeters>
            <DistanceMeters>3673.0537246363</DistanceMeters>
          </Trackpoint>
          <Trackpoint>
            <Time>2022-02-12T09:49:58.000Z</Time>
            <Position>
              <LatitudeDegrees>40.6709624268114566802978515625</LatitudeDegrees>
              <LongitudeDegrees>24.72956671379506587982177734375</LongitudeDegrees>
            </Position>
            <AltitudeMeters>474</AltitudeMeters>
            <DistanceMeters>3674.0593928529</DistanceMeters>
          </Trackpoint>
          <Trackpoint>
            <Time>2022-02-12T09:50:01.000Z</Time>
            <Position>
              <LatitudeDegrees>40.67096921615302562713623046875</LatitudeDegrees>
              <LongitudeDegrees>24.729618094861507415771484375</LongitudeDegrees>
            </Position>
            <AltitudeMeters>474.399993896484375</AltitudeMeters>
            <DistanceMeters>3678.4625251613</DistanceMeters>
          </Trackpoint>
          <Trackpoint>
            <Time>2022-02-12T09:50:03.000Z</Time>
            <Position>
              <LatitudeDegrees>40.67097508348524570465087890625</LatitudeDegrees>
              <LongitudeDegrees>24.72964885644614696502685546875</LongitudeDegrees>
            </Position>
            <AltitudeMeters>474.600006103515625</AltitudeMeters>
            <DistanceMeters>3681.1401884516</DistanceMeters>
          </Trackpoint>
          <Trackpoint>
            <Time>2022-02-12T09:50:06.000Z</Time>
            <Position>
              <LatitudeDegrees>40.6709808669984340667724609375</LatitudeDegrees>
              <LongitudeDegrees>24.7296900115907192230224609375</LongitudeDegrees>
            </Position>
            <AltitudeMeters>475.399993896484375</AltitudeMeters>
            <DistanceMeters>3684.6728313214</DistanceMeters>
          </Trackpoint>
          <Trackpoint>
            <Time>2022-02-12T09:50:10.000Z</Time>
            <Position>
              <LatitudeDegrees>40.6710056774318218231201171875</LatitudeDegrees>
              <LongitudeDegrees>24.7297349385917186737060546875</LongitudeDegrees>
            </Position>
            <AltitudeMeters>476.20001220703125</AltitudeMeters>
            <DistanceMeters>3689.3639182204</DistanceMeters>
          </Trackpoint>
          <Trackpoint>
            <Time>2022-02-12T09:50:11.000Z</Time>
            <Position>
              <LatitudeDegrees>40.6710137240588665008544921875</LatitudeDegrees>
              <LongitudeDegrees>24.72974457778036594390869140625</LongitudeDegrees>
            </Position>
            <AltitudeMeters>476.600006103515625</AltitudeMeters>
            <DistanceMeters>3690.5734108346</DistanceMeters>
          </Trackpoint>
          <Trackpoint>
            <Time>2022-02-12T09:50:14.000Z</Time>
            <Position>
              <LatitudeDegrees>40.67102822475135326385498046875</LatitudeDegrees>
              <LongitudeDegrees>24.7297768481075763702392578125</LongitudeDegrees>
            </Position>
            <AltitudeMeters>477.399993896484375</AltitudeMeters>
            <DistanceMeters>3693.7408095985</DistanceMeters>
          </Trackpoint>
          <Trackpoint>
            <Time>2022-02-12T09:50:15.000Z</Time>
            <Position>
              <LatitudeDegrees>40.67102906294167041778564453125</LatitudeDegrees>
              <LongitudeDegrees>24.72979185171425342559814453125</LongitudeDegrees>
            </Position>
            <AltitudeMeters>477.600006103515625</AltitudeMeters>
            <DistanceMeters>3695.0086240987</DistanceMeters>
          </Trackpoint>
          <Trackpoint>
            <Time>2022-02-12T09:50:18.000Z</Time>
            <Position>
              <LatitudeDegrees>40.671028979122638702392578125</LatitudeDegrees>
              <LongitudeDegrees>24.72983904182910919189453125</LongitudeDegrees>
            </Position>
            <AltitudeMeters>478.20001220703125</AltitudeMeters>
            <DistanceMeters>3698.9906856547</DistanceMeters>
          </Trackpoint>
          <Trackpoint>
            <Time>2022-02-12T09:50:20.000Z</Time>
            <Position>
              <LatitudeDegrees>40.6710328347980976104736328125</LatitudeDegrees>
              <LongitudeDegrees>24.72987231798470020294189453125</LongitudeDegrees>
            </Position>
            <AltitudeMeters>478.600006103515625</AltitudeMeters>
            <DistanceMeters>3701.8319685236</DistanceMeters>
          </Trackpoint>
          <Trackpoint>
            <Time>2022-02-12T09:50:25.000Z</Time>
            <Position>
              <LatitudeDegrees>40.67100559361279010772705078125</LatitudeDegrees>
              <LongitudeDegrees>24.7299320809543132781982421875</LongitudeDegrees>
            </Position>
            <AltitudeMeters>479.79998779296875</AltitudeMeters>
            <DistanceMeters>3707.7174908656</DistanceMeters>
          </Trackpoint>
          <Trackpoint>
            <Time>2022-02-12T09:50:26.000Z</Time>
            <Position>
              <LatitudeDegrees>40.6709910929203033447265625</LatitudeDegrees>
              <LongitudeDegrees>24.7299307398498058319091796875</LongitudeDegrees>
            </Position>
            <AltitudeMeters>479.79998779296875</AltitudeMeters>
            <DistanceMeters>3709.3357374997</DistanceMeters>
          </Trackpoint>
          <Trackpoint>
            <Time>2022-02-12T09:50:28.000Z</Time>
            <Position>
              <LatitudeDegrees>40.670972652733325958251953125</LatitudeDegrees>
              <LongitudeDegrees>24.7299307398498058319091796875</LongitudeDegrees>
            </Position>
            <AltitudeMeters>480.600006103515625</AltitudeMeters>
            <DistanceMeters>3711.3870823325</DistanceMeters>
          </Trackpoint>
          <Trackpoint>
            <Time>2022-02-12T09:50:29.000Z</Time>
            <Position>
              <LatitudeDegrees>40.6709624268114566802978515625</LatitudeDegrees>
              <LongitudeDegrees>24.729929901659488677978515625</LongitudeDegrees>
            </Position>
            <AltitudeMeters>481</AltitudeMeters>
            <DistanceMeters>3712.5274029049</DistanceMeters>
          </Trackpoint>
          <Trackpoint>
            <Time>2022-02-12T09:50:30.000Z</Time>
            <Position>
              <LatitudeDegrees>40.67095312289893627166748046875</LatitudeDegrees>
              <LongitudeDegrees>24.729926884174346923828125</LongitudeDegrees>
            </Position>
            <AltitudeMeters>481.20001220703125</AltitudeMeters>
            <DistanceMeters>3713.5940751282</DistanceMeters>
          </Trackpoint>
          <Trackpoint>
            <Time>2022-02-12T09:50:31.000Z</Time>
            <Position>
              <LatitudeDegrees>40.67094323225319385528564453125</LatitudeDegrees>
              <LongitudeDegrees>24.7299210168421268463134765625</LongitudeDegrees>
            </Position>
            <AltitudeMeters>481.399993896484375</AltitudeMeters>
            <DistanceMeters>3714.8035677425</DistanceMeters>
          </Trackpoint>
          <Trackpoint>
            <Time>2022-02-12T09:50:34.000Z</Time>
            <Position>
              <LatitudeDegrees>40.67090769298374652862548828125</LatitudeDegrees>
              <LongitudeDegrees>24.729921855032444000244140625</LongitudeDegrees>
            </Position>
            <AltitudeMeters>481.79998779296875</AltitudeMeters>
            <DistanceMeters>3718.7606060988</DistanceMeters>
          </Trackpoint>
          <Trackpoint>
            <Time>2022-02-12T09:50:38.000Z</Time>
            <Position>
              <LatitudeDegrees>40.67085790447890758514404296875</LatitudeDegrees>
              <LongitudeDegrees>24.72993551753461360931396484375</LongitudeDegrees>
            </Position>
            <AltitudeMeters>482</AltitudeMeters>
            <DistanceMeters>3724.4208809352</DistanceMeters>
          </Trackpoint>
          <Trackpoint>
            <Time>2022-02-12T09:50:39.000Z</Time>
            <Position>
              <LatitudeDegrees>40.6708437390625476837158203125</LatitudeDegrees>
              <LongitudeDegrees>24.7299418039619922637939453125</LongitudeDegrees>
            </Position>
            <AltitudeMeters>482.20001220703125</AltitudeMeters>
            <DistanceMeters>3726.0831695359</DistanceMeters>
          </Trackpoint>
          <Trackpoint>
            <Time>2022-02-12T09:50:45.000Z</Time>
            <Position>
              <LatitudeDegrees>40.6707713194191455841064453125</LatitudeDegrees>
              <LongitudeDegrees>24.7299937717616558074951171875</LongitudeDegrees>
            </Position>
            <AltitudeMeters>482.79998779296875</AltitudeMeters>
            <DistanceMeters>3735.2600150133</DistanceMeters>
          </Trackpoint>
          <Trackpoint>
            <Time>2022-02-12T09:50:47.000Z</Time>
            <Position>
              <LatitudeDegrees>40.670752711594104766845703125</LatitudeDegrees>
              <LongitudeDegrees>24.73001732490956783294677734375</LongitudeDegrees>
            </Position>
            <AltitudeMeters>483.20001220703125</AltitudeMeters>
            <DistanceMeters>3738.129758855</DistanceMeters>
          </Trackpoint>
          <Trackpoint>
            <Time>2022-02-12T09:50:50.000Z</Time>
            <Position>
              <LatitudeDegrees>40.67071549594402313232421875</LatitudeDegrees>
              <LongitudeDegrees>24.73004263825714588165283203125</LongitudeDegrees>
            </Position>
            <AltitudeMeters>483.20001220703125</AltitudeMeters>
            <DistanceMeters>3742.7909136394</DistanceMeters>
          </Trackpoint>
          <Trackpoint>
            <Time>2022-02-12T09:50:56.000Z</Time>
            <Position>
              <LatitudeDegrees>40.67070099525153636932373046875</LatitudeDegrees>
              <LongitudeDegrees>24.73004423081874847412109375</LongitudeDegrees>
            </Position>
            <AltitudeMeters>483.399993896484375</AltitudeMeters>
            <DistanceMeters>3744.4091602735</DistanceMeters>
          </Trackpoint>
          <Trackpoint>
            <Time>2022-02-12T09:50:57.000Z</Time>
            <Position>
              <LatitudeDegrees>40.670708119869232177734375</LatitudeDegrees>
              <LongitudeDegrees>24.73003895021975040435791015625</LongitudeDegrees>
            </Position>
            <AltitudeMeters>483.399993896484375</AltitudeMeters>
            <DistanceMeters>3745.3206244981</DistanceMeters>
          </Trackpoint>
          <Trackpoint>
            <Time>2022-02-12T09:50:58.000Z</Time>
            <Position>
              <LatitudeDegrees>40.67071122117340564727783203125</LatitudeDegrees>
              <LongitudeDegrees>24.73003660328686237335205078125</LongitudeDegrees>
            </Position>
            <AltitudeMeters>483.600006103515625</AltitudeMeters>
            <DistanceMeters>3745.7237887029</DistanceMeters>
          </Trackpoint>
          <Trackpoint>
            <Time>2022-02-12T09:51:04.000Z</Time>
            <Position>
              <LatitudeDegrees>40.67068733274936676025390625</LatitudeDegrees>
              <LongitudeDegrees>24.7300732322037220001220703125</LongitudeDegrees>
            </Position>
            <AltitudeMeters>483.79998779296875</AltitudeMeters>
            <DistanceMeters>3749.8021953537</DistanceMeters>
          </Trackpoint>
          <Trackpoint>
            <Time>2022-02-12T09:51:05.000Z</Time>
            <Position>
              <LatitudeDegrees>40.67067249678075313568115234375</LatitudeDegrees>
              <LongitudeDegrees>24.73007800988852977752685546875</LongitudeDegrees>
            </Position>
            <AltitudeMeters>483.79998779296875</AltitudeMeters>
            <DistanceMeters>3751.5020848978</DistanceMeters>
          </Trackpoint>
          <Trackpoint>
            <Time>2022-02-12T09:51:10.000Z</Time>
            <Position>
              <LatitudeDegrees>40.67062606103718280792236328125</LatitudeDegrees>
              <LongitudeDegrees>24.730120338499546051025390625</LongitudeDegrees>
            </Position>
            <AltitudeMeters>484.20001220703125</AltitudeMeters>
            <DistanceMeters>3757.7853558782</DistanceMeters>
          </Trackpoint>
          <Trackpoint>
            <Time>2022-02-12T09:51:16.000Z</Time>
            <Position>
              <LatitudeDegrees>40.67058096639811992645263671875</LatitudeDegrees>
              <LongitudeDegrees>24.73018881864845752716064453125</LongitudeDegrees>
            </Position>
            <AltitudeMeters>485.20001220703125</AltitudeMeters>
            <DistanceMeters>3765.4407589454</DistanceMeters>
          </Trackpoint>
          <Trackpoint>
            <Time>2022-02-12T09:51:17.000Z</Time>
            <Position>
              <LatitudeDegrees>40.67057359032332897186279296875</LatitudeDegrees>
              <LongitudeDegrees>24.73019443452358245849609375</LongitudeDegrees>
            </Position>
            <AltitudeMeters>485.399993896484375</AltitudeMeters>
            <DistanceMeters>3766.3910260891</DistanceMeters>
          </Trackpoint>
          <Trackpoint>
            <Time>2022-02-12T09:51:23.000Z</Time>
            <Position>
              <LatitudeDegrees>40.67054056562483310699462890625</LatitudeDegrees>
              <LongitudeDegrees>24.7302455641329288482666015625</LongitudeDegrees>
            </Position>
            <AltitudeMeters>486.20001220703125</AltitudeMeters>
            <DistanceMeters>3772.0600685183</DistanceMeters>
          </Trackpoint>
          <Trackpoint>
            <Time>2022-02-12T09:51:25.000Z</Time>
            <Position>
              <LatitudeDegrees>40.67054978571832180023193359375</LatitudeDegrees>
              <LongitudeDegrees>24.7302351705729961395263671875</LongitudeDegrees>
            </Position>
            <AltitudeMeters>486.20001220703125</AltitudeMeters>
            <DistanceMeters>3773.4073047133</DistanceMeters>
          </Trackpoint>
          <Trackpoint>
            <Time>2022-02-12T09:51:28.000Z</Time>
            <Position>
              <LatitudeDegrees>40.67055028863251209259033203125</LatitudeDegrees>
              <LongitudeDegrees>24.73023357801139354705810546875</LongitudeDegrees>
            </Position>
            <AltitudeMeters>486.399993896484375</AltitudeMeters>
            <DistanceMeters>3773.5416927816</DistanceMeters>
          </Trackpoint>
          <Trackpoint>
            <Time>2022-02-12T09:51:33.000Z</Time>
            <Position>
              <LatitudeDegrees>40.67055146209895610809326171875</LatitudeDegrees>
              <LongitudeDegrees>24.73022486083209514617919921875</LongitudeDegrees>
            </Position>
            <AltitudeMeters>486.399993896484375</AltitudeMeters>
            <DistanceMeters>3774.2899338788</DistanceMeters>
          </Trackpoint>
          <Trackpoint>
            <Time>2022-02-12T09:51:34.000Z</Time>
            <Position>
              <LatitudeDegrees>40.6705473549664020538330078125</LatitudeDegrees>
              <LongitudeDegrees>24.7302274592220783233642578125</LongitudeDegrees>
            </Position>
            <AltitudeMeters>486.600006103515625</AltitudeMeters>
            <DistanceMeters>3774.792767987</DistanceMeters>
          </Trackpoint>
          <Trackpoint>
            <Time>2022-02-12T09:51:36.000Z</Time>
            <Position>
              <LatitudeDegrees>40.67053847014904022216796875</LatitudeDegrees>
              <LongitudeDegrees>24.730243384838104248046875</LongitudeDegrees>
            </Position>
            <AltitudeMeters>486.600006103515625</AltitudeMeters>
            <DistanceMeters>3776.4604800559</DistanceMeters>
          </Trackpoint>
          <Trackpoint>
            <Time>2022-02-12T09:51:41.000Z</Time>
            <Position>
              <LatitudeDegrees>40.670493878424167633056640625</LatitudeDegrees>
              <LongitudeDegrees>24.730287306010723114013671875</LongitudeDegrees>
            </Position>
            <AltitudeMeters>486.600006103515625</AltitudeMeters>
            <DistanceMeters>3782.6554639047</DistanceMeters>
          </Trackpoint>
          <Trackpoint>
            <Time>2022-02-12T09:51:45.000Z</Time>
            <Position>
              <LatitudeDegrees>40.67046060226857662200927734375</LatitudeDegrees>
              <LongitudeDegrees>24.7303025610744953155517578125</LongitudeDegrees>
            </Position>
            <AltitudeMeters>486.79998779296875</AltitudeMeters>
            <DistanceMeters>3786.5758197696</DistanceMeters>
          </Trackpoint>
          <Trackpoint>
            <Time>2022-02-12T09:51:46.000Z</Time>
            <Position>
              <LatitudeDegrees>40.67046244628727436065673828125</LatitudeDegrees>
              <LongitudeDegrees>24.73030046559870243072509765625</LongitudeDegrees>
            </Position>
            <AltitudeMeters>487</AltitudeMeters>
            <DistanceMeters>3786.8445959061</DistanceMeters>
          </Trackpoint>
          <Trackpoint>
            <Time>2022-02-12T09:55:00.000Z</Time>
            <Position>
              <LatitudeDegrees>40.67043361254036426544189453125</LatitudeDegrees>
              <LongitudeDegrees>24.730255790054798126220703125</LongitudeDegrees>
            </Position>
            <AltitudeMeters>488.600006103515625</AltitudeMeters>
            <DistanceMeters>3791.7969375363</DistanceMeters>
          </Trackpoint>
          <Trackpoint>
            <Time>2022-02-12T09:55:01.000Z</Time>
            <Position>
              <LatitudeDegrees>40.6704305112361907958984375</LatitudeDegrees>
              <LongitudeDegrees>24.7302552871406078338623046875</LongitudeDegrees>
            </Position>
            <AltitudeMeters>488.600006103515625</AltitudeMeters>
            <DistanceMeters>3792.1524949441</DistanceMeters>
          </Trackpoint>
          <Trackpoint>
            <Time>2022-02-12T09:55:03.000Z</Time>
            <Position>
              <LatitudeDegrees>40.67041969858109951019287109375</LatitudeDegrees>
              <LongitudeDegrees>24.73025151528418064117431640625</LongitudeDegrees>
            </Position>
            <AltitudeMeters>488.600006103515625</AltitudeMeters>
            <DistanceMeters>3793.3987586194</DistanceMeters>
          </Trackpoint>
          <Trackpoint>
            <Time>2022-02-12T09:55:05.000Z</Time>
            <Position>
              <LatitudeDegrees>40.67040293477475643157958984375</LatitudeDegrees>
              <LongitudeDegrees>24.73024816252291202545166015625</LongitudeDegrees>
            </Position>
            <AltitudeMeters>488.600006103515625</AltitudeMeters>
            <DistanceMeters>3795.2849850424</DistanceMeters>
          </Trackpoint>
          <Trackpoint>
            <Time>2022-02-12T09:55:07.000Z</Time>
            <Position>
              <LatitudeDegrees>40.6703880988061428070068359375</LatitudeDegrees>
              <LongitudeDegrees>24.73023860715329647064208984375</LongitudeDegrees>
            </Position>
            <AltitudeMeters>488.600006103515625</AltitudeMeters>
            <DistanceMeters>3797.1227142363</DistanceMeters>
          </Trackpoint>
          <Trackpoint>
            <Time>2022-02-12T09:55:09.000Z</Time>
            <Position>
              <LatitudeDegrees>40.670364461839199066162109375</LatitudeDegrees>
              <LongitudeDegrees>24.73023290745913982391357421875</LongitudeDegrees>
            </Position>
            <AltitudeMeters>489</AltitudeMeters>
            <DistanceMeters>3799.7970030284</DistanceMeters>
          </Trackpoint>
          <Trackpoint>
            <Time>2022-02-12T09:55:11.000Z</Time>
            <Position>
              <LatitudeDegrees>40.6703337840735912322998046875</LatitudeDegrees>
              <LongitudeDegrees>24.73024941980838775634765625</LongitudeDegrees>
            </Position>
            <AltitudeMeters>489.600006103515625</AltitudeMeters>
            <DistanceMeters>3803.4859493821</DistanceMeters>
          </Trackpoint>
          <Trackpoint>
            <Time>2022-02-12T09:55:14.000Z</Time>
            <Position>
              <LatitudeDegrees>40.67028441466391086578369140625</LatitudeDegrees>
              <LongitudeDegrees>24.73027347587049007415771484375</LongitudeDegrees>
            </Position>
            <AltitudeMeters>490.600006103515625</AltitudeMeters>
            <DistanceMeters>3809.3453308034</DistanceMeters>
          </Trackpoint>
          <Trackpoint>
            <Time>2022-02-12T09:55:16.000Z</Time>
            <Position>
              <LatitudeDegrees>40.6702432595193386077880859375</LatitudeDegrees>
              <LongitudeDegrees>24.73027062602341175079345703125</LongitudeDegrees>
            </Position>
            <AltitudeMeters>491</AltitudeMeters>
            <DistanceMeters>3813.9322772948</DistanceMeters>
          </Trackpoint>
          <Trackpoint>
            <Time>2022-02-12T09:55:29.000Z</Time>
            <Position>
              <LatitudeDegrees>40.6701574288308620452880859375</LatitudeDegrees>
              <LongitudeDegrees>24.7302452288568019866943359375</LongitudeDegrees>
            </Position>
            <AltitudeMeters>490.79998779296875</AltitudeMeters>
            <DistanceMeters>3823.7232574055</DistanceMeters>
          </Trackpoint>
          <Trackpoint>
            <Time>2022-02-12T09:55:32.000Z</Time>
            <Position>
              <LatitudeDegrees>40.67014007829129695892333984375</LatitudeDegrees>
              <LongitudeDegrees>24.7302822768688201904296875</LongitudeDegrees>
            </Position>
            <AltitudeMeters>491.399993896484375</AltitudeMeters>
            <DistanceMeters>3827.3987157933</DistanceMeters>
          </Trackpoint>
          <Trackpoint>
            <Time>2022-02-12T09:55:33.000Z</Time>
            <Position>
              <LatitudeDegrees>40.67013085819780826568603515625</LatitudeDegrees>
              <LongitudeDegrees>24.7302948497235774993896484375</LongitudeDegrees>
            </Position>
            <AltitudeMeters>491.399993896484375</AltitudeMeters>
            <DistanceMeters>3828.876984544</DistanceMeters>
          </Trackpoint>
          <Trackpoint>
            <Time>2022-02-12T09:55:36.000Z</Time>
            <Position>
              <LatitudeDegrees>40.670099593698978424072265625</LatitudeDegrees>
              <LongitudeDegrees>24.73031337372958660125732421875</LongitudeDegrees>
            </Position>
            <AltitudeMeters>491.600006103515625</AltitudeMeters>
            <DistanceMeters>3832.6922804995</DistanceMeters>
          </Trackpoint>
          <Trackpoint>
            <Time>2022-02-12T09:55:41.000Z</Time>
            <Position>
              <LatitudeDegrees>40.67001367919147014617919921875</LatitudeDegrees>
              <LongitudeDegrees>24.7303226776421070098876953125</LongitudeDegrees>
            </Position>
            <AltitudeMeters>492.600006103515625</AltitudeMeters>
            <DistanceMeters>3842.2862144784</DistanceMeters>
          </Trackpoint>
          <Trackpoint>
            <Time>2022-02-12T09:55:42.000Z</Time>
            <Position>
              <LatitudeDegrees>40.6700008548796176910400390625</LatitudeDegrees>
              <LongitudeDegrees>24.7303243540227413177490234375</LongitudeDegrees>
            </Position>
            <AltitudeMeters>492.79998779296875</AltitudeMeters>
            <DistanceMeters>3843.7210863993</DistanceMeters>
          </Trackpoint>
          <Trackpoint>
            <Time>2022-02-12T09:55:48.000Z</Time>
            <Position>
              <LatitudeDegrees>40.66991829313337802886962890625</LatitudeDegrees>
              <LongitudeDegrees>24.7303471527993679046630859375</LongitudeDegrees>
            </Position>
            <AltitudeMeters>494</AltitudeMeters>
            <DistanceMeters>3853.1099950817</DistanceMeters>
          </Trackpoint>
          <Trackpoint>
            <Time>2022-02-12T09:55:54.000Z</Time>
            <Position>
              <LatitudeDegrees>40.66984101198613643646240234375</LatitudeDegrees>
              <LongitudeDegrees>24.73039115779101848602294921875</LongitudeDegrees>
            </Position>
            <AltitudeMeters>495</AltitudeMeters>
            <DistanceMeters>3862.4796483937</DistanceMeters>
          </Trackpoint>
          <Trackpoint>
            <Time>2022-02-12T09:55:55.000Z</Time>
            <Position>
              <LatitudeDegrees>40.66983212716877460479736328125</LatitudeDegrees>
              <LongitudeDegrees>24.7304048202931880950927734375</LongitudeDegrees>
            </Position>
            <AltitudeMeters>495.20001220703125</AltitudeMeters>
            <DistanceMeters>3864.0000758236</DistanceMeters>
          </Trackpoint>
          <Trackpoint>
            <Time>2022-02-12T09:55:58.000Z</Time>
            <Position>
              <LatitudeDegrees>40.6698047183454036712646484375</LatitudeDegrees>
              <LongitudeDegrees>24.7304457239806652069091796875</LongitudeDegrees>
            </Position>
            <AltitudeMeters>495.600006103515625</AltitudeMeters>
            <DistanceMeters>3868.6066667153</DistanceMeters>
          </Trackpoint>
          <Trackpoint>
            <Time>2022-02-12T09:59:07.000Z</Time>
            <Position>
              <LatitudeDegrees>40.6697711907327175140380859375</LatitudeDegrees>
              <LongitudeDegrees>24.73047262988984584808349609375</LongitudeDegrees>
            </Position>
            <AltitudeMeters>495.399993896484375</AltitudeMeters>
            <DistanceMeters>3872.9737620257</DistanceMeters>
          </Trackpoint>
          <Trackpoint>
            <Time>2022-02-12T09:59:08.000Z</Time>
            <Position>
              <LatitudeDegrees>40.66977278329432010650634765625</LatitudeDegrees>
              <LongitudeDegrees>24.7304834425449371337890625</LongitudeDegrees>
            </Position>
            <AltitudeMeters>495.399993896484375</AltitudeMeters>
            <DistanceMeters>3873.9048298742</DistanceMeters>
          </Trackpoint>
          <Trackpoint>
            <Time>2022-02-12T09:59:09.000Z</Time>
            <Position>
              <LatitudeDegrees>40.66977806389331817626953125</LatitudeDegrees>
              <LongitudeDegrees>24.73050431348383426666259765625</LongitudeDegrees>
            </Position>
            <AltitudeMeters>495.600006103515625</AltitudeMeters>
            <DistanceMeters>3875.7621099289</DistanceMeters>
          </Trackpoint>
          <Trackpoint>
            <Time>2022-02-12T09:59:12.000Z</Time>
            <Position>
              <LatitudeDegrees>40.66978770308196544647216796875</LatitudeDegrees>
              <LongitudeDegrees>24.73054689355194568634033203125</LongitudeDegrees>
            </Position>
            <AltitudeMeters>496.20001220703125</AltitudeMeters>
            <DistanceMeters>3879.512957713</DistanceMeters>
          </Trackpoint>
          <Trackpoint>
            <Time>2022-02-12T09:59:16.000Z</Time>
            <Position>
              <LatitudeDegrees>40.66983531229197978973388671875</LatitudeDegrees>
              <LongitudeDegrees>24.7305784933269023895263671875</LongitudeDegrees>
            </Position>
            <AltitudeMeters>496.600006103515625</AltitudeMeters>
            <DistanceMeters>3885.4443300522</DistanceMeters>
          </Trackpoint>
          <Trackpoint>
            <Time>2022-02-12T09:59:18.000Z</Time>
            <Position>
              <LatitudeDegrees>40.66986330784857273101806640625</LatitudeDegrees>
              <LongitudeDegrees>24.7305825166404247283935546875</LongitudeDegrees>
            </Position>
            <AltitudeMeters>497</AltitudeMeters>
            <DistanceMeters>3888.578771497</DistanceMeters>
          </Trackpoint>
          <Trackpoint>
            <Time>2022-02-12T09:59:20.000Z</Time>
            <Position>
              <LatitudeDegrees>40.6698955781757831573486328125</LatitudeDegrees>
              <LongitudeDegrees>24.73058813251554965972900390625</LongitudeDegrees>
            </Position>
            <AltitudeMeters>497.399993896484375</AltitudeMeters>
            <DistanceMeters>3892.2022685854</DistanceMeters>
          </Trackpoint>
          <Trackpoint>
            <Time>2022-02-12T09:59:25.000Z</Time>
            <Position>
              <LatitudeDegrees>40.66996724344789981842041015625</LatitudeDegrees>
              <LongitudeDegrees>24.73060338757932186126708984375</LongitudeDegrees>
            </Position>
            <AltitudeMeters>498.600006103515625</AltitudeMeters>
            <DistanceMeters>3900.2817749202</DistanceMeters>
          </Trackpoint>
          <Trackpoint>
            <Time>2022-02-12T09:59:31.000Z</Time>
            <Position>
              <LatitudeDegrees>40.67003949545323848724365234375</LatitudeDegrees>
              <LongitudeDegrees>24.7306321375072002410888671875</LongitudeDegrees>
            </Position>
            <AltitudeMeters>499.600006103515625</AltitudeMeters>
            <DistanceMeters>3908.6818354755</DistanceMeters>
          </Trackpoint>
          <Trackpoint>
            <Time>2022-02-12T09:59:32.000Z</Time>
            <Position>
              <LatitudeDegrees>40.67005030810832977294921875</LatitudeDegrees>
              <LongitudeDegrees>24.73063565790653228759765625</LongitudeDegrees>
            </Position>
            <AltitudeMeters>500</AltitudeMeters>
            <DistanceMeters>3909.9244710101</DistanceMeters>
          </Trackpoint>
          <Trackpoint>
            <Time>2022-02-12T09:59:36.000Z</Time>
            <Position>
              <LatitudeDegrees>40.6700903736054897308349609375</LatitudeDegrees>
              <LongitudeDegrees>24.73065518774092197418212890625</LongitudeDegrees>
            </Position>
            <AltitudeMeters>500.79998779296875</AltitudeMeters>
            <DistanceMeters>3914.679606278</DistanceMeters>
          </Trackpoint>
          <Trackpoint>
            <Time>2022-02-12T09:59:38.000Z</Time>
            <Position>
              <LatitudeDegrees>40.67011468112468719482421875</LatitudeDegrees>
              <LongitudeDegrees>24.7306576184928417205810546875</LongitudeDegrees>
            </Position>
            <AltitudeMeters>501.399993896484375</AltitudeMeters>
            <DistanceMeters>3917.3941121959</DistanceMeters>
          </Trackpoint>
          <Trackpoint>
            <Time>2022-02-12T09:59:39.000Z</Time>
            <Position>
              <LatitudeDegrees>40.67012599669396877288818359375</LatitudeDegrees>
              <LongitudeDegrees>24.730658121407032012939453125</LongitudeDegrees>
            </Position>
            <AltitudeMeters>501.600006103515625</AltitudeMeters>
            <DistanceMeters>3918.6547840224</DistanceMeters>
          </Trackpoint>
          <Trackpoint>
            <Time>2022-02-12T09:59:40.000Z</Time>
            <Position>
              <LatitudeDegrees>40.67013639025390148162841796875</LatitudeDegrees>
              <LongitudeDegrees>24.7306592948734760284423828125</LongitudeDegrees>
            </Position>
            <AltitudeMeters>501.79998779296875</AltitudeMeters>
            <DistanceMeters>3919.8186188331</DistanceMeters>
          </Trackpoint>
          <Trackpoint>
            <Time>2022-02-12T09:59:44.000Z</Time>
            <Position>
              <LatitudeDegrees>40.670170672237873077392578125</LatitudeDegrees>
              <LongitudeDegrees>24.73066491074860095977783203125</LongitudeDegrees>
            </Position>
            <AltitudeMeters>502.600006103515625</AltitudeMeters>
            <DistanceMeters>3923.6645602282</DistanceMeters>
          </Trackpoint>
          <Trackpoint>
            <Time>2022-02-12T09:59:45.000Z</Time>
            <Position>
              <LatitudeDegrees>40.6701802276074886322021484375</LatitudeDegrees>
              <LongitudeDegrees>24.73066809587180614471435546875</LongitudeDegrees>
            </Position>
            <AltitudeMeters>502.600006103515625</AltitudeMeters>
            <DistanceMeters>3924.7604617599</DistanceMeters>
          </Trackpoint>
          <Trackpoint>
            <Time>2022-02-12T09:59:46.000Z</Time>
            <Position>
              <LatitudeDegrees>40.67019288428127765655517578125</LatitudeDegrees>
              <LongitudeDegrees>24.7306723706424236297607421875</LongitudeDegrees>
            </Position>
            <AltitudeMeters>502.79998779296875</AltitudeMeters>
            <DistanceMeters>3926.2140909725</DistanceMeters>
          </Trackpoint>
          <Trackpoint>
            <Time>2022-02-12T09:59:47.000Z</Time>
            <Position>
              <LatitudeDegrees>40.6702047027647495269775390625</LatitudeDegrees>
              <LongitudeDegrees>24.730675220489501953125</LongitudeDegrees>
            </Position>
            <AltitudeMeters>502.79998779296875</AltitudeMeters>
            <DistanceMeters>3927.5512353686</DistanceMeters>
          </Trackpoint>
          <Trackpoint>
            <Time>2022-02-12T09:59:48.000Z</Time>
            <Position>
              <LatitudeDegrees>40.6702140904963016510009765625</LatitudeDegrees>
              <LongitudeDegrees>24.7306763939559459686279296875</LongitudeDegrees>
            </Position>
            <AltitudeMeters>503</AltitudeMeters>
            <DistanceMeters>3928.5965292267</DistanceMeters>
          </Trackpoint>
          <Trackpoint>
            <Time>2022-02-12T09:59:52.000Z</Time>
            <Position>
              <LatitudeDegrees>40.6702442653477191925048828125</LatitudeDegrees>
              <LongitudeDegrees>24.73070028237998485565185546875</LongitudeDegrees>
            </Position>
            <AltitudeMeters>504</AltitudeMeters>
            <DistanceMeters>3932.513428495</DistanceMeters>
          </Trackpoint>
          <Trackpoint>
            <Time>2022-02-12T09:59:55.000Z</Time>
            <Position>
              <LatitudeDegrees>40.67026362754404544830322265625</LatitudeDegrees>
              <LongitudeDegrees>24.73072006367146968841552734375</LongitudeDegrees>
            </Position>
            <AltitudeMeters>504.399993896484375</AltitudeMeters>
            <DistanceMeters>3935.2395526509</DistanceMeters>
          </Trackpoint>
          <Trackpoint>
            <Time>2022-02-12T09:59:56.000Z</Time>
            <Position>
              <LatitudeDegrees>40.6702660582959651947021484375</LatitudeDegrees>
              <LongitudeDegrees>24.730722494423389434814453125</LongitudeDegrees>
            </Position>
            <AltitudeMeters>504.600006103515625</AltitudeMeters>
            <DistanceMeters>3935.5821763421</DistanceMeters>
          </Trackpoint>
          <Trackpoint>
            <Time>2022-02-12T10:03:33.000Z</Time>
            <Position>
              <LatitudeDegrees>40.6702177785336971282958984375</LatitudeDegrees>
              <LongitudeDegrees>24.73076306283473968505859375</LongitudeDegrees>
            </Position>
            <AltitudeMeters>505.600006103515625</AltitudeMeters>
            <DistanceMeters>3941.9539283533</DistanceMeters>
          </Trackpoint>
          <Trackpoint>
            <Time>2022-02-12T10:03:34.000Z</Time>
            <Position>
              <LatitudeDegrees>40.67022574134171009063720703125</LatitudeDegrees>
              <LongitudeDegrees>24.73075568675994873046875</LongitudeDegrees>
            </Position>
            <AltitudeMeters>505.600006103515625</AltitudeMeters>
            <DistanceMeters>3943.0373995978</DistanceMeters>
          </Trackpoint>
          <Trackpoint>
            <Time>2022-02-12T10:03:35.000Z</Time>
            <Position>
              <LatitudeDegrees>40.670239739120006561279296875</LatitudeDegrees>
              <LongitudeDegrees>24.73075644113123416900634765625</LongitudeDegrees>
            </Position>
            <AltitudeMeters>505.600006103515625</AltitudeMeters>
            <DistanceMeters>3944.5959535954</DistanceMeters>
          </Trackpoint>
          <Trackpoint>
            <Time>2022-02-12T10:03:36.000Z</Time>
            <Position>
              <LatitudeDegrees>40.67025457508862018585205078125</LatitudeDegrees>
              <LongitudeDegrees>24.73075761459767818450927734375</LongitudeDegrees>
            </Position>
            <AltitudeMeters>505.600006103515625</AltitudeMeters>
            <DistanceMeters>3946.2473418254</DistanceMeters>
          </Trackpoint>
          <Trackpoint>
            <Time>2022-02-12T10:03:37.000Z</Time>
            <Position>
              <LatitudeDegrees>40.67027452401816844940185546875</LatitudeDegrees>
              <LongitudeDegrees>24.730758368968963623046875</LongitudeDegrees>
            </Position>
            <AltitudeMeters>505.399993896484375</AltitudeMeters>
            <DistanceMeters>3948.469829579</DistanceMeters>
          </Trackpoint>
          <Trackpoint>
            <Time>2022-02-12T10:03:38.000Z</Time>
            <Position>
              <LatitudeDegrees>40.67029229365289211273193359375</LatitudeDegrees>
              <LongitudeDegrees>24.73076247610151767730712890625</LongitudeDegrees>
            </Position>
            <AltitudeMeters>505.20001220703125</AltitudeMeters>
            <DistanceMeters>3950.4766713998</DistanceMeters>
          </Trackpoint>
          <Trackpoint>
            <Time>2022-02-12T10:03:42.000Z</Time>
            <Position>
              <LatitudeDegrees>40.6703768670558929443359375</LatitudeDegrees>
              <LongitudeDegrees>24.730800278484821319580078125</LongitudeDegrees>
            </Position>
            <AltitudeMeters>504.79998779296875</AltitudeMeters>
            <DistanceMeters>3960.4159387922</DistanceMeters>
          </Trackpoint>
          <Trackpoint>
            <Time>2022-02-12T10:03:43.000Z</Time>
            <Position>
              <LatitudeDegrees>40.67039689980447292327880859375</LatitudeDegrees>
              <LongitudeDegrees>24.730811677873134613037109375</LongitudeDegrees>
            </Position>
            <AltitudeMeters>504.79998779296875</AltitudeMeters>
            <DistanceMeters>3962.844238592</DistanceMeters>
          </Trackpoint>
          <Trackpoint>
            <Time>2022-02-12T10:03:46.000Z</Time>
            <Position>
              <LatitudeDegrees>40.67044819705188274383544921875</LatitudeDegrees>
              <LongitudeDegrees>24.73084730096161365509033203125</LongitudeDegrees>
            </Position>
            <AltitudeMeters>505</AltitudeMeters>
            <DistanceMeters>3969.2976650121</DistanceMeters>
          </Trackpoint>
          <Trackpoint>
            <Time>2022-02-12T10:03:48.000Z</Time>
            <Position>
              <LatitudeDegrees>40.67048356868326663970947265625</LatitudeDegrees>
              <LongitudeDegrees>24.7308705188333988189697265625</LongitudeDegrees>
            </Position>
            <AltitudeMeters>506</AltitudeMeters>
            <DistanceMeters>3973.6956672567</DistanceMeters>
          </Trackpoint>
          <Trackpoint>
            <Time>2022-02-12T10:03:49.000Z</Time>
            <Position>
              <LatitudeDegrees>40.67050083540380001068115234375</LatitudeDegrees>
              <LongitudeDegrees>24.73088183440268039703369140625</LongitudeDegrees>
            </Position>
            <AltitudeMeters>506.600006103515625</AltitudeMeters>
            <DistanceMeters>3975.8416726123</DistanceMeters>
          </Trackpoint>
          <Trackpoint>
            <Time>2022-02-12T10:03:51.000Z</Time>
            <Position>
              <LatitudeDegrees>40.670538805425167083740234375</LatitudeDegrees>
              <LongitudeDegrees>24.7309027053415775299072265625</LongitudeDegrees>
            </Position>
            <AltitudeMeters>506.79998779296875</AltitudeMeters>
            <DistanceMeters>3980.4207377464</DistanceMeters>
          </Trackpoint>
          <Trackpoint>
            <Time>2022-02-12T10:03:57.000Z</Time>
            <Position>
              <LatitudeDegrees>40.67067819647490978240966796875</LatitudeDegrees>
              <LongitudeDegrees>24.73095618188381195068359375</LongitudeDegrees>
            </Position>
            <AltitudeMeters>507</AltitudeMeters>
            <DistanceMeters>3996.5786327253</DistanceMeters>
          </Trackpoint>
          <Trackpoint>
            <Time>2022-02-12T10:03:59.000Z</Time>
            <Position>
              <LatitudeDegrees>40.67073016427457332611083984375</LatitudeDegrees>
              <LongitudeDegrees>24.7309610433876514434814453125</LongitudeDegrees>
            </Position>
            <AltitudeMeters>507.79998779296875</AltitudeMeters>
            <DistanceMeters>4002.376041157</DistanceMeters>
          </Trackpoint>
          <Trackpoint>
            <Time>2022-02-12T10:04:02.000Z</Time>
            <Position>
              <LatitudeDegrees>40.6707867421209812164306640625</LatitudeDegrees>
              <LongitudeDegrees>24.730976633727550506591796875</LongitudeDegrees>
            </Position>
            <AltitudeMeters>508.399993896484375</AltitudeMeters>
            <DistanceMeters>4008.8098479943</DistanceMeters>
          </Trackpoint>
          <Trackpoint>
            <Time>2022-02-12T10:04:03.000Z</Time>
            <Position>
              <LatitudeDegrees>40.6707860715687274932861328125</LatitudeDegrees>
              <LongitudeDegrees>24.7309969179332256317138671875</LongitudeDegrees>
            </Position>
            <AltitudeMeters>508.79998779296875</AltitudeMeters>
            <DistanceMeters>4010.5229664503</DistanceMeters>
          </Trackpoint>
          <Trackpoint>
            <Time>2022-02-12T10:04:04.000Z</Time>
            <Position>
              <LatitudeDegrees>40.6707760132849216461181640625</LatitudeDegrees>
              <LongitudeDegrees>24.73101384937763214111328125</LongitudeDegrees>
            </Position>
            <AltitudeMeters>508.79998779296875</AltitudeMeters>
            <DistanceMeters>4012.3359606107</DistanceMeters>
          </Trackpoint>
          <Trackpoint>
            <Time>2022-02-12T10:04:07.000Z</Time>
            <Position>
              <LatitudeDegrees>40.67073251120746135711669921875</LatitudeDegrees>
              <LongitudeDegrees>24.73103103227913379669189453125</LongitudeDegrees>
            </Position>
            <AltitudeMeters>509.20001220703125</AltitudeMeters>
            <DistanceMeters>4017.3902742397</DistanceMeters>
          </Trackpoint>
          <Trackpoint>
            <Time>2022-02-12T10:04:12.000Z</Time>
            <Position>
              <LatitudeDegrees>40.67064441740512847900390625</LatitudeDegrees>
              <LongitudeDegrees>24.7310287691652774810791015625</LongitudeDegrees>
            </Position>
            <AltitudeMeters>510</AltitudeMeters>
            <DistanceMeters>4027.1969206658</DistanceMeters>
          </Trackpoint>
          <Trackpoint>
            <Time>2022-02-12T10:04:15.000Z</Time>
            <Position>
              <LatitudeDegrees>40.67060946486890316009521484375</LatitudeDegrees>
              <LongitudeDegrees>24.73103287629783153533935546875</LongitudeDegrees>
            </Position>
            <AltitudeMeters>510.399993896484375</AltitudeMeters>
            <DistanceMeters>4031.1034317935</DistanceMeters>
          </Trackpoint>
          <Trackpoint>
            <Time>2022-02-12T10:04:18.000Z</Time>
            <Position>
              <LatitudeDegrees>40.6705600954592227935791015625</LatitudeDegrees>
              <LongitudeDegrees>24.7310280986130237579345703125</LongitudeDegrees>
            </Position>
            <AltitudeMeters>511</AltitudeMeters>
            <DistanceMeters>4036.6133425917</DistanceMeters>
          </Trackpoint>
          <Trackpoint>
            <Time>2022-02-12T10:04:21.000Z</Time>
            <Position>
              <LatitudeDegrees>40.67051558755338191986083984375</LatitudeDegrees>
              <LongitudeDegrees>24.7310465388000011444091796875</LongitudeDegrees>
            </Position>
            <AltitudeMeters>511.600006103515625</AltitudeMeters>
            <DistanceMeters>4041.8060112949</DistanceMeters>
          </Trackpoint>
          <Trackpoint>
            <Time>2022-02-12T10:04:24.000Z</Time>
            <Position>
              <LatitudeDegrees>40.67047812044620513916015625</LatitudeDegrees>
              <LongitudeDegrees>24.73105416633188724517822265625</LongitudeDegrees>
            </Position>
            <AltitudeMeters>512.20001220703125</AltitudeMeters>
            <DistanceMeters>4046.0258822346</DistanceMeters>
          </Trackpoint>
          <Trackpoint>
            <Time>2022-02-12T10:04:28.000Z</Time>
            <Position>
              <LatitudeDegrees>40.67042958922684192657470703125</LatitudeDegrees>
              <LongitudeDegrees>24.73106103949248790740966796875</LongitudeDegrees>
            </Position>
            <AltitudeMeters>512.79998779296875</AltitudeMeters>
            <DistanceMeters>4051.4582196522</DistanceMeters>
          </Trackpoint>
          <Trackpoint>
            <Time>2022-02-12T10:04:30.000Z</Time>
            <Position>
              <LatitudeDegrees>40.670402012765407562255859375</LatitudeDegrees>
              <LongitudeDegrees>24.73106707446277141571044921875</LongitudeDegrees>
            </Position>
            <AltitudeMeters>513.20001220703125</AltitudeMeters>
            <DistanceMeters>4054.5695283717</DistanceMeters>
          </Trackpoint>
          <Trackpoint>
            <Time>2022-02-12T10:04:33.000Z</Time>
            <Position>
              <LatitudeDegrees>40.67034107632935047149658203125</LatitudeDegrees>
              <LongitudeDegrees>24.73107327707111835479736328125</LongitudeDegrees>
            </Position>
            <AltitudeMeters>513.79998779296875</AltitudeMeters>
            <DistanceMeters>4061.3717421069</DistanceMeters>
          </Trackpoint>
          <Trackpoint>
            <Time>2022-02-12T10:04:37.000Z</Time>
            <Position>
              <LatitudeDegrees>40.670259185135364532470703125</LatitudeDegrees>
              <LongitudeDegrees>24.731091298162937164306640625</LongitudeDegrees>
            </Position>
            <AltitudeMeters>514.20001220703125</AltitudeMeters>
            <DistanceMeters>4070.6133038259</DistanceMeters>
          </Trackpoint>
          <Trackpoint>
            <Time>2022-02-12T10:04:38.000Z</Time>
            <Position>
              <LatitudeDegrees>40.67023546434938907623291015625</LatitudeDegrees>
              <LongitudeDegrees>24.73109775222837924957275390625</LongitudeDegrees>
            </Position>
            <AltitudeMeters>514.20001220703125</AltitudeMeters>
            <DistanceMeters>4073.3111254683</DistanceMeters>
          </Trackpoint>
          <Trackpoint>
            <Time>2022-02-12T10:04:44.000Z</Time>
            <Position>
              <LatitudeDegrees>40.67012214101850986480712890625</LatitudeDegrees>
              <LongitudeDegrees>24.731156341731548309326171875</LongitudeDegrees>
            </Position>
            <AltitudeMeters>515</AltitudeMeters>
            <DistanceMeters>4086.8590158501</DistanceMeters>
          </Trackpoint>
          <Trackpoint>
            <Time>2022-02-12T10:04:47.000Z</Time>
            <Position>
              <LatitudeDegrees>40.670088864862918853759765625</LatitudeDegrees>
              <LongitudeDegrees>24.73119758069515228271484375</LongitudeDegrees>
            </Position>
            <AltitudeMeters>515.4000244140625</AltitudeMeters>
            <DistanceMeters>4091.9418348225</DistanceMeters>
          </Trackpoint>
          <Trackpoint>
            <Time>2022-02-12T10:04:48.000Z</Time>
            <Position>
              <LatitudeDegrees>40.67007444798946380615234375</LatitudeDegrees>
              <LongitudeDegrees>24.73121074028313159942626953125</LongitudeDegrees>
            </Position>
            <AltitudeMeters>515.4000244140625</AltitudeMeters>
            <DistanceMeters>4093.8939342717</DistanceMeters>
          </Trackpoint>
          <Trackpoint>
            <Time>2022-02-12T10:04:50.000Z</Time>
            <Position>
              <LatitudeDegrees>40.67005273886024951934814453125</LatitudeDegrees>
              <LongitudeDegrees>24.7312349639832973480224609375</LongitudeDegrees>
            </Position>
            <AltitudeMeters>515.79998779296875</AltitudeMeters>
            <DistanceMeters>4097.0584808073</DistanceMeters>
          </Trackpoint>
          <Trackpoint>
            <Time>2022-02-12T10:04:53.000Z</Time>
            <Position>
              <LatitudeDegrees>40.6700263358652591705322265625</LatitudeDegrees>
              <LongitudeDegrees>24.7312698327004909515380859375</LongitudeDegrees>
            </Position>
            <AltitudeMeters>516.20001220703125</AltitudeMeters>
            <DistanceMeters>4101.2180031918</DistanceMeters>
          </Trackpoint>
          <Trackpoint>
            <Time>2022-02-12T10:04:55.000Z</Time>
            <Position>
              <LatitudeDegrees>40.6700067222118377685546875</LatitudeDegrees>
              <LongitudeDegrees>24.73129749298095703125</LongitudeDegrees>
            </Position>
            <AltitudeMeters>516.4000244140625</AltitudeMeters>
            <DistanceMeters>4104.4151967321</DistanceMeters>
          </Trackpoint>
          <Trackpoint>
            <Time>2022-02-12T10:04:56.000Z</Time>
            <Position>
              <LatitudeDegrees>40.6699968315660953521728515625</LatitudeDegrees>
              <LongitudeDegrees>24.7313087247312068939208984375</LongitudeDegrees>
            </Position>
            <AltitudeMeters>516.5999755859375</AltitudeMeters>
            <DistanceMeters>4105.8688259448</DistanceMeters>
          </Trackpoint>
          <Trackpoint>
            <Time>2022-02-12T10:05:00.000Z</Time>
            <Position>
              <LatitudeDegrees>40.66994595341384410858154296875</LatitudeDegrees>
              <LongitudeDegrees>24.731347449123859405517578125</LongitudeDegrees>
            </Position>
            <AltitudeMeters>516.79998779296875</AltitudeMeters>
            <DistanceMeters>4112.4070506186</DistanceMeters>
          </Trackpoint>
          <Trackpoint>
            <Time>2022-02-12T10:05:02.000Z</Time>
            <Position>
              <LatitudeDegrees>40.6699213944375514984130859375</LatitudeDegrees>
              <LongitudeDegrees>24.7313677333295345306396484375</LongitudeDegrees>
            </Position>
            <AltitudeMeters>517</AltitudeMeters>
            <DistanceMeters>4115.629563289</DistanceMeters>
          </Trackpoint>
          <Trackpoint>
            <Time>2022-02-12T10:05:08.000Z</Time>
            <Position>
              <LatitudeDegrees>40.66985760815441608428955078125</LatitudeDegrees>
              <LongitudeDegrees>24.731417857110500335693359375</LongitudeDegrees>
            </Position>
            <AltitudeMeters>517.4000244140625</AltitudeMeters>
            <DistanceMeters>4123.8941563354</DistanceMeters>
          </Trackpoint>
          <Trackpoint>
            <Time>2022-02-12T10:05:12.000Z</Time>
            <Position>
              <LatitudeDegrees>40.66981418989598751068115234375</LatitudeDegrees>
              <LongitudeDegrees>24.7314817272126674652099609375</LongitudeDegrees>
            </Position>
            <AltitudeMeters>517.79998779296875</AltitudeMeters>
            <DistanceMeters>4131.1349176098</DistanceMeters>
          </Trackpoint>
          <Trackpoint>
            <Time>2022-02-12T10:05:17.000Z</Time>
            <Position>
              <LatitudeDegrees>40.66977412439882755279541015625</LatitudeDegrees>
              <LongitudeDegrees>24.73156546242535114288330078125</LongitudeDegrees>
            </Position>
            <AltitudeMeters>518.5999755859375</AltitudeMeters>
            <DistanceMeters>4139.4929479621</DistanceMeters>
          </Trackpoint>
          <Trackpoint>
            <Time>2022-02-12T10:05:19.000Z</Time>
            <Position>
              <LatitudeDegrees>40.66976591013371944427490234375</LatitudeDegrees>
              <LongitudeDegrees>24.7315957210958003997802734375</LongitudeDegrees>
            </Position>
            <AltitudeMeters>519</AltitudeMeters>
            <DistanceMeters>4142.20745388</DistanceMeters>
          </Trackpoint>
          <Trackpoint>
            <Time>2022-02-12T10:05:25.000Z</Time>
            <Position>
              <LatitudeDegrees>40.66972986795008182525634765625</LatitudeDegrees>
              <LongitudeDegrees>24.73169286735355854034423828125</LongitudeDegrees>
            </Position>
            <AltitudeMeters>519.20001220703125</AltitudeMeters>
            <DistanceMeters>4151.3369448613</DistanceMeters>
          </Trackpoint>
          <Trackpoint>
            <Time>2022-02-12T10:05:29.000Z</Time>
            <Position>
              <LatitudeDegrees>40.66972307860851287841796875</LatitudeDegrees>
              <LongitudeDegrees>24.7317576594650745391845703125</LongitudeDegrees>
            </Position>
            <AltitudeMeters>519.5999755859375</AltitudeMeters>
            <DistanceMeters>4156.8583158935</DistanceMeters>
          </Trackpoint>
          <Trackpoint>
            <Time>2022-02-12T10:05:31.000Z</Time>
            <Position>
              <LatitudeDegrees>40.66972550936043262481689453125</LatitudeDegrees>
              <LongitudeDegrees>24.73178657703101634979248046875</LongitudeDegrees>
            </Position>
            <AltitudeMeters>519.79998779296875</AltitudeMeters>
            <DistanceMeters>4159.3143474618</DistanceMeters>
          </Trackpoint>
          <Trackpoint>
            <Time>2022-02-12T10:05:37.000Z</Time>
            <Position>
              <LatitudeDegrees>40.66974361427128314971923828125</LatitudeDegrees>
              <LongitudeDegrees>24.73188531585037708282470703125</LongitudeDegrees>
            </Position>
            <AltitudeMeters>520.20001220703125</AltitudeMeters>
            <DistanceMeters>4167.8899490477</DistanceMeters>
          </Trackpoint>
          <Trackpoint>
            <Time>2022-02-12T10:05:40.000Z</Time>
            <Position>
              <LatitudeDegrees>40.6697577796876430511474609375</LatitudeDegrees>
              <LongitudeDegrees>24.7319242917001247406005859375</LongitudeDegrees>
            </Position>
            <AltitudeMeters>520.5999755859375</AltitudeMeters>
            <DistanceMeters>4171.5382819106</DistanceMeters>
          </Trackpoint>
          <Trackpoint>
            <Time>2022-02-12T10:05:43.000Z</Time>
            <Position>
              <LatitudeDegrees>40.669763982295989990234375</LatitudeDegrees>
              <LongitudeDegrees>24.7319662012159824371337890625</LongitudeDegrees>
            </Position>
            <AltitudeMeters>521</AltitudeMeters>
            <DistanceMeters>4175.1430398779</DistanceMeters>
          </Trackpoint>
          <Trackpoint>
            <Time>2022-02-12T10:05:45.000Z</Time>
            <Position>
              <LatitudeDegrees>40.66976725123822689056396484375</LatitudeDegrees>
              <LongitudeDegrees>24.73200165666639804840087890625</LongitudeDegrees>
            </Position>
            <AltitudeMeters>521.20001220703125</AltitudeMeters>
            <DistanceMeters>4178.1600445274</DistanceMeters>
          </Trackpoint>
          <Trackpoint>
            <Time>2022-02-12T10:05:48.000Z</Time>
            <Position>
              <LatitudeDegrees>40.6697711907327175140380859375</LatitudeDegrees>
              <LongitudeDegrees>24.732053540647029876708984375</LongitudeDegrees>
            </Position>
            <AltitudeMeters>521.4000244140625</AltitudeMeters>
            <DistanceMeters>4182.5631768358</DistanceMeters>
          </Trackpoint>
          <Trackpoint>
            <Time>2022-02-12T10:05:50.000Z</Time>
            <Position>
              <LatitudeDegrees>40.66977160982787609100341796875</LatitudeDegrees>
              <LongitudeDegrees>24.7320862300693988800048828125</LongitudeDegrees>
            </Position>
            <AltitudeMeters>521.5999755859375</AltitudeMeters>
            <DistanceMeters>4185.32222639</DistanceMeters>
          </Trackpoint>
          <Trackpoint>
            <Time>2022-02-12T10:05:52.000Z</Time>
            <Position>
              <LatitudeDegrees>40.66977680660784244537353515625</LatitudeDegrees>
              <LongitudeDegrees>24.7321177460253238677978515625</LongitudeDegrees>
            </Position>
            <AltitudeMeters>521.5999755859375</AltitudeMeters>
            <DistanceMeters>4188.045036108</DistanceMeters>
          </Trackpoint>
          <Trackpoint>
            <Time>2022-02-12T10:05:54.000Z</Time>
            <Position>
              <LatitudeDegrees>40.6697829253971576690673828125</LatitudeDegrees>
              <LongitudeDegrees>24.732149429619312286376953125</LongitudeDegrees>
            </Position>
            <AltitudeMeters>521.79998779296875</AltitudeMeters>
            <DistanceMeters>4190.8057216241</DistanceMeters>
          </Trackpoint>
          <Trackpoint>
            <Time>2022-02-12T10:05:55.000Z</Time>
            <Position>
              <LatitudeDegrees>40.66978904418647289276123046875</LatitudeDegrees>
              <LongitudeDegrees>24.73216393031179904937744140625</LongitudeDegrees>
            </Position>
            <AltitudeMeters>522.20001220703125</AltitudeMeters>
            <DistanceMeters>4192.2055525383</DistanceMeters>
          </Trackpoint>
          <Trackpoint>
            <Time>2022-02-12T10:05:56.000Z</Time>
            <Position>
              <LatitudeDegrees>40.66979491151869297027587890625</LatitudeDegrees>
              <LongitudeDegrees>24.73217658698558807373046875</LongitudeDegrees>
            </Position>
            <AltitudeMeters>522.5999755859375</AltitudeMeters>
            <DistanceMeters>4193.459040991</DistanceMeters>
          </Trackpoint>
          <Trackpoint>
            <Time>2022-02-12T10:05:58.000Z</Time>
            <Position>
              <LatitudeDegrees>40.669805221259593963623046875</LatitudeDegrees>
              <LongitudeDegrees>24.73220617510378360748291015625</LongitudeDegrees>
            </Position>
            <AltitudeMeters>523.20001220703125</AltitudeMeters>
            <DistanceMeters>4196.2098961417</DistanceMeters>
          </Trackpoint>
          <Trackpoint>
            <Time>2022-02-12T10:06:02.000Z</Time>
            <Position>
              <LatitudeDegrees>40.66983128897845745086669921875</LatitudeDegrees>
              <LongitudeDegrees>24.73227172158658504486083984375</LongitudeDegrees>
            </Position>
            <AltitudeMeters>524.20001220703125</AltitudeMeters>
            <DistanceMeters>4202.4585800466</DistanceMeters>
          </Trackpoint>
          <Trackpoint>
            <Time>2022-02-12T10:06:03.000Z</Time>
            <Position>
              <LatitudeDegrees>40.66983698867261409759521484375</LatitudeDegrees>
              <LongitudeDegrees>24.73229016177356243133544921875</LongitudeDegrees>
            </Position>
            <AltitudeMeters>524.4000244140625</AltitudeMeters>
            <DistanceMeters>4204.1370864811</DistanceMeters>
          </Trackpoint>
          <Trackpoint>
            <Time>2022-02-12T10:06:08.000Z</Time>
            <Position>
              <LatitudeDegrees>40.66985190846025943756103515625</LatitudeDegrees>
              <LongitudeDegrees>24.73237775266170501708984375</LongitudeDegrees>
            </Position>
            <AltitudeMeters>525.20001220703125</AltitudeMeters>
            <DistanceMeters>4211.7154297158</DistanceMeters>
          </Trackpoint>
          <Trackpoint>
            <Time>2022-02-12T10:06:10.000Z</Time>
            <Position>
              <LatitudeDegrees>40.669863559305667877197265625</LatitudeDegrees>
              <LongitudeDegrees>24.7324070893228054046630859375</LongitudeDegrees>
            </Position>
            <AltitudeMeters>525.5999755859375</AltitudeMeters>
            <DistanceMeters>4214.5086332615</DistanceMeters>
          </Trackpoint>
          <Trackpoint>
            <Time>2022-02-12T10:06:14.000Z</Time>
            <Position>
              <LatitudeDegrees>40.66988191567361354827880859375</LatitudeDegrees>
              <LongitudeDegrees>24.732463248074054718017578125</LongitudeDegrees>
            </Position>
            <AltitudeMeters>526</AltitudeMeters>
            <DistanceMeters>4219.6707796742</DistanceMeters>
          </Trackpoint>
          <Trackpoint>
            <Time>2022-02-12T10:06:17.000Z</Time>
            <Position>
              <LatitudeDegrees>40.669903121888637542724609375</LatitudeDegrees>
              <LongitudeDegrees>24.73249954171478748321533203125</LongitudeDegrees>
            </Position>
            <AltitudeMeters>526.4000244140625</AltitudeMeters>
            <DistanceMeters>4223.5377948786</DistanceMeters>
          </Trackpoint>
          <Trackpoint>
            <Time>2022-02-12T10:06:18.000Z</Time>
            <Position>
              <LatitudeDegrees>40.66991125233471393585205078125</LatitudeDegrees>
              <LongitudeDegrees>24.732510857284069061279296875</LongitudeDegrees>
            </Position>
            <AltitudeMeters>526.5999755859375</AltitudeMeters>
            <DistanceMeters>4224.8545236576</DistanceMeters>
          </Trackpoint>
          <Trackpoint>
            <Time>2022-02-12T10:06:20.000Z</Time>
            <Position>
              <LatitudeDegrees>40.6699257530272006988525390625</LatitudeDegrees>
              <LongitudeDegrees>24.73253826610743999481201171875</LongitudeDegrees>
            </Position>
            <AltitudeMeters>527</AltitudeMeters>
            <DistanceMeters>4227.6766730908</DistanceMeters>
          </Trackpoint>
          <Trackpoint>
            <Time>2022-02-12T10:06:23.000Z</Time>
            <Position>
              <LatitudeDegrees>40.66994880326092243194580078125</LatitudeDegrees>
              <LongitudeDegrees>24.7325686924159526824951171875</LongitudeDegrees>
            </Position>
            <AltitudeMeters>527</AltitudeMeters>
            <DistanceMeters>4231.3076387486</DistanceMeters>
          </Trackpoint>
          <Trackpoint>
            <Time>2022-02-12T10:06:27.000Z</Time>
            <Position>
              <LatitudeDegrees>40.66997612826526165008544921875</LatitudeDegrees>
              <LongitudeDegrees>24.732606746256351470947265625</LongitudeDegrees>
            </Position>
            <AltitudeMeters>527.4000244140625</AltitudeMeters>
            <DistanceMeters>4235.7312318192</DistanceMeters>
          </Trackpoint>
          <Trackpoint>
            <Time>2022-02-12T10:06:30.000Z</Time>
            <Position>
              <LatitudeDegrees>40.67000730894505977630615234375</LatitudeDegrees>
              <LongitudeDegrees>24.7326411120593547821044921875</LongitudeDegrees>
            </Position>
            <AltitudeMeters>527.79998779296875</AltitudeMeters>
            <DistanceMeters>4240.25474298</DistanceMeters>
          </Trackpoint>
          <Trackpoint>
            <Time>2022-02-12T10:06:36.000Z</Time>
            <Position>
              <LatitudeDegrees>40.670064724981784820556640625</LatitudeDegrees>
              <LongitudeDegrees>24.7326977737247943878173828125</LongitudeDegrees>
            </Position>
            <AltitudeMeters>528.20001220703125</AltitudeMeters>
            <DistanceMeters>4248.2375526022</DistanceMeters>
          </Trackpoint>
          <Trackpoint>
            <Time>2022-02-12T10:06:38.000Z</Time>
            <Position>
              <LatitudeDegrees>40.67008920013904571533203125</LatitudeDegrees>
              <LongitudeDegrees>24.7327192313969135284423828125</LongitudeDegrees>
            </Position>
            <AltitudeMeters>528.4000244140625</AltitudeMeters>
            <DistanceMeters>4251.510115919</DistanceMeters>
          </Trackpoint>
          <Trackpoint>
            <Time>2022-02-12T10:06:44.000Z</Time>
            <Position>
              <LatitudeDegrees>40.6701580993831157684326171875</LatitudeDegrees>
              <LongitudeDegrees>24.73277270793914794921875</LongitudeDegrees>
            </Position>
            <AltitudeMeters>529.20001220703125</AltitudeMeters>
            <DistanceMeters>4260.4086967237</DistanceMeters>
          </Trackpoint>
          <Trackpoint>
            <Time>2022-02-12T10:06:46.000Z</Time>
            <Position>
              <LatitudeDegrees>40.6701808981597423553466796875</LatitudeDegrees>
              <LongitudeDegrees>24.732788465917110443115234375</LongitudeDegrees>
            </Position>
            <AltitudeMeters>529.5999755859375</AltitudeMeters>
            <DistanceMeters>4263.2721403518</DistanceMeters>
          </Trackpoint>
          <Trackpoint>
            <Time>2022-02-12T10:06:51.000Z</Time>
            <Position>
              <LatitudeDegrees>40.67024208605289459228515625</LatitudeDegrees>
              <LongitudeDegrees>24.732842110097408294677734375</LongitudeDegrees>
            </Position>
            <AltitudeMeters>530.4000244140625</AltitudeMeters>
            <DistanceMeters>4271.4499607303</DistanceMeters>
          </Trackpoint>
          <Trackpoint>
            <Time>2022-02-12T10:06:52.000Z</Time>
            <Position>
              <LatitudeDegrees>40.670255832374095916748046875</LatitudeDegrees>
              <LongitudeDegrees>24.732850827276706695556640625</LongitudeDegrees>
            </Position>
            <AltitudeMeters>530.5999755859375</AltitudeMeters>
            <DistanceMeters>4273.1445297933</DistanceMeters>
          </Trackpoint>
          <Trackpoint>
            <Time>2022-02-12T10:06:58.000Z</Time>
            <Position>
              <LatitudeDegrees>40.6703300960361957550048828125</LatitudeDegrees>
              <LongitudeDegrees>24.73291327245533466339111328125</LongitudeDegrees>
            </Position>
            <AltitudeMeters>530.79998779296875</AltitudeMeters>
            <DistanceMeters>4282.9479528482</DistanceMeters>
          </Trackpoint>
          <Trackpoint>
            <Time>2022-02-12T10:06:59.000Z</Time>
            <Position>
              <LatitudeDegrees>40.67034224979579448699951171875</LatitudeDegrees>
              <LongitudeDegrees>24.7329240851104259490966796875</LongitudeDegrees>
            </Position>
            <AltitudeMeters>530.79998779296875</AltitudeMeters>
            <DistanceMeters>4284.5800902661</DistanceMeters>
          </Trackpoint>
          <Trackpoint>
            <Time>2022-02-12T10:07:03.000Z</Time>
            <Position>
              <LatitudeDegrees>40.67039555869996547698974609375</LatitudeDegrees>
              <LongitudeDegrees>24.7329673357307910919189453125</LongitudeDegrees>
            </Position>
            <AltitudeMeters>531</AltitudeMeters>
            <DistanceMeters>4291.5462678988</DistanceMeters>
          </Trackpoint>
          <Trackpoint>
            <Time>2022-02-12T10:07:06.000Z</Time>
            <Position>
              <LatitudeDegrees>40.67041181959211826324462890625</LatitudeDegrees>
              <LongitudeDegrees>24.7330136038362979888916015625</LongitudeDegrees>
            </Position>
            <AltitudeMeters>531.20001220703125</AltitudeMeters>
            <DistanceMeters>4295.8508836613</DistanceMeters>
          </Trackpoint>
          <Trackpoint>
            <Time>2022-02-12T10:07:10.000Z</Time>
            <Position>
              <LatitudeDegrees>40.67045087926089763641357421875</LatitudeDegrees>
              <LongitudeDegrees>24.7330726124346256256103515625</LongitudeDegrees>
            </Position>
            <AltitudeMeters>531.79998779296875</AltitudeMeters>
            <DistanceMeters>4302.4625854139</DistanceMeters>
          </Trackpoint>
          <Trackpoint>
            <Time>2022-02-12T10:07:12.000Z</Time>
            <Position>
              <LatitudeDegrees>40.67045607604086399078369140625</LatitudeDegrees>
              <LongitudeDegrees>24.733108319342136383056640625</LongitudeDegrees>
            </Position>
            <AltitudeMeters>532</AltitudeMeters>
            <DistanceMeters>4305.5329925217</DistanceMeters>
          </Trackpoint>
          <Trackpoint>
            <Time>2022-02-12T10:07:15.000Z</Time>
            <Position>
              <LatitudeDegrees>40.67043679766356945037841796875</LatitudeDegrees>
              <LongitudeDegrees>24.73316338844597339630126953125</LongitudeDegrees>
            </Position>
            <AltitudeMeters>532.79998779296875</AltitudeMeters>
            <DistanceMeters>4310.6538656887</DistanceMeters>
          </Trackpoint>
          <Trackpoint>
            <Time>2022-02-12T10:07:17.000Z</Time>
            <Position>
              <LatitudeDegrees>40.6704206205904483795166015625</LatitudeDegrees>
              <LongitudeDegrees>24.7332097403705120086669921875</LongitudeDegrees>
            </Position>
            <AltitudeMeters>533</AltitudeMeters>
            <DistanceMeters>4314.9605787063</DistanceMeters>
          </Trackpoint>
          <Trackpoint>
            <Time>2022-02-12T10:07:23.000Z</Time>
            <Position>
              <LatitudeDegrees>40.670327581465244293212890625</LatitudeDegrees>
              <LongitudeDegrees>24.733324907720088958740234375</LongitudeDegrees>
            </Position>
            <AltitudeMeters>533.4000244140625</AltitudeMeters>
            <DistanceMeters>4329.1650860214</DistanceMeters>
          </Trackpoint>
          <Trackpoint>
            <Time>2022-02-12T10:07:29.000Z</Time>
            <Position>
              <LatitudeDegrees>40.67021367140114307403564453125</LatitudeDegrees>
              <LongitudeDegrees>24.7333954833447933197021484375</LongitudeDegrees>
            </Position>
            <AltitudeMeters>533.20001220703125</AltitudeMeters>
            <DistanceMeters>4343.173712695</DistanceMeters>
          </Trackpoint>
          <Trackpoint>
            <Time>2022-02-12T10:07:35.000Z</Time>
            <Position>
              <LatitudeDegrees>40.6701507233083248138427734375</LatitudeDegrees>
              <LongitudeDegrees>24.73346312530338764190673828125</LongitudeDegrees>
            </Position>
            <AltitudeMeters>533.4000244140625</AltitudeMeters>
            <DistanceMeters>4352.2117474101</DistanceMeters>
          </Trackpoint>
          <Trackpoint>
            <Time>2022-02-12T10:07:37.000Z</Time>
            <Position>
              <LatitudeDegrees>40.6701379828155040740966796875</LatitudeDegrees>
              <LongitudeDegrees>24.73348793573677539825439453125</LongitudeDegrees>
            </Position>
            <AltitudeMeters>533.5999755859375</AltitudeMeters>
            <DistanceMeters>4354.7402438254</DistanceMeters>
          </Trackpoint>
          <Trackpoint>
            <Time>2022-02-12T10:07:40.000Z</Time>
            <Position>
              <LatitudeDegrees>40.67010638304054737091064453125</LatitudeDegrees>
              <LongitudeDegrees>24.733518697321414947509765625</LongitudeDegrees>
            </Position>
            <AltitudeMeters>533.79998779296875</AltitudeMeters>
            <DistanceMeters>4359.1135379967</DistanceMeters>
          </Trackpoint>
          <Trackpoint>
            <Time>2022-02-12T10:07:45.000Z</Time>
            <Position>
              <LatitudeDegrees>40.67004569806158542633056640625</LatitudeDegrees>
              <LongitudeDegrees>24.7335671447217464447021484375</LongitudeDegrees>
            </Position>
            <AltitudeMeters>534.5999755859375</AltitudeMeters>
            <DistanceMeters>4367.0093373716</DistanceMeters>
          </Trackpoint>
          <Trackpoint>
            <Time>2022-02-12T10:07:48.000Z</Time>
            <Position>
              <LatitudeDegrees>40.670027174055576324462890625</LatitudeDegrees>
              <LongitudeDegrees>24.73359153605997562408447265625</LongitudeDegrees>
            </Position>
            <AltitudeMeters>535</AltitudeMeters>
            <DistanceMeters>4369.9228012649</DistanceMeters>
          </Trackpoint>
          <Trackpoint>
            <Time>2022-02-12T10:07:53.000Z</Time>
            <Position>
              <LatitudeDegrees>40.66999666392803192138671875</LatitudeDegrees>
              <LongitudeDegrees>24.73361534066498279571533203125</LongitudeDegrees>
            </Position>
            <AltitudeMeters>535.4000244140625</AltitudeMeters>
            <DistanceMeters>4373.8684129778</DistanceMeters>
          </Trackpoint>
          <Trackpoint>
            <Time>2022-02-12T10:07:57.000Z</Time>
            <Position>
              <LatitudeDegrees>40.66995752044022083282470703125</LatitudeDegrees>
              <LongitudeDegrees>24.73362204618752002716064453125</LongitudeDegrees>
            </Position>
            <AltitudeMeters>536</AltitudeMeters>
            <DistanceMeters>4378.2623068588</DistanceMeters>
          </Trackpoint>
          <Trackpoint>
            <Time>2022-02-12T10:08:00.000Z</Time>
            <Position>
              <LatitudeDegrees>40.66992533393204212188720703125</LatitudeDegrees>
              <LongitudeDegrees>24.73362321965396404266357421875</LongitudeDegrees>
            </Position>
            <AltitudeMeters>536.20001220703125</AltitudeMeters>
            <DistanceMeters>4381.8457086927</DistanceMeters>
          </Trackpoint>
          <Trackpoint>
            <Time>2022-02-12T10:08:01.000Z</Time>
            <Position>
              <LatitudeDegrees>40.6699086539447307586669921875</LatitudeDegrees>
              <LongitudeDegrees>24.73362841643393039703369140625</LongitudeDegrees>
            </Position>
            <AltitudeMeters>536.20001220703125</AltitudeMeters>
            <DistanceMeters>4383.7509883915</DistanceMeters>
          </Trackpoint>
          <Trackpoint>
            <Time>2022-02-12T10:08:06.000Z</Time>
            <Position>
              <LatitudeDegrees>40.66983547993004322052001953125</LatitudeDegrees>
              <LongitudeDegrees>24.7336875088512897491455078125</LongitudeDegrees>
            </Position>
            <AltitudeMeters>536.4000244140625</AltitudeMeters>
            <DistanceMeters>4393.3020004968</DistanceMeters>
          </Trackpoint>
          <Trackpoint>
            <Time>2022-02-12T10:08:10.000Z</Time>
            <Position>
              <LatitudeDegrees>40.66979642026126384735107421875</LatitudeDegrees>
              <LongitudeDegrees>24.73375062458217144012451171875</LongitudeDegrees>
            </Position>
            <AltitudeMeters>537</AltitudeMeters>
            <DistanceMeters>4400.1788101014</DistanceMeters>
          </Trackpoint>
          <Trackpoint>
            <Time>2022-02-12T10:08:14.000Z</Time>
            <Position>
              <LatitudeDegrees>40.6697654910385608673095703125</LatitudeDegrees>
              <LongitudeDegrees>24.73382136784493923187255859375</LongitudeDegrees>
            </Position>
            <AltitudeMeters>537.79998779296875</AltitudeMeters>
            <DistanceMeters>4407.0720141639</DistanceMeters>
          </Trackpoint>
          <Trackpoint>
            <Time>2022-02-12T10:08:16.000Z</Time>
            <Position>
              <LatitudeDegrees>40.669741518795490264892578125</LatitudeDegrees>
              <LongitudeDegrees>24.73384785465896129608154296875</LongitudeDegrees>
            </Position>
            <AltitudeMeters>538.20001220703125</AltitudeMeters>
            <DistanceMeters>4410.5531580259</DistanceMeters>
          </Trackpoint>
          <Trackpoint>
            <Time>2022-02-12T10:08:20.000Z</Time>
            <Position>
              <LatitudeDegrees>40.66969566978514194488525390625</LatitudeDegrees>
              <LongitudeDegrees>24.73389429040253162384033203125</LongitudeDegrees>
            </Position>
            <AltitudeMeters>538.79998779296875</AltitudeMeters>
            <DistanceMeters>4416.9883682456</DistanceMeters>
          </Trackpoint>
          <Trackpoint>
            <Time>2022-02-12T10:08:22.000Z</Time>
            <Position>
              <LatitudeDegrees>40.6696709431707859039306640625</LatitudeDegrees>
              <LongitudeDegrees>24.73391457460820674896240234375</LongitudeDegrees>
            </Position>
            <AltitudeMeters>539.20001220703125</AltitudeMeters>
            <DistanceMeters>4420.2276503926</DistanceMeters>
          </Trackpoint>
          <Trackpoint>
            <Time>2022-02-12T10:08:26.000Z</Time>
            <Position>
              <LatitudeDegrees>40.669615454971790313720703125</LatitudeDegrees>
              <LongitudeDegrees>24.7339379601180553436279296875</LongitudeDegrees>
            </Position>
            <AltitudeMeters>539.5999755859375</AltitudeMeters>
            <DistanceMeters>4426.7103948554</DistanceMeters>
          </Trackpoint>
          <Trackpoint>
            <Time>2022-02-12T10:08:28.000Z</Time>
            <Position>
              <LatitudeDegrees>40.66959173418581485748291015625</LatitudeDegrees>
              <LongitudeDegrees>24.73394257016479969024658203125</LongitudeDegrees>
            </Position>
            <AltitudeMeters>539.79998779296875</AltitudeMeters>
            <DistanceMeters>4429.3796139012</DistanceMeters>
          </Trackpoint>
          <Trackpoint>
            <Time>2022-02-12T10:08:31.000Z</Time>
            <Position>
              <LatitudeDegrees>40.6695599667727947235107421875</LatitudeDegrees>
              <LongitudeDegrees>24.73396025598049163818359375</LongitudeDegrees>
            </Position>
            <AltitudeMeters>540.4000244140625</AltitudeMeters>
            <DistanceMeters>4433.2185049854</DistanceMeters>
          </Trackpoint>
          <Trackpoint>
            <Time>2022-02-12T10:08:33.000Z</Time>
            <Position>
              <LatitudeDegrees>40.66953339613974094390869140625</LatitudeDegrees>
              <LongitudeDegrees>24.733976013958454132080078125</LongitudeDegrees>
            </Position>
            <AltitudeMeters>540.5999755859375</AltitudeMeters>
            <DistanceMeters>4436.4619659544</DistanceMeters>
          </Trackpoint>
          <Trackpoint>
            <Time>2022-02-12T10:08:36.000Z</Time>
            <Position>
              <LatitudeDegrees>40.66949802450835704803466796875</LatitudeDegrees>
              <LongitudeDegrees>24.73400853574275970458984375</LongitudeDegrees>
            </Position>
            <AltitudeMeters>540.79998779296875</AltitudeMeters>
            <DistanceMeters>4441.2624612502</DistanceMeters>
          </Trackpoint>
          <Trackpoint>
            <Time>2022-02-12T10:08:42.000Z</Time>
            <Position>
              <LatitudeDegrees>40.66943432204425334930419921875</LatitudeDegrees>
              <LongitudeDegrees>24.7340844757854938507080078125</LongitudeDegrees>
            </Position>
            <AltitudeMeters>541.20001220703125</AltitudeMeters>
            <DistanceMeters>4450.8210340234</DistanceMeters>
          </Trackpoint>
          <Trackpoint>
            <Time>2022-02-12T10:08:43.000Z</Time>
            <Position>
              <LatitudeDegrees>40.6694246828556060791015625</LatitudeDegrees>
              <LongitudeDegrees>24.73409478552639484405517578125</LongitudeDegrees>
            </Position>
            <AltitudeMeters>541.4000244140625</AltitudeMeters>
            <DistanceMeters>4452.2046438694</DistanceMeters>
          </Trackpoint>
          <Trackpoint>
            <Time>2022-02-12T10:08:44.000Z</Time>
            <Position>
              <LatitudeDegrees>40.6694097630679607391357421875</LatitudeDegrees>
              <LongitudeDegrees>24.73410266451537609100341796875</LongitudeDegrees>
            </Position>
            <AltitudeMeters>541.5999755859375</AltitudeMeters>
            <DistanceMeters>4453.9925608309</DistanceMeters>
          </Trackpoint>
          <Trackpoint>
            <Time>2022-02-12T10:08:46.000Z</Time>
            <Position>
              <LatitudeDegrees>40.66938838921487331390380859375</LatitudeDegrees>
              <LongitudeDegrees>24.7341203503310680389404296875</LongitudeDegrees>
            </Position>
            <AltitudeMeters>541.79998779296875</AltitudeMeters>
            <DistanceMeters>4456.8018822458</DistanceMeters>
          </Trackpoint>
          <Trackpoint>
            <Time>2022-02-12T10:08:50.000Z</Time>
            <Position>
              <LatitudeDegrees>40.66934220492839813232421875</LatitudeDegrees>
              <LongitudeDegrees>24.7341580688953399658203125</LongitudeDegrees>
            </Position>
            <AltitudeMeters>542.4000244140625</AltitudeMeters>
            <DistanceMeters>4462.849345317</DistanceMeters>
          </Trackpoint>
          <Trackpoint>
            <Time>2022-02-12T10:08:52.000Z</Time>
            <Position>
              <LatitudeDegrees>40.66931563429534435272216796875</LatitudeDegrees>
              <LongitudeDegrees>24.7341768443584442138671875</LongitudeDegrees>
            </Position>
            <AltitudeMeters>542.5999755859375</AltitudeMeters>
            <DistanceMeters>4466.2036671932</DistanceMeters>
          </Trackpoint>
          <Trackpoint>
            <Time>2022-02-12T10:08:56.000Z</Time>
            <Position>
              <LatitudeDegrees>40.66926316358149051666259765625</LatitudeDegrees>
              <LongitudeDegrees>24.73421908915042877197265625</LongitudeDegrees>
            </Position>
            <AltitudeMeters>542.79998779296875</AltitudeMeters>
            <DistanceMeters>4473.0455906278</DistanceMeters>
          </Trackpoint>
          <Trackpoint>
            <Time>2022-02-12T10:08:58.000Z</Time>
            <Position>
              <LatitudeDegrees>40.669242627918720245361328125</LatitudeDegrees>
              <LongitudeDegrees>24.73424280993640422821044921875</LongitudeDegrees>
            </Position>
            <AltitudeMeters>543</AltitudeMeters>
            <DistanceMeters>4476.0834744515</DistanceMeters>
          </Trackpoint>
          <Trackpoint>
            <Time>2022-02-12T10:09:00.000Z</Time>
            <Position>
              <LatitudeDegrees>40.669222176074981689453125</LatitudeDegrees>
              <LongitudeDegrees>24.73426929675042629241943359375</LongitudeDegrees>
            </Position>
            <AltitudeMeters>543.4000244140625</AltitudeMeters>
            <DistanceMeters>4479.2750142411</DistanceMeters>
          </Trackpoint>
          <Trackpoint>
            <Time>2022-02-12T10:09:02.000Z</Time>
            <Position>
              <LatitudeDegrees>40.66920717246830463409423828125</LatitudeDegrees>
              <LongitudeDegrees>24.7342853061854839324951171875</LongitudeDegrees>
            </Position>
            <AltitudeMeters>543.5999755859375</AltitudeMeters>
            <DistanceMeters>4481.4252233331</DistanceMeters>
          </Trackpoint>
          <Trackpoint>
            <Time>2022-02-12T10:09:05.000Z</Time>
            <Position>
              <LatitudeDegrees>40.669182278215885162353515625</LatitudeDegrees>
              <LongitudeDegrees>24.734309278428554534912109375</LongitudeDegrees>
            </Position>
            <AltitudeMeters>544</AltitudeMeters>
            <DistanceMeters>4484.8567273303</DistanceMeters>
          </Trackpoint>
          <Trackpoint>
            <Time>2022-02-12T10:09:06.000Z</Time>
            <Position>
              <LatitudeDegrees>40.66917515359818935394287109375</LatitudeDegrees>
              <LongitudeDegrees>24.73431522957980632781982421875</LongitudeDegrees>
            </Position>
            <AltitudeMeters>544</AltitudeMeters>
            <DistanceMeters>4485.797443808</DistanceMeters>
          </Trackpoint>
          <Trackpoint>
            <Time>2022-02-12T10:09:09.000Z</Time>
            <Position>
              <LatitudeDegrees>40.66915084607899188995361328125</LatitudeDegrees>
              <LongitudeDegrees>24.73432998172938823699951171875</LongitudeDegrees>
            </Position>
            <AltitudeMeters>544.4000244140625</AltitudeMeters>
            <DistanceMeters>4488.7752844801</DistanceMeters>
          </Trackpoint>
          <Trackpoint>
            <Time>2022-02-12T10:09:12.000Z</Time>
            <Position>
              <LatitudeDegrees>40.669109858572483062744140625</LatitudeDegrees>
              <LongitudeDegrees>24.73436468280851840972900390625</LongitudeDegrees>
            </Position>
            <AltitudeMeters>544.4000244140625</AltitudeMeters>
            <DistanceMeters>4494.1959734352</DistanceMeters>
          </Trackpoint>
          <Trackpoint>
            <Time>2022-02-12T10:09:16.000Z</Time>
            <Position>
              <LatitudeDegrees>40.6690510176122188568115234375</LatitudeDegrees>
              <LongitudeDegrees>24.734410531818866729736328125</LongitudeDegrees>
            </Position>
            <AltitudeMeters>544.5999755859375</AltitudeMeters>
            <DistanceMeters>4501.8040474363</DistanceMeters>
          </Trackpoint>
          <Trackpoint>
            <Time>2022-02-12T10:09:17.000Z</Time>
            <Position>
              <LatitudeDegrees>40.66904246807098388671875</LatitudeDegrees>
              <LongitudeDegrees>24.7344220988452434539794921875</LongitudeDegrees>
            </Position>
            <AltitudeMeters>544.79998779296875</AltitudeMeters>
            <DistanceMeters>4503.1679373686</DistanceMeters>
          </Trackpoint>
          <Trackpoint>
            <Time>2022-02-12T10:09:18.000Z</Time>
            <Position>
              <LatitudeDegrees>40.66903450526297092437744140625</LatitudeDegrees>
              <LongitudeDegrees>24.73443240858614444732666015625</LongitudeDegrees>
            </Position>
            <AltitudeMeters>544.79998779296875</AltitudeMeters>
            <DistanceMeters>4504.4105729032</DistanceMeters>
          </Trackpoint>
          <Trackpoint>
            <Time>2022-02-12T10:09:24.000Z</Time>
            <Position>
              <LatitudeDegrees>40.66896493546664714813232421875</LatitudeDegrees>
              <LongitudeDegrees>24.73450549878180027008056640625</LongitudeDegrees>
            </Position>
            <AltitudeMeters>545</AltitudeMeters>
            <DistanceMeters>4514.3116087014</DistanceMeters>
          </Trackpoint>
          <Trackpoint>
            <Time>2022-02-12T10:09:26.000Z</Time>
            <Position>
              <LatitudeDegrees>40.6689445674419403076171875</LatitudeDegrees>
              <LongitudeDegrees>24.73452611826360225677490234375</LongitudeDegrees>
            </Position>
            <AltitudeMeters>545</AltitudeMeters>
            <DistanceMeters>4517.1687382233</DistanceMeters>
          </Trackpoint>
          <Trackpoint>
            <Time>2022-02-12T10:09:31.000Z</Time>
            <Position>
              <LatitudeDegrees>40.66889335401356220245361328125</LatitudeDegrees>
              <LongitudeDegrees>24.734574146568775177001953125</LongitudeDegrees>
            </Position>
            <AltitudeMeters>545</AltitudeMeters>
            <DistanceMeters>4524.1640212233</DistanceMeters>
          </Trackpoint>
          <Trackpoint>
            <Time>2022-02-12T10:09:35.000Z</Time>
            <Position>
              <LatitudeDegrees>40.66885379143059253692626953125</LatitudeDegrees>
              <LongitudeDegrees>24.73461681045591831207275390625</LongitudeDegrees>
            </Position>
            <AltitudeMeters>545.79998779296875</AltitudeMeters>
            <DistanceMeters>4529.854526836</DistanceMeters>
          </Trackpoint>
          <Trackpoint>
            <Time>2022-02-12T10:09:38.000Z</Time>
            <Position>
              <LatitudeDegrees>40.66882814280688762664794921875</LatitudeDegrees>
              <LongitudeDegrees>24.73464195616543292999267578125</LongitudeDegrees>
            </Position>
            <AltitudeMeters>546.20001220703125</AltitudeMeters>
            <DistanceMeters>4533.412639703</DistanceMeters>
          </Trackpoint>
          <Trackpoint>
            <Time>2022-02-12T10:09:40.000Z</Time>
            <Position>
              <LatitudeDegrees>40.6688086129724979400634765625</LatitudeDegrees>
              <LongitudeDegrees>24.7346621565520763397216796875</LongitudeDegrees>
            </Position>
            <AltitudeMeters>546.5999755859375</AltitudeMeters>
            <DistanceMeters>4536.1749602121</DistanceMeters>
          </Trackpoint>
          <Trackpoint>
            <Time>2022-02-12T10:09:41.000Z</Time>
            <Position>
              <LatitudeDegrees>40.668799392879009246826171875</LatitudeDegrees>
              <LongitudeDegrees>24.7346708737313747406005859375</LongitudeDegrees>
            </Position>
            <AltitudeMeters>546.79998779296875</AltitudeMeters>
            <DistanceMeters>4537.4392084198</DistanceMeters>
          </Trackpoint>
          <Trackpoint>
            <Time>2022-02-12T10:17:37.000Z</Time>
            <Position>
              <LatitudeDegrees>40.6689678691327571868896484375</LatitudeDegrees>
              <LongitudeDegrees>24.734480269253253936767578125</LongitudeDegrees>
            </Position>
            <AltitudeMeters>547.20001220703125</AltitudeMeters>
            <DistanceMeters>4562.1487124351</DistanceMeters>
          </Trackpoint>
          <Trackpoint>
            <Time>2022-02-12T10:17:38.000Z</Time>
            <Position>
              <LatitudeDegrees>40.66897968761622905731201171875</LatitudeDegrees>
              <LongitudeDegrees>24.7344827838242053985595703125</LongitudeDegrees>
            </Position>
            <AltitudeMeters>547.20001220703125</AltitudeMeters>
            <DistanceMeters>4563.4858568312</DistanceMeters>
          </Trackpoint>
          <Trackpoint>
            <Time>2022-02-12T10:17:39.000Z</Time>
            <Position>
              <LatitudeDegrees>40.6689896620810031890869140625</LatitudeDegrees>
              <LongitudeDegrees>24.73448286764323711395263671875</LongitudeDegrees>
            </Position>
            <AltitudeMeters>547.20001220703125</AltitudeMeters>
            <DistanceMeters>4564.5981160064</DistanceMeters>
          </Trackpoint>
          <Trackpoint>
            <Time>2022-02-12T10:17:41.000Z</Time>
            <Position>
              <LatitudeDegrees>40.6690198369324207305908203125</LatitudeDegrees>
              <LongitudeDegrees>24.73448521457612514495849609375</LongitudeDegrees>
            </Position>
            <AltitudeMeters>546.20001220703125</AltitudeMeters>
            <DistanceMeters>4567.9631889418</DistanceMeters>
          </Trackpoint>
          <Trackpoint>
            <Time>2022-02-12T10:17:42.000Z</Time>
            <Position>
              <LatitudeDegrees>40.6690342538058757781982421875</LatitudeDegrees>
              <LongitudeDegrees>24.7344827838242053985595703125</LongitudeDegrees>
            </Position>
            <AltitudeMeters>545.20001220703125</AltitudeMeters>
            <DistanceMeters>4569.5842232552</DistanceMeters>
          </Trackpoint>
          <Trackpoint>
            <Time>2022-02-12T10:17:44.000Z</Time>
            <Position>
              <LatitudeDegrees>40.66906669177114963531494140625</LatitudeDegrees>
              <LongitudeDegrees>24.73448169417679309844970703125</LongitudeDegrees>
            </Position>
            <AltitudeMeters>544.20001220703125</AltitudeMeters>
            <DistanceMeters>4573.1977382389</DistanceMeters>
          </Trackpoint>
          <Trackpoint>
            <Time>2022-02-12T10:17:46.000Z</Time>
            <Position>
              <LatitudeDegrees>40.66909586079418659210205078125</LatitudeDegrees>
              <LongitudeDegrees>24.73448119126260280609130859375</LongitudeDegrees>
            </Position>
            <AltitudeMeters>543.79998779296875</AltitudeMeters>
            <DistanceMeters>4576.4439821007</DistanceMeters>
          </Trackpoint>
          <Trackpoint>
            <Time>2022-02-12T10:17:49.000Z</Time>
            <Position>
              <LatitudeDegrees>40.6691229343414306640625</LatitudeDegrees>
              <LongitudeDegrees>24.73448932170867919921875</LongitudeDegrees>
            </Position>
            <AltitudeMeters>544.20001220703125</AltitudeMeters>
            <DistanceMeters>4579.5334465853</DistanceMeters>
          </Trackpoint>
          <Trackpoint>
            <Time>2022-02-12T10:17:50.000Z</Time>
            <Position>
              <LatitudeDegrees>40.66913173533976078033447265625</LatitudeDegrees>
              <LongitudeDegrees>24.7344854660332202911376953125</LongitudeDegrees>
            </Position>
            <AltitudeMeters>544.79998779296875</AltitudeMeters>
            <DistanceMeters>4580.5700656555</DistanceMeters>
          </Trackpoint>
          <Trackpoint>
            <Time>2022-02-12T10:17:51.000Z</Time>
            <Position>
              <LatitudeDegrees>40.669137351214885711669921875</LatitudeDegrees>
              <LongitudeDegrees>24.734474904835224151611328125</LongitudeDegrees>
            </Position>
            <AltitudeMeters>545.20001220703125</AltitudeMeters>
            <DistanceMeters>4581.657696114</DistanceMeters>
          </Trackpoint>
          <Trackpoint>
            <Time>2022-02-12T10:17:53.000Z</Time>
            <Position>
              <LatitudeDegrees>40.6691566295921802520751953125</LatitudeDegrees>
              <LongitudeDegrees>24.7344589792191982269287109375</LongitudeDegrees>
            </Position>
            <AltitudeMeters>545.79998779296875</AltitudeMeters>
            <DistanceMeters>4584.1861925293</DistanceMeters>
          </Trackpoint>
          <Trackpoint>
            <Time>2022-02-12T10:17:55.000Z</Time>
            <Position>
              <LatitudeDegrees>40.66918303258717060089111328125</LatitudeDegrees>
              <LongitudeDegrees>24.7344552911818027496337890625</LongitudeDegrees>
            </Position>
            <AltitudeMeters>546.20001220703125</AltitudeMeters>
            <DistanceMeters>4587.1396741773</DistanceMeters>
          </Trackpoint>
          <Trackpoint>
            <Time>2022-02-12T10:17:56.000Z</Time>
            <Position>
              <LatitudeDegrees>40.6691940128803253173828125</LatitudeDegrees>
              <LongitudeDegrees>24.73446157760918140411376953125</LongitudeDegrees>
            </Position>
            <AltitudeMeters>546.4000244140625</AltitudeMeters>
            <DistanceMeters>4588.4700481784</DistanceMeters>
          </Trackpoint>
          <Trackpoint>
            <Time>2022-02-12T10:17:59.000Z</Time>
            <Position>
              <LatitudeDegrees>40.66921773366630077362060546875</LatitudeDegrees>
              <LongitudeDegrees>24.734472222626209259033203125</LongitudeDegrees>
            </Position>
            <AltitudeMeters>547</AltitudeMeters>
            <DistanceMeters>4591.2567784743</DistanceMeters>
          </Trackpoint>
          <Trackpoint>
            <Time>2022-02-12T10:18:00.000Z</Time>
            <Position>
              <LatitudeDegrees>40.66922544501721858978271484375</LatitudeDegrees>
              <LongitudeDegrees>24.7344723902642726898193359375</LongitudeDegrees>
            </Position>
            <AltitudeMeters>547.20001220703125</AltitudeMeters>
            <DistanceMeters>4592.1172819713</DistanceMeters>
          </Trackpoint>
          <Trackpoint>
            <Time>2022-02-12T10:18:01.000Z</Time>
            <Position>
              <LatitudeDegrees>40.66923617385327816009521484375</LatitudeDegrees>
              <LongitudeDegrees>24.7344737313687801361083984375</LongitudeDegrees>
            </Position>
            <AltitudeMeters>547.4000244140625</AltitudeMeters>
            <DistanceMeters>4593.3117492493</DistanceMeters>
          </Trackpoint>
          <Trackpoint>
            <Time>2022-02-12T10:18:02.000Z</Time>
            <Position>
              <LatitudeDegrees>40.66924941726028919219970703125</LatitudeDegrees>
              <LongitudeDegrees>24.734475910663604736328125</LongitudeDegrees>
            </Position>
            <AltitudeMeters>547.5999755859375</AltitudeMeters>
            <DistanceMeters>4594.7961139795</DistanceMeters>
          </Trackpoint>
          <Trackpoint>
            <Time>2022-02-12T10:18:05.000Z</Time>
            <Position>
              <LatitudeDegrees>40.66929551772773265838623046875</LatitudeDegrees>
              <LongitudeDegrees>24.7344827838242053985595703125</LongitudeDegrees>
            </Position>
            <AltitudeMeters>548.20001220703125</AltitudeMeters>
            <DistanceMeters>4599.9591349617</DistanceMeters>
          </Trackpoint>
          <Trackpoint>
            <Time>2022-02-12T10:18:06.000Z</Time>
            <Position>
              <LatitudeDegrees>40.669313035905361175537109375</LatitudeDegrees>
              <LongitudeDegrees>24.73448856733739376068115234375</LongitudeDegrees>
            </Position>
            <AltitudeMeters>548.5999755859375</AltitudeMeters>
            <DistanceMeters>4601.9704713948</DistanceMeters>
          </Trackpoint>
          <Trackpoint>
            <Time>2022-02-12T10:18:07.000Z</Time>
            <Position>
              <LatitudeDegrees>40.6693299673497676849365234375</LatitudeDegrees>
              <LongitudeDegrees>24.734494350850582122802734375</LongitudeDegrees>
            </Position>
            <AltitudeMeters>548.79998779296875</AltitudeMeters>
            <DistanceMeters>4603.9156197259</DistanceMeters>
          </Trackpoint>
          <Trackpoint>
            <Time>2022-02-12T10:18:13.000Z</Time>
            <Position>
              <LatitudeDegrees>40.6694040633738040924072265625</LatitudeDegrees>
              <LongitudeDegrees>24.73450382240116596221923828125</LongitudeDegrees>
            </Position>
            <AltitudeMeters>549.20001220703125</AltitudeMeters>
            <DistanceMeters>4612.2009465828</DistanceMeters>
          </Trackpoint>
          <Trackpoint>
            <Time>2022-02-12T10:18:18.000Z</Time>
            <Position>
              <LatitudeDegrees>40.669462569057941436767578125</LatitudeDegrees>
              <LongitudeDegrees>24.734492003917694091796875</LongitudeDegrees>
            </Position>
            <AltitudeMeters>550</AltitudeMeters>
            <DistanceMeters>4618.7887039698</DistanceMeters>
          </Trackpoint>
          <Trackpoint>
            <Time>2022-02-12T10:18:20.000Z</Time>
            <Position>
              <LatitudeDegrees>40.66948394291102886199951171875</LatitudeDegrees>
              <LongitudeDegrees>24.73447800613939762115478515625</LongitudeDegrees>
            </Position>
            <AltitudeMeters>550.4000244140625</AltitudeMeters>
            <DistanceMeters>4621.4460559938</DistanceMeters>
          </Trackpoint>
          <Trackpoint>
            <Time>2022-02-12T10:18:25.000Z</Time>
            <Position>
              <LatitudeDegrees>40.6695455498993396759033203125</LatitudeDegrees>
              <LongitudeDegrees>24.73445378243923187255859375</LongitudeDegrees>
            </Position>
            <AltitudeMeters>550.79998779296875</AltitudeMeters>
            <DistanceMeters>4628.6015107967</DistanceMeters>
          </Trackpoint>
          <Trackpoint>
            <Time>2022-02-12T10:18:26.000Z</Time>
            <Position>
              <LatitudeDegrees>40.66955887712538242340087890625</LatitudeDegrees>
              <LongitudeDegrees>24.73445051349699497222900390625</LongitudeDegrees>
            </Position>
            <AltitudeMeters>551</AltitudeMeters>
            <DistanceMeters>4630.1100131215</DistanceMeters>
          </Trackpoint>
          <Trackpoint>
            <Time>2022-02-12T10:18:27.000Z</Time>
            <Position>
              <LatitudeDegrees>40.6695713661611080169677734375</LatitudeDegrees>
              <LongitudeDegrees>24.734446741640567779541015625</LongitudeDegrees>
            </Position>
            <AltitudeMeters>551.20001220703125</AltitudeMeters>
            <DistanceMeters>4631.5385778825</DistanceMeters>
          </Trackpoint>
          <Trackpoint>
            <Time>2022-02-12T10:18:28.000Z</Time>
            <Position>
              <LatitudeDegrees>40.669583268463611602783203125</LatitudeDegrees>
              <LongitudeDegrees>24.734440036118030548095703125</LongitudeDegrees>
            </Position>
            <AltitudeMeters>551.4000244140625</AltitudeMeters>
            <DistanceMeters>4632.9797293603</DistanceMeters>
          </Trackpoint>
          <Trackpoint>
            <Time>2022-02-12T10:18:32.000Z</Time>
            <Position>
              <LatitudeDegrees>40.66963481716811656951904296875</LatitudeDegrees>
              <LongitudeDegrees>24.73442687653005123138427734375</LongitudeDegrees>
            </Position>
            <AltitudeMeters>552.4000244140625</AltitudeMeters>
            <DistanceMeters>4638.8244516966</DistanceMeters>
          </Trackpoint>
          <Trackpoint>
            <Time>2022-02-12T10:18:38.000Z</Time>
            <Position>
              <LatitudeDegrees>40.6697182171046733856201171875</LatitudeDegrees>
              <LongitudeDegrees>24.73441648297011852264404296875</LongitudeDegrees>
            </Position>
            <AltitudeMeters>553.20001220703125</AltitudeMeters>
            <DistanceMeters>4648.1477298673</DistanceMeters>
          </Trackpoint>
          <Trackpoint>
            <Time>2022-02-12T10:18:39.000Z</Time>
            <Position>
              <LatitudeDegrees>40.669731795787811279296875</LatitudeDegrees>
              <LongitudeDegrees>24.73441598005592823028564453125</LongitudeDegrees>
            </Position>
            <AltitudeMeters>553.4000244140625</AltitudeMeters>
            <DistanceMeters>4649.6562321921</DistanceMeters>
          </Trackpoint>
          <Trackpoint>
            <Time>2022-02-12T10:18:40.000Z</Time>
            <Position>
              <LatitudeDegrees>40.66974596120417118072509765625</LatitudeDegrees>
              <LongitudeDegrees>24.73441463895142078399658203125</LongitudeDegrees>
            </Position>
            <AltitudeMeters>553.5999755859375</AltitudeMeters>
            <DistanceMeters>4651.2349345385</DistanceMeters>
          </Trackpoint>
          <Trackpoint>
            <Time>2022-02-12T10:18:46.000Z</Time>
            <Position>
              <LatitudeDegrees>40.66982475109398365020751953125</LatitudeDegrees>
              <LongitudeDegrees>24.73442402668297290802001953125</LongitudeDegrees>
            </Position>
            <AltitudeMeters>554.4000244140625</AltitudeMeters>
            <DistanceMeters>4660.0396608983</DistanceMeters>
          </Trackpoint>
          <Trackpoint>
            <Time>2022-02-12T10:18:47.000Z</Time>
            <Position>
              <LatitudeDegrees>40.66983715631067752838134765625</LatitudeDegrees>
              <LongitudeDegrees>24.7344237752258777618408203125</LongitudeDegrees>
            </Position>
            <AltitudeMeters>554.4000244140625</AltitudeMeters>
            <DistanceMeters>4661.4232707444</DistanceMeters>
          </Trackpoint>
          <Trackpoint>
            <Time>2022-02-12T10:18:52.000Z</Time>
            <Position>
              <LatitudeDegrees>40.66990320570766925811767578125</LatitudeDegrees>
              <LongitudeDegrees>24.73443810828030109405517578125</LongitudeDegrees>
            </Position>
            <AltitudeMeters>554.5999755859375</AltitudeMeters>
            <DistanceMeters>4668.8736318028</DistanceMeters>
          </Trackpoint>
          <Trackpoint>
            <Time>2022-02-12T10:18:54.000Z</Time>
            <Position>
              <LatitudeDegrees>40.66991561092436313629150390625</LatitudeDegrees>
              <LongitudeDegrees>24.73445713520050048828125</LongitudeDegrees>
            </Position>
            <AltitudeMeters>554.79998779296875</AltitudeMeters>
            <DistanceMeters>4670.989977218</DistanceMeters>
          </Trackpoint>
          <Trackpoint>
            <Time>2022-02-12T10:18:56.000Z</Time>
            <Position>
              <LatitudeDegrees>40.669918544590473175048828125</LatitudeDegrees>
              <LongitudeDegrees>24.734475910663604736328125</LongitudeDegrees>
            </Position>
            <AltitudeMeters>555.20001220703125</AltitudeMeters>
            <DistanceMeters>4672.6082238521</DistanceMeters>
          </Trackpoint>
          <Trackpoint>
            <Time>2022-02-12T10:27:50.000Z</Time>
            <Position>
              <LatitudeDegrees>40.66994746215641498565673828125</LatitudeDegrees>
              <LongitudeDegrees>24.734513461589813232421875</LongitudeDegrees>
            </Position>
            <AltitudeMeters>553.79998779296875</AltitudeMeters>
            <DistanceMeters>4677.1257422818</DistanceMeters>
          </Trackpoint>
          <Trackpoint>
            <Time>2022-02-12T10:27:52.000Z</Time>
            <Position>
              <LatitudeDegrees>40.669948719441890716552734375</LatitudeDegrees>
              <LongitudeDegrees>24.7345183230936527252197265625</LongitudeDegrees>
            </Position>
            <AltitudeMeters>553.79998779296875</AltitudeMeters>
            <DistanceMeters>4677.5507146679</DistanceMeters>
          </Trackpoint>
          <Trackpoint>
            <Time>2022-02-12T10:27:58.000Z</Time>
            <Position>
              <LatitudeDegrees>40.67002675496041774749755859375</LatitudeDegrees>
              <LongitudeDegrees>24.73451815545558929443359375</LongitudeDegrees>
            </Position>
            <AltitudeMeters>555.79998779296875</AltitudeMeters>
            <DistanceMeters>4686.2361771548</DistanceMeters>
          </Trackpoint>
          <Trackpoint>
            <Time>2022-02-12T10:28:04.000Z</Time>
            <Position>
              <LatitudeDegrees>40.67008425481617450714111328125</LatitudeDegrees>
              <LongitudeDegrees>24.73455847240984439849853515625</LongitudeDegrees>
            </Position>
            <AltitudeMeters>555.4000244140625</AltitudeMeters>
            <DistanceMeters>4693.4844172689</DistanceMeters>
          </Trackpoint>
          <Trackpoint>
            <Time>2022-02-12T10:28:05.000Z</Time>
            <Position>
              <LatitudeDegrees>40.67009263671934604644775390625</LatitudeDegrees>
              <LongitudeDegrees>24.7345766611397266387939453125</LongitudeDegrees>
            </Position>
            <AltitudeMeters>555.4000244140625</AltitudeMeters>
            <DistanceMeters>4695.2798941667</DistanceMeters>
          </Trackpoint>
          <Trackpoint>
            <Time>2022-02-12T10:28:10.000Z</Time>
            <Position>
              <LatitudeDegrees>40.67013907246291637420654296875</LatitudeDegrees>
              <LongitudeDegrees>24.73466140218079090118408203125</LongitudeDegrees>
            </Position>
            <AltitudeMeters>556.4000244140625</AltitudeMeters>
            <DistanceMeters>4704.1056201655</DistanceMeters>
          </Trackpoint>
          <Trackpoint>
            <Time>2022-02-12T10:28:11.000Z</Time>
            <Position>
              <LatitudeDegrees>40.6701463647186756134033203125</LatitudeDegrees>
              <LongitudeDegrees>24.7346826083958148956298828125</LongitudeDegrees>
            </Position>
            <AltitudeMeters>556.79998779296875</AltitudeMeters>
            <DistanceMeters>4706.0715481189</DistanceMeters>
          </Trackpoint>
          <Trackpoint>
            <Time>2022-02-12T10:28:15.000Z</Time>
            <Position>
              <LatitudeDegrees>40.6701839156448841094970703125</LatitudeDegrees>
              <LongitudeDegrees>24.7347235120832920074462890625</LongitudeDegrees>
            </Position>
            <AltitudeMeters>558.20001220703125</AltitudeMeters>
            <DistanceMeters>4711.492237074</DistanceMeters>
          </Trackpoint>
          <Trackpoint>
            <Time>2022-02-12T10:28:16.000Z</Time>
            <Position>
              <LatitudeDegrees>40.67019112408161163330078125</LatitudeDegrees>
              <LongitudeDegrees>24.73472602665424346923828125</LongitudeDegrees>
            </Position>
            <AltitudeMeters>558.4000244140625</AltitudeMeters>
            <DistanceMeters>4712.3260931085</DistanceMeters>
          </Trackpoint>
          <Trackpoint>
            <Time>2022-02-12T10:28:22.000Z</Time>
            <Position>
              <LatitudeDegrees>40.670274607837200164794921875</LatitudeDegrees>
              <LongitudeDegrees>24.73473046906292438507080078125</LongitudeDegrees>
            </Position>
            <AltitudeMeters>559.20001220703125</AltitudeMeters>
            <DistanceMeters>4721.6256114887</DistanceMeters>
          </Trackpoint>
          <Trackpoint>
            <Time>2022-02-12T10:28:23.000Z</Time>
            <Position>
              <LatitudeDegrees>40.67028634250164031982421875</LatitudeDegrees>
              <LongitudeDegrees>24.734729714691638946533203125</LongitudeDegrees>
            </Position>
            <AltitudeMeters>559.20001220703125</AltitudeMeters>
            <DistanceMeters>4722.9354643523</DistanceMeters>
          </Trackpoint>
          <Trackpoint>
            <Time>2022-02-12T10:28:28.000Z</Time>
            <Position>
              <LatitudeDegrees>40.6703421659767627716064453125</LatitudeDegrees>
              <LongitudeDegrees>24.73470649681985378265380859375</LongitudeDegrees>
            </Position>
            <AltitudeMeters>560.4000244140625</AltitudeMeters>
            <DistanceMeters>4729.4508606843</DistanceMeters>
          </Trackpoint>
          <Trackpoint>
            <Time>2022-02-12T10:28:29.000Z</Time>
            <Position>
              <LatitudeDegrees>40.67035331390798091888427734375</LatitudeDegrees>
              <LongitudeDegrees>24.734704233705997467041015625</LongitudeDegrees>
            </Position>
            <AltitudeMeters>560.5999755859375</AltitudeMeters>
            <DistanceMeters>4730.7043491371</DistanceMeters>
          </Trackpoint>
          <Trackpoint>
            <Time>2022-02-12T10:28:35.000Z</Time>
            <Position>
              <LatitudeDegrees>40.670424811542034149169921875</LatitudeDegrees>
              <LongitudeDegrees>24.734695516526699066162109375</LongitudeDegrees>
            </Position>
            <AltitudeMeters>561.20001220703125</AltitudeMeters>
            <DistanceMeters>4738.6956381828</DistanceMeters>
          </Trackpoint>
          <Trackpoint>
            <Time>2022-02-12T10:28:36.000Z</Time>
            <Position>
              <LatitudeDegrees>40.6704380549490451812744140625</LatitudeDegrees>
              <LongitudeDegrees>24.734694845974445343017578125</LongitudeDegrees>
            </Position>
            <AltitudeMeters>561.20001220703125</AltitudeMeters>
            <DistanceMeters>4740.1677857116</DistanceMeters>
          </Trackpoint>
          <Trackpoint>
            <Time>2022-02-12T10:28:40.000Z</Time>
            <Position>
              <LatitudeDegrees>40.67048423923552036285400390625</LatitudeDegrees>
              <LongitudeDegrees>24.73468780517578125</LongitudeDegrees>
            </Position>
            <AltitudeMeters>561.5999755859375</AltitudeMeters>
            <DistanceMeters>4745.3412899959</DistanceMeters>
          </Trackpoint>
          <Trackpoint>
            <Time>2022-02-12T10:28:45.000Z</Time>
            <Position>
              <LatitudeDegrees>40.670546181499958038330078125</LatitudeDegrees>
              <LongitudeDegrees>24.73467095755040645599365234375</LongitudeDegrees>
            </Position>
            <AltitudeMeters>561.4000244140625</AltitudeMeters>
            <DistanceMeters>4752.3809675116</DistanceMeters>
          </Trackpoint>
          <Trackpoint>
            <Time>2022-02-12T10:28:47.000Z</Time>
            <Position>
              <LatitudeDegrees>40.67057057283818721771240234375</LatitudeDegrees>
              <LongitudeDegrees>24.7346614859998226165771484375</LongitudeDegrees>
            </Position>
            <AltitudeMeters>561.20001220703125</AltitudeMeters>
            <DistanceMeters>4755.2126998227</DistanceMeters>
          </Trackpoint>
          <Trackpoint>
            <Time>2022-02-12T10:28:50.000Z</Time>
            <Position>
              <LatitudeDegrees>40.6706123985350131988525390625</LatitudeDegrees>
              <LongitudeDegrees>24.73465318791568279266357421875</LongitudeDegrees>
            </Position>
            <AltitudeMeters>561.20001220703125</AltitudeMeters>
            <DistanceMeters>4759.9201203047</DistanceMeters>
          </Trackpoint>
          <Trackpoint>
            <Time>2022-02-12T10:28:53.000Z</Time>
            <Position>
              <LatitudeDegrees>40.6706392206251621246337890625</LatitudeDegrees>
              <LongitudeDegrees>24.73464765585958957672119140625</LongitudeDegrees>
            </Position>
            <AltitudeMeters>561.20001220703125</AltitudeMeters>
            <DistanceMeters>4762.9401165312</DistanceMeters>
          </Trackpoint>
          <Trackpoint>
            <Time>2022-02-12T10:28:55.000Z</Time>
            <Position>
              <LatitudeDegrees>40.67066746763885021209716796875</LatitudeDegrees>
              <LongitudeDegrees>24.73463843576610088348388671875</LongitudeDegrees>
            </Position>
            <AltitudeMeters>560.79998779296875</AltitudeMeters>
            <DistanceMeters>4766.1766097994</DistanceMeters>
          </Trackpoint>
          <Trackpoint>
            <Time>2022-02-12T10:28:57.000Z</Time>
            <Position>
              <LatitudeDegrees>40.67069596610963344573974609375</LatitudeDegrees>
              <LongitudeDegrees>24.73463525064289569854736328125</LongitudeDegrees>
            </Position>
            <AltitudeMeters>560.4000244140625</AltitudeMeters>
            <DistanceMeters>4769.3596501337</DistanceMeters>
          </Trackpoint>
          <Trackpoint>
            <Time>2022-02-12T10:29:00.000Z</Time>
            <Position>
              <LatitudeDegrees>40.6707322597503662109375</LatitudeDegrees>
              <LongitudeDegrees>24.7346360050141811370849609375</LongitudeDegrees>
            </Position>
            <AltitudeMeters>560.79998779296875</AltitudeMeters>
            <DistanceMeters>4773.4002414532</DistanceMeters>
          </Trackpoint>
          <Trackpoint>
            <Time>2022-02-12T10:29:01.000Z</Time>
            <Position>
              <LatitudeDegrees>40.6707451678812503814697265625</LatitudeDegrees>
              <LongitudeDegrees>24.73464145325124263763427734375</LongitudeDegrees>
            </Position>
            <AltitudeMeters>561</AltitudeMeters>
            <DistanceMeters>4774.9117338747</DistanceMeters>
          </Trackpoint>
          <Trackpoint>
            <Time>2022-02-12T10:29:03.000Z</Time>
            <Position>
              <LatitudeDegrees>40.6707639433443546295166015625</LatitudeDegrees>
              <LongitudeDegrees>24.73465050570666790008544921875</LongitudeDegrees>
            </Position>
            <AltitudeMeters>561.4000244140625</AltitudeMeters>
            <DistanceMeters>4777.1362522251</DistanceMeters>
          </Trackpoint>
          <Trackpoint>
            <Time>2022-02-12T10:29:05.000Z</Time>
            <Position>
              <LatitudeDegrees>40.670769475400447845458984375</LatitudeDegrees>
              <LongitudeDegrees>24.7346554510295391082763671875</LongitudeDegrees>
            </Position>
            <AltitudeMeters>561.5999755859375</AltitudeMeters>
            <DistanceMeters>4777.8844933223</DistanceMeters>
          </Trackpoint>
          <Trackpoint>
            <Time>2022-02-12T10:29:07.000Z</Time>
            <Position>
              <LatitudeDegrees>40.67077450454235076904296875</LatitudeDegrees>
              <LongitudeDegrees>24.7346634976565837860107421875</LongitudeDegrees>
            </Position>
            <AltitudeMeters>561.79998779296875</AltitudeMeters>
            <DistanceMeters>4778.7605963401</DistanceMeters>
          </Trackpoint>
          <Trackpoint>
            <Time>2022-02-12T10:29:09.000Z</Time>
            <Position>
              <LatitudeDegrees>40.670784227550029754638671875</LatitudeDegrees>
              <LongitudeDegrees>24.73467648960649967193603515625</LongitudeDegrees>
            </Position>
            <AltitudeMeters>562</AltitudeMeters>
            <DistanceMeters>4780.2987380853</DistanceMeters>
          </Trackpoint>
          <Trackpoint>
            <Time>2022-02-12T10:29:14.000Z</Time>
            <Position>
              <LatitudeDegrees>40.67079537548124790191650390625</LatitudeDegrees>
              <LongitudeDegrees>24.7346933372318744659423828125</LongitudeDegrees>
            </Position>
            <AltitudeMeters>562.5999755859375</AltitudeMeters>
            <DistanceMeters>4782.1849645083</DistanceMeters>
          </Trackpoint>
          <Trackpoint>
            <Time>2022-02-12T10:29:18.000Z</Time>
            <Position>
              <LatitudeDegrees>40.67080157808959484100341796875</LatitudeDegrees>
              <LongitudeDegrees>24.73467581905424594879150390625</LongitudeDegrees>
            </Position>
            <AltitudeMeters>562.79998779296875</AltitudeMeters>
            <DistanceMeters>4783.8171019262</DistanceMeters>
          </Trackpoint>
          <Trackpoint>
            <Time>2022-02-12T10:29:21.000Z</Time>
            <Position>
              <LatitudeDegrees>40.670807696878910064697265625</LatitudeDegrees>
              <LongitudeDegrees>24.734676741063594818115234375</LongitudeDegrees>
            </Position>
            <AltitudeMeters>562.79998779296875</AltitudeMeters>
            <DistanceMeters>4784.5023493086</DistanceMeters>
          </Trackpoint>
          <Trackpoint>
            <Time>2022-02-12T10:29:25.000Z</Time>
            <Position>
              <LatitudeDegrees>40.670829154551029205322265625</LatitudeDegrees>
              <LongitudeDegrees>24.734711945056915283203125</LongitudeDegrees>
            </Position>
            <AltitudeMeters>563</AltitudeMeters>
            <DistanceMeters>4788.3152777206</DistanceMeters>
          </Trackpoint>
          <Trackpoint>
            <Time>2022-02-12T10:29:28.000Z</Time>
            <Position>
              <LatitudeDegrees>40.67085622809827327728271484375</LatitudeDegrees>
              <LongitudeDegrees>24.7347409464418888092041015625</LongitudeDegrees>
            </Position>
            <AltitudeMeters>563.79998779296875</AltitudeMeters>
            <DistanceMeters>4792.1986046011</DistanceMeters>
          </Trackpoint>
          <Trackpoint>
            <Time>2022-02-12T10:29:34.000Z</Time>
            <Position>
              <LatitudeDegrees>40.670896209776401519775390625</LatitudeDegrees>
              <LongitudeDegrees>24.734793417155742645263671875</LongitudeDegrees>
            </Position>
            <AltitudeMeters>564.79998779296875</AltitudeMeters>
            <DistanceMeters>4798.4775626161</DistanceMeters>
          </Trackpoint>
          <Trackpoint>
            <Time>2022-02-12T10:29:35.000Z</Time>
            <Position>
              <LatitudeDegrees>40.67090417258441448211669921875</LatitudeDegrees>
              <LongitudeDegrees>24.73480305634438991546630859375</LongitudeDegrees>
            </Position>
            <AltitudeMeters>565</AltitudeMeters>
            <DistanceMeters>4799.67956604</DistanceMeters>
          </Trackpoint>
          <Trackpoint>
            <Time>2022-02-12T10:29:38.000Z</Time>
            <Position>
              <LatitudeDegrees>40.67093635909259319305419921875</LatitudeDegrees>
              <LongitudeDegrees>24.7348183952271938323974609375</LongitudeDegrees>
            </Position>
            <AltitudeMeters>565.79998779296875</AltitudeMeters>
            <DistanceMeters>4803.4889403778</DistanceMeters>
          </Trackpoint>
          <Trackpoint>
            <Time>2022-02-12T10:29:44.000Z</Time>
            <Position>
              <LatitudeDegrees>40.67100584506988525390625</LatitudeDegrees>
              <LongitudeDegrees>24.73484538495540618896484375</LongitudeDegrees>
            </Position>
            <AltitudeMeters>566.79998779296875</AltitudeMeters>
            <DistanceMeters>4811.5516645031</DistanceMeters>
          </Trackpoint>
          <Trackpoint>
            <Time>2022-02-12T10:29:47.000Z</Time>
            <Position>
              <LatitudeDegrees>40.67103425972163677215576171875</LatitudeDegrees>
              <LongitudeDegrees>24.7348769009113311767578125</LongitudeDegrees>
            </Position>
            <AltitudeMeters>567</AltitudeMeters>
            <DistanceMeters>4815.6839610263</DistanceMeters>
          </Trackpoint>
          <Trackpoint>
            <Time>2022-02-12T10:29:49.000Z</Time>
            <Position>
              <LatitudeDegrees>40.67104808986186981201171875</LatitudeDegrees>
              <LongitudeDegrees>24.73489961586892604827880859375</LongitudeDegrees>
            </Position>
            <AltitudeMeters>567.20001220703125</AltitudeMeters>
            <DistanceMeters>4818.1418302541</DistanceMeters>
          </Trackpoint>
          <Trackpoint>
            <Time>2022-02-12T10:29:52.000Z</Time>
            <Position>
              <LatitudeDegrees>40.6710727326571941375732421875</LatitudeDegrees>
              <LongitudeDegrees>24.73492451012134552001953125</LongitudeDegrees>
            </Position>
            <AltitudeMeters>567.5999755859375</AltitudeMeters>
            <DistanceMeters>4821.5969367733</DistanceMeters>
          </Trackpoint>
          <Trackpoint>
            <Time>2022-02-12T10:29:54.000Z</Time>
            <Position>
              <LatitudeDegrees>40.6710931845009326934814453125</LatitudeDegrees>
              <LongitudeDegrees>24.7349293716251850128173828125</LongitudeDegrees>
            </Position>
            <AltitudeMeters>567.79998779296875</AltitudeMeters>
            <DistanceMeters>4823.9090365234</DistanceMeters>
          </Trackpoint>
          <Trackpoint>
            <Time>2022-02-12T10:29:56.000Z</Time>
            <Position>
              <LatitudeDegrees>40.67112050950527191162109375</LatitudeDegrees>
              <LongitudeDegrees>24.73494085483253002166748046875</LongitudeDegrees>
            </Position>
            <AltitudeMeters>568.20001220703125</AltitudeMeters>
            <DistanceMeters>4827.1005763131</DistanceMeters>
          </Trackpoint>
          <Trackpoint>
            <Time>2022-02-12T10:30:02.000Z</Time>
            <Position>
              <LatitudeDegrees>40.671191923320293426513671875</LatitudeDegrees>
              <LongitudeDegrees>24.7349739633500576019287109375</LongitudeDegrees>
            </Position>
            <AltitudeMeters>569.20001220703125</AltitudeMeters>
            <DistanceMeters>4835.5258615264</DistanceMeters>
          </Trackpoint>
          <Trackpoint>
            <Time>2022-02-12T10:30:05.000Z</Time>
            <Position>
              <LatitudeDegrees>40.67122620530426502227783203125</LatitudeDegrees>
              <LongitudeDegrees>24.73498812876641750335693359375</LongitudeDegrees>
            </Position>
            <AltitudeMeters>569.4000244140625</AltitudeMeters>
            <DistanceMeters>4839.5237653904</DistanceMeters>
          </Trackpoint>
          <Trackpoint>
            <Time>2022-02-12T10:30:11.000Z</Time>
            <Position>
              <LatitudeDegrees>40.67130181007087230682373046875</LatitudeDegrees>
              <LongitudeDegrees>24.73502777516841888427734375</LongitudeDegrees>
            </Position>
            <AltitudeMeters>569.5999755859375</AltitudeMeters>
            <DistanceMeters>4848.5797663988</DistanceMeters>
          </Trackpoint>
          <Trackpoint>
            <Time>2022-02-12T10:30:12.000Z</Time>
            <Position>
              <LatitudeDegrees>40.67130885086953639984130859375</LatitudeDegrees>
              <LongitudeDegrees>24.7350373305380344390869140625</LongitudeDegrees>
            </Position>
            <AltitudeMeters>569.5999755859375</AltitudeMeters>
            <DistanceMeters>4849.7041376463</DistanceMeters>
          </Trackpoint>
          <Trackpoint>
            <Time>2022-02-12T10:30:13.000Z</Time>
            <Position>
              <LatitudeDegrees>40.671315975487232208251953125</LatitudeDegrees>
              <LongitudeDegrees>24.73504629917442798614501953125</LongitudeDegrees>
            </Position>
            <AltitudeMeters>569.4000244140625</AltitudeMeters>
            <DistanceMeters>4850.8000391779</DistanceMeters>
          </Trackpoint>
          <Trackpoint>
            <Time>2022-02-12T10:30:15.000Z</Time>
            <Position>
              <LatitudeDegrees>40.67133567295968532562255859375</LatitudeDegrees>
              <LongitudeDegrees>24.73506406880915164947509765625</LongitudeDegrees>
            </Position>
            <AltitudeMeters>569.20001220703125</AltitudeMeters>
            <DistanceMeters>4853.4573912019</DistanceMeters>
          </Trackpoint>
          <Trackpoint>
            <Time>2022-02-12T10:30:21.000Z</Time>
            <Position>
              <LatitudeDegrees>40.671427287161350250244140625</LatitudeDegrees>
              <LongitudeDegrees>24.7350815869867801666259765625</LongitudeDegrees>
            </Position>
            <AltitudeMeters>569</AltitudeMeters>
            <DistanceMeters>4863.7606711978</DistanceMeters>
          </Trackpoint>
          <Trackpoint>
            <Time>2022-02-12T10:30:23.000Z</Time>
            <Position>
              <LatitudeDegrees>40.67147632129490375518798828125</LatitudeDegrees>
              <LongitudeDegrees>24.73508569411933422088623046875</LongitudeDegrees>
            </Position>
            <AltitudeMeters>569</AltitudeMeters>
            <DistanceMeters>4869.2286308818</DistanceMeters>
          </Trackpoint>
          <Trackpoint>
            <Time>2022-02-12T10:30:29.000Z</Time>
            <Position>
              <LatitudeDegrees>40.6716080009937286376953125</LatitudeDegrees>
              <LongitudeDegrees>24.73510765470564365386962890625</LongitudeDegrees>
            </Position>
            <AltitudeMeters>569.5999755859375</AltitudeMeters>
            <DistanceMeters>4884.0015414785</DistanceMeters>
          </Trackpoint>
          <Trackpoint>
            <Time>2022-02-12T10:30:35.000Z</Time>
            <Position>
              <LatitudeDegrees>40.67173666320741176605224609375</LatitudeDegrees>
              <LongitudeDegrees>24.73507630638778209686279296875</LongitudeDegrees>
            </Position>
            <AltitudeMeters>569.5999755859375</AltitudeMeters>
            <DistanceMeters>4898.5639010129</DistanceMeters>
          </Trackpoint>
          <Trackpoint>
            <Time>2022-02-12T10:30:36.000Z</Time>
            <Position>
              <LatitudeDegrees>40.67175359465181827545166015625</LatitudeDegrees>
              <LongitudeDegrees>24.73506490699946880340576171875</LongitudeDegrees>
            </Position>
            <AltitudeMeters>569.5999755859375</AltitudeMeters>
            <DistanceMeters>4900.6802464281</DistanceMeters>
          </Trackpoint>
          <Trackpoint>
            <Time>2022-02-12T10:30:41.000Z</Time>
            <Position>
              <LatitudeDegrees>40.67183640785515308380126953125</LatitudeDegrees>
              <LongitudeDegrees>24.7350242547690868377685546875</LongitudeDegrees>
            </Position>
            <AltitudeMeters>570</AltitudeMeters>
            <DistanceMeters>4910.5153965981</DistanceMeters>
          </Trackpoint>
          <Trackpoint>
            <Time>2022-02-12T10:30:47.000Z</Time>
            <Position>
              <LatitudeDegrees>40.67195559851825237274169921875</LatitudeDegrees>
              <LongitudeDegrees>24.73500430583953857421875</LongitudeDegrees>
            </Position>
            <AltitudeMeters>570.20001220703125</AltitudeMeters>
            <DistanceMeters>4923.8878535085</DistanceMeters>
          </Trackpoint>
          <Trackpoint>
            <Time>2022-02-12T10:30:48.000Z</Time>
            <Position>
              <LatitudeDegrees>40.67197303287684917449951171875</LatitudeDegrees>
              <LongitudeDegrees>24.7350110113620758056640625</LongitudeDegrees>
            </Position>
            <AltitudeMeters>570.20001220703125</AltitudeMeters>
            <DistanceMeters>4925.9103827738</DistanceMeters>
          </Trackpoint>
          <Trackpoint>
            <Time>2022-02-12T10:30:54.000Z</Time>
            <Position>
              <LatitudeDegrees>40.67207797430455684661865234375</LatitudeDegrees>
              <LongitudeDegrees>24.73509726114571094512939453125</LongitudeDegrees>
            </Position>
            <AltitudeMeters>570.79998779296875</AltitudeMeters>
            <DistanceMeters>4939.6738468597</DistanceMeters>
          </Trackpoint>
          <Trackpoint>
            <Time>2022-02-12T10:30:55.000Z</Time>
            <Position>
              <LatitudeDegrees>40.672093816101551055908203125</LatitudeDegrees>
              <LongitudeDegrees>24.73511050455272197723388671875</LongitudeDegrees>
            </Position>
            <AltitudeMeters>570.79998779296875</AltitudeMeters>
            <DistanceMeters>4941.7644345758</DistanceMeters>
          </Trackpoint>
          <Trackpoint>
            <Time>2022-02-12T10:30:56.000Z</Time>
            <Position>
              <LatitudeDegrees>40.6721070595085620880126953125</LatitudeDegrees>
              <LongitudeDegrees>24.735115952789783477783203125</LongitudeDegrees>
            </Position>
            <AltitudeMeters>571</AltitudeMeters>
            <DistanceMeters>4943.3113574109</DistanceMeters>
          </Trackpoint>
          <Trackpoint>
            <Time>2022-02-12T10:31:00.000Z</Time>
            <Position>
              <LatitudeDegrees>40.67214452661573886871337890625</LatitudeDegrees>
              <LongitudeDegrees>24.73513665609061717987060546875</LongitudeDegrees>
            </Position>
            <AltitudeMeters>571</AltitudeMeters>
            <DistanceMeters>4947.8318731992</DistanceMeters>
          </Trackpoint>
          <Trackpoint>
            <Time>2022-02-12T10:31:02.000Z</Time>
            <Position>
              <LatitudeDegrees>40.6721553392708301544189453125</LatitudeDegrees>
              <LongitudeDegrees>24.73514688201248645782470703125</LongitudeDegrees>
            </Position>
            <AltitudeMeters>571</AltitudeMeters>
            <DistanceMeters>4949.3101419499</DistanceMeters>
          </Trackpoint>
          <Trackpoint>
            <Time>2022-02-12T10:31:06.000Z</Time>
            <Position>
              <LatitudeDegrees>40.67217118106782436370849609375</LatitudeDegrees>
              <LongitudeDegrees>24.73517705686390399932861328125</LongitudeDegrees>
            </Position>
            <AltitudeMeters>571.20001220703125</AltitudeMeters>
            <DistanceMeters>4952.406904967</DistanceMeters>
          </Trackpoint>
          <Trackpoint>
            <Time>2022-02-12T10:31:07.000Z</Time>
            <Position>
              <LatitudeDegrees>40.6721694208681583404541015625</LatitudeDegrees>
              <LongitudeDegrees>24.73517973907291889190673828125</LongitudeDegrees>
            </Position>
            <AltitudeMeters>571.20001220703125</AltitudeMeters>
            <DistanceMeters>4952.7074058229</DistanceMeters>
          </Trackpoint>
          <Trackpoint>
            <Time>2022-02-12T10:31:08.000Z</Time>
            <Position>
              <LatitudeDegrees>40.67216816358268260955810546875</LatitudeDegrees>
              <LongitudeDegrees>24.7351821698248386383056640625</LongitudeDegrees>
            </Position>
            <AltitudeMeters>571.4000244140625</AltitudeMeters>
            <DistanceMeters>4952.9761819594</DistanceMeters>
          </Trackpoint>
          <Trackpoint>
            <Time>2022-02-12T10:31:13.000Z</Time>
            <Position>
              <LatitudeDegrees>40.672170929610729217529296875</LatitudeDegrees>
              <LongitudeDegrees>24.735180325806140899658203125</LongitudeDegrees>
            </Position>
            <AltitudeMeters>571.4000244140625</AltitudeMeters>
            <DistanceMeters>4953.3188056506</DistanceMeters>
          </Trackpoint>
          <Trackpoint>
            <Time>2022-02-12T10:32:12.000Z</Time>
            <Position>
              <LatitudeDegrees>40.6721878610551357269287109375</LatitudeDegrees>
              <LongitudeDegrees>24.735205806791782379150390625</LongitudeDegrees>
            </Position>
            <AltitudeMeters>572</AltitudeMeters>
            <DistanceMeters>4956.1790939679</DistanceMeters>
          </Trackpoint>
          <Trackpoint>
            <Time>2022-02-12T10:32:15.000Z</Time>
            <Position>
              <LatitudeDegrees>40.67220202647149562835693359375</LatitudeDegrees>
              <LongitudeDegrees>24.735212512314319610595703125</LongitudeDegrees>
            </Position>
            <AltitudeMeters>572</AltitudeMeters>
            <DistanceMeters>4957.8576004024</DistanceMeters>
          </Trackpoint>
          <Trackpoint>
            <Time>2022-02-12T10:32:17.000Z</Time>
            <Position>
              <LatitudeDegrees>40.67222985439002513885498046875</LatitudeDegrees>
              <LongitudeDegrees>24.73521888256072998046875</LongitudeDegrees>
            </Position>
            <AltitudeMeters>571.79998779296875</AltitudeMeters>
            <DistanceMeters>4961.0021089023</DistanceMeters>
          </Trackpoint>
          <Trackpoint>
            <Time>2022-02-12T10:32:19.000Z</Time>
            <Position>
              <LatitudeDegrees>40.67225164733827114105224609375</LatitudeDegrees>
              <LongitudeDegrees>24.73522667773067951202392578125</LongitudeDegrees>
            </Position>
            <AltitudeMeters>572</AltitudeMeters>
            <DistanceMeters>4963.5162794436</DistanceMeters>
          </Trackpoint>
          <Trackpoint>
            <Time>2022-02-12T10:32:22.000Z</Time>
            <Position>
              <LatitudeDegrees>40.6722837500274181365966796875</LatitudeDegrees>
              <LongitudeDegrees>24.73524478264153003692626953125</LongitudeDegrees>
            </Position>
            <AltitudeMeters>572.20001220703125</AltitudeMeters>
            <DistanceMeters>4967.4019309739</DistanceMeters>
          </Trackpoint>
          <Trackpoint>
            <Time>2022-02-12T10:32:24.000Z</Time>
            <Position>
              <LatitudeDegrees>40.67231099121272563934326171875</LatitudeDegrees>
              <LongitudeDegrees>24.73524880595505237579345703125</LongitudeDegrees>
            </Position>
            <AltitudeMeters>572.4000244140625</AltitudeMeters>
            <DistanceMeters>4970.4516815763</DistanceMeters>
          </Trackpoint>
          <Trackpoint>
            <Time>2022-02-12T10:32:28.000Z</Time>
            <Position>
              <LatitudeDegrees>40.67234938032925128936767578125</LatitudeDegrees>
              <LongitudeDegrees>24.73525450564920902252197265625</LongitudeDegrees>
            </Position>
            <AltitudeMeters>573.5999755859375</AltitudeMeters>
            <DistanceMeters>4974.7520997603</DistanceMeters>
          </Trackpoint>
          <Trackpoint>
            <Time>2022-02-12T10:32:31.000Z</Time>
            <Position>
              <LatitudeDegrees>40.6723749451339244842529296875</LatitudeDegrees>
              <LongitudeDegrees>24.73527319729328155517578125</LongitudeDegrees>
            </Position>
            <AltitudeMeters>574</AltitudeMeters>
            <DistanceMeters>4978.0052904391</DistanceMeters>
          </Trackpoint>
          <Trackpoint>
            <Time>2022-02-12T10:32:37.000Z</Time>
            <Position>
              <LatitudeDegrees>40.67238626070320606231689453125</LatitudeDegrees>
              <LongitudeDegrees>24.7353078983724117279052734375</LongitudeDegrees>
            </Position>
            <AltitudeMeters>574.20001220703125</AltitudeMeters>
            <DistanceMeters>4981.1939995942</DistanceMeters>
          </Trackpoint>
          <Trackpoint>
            <Time>2022-02-12T10:32:38.000Z</Time>
            <Position>
              <LatitudeDegrees>40.67238919436931610107421875</LatitudeDegrees>
              <LongitudeDegrees>24.7353135980665683746337890625</LongitudeDegrees>
            </Position>
            <AltitudeMeters>574.4000244140625</AltitudeMeters>
            <DistanceMeters>4981.7797836029</DistanceMeters>
          </Trackpoint>
          <Trackpoint>
            <Time>2022-02-12T10:32:44.000Z</Time>
            <Position>
              <LatitudeDegrees>40.67242129705846309661865234375</LatitudeDegrees>
              <LongitudeDegrees>24.73536397330462932586669921875</LongitudeDegrees>
            </Position>
            <AltitudeMeters>573.79998779296875</AltitudeMeters>
            <DistanceMeters>4987.3337678604</DistanceMeters>
          </Trackpoint>
          <Trackpoint>
            <Time>2022-02-12T10:32:47.000Z</Time>
            <Position>
              <LatitudeDegrees>40.67244954407215118408203125</LatitudeDegrees>
              <LongitudeDegrees>24.73538040183484554290771484375</LongitudeDegrees>
            </Position>
            <AltitudeMeters>573.4000244140625</AltitudeMeters>
            <DistanceMeters>4990.7705308707</DistanceMeters>
          </Trackpoint>
          <Trackpoint>
            <Time>2022-02-12T10:32:48.000Z</Time>
            <Position>
              <LatitudeDegrees>40.67246404476463794708251953125</LatitudeDegrees>
              <LongitudeDegrees>24.735380150377750396728515625</LongitudeDegrees>
            </Position>
            <AltitudeMeters>573.20001220703125</AltitudeMeters>
            <DistanceMeters>4992.3831876897</DistanceMeters>
          </Trackpoint>
          <Trackpoint>
            <Time>2022-02-12T10:32:52.000Z</Time>
            <Position>
              <LatitudeDegrees>40.67252607084810733795166015625</LatitudeDegrees>
              <LongitudeDegrees>24.73538576625287532806396484375</LongitudeDegrees>
            </Position>
            <AltitudeMeters>573.5999755859375</AltitudeMeters>
            <DistanceMeters>4999.3025420892</DistanceMeters>
          </Trackpoint>
          <Trackpoint>
            <Time>2022-02-12T10:32:55.000Z</Time>
            <Position>
              <LatitudeDegrees>40.6725854985415935516357421875</LatitudeDegrees>
              <LongitudeDegrees>24.735399596393108367919921875</LongitudeDegrees>
            </Position>
            <AltitudeMeters>574</AltitudeMeters>
            <DistanceMeters>5006.0192572025</DistanceMeters>
          </Trackpoint>
          <Trackpoint>
            <Time>2022-02-12T10:32:59.000Z</Time>
            <Position>
              <LatitudeDegrees>40.67267761565744876861572265625</LatitudeDegrees>
              <LongitudeDegrees>24.7353897057473659515380859375</LongitudeDegrees>
            </Position>
            <AltitudeMeters>574.20001220703125</AltitudeMeters>
            <DistanceMeters>5016.3058716004</DistanceMeters>
          </Trackpoint>
          <Trackpoint>
            <Time>2022-02-12T10:33:01.000Z</Time>
            <Position>
              <LatitudeDegrees>40.672719441354274749755859375</LatitudeDegrees>
              <LongitudeDegrees>24.73537386395037174224853515625</LongitudeDegrees>
            </Position>
            <AltitudeMeters>574</AltitudeMeters>
            <DistanceMeters>5021.1494383235</DistanceMeters>
          </Trackpoint>
          <Trackpoint>
            <Time>2022-02-12T10:33:07.000Z</Time>
            <Position>
              <LatitudeDegrees>40.67284843884408473968505859375</LatitudeDegrees>
              <LongitudeDegrees>24.73535508848726749420166015625</LongitudeDegrees>
            </Position>
            <AltitudeMeters>574.20001220703125</AltitudeMeters>
            <DistanceMeters>5035.59412407</DistanceMeters>
          </Trackpoint>
          <Trackpoint>
            <Time>2022-02-12T10:33:08.000Z</Time>
            <Position>
              <LatitudeDegrees>40.6728691421449184417724609375</LatitudeDegrees>
              <LongitudeDegrees>24.73535307683050632476806640625</LongitudeDegrees>
            </Position>
            <AltitudeMeters>574.5999755859375</AltitudeMeters>
            <DistanceMeters>5037.9042702079</DistanceMeters>
          </Trackpoint>
          <Trackpoint>
            <Time>2022-02-12T10:33:09.000Z</Time>
            <Position>
              <LatitudeDegrees>40.672886073589324951171875</LatitudeDegrees>
              <LongitudeDegrees>24.735351987183094024658203125</LongitudeDegrees>
            </Position>
            <AltitudeMeters>575</AltitudeMeters>
            <DistanceMeters>5039.7904966309</DistanceMeters>
          </Trackpoint>
          <Trackpoint>
            <Time>2022-02-12T10:33:12.000Z</Time>
            <Position>
              <LatitudeDegrees>40.67292002029716968536376953125</LatitudeDegrees>
              <LongitudeDegrees>24.7353474609553813934326171875</LongitudeDegrees>
            </Position>
            <AltitudeMeters>575.79998779296875</AltitudeMeters>
            <DistanceMeters>5043.5880000319</DistanceMeters>
          </Trackpoint>
          <Trackpoint>
            <Time>2022-02-12T10:39:22.000Z</Time>
            <Position>
              <LatitudeDegrees>40.6729630194604396820068359375</LatitudeDegrees>
              <LongitudeDegrees>24.73537151701748371124267578125</LongitudeDegrees>
            </Position>
            <AltitudeMeters>574.20001220703125</AltitudeMeters>
            <DistanceMeters>5048.7867516895</DistanceMeters>
          </Trackpoint>
          <Trackpoint>
            <Time>2022-02-12T10:39:23.000Z</Time>
            <Position>
              <LatitudeDegrees>40.67297500558197498321533203125</LatitudeDegrees>
              <LongitudeDegrees>24.7353762947022914886474609375</LongitudeDegrees>
            </Position>
            <AltitudeMeters>574.4000244140625</AltitudeMeters>
            <DistanceMeters>5050.1833534623</DistanceMeters>
          </Trackpoint>
          <Trackpoint>
            <Time>2022-02-12T10:39:24.000Z</Time>
            <Position>
              <LatitudeDegrees>40.67298757843673229217529296875</LatitudeDegrees>
              <LongitudeDegrees>24.73537939600646495819091796875</LongitudeDegrees>
            </Position>
            <AltitudeMeters>574.4000244140625</AltitudeMeters>
            <DistanceMeters>5051.6024049226</DistanceMeters>
          </Trackpoint>
          <Trackpoint>
            <Time>2022-02-12T10:39:25.000Z</Time>
            <Position>
              <LatitudeDegrees>40.672998726367950439453125</LatitudeDegrees>
              <LongitudeDegrees>24.73538090474903583526611328125</LongitudeDegrees>
            </Position>
            <AltitudeMeters>574.20001220703125</AltitudeMeters>
            <DistanceMeters>5052.8486685979</DistanceMeters>
          </Trackpoint>
          <Trackpoint>
            <Time>2022-02-12T10:39:31.000Z</Time>
            <Position>
              <LatitudeDegrees>40.673089921474456787109375</LatitudeDegrees>
              <LongitudeDegrees>24.73543815314769744873046875</LongitudeDegrees>
            </Position>
            <AltitudeMeters>574.4000244140625</AltitudeMeters>
            <DistanceMeters>5064.0903730876</DistanceMeters>
          </Trackpoint>
          <Trackpoint>
            <Time>2022-02-12T10:39:33.000Z</Time>
            <Position>
              <LatitudeDegrees>40.673137195408344268798828125</LatitudeDegrees>
              <LongitudeDegrees>24.73545902408659458160400390625</LongitudeDegrees>
            </Position>
            <AltitudeMeters>574.5999755859375</AltitudeMeters>
            <DistanceMeters>5069.6394775806</DistanceMeters>
          </Trackpoint>
          <Trackpoint>
            <Time>2022-02-12T10:39:36.000Z</Time>
            <Position>
              <LatitudeDegrees>40.67321087233722209930419921875</LatitudeDegrees>
              <LongitudeDegrees>24.735490791499614715576171875</LongitudeDegrees>
            </Position>
            <AltitudeMeters>574.5999755859375</AltitudeMeters>
            <DistanceMeters>5078.2665216891</DistanceMeters>
          </Trackpoint>
          <Trackpoint>
            <Time>2022-02-12T10:39:37.000Z</Time>
            <Position>
              <LatitudeDegrees>40.67323434166610240936279296875</LatitudeDegrees>
              <LongitudeDegrees>24.73549540154635906219482421875</LongitudeDegrees>
            </Position>
            <AltitudeMeters>574.5999755859375</AltitudeMeters>
            <DistanceMeters>5080.9068283029</DistanceMeters>
          </Trackpoint>
          <Trackpoint>
            <Time>2022-02-12T10:39:40.000Z</Time>
            <Position>
              <LatitudeDegrees>40.67329821176826953887939453125</LatitudeDegrees>
              <LongitudeDegrees>24.7354963235557079315185546875</LongitudeDegrees>
            </Position>
            <AltitudeMeters>575</AltitudeMeters>
            <DistanceMeters>5088.0160714312</DistanceMeters>
          </Trackpoint>
          <Trackpoint>
            <Time>2022-02-12T10:39:43.000Z</Time>
            <Position>
              <LatitudeDegrees>40.67335420288145542144775390625</LatitudeDegrees>
              <LongitudeDegrees>24.735498167574405670166015625</LongitudeDegrees>
            </Position>
            <AltitudeMeters>575.20001220703125</AltitudeMeters>
            <DistanceMeters>5094.2502874215</DistanceMeters>
          </Trackpoint>
          <Trackpoint>
            <Time>2022-02-12T10:39:44.000Z</Time>
            <Position>
              <LatitudeDegrees>40.6733717210590839385986328125</LatitudeDegrees>
              <LongitudeDegrees>24.73550277762115001678466796875</LongitudeDegrees>
            </Position>
            <AltitudeMeters>575.4000244140625</AltitudeMeters>
            <DistanceMeters>5096.2390492178</DistanceMeters>
          </Trackpoint>
          <Trackpoint>
            <Time>2022-02-12T10:39:47.000Z</Time>
            <Position>
              <LatitudeDegrees>40.6734344176948070526123046875</LatitudeDegrees>
              <LongitudeDegrees>24.73551057279109954833984375</LongitudeDegrees>
            </Position>
            <AltitudeMeters>575.79998779296875</AltitudeMeters>
            <DistanceMeters>5103.2485175238</DistanceMeters>
          </Trackpoint>
          <Trackpoint>
            <Time>2022-02-12T10:39:49.000Z</Time>
            <Position>
              <LatitudeDegrees>40.67347087897360324859619140625</LatitudeDegrees>
              <LongitudeDegrees>24.73553077317774295806884765625</LongitudeDegrees>
            </Position>
            <AltitudeMeters>576</AltitudeMeters>
            <DistanceMeters>5107.6506242976</DistanceMeters>
          </Trackpoint>
          <Trackpoint>
            <Time>2022-02-12T10:39:50.000Z</Time>
            <Position>
              <LatitudeDegrees>40.67348630167543888092041015625</LatitudeDegrees>
              <LongitudeDegrees>24.7355456091463565826416015625</LongitudeDegrees>
            </Position>
            <AltitudeMeters>576</AltitudeMeters>
            <DistanceMeters>5109.7754862277</DistanceMeters>
          </Trackpoint>
          <Trackpoint>
            <Time>2022-02-12T10:39:55.000Z</Time>
            <Position>
              <LatitudeDegrees>40.6735695339739322662353515625</LatitudeDegrees>
              <LongitudeDegrees>24.7355630435049533843994140625</LongitudeDegrees>
            </Position>
            <AltitudeMeters>576.20001220703125</AltitudeMeters>
            <DistanceMeters>5119.1557348849</DistanceMeters>
          </Trackpoint>
          <Trackpoint>
            <Time>2022-02-12T10:40:01.000Z</Time>
            <Position>
              <LatitudeDegrees>40.6736446358263492584228515625</LatitudeDegrees>
              <LongitudeDegrees>24.73558994941413402557373046875</LongitudeDegrees>
            </Position>
            <AltitudeMeters>576</AltitudeMeters>
            <DistanceMeters>5127.8172517899</DistanceMeters>
          </Trackpoint>
          <Trackpoint>
            <Time>2022-02-12T10:40:02.000Z</Time>
            <Position>
              <LatitudeDegrees>40.6736543588340282440185546875</LatitudeDegrees>
              <LongitudeDegrees>24.73560067825019359588623046875</LongitudeDegrees>
            </Position>
            <AltitudeMeters>575.79998779296875</AltitudeMeters>
            <DistanceMeters>5129.2267257406</DistanceMeters>
          </Trackpoint>
          <Trackpoint>
            <Time>2022-02-12T10:40:08.000Z</Time>
            <Position>
              <LatitudeDegrees>40.67372384481132030487060546875</LatitudeDegrees>
              <LongitudeDegrees>24.73565407097339630126953125</LongitudeDegrees>
            </Position>
            <AltitudeMeters>576</AltitudeMeters>
            <DistanceMeters>5138.1784238121</DistanceMeters>
          </Trackpoint>
          <Trackpoint>
            <Time>2022-02-12T10:40:09.000Z</Time>
            <Position>
              <LatitudeDegrees>40.67373893223702907562255859375</LatitudeDegrees>
              <LongitudeDegrees>24.7356689907610416412353515625</LongitudeDegrees>
            </Position>
            <AltitudeMeters>576</AltitudeMeters>
            <DistanceMeters>5140.2776325451</DistanceMeters>
          </Trackpoint>
          <Trackpoint>
            <Time>2022-02-12T10:40:15.000Z</Time>
            <Position>
              <LatitudeDegrees>40.6738136149942874908447265625</LatitudeDegrees>
              <LongitudeDegrees>24.7357727587223052978515625</LongitudeDegrees>
            </Position>
            <AltitudeMeters>575.79998779296875</AltitudeMeters>
            <DistanceMeters>5152.3531314755</DistanceMeters>
          </Trackpoint>
          <Trackpoint>
            <Time>2022-02-12T10:40:21.000Z</Time>
            <Position>
              <LatitudeDegrees>40.67387103103101253509521484375</LatitudeDegrees>
              <LongitudeDegrees>24.7358064539730548858642578125</LongitudeDegrees>
            </Position>
            <AltitudeMeters>576.4000244140625</AltitudeMeters>
            <DistanceMeters>5159.3490598861</DistanceMeters>
          </Trackpoint>
          <Trackpoint>
            <Time>2022-02-12T10:40:22.000Z</Time>
            <Position>
              <LatitudeDegrees>40.6738826818764209747314453125</LatitudeDegrees>
              <LongitudeDegrees>24.73581366240978240966796875</LongitudeDegrees>
            </Position>
            <AltitudeMeters>576.20001220703125</AltitudeMeters>
            <DistanceMeters>5160.7776246471</DistanceMeters>
          </Trackpoint>
          <Trackpoint>
            <Time>2022-02-12T10:40:24.000Z</Time>
            <Position>
              <LatitudeDegrees>40.67391210235655307769775390625</LatitudeDegrees>
              <LongitudeDegrees>24.73583017475903034210205078125</LongitudeDegrees>
            </Position>
            <AltitudeMeters>576.20001220703125</AltitudeMeters>
            <DistanceMeters>5164.3357375141</DistanceMeters>
          </Trackpoint>
          <Trackpoint>
            <Time>2022-02-12T10:40:27.000Z</Time>
            <Position>
              <LatitudeDegrees>40.67394244484603404998779296875</LatitudeDegrees>
              <LongitudeDegrees>24.73584358580410480499267578125</LongitudeDegrees>
            </Position>
            <AltitudeMeters>576</AltitudeMeters>
            <DistanceMeters>5167.8963873603</DistanceMeters>
          </Trackpoint>
          <Trackpoint>
            <Time>2022-02-12T10:40:28.000Z</Time>
            <Position>
              <LatitudeDegrees>40.67394747398793697357177734375</LatitudeDegrees>
              <LongitudeDegrees>24.73584392108023166656494140625</LongitudeDegrees>
            </Position>
            <AltitudeMeters>576</AltitudeMeters>
            <DistanceMeters>5168.4665476465</DistanceMeters>
          </Trackpoint>
          <Trackpoint>
            <Time>2022-02-12T10:40:32.000Z</Time>
            <Position>
              <LatitudeDegrees>40.6739723682403564453125</LatitudeDegrees>
              <LongitudeDegrees>24.7358869202435016632080078125</LongitudeDegrees>
            </Position>
            <AltitudeMeters>576</AltitudeMeters>
            <DistanceMeters>5173.0337652443</DistanceMeters>
          </Trackpoint>
          <Trackpoint>
            <Time>2022-02-12T10:40:35.000Z</Time>
            <Position>
              <LatitudeDegrees>40.6739869527518749237060546875</LatitudeDegrees>
              <LongitudeDegrees>24.73592136986553668975830078125</LongitudeDegrees>
            </Position>
            <AltitudeMeters>576.20001220703125</AltitudeMeters>
            <DistanceMeters>5176.362414189</DistanceMeters>
          </Trackpoint>
          <Trackpoint>
            <Time>2022-02-12T10:40:41.000Z</Time>
            <Position>
              <LatitudeDegrees>40.67402056418359279632568359375</LatitudeDegrees>
              <LongitudeDegrees>24.73602681420743465423583984375</LongitudeDegrees>
            </Position>
            <AltitudeMeters>576.79998779296875</AltitudeMeters>
            <DistanceMeters>5186.0178017631</DistanceMeters>
          </Trackpoint>
          <Trackpoint>
            <Time>2022-02-12T10:40:42.000Z</Time>
            <Position>
              <LatitudeDegrees>40.674022994935512542724609375</LatitudeDegrees>
              <LongitudeDegrees>24.73604257218539714813232421875</LongitudeDegrees>
            </Position>
            <AltitudeMeters>576.79998779296875</AltitudeMeters>
            <DistanceMeters>5187.3783772557</DistanceMeters>
          </Trackpoint>
          <Trackpoint>
            <Time>2022-02-12T10:40:43.000Z</Time>
            <Position>
              <LatitudeDegrees>40.6740221567451953887939453125</LatitudeDegrees>
              <LongitudeDegrees>24.73605967126786708831787109375</LongitudeDegrees>
            </Position>
            <AltitudeMeters>577</AltitudeMeters>
            <DistanceMeters>5188.825781047</DistanceMeters>
          </Trackpoint>
          <Trackpoint>
            <Time>2022-02-12T10:40:47.000Z</Time>
            <Position>
              <LatitudeDegrees>40.6740432791411876678466796875</LatitudeDegrees>
              <LongitudeDegrees>24.736133851110935211181640625</LongitudeDegrees>
            </Position>
            <AltitudeMeters>577.5999755859375</AltitudeMeters>
            <DistanceMeters>5195.5142037836</DistanceMeters>
          </Trackpoint>
          <Trackpoint>
            <Time>2022-02-12T10:40:48.000Z</Time>
            <Position>
              <LatitudeDegrees>40.674053169786930084228515625</LatitudeDegrees>
              <LongitudeDegrees>24.73614986054599285125732421875</LongitudeDegrees>
            </Position>
            <AltitudeMeters>577.79998779296875</AltitudeMeters>
            <DistanceMeters>5197.2560722301</DistanceMeters>
          </Trackpoint>
          <Trackpoint>
            <Time>2022-02-12T10:40:49.000Z</Time>
            <Position>
              <LatitudeDegrees>40.67406398244202136993408203125</LatitudeDegrees>
              <LongitudeDegrees>24.73616310395300388336181640625</LongitudeDegrees>
            </Position>
            <AltitudeMeters>578</AltitudeMeters>
            <DistanceMeters>5198.9019832038</DistanceMeters>
          </Trackpoint>
          <Trackpoint>
            <Time>2022-02-12T10:40:52.000Z</Time>
            <Position>
              <LatitudeDegrees>40.6740868650376796722412109375</LatitudeDegrees>
              <LongitudeDegrees>24.73619696684181690216064453125</LongitudeDegrees>
            </Position>
            <AltitudeMeters>578.4000244140625</AltitudeMeters>
            <DistanceMeters>5202.7314536822</DistanceMeters>
          </Trackpoint>
          <Trackpoint>
            <Time>2022-02-12T10:40:53.000Z</Time>
            <Position>
              <LatitudeDegrees>40.6740915589034557342529296875</LatitudeDegrees>
              <LongitudeDegrees>24.7362134791910648345947265625</LongitudeDegrees>
            </Position>
            <AltitudeMeters>578.5999755859375</AltitudeMeters>
            <DistanceMeters>5204.2158184124</DistanceMeters>
          </Trackpoint>
          <Trackpoint>
            <Time>2022-02-12T10:40:54.000Z</Time>
            <Position>
              <LatitudeDegrees>40.67409633658826351165771484375</LatitudeDegrees>
              <LongitudeDegrees>24.7362309135496616363525390625</LongitudeDegrees>
            </Position>
            <AltitudeMeters>578.5999755859375</AltitudeMeters>
            <DistanceMeters>5205.7772666632</DistanceMeters>
          </Trackpoint>
          <Trackpoint>
            <Time>2022-02-12T10:40:59.000Z</Time>
            <Position>
              <LatitudeDegrees>40.674124248325824737548828125</LatitudeDegrees>
              <LongitudeDegrees>24.73631464876234531402587890625</LongitudeDegrees>
            </Position>
            <AltitudeMeters>578.4000244140625</AltitudeMeters>
            <DistanceMeters>5213.4984430427</DistanceMeters>
          </Trackpoint>
          <Trackpoint>
            <Time>2022-02-12T10:41:01.000Z</Time>
            <Position>
              <LatitudeDegrees>40.6741400063037872314453125</LatitudeDegrees>
              <LongitudeDegrees>24.73633912391960620880126953125</LongitudeDegrees>
            </Position>
            <AltitudeMeters>578.5999755859375</AltitudeMeters>
            <DistanceMeters>5216.2096203193</DistanceMeters>
          </Trackpoint>
          <Trackpoint>
            <Time>2022-02-12T10:41:03.000Z</Time>
            <Position>
              <LatitudeDegrees>40.67416070960462093353271484375</LatitudeDegrees>
              <LongitudeDegrees>24.73636426962912082672119140625</LongitudeDegrees>
            </Position>
            <AltitudeMeters>579</AltitudeMeters>
            <DistanceMeters>5219.3426209728</DistanceMeters>
          </Trackpoint>
          <Trackpoint>
            <Time>2022-02-12T10:41:05.000Z</Time>
            <Position>
              <LatitudeDegrees>40.67418049089610576629638671875</LatitudeDegrees>
              <LongitudeDegrees>24.73638991825282573699951171875</LongitudeDegrees>
            </Position>
            <AltitudeMeters>579.5999755859375</AltitudeMeters>
            <DistanceMeters>5222.4306236808</DistanceMeters>
          </Trackpoint>
          <Trackpoint>
            <Time>2022-02-12T10:41:11.000Z</Time>
            <Position>
              <LatitudeDegrees>40.674263052642345428466796875</LatitudeDegrees>
              <LongitudeDegrees>24.73651128821074962615966796875</LongitudeDegrees>
            </Position>
            <AltitudeMeters>579.79998779296875</AltitudeMeters>
            <DistanceMeters>5236.1927755233</DistanceMeters>
          </Trackpoint>
          <Trackpoint>
            <Time>2022-02-12T10:41:17.000Z</Time>
            <Position>
              <LatitudeDegrees>40.67435659468173980712890625</LatitudeDegrees>
              <LongitudeDegrees>24.7366659343242645263671875</LongitudeDegrees>
            </Position>
            <AltitudeMeters>579.5999755859375</AltitudeMeters>
            <DistanceMeters>5252.8904592035</DistanceMeters>
          </Trackpoint>
          <Trackpoint>
            <Time>2022-02-12T10:41:18.000Z</Time>
            <Position>
              <LatitudeDegrees>40.6743705086410045623779296875</LatitudeDegrees>
              <LongitudeDegrees>24.73669032566249370574951171875</LongitudeDegrees>
            </Position>
            <AltitudeMeters>579.20001220703125</AltitudeMeters>
            <DistanceMeters>5255.4684693398</DistanceMeters>
          </Trackpoint>
          <Trackpoint>
            <Time>2022-02-12T10:41:24.000Z</Time>
            <Position>
              <LatitudeDegrees>40.67442272789776325225830078125</LatitudeDegrees>
              <LongitudeDegrees>24.73681068979203701019287109375</LongitudeDegrees>
            </Position>
            <AltitudeMeters>579.5999755859375</AltitudeMeters>
            <DistanceMeters>5267.174125236</DistanceMeters>
          </Trackpoint>
          <Trackpoint>
            <Time>2022-02-12T10:41:25.000Z</Time>
            <Position>
              <LatitudeDegrees>40.67441962659358978271484375</LatitudeDegrees>
              <LongitudeDegrees>24.7368230111896991729736328125</LongitudeDegrees>
            </Position>
            <AltitudeMeters>579.79998779296875</AltitudeMeters>
            <DistanceMeters>5268.2700267676</DistanceMeters>
          </Trackpoint>
          <Trackpoint>
            <Time>2022-02-12T10:41:26.000Z</Time>
            <Position>
              <LatitudeDegrees>40.67441987805068492889404296875</LatitudeDegrees>
              <LongitudeDegrees>24.7368297167122364044189453125</LongitudeDegrees>
            </Position>
            <AltitudeMeters>579.79998779296875</AltitudeMeters>
            <DistanceMeters>5268.8401870538</DistanceMeters>
          </Trackpoint>
          <Trackpoint>
            <Time>2022-02-12T10:41:31.000Z</Time>
            <Position>
              <LatitudeDegrees>40.6744529865682125091552734375</LatitudeDegrees>
              <LongitudeDegrees>24.7368924133479595184326171875</LongitudeDegrees>
            </Position>
            <AltitudeMeters>579.4000244140625</AltitudeMeters>
            <DistanceMeters>5275.2894143022</DistanceMeters>
          </Trackpoint>
          <Trackpoint>
            <Time>2022-02-12T10:41:37.000Z</Time>
            <Position>
              <LatitudeDegrees>40.6744918785989284515380859375</LatitudeDegrees>
              <LongitudeDegrees>24.7370092570781707763671875</LongitudeDegrees>
            </Position>
            <AltitudeMeters>578.79998779296875</AltitudeMeters>
            <DistanceMeters>5286.0605991094</DistanceMeters>
          </Trackpoint>
          <Trackpoint>
            <Time>2022-02-12T10:41:43.000Z</Time>
            <Position>
              <LatitudeDegrees>40.67452582530677318572998046875</LatitudeDegrees>
              <LongitudeDegrees>24.7371515817940235137939453125</LongitudeDegrees>
            </Position>
            <AltitudeMeters>577.5999755859375</AltitudeMeters>
            <DistanceMeters>5298.65441754</DistanceMeters>
          </Trackpoint>
          <Trackpoint>
            <Time>2022-02-12T10:41:49.000Z</Time>
            <Position>
              <LatitudeDegrees>40.67454443313181400299072265625</LatitudeDegrees>
              <LongitudeDegrees>24.7372253425419330596923828125</LongitudeDegrees>
            </Position>
            <AltitudeMeters>576.79998779296875</AltitudeMeters>
            <DistanceMeters>5305.2160792567</DistanceMeters>
          </Trackpoint>
          <Trackpoint>
            <Time>2022-02-12T10:41:50.000Z</Time>
            <Position>
              <LatitudeDegrees>40.67454644478857517242431640625</LatitudeDegrees>
              <LongitudeDegrees>24.73724001087248325347900390625</LongitudeDegrees>
            </Position>
            <AltitudeMeters>576.5999755859375</AltitudeMeters>
            <DistanceMeters>5306.4731645274</DistanceMeters>
          </Trackpoint>
          <Trackpoint>
            <Time>2022-02-12T10:41:53.000Z</Time>
            <Position>
              <LatitudeDegrees>40.67455507814884185791015625</LatitudeDegrees>
              <LongitudeDegrees>24.7372774779796600341796875</LongitudeDegrees>
            </Position>
            <AltitudeMeters>576</AltitudeMeters>
            <DistanceMeters>5309.7786739431</DistanceMeters>
          </Trackpoint>
          <Trackpoint>
            <Time>2022-02-12T10:41:56.000Z</Time>
            <Position>
              <LatitudeDegrees>40.674573518335819244384765625</LatitudeDegrees>
              <LongitudeDegrees>24.737338162958621978759765625</LongitudeDegrees>
            </Position>
            <AltitudeMeters>575.4000244140625</AltitudeMeters>
            <DistanceMeters>5315.2967730514</DistanceMeters>
          </Trackpoint>
          <Trackpoint>
            <Time>2022-02-12T10:42:01.000Z</Time>
            <Position>
              <LatitudeDegrees>40.6745921261608600616455078125</LatitudeDegrees>
              <LongitudeDegrees>24.73743514157831668853759765625</LongitudeDegrees>
            </Position>
            <AltitudeMeters>574.4000244140625</AltitudeMeters>
            <DistanceMeters>5323.7402589147</DistanceMeters>
          </Trackpoint>
          <Trackpoint>
            <Time>2022-02-12T10:42:02.000Z</Time>
            <Position>
              <LatitudeDegrees>40.67460260353982448577880859375</LatitudeDegrees>
              <LongitudeDegrees>24.73745391704142093658447265625</LongitudeDegrees>
            </Position>
            <AltitudeMeters>574</AltitudeMeters>
            <DistanceMeters>5325.7061868681</DistanceMeters>
          </Trackpoint>
          <Trackpoint>
            <Time>2022-02-12T10:42:04.000Z</Time>
            <Position>
              <LatitudeDegrees>40.67462389357388019561767578125</LatitudeDegrees>
              <LongitudeDegrees>24.73748995922505855560302734375</LongitudeDegrees>
            </Position>
            <AltitudeMeters>573.79998779296875</AltitudeMeters>
            <DistanceMeters>5329.5638501479</DistanceMeters>
          </Trackpoint>
          <Trackpoint>
            <Time>2022-02-12T10:42:05.000Z</Time>
            <Position>
              <LatitudeDegrees>40.674635879695415496826171875</LatitudeDegrees>
              <LongitudeDegrees>24.73750412464141845703125</LongitudeDegrees>
            </Position>
            <AltitudeMeters>573.5999755859375</AltitudeMeters>
            <DistanceMeters>5331.3568106087</DistanceMeters>
          </Trackpoint>
          <Trackpoint>
            <Time>2022-02-12T10:42:08.000Z</Time>
            <Position>
              <LatitudeDegrees>40.6746588461101055145263671875</LatitudeDegrees>
              <LongitudeDegrees>24.73752851597964763641357421875</LongitudeDegrees>
            </Position>
            <AltitudeMeters>573.5999755859375</AltitudeMeters>
            <DistanceMeters>5334.6403926884</DistanceMeters>
          </Trackpoint>
          <Trackpoint>
            <Time>2022-02-12T10:42:10.000Z</Time>
            <Position>
              <LatitudeDegrees>40.67467980086803436279296875</LatitudeDegrees>
              <LongitudeDegrees>24.737548716366291046142578125</LongitudeDegrees>
            </Position>
            <AltitudeMeters>573.5999755859375</AltitudeMeters>
            <DistanceMeters>5337.5289547241</DistanceMeters>
          </Trackpoint>
          <Trackpoint>
            <Time>2022-02-12T10:42:13.000Z</Time>
            <Position>
              <LatitudeDegrees>40.67469363100826740264892578125</LatitudeDegrees>
              <LongitudeDegrees>24.73759506829082965850830078125</LongitudeDegrees>
            </Position>
            <AltitudeMeters>573</AltitudeMeters>
            <DistanceMeters>5341.7327458227</DistanceMeters>
          </Trackpoint>
          <Trackpoint>
            <Time>2022-02-12T10:42:17.000Z</Time>
            <Position>
              <LatitudeDegrees>40.67470905371010303497314453125</LatitudeDegrees>
              <LongitudeDegrees>24.737656004726886749267578125</LongitudeDegrees>
            </Position>
            <AltitudeMeters>572</AltitudeMeters>
            <DistanceMeters>5347.1559329832</DistanceMeters>
          </Trackpoint>
          <Trackpoint>
            <Time>2022-02-12T10:42:19.000Z</Time>
            <Position>
              <LatitudeDegrees>40.67471894435584545135498046875</LatitudeDegrees>
              <LongitudeDegrees>24.7376900352537631988525390625</LongitudeDegrees>
            </Position>
            <AltitudeMeters>571.5999755859375</AltitudeMeters>
            <DistanceMeters>5350.2322164736</DistanceMeters>
          </Trackpoint>
          <Trackpoint>
            <Time>2022-02-12T10:42:20.000Z</Time>
            <Position>
              <LatitudeDegrees>40.67473269067704677581787109375</LatitudeDegrees>
              <LongitudeDegrees>24.7377094812691211700439453125</LongitudeDegrees>
            </Position>
            <AltitudeMeters>571.4000244140625</AltitudeMeters>
            <DistanceMeters>5352.4769397652</DistanceMeters>
          </Trackpoint>
          <Trackpoint>
            <Time>2022-02-12T10:42:24.000Z</Time>
            <Position>
              <LatitudeDegrees>40.67476253025233745574951171875</LatitudeDegrees>
              <LongitudeDegrees>24.73777343519032001495361328125</LongitudeDegrees>
            </Position>
            <AltitudeMeters>570.79998779296875</AltitudeMeters>
            <DistanceMeters>5358.8145875956</DistanceMeters>
          </Trackpoint>
          <Trackpoint>
            <Time>2022-02-12T10:42:25.000Z</Time>
            <Position>
              <LatitudeDegrees>40.6747708283364772796630859375</LatitudeDegrees>
              <LongitudeDegrees>24.7377822361886501312255859375</LongitudeDegrees>
            </Position>
            <AltitudeMeters>570.79998779296875</AltitudeMeters>
            <DistanceMeters>5360.0014708777</DistanceMeters>
          </Trackpoint>
          <Trackpoint>
            <Time>2022-02-12T10:42:31.000Z</Time>
            <Position>
              <LatitudeDegrees>40.6748452596366405487060546875</LatitudeDegrees>
              <LongitudeDegrees>24.73782691173255443572998046875</LongitudeDegrees>
            </Position>
            <AltitudeMeters>570</AltitudeMeters>
            <DistanceMeters>5369.103720675</DistanceMeters>
          </Trackpoint>
          <Trackpoint>
            <Time>2022-02-12T10:42:32.000Z</Time>
            <Position>
              <LatitudeDegrees>40.67485691048204898834228515625</LatitudeDegrees>
              <LongitudeDegrees>24.73783127032220363616943359375</LongitudeDegrees>
            </Position>
            <AltitudeMeters>569.79998779296875</AltitudeMeters>
            <DistanceMeters>5370.4509568701</DistanceMeters>
          </Trackpoint>
          <Trackpoint>
            <Time>2022-02-12T10:42:37.000Z</Time>
            <Position>
              <LatitudeDegrees>40.67491843365132808685302734375</LatitudeDegrees>
              <LongitudeDegrees>24.73787116818130016326904296875</LongitudeDegrees>
            </Position>
            <AltitudeMeters>569</AltitudeMeters>
            <DistanceMeters>5378.0821404603</DistanceMeters>
          </Trackpoint>
          <Trackpoint>
            <Time>2022-02-12T10:42:41.000Z</Time>
            <Position>
              <LatitudeDegrees>40.67498398013412952423095703125</LatitudeDegrees>
              <LongitudeDegrees>24.73788256756961345672607421875</LongitudeDegrees>
            </Position>
            <AltitudeMeters>568.5999755859375</AltitudeMeters>
            <DistanceMeters>5385.440424116</DistanceMeters>
          </Trackpoint>
          <Trackpoint>
            <Time>2022-02-12T10:42:43.000Z</Time>
            <Position>
              <LatitudeDegrees>40.67501415498554706573486328125</LatitudeDegrees>
              <LongitudeDegrees>24.73790486343204975128173828125</LongitudeDegrees>
            </Position>
            <AltitudeMeters>568.20001220703125</AltitudeMeters>
            <DistanceMeters>5389.2898858244</DistanceMeters>
          </Trackpoint>
          <Trackpoint>
            <Time>2022-02-12T10:42:49.000Z</Time>
            <Position>
              <LatitudeDegrees>40.67509847693145275115966796875</LatitudeDegrees>
              <LongitudeDegrees>24.73794844932854175567626953125</LongitudeDegrees>
            </Position>
            <AltitudeMeters>567.4000244140625</AltitudeMeters>
            <DistanceMeters>5399.3707826248</DistanceMeters>
          </Trackpoint>
          <Trackpoint>
            <Time>2022-02-12T10:42:54.000Z</Time>
            <Position>
              <LatitudeDegrees>40.67518682219088077545166015625</LatitudeDegrees>
              <LongitudeDegrees>24.73801843822002410888671875</LongitudeDegrees>
            </Position>
            <AltitudeMeters>567.20001220703125</AltitudeMeters>
            <DistanceMeters>5410.8418886718</DistanceMeters>
          </Trackpoint>
          <Trackpoint>
            <Time>2022-02-12T10:43:00.000Z</Time>
            <Position>
              <LatitudeDegrees>40.6752777658402919769287109375</LatitudeDegrees>
              <LongitudeDegrees>24.73807065747678279876708984375</LongitudeDegrees>
            </Position>
            <AltitudeMeters>567.20001220703125</AltitudeMeters>
            <DistanceMeters>5421.8821772478</DistanceMeters>
          </Trackpoint>
          <Trackpoint>
            <Time>2022-02-12T10:43:06.000Z</Time>
            <Position>
              <LatitudeDegrees>40.67536753602325916290283203125</LatitudeDegrees>
              <LongitudeDegrees>24.73815414123237133026123046875</LongitudeDegrees>
            </Position>
            <AltitudeMeters>566.79998779296875</AltitudeMeters>
            <DistanceMeters>5434.1085375178</DistanceMeters>
          </Trackpoint>
          <Trackpoint>
            <Time>2022-02-12T10:43:07.000Z</Time>
            <Position>
              <LatitudeDegrees>40.675375498831272125244140625</LatitudeDegrees>
              <LongitudeDegrees>24.738162942230701446533203125</LongitudeDegrees>
            </Position>
            <AltitudeMeters>566.79998779296875</AltitudeMeters>
            <DistanceMeters>5435.2645873929</DistanceMeters>
          </Trackpoint>
          <Trackpoint>
            <Time>2022-02-12T10:43:13.000Z</Time>
            <Position>
              <LatitudeDegrees>40.6754269637167453765869140625</LatitudeDegrees>
              <LongitudeDegrees>24.7382475994527339935302734375</LongitudeDegrees>
            </Position>
            <AltitudeMeters>567.4000244140625</AltitudeMeters>
            <DistanceMeters>5444.4227176612</DistanceMeters>
          </Trackpoint>
          <Trackpoint>
            <Time>2022-02-12T10:43:14.000Z</Time>
            <Position>
              <LatitudeDegrees>40.6754309870302677154541015625</LatitudeDegrees>
              <LongitudeDegrees>24.7382583282887935638427734375</LongitudeDegrees>
            </Position>
            <AltitudeMeters>567.4000244140625</AltitudeMeters>
            <DistanceMeters>5445.4373253266</DistanceMeters>
          </Trackpoint>
          <Trackpoint>
            <Time>2022-02-12T10:43:17.000Z</Time>
            <Position>
              <LatitudeDegrees>40.67544154822826385498046875</LatitudeDegrees>
              <LongitudeDegrees>24.73828456364572048187255859375</LongitudeDegrees>
            </Position>
            <AltitudeMeters>567.5999755859375</AltitudeMeters>
            <DistanceMeters>5447.9443022321</DistanceMeters>
          </Trackpoint>
          <Trackpoint>
            <Time>2022-02-12T10:43:21.000Z</Time>
            <Position>
              <LatitudeDegrees>40.67545169033110141754150390625</LatitudeDegrees>
              <LongitudeDegrees>24.73830803297460079193115234375</LongitudeDegrees>
            </Position>
            <AltitudeMeters>567.5999755859375</AltitudeMeters>
            <DistanceMeters>5450.224943377</DistanceMeters>
          </Trackpoint>
          <Trackpoint>
            <Time>2022-02-12T10:43:25.000Z</Time>
            <Position>
              <LatitudeDegrees>40.6754718907177448272705078125</LatitudeDegrees>
              <LongitudeDegrees>24.7383632697165012359619140625</LongitudeDegrees>
            </Position>
            <AltitudeMeters>567.4000244140625</AltitudeMeters>
            <DistanceMeters>5455.4010651694</DistanceMeters>
          </Trackpoint>
          <Trackpoint>
            <Time>2022-02-12T10:43:30.000Z</Time>
            <Position>
              <LatitudeDegrees>40.67551807500422000885009765625</LatitudeDegrees>
              <LongitudeDegrees>24.73843594081699848175048828125</LongitudeDegrees>
            </Position>
            <AltitudeMeters>567.5999755859375</AltitudeMeters>
            <DistanceMeters>5463.4036461368</DistanceMeters>
          </Trackpoint>
          <Trackpoint>
            <Time>2022-02-12T10:43:36.000Z</Time>
            <Position>
              <LatitudeDegrees>40.67558378912508487701416015625</LatitudeDegrees>
              <LongitudeDegrees>24.73850903101265430450439453125</LongitudeDegrees>
            </Position>
            <AltitudeMeters>568</AltitudeMeters>
            <DistanceMeters>5472.9730769045</DistanceMeters>
          </Trackpoint>
          <Trackpoint>
            <Time>2022-02-12T10:43:37.000Z</Time>
            <Position>
              <LatitudeDegrees>40.67559150047600269317626953125</LatitudeDegrees>
              <LongitudeDegrees>24.73852395080029964447021484375</LongitudeDegrees>
            </Position>
            <AltitudeMeters>568</AltitudeMeters>
            <DistanceMeters>5474.4994319493</DistanceMeters>
          </Trackpoint>
          <Trackpoint>
            <Time>2022-02-12T10:43:42.000Z</Time>
            <Position>
              <LatitudeDegrees>40.6756412051618099212646484375</LatitudeDegrees>
              <LongitudeDegrees>24.73860190249979496002197265625</LongitudeDegrees>
            </Position>
            <AltitudeMeters>568</AltitudeMeters>
            <DistanceMeters>5483.0960676643</DistanceMeters>
          </Trackpoint>
          <Trackpoint>
            <Time>2022-02-12T10:43:43.000Z</Time>
            <Position>
              <LatitudeDegrees>40.67564045079052448272705078125</LatitudeDegrees>
              <LongitudeDegrees>24.7386197559535503387451171875</LongitudeDegrees>
            </Position>
            <AltitudeMeters>567.79998779296875</AltitudeMeters>
            <DistanceMeters>5484.6045699891</DistanceMeters>
          </Trackpoint>
          <Trackpoint>
            <Time>2022-02-12T10:43:46.000Z</Time>
            <Position>
              <LatitudeDegrees>40.675653107464313507080078125</LatitudeDegrees>
              <LongitudeDegrees>24.738656468689441680908203125</LongitudeDegrees>
            </Position>
            <AltitudeMeters>567.79998779296875</AltitudeMeters>
            <DistanceMeters>5488.0083308617</DistanceMeters>
          </Trackpoint>
          <Trackpoint>
            <Time>2022-02-12T10:43:49.000Z</Time>
            <Position>
              <LatitudeDegrees>40.675665847957134246826171875</LatitudeDegrees>
              <LongitudeDegrees>24.7386968694627285003662109375</LongitudeDegrees>
            </Position>
            <AltitudeMeters>567.5999755859375</AltitudeMeters>
            <DistanceMeters>5491.7009472011</DistanceMeters>
          </Trackpoint>
          <Trackpoint>
            <Time>2022-02-12T10:43:51.000Z</Time>
            <Position>
              <LatitudeDegrees>40.675664842128753662109375</LatitudeDegrees>
              <LongitudeDegrees>24.7387132979929447174072265625</LongitudeDegrees>
            </Position>
            <AltitudeMeters>567.5999755859375</AltitudeMeters>
            <DistanceMeters>5493.0910681883</DistanceMeters>
          </Trackpoint>
          <Trackpoint>
            <Time>2022-02-12T10:43:52.000Z</Time>
            <Position>
              <LatitudeDegrees>40.67566685378551483154296875</LatitudeDegrees>
              <LongitudeDegrees>24.7387132979929447174072265625</LongitudeDegrees>
            </Position>
            <AltitudeMeters>567.5999755859375</AltitudeMeters>
            <DistanceMeters>5493.3238351504</DistanceMeters>
          </Trackpoint>
          <Trackpoint>
            <Time>2022-02-12T10:43:54.000Z</Time>
            <Position>
              <LatitudeDegrees>40.6756891496479511260986328125</LatitudeDegrees>
              <LongitudeDegrees>24.73872511647641658782958984375</LongitudeDegrees>
            </Position>
            <AltitudeMeters>567.5999755859375</AltitudeMeters>
            <DistanceMeters>5495.9981239425</DistanceMeters>
          </Trackpoint>
          <Trackpoint>
            <Time>2022-02-12T10:43:58.000Z</Time>
            <Position>
              <LatitudeDegrees>40.67570633254945278167724609375</LatitudeDegrees>
              <LongitudeDegrees>24.738773144781589508056640625</LongitudeDegrees>
            </Position>
            <AltitudeMeters>567.5999755859375</AltitudeMeters>
            <DistanceMeters>5500.4805250946</DistanceMeters>
          </Trackpoint>
          <Trackpoint>
            <Time>2022-02-12T10:44:00.000Z</Time>
            <Position>
              <LatitudeDegrees>40.67570817656815052032470703125</LatitudeDegrees>
              <LongitudeDegrees>24.73878823220729827880859375</LongitudeDegrees>
            </Position>
            <AltitudeMeters>567.4000244140625</AltitudeMeters>
            <DistanceMeters>5501.7695301627</DistanceMeters>
          </Trackpoint>
          <Trackpoint>
            <Time>2022-02-12T10:44:01.000Z</Time>
            <Position>
              <LatitudeDegrees>40.67570834420621395111083984375</LatitudeDegrees>
              <LongitudeDegrees>24.738802649080753326416015625</LongitudeDegrees>
            </Position>
            <AltitudeMeters>567.4000244140625</AltitudeMeters>
            <DistanceMeters>5502.9864658787</DistanceMeters>
          </Trackpoint>
          <Trackpoint>
            <Time>2022-02-12T10:47:51.000Z</Time>
            <Position>
              <LatitudeDegrees>40.6758215837180614471435546875</LatitudeDegrees>
              <LongitudeDegrees>24.7387438081204891204833984375</LongitudeDegrees>
            </Position>
            <AltitudeMeters>566.5999755859375</AltitudeMeters>
            <DistanceMeters>5516.5333564286</DistanceMeters>
          </Trackpoint>
          <Trackpoint>
            <Time>2022-02-12T10:47:52.000Z</Time>
            <Position>
              <LatitudeDegrees>40.67582317627966403961181640625</LatitudeDegrees>
              <LongitudeDegrees>24.73875244148075580596923828125</LongitudeDegrees>
            </Position>
            <AltitudeMeters>566.5999755859375</AltitudeMeters>
            <DistanceMeters>5517.2815975258</DistanceMeters>
          </Trackpoint>
          <Trackpoint>
            <Time>2022-02-12T10:47:54.000Z</Time>
            <Position>
              <LatitudeDegrees>40.6758269481360912322998046875</LatitudeDegrees>
              <LongitudeDegrees>24.73877591080963611602783203125</LongitudeDegrees>
            </Position>
            <AltitudeMeters>566.5999755859375</AltitudeMeters>
            <DistanceMeters>5519.3063579327</DistanceMeters>
          </Trackpoint>
          <Trackpoint>
            <Time>2022-02-12T10:47:58.000Z</Time>
            <Position>
              <LatitudeDegrees>40.67584664560854434967041015625</LatitudeDegrees>
              <LongitudeDegrees>24.7388189099729061126708984375</LongitudeDegrees>
            </Position>
            <AltitudeMeters>566.5999755859375</AltitudeMeters>
            <DistanceMeters>5523.5475738287</DistanceMeters>
          </Trackpoint>
          <Trackpoint>
            <Time>2022-02-12T10:47:59.000Z</Time>
            <Position>
              <LatitudeDegrees>40.67585335113108158111572265625</LatitudeDegrees>
              <LongitudeDegrees>24.73883039318025112152099609375</LongitudeDegrees>
            </Position>
            <AltitudeMeters>566.5999755859375</AltitudeMeters>
            <DistanceMeters>5524.7719073983</DistanceMeters>
          </Trackpoint>
          <Trackpoint>
            <Time>2022-02-12T10:48:00.000Z</Time>
            <Position>
              <LatitudeDegrees>40.67586340941488742828369140625</LatitudeDegrees>
              <LongitudeDegrees>24.73884011618793010711669921875</LongitudeDegrees>
            </Position>
            <AltitudeMeters>566.79998779296875</AltitudeMeters>
            <DistanceMeters>5526.1620283855</DistanceMeters>
          </Trackpoint>
          <Trackpoint>
            <Time>2022-02-12T10:48:01.000Z</Time>
            <Position>
              <LatitudeDegrees>40.67587346769869327545166015625</LatitudeDegrees>
              <LongitudeDegrees>24.73884749226272106170654296875</LongitudeDegrees>
            </Position>
            <AltitudeMeters>566.79998779296875</AltitudeMeters>
            <DistanceMeters>5527.4369455436</DistanceMeters>
          </Trackpoint>
          <Trackpoint>
            <Time>2022-02-12T10:48:05.000Z</Time>
            <Position>
              <LatitudeDegrees>40.6759057380259037017822265625</LatitudeDegrees>
              <LongitudeDegrees>24.73887716419994831085205078125</LongitudeDegrees>
            </Position>
            <AltitudeMeters>567.5999755859375</AltitudeMeters>
            <DistanceMeters>5531.8164298017</DistanceMeters>
          </Trackpoint>
          <Trackpoint>
            <Time>2022-02-12T10:48:09.000Z</Time>
            <Position>
              <LatitudeDegrees>40.67594102583825588226318359375</LatitudeDegrees>
              <LongitudeDegrees>24.73891203291714191436767578125</LongitudeDegrees>
            </Position>
            <AltitudeMeters>568</AltitudeMeters>
            <DistanceMeters>5536.7248148673</DistanceMeters>
          </Trackpoint>
          <Trackpoint>
            <Time>2022-02-12T10:48:11.000Z</Time>
            <Position>
              <LatitudeDegrees>40.67595175467431545257568359375</LatitudeDegrees>
              <LongitudeDegrees>24.7389305569231510162353515625</LongitudeDegrees>
            </Position>
            <AltitudeMeters>568.20001220703125</AltitudeMeters>
            <DistanceMeters>5538.6930381256</DistanceMeters>
          </Trackpoint>
          <Trackpoint>
            <Time>2022-02-12T10:48:12.000Z</Time>
            <Position>
              <LatitudeDegrees>40.6759603880345821380615234375</LatitudeDegrees>
              <LongitudeDegrees>24.738936759531497955322265625</LongitudeDegrees>
            </Position>
            <AltitudeMeters>568.4000244140625</AltitudeMeters>
            <DistanceMeters>5539.7848119532</DistanceMeters>
          </Trackpoint>
          <Trackpoint>
            <Time>2022-02-12T10:48:13.000Z</Time>
            <Position>
              <LatitudeDegrees>40.6759687699377536773681640625</LatitudeDegrees>
              <LongitudeDegrees>24.738943465054035186767578125</LongitudeDegrees>
            </Position>
            <AltitudeMeters>568.4000244140625</AltitudeMeters>
            <DistanceMeters>5540.8765857807</DistanceMeters>
          </Trackpoint>
          <Trackpoint>
            <Time>2022-02-12T10:48:16.000Z</Time>
            <Position>
              <LatitudeDegrees>40.67599140107631683349609375</LatitudeDegrees>
              <LongitudeDegrees>24.738961569964885711669921875</LongitudeDegrees>
            </Position>
            <AltitudeMeters>569</AltitudeMeters>
            <DistanceMeters>5543.8239462166</DistanceMeters>
          </Trackpoint>
          <Trackpoint>
            <Time>2022-02-12T10:48:18.000Z</Time>
            <Position>
              <LatitudeDegrees>40.67599785514175891876220703125</LatitudeDegrees>
              <LongitudeDegrees>24.738974310457706451416015625</LongitudeDegrees>
            </Position>
            <AltitudeMeters>569.4000244140625</AltitudeMeters>
            <DistanceMeters>5545.1199378133</DistanceMeters>
          </Trackpoint>
          <Trackpoint>
            <Time>2022-02-12T10:48:19.000Z</Time>
            <Position>
              <LatitudeDegrees>40.67599953152239322662353515625</LatitudeDegrees>
              <LongitudeDegrees>24.73897405900061130523681640625</LongitudeDegrees>
            </Position>
            <AltitudeMeters>569.5999755859375</AltitudeMeters>
            <DistanceMeters>5545.309991242</DistanceMeters>
          </Trackpoint>
          <Trackpoint>
            <Time>2022-02-12T10:48:23.000Z</Time>
            <Position>
              <LatitudeDegrees>40.6760049797594547271728515625</LatitudeDegrees>
              <LongitudeDegrees>24.73898763768374919891357421875</LongitudeDegrees>
            </Position>
            <AltitudeMeters>569.79998779296875</AltitudeMeters>
            <DistanceMeters>5546.609462017</DistanceMeters>
          </Trackpoint>
          <Trackpoint>
            <Time>2022-02-12T10:48:24.000Z</Time>
            <Position>
              <LatitudeDegrees>40.676000118255615234375</LatitudeDegrees>
              <LongitudeDegrees>24.7389939241111278533935546875</LongitudeDegrees>
            </Position>
            <AltitudeMeters>569.79998779296875</AltitudeMeters>
            <DistanceMeters>5547.369675732</DistanceMeters>
          </Trackpoint>
          <Trackpoint>
            <Time>2022-02-12T10:48:30.000Z</Time>
            <Position>
              <LatitudeDegrees>40.67600120790302753448486328125</LatitudeDegrees>
              <LongitudeDegrees>24.7390019707381725311279296875</LongitudeDegrees>
            </Position>
            <AltitudeMeters>570.4000244140625</AltitudeMeters>
            <DistanceMeters>5548.0549231144</DistanceMeters>
          </Trackpoint>
          <Trackpoint>
            <Time>2022-02-12T10:48:33.000Z</Time>
            <Position>
              <LatitudeDegrees>40.67600439302623271942138671875</LatitudeDegrees>
              <LongitudeDegrees>24.73900155164301395416259765625</LongitudeDegrees>
            </Position>
            <AltitudeMeters>570.5999755859375</AltitudeMeters>
            <DistanceMeters>5548.3975468056</DistanceMeters>
          </Trackpoint>
          <Trackpoint>
            <Time>2022-02-12T10:48:36.000Z</Time>
            <Position>
              <LatitudeDegrees>40.67600405775010585784912109375</LatitudeDegrees>
              <LongitudeDegrees>24.73900289274752140045166015625</LongitudeDegrees>
            </Position>
            <AltitudeMeters>570.5999755859375</AltitudeMeters>
            <DistanceMeters>5548.3975468056</DistanceMeters>
          </Trackpoint>
          <Trackpoint>
            <Time>2022-02-12T10:48:39.000Z</Time>
            <Position>
              <LatitudeDegrees>40.676003135740756988525390625</LatitudeDegrees>
              <LongitudeDegrees>24.7390083409845829010009765625</LongitudeDegrees>
            </Position>
            <AltitudeMeters>570.4000244140625</AltitudeMeters>
            <DistanceMeters>5548.8726803774</DistanceMeters>
          </Trackpoint>
          <Trackpoint>
            <Time>2022-02-12T10:48:45.000Z</Time>
            <Position>
              <LatitudeDegrees>40.67599215544760227203369140625</LatitudeDegrees>
              <LongitudeDegrees>24.7390183992683887481689453125</LongitudeDegrees>
            </Position>
            <AltitudeMeters>570.79998779296875</AltitudeMeters>
            <DistanceMeters>5550.3631161544</DistanceMeters>
          </Trackpoint>
          <Trackpoint>
            <Time>2022-02-12T10:48:47.000Z</Time>
            <Position>
              <LatitudeDegrees>40.67598947323858737945556640625</LatitudeDegrees>
              <LongitudeDegrees>24.73902158439159393310546875</LongitudeDegrees>
            </Position>
            <AltitudeMeters>570.79998779296875</AltitudeMeters>
            <DistanceMeters>5550.7662803591</DistanceMeters>
          </Trackpoint>
          <Trackpoint>
            <Time>2022-02-12T10:48:53.000Z</Time>
            <Position>
              <LatitudeDegrees>40.67597606219351291656494140625</LatitudeDegrees>
              <LongitudeDegrees>24.739029966294765472412109375</LongitudeDegrees>
            </Position>
            <AltitudeMeters>570.4000244140625</AltitudeMeters>
            <DistanceMeters>5552.4176685891</DistanceMeters>
          </Trackpoint>
          <Trackpoint>
            <Time>2022-02-12T10:48:56.000Z</Time>
            <Position>
              <LatitudeDegrees>40.6759845279157161712646484375</LatitudeDegrees>
              <LongitudeDegrees>24.73902904428541660308837890625</LongitudeDegrees>
            </Position>
            <AltitudeMeters>570.5999755859375</AltitudeMeters>
            <DistanceMeters>5553.3679357328</DistanceMeters>
          </Trackpoint>
          <Trackpoint>
            <Time>2022-02-12T10:49:02.000Z</Time>
            <Position>
              <LatitudeDegrees>40.6759888865053653717041015625</LatitudeDegrees>
              <LongitudeDegrees>24.73903097212314605712890625</LongitudeDegrees>
            </Position>
            <AltitudeMeters>571</AltitudeMeters>
            <DistanceMeters>5553.8796702507</DistanceMeters>
          </Trackpoint>
          <Trackpoint>
            <Time>2022-02-12T10:49:05.000Z</Time>
            <Position>
              <LatitudeDegrees>40.67598863504827022552490234375</LatitudeDegrees>
              <LongitudeDegrees>24.739030636847019195556640625</LongitudeDegrees>
            </Position>
            <AltitudeMeters>571</AltitudeMeters>
            <DistanceMeters>5553.8796702507</DistanceMeters>
          </Trackpoint>
          <Trackpoint>
            <Time>2022-02-12T10:49:11.000Z</Time>
            <Position>
              <LatitudeDegrees>40.675987713038921356201171875</LatitudeDegrees>
              <LongitudeDegrees>24.73902954719960689544677734375</LongitudeDegrees>
            </Position>
            <AltitudeMeters>571.20001220703125</AltitudeMeters>
            <DistanceMeters>5554.014058319</DistanceMeters>
          </Trackpoint>
          <Trackpoint>
            <Time>2022-02-12T10:49:12.000Z</Time>
            <Position>
              <LatitudeDegrees>40.67598762921988964080810546875</LatitudeDegrees>
              <LongitudeDegrees>24.73902963101863861083984375</LongitudeDegrees>
            </Position>
            <AltitudeMeters>571.4000244140625</AltitudeMeters>
            <DistanceMeters>5554.014058319</DistanceMeters>
          </Trackpoint>
          <Trackpoint>
            <Time>2022-02-12T10:49:18.000Z</Time>
            <Position>
              <LatitudeDegrees>40.67598712630569934844970703125</LatitudeDegrees>
              <LongitudeDegrees>24.73903021775186061859130859375</LongitudeDegrees>
            </Position>
            <AltitudeMeters>571.20001220703125</AltitudeMeters>
            <DistanceMeters>5554.014058319</DistanceMeters>
          </Trackpoint>
          <Trackpoint>
            <Time>2022-02-12T10:49:24.000Z</Time>
            <Position>
              <LatitudeDegrees>40.67598829977214336395263671875</LatitudeDegrees>
              <LongitudeDegrees>24.73902803845703601837158203125</LongitudeDegrees>
            </Position>
            <AltitudeMeters>570.79998779296875</AltitudeMeters>
            <DistanceMeters>5554.2468252811</DistanceMeters>
          </Trackpoint>
          <Trackpoint>
            <Time>2022-02-12T10:49:27.000Z</Time>
            <Position>
              <LatitudeDegrees>40.67599483765661716461181640625</LatitudeDegrees>
              <LongitudeDegrees>24.73903038538992404937744140625</LongitudeDegrees>
            </Position>
            <AltitudeMeters>571</AltitudeMeters>
            <DistanceMeters>5555.0010764435</DistanceMeters>
          </Trackpoint>
          <Trackpoint>
            <Time>2022-02-12T10:49:29.000Z</Time>
            <Position>
              <LatitudeDegrees>40.67599467001855373382568359375</LatitudeDegrees>
              <LongitudeDegrees>24.7390311397612094879150390625</LongitudeDegrees>
            </Position>
            <AltitudeMeters>571.20001220703125</AltitudeMeters>
            <DistanceMeters>5555.0961031579</DistanceMeters>
          </Trackpoint>
          <Trackpoint>
            <Time>2022-02-12T10:49:30.000Z</Time>
            <Position>
              <LatitudeDegrees>40.67599450238049030303955078125</LatitudeDegrees>
              <LongitudeDegrees>24.73903088830411434173583984375</LongitudeDegrees>
            </Position>
            <AltitudeMeters>571.20001220703125</AltitudeMeters>
            <DistanceMeters>5555.0961031579</DistanceMeters>
          </Trackpoint>
          <Trackpoint>
            <Time>2022-02-12T10:49:36.000Z</Time>
            <Position>
              <LatitudeDegrees>40.6759972684085369110107421875</LatitudeDegrees>
              <LongitudeDegrees>24.7390264458954334259033203125</LongitudeDegrees>
            </Position>
            <AltitudeMeters>570.5999755859375</AltitudeMeters>
            <DistanceMeters>5555.5806462288</DistanceMeters>
          </Trackpoint>
          <Trackpoint>
            <Time>2022-02-12T10:49:38.000Z</Time>
            <Position>
              <LatitudeDegrees>40.67599852569401264190673828125</LatitudeDegrees>
              <LongitudeDegrees>24.73902426660060882568359375</LongitudeDegrees>
            </Position>
            <AltitudeMeters>570.20001220703125</AltitudeMeters>
            <DistanceMeters>5555.8134131909</DistanceMeters>
          </Trackpoint>
          <Trackpoint>
            <Time>2022-02-12T10:49:42.000Z</Time>
            <Position>
              <LatitudeDegrees>40.6760096736252307891845703125</LatitudeDegrees>
              <LongitudeDegrees>24.7390301339328289031982421875</LongitudeDegrees>
            </Position>
            <AltitudeMeters>570</AltitudeMeters>
            <DistanceMeters>5557.1471766855</DistanceMeters>
          </Trackpoint>
          <Trackpoint>
            <Time>2022-02-12T10:49:45.000Z</Time>
            <Position>
              <LatitudeDegrees>40.67600908689200878143310546875</LatitudeDegrees>
              <LongitudeDegrees>24.73902828991413116455078125</LongitudeDegrees>
            </Position>
            <AltitudeMeters>570.20001220703125</AltitudeMeters>
            <DistanceMeters>5557.3117677829</DistanceMeters>
          </Trackpoint>
          <Trackpoint>
            <Time>2022-02-12T10:49:50.000Z</Time>
            <Position>
              <LatitudeDegrees>40.6760133616626262664794921875</LatitudeDegrees>
              <LongitudeDegrees>24.73903021775186061859130859375</LongitudeDegrees>
            </Position>
            <AltitudeMeters>570.4000244140625</AltitudeMeters>
            <DistanceMeters>5557.8146018911</DistanceMeters>
          </Trackpoint>
          <Trackpoint>
            <Time>2022-02-12T10:49:51.000Z</Time>
            <Position>
              <LatitudeDegrees>40.67601419985294342041015625</LatitudeDegrees>
              <LongitudeDegrees>24.73902904428541660308837890625</LongitudeDegrees>
            </Position>
            <AltitudeMeters>570.5999755859375</AltitudeMeters>
            <DistanceMeters>5557.9489899594</DistanceMeters>
          </Trackpoint>
          <Trackpoint>
            <Time>2022-02-12T10:49:53.000Z</Time>
            <Position>
              <LatitudeDegrees>40.67601596005260944366455078125</LatitudeDegrees>
              <LongitudeDegrees>24.73902560770511627197265625</LongitudeDegrees>
            </Position>
            <AltitudeMeters>570.5999755859375</AltitudeMeters>
            <DistanceMeters>5558.3045473671</DistanceMeters>
          </Trackpoint>
          <Trackpoint>
            <Time>2022-02-12T10:49:54.000Z</Time>
            <Position>
              <LatitudeDegrees>40.676016546785831451416015625</LatitudeDegrees>
              <LongitudeDegrees>24.7390251047909259796142578125</LongitudeDegrees>
            </Position>
            <AltitudeMeters>570.79998779296875</AltitudeMeters>
            <DistanceMeters>5558.3045473671</DistanceMeters>
          </Trackpoint>
          <Trackpoint>
            <Time>2022-02-12T10:49:56.000Z</Time>
            <Position>
              <LatitudeDegrees>40.67601730115711688995361328125</LatitudeDegrees>
              <LongitudeDegrees>24.73902233876287937164306640625</LongitudeDegrees>
            </Position>
            <AltitudeMeters>570.79998779296875</AltitudeMeters>
            <DistanceMeters>5558.5373143293</DistanceMeters>
          </Trackpoint>
          <Trackpoint>
            <Time>2022-02-12T10:50:02.000Z</Time>
            <Position>
              <LatitudeDegrees>40.6760163791477680206298828125</LatitudeDegrees>
              <LongitudeDegrees>24.7390170581638813018798828125</LongitudeDegrees>
            </Position>
            <AltitudeMeters>570.79998779296875</AltitudeMeters>
            <DistanceMeters>5558.983029128</DistanceMeters>
          </Trackpoint>
          <Trackpoint>
            <Time>2022-02-12T10:50:05.000Z</Time>
            <Position>
              <LatitudeDegrees>40.6760157085955142974853515625</LatitudeDegrees>
              <LongitudeDegrees>24.7390190698206424713134765625</LongitudeDegrees>
            </Position>
            <AltitudeMeters>570.79998779296875</AltitudeMeters>
            <DistanceMeters>5559.1476202253</DistanceMeters>
          </Trackpoint>
          <Trackpoint>
            <Time>2022-02-12T10:50:11.000Z</Time>
            <Position>
              <LatitudeDegrees>40.676015205681324005126953125</LatitudeDegrees>
              <LongitudeDegrees>24.73902049474418163299560546875</LongitudeDegrees>
            </Position>
            <AltitudeMeters>570.79998779296875</AltitudeMeters>
            <DistanceMeters>5559.2820082936</DistanceMeters>
          </Trackpoint>
          <Trackpoint>
            <Time>2022-02-12T10:50:17.000Z</Time>
            <Position>
              <LatitudeDegrees>40.67601461894810199737548828125</LatitudeDegrees>
              <LongitudeDegrees>24.73902024328708648681640625</LongitudeDegrees>
            </Position>
            <AltitudeMeters>570.79998779296875</AltitudeMeters>
            <DistanceMeters>5559.2820082936</DistanceMeters>
          </Trackpoint>
          <Trackpoint>
            <Time>2022-02-12T10:50:19.000Z</Time>
            <Position>
              <LatitudeDegrees>40.676013864576816558837890625</LatitudeDegrees>
              <LongitudeDegrees>24.73902083002030849456787109375</LongitudeDegrees>
            </Position>
            <AltitudeMeters>570.79998779296875</AltitudeMeters>
            <DistanceMeters>5559.4163963618</DistanceMeters>
          </Trackpoint>
          <Trackpoint>
            <Time>2022-02-12T10:50:20.000Z</Time>
            <Position>
              <LatitudeDegrees>40.67601327784359455108642578125</LatitudeDegrees>
              <LongitudeDegrees>24.73902166821062564849853515625</LongitudeDegrees>
            </Position>
            <AltitudeMeters>570.79998779296875</AltitudeMeters>
            <DistanceMeters>5559.5114230762</DistanceMeters>
          </Trackpoint>
          <Trackpoint>
            <Time>2022-02-12T10:50:22.000Z</Time>
            <Position>
              <LatitudeDegrees>40.6760123558342456817626953125</LatitudeDegrees>
              <LongitudeDegrees>24.73902300931513309478759765625</LongitudeDegrees>
            </Position>
            <AltitudeMeters>571</AltitudeMeters>
            <DistanceMeters>5559.6458111444</DistanceMeters>
          </Trackpoint>
          <Trackpoint>
            <Time>2022-02-12T10:50:25.000Z</Time>
            <Position>
              <LatitudeDegrees>40.67601143382489681243896484375</LatitudeDegrees>
              <LongitudeDegrees>24.739023260772228240966796875</LongitudeDegrees>
            </Position>
            <AltitudeMeters>571</AltitudeMeters>
            <DistanceMeters>5559.7408378588</DistanceMeters>
          </Trackpoint>
          <Trackpoint>
            <Time>2022-02-12T10:50:31.000Z</Time>
            <Position>
              <LatitudeDegrees>40.676008164882659912109375</LatitudeDegrees>
              <LongitudeDegrees>24.73902652971446514129638671875</LongitudeDegrees>
            </Position>
            <AltitudeMeters>571</AltitudeMeters>
            <DistanceMeters>5560.2063717831</DistanceMeters>
          </Trackpoint>
          <Trackpoint>
            <Time>2022-02-12T10:50:34.000Z</Time>
            <Position>
              <LatitudeDegrees>40.6760066561400890350341796875</LatitudeDegrees>
              <LongitudeDegrees>24.73903005011379718780517578125</LongitudeDegrees>
            </Position>
            <AltitudeMeters>570.79998779296875</AltitudeMeters>
            <DistanceMeters>5560.5489954743</DistanceMeters>
          </Trackpoint>
          <Trackpoint>
            <Time>2022-02-12T10:50:36.000Z</Time>
            <Position>
              <LatitudeDegrees>40.6760066561400890350341796875</LatitudeDegrees>
              <LongitudeDegrees>24.7390324808657169342041015625</LongitudeDegrees>
            </Position>
            <AltitudeMeters>570.79998779296875</AltitudeMeters>
            <DistanceMeters>5560.7817624364</DistanceMeters>
          </Trackpoint>
          <Trackpoint>
            <Time>2022-02-12T10:50:38.000Z</Time>
            <Position>
              <LatitudeDegrees>40.67600556649267673492431640625</LatitudeDegrees>
              <LongitudeDegrees>24.73903189413249492645263671875</LongitudeDegrees>
            </Position>
            <AltitudeMeters>570.79998779296875</AltitudeMeters>
            <DistanceMeters>5560.8767891508</DistanceMeters>
          </Trackpoint>
          <Trackpoint>
            <Time>2022-02-12T10:50:39.000Z</Time>
            <Position>
              <LatitudeDegrees>40.6760039739310741424560546875</LatitudeDegrees>
              <LongitudeDegrees>24.73903155885636806488037109375</LongitudeDegrees>
            </Position>
            <AltitudeMeters>570.79998779296875</AltitudeMeters>
            <DistanceMeters>5561.0668425795</DistanceMeters>
          </Trackpoint>
          <Trackpoint>
            <Time>2022-02-12T10:50:40.000Z</Time>
            <Position>
              <LatitudeDegrees>40.676003135740756988525390625</LatitudeDegrees>
              <LongitudeDegrees>24.7390321455895900726318359375</LongitudeDegrees>
            </Position>
            <AltitudeMeters>570.79998779296875</AltitudeMeters>
            <DistanceMeters>5561.2012306478</DistanceMeters>
          </Trackpoint>
          <Trackpoint>
            <Time>2022-02-12T10:50:46.000Z</Time>
            <Position>
              <LatitudeDegrees>40.6760019622743129730224609375</LatitudeDegrees>
              <LongitudeDegrees>24.73903289996087551116943359375</LongitudeDegrees>
            </Position>
            <AltitudeMeters>570.5999755859375</AltitudeMeters>
            <DistanceMeters>5561.3658217452</DistanceMeters>
          </Trackpoint>
          <Trackpoint>
            <Time>2022-02-12T10:50:51.000Z</Time>
            <Position>
              <LatitudeDegrees>40.676000118255615234375</LatitudeDegrees>
              <LongitudeDegrees>24.7390311397612094879150390625</LongitudeDegrees>
            </Position>
            <AltitudeMeters>570.5999755859375</AltitudeMeters>
            <DistanceMeters>5561.5985887073</DistanceMeters>
          </Trackpoint>
          <Trackpoint>
            <Time>2022-02-12T10:50:57.000Z</Time>
            <Position>
              <LatitudeDegrees>40.67600372247397899627685546875</LatitudeDegrees>
              <LongitudeDegrees>24.73902988247573375701904296875</LongitudeDegrees>
            </Position>
            <AltitudeMeters>570.79998779296875</AltitudeMeters>
            <DistanceMeters>5562.0235610933</DistanceMeters>
          </Trackpoint>
          <Trackpoint>
            <Time>2022-02-12T10:50:59.000Z</Time>
            <Position>
              <LatitudeDegrees>40.67600489594042301177978515625</LatitudeDegrees>
              <LongitudeDegrees>24.73902200348675251007080078125</LongitudeDegrees>
            </Position>
            <AltitudeMeters>570.79998779296875</AltitudeMeters>
            <DistanceMeters>5562.6955014346</DistanceMeters>
          </Trackpoint>
          <Trackpoint>
            <Time>2022-02-12T10:51:03.000Z</Time>
            <Position>
              <LatitudeDegrees>40.67600657232105731964111328125</LatitudeDegrees>
              <LongitudeDegrees>24.73901546560227870941162109375</LongitudeDegrees>
            </Position>
            <AltitudeMeters>570.79998779296875</AltitudeMeters>
            <DistanceMeters>5563.2812854433</DistanceMeters>
          </Trackpoint>
          <Trackpoint>
            <Time>2022-02-12T10:51:08.000Z</Time>
            <Position>
              <LatitudeDegrees>40.676003806293010711669921875</LatitudeDegrees>
              <LongitudeDegrees>24.73901311866939067840576171875</LongitudeDegrees>
            </Position>
            <AltitudeMeters>570.79998779296875</AltitudeMeters>
            <DistanceMeters>5563.6493223255</DistanceMeters>
          </Trackpoint>
          <Trackpoint>
            <Time>2022-02-12T10:51:09.000Z</Time>
            <Position>
              <LatitudeDegrees>40.67600422538816928863525390625</LatitudeDegrees>
              <LongitudeDegrees>24.7390133701264858245849609375</LongitudeDegrees>
            </Position>
            <AltitudeMeters>570.79998779296875</AltitudeMeters>
            <DistanceMeters>5563.6493223255</DistanceMeters>
          </Trackpoint>
          <Trackpoint>
            <Time>2022-02-12T10:51:10.000Z</Time>
            <Position>
              <LatitudeDegrees>40.67600439302623271942138671875</LatitudeDegrees>
              <LongitudeDegrees>24.73901362158358097076416015625</LongitudeDegrees>
            </Position>
            <AltitudeMeters>570.79998779296875</AltitudeMeters>
            <DistanceMeters>5563.6493223255</DistanceMeters>
          </Trackpoint>
          <Trackpoint>
            <Time>2022-02-12T10:51:16.000Z</Time>
            <Position>
              <LatitudeDegrees>40.67600439302623271942138671875</LatitudeDegrees>
              <LongitudeDegrees>24.73901445977389812469482421875</LongitudeDegrees>
            </Position>
            <AltitudeMeters>570.79998779296875</AltitudeMeters>
            <DistanceMeters>5563.6493223255</DistanceMeters>
          </Trackpoint>
          <Trackpoint>
            <Time>2022-02-12T10:51:22.000Z</Time>
            <Position>
              <LatitudeDegrees>40.67600347101688385009765625</LatitudeDegrees>
              <LongitudeDegrees>24.73901546560227870941162109375</LongitudeDegrees>
            </Position>
            <AltitudeMeters>570.79998779296875</AltitudeMeters>
            <DistanceMeters>5563.7837103937</DistanceMeters>
          </Trackpoint>
          <Trackpoint>
            <Time>2022-02-12T10:51:26.000Z</Time>
            <Position>
              <LatitudeDegrees>40.67600338719785213470458984375</LatitudeDegrees>
              <LongitudeDegrees>24.73901689052581787109375</LongitudeDegrees>
            </Position>
            <AltitudeMeters>570.79998779296875</AltitudeMeters>
            <DistanceMeters>5563.918098462</DistanceMeters>
          </Trackpoint>
          <Trackpoint>
            <Time>2022-02-12T10:51:30.000Z</Time>
            <Position>
              <LatitudeDegrees>40.67600481212139129638671875</LatitudeDegrees>
              <LongitudeDegrees>24.7390130348503589630126953125</LongitudeDegrees>
            </Position>
            <AltitudeMeters>570.79998779296875</AltitudeMeters>
            <DistanceMeters>5564.2736558697</DistanceMeters>
          </Trackpoint>
          <Trackpoint>
            <Time>2022-02-12T10:51:32.000Z</Time>
            <Position>
              <LatitudeDegrees>40.67600254900753498077392578125</LatitudeDegrees>
              <LongitudeDegrees>24.7390130348503589630126953125</LongitudeDegrees>
            </Position>
            <AltitudeMeters>570.79998779296875</AltitudeMeters>
            <DistanceMeters>5564.5250729239</DistanceMeters>
          </Trackpoint>
          <Trackpoint>
            <Time>2022-02-12T10:51:38.000Z</Time>
            <Position>
              <LatitudeDegrees>40.67600104026496410369873046875</LatitudeDegrees>
              <LongitudeDegrees>24.73901496268808841705322265625</LongitudeDegrees>
            </Position>
            <AltitudeMeters>570.79998779296875</AltitudeMeters>
            <DistanceMeters>5564.776489978</DistanceMeters>
          </Trackpoint>
          <Trackpoint>
            <Time>2022-02-12T10:51:40.000Z</Time>
            <Position>
              <LatitudeDegrees>40.67600070498883724212646484375</LatitudeDegrees>
              <LongitudeDegrees>24.7390153817832469940185546875</LongitudeDegrees>
            </Position>
            <AltitudeMeters>570.79998779296875</AltitudeMeters>
            <DistanceMeters>5564.776489978</DistanceMeters>
          </Trackpoint>
          <Trackpoint>
            <Time>2022-02-12T10:51:46.000Z</Time>
            <Position>
              <LatitudeDegrees>40.67599835805594921112060546875</LatitudeDegrees>
              <LongitudeDegrees>24.7390197403728961944580078125</LongitudeDegrees>
            </Position>
            <AltitudeMeters>570.79998779296875</AltitudeMeters>
            <DistanceMeters>5565.2222047767</DistanceMeters>
          </Trackpoint>
          <Trackpoint>
            <Time>2022-02-12T10:51:49.000Z</Time>
            <Position>
              <LatitudeDegrees>40.67599886097013950347900390625</LatitudeDegrees>
              <LongitudeDegrees>24.7390200756490230560302734375</LongitudeDegrees>
            </Position>
            <AltitudeMeters>570.79998779296875</AltitudeMeters>
            <DistanceMeters>5565.2222047767</DistanceMeters>
          </Trackpoint>
          <Trackpoint>
            <Time>2022-02-12T10:51:55.000Z</Time>
            <Position>
              <LatitudeDegrees>40.67600003443658351898193359375</LatitudeDegrees>
              <LongitudeDegrees>24.739019237458705902099609375</LongitudeDegrees>
            </Position>
            <AltitudeMeters>570.79998779296875</AltitudeMeters>
            <DistanceMeters>5565.4122582054</DistanceMeters>
          </Trackpoint>
          <Trackpoint>
            <Time>2022-02-12T10:51:58.000Z</Time>
            <Position>
              <LatitudeDegrees>40.67599986679852008819580078125</LatitudeDegrees>
              <LongitudeDegrees>24.73901898600161075592041015625</LongitudeDegrees>
            </Position>
            <AltitudeMeters>570.79998779296875</AltitudeMeters>
            <DistanceMeters>5565.4122582054</DistanceMeters>
          </Trackpoint>
          <Trackpoint>
            <Time>2022-02-12T10:52:01.000Z</Time>
            <Position>
              <LatitudeDegrees>40.6759999506175518035888671875</LatitudeDegrees>
              <LongitudeDegrees>24.73901881836354732513427734375</LongitudeDegrees>
            </Position>
            <AltitudeMeters>570.79998779296875</AltitudeMeters>
            <DistanceMeters>5565.4122582054</DistanceMeters>
          </Trackpoint>
          <Trackpoint>
            <Time>2022-02-12T10:52:03.000Z</Time>
            <Position>
              <LatitudeDegrees>40.67600053735077381134033203125</LatitudeDegrees>
              <LongitudeDegrees>24.73901898600161075592041015625</LongitudeDegrees>
            </Position>
            <AltitudeMeters>570.79998779296875</AltitudeMeters>
            <DistanceMeters>5565.4122582054</DistanceMeters>
          </Trackpoint>
          <Trackpoint>
            <Time>2022-02-12T10:52:07.000Z</Time>
            <Position>
              <LatitudeDegrees>40.67599919624626636505126953125</LatitudeDegrees>
              <LongitudeDegrees>24.73901697434484958648681640625</LongitudeDegrees>
            </Position>
            <AltitudeMeters>570.79998779296875</AltitudeMeters>
            <DistanceMeters>5565.6247443984</DistanceMeters>
          </Trackpoint>
          <Trackpoint>
            <Time>2022-02-12T10:52:13.000Z</Time>
            <Position>
              <LatitudeDegrees>40.67600171081721782684326171875</LatitudeDegrees>
              <LongitudeDegrees>24.73901395685970783233642578125</LongitudeDegrees>
            </Position>
            <AltitudeMeters>570.79998779296875</AltitudeMeters>
            <DistanceMeters>5566.0048512559</DistanceMeters>
          </Trackpoint>
          <Trackpoint>
            <Time>2022-02-12T10:52:19.000Z</Time>
            <Position>
              <LatitudeDegrees>40.67600154317915439605712890625</LatitudeDegrees>
              <LongitudeDegrees>24.7390230931341648101806640625</LongitudeDegrees>
            </Position>
            <AltitudeMeters>570.79998779296875</AltitudeMeters>
            <DistanceMeters>5566.7768519329</DistanceMeters>
          </Trackpoint>
          <Trackpoint>
            <Time>2022-02-12T10:52:21.000Z</Time>
            <Position>
              <LatitudeDegrees>40.67600120790302753448486328125</LatitudeDegrees>
              <LongitudeDegrees>24.7390230931341648101806640625</LongitudeDegrees>
            </Position>
            <AltitudeMeters>570.79998779296875</AltitudeMeters>
            <DistanceMeters>5566.7768519329</DistanceMeters>
          </Trackpoint>
          <Trackpoint>
            <Time>2022-02-12T10:52:22.000Z</Time>
            <Position>
              <LatitudeDegrees>40.67600087262690067291259765625</LatitudeDegrees>
              <LongitudeDegrees>24.7390230931341648101806640625</LongitudeDegrees>
            </Position>
            <AltitudeMeters>570.79998779296875</AltitudeMeters>
            <DistanceMeters>5566.7768519329</DistanceMeters>
          </Trackpoint>
          <Trackpoint>
            <Time>2022-02-12T10:52:24.000Z</Time>
            <Position>
              <LatitudeDegrees>40.67600070498883724212646484375</LatitudeDegrees>
              <LongitudeDegrees>24.7390230931341648101806640625</LongitudeDegrees>
            </Position>
            <AltitudeMeters>570.79998779296875</AltitudeMeters>
            <DistanceMeters>5566.7768519329</DistanceMeters>
          </Trackpoint>
          <Trackpoint>
            <Time>2022-02-12T10:52:26.000Z</Time>
            <Position>
              <LatitudeDegrees>40.676000453531742095947265625</LatitudeDegrees>
              <LongitudeDegrees>24.7390230931341648101806640625</LongitudeDegrees>
            </Position>
            <AltitudeMeters>570.79998779296875</AltitudeMeters>
            <DistanceMeters>5566.7768519329</DistanceMeters>
          </Trackpoint>
          <Trackpoint>
            <Time>2022-02-12T10:52:32.000Z</Time>
            <Position>
              <LatitudeDegrees>40.675999112427234649658203125</LatitudeDegrees>
              <LongitudeDegrees>24.73902250640094280242919921875</LongitudeDegrees>
            </Position>
            <AltitudeMeters>570.79998779296875</AltitudeMeters>
            <DistanceMeters>5566.9112400012</DistanceMeters>
          </Trackpoint>
          <Trackpoint>
            <Time>2022-02-12T10:52:37.000Z</Time>
            <Position>
              <LatitudeDegrees>40.67599869333207607269287109375</LatitudeDegrees>
              <LongitudeDegrees>24.73902837373316287994384765625</LongitudeDegrees>
            </Position>
            <AltitudeMeters>570.79998779296875</AltitudeMeters>
            <DistanceMeters>5567.4050132933</DistanceMeters>
          </Trackpoint>
          <Trackpoint>
            <Time>2022-02-12T10:52:39.000Z</Time>
            <Position>
              <LatitudeDegrees>40.675999112427234649658203125</LatitudeDegrees>
              <LongitudeDegrees>24.7390294633805751800537109375</LongitudeDegrees>
            </Position>
            <AltitudeMeters>570.79998779296875</AltitudeMeters>
            <DistanceMeters>5567.5000400076</DistanceMeters>
          </Trackpoint>
          <Trackpoint>
            <Time>2022-02-12T10:52:41.000Z</Time>
            <Position>
              <LatitudeDegrees>40.6759996153414249420166015625</LatitudeDegrees>
              <LongitudeDegrees>24.739030636847019195556640625</LongitudeDegrees>
            </Position>
            <AltitudeMeters>570.79998779296875</AltitudeMeters>
            <DistanceMeters>5567.6344280759</DistanceMeters>
          </Trackpoint>
          <Trackpoint>
            <Time>2022-02-12T10:52:43.000Z</Time>
            <Position>
              <LatitudeDegrees>40.67600053735077381134033203125</LatitudeDegrees>
              <LongitudeDegrees>24.73903055302798748016357421875</LongitudeDegrees>
            </Position>
            <AltitudeMeters>570.79998779296875</AltitudeMeters>
            <DistanceMeters>5567.6344280759</DistanceMeters>
          </Trackpoint>
          <Trackpoint>
            <Time>2022-02-12T10:52:46.000Z</Time>
            <Position>
              <LatitudeDegrees>40.67600271664559841156005859375</LatitudeDegrees>
              <LongitudeDegrees>24.73903256468474864959716796875</LongitudeDegrees>
            </Position>
            <AltitudeMeters>570.79998779296875</AltitudeMeters>
            <DistanceMeters>5567.9032042124</DistanceMeters>
          </Trackpoint>
          <Trackpoint>
            <Time>2022-02-12T10:52:50.000Z</Time>
            <Position>
              <LatitudeDegrees>40.67600321955978870391845703125</LatitudeDegrees>
              <LongitudeDegrees>24.73903499543666839599609375</LongitudeDegrees>
            </Position>
            <AltitudeMeters>570.79998779296875</AltitudeMeters>
            <DistanceMeters>5568.0932576411</DistanceMeters>
          </Trackpoint>
          <Trackpoint>
            <Time>2022-02-12T10:52:52.000Z</Time>
            <Position>
              <LatitudeDegrees>40.67600422538816928863525390625</LatitudeDegrees>
              <LongitudeDegrees>24.73903507925570011138916015625</LongitudeDegrees>
            </Position>
            <AltitudeMeters>570.79998779296875</AltitudeMeters>
            <DistanceMeters>5568.0932576411</DistanceMeters>
          </Trackpoint>
          <Trackpoint>
            <Time>2022-02-12T10:52:55.000Z</Time>
            <Position>
              <LatitudeDegrees>40.67600254900753498077392578125</LatitudeDegrees>
              <LongitudeDegrees>24.73903507925570011138916015625</LongitudeDegrees>
            </Position>
            <AltitudeMeters>570.79998779296875</AltitudeMeters>
            <DistanceMeters>5568.2833110699</DistanceMeters>
          </Trackpoint>
          <Trackpoint>
            <Time>2022-02-12T10:52:58.000Z</Time>
            <Position>
              <LatitudeDegrees>40.6760014593601226806640625</LatitudeDegrees>
              <LongitudeDegrees>24.7390316426753997802734375</LongitudeDegrees>
            </Position>
            <AltitudeMeters>570.79998779296875</AltitudeMeters>
            <DistanceMeters>5568.5838119258</DistanceMeters>
          </Trackpoint>
          <Trackpoint>
            <Time>2022-02-12T10:53:02.000Z</Time>
            <Position>
              <LatitudeDegrees>40.67600238136947154998779296875</LatitudeDegrees>
              <LongitudeDegrees>24.73903021775186061859130859375</LongitudeDegrees>
            </Position>
            <AltitudeMeters>570.79998779296875</AltitudeMeters>
            <DistanceMeters>5568.7484030232</DistanceMeters>
          </Trackpoint>
          <Trackpoint>
            <Time>2022-02-12T10:53:04.000Z</Time>
            <Position>
              <LatitudeDegrees>40.676002465188503265380859375</LatitudeDegrees>
              <LongitudeDegrees>24.7390301339328289031982421875</LongitudeDegrees>
            </Position>
            <AltitudeMeters>570.79998779296875</AltitudeMeters>
            <DistanceMeters>5568.7484030232</DistanceMeters>
          </Trackpoint>
          <Trackpoint>
            <Time>2022-02-12T10:53:05.000Z</Time>
            <Position>
              <LatitudeDegrees>40.67600254900753498077392578125</LatitudeDegrees>
              <LongitudeDegrees>24.7390304692089557647705078125</LongitudeDegrees>
            </Position>
            <AltitudeMeters>570.79998779296875</AltitudeMeters>
            <DistanceMeters>5568.7484030232</DistanceMeters>
          </Trackpoint>
          <Trackpoint>
            <Time>2022-02-12T10:53:11.000Z</Time>
            <Position>
              <LatitudeDegrees>40.67600422538816928863525390625</LatitudeDegrees>
              <LongitudeDegrees>24.73903097212314605712890625</LongitudeDegrees>
            </Position>
            <AltitudeMeters>570.79998779296875</AltitudeMeters>
            <DistanceMeters>5568.9384564519</DistanceMeters>
          </Trackpoint>
          <Trackpoint>
            <Time>2022-02-12T10:53:16.000Z</Time>
            <Position>
              <LatitudeDegrees>40.67600070498883724212646484375</LatitudeDegrees>
              <LongitudeDegrees>24.7390308044850826263427734375</LongitudeDegrees>
            </Position>
            <AltitudeMeters>570.79998779296875</AltitudeMeters>
            <DistanceMeters>5569.3185633094</DistanceMeters>
          </Trackpoint>
          <Trackpoint>
            <Time>2022-02-12T10:53:18.000Z</Time>
            <Position>
              <LatitudeDegrees>40.6759999506175518035888671875</LatitudeDegrees>
              <LongitudeDegrees>24.7390289604663848876953125</LongitudeDegrees>
            </Position>
            <AltitudeMeters>570.79998779296875</AltitudeMeters>
            <DistanceMeters>5569.5086167382</DistanceMeters>
          </Trackpoint>
          <Trackpoint>
            <Time>2022-02-12T10:53:20.000Z</Time>
            <Position>
              <LatitudeDegrees>40.6760006211698055267333984375</LatitudeDegrees>
              <LongitudeDegrees>24.7390277869999408721923828125</LongitudeDegrees>
            </Position>
            <AltitudeMeters>570.79998779296875</AltitudeMeters>
            <DistanceMeters>5569.6430048064</DistanceMeters>
          </Trackpoint>
          <Trackpoint>
            <Time>2022-02-12T10:53:33.000Z</Time>
            <Position>
              <LatitudeDegrees>40.67601713351905345916748046875</LatitudeDegrees>
              <LongitudeDegrees>24.73898671567440032958984375</LongitudeDegrees>
            </Position>
            <AltitudeMeters>570.79998779296875</AltitudeMeters>
            <DistanceMeters>5573.5679647315</DistanceMeters>
          </Trackpoint>
          <Trackpoint>
            <Time>2022-02-12T10:53:34.000Z</Time>
            <Position>
              <LatitudeDegrees>40.6760200671851634979248046875</LatitudeDegrees>
              <LongitudeDegrees>24.7389848716557025909423828125</LongitudeDegrees>
            </Position>
            <AltitudeMeters>570.79998779296875</AltitudeMeters>
            <DistanceMeters>5573.9360016137</DistanceMeters>
          </Trackpoint>
          <Trackpoint>
            <Time>2022-02-12T10:53:38.000Z</Time>
            <Position>
              <LatitudeDegrees>40.67604026757180690765380859375</LatitudeDegrees>
              <LongitudeDegrees>24.73901378922164440155029296875</LongitudeDegrees>
            </Position>
            <AltitudeMeters>570.79998779296875</AltitudeMeters>
            <DistanceMeters>5577.2551420539</DistanceMeters>
          </Trackpoint>
          <Trackpoint>
            <Time>2022-02-12T10:53:44.000Z</Time>
            <Position>
              <LatitudeDegrees>40.6760737113654613494873046875</LatitudeDegrees>
              <LongitudeDegrees>24.7390660084784030914306640625</LongitudeDegrees>
            </Position>
            <AltitudeMeters>571.5999755859375</AltitudeMeters>
            <DistanceMeters>5583.0244454583</DistanceMeters>
          </Trackpoint>
          <Trackpoint>
            <Time>2022-02-12T10:53:45.000Z</Time>
            <Position>
              <LatitudeDegrees>40.67608402110636234283447265625</LatitudeDegrees>
              <LongitudeDegrees>24.73907279781997203826904296875</LongitudeDegrees>
            </Position>
            <AltitudeMeters>572</AltitudeMeters>
            <DistanceMeters>5584.3064259234</DistanceMeters>
          </Trackpoint>
          <Trackpoint>
            <Time>2022-02-12T10:53:47.000Z</Time>
            <Position>
              <LatitudeDegrees>40.676108412444591522216796875</LatitudeDegrees>
              <LongitudeDegrees>24.73908604122698307037353515625</LongitudeDegrees>
            </Position>
            <AltitudeMeters>572.4000244140625</AltitudeMeters>
            <DistanceMeters>5587.2430435362</DistanceMeters>
          </Trackpoint>
          <Trackpoint>
            <Time>2022-02-12T10:53:48.000Z</Time>
            <Position>
              <LatitudeDegrees>40.67611687816679477691650390625</LatitudeDegrees>
              <LongitudeDegrees>24.73909911699593067169189453125</LongitudeDegrees>
            </Position>
            <AltitudeMeters>572.5999755859375</AltitudeMeters>
            <DistanceMeters>5588.693563378</DistanceMeters>
          </Trackpoint>
          <Trackpoint>
            <Time>2022-02-12T10:53:51.000Z</Time>
            <Position>
              <LatitudeDegrees>40.6761360727250576019287109375</LatitudeDegrees>
              <LongitudeDegrees>24.7391236759722232818603515625</LongitudeDegrees>
            </Position>
            <AltitudeMeters>573</AltitudeMeters>
            <DistanceMeters>5591.67140405</DistanceMeters>
          </Trackpoint>
          <Trackpoint>
            <Time>2022-02-12T10:53:56.000Z</Time>
            <Position>
              <LatitudeDegrees>40.67616482265293598175048828125</LatitudeDegrees>
              <LongitudeDegrees>24.73918276838958263397216796875</LongitudeDegrees>
            </Position>
            <AltitudeMeters>574</AltitudeMeters>
            <DistanceMeters>5597.5966835551</DistanceMeters>
          </Trackpoint>
          <Trackpoint>
            <Time>2022-02-12T10:53:58.000Z</Time>
            <Position>
              <LatitudeDegrees>40.676178820431232452392578125</LatitudeDegrees>
              <LongitudeDegrees>24.73919861018657684326171875</LongitudeDegrees>
            </Position>
            <AltitudeMeters>574.79998779296875</AltitudeMeters>
            <DistanceMeters>5599.6480283879</DistanceMeters>
          </Trackpoint>
          <Trackpoint>
            <Time>2022-02-12T10:53:59.000Z</Time>
            <Position>
              <LatitudeDegrees>40.67618845961987972259521484375</LatitudeDegrees>
              <LongitudeDegrees>24.739208333194255828857421875</LongitudeDegrees>
            </Position>
            <AltitudeMeters>575.20001220703125</AltitudeMeters>
            <DistanceMeters>5600.9986117588</DistanceMeters>
          </Trackpoint>
          <Trackpoint>
            <Time>2022-02-12T10:54:03.000Z</Time>
            <Position>
              <LatitudeDegrees>40.67622399888932704925537109375</LatitudeDegrees>
              <LongitudeDegrees>24.73924278281629085540771484375</LongitudeDegrees>
            </Position>
            <AltitudeMeters>576</AltitudeMeters>
            <DistanceMeters>5605.9069968244</DistanceMeters>
          </Trackpoint>
          <Trackpoint>
            <Time>2022-02-12T10:54:07.000Z</Time>
            <Position>
              <LatitudeDegrees>40.67627429030835628509521484375</LatitudeDegrees>
              <LongitudeDegrees>24.7392542660236358642578125</LongitudeDegrees>
            </Position>
            <AltitudeMeters>576.20001220703125</AltitudeMeters>
            <DistanceMeters>5611.5879732555</DistanceMeters>
          </Trackpoint>
          <Trackpoint>
            <Time>2022-02-12T10:54:08.000Z</Time>
            <Position>
              <LatitudeDegrees>40.6762846000492572784423828125</LatitudeDegrees>
              <LongitudeDegrees>24.73925820551812648773193359375</LongitudeDegrees>
            </Position>
            <AltitudeMeters>576.20001220703125</AltitudeMeters>
            <DistanceMeters>5612.7824405335</DistanceMeters>
          </Trackpoint>
          <Trackpoint>
            <Time>2022-02-12T10:54:09.000Z</Time>
            <Position>
              <LatitudeDegrees>40.67629583179950714111328125</LatitudeDegrees>
              <LongitudeDegrees>24.73926524631679058074951171875</LongitudeDegrees>
            </Position>
            <AltitudeMeters>576.4000244140625</AltitudeMeters>
            <DistanceMeters>5614.1660503795</DistanceMeters>
          </Trackpoint>
          <Trackpoint>
            <Time>2022-02-12T10:54:12.000Z</Time>
            <Position>
              <LatitudeDegrees>40.67631854675710201263427734375</LatitudeDegrees>
              <LongitudeDegrees>24.739293158054351806640625</LongitudeDegrees>
            </Position>
            <AltitudeMeters>576.79998779296875</AltitudeMeters>
            <DistanceMeters>5617.6211568987</DistanceMeters>
          </Trackpoint>
          <Trackpoint>
            <Time>2022-02-12T10:54:18.000Z</Time>
            <Position>
              <LatitudeDegrees>40.676349811255931854248046875</LatitudeDegrees>
              <LongitudeDegrees>24.739346466958522796630859375</LongitudeDegrees>
            </Position>
            <AltitudeMeters>577.4000244140625</AltitudeMeters>
            <DistanceMeters>5623.3100754229</DistanceMeters>
          </Trackpoint>
          <Trackpoint>
            <Time>2022-02-12T10:54:19.000Z</Time>
            <Position>
              <LatitudeDegrees>40.67635173909366130828857421875</LatitudeDegrees>
              <LongitudeDegrees>24.73935308866202831268310546875</LongitudeDegrees>
            </Position>
            <AltitudeMeters>577.20001220703125</AltitudeMeters>
            <DistanceMeters>5623.9110771349</DistanceMeters>
          </Trackpoint>
          <Trackpoint>
            <Time>2022-02-12T10:54:25.000Z</Time>
            <Position>
              <LatitudeDegrees>40.67635693587362766265869140625</LatitudeDegrees>
              <LongitudeDegrees>24.73936951719224452972412109375</LongitudeDegrees>
            </Position>
            <AltitudeMeters>577.20001220703125</AltitudeMeters>
            <DistanceMeters>5625.4135814147</DistanceMeters>
          </Trackpoint>
          <Trackpoint>
            <Time>2022-02-12T10:54:27.000Z</Time>
            <Position>
              <LatitudeDegrees>40.6763727776706218719482421875</LatitudeDegrees>
              <LongitudeDegrees>24.73938091658055782318115234375</LongitudeDegrees>
            </Position>
            <AltitudeMeters>577.4000244140625</AltitudeMeters>
            <DistanceMeters>5627.4204232356</DistanceMeters>
          </Trackpoint>
          <Trackpoint>
            <Time>2022-02-12T10:54:28.000Z</Time>
            <Position>
              <LatitudeDegrees>40.67637839354574680328369140625</LatitudeDegrees>
              <LongitudeDegrees>24.7393856942653656005859375</LongitudeDegrees>
            </Position>
            <AltitudeMeters>577.4000244140625</AltitudeMeters>
            <DistanceMeters>5628.1686643328</DistanceMeters>
          </Trackpoint>
          <Trackpoint>
            <Time>2022-02-12T10:54:34.000Z</Time>
            <Position>
              <LatitudeDegrees>40.6764254160225391387939453125</LatitudeDegrees>
              <LongitudeDegrees>24.73941075615584850311279296875</LongitudeDegrees>
            </Position>
            <AltitudeMeters>578.4000244140625</AltitudeMeters>
            <DistanceMeters>5633.8137630716</DistanceMeters>
          </Trackpoint>
          <Trackpoint>
            <Time>2022-02-12T10:54:38.000Z</Time>
            <Position>
              <LatitudeDegrees>40.67644008435308933258056640625</LatitudeDegrees>
              <LongitudeDegrees>24.73941058851778507232666015625</LongitudeDegrees>
            </Position>
            <AltitudeMeters>579.20001220703125</AltitudeMeters>
            <DistanceMeters>5635.4431318066</DistanceMeters>
          </Trackpoint>
          <Trackpoint>
            <Time>2022-02-12T10:54:40.000Z</Time>
            <Position>
              <LatitudeDegrees>40.6764478795230388641357421875</LatitudeDegrees>
              <LongitudeDegrees>24.7394143603742122650146484375</LongitudeDegrees>
            </Position>
            <AltitudeMeters>579.4000244140625</AltitudeMeters>
            <DistanceMeters>5636.3741996551</DistanceMeters>
          </Trackpoint>
          <Trackpoint>
            <Time>2022-02-12T10:54:46.000Z</Time>
            <Position>
              <LatitudeDegrees>40.67645969800651073455810546875</LatitudeDegrees>
              <LongitudeDegrees>24.739418216049671173095703125</LongitudeDegrees>
            </Position>
            <AltitudeMeters>579.5999755859375</AltitudeMeters>
            <DistanceMeters>5637.7314526141</DistanceMeters>
          </Trackpoint>
          <Trackpoint>
            <Time>2022-02-12T10:54:48.000Z</Time>
            <Position>
              <LatitudeDegrees>40.676461793482303619384765625</LatitudeDegrees>
              <LongitudeDegrees>24.739418216049671173095703125</LongitudeDegrees>
            </Position>
            <AltitudeMeters>579.5999755859375</AltitudeMeters>
            <DistanceMeters>5637.9642195762</DistanceMeters>
          </Trackpoint>
          <Trackpoint>
            <Time>2022-02-12T10:54:54.000Z</Time>
            <Position>
              <LatitudeDegrees>40.67646254785358905792236328125</LatitudeDegrees>
              <LongitudeDegrees>24.73941545002162456512451171875</LongitudeDegrees>
            </Position>
            <AltitudeMeters>580.20001220703125</AltitudeMeters>
            <DistanceMeters>5638.1969865384</DistanceMeters>
          </Trackpoint>
          <Trackpoint>
            <Time>2022-02-12T10:55:00.000Z</Time>
            <Position>
              <LatitudeDegrees>40.67646238021552562713623046875</LatitudeDegrees>
              <LongitudeDegrees>24.739407487213611602783203125</LongitudeDegrees>
            </Position>
            <AltitudeMeters>580.4000244140625</AltitudeMeters>
            <DistanceMeters>5638.8689268796</DistanceMeters>
          </Trackpoint>
          <Trackpoint>
            <Time>2022-02-12T10:55:01.000Z</Time>
            <Position>
              <LatitudeDegrees>40.67646170966327190399169921875</LatitudeDegrees>
              <LongitudeDegrees>24.73940706811845302581787109375</LongitudeDegrees>
            </Position>
            <AltitudeMeters>580.4000244140625</AltitudeMeters>
            <DistanceMeters>5638.963953594</DistanceMeters>
          </Trackpoint>
          <Trackpoint>
            <Time>2022-02-12T10:55:02.000Z</Time>
            <Position>
              <LatitudeDegrees>40.6764596141874790191650390625</LatitudeDegrees>
              <LongitudeDegrees>24.73940773867070674896240234375</LongitudeDegrees>
            </Position>
            <AltitudeMeters>580.4000244140625</AltitudeMeters>
            <DistanceMeters>5639.2153706481</DistanceMeters>
          </Trackpoint>
          <Trackpoint>
            <Time>2022-02-12T10:55:05.000Z</Time>
            <Position>
              <LatitudeDegrees>40.676458440721035003662109375</LatitudeDegrees>
              <LongitudeDegrees>24.7394076548516750335693359375</LongitudeDegrees>
            </Position>
            <AltitudeMeters>580.20001220703125</AltitudeMeters>
            <DistanceMeters>5639.3497587164</DistanceMeters>
          </Trackpoint>
          <Trackpoint>
            <Time>2022-02-12T10:55:08.000Z</Time>
            <Position>
              <LatitudeDegrees>40.67645517177879810333251953125</LatitudeDegrees>
              <LongitudeDegrees>24.73940782248973846435546875</LongitudeDegrees>
            </Position>
            <AltitudeMeters>579.79998779296875</AltitudeMeters>
            <DistanceMeters>5639.7053161241</DistanceMeters>
          </Trackpoint>
          <Trackpoint>
            <Time>2022-02-12T10:55:10.000Z</Time>
            <Position>
              <LatitudeDegrees>40.67645567469298839569091796875</LatitudeDegrees>
              <LongitudeDegrees>24.73940807394683361053466796875</LongitudeDegrees>
            </Position>
            <AltitudeMeters>579.5999755859375</AltitudeMeters>
            <DistanceMeters>5639.7053161241</DistanceMeters>
          </Trackpoint>
          <Trackpoint>
            <Time>2022-02-12T10:55:12.000Z</Time>
            <Position>
              <LatitudeDegrees>40.67645684815943241119384765625</LatitudeDegrees>
              <LongitudeDegrees>24.73940991796553134918212890625</LongitudeDegrees>
            </Position>
            <AltitudeMeters>579.4000244140625</AltitudeMeters>
            <DistanceMeters>5639.8953695529</DistanceMeters>
          </Trackpoint>
          <Trackpoint>
            <Time>2022-02-12T10:55:13.000Z</Time>
            <Position>
              <LatitudeDegrees>40.67645835690200328826904296875</LatitudeDegrees>
              <LongitudeDegrees>24.739414192736148834228515625</LongitudeDegrees>
            </Position>
            <AltitudeMeters>579.4000244140625</AltitudeMeters>
            <DistanceMeters>5640.2871747335</DistanceMeters>
          </Trackpoint>
          <Trackpoint>
            <Time>2022-02-12T10:55:15.000Z</Time>
            <Position>
              <LatitudeDegrees>40.6764565967023372650146484375</LatitudeDegrees>
              <LongitudeDegrees>24.73941829986870288848876953125</LongitudeDegrees>
            </Position>
            <AltitudeMeters>579.4000244140625</AltitudeMeters>
            <DistanceMeters>5640.6903389382</DistanceMeters>
          </Trackpoint>
          <Trackpoint>
            <Time>2022-02-12T10:55:17.000Z</Time>
            <Position>
              <LatitudeDegrees>40.67645416595041751861572265625</LatitudeDegrees>
              <LongitudeDegrees>24.7394192218780517578125</LongitudeDegrees>
            </Position>
            <AltitudeMeters>579.79998779296875</AltitudeMeters>
            <DistanceMeters>5640.9754190813</DistanceMeters>
          </Trackpoint>
          <Trackpoint>
            <Time>2022-02-12T10:55:18.000Z</Time>
            <Position>
              <LatitudeDegrees>40.6764519028365612030029296875</LatitudeDegrees>
              <LongitudeDegrees>24.73941829986870288848876953125</LongitudeDegrees>
            </Position>
            <AltitudeMeters>580</AltitudeMeters>
            <DistanceMeters>5641.2441952178</DistanceMeters>
          </Trackpoint>
          <Trackpoint>
            <Time>2022-02-12T10:55:24.000Z</Time>
            <Position>
              <LatitudeDegrees>40.67645701579749584197998046875</LatitudeDegrees>
              <LongitudeDegrees>24.739408828318119049072265625</LongitudeDegrees>
            </Position>
            <AltitudeMeters>580.20001220703125</AltitudeMeters>
            <DistanceMeters>5642.2271591945</DistanceMeters>
          </Trackpoint>
          <Trackpoint>
            <Time>2022-02-12T10:55:28.000Z</Time>
            <Position>
              <LatitudeDegrees>40.67645634524524211883544921875</LatitudeDegrees>
              <LongitudeDegrees>24.7394083254039287567138671875</LongitudeDegrees>
            </Position>
            <AltitudeMeters>580</AltitudeMeters>
            <DistanceMeters>5642.3221859089</DistanceMeters>
          </Trackpoint>
          <Trackpoint>
            <Time>2022-02-12T10:58:29.000Z</Time>
            <Position>
              <LatitudeDegrees>40.6764793954789638519287109375</LatitudeDegrees>
              <LongitudeDegrees>24.7394036315381526947021484375</LongitudeDegrees>
            </Position>
            <AltitudeMeters>579.79998779296875</AltitudeMeters>
            <DistanceMeters>5644.9176506124</DistanceMeters>
          </Trackpoint>
          <Trackpoint>
            <Time>2022-02-12T10:58:35.000Z</Time>
            <Position>
              <LatitudeDegrees>40.67651711404323577880859375</LatitudeDegrees>
              <LongitudeDegrees>24.73945476114749908447265625</LongitudeDegrees>
            </Position>
            <AltitudeMeters>580</AltitudeMeters>
            <DistanceMeters>5650.938176075</DistanceMeters>
          </Trackpoint>
          <Trackpoint>
            <Time>2022-02-12T10:58:37.000Z</Time>
            <Position>
              <LatitudeDegrees>40.67652507685124874114990234375</LatitudeDegrees>
              <LongitudeDegrees>24.73946305923163890838623046875</LongitudeDegrees>
            </Position>
            <AltitudeMeters>580.4000244140625</AltitudeMeters>
            <DistanceMeters>5652.0625473225</DistanceMeters>
          </Trackpoint>
          <Trackpoint>
            <Time>2022-02-12T10:58:38.000Z</Time>
            <Position>
              <LatitudeDegrees>40.6765347160398960113525390625</LatitudeDegrees>
              <LongitudeDegrees>24.73946473561227321624755859375</LongitudeDegrees>
            </Position>
            <AltitudeMeters>580.5999755859375</AltitudeMeters>
            <DistanceMeters>5653.1418433251</DistanceMeters>
          </Trackpoint>
          <Trackpoint>
            <Time>2022-02-12T10:58:41.000Z</Time>
            <Position>
              <LatitudeDegrees>40.6765531562268733978271484375</LatitudeDegrees>
              <LongitudeDegrees>24.7395035438239574432373046875</LongitudeDegrees>
            </Position>
            <AltitudeMeters>581.79998779296875</AltitudeMeters>
            <DistanceMeters>5657.0065226699</DistanceMeters>
          </Trackpoint>
          <Trackpoint>
            <Time>2022-02-12T10:58:43.000Z</Time>
            <Position>
              <LatitudeDegrees>40.6765638850629329681396484375</LatitudeDegrees>
              <LongitudeDegrees>24.739514775574207305908203125</LongitudeDegrees>
            </Position>
            <AltitudeMeters>582.4000244140625</AltitudeMeters>
            <DistanceMeters>5658.5328777147</DistanceMeters>
          </Trackpoint>
          <Trackpoint>
            <Time>2022-02-12T10:58:44.000Z</Time>
            <Position>
              <LatitudeDegrees>40.67656950093805789947509765625</LatitudeDegrees>
              <LongitudeDegrees>24.73951905034482479095458984375</LongitudeDegrees>
            </Position>
            <AltitudeMeters>582.5999755859375</AltitudeMeters>
            <DistanceMeters>5659.2565796103</DistanceMeters>
          </Trackpoint>
          <Trackpoint>
            <Time>2022-02-12T10:58:46.000Z</Time>
            <Position>
              <LatitudeDegrees>40.6765779666602611541748046875</LatitudeDegrees>
              <LongitudeDegrees>24.7395310364663600921630859375</LongitudeDegrees>
            </Position>
            <AltitudeMeters>582.79998779296875</AltitudeMeters>
            <DistanceMeters>5660.6369223683</DistanceMeters>
          </Trackpoint>
          <Trackpoint>
            <Time>2022-02-12T10:58:50.000Z</Time>
            <Position>
              <LatitudeDegrees>40.6766094826161861419677734375</LatitudeDegrees>
              <LongitudeDegrees>24.7395467944443225860595703125</LongitudeDegrees>
            </Position>
            <AltitudeMeters>583.20001220703125</AltitudeMeters>
            <DistanceMeters>5664.3877701525</DistanceMeters>
          </Trackpoint>
          <Trackpoint>
            <Time>2022-02-12T10:58:53.000Z</Time>
            <Position>
              <LatitudeDegrees>40.6766279228031635284423828125</LatitudeDegrees>
              <LongitudeDegrees>24.73958350718021392822265625</LongitudeDegrees>
            </Position>
            <AltitudeMeters>583.5999755859375</AltitudeMeters>
            <DistanceMeters>5668.1047604617</DistanceMeters>
          </Trackpoint>
          <Trackpoint>
            <Time>2022-02-12T10:58:55.000Z</Time>
            <Position>
              <LatitudeDegrees>40.676638819277286529541015625</LatitudeDegrees>
              <LongitudeDegrees>24.73960370756685733795166015625</LongitudeDegrees>
            </Position>
            <AltitudeMeters>583.79998779296875</AltitudeMeters>
            <DistanceMeters>5670.199663121</DistanceMeters>
          </Trackpoint>
          <Trackpoint>
            <Time>2022-02-12T10:58:59.000Z</Time>
            <Position>
              <LatitudeDegrees>40.676648877561092376708984375</LatitudeDegrees>
              <LongitudeDegrees>24.73964653909206390380859375</LongitudeDegrees>
            </Position>
            <AltitudeMeters>584.4000244140625</AltitudeMeters>
            <DistanceMeters>5673.9852583604</DistanceMeters>
          </Trackpoint>
          <Trackpoint>
            <Time>2022-02-12T10:59:02.000Z</Time>
            <Position>
              <LatitudeDegrees>40.6766574271023273468017578125</LatitudeDegrees>
              <LongitudeDegrees>24.73967067897319793701171875</LongitudeDegrees>
            </Position>
            <AltitudeMeters>585</AltitudeMeters>
            <DistanceMeters>5676.2340008554</DistanceMeters>
          </Trackpoint>
          <Trackpoint>
            <Time>2022-02-12T10:59:03.000Z</Time>
            <Position>
              <LatitudeDegrees>40.67666463553905487060546875</LatitudeDegrees>
              <LongitudeDegrees>24.7396728582680225372314453125</LongitudeDegrees>
            </Position>
            <AltitudeMeters>585.4000244140625</AltitudeMeters>
            <DistanceMeters>5677.0624245451</DistanceMeters>
          </Trackpoint>
          <Trackpoint>
            <Time>2022-02-12T10:59:06.000Z</Time>
            <Position>
              <LatitudeDegrees>40.67666572518646717071533203125</LatitudeDegrees>
              <LongitudeDegrees>24.73968517966568470001220703125</LongitudeDegrees>
            </Position>
            <AltitudeMeters>586.20001220703125</AltitudeMeters>
            <DistanceMeters>5678.1077184032</DistanceMeters>
          </Trackpoint>
          <Trackpoint>
            <Time>2022-02-12T10:59:10.000Z</Time>
            <Position>
              <LatitudeDegrees>40.67666061222553253173828125</LatitudeDegrees>
              <LongitudeDegrees>24.739710576832294464111328125</LongitudeDegrees>
            </Position>
            <AltitudeMeters>586.79998779296875</AltitudeMeters>
            <DistanceMeters>5680.324103204</DistanceMeters>
          </Trackpoint>
          <Trackpoint>
            <Time>2022-02-12T10:59:12.000Z</Time>
            <Position>
              <LatitudeDegrees>40.6766564212739467620849609375</LatitudeDegrees>
              <LongitudeDegrees>24.7397291846573352813720703125</LongitudeDegrees>
            </Position>
            <AltitudeMeters>586.79998779296875</AltitudeMeters>
            <DistanceMeters>5681.9645186332</DistanceMeters>
          </Trackpoint>
          <Trackpoint>
            <Time>2022-02-12T10:59:18.000Z</Time>
            <Position>
              <LatitudeDegrees>40.67665281705558300018310546875</LatitudeDegrees>
              <LongitudeDegrees>24.7397617064416408538818359375</LongitudeDegrees>
            </Position>
            <AltitudeMeters>586.20001220703125</AltitudeMeters>
            <DistanceMeters>5684.7398844121</DistanceMeters>
          </Trackpoint>
          <Trackpoint>
            <Time>2022-02-12T10:59:21.000Z</Time>
            <Position>
              <LatitudeDegrees>40.67666136659681797027587890625</LatitudeDegrees>
              <LongitudeDegrees>24.73978978581726551055908203125</LongitudeDegrees>
            </Position>
            <AltitudeMeters>586.20001220703125</AltitudeMeters>
            <DistanceMeters>5687.2932577089</DistanceMeters>
          </Trackpoint>
          <Trackpoint>
            <Time>2022-02-12T10:59:23.000Z</Time>
            <Position>
              <LatitudeDegrees>40.67667293362319469451904296875</LatitudeDegrees>
              <LongitudeDegrees>24.73982213996350765228271484375</LongitudeDegrees>
            </Position>
            <AltitudeMeters>586.20001220703125</AltitudeMeters>
            <DistanceMeters>5690.3132539354</DistanceMeters>
          </Trackpoint>
          <Trackpoint>
            <Time>2022-02-12T10:59:27.000Z</Time>
            <Position>
              <LatitudeDegrees>40.676689445972442626953125</LatitudeDegrees>
              <LongitudeDegrees>24.7398783825337886810302734375</LongitudeDegrees>
            </Position>
            <AltitudeMeters>586.4000244140625</AltitudeMeters>
            <DistanceMeters>5695.4040612775</DistanceMeters>
          </Trackpoint>
          <Trackpoint>
            <Time>2022-02-12T10:59:30.000Z</Time>
            <Position>
              <LatitudeDegrees>40.67670210264623165130615234375</LatitudeDegrees>
              <LongitudeDegrees>24.73990612663328647613525390625</LongitudeDegrees>
            </Position>
            <AltitudeMeters>586.79998779296875</AltitudeMeters>
            <DistanceMeters>5698.1351495483</DistanceMeters>
          </Trackpoint>
          <Trackpoint>
            <Time>2022-02-12T10:59:35.000Z</Time>
            <Position>
              <LatitudeDegrees>40.67674753256142139434814453125</LatitudeDegrees>
              <LongitudeDegrees>24.7399209626019001007080078125</LongitudeDegrees>
            </Position>
            <AltitudeMeters>587.20001220703125</AltitudeMeters>
            <DistanceMeters>5703.3451792786</DistanceMeters>
          </Trackpoint>
          <Trackpoint>
            <Time>2022-02-12T10:59:38.000Z</Time>
            <Position>
              <LatitudeDegrees>40.67677334882318973541259765625</LatitudeDegrees>
              <LongitudeDegrees>24.7399226389825344085693359375</LongitudeDegrees>
            </Position>
            <AltitudeMeters>587.4000244140625</AltitudeMeters>
            <DistanceMeters>5706.2243475917</DistanceMeters>
          </Trackpoint>
          <Trackpoint>
            <Time>2022-02-12T10:59:41.000Z</Time>
            <Position>
              <LatitudeDegrees>40.6767972372472286224365234375</LatitudeDegrees>
              <LongitudeDegrees>24.73992557264864444732666015625</LongitudeDegrees>
            </Position>
            <AltitudeMeters>588.20001220703125</AltitudeMeters>
            <DistanceMeters>5708.8952576222</DistanceMeters>
          </Trackpoint>
          <Trackpoint>
            <Time>2022-02-12T10:59:45.000Z</Time>
            <Position>
              <LatitudeDegrees>40.676829256117343902587890625</LatitudeDegrees>
              <LongitudeDegrees>24.7399072162806987762451171875</LongitudeDegrees>
            </Position>
            <AltitudeMeters>589.20001220703125</AltitudeMeters>
            <DistanceMeters>5712.7809091524</DistanceMeters>
          </Trackpoint>
          <Trackpoint>
            <Time>2022-02-12T10:59:49.000Z</Time>
            <Position>
              <LatitudeDegrees>40.676849372684955596923828125</LatitudeDegrees>
              <LongitudeDegrees>24.73990403115749359130859375</LongitudeDegrees>
            </Position>
            <AltitudeMeters>590</AltitudeMeters>
            <DistanceMeters>5715.0356670192</DistanceMeters>
          </Trackpoint>
          <Trackpoint>
            <Time>2022-02-12T10:59:51.000Z</Time>
            <Position>
              <LatitudeDegrees>40.67686052061617374420166015625</LatitudeDegrees>
              <LongitudeDegrees>24.7399085573852062225341796875</LongitudeDegrees>
            </Position>
            <AltitudeMeters>590.4000244140625</AltitudeMeters>
            <DistanceMeters>5716.3316586158</DistanceMeters>
          </Trackpoint>
          <Trackpoint>
            <Time>2022-02-12T10:59:56.000Z</Time>
            <Position>
              <LatitudeDegrees>40.67688415758311748504638671875</LatitudeDegrees>
              <LongitudeDegrees>24.73990780301392078399658203125</LongitudeDegrees>
            </Position>
            <AltitudeMeters>591.5999755859375</AltitudeMeters>
            <DistanceMeters>5718.9634011246</DistanceMeters>
          </Trackpoint>
          <Trackpoint>
            <Time>2022-02-12T10:59:58.000Z</Time>
            <Position>
              <LatitudeDegrees>40.67689471878111362457275390625</LatitudeDegrees>
              <LongitudeDegrees>24.73991610109806060791015625</LongitudeDegrees>
            </Position>
            <AltitudeMeters>591.79998779296875</AltitudeMeters>
            <DistanceMeters>5720.3338958894</DistanceMeters>
          </Trackpoint>
          <Trackpoint>
            <Time>2022-02-12T10:59:59.000Z</Time>
            <Position>
              <LatitudeDegrees>40.67690125666558742523193359375</LatitudeDegrees>
              <LongitudeDegrees>24.73992087878286838531494140625</LongitudeDegrees>
            </Position>
            <AltitudeMeters>592</AltitudeMeters>
            <DistanceMeters>5721.1731491067</DistanceMeters>
          </Trackpoint>
          <Trackpoint>
            <Time>2022-02-12T11:00:01.000Z</Time>
            <Position>
              <LatitudeDegrees>40.6769095547497272491455078125</LatitudeDegrees>
              <LongitudeDegrees>24.73992909304797649383544921875</LongitudeDegrees>
            </Position>
            <AltitudeMeters>592.79998779296875</AltitudeMeters>
            <DistanceMeters>5722.3291989817</DistanceMeters>
          </Trackpoint>
          <Trackpoint>
            <Time>2022-02-12T11:00:02.000Z</Time>
            <Position>
              <LatitudeDegrees>40.67691332660615444183349609375</LatitudeDegrees>
              <LongitudeDegrees>24.73993294872343540191650390625</LongitudeDegrees>
            </Position>
            <AltitudeMeters>593</AltitudeMeters>
            <DistanceMeters>5722.8667512547</DistanceMeters>
          </Trackpoint>
          <Trackpoint>
            <Time>2022-02-12T11:00:04.000Z</Time>
            <Position>
              <LatitudeDegrees>40.676917098462581634521484375</LatitudeDegrees>
              <LongitudeDegrees>24.739952646195888519287109375</LongitudeDegrees>
            </Position>
            <AltitudeMeters>593.4000244140625</AltitudeMeters>
            <DistanceMeters>5724.5825032534</DistanceMeters>
          </Trackpoint>
          <Trackpoint>
            <Time>2022-02-12T11:00:07.000Z</Time>
            <Position>
              <LatitudeDegrees>40.67691533826291561126708984375</LatitudeDegrees>
              <LongitudeDegrees>24.73996748216450214385986328125</LongitudeDegrees>
            </Position>
            <AltitudeMeters>593.79998779296875</AltitudeMeters>
            <DistanceMeters>5725.8503177536</DistanceMeters>
          </Trackpoint>
          <Trackpoint>
            <Time>2022-02-12T11:00:11.000Z</Time>
            <Position>
              <LatitudeDegrees>40.67692740820348262786865234375</LatitudeDegrees>
              <LongitudeDegrees>24.73996697925031185150146484375</LongitudeDegrees>
            </Position>
            <AltitudeMeters>594.4000244140625</AltitudeMeters>
            <DistanceMeters>5727.1941984361</DistanceMeters>
          </Trackpoint>
          <Trackpoint>
            <Time>2022-02-12T11:00:15.000Z</Time>
            <Position>
              <LatitudeDegrees>40.6769477762281894683837890625</LatitudeDegrees>
              <LongitudeDegrees>24.73996446467936038970947265625</LongitudeDegrees>
            </Position>
            <AltitudeMeters>595.20001220703125</AltitudeMeters>
            <DistanceMeters>5729.4708766915</DistanceMeters>
          </Trackpoint>
          <Trackpoint>
            <Time>2022-02-12T11:00:17.000Z</Time>
            <Position>
              <LatitudeDegrees>40.6769447587430477142333984375</LatitudeDegrees>
              <LongitudeDegrees>24.7399652190506458282470703125</LongitudeDegrees>
            </Position>
            <AltitudeMeters>596.4000244140625</AltitudeMeters>
            <DistanceMeters>5729.8264340993</DistanceMeters>
          </Trackpoint>
          <Trackpoint>
            <Time>2022-02-12T11:00:18.000Z</Time>
            <Position>
              <LatitudeDegrees>40.6769430823624134063720703125</LatitudeDegrees>
              <LongitudeDegrees>24.739964716136455535888671875</LongitudeDegrees>
            </Position>
            <AltitudeMeters>596.5999755859375</AltitudeMeters>
            <DistanceMeters>5730.016487528</DistanceMeters>
          </Trackpoint>
          <Trackpoint>
            <Time>2022-02-12T11:00:24.000Z</Time>
            <Position>
              <LatitudeDegrees>40.67696797661483287811279296875</LatitudeDegrees>
              <LongitudeDegrees>24.73996446467936038970947265625</LongitudeDegrees>
            </Position>
            <AltitudeMeters>597.20001220703125</AltitudeMeters>
            <DistanceMeters>5732.7869685291</DistanceMeters>
          </Trackpoint>
          <Trackpoint>
            <Time>2022-02-12T11:00:26.000Z</Time>
            <Position>
              <LatitudeDegrees>40.6769782863557338714599609375</LatitudeDegrees>
              <LongitudeDegrees>24.73997016437351703643798828125</LongitudeDegrees>
            </Position>
            <AltitudeMeters>597.4000244140625</AltitudeMeters>
            <DistanceMeters>5734.0332322044</DistanceMeters>
          </Trackpoint>
          <Trackpoint>
            <Time>2022-02-12T11:00:28.000Z</Time>
            <Position>
              <LatitudeDegrees>40.67698842845857143402099609375</LatitudeDegrees>
              <LongitudeDegrees>24.73996899090707302093505859375</LongitudeDegrees>
            </Position>
            <AltitudeMeters>597.79998779296875</AltitudeMeters>
            <DistanceMeters>5735.1656061952</DistanceMeters>
          </Trackpoint>
          <Trackpoint>
            <Time>2022-02-12T11:00:29.000Z</Time>
            <Position>
              <LatitudeDegrees>40.67699228413403034210205078125</LatitudeDegrees>
              <LongitudeDegrees>24.73996966145932674407958984375</LongitudeDegrees>
            </Position>
            <AltitudeMeters>598.20001220703125</AltitudeMeters>
            <DistanceMeters>5735.6010733069</DistanceMeters>
          </Trackpoint>
          <Trackpoint>
            <Time>2022-02-12T11:00:30.000Z</Time>
            <Position>
              <LatitudeDegrees>40.676994211971759796142578125</LatitudeDegrees>
              <LongitudeDegrees>24.73996949382126331329345703125</LongitudeDegrees>
            </Position>
            <AltitudeMeters>598.5999755859375</AltitudeMeters>
            <DistanceMeters>5735.833840269</DistanceMeters>
          </Trackpoint>
          <Trackpoint>
            <Time>2022-02-12T11:00:36.000Z</Time>
            <Position>
              <LatitudeDegrees>40.6770099699497222900390625</LatitudeDegrees>
              <LongitudeDegrees>24.7399725951254367828369140625</LongitudeDegrees>
            </Position>
            <AltitudeMeters>599.20001220703125</AltitudeMeters>
            <DistanceMeters>5737.6039918235</DistanceMeters>
          </Trackpoint>
          <Trackpoint>
            <Time>2022-02-12T11:00:38.000Z</Time>
            <Position>
              <LatitudeDegrees>40.67702011205255985260009765625</LatitudeDegrees>
              <LongitudeDegrees>24.73997418768703937530517578125</LongitudeDegrees>
            </Position>
            <AltitudeMeters>599.5999755859375</AltitudeMeters>
            <DistanceMeters>5738.7403460515</DistanceMeters>
          </Trackpoint>
          <Trackpoint>
            <Time>2022-02-12T11:00:40.000Z</Time>
            <Position>
              <LatitudeDegrees>40.67702229134738445281982421875</LatitudeDegrees>
              <LongitudeDegrees>24.73998248577117919921875</LongitudeDegrees>
            </Position>
            <AltitudeMeters>599.79998779296875</AltitudeMeters>
            <DistanceMeters>5739.4825284167</DistanceMeters>
          </Trackpoint>
          <Trackpoint>
            <Time>2022-02-12T11:00:46.000Z</Time>
            <Position>
              <LatitudeDegrees>40.67703100852668285369873046875</LatitudeDegrees>
              <LongitudeDegrees>24.74001509137451648712158203125</LongitudeDegrees>
            </Position>
            <AltitudeMeters>600.4000244140625</AltitudeMeters>
            <DistanceMeters>5742.4006377509</DistanceMeters>
          </Trackpoint>
          <Trackpoint>
            <Time>2022-02-12T11:00:47.000Z</Time>
            <Position>
              <LatitudeDegrees>40.67703075706958770751953125</LatitudeDegrees>
              <LongitudeDegrees>24.74001727066934108734130859375</LongitudeDegrees>
            </Position>
            <AltitudeMeters>600.5999755859375</AltitudeMeters>
            <DistanceMeters>5742.5906911796</DistanceMeters>
          </Trackpoint>
          <Trackpoint>
            <Time>2022-02-12T11:00:50.000Z</Time>
            <Position>
              <LatitudeDegrees>40.677031762897968292236328125</LatitudeDegrees>
              <LongitudeDegrees>24.740017019212245941162109375</LongitudeDegrees>
            </Position>
            <AltitudeMeters>600.79998779296875</AltitudeMeters>
            <DistanceMeters>5742.685717894</DistanceMeters>
          </Trackpoint>
          <Trackpoint>
            <Time>2022-02-12T11:00:56.000Z</Time>
            <Position>
              <LatitudeDegrees>40.67704877816140651702880859375</LatitudeDegrees>
              <LongitudeDegrees>24.7400503791868686676025390625</LongitudeDegrees>
            </Position>
            <AltitudeMeters>601.4000244140625</AltitudeMeters>
            <DistanceMeters>5746.0775193902</DistanceMeters>
          </Trackpoint>
          <Trackpoint>
            <Time>2022-02-12T11:00:57.000Z</Time>
            <Position>
              <LatitudeDegrees>40.67704844288527965545654296875</LatitudeDegrees>
              <LongitudeDegrees>24.74005163647234439849853515625</LongitudeDegrees>
            </Position>
            <AltitudeMeters>601.5999755859375</AltitudeMeters>
            <DistanceMeters>5746.1725461046</DistanceMeters>
          </Trackpoint>
          <Trackpoint>
            <Time>2022-02-12T11:00:58.000Z</Time>
            <Position>
              <LatitudeDegrees>40.67704475484788417816162109375</LatitudeDegrees>
              <LongitudeDegrees>24.7400564141571521759033203125</LongitudeDegrees>
            </Position>
            <AltitudeMeters>601.79998779296875</AltitudeMeters>
            <DistanceMeters>5746.7505710421</DistanceMeters>
          </Trackpoint>
          <Trackpoint>
            <Time>2022-02-12T11:04:58.000Z</Time>
            <Position>
              <LatitudeDegrees>40.6770828925073146820068359375</LatitudeDegrees>
              <LongitudeDegrees>24.7400212101638317108154296875</LongitudeDegrees>
            </Position>
            <AltitudeMeters>600</AltitudeMeters>
            <DistanceMeters>5751.9327952118</DistanceMeters>
          </Trackpoint>
          <Trackpoint>
            <Time>2022-02-12T11:04:59.000Z</Time>
            <Position>
              <LatitudeDegrees>40.67708129994571208953857421875</LatitudeDegrees>
              <LongitudeDegrees>24.74002062343060970306396484375</LongitudeDegrees>
            </Position>
            <AltitudeMeters>600</AltitudeMeters>
            <DistanceMeters>5752.1228486405</DistanceMeters>
          </Trackpoint>
          <Trackpoint>
            <Time>2022-02-12T11:05:02.000Z</Time>
            <Position>
              <LatitudeDegrees>40.67709990777075290679931640625</LatitudeDegrees>
              <LongitudeDegrees>24.74002984352409839630126953125</LongitudeDegrees>
            </Position>
            <AltitudeMeters>600.5999755859375</AltitudeMeters>
            <DistanceMeters>5754.335155453</DistanceMeters>
          </Trackpoint>
          <Trackpoint>
            <Time>2022-02-12T11:05:03.000Z</Time>
            <Position>
              <LatitudeDegrees>40.67711382173001766204833984375</LatitudeDegrees>
              <LongitudeDegrees>24.74002984352409839630126953125</LongitudeDegrees>
            </Position>
            <AltitudeMeters>601</AltitudeMeters>
            <DistanceMeters>5755.8849942621</DistanceMeters>
          </Trackpoint>
          <Trackpoint>
            <Time>2022-02-12T11:05:04.000Z</Time>
            <Position>
              <LatitudeDegrees>40.67712622694671154022216796875</LatitudeDegrees>
              <LongitudeDegrees>24.740031771361827850341796875</LongitudeDegrees>
            </Position>
            <AltitudeMeters>601.4000244140625</AltitudeMeters>
            <DistanceMeters>5757.2751152492</DistanceMeters>
          </Trackpoint>
          <Trackpoint>
            <Time>2022-02-12T11:05:10.000Z</Time>
            <Position>
              <LatitudeDegrees>40.677172243595123291015625</LatitudeDegrees>
              <LongitudeDegrees>24.7400416620075702667236328125</LongitudeDegrees>
            </Position>
            <AltitudeMeters>602.4000244140625</AltitudeMeters>
            <DistanceMeters>5762.4634346187</DistanceMeters>
          </Trackpoint>
          <Trackpoint>
            <Time>2022-02-12T11:05:14.000Z</Time>
            <Position>
              <LatitudeDegrees>40.67721021361649036407470703125</LatitudeDegrees>
              <LongitudeDegrees>24.74003789015114307403564453125</LongitudeDegrees>
            </Position>
            <AltitudeMeters>603.79998779296875</AltitudeMeters>
            <DistanceMeters>5766.7025208556</DistanceMeters>
          </Trackpoint>
          <Trackpoint>
            <Time>2022-02-12T11:05:17.000Z</Time>
            <Position>
              <LatitudeDegrees>40.67723804153501987457275390625</LatitudeDegrees>
              <LongitudeDegrees>24.74003671668469905853271484375</LongitudeDegrees>
            </Position>
            <AltitudeMeters>604.79998779296875</AltitudeMeters>
            <DistanceMeters>5769.8021984737</DistanceMeters>
          </Trackpoint>
          <Trackpoint>
            <Time>2022-02-12T11:05:18.000Z</Time>
            <Position>
              <LatitudeDegrees>40.677244663238525390625</LatitudeDegrees>
              <LongitudeDegrees>24.740037135779857635498046875</LongitudeDegrees>
            </Position>
            <AltitudeMeters>605</AltitudeMeters>
            <DistanceMeters>5770.5382722381</DistanceMeters>
          </Trackpoint>
          <Trackpoint>
            <Time>2022-02-12T11:05:20.000Z</Time>
            <Position>
              <LatitudeDegrees>40.67726067267358303070068359375</LatitudeDegrees>
              <LongitudeDegrees>24.74003789015114307403564453125</LongitudeDegrees>
            </Position>
            <AltitudeMeters>605.4000244140625</AltitudeMeters>
            <DistanceMeters>5772.3236621072</DistanceMeters>
          </Trackpoint>
          <Trackpoint>
            <Time>2022-02-12T11:05:23.000Z</Time>
            <Position>
              <LatitudeDegrees>40.67728145979344844818115234375</LatitudeDegrees>
              <LongitudeDegrees>24.74003680050373077392578125</LongitudeDegrees>
            </Position>
            <AltitudeMeters>606</AltitudeMeters>
            <DistanceMeters>5774.6396641382</DistanceMeters>
          </Trackpoint>
          <Trackpoint>
            <Time>2022-02-12T11:05:24.000Z</Time>
            <Position>
              <LatitudeDegrees>40.6772900931537151336669921875</LatitudeDegrees>
              <LongitudeDegrees>24.7400362975895404815673828125</LongitudeDegrees>
            </Position>
            <AltitudeMeters>606.20001220703125</AltitudeMeters>
            <DistanceMeters>5775.5946707983</DistanceMeters>
          </Trackpoint>
          <Trackpoint>
            <Time>2022-02-12T11:05:25.000Z</Time>
            <Position>
              <LatitudeDegrees>40.67729855887591838836669921875</LatitudeDegrees>
              <LongitudeDegrees>24.74003520794212818145751953125</LongitudeDegrees>
            </Position>
            <AltitudeMeters>606.4000244140625</AltitudeMeters>
            <DistanceMeters>5776.5353872761</DistanceMeters>
          </Trackpoint>
          <Trackpoint>
            <Time>2022-02-12T11:05:28.000Z</Time>
            <Position>
              <LatitudeDegrees>40.677322447299957275390625</LatitudeDegrees>
              <LongitudeDegrees>24.74003319628536701202392578125</LongitudeDegrees>
            </Position>
            <AltitudeMeters>607.20001220703125</AltitudeMeters>
            <DistanceMeters>5779.199526928</DistanceMeters>
          </Trackpoint>
          <Trackpoint>
            <Time>2022-02-12T11:05:29.000Z</Time>
            <Position>
              <LatitudeDegrees>40.6773303262889385223388671875</LatitudeDegrees>
              <LongitudeDegrees>24.74002984352409839630126953125</LongitudeDegrees>
            </Position>
            <AltitudeMeters>607.4000244140625</AltitudeMeters>
            <DistanceMeters>5780.1208451063</DistanceMeters>
          </Trackpoint>
          <Trackpoint>
            <Time>2022-02-12T11:05:32.000Z</Time>
            <Position>
              <LatitudeDegrees>40.67736075259745121002197265625</LatitudeDegrees>
              <LongitudeDegrees>24.740050546824932098388671875</LongitudeDegrees>
            </Position>
            <AltitudeMeters>607.79998779296875</AltitudeMeters>
            <DistanceMeters>5783.9314045038</DistanceMeters>
          </Trackpoint>
          <Trackpoint>
            <Time>2022-02-12T11:05:33.000Z</Time>
            <Position>
              <LatitudeDegrees>40.67736779339611530303955078125</LatitudeDegrees>
              <LongitudeDegrees>24.7400617785751819610595703125</LongitudeDegrees>
            </Position>
            <AltitudeMeters>607.79998779296875</AltitudeMeters>
            <DistanceMeters>5785.1630914943</DistanceMeters>
          </Trackpoint>
          <Trackpoint>
            <Time>2022-02-12T11:05:34.000Z</Time>
            <Position>
              <LatitudeDegrees>40.67737433128058910369873046875</LatitudeDegrees>
              <LongitudeDegrees>24.74007175303995609283447265625</LongitudeDegrees>
            </Position>
            <AltitudeMeters>608.20001220703125</AltitudeMeters>
            <DistanceMeters>5786.279402629</DistanceMeters>
          </Trackpoint>
          <Trackpoint>
            <Time>2022-02-12T11:05:35.000Z</Time>
            <Position>
              <LatitudeDegrees>40.67737634293735027313232421875</LatitudeDegrees>
              <LongitudeDegrees>24.7400832362473011016845703125</LongitudeDegrees>
            </Position>
            <AltitudeMeters>608.4000244140625</AltitudeMeters>
            <DistanceMeters>5787.2760512174</DistanceMeters>
          </Trackpoint>
          <Trackpoint>
            <Time>2022-02-12T11:05:39.000Z</Time>
            <Position>
              <LatitudeDegrees>40.67740601487457752227783203125</LatitudeDegrees>
              <LongitudeDegrees>24.7401016764342784881591796875</LongitudeDegrees>
            </Position>
            <AltitudeMeters>608.79998779296875</AltitudeMeters>
            <DistanceMeters>5790.9268583653</DistanceMeters>
          </Trackpoint>
          <Trackpoint>
            <Time>2022-02-12T11:05:41.000Z</Time>
            <Position>
              <LatitudeDegrees>40.67742479033768177032470703125</LatitudeDegrees>
              <LongitudeDegrees>24.740098156034946441650390625</LongitudeDegrees>
            </Position>
            <AltitudeMeters>609</AltitudeMeters>
            <DistanceMeters>5793.0389326451</DistanceMeters>
          </Trackpoint>
          <Trackpoint>
            <Time>2022-02-12T11:05:42.000Z</Time>
            <Position>
              <LatitudeDegrees>40.67743233405053615570068359375</LatitudeDegrees>
              <LongitudeDegrees>24.74009471945464611053466796875</LongitudeDegrees>
            </Position>
            <AltitudeMeters>609.20001220703125</AltitudeMeters>
            <DistanceMeters>5793.9303622425</DistanceMeters>
          </Trackpoint>
          <Trackpoint>
            <Time>2022-02-12T11:05:43.000Z</Time>
            <Position>
              <LatitudeDegrees>40.67744021303951740264892578125</LatitudeDegrees>
              <LongitudeDegrees>24.7400912828743457794189453125</LongitudeDegrees>
            </Position>
            <AltitudeMeters>609.4000244140625</AltitudeMeters>
            <DistanceMeters>5794.8516804208</DistanceMeters>
          </Trackpoint>
          <Trackpoint>
            <Time>2022-02-12T11:05:48.000Z</Time>
            <Position>
              <LatitudeDegrees>40.67749033682048320770263671875</LatitudeDegrees>
              <LongitudeDegrees>24.74008885212242603302001953125</LongitudeDegrees>
            </Position>
            <AltitudeMeters>610.5999755859375</AltitudeMeters>
            <DistanceMeters>5800.4348537017</DistanceMeters>
          </Trackpoint>
          <Trackpoint>
            <Time>2022-02-12T11:05:53.000Z</Time>
            <Position>
              <LatitudeDegrees>40.6775303184986114501953125</LatitudeDegrees>
              <LongitudeDegrees>24.74009991623461246490478515625</LongitudeDegrees>
            </Position>
            <AltitudeMeters>611.79998779296875</AltitudeMeters>
            <DistanceMeters>5804.982256813</DistanceMeters>
          </Trackpoint>
          <Trackpoint>
            <Time>2022-02-12T11:05:59.000Z</Time>
            <Position>
              <LatitudeDegrees>40.67758672870695590972900390625</LatitudeDegrees>
              <LongitudeDegrees>24.7400996647775173187255859375</LongitudeDegrees>
            </Position>
            <AltitudeMeters>612.4000244140625</AltitudeMeters>
            <DistanceMeters>5811.2604957124</DistanceMeters>
          </Trackpoint>
          <Trackpoint>
            <Time>2022-02-12T11:06:01.000Z</Time>
            <Position>
              <LatitudeDegrees>40.67760734818875789642333984375</LatitudeDegrees>
              <LongitudeDegrees>24.74010276608169078826904296875</LongitudeDegrees>
            </Position>
            <AltitudeMeters>612.79998779296875</AltitudeMeters>
            <DistanceMeters>5813.5686865845</DistanceMeters>
          </Trackpoint>
          <Trackpoint>
            <Time>2022-02-12T11:06:04.000Z</Time>
            <Position>
              <LatitudeDegrees>40.67763785831630229949951171875</LatitudeDegrees>
              <LongitudeDegrees>24.74010628648102283477783203125</LongitudeDegrees>
            </Position>
            <AltitudeMeters>613.5999755859375</AltitudeMeters>
            <DistanceMeters>5816.9777492684</DistanceMeters>
          </Trackpoint>
          <Trackpoint>
            <Time>2022-02-12T11:06:06.000Z</Time>
            <Position>
              <LatitudeDegrees>40.67766099236905574798583984375</LatitudeDegrees>
              <LongitudeDegrees>24.7401073761284351348876953125</LongitudeDegrees>
            </Position>
            <AltitudeMeters>614</AltitudeMeters>
            <DistanceMeters>5819.5540074438</DistanceMeters>
          </Trackpoint>
          <Trackpoint>
            <Time>2022-02-12T11:06:10.000Z</Time>
            <Position>
              <LatitudeDegrees>40.677704326808452606201171875</LatitudeDegrees>
              <LongitudeDegrees>24.74010243080556392669677734375</LongitudeDegrees>
            </Position>
            <AltitudeMeters>614.5999755859375</AltitudeMeters>
            <DistanceMeters>5824.3957094636</DistanceMeters>
          </Trackpoint>
          <Trackpoint>
            <Time>2022-02-12T11:06:12.000Z</Time>
            <Position>
              <LatitudeDegrees>40.67772033624351024627685546875</LatitudeDegrees>
              <LongitudeDegrees>24.74011332727968692779541015625</LongitudeDegrees>
            </Position>
            <AltitudeMeters>614.79998779296875</AltitudeMeters>
            <DistanceMeters>5826.4025512845</DistanceMeters>
          </Trackpoint>
          <Trackpoint>
            <Time>2022-02-12T11:06:13.000Z</Time>
            <Position>
              <LatitudeDegrees>40.67772972397506237030029296875</LatitudeDegrees>
              <LongitudeDegrees>24.74011433310806751251220703125</LongitudeDegrees>
            </Position>
            <AltitudeMeters>615</AltitudeMeters>
            <DistanceMeters>5827.452155651</DistanceMeters>
          </Trackpoint>
          <Trackpoint>
            <Time>2022-02-12T11:06:15.000Z</Time>
            <Position>
              <LatitudeDegrees>40.67774782888591289520263671875</LatitudeDegrees>
              <LongitudeDegrees>24.74011383019387722015380859375</LongitudeDegrees>
            </Position>
            <AltitudeMeters>615.20001220703125</AltitudeMeters>
            <DistanceMeters>5829.4679766748</DistanceMeters>
          </Trackpoint>
          <Trackpoint>
            <Time>2022-02-12T11:06:19.000Z</Time>
            <Position>
              <LatitudeDegrees>40.67778688855469226837158203125</LatitudeDegrees>
              <LongitudeDegrees>24.740113578736782073974609375</LongitudeDegrees>
            </Position>
            <AltitudeMeters>616</AltitudeMeters>
            <DistanceMeters>5833.8153839477</DistanceMeters>
          </Trackpoint>
          <Trackpoint>
            <Time>2022-02-12T11:06:22.000Z</Time>
            <Position>
              <LatitudeDegrees>40.67781924270093441009521484375</LatitudeDegrees>
              <LongitudeDegrees>24.74010896869003772735595703125</LongitudeDegrees>
            </Position>
            <AltitudeMeters>616.5999755859375</AltitudeMeters>
            <DistanceMeters>5837.4376347774</DistanceMeters>
          </Trackpoint>
          <Trackpoint>
            <Time>2022-02-12T11:06:26.000Z</Time>
            <Position>
              <LatitudeDegrees>40.6778550334274768829345703125</LatitudeDegrees>
              <LongitudeDegrees>24.7400818951427936553955078125</LongitudeDegrees>
            </Position>
            <AltitudeMeters>617</AltitudeMeters>
            <DistanceMeters>5842.0304834112</DistanceMeters>
          </Trackpoint>
          <Trackpoint>
            <Time>2022-02-12T11:06:27.000Z</Time>
            <Position>
              <LatitudeDegrees>40.6778667680919170379638671875</LatitudeDegrees>
              <LongitudeDegrees>24.7400755248963832855224609375</LongitudeDegrees>
            </Position>
            <AltitudeMeters>617.20001220703125</AltitudeMeters>
            <DistanceMeters>5843.4399573619</DistanceMeters>
          </Trackpoint>
          <Trackpoint>
            <Time>2022-02-12T11:06:30.000Z</Time>
            <Position>
              <LatitudeDegrees>40.6779036484658718109130859375</LatitudeDegrees>
              <LongitudeDegrees>24.7400544025003910064697265625</LongitudeDegrees>
            </Position>
            <AltitudeMeters>617.20001220703125</AltitudeMeters>
            <DistanceMeters>5847.9153019914</DistanceMeters>
          </Trackpoint>
          <Trackpoint>
            <Time>2022-02-12T11:06:33.000Z</Time>
            <Position>
              <LatitudeDegrees>40.6779398582875728607177734375</LatitudeDegrees>
              <LongitudeDegrees>24.7400446794927120208740234375</LongitudeDegrees>
            </Position>
            <AltitudeMeters>617.4000244140625</AltitudeMeters>
            <DistanceMeters>5852.0289820052</DistanceMeters>
          </Trackpoint>
          <Trackpoint>
            <Time>2022-02-12T11:06:38.000Z</Time>
            <Position>
              <LatitudeDegrees>40.67800196819007396697998046875</LatitudeDegrees>
              <LongitudeDegrees>24.74004375748336315155029296875</LongitudeDegrees>
            </Position>
            <AltitudeMeters>617.79998779296875</AltitudeMeters>
            <DistanceMeters>5858.942461203</DistanceMeters>
          </Trackpoint>
          <Trackpoint>
            <Time>2022-02-12T11:06:41.000Z</Time>
            <Position>
              <LatitudeDegrees>40.6780541874468326568603515625</LatitudeDegrees>
              <LongitudeDegrees>24.74005146883428096771240234375</LongitudeDegrees>
            </Position>
            <AltitudeMeters>618.20001220703125</AltitudeMeters>
            <DistanceMeters>5864.7910447554</DistanceMeters>
          </Trackpoint>
          <Trackpoint>
            <Time>2022-02-12T11:06:44.000Z</Time>
            <Position>
              <LatitudeDegrees>40.67811529152095317840576171875</LatitudeDegrees>
              <LongitudeDegrees>24.74005700089037418365478515625</LongitudeDegrees>
            </Position>
            <AltitudeMeters>618.4000244140625</AltitudeMeters>
            <DistanceMeters>5871.6078455725</DistanceMeters>
          </Trackpoint>
          <Trackpoint>
            <Time>2022-02-12T11:06:45.000Z</Time>
            <Position>
              <LatitudeDegrees>40.6781329773366451263427734375</LatitudeDegrees>
              <LongitudeDegrees>24.74006370641291141510009765625</LongitudeDegrees>
            </Position>
            <AltitudeMeters>618.5999755859375</AltitudeMeters>
            <DistanceMeters>5873.6569882094</DistanceMeters>
          </Trackpoint>
          <Trackpoint>
            <Time>2022-02-12T11:06:51.000Z</Time>
            <Position>
              <LatitudeDegrees>40.67825795151293277740478515625</LatitudeDegrees>
              <LongitudeDegrees>24.74010678939521312713623046875</LongitudeDegrees>
            </Position>
            <AltitudeMeters>619.20001220703125</AltitudeMeters>
            <DistanceMeters>5888.0339993662</DistanceMeters>
          </Trackpoint>
          <Trackpoint>
            <Time>2022-02-12T11:06:54.000Z</Time>
            <Position>
              <LatitudeDegrees>40.6783227436244487762451171875</LatitudeDegrees>
              <LongitudeDegrees>24.74013025872409343719482421875</LongitudeDegrees>
            </Position>
            <AltitudeMeters>620.20001220703125</AltitudeMeters>
            <DistanceMeters>5895.5127889403</DistanceMeters>
          </Trackpoint>
          <Trackpoint>
            <Time>2022-02-12T11:06:55.000Z</Time>
            <Position>
              <LatitudeDegrees>40.67834160290658473968505859375</LatitudeDegrees>
              <LongitudeDegrees>24.74013629369437694549560546875</LongitudeDegrees>
            </Position>
            <AltitudeMeters>620.4000244140625</AltitudeMeters>
            <DistanceMeters>5897.6755602177</DistanceMeters>
          </Trackpoint>
          <Trackpoint>
            <Time>2022-02-12T11:06:57.000Z</Time>
            <Position>
              <LatitudeDegrees>40.67837479524314403533935546875</LatitudeDegrees>
              <LongitudeDegrees>24.740149118006229400634765625</LongitudeDegrees>
            </Position>
            <AltitudeMeters>620.5999755859375</AltitudeMeters>
            <DistanceMeters>5901.5261946486</DistanceMeters>
          </Trackpoint>
          <Trackpoint>
            <Time>2022-02-12T11:07:00.000Z</Time>
            <Position>
              <LatitudeDegrees>40.6784132681787014007568359375</LatitudeDegrees>
              <LongitudeDegrees>24.7401657141745090484619140625</LongitudeDegrees>
            </Position>
            <AltitudeMeters>620.79998779296875</AltitudeMeters>
            <DistanceMeters>5906.0317037038</DistanceMeters>
          </Trackpoint>
          <Trackpoint>
            <Time>2022-02-12T11:07:03.000Z</Time>
            <Position>
              <LatitudeDegrees>40.6784478016197681427001953125</LatitudeDegrees>
              <LongitudeDegrees>24.7401720844209194183349609375</LongitudeDegrees>
            </Position>
            <AltitudeMeters>620.5999755859375</AltitudeMeters>
            <DistanceMeters>5909.9127045423</DistanceMeters>
          </Trackpoint>
          <Trackpoint>
            <Time>2022-02-12T11:07:09.000Z</Time>
            <Position>
              <LatitudeDegrees>40.67853011190891265869140625</LatitudeDegrees>
              <LongitudeDegrees>24.74019127897918224334716796875</LongitudeDegrees>
            </Position>
            <AltitudeMeters>621.20001220703125</AltitudeMeters>
            <DistanceMeters>5919.2156208936</DistanceMeters>
          </Trackpoint>
          <Trackpoint>
            <Time>2022-02-12T11:07:10.000Z</Time>
            <Position>
              <LatitudeDegrees>40.67854796536266803741455078125</LatitudeDegrees>
              <LongitudeDegrees>24.74019295535981655120849609375</LongitudeDegrees>
            </Position>
            <AltitudeMeters>621.4000244140625</AltitudeMeters>
            <DistanceMeters>5921.2066516715</DistanceMeters>
          </Trackpoint>
          <Trackpoint>
            <Time>2022-02-12T11:07:15.000Z</Time>
            <Position>
              <LatitudeDegrees>40.6786452792584896087646484375</LatitudeDegrees>
              <LongitudeDegrees>24.74018373526632785797119140625</LongitudeDegrees>
            </Position>
            <AltitudeMeters>621.5999755859375</AltitudeMeters>
            <DistanceMeters>5932.0655069614</DistanceMeters>
          </Trackpoint>
          <Trackpoint>
            <Time>2022-02-12T11:07:20.000Z</Time>
            <Position>
              <LatitudeDegrees>40.678698085248470306396484375</LatitudeDegrees>
              <LongitudeDegrees>24.74019429646432399749755859375</LongitudeDegrees>
            </Position>
            <AltitudeMeters>621.5999755859375</AltitudeMeters>
            <DistanceMeters>5938.0105653464</DistanceMeters>
          </Trackpoint>
          <Trackpoint>
            <Time>2022-02-12T11:07:26.000Z</Time>
            <Position>
              <LatitudeDegrees>40.678759776055812835693359375</LatitudeDegrees>
              <LongitudeDegrees>24.74016881547868251800537109375</LongitudeDegrees>
            </Position>
            <AltitudeMeters>622.20001220703125</AltitudeMeters>
            <DistanceMeters>5945.2062903502</DistanceMeters>
          </Trackpoint>
          <Trackpoint>
            <Time>2022-02-12T11:07:31.000Z</Time>
            <Position>
              <LatitudeDegrees>40.67881400696933269500732421875</LatitudeDegrees>
              <LongitudeDegrees>24.7401429153978824615478515625</LongitudeDegrees>
            </Position>
            <AltitudeMeters>622.4000244140625</AltitudeMeters>
            <DistanceMeters>5951.6253431474</DistanceMeters>
          </Trackpoint>
          <Trackpoint>
            <Time>2022-02-12T11:07:34.000Z</Time>
            <Position>
              <LatitudeDegrees>40.6788539886474609375</LatitudeDegrees>
              <LongitudeDegrees>24.74012791179120540618896484375</LongitudeDegrees>
            </Position>
            <AltitudeMeters>622.5999755859375</AltitudeMeters>
            <DistanceMeters>5956.2514950226</DistanceMeters>
          </Trackpoint>
          <Trackpoint>
            <Time>2022-02-12T11:07:40.000Z</Time>
            <Position>
              <LatitudeDegrees>40.678926743566989898681640625</LatitudeDegrees>
              <LongitudeDegrees>24.74010209552943706512451171875</LongitudeDegrees>
            </Position>
            <AltitudeMeters>622.79998779296875</AltitudeMeters>
            <DistanceMeters>5964.637568916</DistanceMeters>
          </Trackpoint>
          <Trackpoint>
            <Time>2022-02-12T11:07:41.000Z</Time>
            <Position>
              <LatitudeDegrees>40.678938813507556915283203125</LatitudeDegrees>
              <LongitudeDegrees>24.7400989942252635955810546875</LongitudeDegrees>
            </Position>
            <AltitudeMeters>622.79998779296875</AltitudeMeters>
            <DistanceMeters>5966.004765253</DistanceMeters>
          </Trackpoint>
          <Trackpoint>
            <Time>2022-02-12T11:07:44.000Z</Time>
            <Position>
              <LatitudeDegrees>40.6789733469486236572265625</LatitudeDegrees>
              <LongitudeDegrees>24.7400951385498046875</LongitudeDegrees>
            </Position>
            <AltitudeMeters>622.4000244140625</AltitudeMeters>
            <DistanceMeters>5969.8612579475</DistanceMeters>
          </Trackpoint>
          <Trackpoint>
            <Time>2022-02-12T11:07:48.000Z</Time>
            <Position>
              <LatitudeDegrees>40.67905540578067302703857421875</LatitudeDegrees>
              <LongitudeDegrees>24.7400803864002227783203125</LongitudeDegrees>
            </Position>
            <AltitudeMeters>621.79998779296875</AltitudeMeters>
            <DistanceMeters>5979.0793390568</DistanceMeters>
          </Trackpoint>
          <Trackpoint>
            <Time>2022-02-12T11:07:53.000Z</Time>
            <Position>
              <LatitudeDegrees>40.67914961837232112884521484375</LatitudeDegrees>
              <LongitudeDegrees>24.74005582742393016815185546875</LongitudeDegrees>
            </Position>
            <AltitudeMeters>621.4000244140625</AltitudeMeters>
            <DistanceMeters>5989.7684717272</DistanceMeters>
          </Trackpoint>
          <Trackpoint>
            <Time>2022-02-12T11:07:55.000Z</Time>
            <Position>
              <LatitudeDegrees>40.67917593754827976226806640625</LatitudeDegrees>
              <LongitudeDegrees>24.74004191346466541290283203125</LongitudeDegrees>
            </Position>
            <AltitudeMeters>621.4000244140625</AltitudeMeters>
            <DistanceMeters>5992.92587642</DistanceMeters>
          </Trackpoint>
          <Trackpoint>
            <Time>2022-02-12T11:07:59.000Z</Time>
            <Position>
              <LatitudeDegrees>40.6792300008237361907958984375</LatitudeDegrees>
              <LongitudeDegrees>24.74004216492176055908203125</LongitudeDegrees>
            </Position>
            <AltitudeMeters>621.4000244140625</AltitudeMeters>
            <DistanceMeters>5998.9434013714</DistanceMeters>
          </Trackpoint>
          <Trackpoint>
            <Time>2022-02-12T11:08:02.000Z</Time>
            <Position>
              <LatitudeDegrees>40.67926428280770778656005859375</LatitudeDegrees>
              <LongitudeDegrees>24.740046523511409759521484375</LongitudeDegrees>
            </Position>
            <AltitudeMeters>621.4000244140625</AltitudeMeters>
            <DistanceMeters>6002.777585046</DistanceMeters>
          </Trackpoint>
          <Trackpoint>
            <Time>2022-02-12T11:08:04.000Z</Time>
            <Position>
              <LatitudeDegrees>40.679284147918224334716796875</LatitudeDegrees>
              <LongitudeDegrees>24.74004459567368030548095703125</LongitudeDegrees>
            </Position>
            <AltitudeMeters>621.5999755859375</AltitudeMeters>
            <DistanceMeters>6004.99600603</DistanceMeters>
          </Trackpoint>
          <Trackpoint>
            <Time>2022-02-12T11:08:06.000Z</Time>
            <Position>
              <LatitudeDegrees>40.67930652759969234466552734375</LatitudeDegrees>
              <LongitudeDegrees>24.7400389797985553741455078125</LongitudeDegrees>
            </Position>
            <AltitudeMeters>621.4000244140625</AltitudeMeters>
            <DistanceMeters>6007.533415044</DistanceMeters>
          </Trackpoint>
          <Trackpoint>
            <Time>2022-02-12T11:08:08.000Z</Time>
            <Position>
              <LatitudeDegrees>40.67932270467281341552734375</LatitudeDegrees>
              <LongitudeDegrees>24.7400336153805255889892578125</LongitudeDegrees>
            </Position>
            <AltitudeMeters>621</AltitudeMeters>
            <DistanceMeters>6009.3906950987</DistanceMeters>
          </Trackpoint>
          <Trackpoint>
            <Time>2022-02-12T11:08:12.000Z</Time>
            <Position>
              <LatitudeDegrees>40.67935950122773647308349609375</LatitudeDegrees>
              <LongitudeDegrees>24.74002649076282978057861328125</LongitudeDegrees>
            </Position>
            <AltitudeMeters>620.4000244140625</AltitudeMeters>
            <DistanceMeters>6013.5306329111</DistanceMeters>
          </Trackpoint>
          <Trackpoint>
            <Time>2022-02-12T11:08:15.000Z</Time>
            <Position>
              <LatitudeDegrees>40.67938799969851970672607421875</LatitudeDegrees>
              <LongitudeDegrees>24.74002012051641941070556640625</LongitudeDegrees>
            </Position>
            <AltitudeMeters>620</AltitudeMeters>
            <DistanceMeters>6016.7489395592</DistanceMeters>
          </Trackpoint>
          <Trackpoint>
            <Time>2022-02-12T11:08:18.000Z</Time>
            <Position>
              <LatitudeDegrees>40.6794221140444278717041015625</LatitudeDegrees>
              <LongitudeDegrees>24.74002146162092685699462890625</LongitudeDegrees>
            </Position>
            <AltitudeMeters>619.4000244140625</AltitudeMeters>
            <DistanceMeters>6020.5476317233</DistanceMeters>
          </Trackpoint>
          <Trackpoint>
            <Time>2022-02-12T11:08:19.000Z</Time>
            <Position>
              <LatitudeDegrees>40.67943342961370944976806640625</LatitudeDegrees>
              <LongitudeDegrees>24.74002070724964141845703125</LongitudeDegrees>
            </Position>
            <AltitudeMeters>619</AltitudeMeters>
            <DistanceMeters>6021.8154462235</DistanceMeters>
          </Trackpoint>
          <Trackpoint>
            <Time>2022-02-12T11:08:22.000Z</Time>
            <Position>
              <LatitudeDegrees>40.67946645431220531463623046875</LatitudeDegrees>
              <LongitudeDegrees>24.74001961760222911834716796875</LongitudeDegrees>
            </Position>
            <AltitudeMeters>618</AltitudeMeters>
            <DistanceMeters>6025.4909046113</DistanceMeters>
          </Trackpoint>
          <Trackpoint>
            <Time>2022-02-12T11:08:23.000Z</Time>
            <Position>
              <LatitudeDegrees>40.679476596415042877197265625</LatitudeDegrees>
              <LongitudeDegrees>24.74001877941191196441650390625</LongitudeDegrees>
            </Position>
            <AltitudeMeters>617.79998779296875</AltitudeMeters>
            <DistanceMeters>6026.6232786021</DistanceMeters>
          </Trackpoint>
          <Trackpoint>
            <Time>2022-02-12T11:08:29.000Z</Time>
            <Position>
              <LatitudeDegrees>40.67953602410852909088134765625</LatitudeDegrees>
              <LongitudeDegrees>24.7400161810219287872314453125</LongitudeDegrees>
            </Position>
            <AltitudeMeters>617</AltitudeMeters>
            <DistanceMeters>6033.2411234743</DistanceMeters>
          </Trackpoint>
          <Trackpoint>
            <Time>2022-02-12T11:08:30.000Z</Time>
            <Position>
              <LatitudeDegrees>40.67954474128782749176025390625</LatitudeDegrees>
              <LongitudeDegrees>24.74001266062259674072265625</LongitudeDegrees>
            </Position>
            <AltitudeMeters>616.79998779296875</AltitudeMeters>
            <DistanceMeters>6034.2557311397</DistanceMeters>
          </Trackpoint>
          <Trackpoint>
            <Time>2022-02-12T11:08:31.000Z</Time>
            <Position>
              <LatitudeDegrees>40.679554380476474761962890625</LatitudeDegrees>
              <LongitudeDegrees>24.74000972695648670196533203125</LongitudeDegrees>
            </Position>
            <AltitudeMeters>616.79998779296875</AltitudeMeters>
            <DistanceMeters>6035.3598417863</DistanceMeters>
          </Trackpoint>
          <Trackpoint>
            <Time>2022-02-12T11:08:36.000Z</Time>
            <Position>
              <LatitudeDegrees>40.679607689380645751953125</LatitudeDegrees>
              <LongitudeDegrees>24.740017019212245941162109375</LongitudeDegrees>
            </Position>
            <AltitudeMeters>616</AltitudeMeters>
            <DistanceMeters>6041.3246134659</DistanceMeters>
          </Trackpoint>
          <Trackpoint>
            <Time>2022-02-12T11:08:38.000Z</Time>
            <Position>
              <LatitudeDegrees>40.6796249561011791229248046875</LatitudeDegrees>
              <LongitudeDegrees>24.7400141693651676177978515625</LongitudeDegrees>
            </Position>
            <AltitudeMeters>615.5999755859375</AltitudeMeters>
            <DistanceMeters>6043.2604548138</DistanceMeters>
          </Trackpoint>
          <Trackpoint>
            <Time>2022-02-12T11:08:43.000Z</Time>
            <Position>
              <LatitudeDegrees>40.67968304269015789031982421875</LatitudeDegrees>
              <LongitudeDegrees>24.74001207388937473297119140625</LongitudeDegrees>
            </Position>
            <AltitudeMeters>615</AltitudeMeters>
            <DistanceMeters>6049.727858782</DistanceMeters>
          </Trackpoint>
          <Trackpoint>
            <Time>2022-02-12T11:08:44.000Z</Time>
            <Position>
              <LatitudeDegrees>40.6796940229833126068115234375</LatitudeDegrees>
              <LongitudeDegrees>24.74000922404229640960693359375</LongitudeDegrees>
            </Position>
            <AltitudeMeters>614.79998779296875</AltitudeMeters>
            <DistanceMeters>6050.9741224573</DistanceMeters>
          </Trackpoint>
          <Trackpoint>
            <Time>2022-02-12T11:08:46.000Z</Time>
            <Position>
              <LatitudeDegrees>40.67971522919833660125732421875</LatitudeDegrees>
              <LongitudeDegrees>24.73999983631074428558349609375</LongitudeDegrees>
            </Position>
            <AltitudeMeters>614.5999755859375</AltitudeMeters>
            <DistanceMeters>6053.4666498079</DistanceMeters>
          </Trackpoint>
          <Trackpoint>
            <Time>2022-02-12T11:08:48.000Z</Time>
            <Position>
              <LatitudeDegrees>40.6797190010547637939453125</LatitudeDegrees>
              <LongitudeDegrees>24.73999799229204654693603515625</LongitudeDegrees>
            </Position>
            <AltitudeMeters>614.4000244140625</AltitudeMeters>
            <DistanceMeters>6053.9123646066</DistanceMeters>
          </Trackpoint>
          <Trackpoint>
            <Time>2022-02-12T11:08:49.000Z</Time>
            <Position>
              <LatitudeDegrees>40.67972528748214244842529296875</LatitudeDegrees>
              <LongitudeDegrees>24.7399953939020633697509765625</LongitudeDegrees>
            </Position>
            <AltitudeMeters>614.20001220703125</AltitudeMeters>
            <DistanceMeters>6054.6360665022</DistanceMeters>
          </Trackpoint>
          <Trackpoint>
            <Time>2022-02-12T11:08:51.000Z</Time>
            <Position>
              <LatitudeDegrees>40.67973970435559749603271484375</LatitudeDegrees>
              <LongitudeDegrees>24.73998692817986011505126953125</LongitudeDegrees>
            </Position>
            <AltitudeMeters>614.20001220703125</AltitudeMeters>
            <DistanceMeters>6056.3882725377</DistanceMeters>
          </Trackpoint>
          <Trackpoint>
            <Time>2022-02-12T11:08:56.000Z</Time>
            <Position>
              <LatitudeDegrees>40.67977993749082088470458984375</LatitudeDegrees>
              <LongitudeDegrees>24.73999564535915851593017578125</LongitudeDegrees>
            </Position>
            <AltitudeMeters>613.20001220703125</AltitudeMeters>
            <DistanceMeters>6060.9257359582</DistanceMeters>
          </Trackpoint>
          <Trackpoint>
            <Time>2022-02-12T11:08:57.000Z</Time>
            <Position>
              <LatitudeDegrees>40.67978798411786556243896484375</LatitudeDegrees>
              <LongitudeDegrees>24.7399980761110782623291015625</LongitudeDegrees>
            </Position>
            <AltitudeMeters>613</AltitudeMeters>
            <DistanceMeters>6061.8470541365</DistanceMeters>
          </Trackpoint>
          <Trackpoint>
            <Time>2022-02-12T11:08:58.000Z</Time>
            <Position>
              <LatitudeDegrees>40.679800473153591156005859375</LatitudeDegrees>
              <LongitudeDegrees>24.73999933339655399322509765625</LongitudeDegrees>
            </Position>
            <AltitudeMeters>612.79998779296875</AltitudeMeters>
            <DistanceMeters>6063.2436559094</DistanceMeters>
          </Trackpoint>
          <Trackpoint>
            <Time>2022-02-12T11:08:59.000Z</Time>
            <Position>
              <LatitudeDegrees>40.6798120401799678802490234375</LatitudeDegrees>
              <LongitudeDegrees>24.74000151269137859344482421875</LongitudeDegrees>
            </Position>
            <AltitudeMeters>612.5999755859375</AltitudeMeters>
            <DistanceMeters>6064.5465965725</DistanceMeters>
          </Trackpoint>
          <Trackpoint>
            <Time>2022-02-12T11:09:00.000Z</Time>
            <Position>
              <LatitudeDegrees>40.67982285283505916595458984375</LatitudeDegrees>
              <LongitudeDegrees>24.740004278719425201416015625</LongitudeDegrees>
            </Position>
            <AltitudeMeters>612.4000244140625</AltitudeMeters>
            <DistanceMeters>6065.7709301421</DistanceMeters>
          </Trackpoint>
          <Trackpoint>
            <Time>2022-02-12T11:09:01.000Z</Time>
            <Position>
              <LatitudeDegrees>40.67983374930918216705322265625</LatitudeDegrees>
              <LongitudeDegrees>24.74000805057585239410400390625</LongitudeDegrees>
            </Position>
            <AltitudeMeters>612.20001220703125</AltitudeMeters>
            <DistanceMeters>6067.0316019686</DistanceMeters>
          </Trackpoint>
          <Trackpoint>
            <Time>2022-02-12T11:09:06.000Z</Time>
            <Position>
              <LatitudeDegrees>40.67989510484039783477783203125</LatitudeDegrees>
              <LongitudeDegrees>24.740035124123096466064453125</LongitudeDegrees>
            </Position>
            <AltitudeMeters>611.79998779296875</AltitudeMeters>
            <DistanceMeters>6074.233598851</DistanceMeters>
          </Trackpoint>
          <Trackpoint>
            <Time>2022-02-12T11:09:08.000Z</Time>
            <Position>
              <LatitudeDegrees>40.679915137588977813720703125</LatitudeDegrees>
              <LongitudeDegrees>24.740047864615917205810546875</LongitudeDegrees>
            </Position>
            <AltitudeMeters>611.79998779296875</AltitudeMeters>
            <DistanceMeters>6076.7079455989</DistanceMeters>
          </Trackpoint>
          <Trackpoint>
            <Time>2022-02-12T11:09:09.000Z</Time>
            <Position>
              <LatitudeDegrees>40.67992511205375194549560546875</LatitudeDegrees>
              <LongitudeDegrees>24.7400503791868686676025390625</LongitudeDegrees>
            </Position>
            <AltitudeMeters>611.5999755859375</AltitudeMeters>
            <DistanceMeters>6077.8403195897</DistanceMeters>
          </Trackpoint>
          <Trackpoint>
            <Time>2022-02-12T11:09:10.000Z</Time>
            <Position>
              <LatitudeDegrees>40.6799344159662723541259765625</LatitudeDegrees>
              <LongitudeDegrees>24.74005213938653469085693359375</LongitudeDegrees>
            </Position>
            <AltitudeMeters>611.5999755859375</AltitudeMeters>
            <DistanceMeters>6078.8812850902</DistanceMeters>
          </Trackpoint>
          <Trackpoint>
            <Time>2022-02-12T11:09:11.000Z</Time>
            <Position>
              <LatitudeDegrees>40.67994321696460247039794921875</LatitudeDegrees>
              <LongitudeDegrees>24.74005817435681819915771484375</LongitudeDegrees>
            </Position>
            <AltitudeMeters>611.5999755859375</AltitudeMeters>
            <DistanceMeters>6079.9853957368</DistanceMeters>
          </Trackpoint>
          <Trackpoint>
            <Time>2022-02-12T11:09:16.000Z</Time>
            <Position>
              <LatitudeDegrees>40.67998361773788928985595703125</LatitudeDegrees>
              <LongitudeDegrees>24.74009723402559757232666015625</LongitudeDegrees>
            </Position>
            <AltitudeMeters>611.20001220703125</AltitudeMeters>
            <DistanceMeters>6085.5604762851</DistanceMeters>
          </Trackpoint>
          <Trackpoint>
            <Time>2022-02-12T11:09:17.000Z</Time>
            <Position>
              <LatitudeDegrees>40.67999501712620258331298828125</LatitudeDegrees>
              <LongitudeDegrees>24.74010276608169078826904296875</LongitudeDegrees>
            </Position>
            <AltitudeMeters>611.20001220703125</AltitudeMeters>
            <DistanceMeters>6086.911059656</DistanceMeters>
          </Trackpoint>
          <Trackpoint>
            <Time>2022-02-12T11:09:19.000Z</Time>
            <Position>
              <LatitudeDegrees>40.68001530133187770843505859375</LatitudeDegrees>
              <LongitudeDegrees>24.74011600948870182037353515625</LongitudeDegrees>
            </Position>
            <AltitudeMeters>611</AltitudeMeters>
            <DistanceMeters>6089.432403309</DistanceMeters>
          </Trackpoint>
          <Trackpoint>
            <Time>2022-02-12T11:09:20.000Z</Time>
            <Position>
              <LatitudeDegrees>40.6800259463489055633544921875</LatitudeDegrees>
              <LongitudeDegrees>24.7401238046586513519287109375</LongitudeDegrees>
            </Position>
            <AltitudeMeters>611</AltitudeMeters>
            <DistanceMeters>6090.789656268</DistanceMeters>
          </Trackpoint>
          <Trackpoint>
            <Time>2022-02-12T11:09:23.000Z</Time>
            <Position>
              <LatitudeDegrees>40.6800547800958156585693359375</LatitudeDegrees>
              <LongitudeDegrees>24.740141741931438446044921875</LongitudeDegrees>
            </Position>
            <AltitudeMeters>610.4000244140625</AltitudeMeters>
            <DistanceMeters>6094.3388754271</DistanceMeters>
          </Trackpoint>
          <Trackpoint>
            <Time>2022-02-12T11:09:24.000Z</Time>
            <Position>
              <LatitudeDegrees>40.6800638325512409210205078125</LatitudeDegrees>
              <LongitudeDegrees>24.7401501238346099853515625</LongitudeDegrees>
            </Position>
            <AltitudeMeters>610.4000244140625</AltitudeMeters>
            <DistanceMeters>6095.5705624176</DistanceMeters>
          </Trackpoint>
          <Trackpoint>
            <Time>2022-02-12T11:09:25.000Z</Time>
            <Position>
              <LatitudeDegrees>40.68007213063538074493408203125</LatitudeDegrees>
              <LongitudeDegrees>24.74015674553811550140380859375</LongitudeDegrees>
            </Position>
            <AltitudeMeters>610.20001220703125</AltitudeMeters>
            <DistanceMeters>6096.6540336621</DistanceMeters>
          </Trackpoint>
          <Trackpoint>
            <Time>2022-02-12T11:09:31.000Z</Time>
            <Position>
              <LatitudeDegrees>40.6801285408437252044677734375</LatitudeDegrees>
              <LongitudeDegrees>24.7401975654065608978271484375</LongitudeDegrees>
            </Position>
            <AltitudeMeters>609.20001220703125</AltitudeMeters>
            <DistanceMeters>6103.8157956102</DistanceMeters>
          </Trackpoint>
          <Trackpoint>
            <Time>2022-02-12T11:09:32.000Z</Time>
            <Position>
              <LatitudeDegrees>40.68013851530849933624267578125</LatitudeDegrees>
              <LongitudeDegrees>24.740205444395542144775390625</LongitudeDegrees>
            </Position>
            <AltitudeMeters>609</AltitudeMeters>
            <DistanceMeters>6105.1117872069</DistanceMeters>
          </Trackpoint>
          <Trackpoint>
            <Time>2022-02-12T11:09:37.000Z</Time>
            <Position>
              <LatitudeDegrees>40.68018696270883083343505859375</LatitudeDegrees>
              <LongitudeDegrees>24.74022933281958103179931640625</LongitudeDegrees>
            </Position>
            <AltitudeMeters>608</AltitudeMeters>
            <DistanceMeters>6110.8685554451</DistanceMeters>
          </Trackpoint>
          <Trackpoint>
            <Time>2022-02-12T11:09:43.000Z</Time>
            <Position>
              <LatitudeDegrees>40.68025611340999603271484375</LatitudeDegrees>
              <LongitudeDegrees>24.740236960351467132568359375</LongitudeDegrees>
            </Position>
            <AltitudeMeters>607.20001220703125</AltitudeMeters>
            <DistanceMeters>6118.5926550733</DistanceMeters>
          </Trackpoint>
          <Trackpoint>
            <Time>2022-02-12T11:09:45.000Z</Time>
            <Position>
              <LatitudeDegrees>40.68027966655790805816650390625</LatitudeDegrees>
              <LongitudeDegrees>24.740228913724422454833984375</LongitudeDegrees>
            </Position>
            <AltitudeMeters>607.20001220703125</AltitudeMeters>
            <DistanceMeters>6121.3004996169</DistanceMeters>
          </Trackpoint>
          <Trackpoint>
            <Time>2022-02-12T11:09:51.000Z</Time>
            <Position>
              <LatitudeDegrees>40.6803431175649166107177734375</LatitudeDegrees>
              <LongitudeDegrees>24.74022162146866321563720703125</LongitudeDegrees>
            </Position>
            <AltitudeMeters>607</AltitudeMeters>
            <DistanceMeters>6128.3900274917</DistanceMeters>
          </Trackpoint>
          <Trackpoint>
            <Time>2022-02-12T11:09:52.000Z</Time>
            <Position>
              <LatitudeDegrees>40.68035745061933994293212890625</LatitudeDegrees>
              <LongitudeDegrees>24.74023100920021533966064453125</LongitudeDegrees>
            </Position>
            <AltitudeMeters>607</AltitudeMeters>
            <DistanceMeters>6130.1728866864</DistanceMeters>
          </Trackpoint>
          <Trackpoint>
            <Time>2022-02-12T11:09:55.000Z</Time>
            <Position>
              <LatitudeDegrees>40.6803937442600727081298828125</LatitudeDegrees>
              <LongitudeDegrees>24.74024525843560695648193359375</LongitudeDegrees>
            </Position>
            <AltitudeMeters>606.5999755859375</AltitudeMeters>
            <DistanceMeters>6134.3884756656</DistanceMeters>
          </Trackpoint>
          <Trackpoint>
            <Time>2022-02-12T11:09:56.000Z</Time>
            <Position>
              <LatitudeDegrees>40.68040455691516399383544921875</LatitudeDegrees>
              <LongitudeDegrees>24.74024928174912929534912109375</LongitudeDegrees>
            </Position>
            <AltitudeMeters>606.5999755859375</AltitudeMeters>
            <DistanceMeters>6135.6419641184</DistanceMeters>
          </Trackpoint>
          <Trackpoint>
            <Time>2022-02-12T11:10:00.000Z</Time>
            <Position>
              <LatitudeDegrees>40.68043573759496212005615234375</LatitudeDegrees>
              <LongitudeDegrees>24.74026202224195003509521484375</LongitudeDegrees>
            </Position>
            <AltitudeMeters>606.20001220703125</AltitudeMeters>
            <DistanceMeters>6139.2754158879</DistanceMeters>
          </Trackpoint>
          <Trackpoint>
            <Time>2022-02-12T11:10:01.000Z</Time>
            <Position>
              <LatitudeDegrees>40.68044512532651424407958984375</LatitudeDegrees>
              <LongitudeDegrees>24.740269482135772705078125</LongitudeDegrees>
            </Position>
            <AltitudeMeters>606</AltitudeMeters>
            <DistanceMeters>6140.4997494575</DistanceMeters>
          </Trackpoint>
          <Trackpoint>
            <Time>2022-02-12T11:10:04.000Z</Time>
            <Position>
              <LatitudeDegrees>40.6804742105305194854736328125</LatitudeDegrees>
              <LongitudeDegrees>24.74028280936181545257568359375</LongitudeDegrees>
            </Position>
            <AltitudeMeters>605.20001220703125</AltitudeMeters>
            <DistanceMeters>6143.9259863695</DistanceMeters>
          </Trackpoint>
          <Trackpoint>
            <Time>2022-02-12T11:10:05.000Z</Time>
            <Position>
              <LatitudeDegrees>40.6804835982620716094970703125</LatitudeDegrees>
              <LongitudeDegrees>24.7402753494679927825927734375</LongitudeDegrees>
            </Position>
            <AltitudeMeters>605.20001220703125</AltitudeMeters>
            <DistanceMeters>6145.1429220855</DistanceMeters>
          </Trackpoint>
          <Trackpoint>
            <Time>2022-02-12T11:10:06.000Z</Time>
            <Position>
              <LatitudeDegrees>40.68048334680497646331787109375</LatitudeDegrees>
              <LongitudeDegrees>24.740258753299713134765625</LongitudeDegrees>
            </Position>
            <AltitudeMeters>605.20001220703125</AltitudeMeters>
            <DistanceMeters>6146.5427529997</DistanceMeters>
          </Trackpoint>
          <Trackpoint>
            <Time>2022-02-12T11:10:07.000Z</Time>
            <Position>
              <LatitudeDegrees>40.68048435263335704803466796875</LatitudeDegrees>
              <LongitudeDegrees>24.74023872055113315582275390625</LongitudeDegrees>
            </Position>
            <AltitudeMeters>605.20001220703125</AltitudeMeters>
            <DistanceMeters>6148.239984388</DistanceMeters>
          </Trackpoint>
          <Trackpoint>
            <Time>2022-02-12T11:10:08.000Z</Time>
            <Position>
              <LatitudeDegrees>40.68048837594687938690185546875</LatitudeDegrees>
              <LongitudeDegrees>24.74022329784929752349853515625</LongitudeDegrees>
            </Position>
            <AltitudeMeters>605.20001220703125</AltitudeMeters>
            <DistanceMeters>6149.6104791528</DistanceMeters>
          </Trackpoint>
          <Trackpoint>
            <Time>2022-02-12T11:10:10.000Z</Time>
            <Position>
              <LatitudeDegrees>40.680498182773590087890625</LatitudeDegrees>
              <LongitudeDegrees>24.74018842913210391998291015625</LongitudeDegrees>
            </Position>
            <AltitudeMeters>605.20001220703125</AltitudeMeters>
            <DistanceMeters>6152.7478001953</DistanceMeters>
          </Trackpoint>
          <Trackpoint>
            <Time>2022-02-12T11:10:11.000Z</Time>
            <Position>
              <LatitudeDegrees>40.6805087439715862274169921875</LatitudeDegrees>
              <LongitudeDegrees>24.7401740960776805877685546875</LongitudeDegrees>
            </Position>
            <AltitudeMeters>605.20001220703125</AltitudeMeters>
            <DistanceMeters>6154.4316778641</DistanceMeters>
          </Trackpoint>
          <Trackpoint>
            <Time>2022-02-12T11:10:12.000Z</Time>
            <Position>
              <LatitudeDegrees>40.680517964065074920654296875</LatitudeDegrees>
              <LongitudeDegrees>24.74016076885163784027099609375</LongitudeDegrees>
            </Position>
            <AltitudeMeters>605.4000244140625</AltitudeMeters>
            <DistanceMeters>6155.952105294</DistanceMeters>
          </Trackpoint>
          <Trackpoint>
            <Time>2022-02-12T11:10:13.000Z</Time>
            <Position>
              <LatitudeDegrees>40.6805238313972949981689453125</LatitudeDegrees>
              <LongitudeDegrees>24.74014811217784881591796875</LongitudeDegrees>
            </Position>
            <AltitudeMeters>605.20001220703125</AltitudeMeters>
            <DistanceMeters>6157.2055937468</DistanceMeters>
          </Trackpoint>
          <Trackpoint>
            <Time>2022-02-12T11:10:16.000Z</Time>
            <Position>
              <LatitudeDegrees>40.68053212948143482208251953125</LatitudeDegrees>
              <LongitudeDegrees>24.7401147522032260894775390625</LongitudeDegrees>
            </Position>
            <AltitudeMeters>605.5999755859375</AltitudeMeters>
            <DistanceMeters>6160.1682334994</DistanceMeters>
          </Trackpoint>
          <Trackpoint>
            <Time>2022-02-12T11:10:17.000Z</Time>
            <Position>
              <LatitudeDegrees>40.680530704557895660400390625</LatitudeDegrees>
              <LongitudeDegrees>24.74010980688035488128662109375</LongitudeDegrees>
            </Position>
            <AltitudeMeters>605.5999755859375</AltitudeMeters>
            <DistanceMeters>6160.6239656117</DistanceMeters>
          </Trackpoint>
          <Trackpoint>
            <Time>2022-02-12T11:16:42.000Z</Time>
            <Position>
              <LatitudeDegrees>40.68057118915021419525146484375</LatitudeDegrees>
              <LongitudeDegrees>24.7403474338352680206298828125</LongitudeDegrees>
            </Position>
            <AltitudeMeters>605.79998779296875</AltitudeMeters>
            <DistanceMeters>6181.181167452</DistanceMeters>
          </Trackpoint>
          <Trackpoint>
            <Time>2022-02-12T11:16:44.000Z</Time>
            <Position>
              <LatitudeDegrees>40.68058208562433719635009765625</LatitudeDegrees>
              <LongitudeDegrees>24.74038037471473217010498046875</LongitudeDegrees>
            </Position>
            <AltitudeMeters>605.79998779296875</AltitudeMeters>
            <DistanceMeters>6184.2145892651</DistanceMeters>
          </Trackpoint>
          <Trackpoint>
            <Time>2022-02-12T11:16:46.000Z</Time>
            <Position>
              <LatitudeDegrees>40.6805908866226673126220703125</LatitudeDegrees>
              <LongitudeDegrees>24.740404598414897918701171875</LongitudeDegrees>
            </Position>
            <AltitudeMeters>605.79998779296875</AltitudeMeters>
            <DistanceMeters>6186.4793372467</DistanceMeters>
          </Trackpoint>
          <Trackpoint>
            <Time>2022-02-12T11:16:49.000Z</Time>
            <Position>
              <LatitudeDegrees>40.68060555495321750640869140625</LatitudeDegrees>
              <LongitudeDegrees>24.7404419817030429840087890625</LongitudeDegrees>
            </Position>
            <AltitudeMeters>605.79998779296875</AltitudeMeters>
            <DistanceMeters>6190.0298282995</DistanceMeters>
          </Trackpoint>
          <Trackpoint>
            <Time>2022-02-12T11:16:50.000Z</Time>
            <Position>
              <LatitudeDegrees>40.6806126795709133148193359375</LatitudeDegrees>
              <LongitudeDegrees>24.74045044742524623870849609375</LongitudeDegrees>
            </Position>
            <AltitudeMeters>605.79998779296875</AltitudeMeters>
            <DistanceMeters>6191.0965005228</DistanceMeters>
          </Trackpoint>
          <Trackpoint>
            <Time>2022-02-12T11:16:52.000Z</Time>
            <Position>
              <LatitudeDegrees>40.6806267611682415008544921875</LatitudeDegrees>
              <LongitudeDegrees>24.74045882932841777801513671875</LongitudeDegrees>
            </Position>
            <AltitudeMeters>605.79998779296875</AltitudeMeters>
            <DistanceMeters>6192.8122525214</DistanceMeters>
          </Trackpoint>
          <Trackpoint>
            <Time>2022-02-12T11:19:00.000Z</Time>
            <Position>
              <LatitudeDegrees>40.6806113384664058685302734375</LatitudeDegrees>
              <LongitudeDegrees>24.74047022871673107147216796875</LongitudeDegrees>
            </Position>
            <AltitudeMeters>605.4000244140625</AltitudeMeters>
            <DistanceMeters>6194.7781804748</DistanceMeters>
          </Trackpoint>
          <Trackpoint>
            <Time>2022-02-12T11:19:01.000Z</Time>
            <Position>
              <LatitudeDegrees>40.6806167028844356536865234375</LatitudeDegrees>
              <LongitudeDegrees>24.74048112519085407257080078125</LongitudeDegrees>
            </Position>
            <AltitudeMeters>605.4000244140625</AltitudeMeters>
            <DistanceMeters>6195.8781942217</DistanceMeters>
          </Trackpoint>
          <Trackpoint>
            <Time>2022-02-12T11:19:03.000Z</Time>
            <Position>
              <LatitudeDegrees>40.6806405074894428253173828125</LatitudeDegrees>
              <LongitudeDegrees>24.74047944881021976470947265625</LongitudeDegrees>
            </Position>
            <AltitudeMeters>605.4000244140625</AltitudeMeters>
            <DistanceMeters>6198.5321459218</DistanceMeters>
          </Trackpoint>
          <Trackpoint>
            <Time>2022-02-12T11:19:05.000Z</Time>
            <Position>
              <LatitudeDegrees>40.68067763932049274444580078125</LatitudeDegrees>
              <LongitudeDegrees>24.74047525785863399505615234375</LongitudeDegrees>
            </Position>
            <AltitudeMeters>605.5999755859375</AltitudeMeters>
            <DistanceMeters>6202.6807994024</DistanceMeters>
          </Trackpoint>
          <Trackpoint>
            <Time>2022-02-12T11:19:08.000Z</Time>
            <Position>
              <LatitudeDegrees>40.68075927905738353729248046875</LatitudeDegrees>
              <LongitudeDegrees>24.74047307856380939483642578125</LongitudeDegrees>
            </Position>
            <AltitudeMeters>605.5999755859375</AltitudeMeters>
            <DistanceMeters>6211.769646376</DistanceMeters>
          </Trackpoint>
          <Trackpoint>
            <Time>2022-02-12T11:19:12.000Z</Time>
            <Position>
              <LatitudeDegrees>40.68085080944001674652099609375</LatitudeDegrees>
              <LongitudeDegrees>24.74045530892908573150634765625</LongitudeDegrees>
            </Position>
            <AltitudeMeters>606.4000244140625</AltitudeMeters>
            <DistanceMeters>6222.0672280184</DistanceMeters>
          </Trackpoint>
          <Trackpoint>
            <Time>2022-02-12T11:19:14.000Z</Time>
            <Position>
              <LatitudeDegrees>40.68088031373918056488037109375</LatitudeDegrees>
              <LongitudeDegrees>24.74046352319419384002685546875</LongitudeDegrees>
            </Position>
            <AltitudeMeters>607.20001220703125</AltitudeMeters>
            <DistanceMeters>6225.4242408873</DistanceMeters>
          </Trackpoint>
          <Trackpoint>
            <Time>2022-02-12T11:19:19.000Z</Time>
            <Position>
              <LatitudeDegrees>40.68097637034952640533447265625</LatitudeDegrees>
              <LongitudeDegrees>24.74049503915011882781982421875</LongitudeDegrees>
            </Position>
            <AltitudeMeters>608.20001220703125</AltitudeMeters>
            <DistanceMeters>6236.4416038912</DistanceMeters>
          </Trackpoint>
          <Trackpoint>
            <Time>2022-02-12T11:19:22.000Z</Time>
            <Position>
              <LatitudeDegrees>40.6810357980430126190185546875</LatitudeDegrees>
              <LongitudeDegrees>24.74050275050103664398193359375</LongitudeDegrees>
            </Position>
            <AltitudeMeters>609</AltitudeMeters>
            <DistanceMeters>6243.088041581</DistanceMeters>
          </Trackpoint>
          <Trackpoint>
            <Time>2022-02-12T11:19:24.000Z</Time>
            <Position>
              <LatitudeDegrees>40.6810696609318256378173828125</LatitudeDegrees>
              <LongitudeDegrees>24.74050543271005153656005859375</LongitudeDegrees>
            </Position>
            <AltitudeMeters>609.4000244140625</AltitudeMeters>
            <DistanceMeters>6246.8640832525</DistanceMeters>
          </Trackpoint>
          <Trackpoint>
            <Time>2022-02-12T11:19:26.000Z</Time>
            <Position>
              <LatitudeDegrees>40.681107044219970703125</LatitudeDegrees>
              <LongitudeDegrees>24.7405187599360942840576171875</LongitudeDegrees>
            </Position>
            <AltitudeMeters>609.79998779296875</AltitudeMeters>
            <DistanceMeters>6251.1749877192</DistanceMeters>
          </Trackpoint>
          <Trackpoint>
            <Time>2022-02-12T11:19:29.000Z</Time>
            <Position>
              <LatitudeDegrees>40.6811486184597015380859375</LatitudeDegrees>
              <LongitudeDegrees>24.74052236415445804595947265625</LongitudeDegrees>
            </Position>
            <AltitudeMeters>610.20001220703125</AltitudeMeters>
            <DistanceMeters>6255.810889135</DistanceMeters>
          </Trackpoint>
          <Trackpoint>
            <Time>2022-02-12T11:19:30.000Z</Time>
            <Position>
              <LatitudeDegrees>40.68116362206637859344482421875</LatitudeDegrees>
              <LongitudeDegrees>24.74052437581121921539306640625</LongitudeDegrees>
            </Position>
            <AltitudeMeters>610.4000244140625</AltitudeMeters>
            <DistanceMeters>6257.4867034965</DistanceMeters>
          </Trackpoint>
          <Trackpoint>
            <Time>2022-02-12T11:19:34.000Z</Time>
            <Position>
              <LatitudeDegrees>40.68122304975986480712890625</LatitudeDegrees>
              <LongitudeDegrees>24.740519262850284576416015625</LongitudeDegrees>
            </Position>
            <AltitudeMeters>611.20001220703125</AltitudeMeters>
            <DistanceMeters>6264.1154554134</DistanceMeters>
          </Trackpoint>
          <Trackpoint>
            <Time>2022-02-12T11:19:40.000Z</Time>
            <Position>
              <LatitudeDegrees>40.68129588849842548370361328125</LatitudeDegrees>
              <LongitudeDegrees>24.7405177541077136993408203125</LongitudeDegrees>
            </Position>
            <AltitudeMeters>611.4000244140625</AltitudeMeters>
            <DistanceMeters>6272.2234117843</DistanceMeters>
          </Trackpoint>
          <Trackpoint>
            <Time>2022-02-12T11:19:43.000Z</Time>
            <Position>
              <LatitudeDegrees>40.68133167922496795654296875</LatitudeDegrees>
              <LongitudeDegrees>24.7405046783387660980224609375</LongitudeDegrees>
            </Position>
            <AltitudeMeters>611.5999755859375</AltitudeMeters>
            <DistanceMeters>6276.3568007851</DistanceMeters>
          </Trackpoint>
          <Trackpoint>
            <Time>2022-02-12T11:19:47.000Z</Time>
            <Position>
              <LatitudeDegrees>40.68137057125568389892578125</LatitudeDegrees>
              <LongitudeDegrees>24.74047408439218997955322265625</LongitudeDegrees>
            </Position>
            <AltitudeMeters>612.4000244140625</AltitudeMeters>
            <DistanceMeters>6281.3968012848</DistanceMeters>
          </Trackpoint>
          <Trackpoint>
            <Time>2022-02-12T11:19:48.000Z</Time>
            <Position>
              <LatitudeDegrees>40.68137903697788715362548828125</LatitudeDegrees>
              <LongitudeDegrees>24.74046997725963592529296875</LongitudeDegrees>
            </Position>
            <AltitudeMeters>612.5999755859375</AltitudeMeters>
            <DistanceMeters>6282.3934498732</DistanceMeters>
          </Trackpoint>
          <Trackpoint>
            <Time>2022-02-12T11:19:53.000Z</Time>
            <Position>
              <LatitudeDegrees>40.68144005723297595977783203125</LatitudeDegrees>
              <LongitudeDegrees>24.74043753929436206817626953125</LongitudeDegrees>
            </Position>
            <AltitudeMeters>613.20001220703125</AltitudeMeters>
            <DistanceMeters>6289.7160582831</DistanceMeters>
          </Trackpoint>
          <Trackpoint>
            <Time>2022-02-12T11:19:54.000Z</Time>
            <Position>
              <LatitudeDegrees>40.6814515404403209686279296875</LatitudeDegrees>
              <LongitudeDegrees>24.74043251015245914459228515625</LongitudeDegrees>
            </Position>
            <AltitudeMeters>613.4000244140625</AltitudeMeters>
            <DistanceMeters>6291.0666416539</DistanceMeters>
          </Trackpoint>
          <Trackpoint>
            <Time>2022-02-12T11:19:56.000Z</Time>
            <Position>
              <LatitudeDegrees>40.68147224374115467071533203125</LatitudeDegrees>
              <LongitudeDegrees>24.740429408848285675048828125</LongitudeDegrees>
            </Position>
            <AltitudeMeters>613.79998779296875</AltitudeMeters>
            <DistanceMeters>6293.3845923618</DistanceMeters>
          </Trackpoint>
          <Trackpoint>
            <Time>2022-02-12T11:20:01.000Z</Time>
            <Position>
              <LatitudeDegrees>40.68153309635818004608154296875</LatitudeDegrees>
              <LongitudeDegrees>24.74042161367833614349365234375</LongitudeDegrees>
            </Position>
            <AltitudeMeters>614.4000244140625</AltitudeMeters>
            <DistanceMeters>6300.1894606195</DistanceMeters>
          </Trackpoint>
          <Trackpoint>
            <Time>2022-02-12T11:20:05.000Z</Time>
            <Position>
              <LatitudeDegrees>40.6815943680703639984130859375</LatitudeDegrees>
              <LongitudeDegrees>24.74040501751005649566650390625</LongitudeDegrees>
            </Position>
            <AltitudeMeters>615.20001220703125</AltitudeMeters>
            <DistanceMeters>6307.1517483435</DistanceMeters>
          </Trackpoint>
          <Trackpoint>
            <Time>2022-02-12T11:20:06.000Z</Time>
            <Position>
              <LatitudeDegrees>40.68160903640091419219970703125</LatitudeDegrees>
              <LongitudeDegrees>24.7404024191200733184814453125</LongitudeDegrees>
            </Position>
            <AltitudeMeters>615.20001220703125</AltitudeMeters>
            <DistanceMeters>6308.7976593171</DistanceMeters>
          </Trackpoint>
          <Trackpoint>
            <Time>2022-02-12T11:20:11.000Z</Time>
            <Position>
              <LatitudeDegrees>40.681684724986553192138671875</LatitudeDegrees>
              <LongitudeDegrees>24.74040367640554904937744140625</LongitudeDegrees>
            </Position>
            <AltitudeMeters>615.79998779296875</AltitudeMeters>
            <DistanceMeters>6317.222408622</DistanceMeters>
          </Trackpoint>
          <Trackpoint>
            <Time>2022-02-12T11:20:12.000Z</Time>
            <Position>
              <LatitudeDegrees>40.6816969625651836395263671875</LatitudeDegrees>
              <LongitudeDegrees>24.74040233530104160308837890625</LongitudeDegrees>
            </Position>
            <AltitudeMeters>616</AltitudeMeters>
            <DistanceMeters>6318.589604959</DistanceMeters>
          </Trackpoint>
          <Trackpoint>
            <Time>2022-02-12T11:20:13.000Z</Time>
            <Position>
              <LatitudeDegrees>40.68171012215316295623779296875</LatitudeDegrees>
              <LongitudeDegrees>24.7404067777097225189208984375</LongitudeDegrees>
            </Position>
            <AltitudeMeters>616.4000244140625</AltitudeMeters>
            <DistanceMeters>6320.1040815738</DistanceMeters>
          </Trackpoint>
          <Trackpoint>
            <Time>2022-02-12T11:20:19.000Z</Time>
            <Position>
              <LatitudeDegrees>40.68178765475749969482421875</LatitudeDegrees>
              <LongitudeDegrees>24.74041356705129146575927734375</LongitudeDegrees>
            </Position>
            <AltitudeMeters>617.20001220703125</AltitudeMeters>
            <DistanceMeters>6328.7520346905</DistanceMeters>
          </Trackpoint>
          <Trackpoint>
            <Time>2022-02-12T11:20:20.000Z</Time>
            <Position>
              <LatitudeDegrees>40.68180114962160587310791015625</LatitudeDegrees>
              <LongitudeDegrees>24.7404134832322597503662109375</LongitudeDegrees>
            </Position>
            <AltitudeMeters>617.4000244140625</AltitudeMeters>
            <DistanceMeters>6330.2545389703</DistanceMeters>
          </Trackpoint>
          <Trackpoint>
            <Time>2022-02-12T11:20:21.000Z</Time>
            <Position>
              <LatitudeDegrees>40.68181439302861690521240234375</LatitudeDegrees>
              <LongitudeDegrees>24.74041406996548175811767578125</LongitudeDegrees>
            </Position>
            <AltitudeMeters>617.5999755859375</AltitudeMeters>
            <DistanceMeters>6331.7266864991</DistanceMeters>
          </Trackpoint>
          <Trackpoint>
            <Time>2022-02-12T11:20:25.000Z</Time>
            <Position>
              <LatitudeDegrees>40.68185395561158657073974609375</LatitudeDegrees>
              <LongitudeDegrees>24.74040904082357883453369140625</LongitudeDegrees>
            </Position>
            <AltitudeMeters>618.5999755859375</AltitudeMeters>
            <DistanceMeters>6336.1492587798</DistanceMeters>
          </Trackpoint>
          <Trackpoint>
            <Time>2022-02-12T11:20:26.000Z</Time>
            <Position>
              <LatitudeDegrees>40.681863091886043548583984375</LatitudeDegrees>
              <LongitudeDegrees>24.740404598414897918701171875</LongitudeDegrees>
            </Position>
            <AltitudeMeters>618.5999755859375</AltitudeMeters>
            <DistanceMeters>6337.2327300243</DistanceMeters>
          </Trackpoint>
          <Trackpoint>
            <Time>2022-02-12T11:20:31.000Z</Time>
            <Position>
              <LatitudeDegrees>40.68190927617251873016357421875</LatitudeDegrees>
              <LongitudeDegrees>24.74037383683025836944580078125</LongitudeDegrees>
            </Position>
            <AltitudeMeters>619.4000244140625</AltitudeMeters>
            <DistanceMeters>6342.9910666506</DistanceMeters>
          </Trackpoint>
          <Trackpoint>
            <Time>2022-02-12T11:20:32.000Z</Time>
            <Position>
              <LatitudeDegrees>40.68192235194146633148193359375</LatitudeDegrees>
              <LongitudeDegrees>24.74036495201289653778076171875</LongitudeDegrees>
            </Position>
            <AltitudeMeters>619.5999755859375</AltitudeMeters>
            <DistanceMeters>6344.6314820798</DistanceMeters>
          </Trackpoint>
          <Trackpoint>
            <Time>2022-02-12T11:20:33.000Z</Time>
            <Position>
              <LatitudeDegrees>40.68193375132977962493896484375</LatitudeDegrees>
              <LongitudeDegrees>24.74035992287099361419677734375</LongitudeDegrees>
            </Position>
            <AltitudeMeters>619.79998779296875</AltitudeMeters>
            <DistanceMeters>6345.9686264759</DistanceMeters>
          </Trackpoint>
          <Trackpoint>
            <Time>2022-02-12T11:20:35.000Z</Time>
            <Position>
              <LatitudeDegrees>40.6819537840783596038818359375</LatitudeDegrees>
              <LongitudeDegrees>24.7403491102159023284912109375</LongitudeDegrees>
            </Position>
            <AltitudeMeters>620.20001220703125</AltitudeMeters>
            <DistanceMeters>6348.3763866543</DistanceMeters>
          </Trackpoint>
          <Trackpoint>
            <Time>2022-02-12T11:20:38.000Z</Time>
            <Position>
              <LatitudeDegrees>40.681989826261997222900390625</LatitudeDegrees>
              <LongitudeDegrees>24.740348942577838897705078125</LongitudeDegrees>
            </Position>
            <AltitudeMeters>620.79998779296875</AltitudeMeters>
            <DistanceMeters>6352.3878198425</DistanceMeters>
          </Trackpoint>
          <Trackpoint>
            <Time>2022-02-12T11:20:39.000Z</Time>
            <Position>
              <LatitudeDegrees>40.68200013600289821624755859375</LatitudeDegrees>
              <LongitudeDegrees>24.74035061895847320556640625</LongitudeDegrees>
            </Position>
            <AltitudeMeters>620.79998779296875</AltitudeMeters>
            <DistanceMeters>6353.5438697176</DistanceMeters>
          </Trackpoint>
          <Trackpoint>
            <Time>2022-02-12T11:20:43.000Z</Time>
            <Position>
              <LatitudeDegrees>40.6820479966700077056884765625</LatitudeDegrees>
              <LongitudeDegrees>24.7403615154325962066650390625</LongitudeDegrees>
            </Position>
            <AltitudeMeters>621.79998779296875</AltitudeMeters>
            <DistanceMeters>6358.9495451955</DistanceMeters>
          </Trackpoint>
          <Trackpoint>
            <Time>2022-02-12T11:20:44.000Z</Time>
            <Position>
              <LatitudeDegrees>40.68205981515347957611083984375</LatitudeDegrees>
              <LongitudeDegrees>24.7403608448803424835205078125</LongitudeDegrees>
            </Position>
            <AltitudeMeters>622</AltitudeMeters>
            <DistanceMeters>6360.2662739744</DistanceMeters>
          </Trackpoint>
          <Trackpoint>
            <Time>2022-02-12T11:20:46.000Z</Time>
            <Position>
              <LatitudeDegrees>40.6820845417678356170654296875</LatitudeDegrees>
              <LongitudeDegrees>24.74036662839353084564208984375</LongitudeDegrees>
            </Position>
            <AltitudeMeters>622.4000244140625</AltitudeMeters>
            <DistanceMeters>6363.0610934899</DistanceMeters>
          </Trackpoint>
          <Trackpoint>
            <Time>2022-02-12T11:20:49.000Z</Time>
            <Position>
              <LatitudeDegrees>40.68210893310606479644775390625</LatitudeDegrees>
              <LongitudeDegrees>24.7403833083808422088623046875</LongitudeDegrees>
            </Position>
            <AltitudeMeters>622.79998779296875</AltitudeMeters>
            <DistanceMeters>6366.1197139626</DistanceMeters>
          </Trackpoint>
          <Trackpoint>
            <Time>2022-02-12T11:20:50.000Z</Time>
            <Position>
              <LatitudeDegrees>40.68211597390472888946533203125</LatitudeDegrees>
              <LongitudeDegrees>24.74038724787533283233642578125</LongitudeDegrees>
            </Position>
            <AltitudeMeters>623</AltitudeMeters>
            <DistanceMeters>6366.9696587346</DistanceMeters>
          </Trackpoint>
          <Trackpoint>
            <Time>2022-02-12T11:20:55.000Z</Time>
            <Position>
              <LatitudeDegrees>40.68216844461858272552490234375</LatitudeDegrees>
              <LongitudeDegrees>24.74038473330438137054443359375</LongitudeDegrees>
            </Position>
            <AltitudeMeters>624</AltitudeMeters>
            <DistanceMeters>6372.8143810709</DistanceMeters>
          </Trackpoint>
          <Trackpoint>
            <Time>2022-02-12T11:20:56.000Z</Time>
            <Position>
              <LatitudeDegrees>40.6821780838072299957275390625</LatitudeDegrees>
              <LongitudeDegrees>24.740382134914398193359375</LongitudeDegrees>
            </Position>
            <AltitudeMeters>624.20001220703125</AltitudeMeters>
            <DistanceMeters>6373.9102826025</DistanceMeters>
          </Trackpoint>
          <Trackpoint>
            <Time>2022-02-12T11:20:57.000Z</Time>
            <Position>
              <LatitudeDegrees>40.68218571133911609649658203125</LatitudeDegrees>
              <LongitudeDegrees>24.74037517793476581573486328125</LongitudeDegrees>
            </Position>
            <AltitudeMeters>624.4000244140625</AltitudeMeters>
            <DistanceMeters>6374.9425369415</DistanceMeters>
          </Trackpoint>
          <Trackpoint>
            <Time>2022-02-12T11:20:59.000Z</Time>
            <Position>
              <LatitudeDegrees>40.68219794891774654388427734375</LatitudeDegrees>
              <LongitudeDegrees>24.74035992287099361419677734375</LongitudeDegrees>
            </Position>
            <AltitudeMeters>624.5999755859375</AltitudeMeters>
            <DistanceMeters>6376.8167567089</DistanceMeters>
          </Trackpoint>
          <Trackpoint>
            <Time>2022-02-12T11:21:01.000Z</Time>
            <Position>
              <LatitudeDegrees>40.68221353925764560699462890625</LatitudeDegrees>
              <LongitudeDegrees>24.74034885875880718231201171875</LongitudeDegrees>
            </Position>
            <AltitudeMeters>625.20001220703125</AltitudeMeters>
            <DistanceMeters>6378.7872725985</DistanceMeters>
          </Trackpoint>
          <Trackpoint>
            <Time>2022-02-12T11:21:02.000Z</Time>
            <Position>
              <LatitudeDegrees>40.6822216697037220001220703125</LatitudeDegrees>
              <LongitudeDegrees>24.74034382961690425872802734375</LongitudeDegrees>
            </Position>
            <AltitudeMeters>625.4000244140625</AltitudeMeters>
            <DistanceMeters>6379.7839211869</DistanceMeters>
          </Trackpoint>
          <Trackpoint>
            <Time>2022-02-12T11:21:03.000Z</Time>
            <Position>
              <LatitudeDegrees>40.6822295486927032470703125</LatitudeDegrees>
              <LongitudeDegrees>24.7403393872082233428955078125</LongitudeDegrees>
            </Position>
            <AltitudeMeters>625.5999755859375</AltitudeMeters>
            <DistanceMeters>6380.738927847</DistanceMeters>
          </Trackpoint>
          <Trackpoint>
            <Time>2022-02-12T11:21:05.000Z</Time>
            <Position>
              <LatitudeDegrees>40.68224187009036540985107421875</LatitudeDegrees>
              <LongitudeDegrees>24.7403273172676563262939453125</LongitudeDegrees>
            </Position>
            <AltitudeMeters>625.79998779296875</AltitudeMeters>
            <DistanceMeters>6382.4467670348</DistanceMeters>
          </Trackpoint>
          <Trackpoint>
            <Time>2022-02-12T11:21:07.000Z</Time>
            <Position>
              <LatitudeDegrees>40.68225092254579067230224609375</LatitudeDegrees>
              <LongitudeDegrees>24.740318097174167633056640625</LongitudeDegrees>
            </Position>
            <AltitudeMeters>626.20001220703125</AltitudeMeters>
            <DistanceMeters>6383.718137824</DistanceMeters>
          </Trackpoint>
          <Trackpoint>
            <Time>2022-02-12T11:21:08.000Z</Time>
            <Position>
              <LatitudeDegrees>40.68225578404963016510009765625</LatitudeDegrees>
              <LongitudeDegrees>24.74031399004161357879638671875</LongitudeDegrees>
            </Position>
            <AltitudeMeters>626.4000244140625</AltitudeMeters>
            <DistanceMeters>6384.362640358</DistanceMeters>
          </Trackpoint>
          <Trackpoint>
            <Time>2022-02-12T11:21:11.000Z</Time>
            <Position>
              <LatitudeDegrees>40.68227405659854412078857421875</LatitudeDegrees>
              <LongitudeDegrees>24.7402921132743358612060546875</LongitudeDegrees>
            </Position>
            <AltitudeMeters>626.79998779296875</AltitudeMeters>
            <DistanceMeters>6387.1102109044</DistanceMeters>
          </Trackpoint>
          <Trackpoint>
            <Time>2022-02-12T11:21:12.000Z</Time>
            <Position>
              <LatitudeDegrees>40.6822833605110645294189453125</LatitudeDegrees>
              <LongitudeDegrees>24.74028632976114749908447265625</LongitudeDegrees>
            </Position>
            <AltitudeMeters>627</AltitudeMeters>
            <DistanceMeters>6388.254484073</DistanceMeters>
          </Trackpoint>
          <Trackpoint>
            <Time>2022-02-12T11:21:13.000Z</Time>
            <Position>
              <LatitudeDegrees>40.68229668773710727691650390625</LatitudeDegrees>
              <LongitudeDegrees>24.74028113298118114471435546875</LongitudeDegrees>
            </Position>
            <AltitudeMeters>627.20001220703125</AltitudeMeters>
            <DistanceMeters>6389.801406908</DistanceMeters>
          </Trackpoint>
          <Trackpoint>
            <Time>2022-02-12T11:21:14.000Z</Time>
            <Position>
              <LatitudeDegrees>40.68230356089770793914794921875</LatitudeDegrees>
              <LongitudeDegrees>24.74027878604829311370849609375</LongitudeDegrees>
            </Position>
            <AltitudeMeters>627.4000244140625</AltitudeMeters>
            <DistanceMeters>6390.5964574417</DistanceMeters>
          </Trackpoint>
          <Trackpoint>
            <Time>2022-02-12T11:21:18.000Z</Time>
            <Position>
              <LatitudeDegrees>40.68234245292842388153076171875</LatitudeDegrees>
              <LongitudeDegrees>24.7402854077517986297607421875</LongitudeDegrees>
            </Position>
            <AltitudeMeters>628</AltitudeMeters>
            <DistanceMeters>6394.9614845088</DistanceMeters>
          </Trackpoint>
          <Trackpoint>
            <Time>2022-02-12T11:21:19.000Z</Time>
            <Position>
              <LatitudeDegrees>40.68235091865062713623046875</LatitudeDegrees>
              <LongitudeDegrees>24.74030124954879283905029296875</LongitudeDegrees>
            </Position>
            <AltitudeMeters>628.20001220703125</AltitudeMeters>
            <DistanceMeters>6396.601899938</DistanceMeters>
          </Trackpoint>
          <Trackpoint>
            <Time>2022-02-12T11:21:20.000Z</Time>
            <Position>
              <LatitudeDegrees>40.68235628306865692138671875</LatitudeDegrees>
              <LongitudeDegrees>24.74031365476548671722412109375</LongitudeDegrees>
            </Position>
            <AltitudeMeters>628.4000244140625</AltitudeMeters>
            <DistanceMeters>6397.8113925523</DistanceMeters>
          </Trackpoint>
          <Trackpoint>
            <Time>2022-02-12T11:21:24.000Z</Time>
            <Position>
              <LatitudeDegrees>40.68235636688768863677978515625</LatitudeDegrees>
              <LongitudeDegrees>24.74035799503326416015625</LongitudeDegrees>
            </Position>
            <AltitudeMeters>629</AltitudeMeters>
            <DistanceMeters>6401.5550109411</DistanceMeters>
          </Trackpoint>
          <Trackpoint>
            <Time>2022-02-12T11:21:26.000Z</Time>
            <Position>
              <LatitudeDegrees>40.68235938437283039093017578125</LatitudeDegrees>
              <LongitudeDegrees>24.74038557149469852447509765625</LongitudeDegrees>
            </Position>
            <AltitudeMeters>629.4000244140625</AltitudeMeters>
            <DistanceMeters>6403.9058420247</DistanceMeters>
          </Trackpoint>
          <Trackpoint>
            <Time>2022-02-12T11:21:27.000Z</Time>
            <Position>
              <LatitudeDegrees>40.68235837854444980621337890625</LatitudeDegrees>
              <LongitudeDegrees>24.74039931781589984893798828125</LongitudeDegrees>
            </Position>
            <AltitudeMeters>629.4000244140625</AltitudeMeters>
            <DistanceMeters>6405.0696768354</DistanceMeters>
          </Trackpoint>
          <Trackpoint>
            <Time>2022-02-12T11:21:31.000Z</Time>
            <Position>
              <LatitudeDegrees>40.68234329111874103546142578125</LatitudeDegrees>
              <LongitudeDegrees>24.7404503636062145233154296875</LongitudeDegrees>
            </Position>
            <AltitudeMeters>630.20001220703125</AltitudeMeters>
            <DistanceMeters>6409.6938763358</DistanceMeters>
          </Trackpoint>
          <Trackpoint>
            <Time>2022-02-12T11:21:33.000Z</Time>
            <Position>
              <LatitudeDegrees>40.68232786841690540313720703125</LatitudeDegrees>
              <LongitudeDegrees>24.74047928117215633392333984375</LongitudeDegrees>
            </Position>
            <AltitudeMeters>630.4000244140625</AltitudeMeters>
            <DistanceMeters>6412.679288443</DistanceMeters>
          </Trackpoint>
          <Trackpoint>
            <Time>2022-02-12T11:21:38.000Z</Time>
            <Position>
              <LatitudeDegrees>40.6822984479367733001708984375</LatitudeDegrees>
              <LongitudeDegrees>24.740549437701702117919921875</LongitudeDegrees>
            </Position>
            <AltitudeMeters>631.5999755859375</AltitudeMeters>
            <DistanceMeters>6419.4455641964</DistanceMeters>
          </Trackpoint>
          <Trackpoint>
            <Time>2022-02-12T11:21:44.000Z</Time>
            <Position>
              <LatitudeDegrees>40.68229459226131439208984375</LatitudeDegrees>
              <LongitudeDegrees>24.74063199944794178009033203125</LongitudeDegrees>
            </Position>
            <AltitudeMeters>632.5999755859375</AltitudeMeters>
            <DistanceMeters>6426.427279791</DistanceMeters>
          </Trackpoint>
          <Trackpoint>
            <Time>2022-02-12T11:21:46.000Z</Time>
            <Position>
              <LatitudeDegrees>40.6822991184890270233154296875</LatitudeDegrees>
              <LongitudeDegrees>24.740659408271312713623046875</LongitudeDegrees>
            </Position>
            <AltitudeMeters>633.20001220703125</AltitudeMeters>
            <DistanceMeters>6428.7953333106</DistanceMeters>
          </Trackpoint>
          <Trackpoint>
            <Time>2022-02-12T11:21:48.000Z</Time>
            <Position>
              <LatitudeDegrees>40.68230724893510341644287109375</LatitudeDegrees>
              <LongitudeDegrees>24.7406827099621295928955078125</LongitudeDegrees>
            </Position>
            <AltitudeMeters>633.79998779296875</AltitudeMeters>
            <DistanceMeters>6430.9601911985</DistanceMeters>
          </Trackpoint>
          <Trackpoint>
            <Time>2022-02-12T11:21:50.000Z</Time>
            <Position>
              <LatitudeDegrees>40.68231403827667236328125</LatitudeDegrees>
              <LongitudeDegrees>24.7407068498432636260986328125</LongitudeDegrees>
            </Position>
            <AltitudeMeters>634.4000244140625</AltitudeMeters>
            <DistanceMeters>6433.1312968854</DistanceMeters>
          </Trackpoint>
          <Trackpoint>
            <Time>2022-02-12T11:21:54.000Z</Time>
            <Position>
              <LatitudeDegrees>40.68233272992074489593505859375</LatitudeDegrees>
              <LongitudeDegrees>24.7407534532248973846435546875</LongitudeDegrees>
            </Position>
            <AltitudeMeters>635</AltitudeMeters>
            <DistanceMeters>6437.5823627934</DistanceMeters>
          </Trackpoint>
          <Trackpoint>
            <Time>2022-02-12T11:21:55.000Z</Time>
            <Position>
              <LatitudeDegrees>40.6823467276990413665771484375</LatitudeDegrees>
              <LongitudeDegrees>24.7407561354339122772216796875</LongitudeDegrees>
            </Position>
            <AltitudeMeters>635.20001220703125</AltitudeMeters>
            <DistanceMeters>6439.1582025766</DistanceMeters>
          </Trackpoint>
          <Trackpoint>
            <Time>2022-02-12T11:21:56.000Z</Time>
            <Position>
              <LatitudeDegrees>40.68235494196414947509765625</LatitudeDegrees>
              <LongitudeDegrees>24.74075923673808574676513671875</LongitudeDegrees>
            </Position>
            <AltitudeMeters>635.20001220703125</AltitudeMeters>
            <DistanceMeters>6440.1084697203</DistanceMeters>
          </Trackpoint>
          <Trackpoint>
            <Time>2022-02-12T11:22:02.000Z</Time>
            <Position>
              <LatitudeDegrees>40.68241797387599945068359375</LatitudeDegrees>
              <LongitudeDegrees>24.7407222725450992584228515625</LongitudeDegrees>
            </Position>
            <AltitudeMeters>636</AltitudeMeters>
            <DistanceMeters>6447.7868399316</DistanceMeters>
          </Trackpoint>
          <Trackpoint>
            <Time>2022-02-12T11:22:03.000Z</Time>
            <Position>
              <LatitudeDegrees>40.68242694251239299774169921875</LatitudeDegrees>
              <LongitudeDegrees>24.740711040794849395751953125</LongitudeDegrees>
            </Position>
            <AltitudeMeters>636</AltitudeMeters>
            <DistanceMeters>6449.1639078505</DistanceMeters>
          </Trackpoint>
          <Trackpoint>
            <Time>2022-02-12T11:22:04.000Z</Time>
            <Position>
              <LatitudeDegrees>40.682437419891357421875</LatitudeDegrees>
              <LongitudeDegrees>24.740700982511043548583984375</LongitudeDegrees>
            </Position>
            <AltitudeMeters>636</AltitudeMeters>
            <DistanceMeters>6450.6050593284</DistanceMeters>
          </Trackpoint>
          <Trackpoint>
            <Time>2022-02-12T11:22:09.000Z</Time>
            <Position>
              <LatitudeDegrees>40.68249651230871677398681640625</LatitudeDegrees>
              <LongitudeDegrees>24.7406548820436000823974609375</LongitudeDegrees>
            </Position>
            <AltitudeMeters>636.20001220703125</AltitudeMeters>
            <DistanceMeters>6458.2468853119</DistanceMeters>
          </Trackpoint>
          <Trackpoint>
            <Time>2022-02-12T11:22:12.000Z</Time>
            <Position>
              <LatitudeDegrees>40.6825254298746585845947265625</LatitudeDegrees>
              <LongitudeDegrees>24.74062831141054630279541015625</LongitudeDegrees>
            </Position>
            <AltitudeMeters>636.79998779296875</AltitudeMeters>
            <DistanceMeters>6462.1695438824</DistanceMeters>
          </Trackpoint>
          <Trackpoint>
            <Time>2022-02-12T11:22:13.000Z</Time>
            <Position>
              <LatitudeDegrees>40.6825371645390987396240234375</LatitudeDegrees>
              <LongitudeDegrees>24.740623198449611663818359375</LongitudeDegrees>
            </Position>
            <AltitudeMeters>637</AltitudeMeters>
            <DistanceMeters>6463.5466118013</DistanceMeters>
          </Trackpoint>
          <Trackpoint>
            <Time>2022-02-12T11:22:16.000Z</Time>
            <Position>
              <LatitudeDegrees>40.682570524513721466064453125</LatitudeDegrees>
              <LongitudeDegrees>24.74060417152941226959228515625</LongitudeDegrees>
            </Position>
            <AltitudeMeters>637.5999755859375</AltitudeMeters>
            <DistanceMeters>6467.5916703319</DistanceMeters>
          </Trackpoint>
          <Trackpoint>
            <Time>2022-02-12T11:22:18.000Z</Time>
            <Position>
              <LatitudeDegrees>40.68259491585195064544677734375</LatitudeDegrees>
              <LongitudeDegrees>24.74059411324560642242431640625</LongitudeDegrees>
            </Position>
            <AltitudeMeters>638</AltitudeMeters>
            <DistanceMeters>6470.436129594</DistanceMeters>
          </Trackpoint>
          <Trackpoint>
            <Time>2022-02-12T11:22:19.000Z</Time>
            <Position>
              <LatitudeDegrees>40.68260698579251766204833984375</LatitudeDegrees>
              <LongitudeDegrees>24.74059092812240123748779296875</LongitudeDegrees>
            </Position>
            <AltitudeMeters>638.20001220703125</AltitudeMeters>
            <DistanceMeters>6471.8066243588</DistanceMeters>
          </Trackpoint>
          <Trackpoint>
            <Time>2022-02-12T11:22:20.000Z</Time>
            <Position>
              <LatitudeDegrees>40.682618804275989532470703125</LatitudeDegrees>
              <LongitudeDegrees>24.740591682493686676025390625</LongitudeDegrees>
            </Position>
            <AltitudeMeters>638.4000244140625</AltitudeMeters>
            <DistanceMeters>6473.1233531378</DistanceMeters>
          </Trackpoint>
          <Trackpoint>
            <Time>2022-02-12T11:22:21.000Z</Time>
            <Position>
              <LatitudeDegrees>40.6826270185410976409912109375</LatitudeDegrees>
              <LongitudeDegrees>24.74059361033141613006591796875</LongitudeDegrees>
            </Position>
            <AltitudeMeters>638.4000244140625</AltitudeMeters>
            <DistanceMeters>6474.04955898</DistanceMeters>
          </Trackpoint>
          <Trackpoint>
            <Time>2022-02-12T11:22:22.000Z</Time>
            <Position>
              <LatitudeDegrees>40.68263581953942775726318359375</LatitudeDegrees>
              <LongitudeDegrees>24.74059193395078182220458984375</LongitudeDegrees>
            </Position>
            <AltitudeMeters>638.4000244140625</AltitudeMeters>
            <DistanceMeters>6475.0371055642</DistanceMeters>
          </Trackpoint>
          <Trackpoint>
            <Time>2022-02-12T11:22:24.000Z</Time>
            <Position>
              <LatitudeDegrees>40.68265425972640514373779296875</LatitudeDegrees>
              <LongitudeDegrees>24.740589000284671783447265625</LongitudeDegrees>
            </Position>
            <AltitudeMeters>638.5999755859375</AltitudeMeters>
            <DistanceMeters>6477.1038000646</DistanceMeters>
          </Trackpoint>
          <Trackpoint>
            <Time>2022-02-12T11:22:26.000Z</Time>
            <Position>
              <LatitudeDegrees>40.6826672516763210296630859375</LatitudeDegrees>
              <LongitudeDegrees>24.7405884973704814910888671875</LongitudeDegrees>
            </Position>
            <AltitudeMeters>639.20001220703125</AltitudeMeters>
            <DistanceMeters>6478.5512038559</DistanceMeters>
          </Trackpoint>
          <Trackpoint>
            <Time>2022-02-12T11:22:27.000Z</Time>
            <Position>
              <LatitudeDegrees>40.68267571739852428436279296875</LatitudeDegrees>
              <LongitudeDegrees>24.7405888326466083526611328125</LongitudeDegrees>
            </Position>
            <AltitudeMeters>639.4000244140625</AltitudeMeters>
            <DistanceMeters>6479.5014709996</DistanceMeters>
          </Trackpoint>
          <Trackpoint>
            <Time>2022-02-12T11:22:30.000Z</Time>
            <Position>
              <LatitudeDegrees>40.6827024556696414947509765625</LatitudeDegrees>
              <LongitudeDegrees>24.74060417152941226959228515625</LongitudeDegrees>
            </Position>
            <AltitudeMeters>640</AltitudeMeters>
            <DistanceMeters>6482.7491054135</DistanceMeters>
          </Trackpoint>
          <Trackpoint>
            <Time>2022-02-12T11:22:32.000Z</Time>
            <Position>
              <LatitudeDegrees>40.6827235780656337738037109375</LatitudeDegrees>
              <LongitudeDegrees>24.74060945212841033935546875</LongitudeDegrees>
            </Position>
            <AltitudeMeters>640.4000244140625</AltitudeMeters>
            <DistanceMeters>6485.1437031964</DistanceMeters>
          </Trackpoint>
          <Trackpoint>
            <Time>2022-02-12T11:22:36.000Z</Time>
            <Position>
              <LatitudeDegrees>40.68276129662990570068359375</LatitudeDegrees>
              <LongitudeDegrees>24.74059914238750934600830078125</LongitudeDegrees>
            </Position>
            <AltitudeMeters>641.5999755859375</AltitudeMeters>
            <DistanceMeters>6489.4315039893</DistanceMeters>
          </Trackpoint>
          <Trackpoint>
            <Time>2022-02-12T11:22:37.000Z</Time>
            <Position>
              <LatitudeDegrees>40.6827681697905063629150390625</LatitudeDegrees>
              <LongitudeDegrees>24.7405908443033695220947265625</LongitudeDegrees>
            </Position>
            <AltitudeMeters>641.79998779296875</AltitudeMeters>
            <DistanceMeters>6490.4637583283</DistanceMeters>
          </Trackpoint>
          <Trackpoint>
            <Time>2022-02-12T11:22:39.000Z</Time>
            <Position>
              <LatitudeDegrees>40.68278552033007144927978515625</LatitudeDegrees>
              <LongitudeDegrees>24.7405765950679779052734375</LongitudeDegrees>
            </Position>
            <AltitudeMeters>642</AltitudeMeters>
            <DistanceMeters>6492.7384525501</DistanceMeters>
          </Trackpoint>
          <Trackpoint>
            <Time>2022-02-12T11:22:40.000Z</Time>
            <Position>
              <LatitudeDegrees>40.68279641680419445037841796875</LatitudeDegrees>
              <LongitudeDegrees>24.7405680455267429351806640625</LongitudeDegrees>
            </Position>
            <AltitudeMeters>642.20001220703125</AltitudeMeters>
            <DistanceMeters>6494.1479265008</DistanceMeters>
          </Trackpoint>
          <Trackpoint>
            <Time>2022-02-12T11:22:42.000Z</Time>
            <Position>
              <LatitudeDegrees>40.68281284533441066741943359375</LatitudeDegrees>
              <LongitudeDegrees>24.74054968915879726409912109375</LongitudeDegrees>
            </Position>
            <AltitudeMeters>642.79998779296875</AltitudeMeters>
            <DistanceMeters>6496.544409052</DistanceMeters>
          </Trackpoint>
          <Trackpoint>
            <Time>2022-02-12T11:22:48.000Z</Time>
            <Position>
              <LatitudeDegrees>40.68285458721220493316650390625</LatitudeDegrees>
              <LongitudeDegrees>24.7405180893838405609130859375</LongitudeDegrees>
            </Position>
            <AltitudeMeters>643.5999755859375</AltitudeMeters>
            <DistanceMeters>6501.9014215533</DistanceMeters>
          </Trackpoint>
          <Trackpoint>
            <Time>2022-02-12T11:22:50.000Z</Time>
            <Position>
              <LatitudeDegrees>40.6828652322292327880859375</LatitudeDegrees>
              <LongitudeDegrees>24.74050643853843212127685546875</LongitudeDegrees>
            </Position>
            <AltitudeMeters>643.79998779296875</AltitudeMeters>
            <DistanceMeters>6503.4395632985</DistanceMeters>
          </Trackpoint>
          <Trackpoint>
            <Time>2022-02-12T11:22:54.000Z</Time>
            <Position>
              <LatitudeDegrees>40.682890377938747406005859375</LatitudeDegrees>
              <LongitudeDegrees>24.74051155149936676025390625</LongitudeDegrees>
            </Position>
            <AltitudeMeters>645</AltitudeMeters>
            <DistanceMeters>6506.2712956097</DistanceMeters>
          </Trackpoint>
          <Trackpoint>
            <Time>2022-02-12T11:22:59.000Z</Time>
            <Position>
              <LatitudeDegrees>40.68294276483356952667236328125</LatitudeDegrees>
              <LongitudeDegrees>24.740495122969150543212890625</LongitudeDegrees>
            </Position>
            <AltitudeMeters>646.20001220703125</AltitudeMeters>
            <DistanceMeters>6512.2647623939</DistanceMeters>
          </Trackpoint>
          <Trackpoint>
            <Time>2022-02-12T11:23:04.000Z</Time>
            <Position>
              <LatitudeDegrees>40.68298123776912689208984375</LatitudeDegrees>
              <LongitudeDegrees>24.740480370819568634033203125</LongitudeDegrees>
            </Position>
            <AltitudeMeters>647.20001220703125</AltitudeMeters>
            <DistanceMeters>6516.7239358969</DistanceMeters>
          </Trackpoint>
          <Trackpoint>
            <Time>2022-02-12T11:23:10.000Z</Time>
            <Position>
              <LatitudeDegrees>40.683011077344417572021484375</LatitudeDegrees>
              <LongitudeDegrees>24.74043720401823520660400390625</LongitudeDegrees>
            </Position>
            <AltitudeMeters>648</AltitudeMeters>
            <DistanceMeters>6521.6543482313</DistanceMeters>
          </Trackpoint>
          <Trackpoint>
            <Time>2022-02-12T11:23:11.000Z</Time>
            <Position>
              <LatitudeDegrees>40.68301736377179622650146484375</LatitudeDegrees>
              <LongitudeDegrees>24.7404295764863491058349609375</LongitudeDegrees>
            </Position>
            <AltitudeMeters>648.20001220703125</AltitudeMeters>
            <DistanceMeters>6522.604615375</DistanceMeters>
          </Trackpoint>
          <Trackpoint>
            <Time>2022-02-12T11:23:16.000Z</Time>
            <Position>
              <LatitudeDegrees>40.68303395994007587432861328125</LatitudeDegrees>
              <LongitudeDegrees>24.74038808606564998626708984375</LongitudeDegrees>
            </Position>
            <AltitudeMeters>649.4000244140625</AltitudeMeters>
            <DistanceMeters>6526.5639351027</DistanceMeters>
          </Trackpoint>
          <Trackpoint>
            <Time>2022-02-12T11:23:20.000Z</Time>
            <Position>
              <LatitudeDegrees>40.683047957718372344970703125</LatitudeDegrees>
              <LongitudeDegrees>24.74037752486765384674072265625</LongitudeDegrees>
            </Position>
            <AltitudeMeters>650.20001220703125</AltitudeMeters>
            <DistanceMeters>6528.3619249155</DistanceMeters>
          </Trackpoint>
          <Trackpoint>
            <Time>2022-02-12T11:23:21.000Z</Time>
            <Position>
              <LatitudeDegrees>40.683054663240909576416015625</LatitudeDegrees>
              <LongitudeDegrees>24.74037953652441501617431640625</LongitudeDegrees>
            </Position>
            <AltitudeMeters>650.4000244140625</AltitudeMeters>
            <DistanceMeters>6529.1221386305</DistanceMeters>
          </Trackpoint>
          <Trackpoint>
            <Time>2022-02-12T11:23:23.000Z</Time>
            <Position>
              <LatitudeDegrees>40.6830679066479206085205078125</LatitudeDegrees>
              <LongitudeDegrees>24.74038322456181049346923828125</LongitudeDegrees>
            </Position>
            <AltitudeMeters>651</AltitudeMeters>
            <DistanceMeters>6530.6306409553</DistanceMeters>
          </Trackpoint>
          <Trackpoint>
            <Time>2022-02-12T11:23:26.000Z</Time>
            <Position>
              <LatitudeDegrees>40.683090202510356903076171875</LatitudeDegrees>
              <LongitudeDegrees>24.74037132225930690765380859375</LongitudeDegrees>
            </Position>
            <AltitudeMeters>651.4000244140625</AltitudeMeters>
            <DistanceMeters>6533.3066175284</DistanceMeters>
          </Trackpoint>
          <Trackpoint>
            <Time>2022-02-12T11:23:27.000Z</Time>
            <Position>
              <LatitudeDegrees>40.68309548310935497283935546875</LatitudeDegrees>
              <LongitudeDegrees>24.740370400249958038330078125</LongitudeDegrees>
            </Position>
            <AltitudeMeters>651.79998779296875</AltitudeMeters>
            <DistanceMeters>6533.8924015372</DistanceMeters>
          </Trackpoint>
          <Trackpoint>
            <Time>2022-02-12T11:23:29.000Z</Time>
            <Position>
              <LatitudeDegrees>40.68310202099382877349853515625</LatitudeDegrees>
              <LongitudeDegrees>24.7403464280068874359130859375</LongitudeDegrees>
            </Position>
            <AltitudeMeters>652.20001220703125</AltitudeMeters>
            <DistanceMeters>6536.0426106292</DistanceMeters>
          </Trackpoint>
          <Trackpoint>
            <Time>2022-02-12T11:23:32.000Z</Time>
            <Position>
              <LatitudeDegrees>40.68311325274407863616943359375</LatitudeDegrees>
              <LongitudeDegrees>24.74030694924294948577880859375</LongitudeDegrees>
            </Position>
            <AltitudeMeters>652.4000244140625</AltitudeMeters>
            <DistanceMeters>6539.6019922118</DistanceMeters>
          </Trackpoint>
          <Trackpoint>
            <Time>2022-02-12T11:23:33.000Z</Time>
            <Position>
              <LatitudeDegrees>40.68311627022922039031982421875</LatitudeDegrees>
              <LongitudeDegrees>24.7402924485504627227783203125</LongitudeDegrees>
            </Position>
            <AltitudeMeters>652.79998779296875</AltitudeMeters>
            <DistanceMeters>6540.8769093699</DistanceMeters>
          </Trackpoint>
          <Trackpoint>
            <Time>2022-02-12T11:23:37.000Z</Time>
            <Position>
              <LatitudeDegrees>40.68314577452838420867919921875</LatitudeDegrees>
              <LongitudeDegrees>24.74024542607367038726806640625</LongitudeDegrees>
            </Position>
            <AltitudeMeters>653.4000244140625</AltitudeMeters>
            <DistanceMeters>6546.0276728659</DistanceMeters>
          </Trackpoint>
          <Trackpoint>
            <Time>2022-02-12T11:23:38.000Z</Time>
            <Position>
              <LatitudeDegrees>40.6831493787467479705810546875</LatitudeDegrees>
              <LongitudeDegrees>24.74023737944662570953369140625</LongitudeDegrees>
            </Position>
            <AltitudeMeters>653.5999755859375</AltitudeMeters>
            <DistanceMeters>6546.8170240391</DistanceMeters>
          </Trackpoint>
          <Trackpoint>
            <Time>2022-02-12T11:23:39.000Z</Time>
            <Position>
              <LatitudeDegrees>40.68315315060317516326904296875</LatitudeDegrees>
              <LongitudeDegrees>24.74022799171507358551025390625</LongitudeDegrees>
            </Position>
            <AltitudeMeters>653.79998779296875</AltitudeMeters>
            <DistanceMeters>6547.718526607</DistanceMeters>
          </Trackpoint>
          <Trackpoint>
            <Time>2022-02-12T11:23:42.000Z</Time>
            <Position>
              <LatitudeDegrees>40.68316924385726451873779296875</LatitudeDegrees>
              <LongitudeDegrees>24.7402156703174114227294921875</LongitudeDegrees>
            </Position>
            <AltitudeMeters>654.79998779296875</AltitudeMeters>
            <DistanceMeters>6549.7917647476</DistanceMeters>
          </Trackpoint>
          <Trackpoint>
            <Time>2022-02-12T11:23:43.000Z</Time>
            <Position>
              <LatitudeDegrees>40.68317242898046970367431640625</LatitudeDegrees>
              <LongitudeDegrees>24.740212820470333099365234375</LongitudeDegrees>
            </Position>
            <AltitudeMeters>655</AltitudeMeters>
            <DistanceMeters>6550.2167371336</DistanceMeters>
          </Trackpoint>
          <Trackpoint>
            <Time>2022-02-12T11:23:44.000Z</Time>
            <Position>
              <LatitudeDegrees>40.6831725127995014190673828125</LatitudeDegrees>
              <LongitudeDegrees>24.74020552821457386016845703125</LongitudeDegrees>
            </Position>
            <AltitudeMeters>655.20001220703125</AltitudeMeters>
            <DistanceMeters>6550.8325806288</DistanceMeters>
          </Trackpoint>
          <Trackpoint>
            <Time>2022-02-12T11:23:45.000Z</Time>
            <Position>
              <LatitudeDegrees>40.683175362646579742431640625</LatitudeDegrees>
              <LongitudeDegrees>24.7401962243020534515380859375</LongitudeDegrees>
            </Position>
            <AltitudeMeters>655.4000244140625</AltitudeMeters>
            <DistanceMeters>6551.6825254009</DistanceMeters>
          </Trackpoint>
          <Trackpoint>
            <Time>2022-02-12T11:23:48.000Z</Time>
            <Position>
              <LatitudeDegrees>40.6831762008368968963623046875</LatitudeDegrees>
              <LongitudeDegrees>24.74017803557217121124267578125</LongitudeDegrees>
            </Position>
            <AltitudeMeters>656</AltitudeMeters>
            <DistanceMeters>6553.2206671461</DistanceMeters>
          </Trackpoint>
          <Trackpoint>
            <Time>2022-02-12T11:26:22.000Z</Time>
            <Position>
              <LatitudeDegrees>40.68319740705192089080810546875</LatitudeDegrees>
              <LongitudeDegrees>24.74016998894512653350830078125</LongitudeDegrees>
            </Position>
            <AltitudeMeters>657.5999755859375</AltitudeMeters>
            <DistanceMeters>6555.6766987144</DistanceMeters>
          </Trackpoint>
          <Trackpoint>
            <Time>2022-02-12T11:26:23.000Z</Time>
            <Position>
              <LatitudeDegrees>40.68320461548864841461181640625</LatitudeDegrees>
              <LongitudeDegrees>24.74017987959086894989013671875</LongitudeDegrees>
            </Position>
            <AltitudeMeters>657.5999755859375</AltitudeMeters>
            <DistanceMeters>6556.8327485895</DistanceMeters>
          </Trackpoint>
          <Trackpoint>
            <Time>2022-02-12T11:26:24.000Z</Time>
            <Position>
              <LatitudeDegrees>40.683210231363773345947265625</LatitudeDegrees>
              <LongitudeDegrees>24.7401868365705013275146484375</LongitudeDegrees>
            </Position>
            <AltitudeMeters>657.4000244140625</AltitudeMeters>
            <DistanceMeters>6557.6879890188</DistanceMeters>
          </Trackpoint>
          <Trackpoint>
            <Time>2022-02-12T11:26:26.000Z</Time>
            <Position>
              <LatitudeDegrees>40.6832278333604335784912109375</LatitudeDegrees>
              <LongitudeDegrees>24.74020041525363922119140625</LongitudeDegrees>
            </Position>
            <AltitudeMeters>657.20001220703125</AltitudeMeters>
            <DistanceMeters>6559.956720729</DistanceMeters>
          </Trackpoint>
          <Trackpoint>
            <Time>2022-02-12T11:26:29.000Z</Time>
            <Position>
              <LatitudeDegrees>40.6832509674131870269775390625</LatitudeDegrees>
              <LongitudeDegrees>24.74020821042358875274658203125</LongitudeDegrees>
            </Position>
            <AltitudeMeters>656.79998779296875</AltitudeMeters>
            <DistanceMeters>6562.614072753</DistanceMeters>
          </Trackpoint>
          <Trackpoint>
            <Time>2022-02-12T11:26:31.000Z</Time>
            <Position>
              <LatitudeDegrees>40.68327737040817737579345703125</LatitudeDegrees>
              <LongitudeDegrees>24.74019714631140232086181640625</LongitudeDegrees>
            </Position>
            <AltitudeMeters>657.20001220703125</AltitudeMeters>
            <DistanceMeters>6565.6991498301</DistanceMeters>
          </Trackpoint>
          <Trackpoint>
            <Time>2022-02-12T11:26:32.000Z</Time>
            <Position>
              <LatitudeDegrees>40.68329463712871074676513671875</LatitudeDegrees>
              <LongitudeDegrees>24.74019312299787998199462890625</LongitudeDegrees>
            </Position>
            <AltitudeMeters>657.4000244140625</AltitudeMeters>
            <DistanceMeters>6567.6512492793</DistanceMeters>
          </Trackpoint>
          <Trackpoint>
            <Time>2022-02-12T11:26:36.000Z</Time>
            <Position>
              <LatitudeDegrees>40.68335146643221378326416015625</LatitudeDegrees>
              <LongitudeDegrees>24.7402166761457920074462890625</LongitudeDegrees>
            </Position>
            <AltitudeMeters>658.5999755859375</AltitudeMeters>
            <DistanceMeters>6574.2813633152</DistanceMeters>
          </Trackpoint>
          <Trackpoint>
            <Time>2022-02-12T11:26:38.000Z</Time>
            <Position>
              <LatitudeDegrees>40.68339622579514980316162109375</LatitudeDegrees>
              <LongitudeDegrees>24.740232266485691070556640625</LongitudeDegrees>
            </Position>
            <AltitudeMeters>659.4000244140625</AltitudeMeters>
            <DistanceMeters>6579.4330033132</DistanceMeters>
          </Trackpoint>
          <Trackpoint>
            <Time>2022-02-12T11:26:40.000Z</Time>
            <Position>
              <LatitudeDegrees>40.68343746475875377655029296875</LatitudeDegrees>
              <LongitudeDegrees>24.74023251794278621673583984375</LongitudeDegrees>
            </Position>
            <AltitudeMeters>659.79998779296875</AltitudeMeters>
            <DistanceMeters>6584.0229018244</DistanceMeters>
          </Trackpoint>
          <Trackpoint>
            <Time>2022-02-12T11:26:44.000Z</Time>
            <Position>
              <LatitudeDegrees>40.68350569345057010650634765625</LatitudeDegrees>
              <LongitudeDegrees>24.7402009181678295135498046875</LongitudeDegrees>
            </Position>
            <AltitudeMeters>660.4000244140625</AltitudeMeters>
            <DistanceMeters>6592.071614045</DistanceMeters>
          </Trackpoint>
          <Trackpoint>
            <Time>2022-02-12T11:26:47.000Z</Time>
            <Position>
              <LatitudeDegrees>40.68354450166225433349609375</LatitudeDegrees>
              <LongitudeDegrees>24.7401626966893672943115234375</LongitudeDegrees>
            </Position>
            <AltitudeMeters>660.79998779296875</AltitudeMeters>
            <DistanceMeters>6597.4622342316</DistanceMeters>
          </Trackpoint>
          <Trackpoint>
            <Time>2022-02-12T11:26:51.000Z</Time>
            <Position>
              <LatitudeDegrees>40.683568976819515228271484375</LatitudeDegrees>
              <LongitudeDegrees>24.74009756930172443389892578125</LongitudeDegrees>
            </Position>
            <AltitudeMeters>661.5999755859375</AltitudeMeters>
            <DistanceMeters>6603.5971636215</DistanceMeters>
          </Trackpoint>
          <Trackpoint>
            <Time>2022-02-12T11:26:53.000Z</Time>
            <Position>
              <LatitudeDegrees>40.68357937037944793701171875</LatitudeDegrees>
              <LongitudeDegrees>24.74006228148937225341796875</LongitudeDegrees>
            </Position>
            <AltitudeMeters>662.20001220703125</AltitudeMeters>
            <DistanceMeters>6606.7915315373</DistanceMeters>
          </Trackpoint>
          <Trackpoint>
            <Time>2022-02-12T11:26:58.000Z</Time>
            <Position>
              <LatitudeDegrees>40.68360879085958003997802734375</LatitudeDegrees>
              <LongitudeDegrees>24.73997888155281543731689453125</LongitudeDegrees>
            </Position>
            <AltitudeMeters>663.20001220703125</AltitudeMeters>
            <DistanceMeters>6614.5552780725</DistanceMeters>
          </Trackpoint>
          <Trackpoint>
            <Time>2022-02-12T11:26:59.000Z</Time>
            <Position>
              <LatitudeDegrees>40.68361197598278522491455078125</LatitudeDegrees>
              <LongitudeDegrees>24.73996060900390148162841796875</LongitudeDegrees>
            </Position>
            <AltitudeMeters>663.20001220703125</AltitudeMeters>
            <DistanceMeters>6616.1396900301</DistanceMeters>
          </Trackpoint>
          <Trackpoint>
            <Time>2022-02-12T11:27:05.000Z</Time>
            <Position>
              <LatitudeDegrees>40.68360753357410430908203125</LatitudeDegrees>
              <LongitudeDegrees>24.73987494595348834991455078125</LongitudeDegrees>
            </Position>
            <AltitudeMeters>664.20001220703125</AltitudeMeters>
            <DistanceMeters>6623.3866842069</DistanceMeters>
          </Trackpoint>
          <Trackpoint>
            <Time>2022-02-12T11:27:06.000Z</Time>
            <Position>
              <LatitudeDegrees>40.6836080364882946014404296875</LatitudeDegrees>
              <LongitudeDegrees>24.7398626245558261871337890625</LongitudeDegrees>
            </Position>
            <AltitudeMeters>664.5999755859375</AltitudeMeters>
            <DistanceMeters>6624.4362885734</DistanceMeters>
          </Trackpoint>
          <Trackpoint>
            <Time>2022-02-12T11:27:11.000Z</Time>
            <Position>
              <LatitudeDegrees>40.68362572230398654937744140625</LatitudeDegrees>
              <LongitudeDegrees>24.7398066334426403045654296875</LongitudeDegrees>
            </Position>
            <AltitudeMeters>665.5999755859375</AltitudeMeters>
            <DistanceMeters>6629.5562799715</DistanceMeters>
          </Trackpoint>
          <Trackpoint>
            <Time>2022-02-12T11:27:12.000Z</Time>
            <Position>
              <LatitudeDegrees>40.68363376893103122711181640625</LatitudeDegrees>
              <LongitudeDegrees>24.73979481495916843414306640625</LongitudeDegrees>
            </Position>
            <AltitudeMeters>665.79998779296875</AltitudeMeters>
            <DistanceMeters>6630.8934243676</DistanceMeters>
          </Trackpoint>
          <Trackpoint>
            <Time>2022-02-12T11:27:14.000Z</Time>
            <Position>
              <LatitudeDegrees>40.68364332430064678192138671875</LatitudeDegrees>
              <LongitudeDegrees>24.7397799789905548095703125</LongitudeDegrees>
            </Position>
            <AltitudeMeters>666.20001220703125</AltitudeMeters>
            <DistanceMeters>6632.5338397967</DistanceMeters>
          </Trackpoint>
          <Trackpoint>
            <Time>2022-02-12T11:27:17.000Z</Time>
            <Position>
              <LatitudeDegrees>40.6836606748402118682861328125</LatitudeDegrees>
              <LongitudeDegrees>24.7397442720830440521240234375</LongitudeDegrees>
            </Position>
            <AltitudeMeters>666.5999755859375</AltitudeMeters>
            <DistanceMeters>6636.1134596752</DistanceMeters>
          </Trackpoint>
          <Trackpoint>
            <Time>2022-02-12T11:27:18.000Z</Time>
            <Position>
              <LatitudeDegrees>40.683671571314334869384765625</LatitudeDegrees>
              <LongitudeDegrees>24.73973773419857025146484375</LongitudeDegrees>
            </Position>
            <AltitudeMeters>666.79998779296875</AltitudeMeters>
            <DistanceMeters>6637.4506040712</DistanceMeters>
          </Trackpoint>
          <Trackpoint>
            <Time>2022-02-12T11:27:21.000Z</Time>
            <Position>
              <LatitudeDegrees>40.68371524102985858917236328125</LatitudeDegrees>
              <LongitudeDegrees>24.739723317325115203857421875</LongitudeDegrees>
            </Position>
            <AltitudeMeters>667.4000244140625</AltitudeMeters>
            <DistanceMeters>6642.4618556704</DistanceMeters>
          </Trackpoint>
          <Trackpoint>
            <Time>2022-02-12T11:27:24.000Z</Time>
            <Position>
              <LatitudeDegrees>40.6837565638124942779541015625</LatitudeDegrees>
              <LongitudeDegrees>24.7397114150226116180419921875</LongitudeDegrees>
            </Position>
            <AltitudeMeters>668</AltitudeMeters>
            <DistanceMeters>6647.1692761523</DistanceMeters>
          </Trackpoint>
          <Trackpoint>
            <Time>2022-02-12T11:27:25.000Z</Time>
            <Position>
              <LatitudeDegrees>40.68376553244888782501220703125</LatitudeDegrees>
              <LongitudeDegrees>24.7397075593471527099609375</LongitudeDegrees>
            </Position>
            <AltitudeMeters>668</AltitudeMeters>
            <DistanceMeters>6648.2274488599</DistanceMeters>
          </Trackpoint>
          <Trackpoint>
            <Time>2022-02-12T11:27:26.000Z</Time>
            <Position>
              <LatitudeDegrees>40.6837746687233448028564453125</LatitudeDegrees>
              <LongitudeDegrees>24.73970144055783748626708984375</LongitudeDegrees>
            </Position>
            <AltitudeMeters>668.20001220703125</AltitudeMeters>
            <DistanceMeters>6649.3677694324</DistanceMeters>
          </Trackpoint>
          <Trackpoint>
            <Time>2022-02-12T11:27:28.000Z</Time>
            <Position>
              <LatitudeDegrees>40.68380073644220829010009765625</LatitudeDegrees>
              <LongitudeDegrees>24.7396926395595073699951171875</LongitudeDegrees>
            </Position>
            <AltitudeMeters>668.79998779296875</AltitudeMeters>
            <DistanceMeters>6652.3637494031</DistanceMeters>
          </Trackpoint>
          <Trackpoint>
            <Time>2022-02-12T11:27:30.000Z</Time>
            <Position>
              <LatitudeDegrees>40.68382739089429378509521484375</LatitudeDegrees>
              <LongitudeDegrees>24.7396839223802089691162109375</LongitudeDegrees>
            </Position>
            <AltitudeMeters>669.20001220703125</AltitudeMeters>
            <DistanceMeters>6655.4208933512</DistanceMeters>
          </Trackpoint>
          <Trackpoint>
            <Time>2022-02-12T11:27:34.000Z</Time>
            <Position>
              <LatitudeDegrees>40.683878771960735321044921875</LatitudeDegrees>
              <LongitudeDegrees>24.73968601785600185394287109375</LongitudeDegrees>
            </Position>
            <AltitudeMeters>670.20001220703125</AltitudeMeters>
            <DistanceMeters>6661.1422591942</DistanceMeters>
          </Trackpoint>
          <Trackpoint>
            <Time>2022-02-12T11:27:40.000Z</Time>
            <Position>
              <LatitudeDegrees>40.6839486770331859588623046875</LatitudeDegrees>
              <LongitudeDegrees>24.73968434147536754608154296875</LongitudeDegrees>
            </Position>
            <AltitudeMeters>670.4000244140625</AltitudeMeters>
            <DistanceMeters>6668.9240130218</DistanceMeters>
          </Trackpoint>
          <Trackpoint>
            <Time>2022-02-12T11:27:41.000Z</Time>
            <Position>
              <LatitudeDegrees>40.68395915441215038299560546875</LatitudeDegrees>
              <LongitudeDegrees>24.73968735896050930023193359375</LongitudeDegrees>
            </Position>
            <AltitudeMeters>670.4000244140625</AltitudeMeters>
            <DistanceMeters>6670.1184802998</DistanceMeters>
          </Trackpoint>
          <Trackpoint>
            <Time>2022-02-12T11:27:45.000Z</Time>
            <Position>
              <LatitudeDegrees>40.68400676362216472625732421875</LatitudeDegrees>
              <LongitudeDegrees>24.7396778874099254608154296875</LongitudeDegrees>
            </Position>
            <AltitudeMeters>670.5999755859375</AltitudeMeters>
            <DistanceMeters>6675.4780206876</DistanceMeters>
          </Trackpoint>
          <Trackpoint>
            <Time>2022-02-12T11:27:46.000Z</Time>
            <Position>
              <LatitudeDegrees>40.6840251199901103973388671875</LatitudeDegrees>
              <LongitudeDegrees>24.7396835871040821075439453125</LongitudeDegrees>
            </Position>
            <AltitudeMeters>670.79998779296875</AltitudeMeters>
            <DistanceMeters>6677.5772294206</DistanceMeters>
          </Trackpoint>
          <Trackpoint>
            <Time>2022-02-12T11:27:50.000Z</Time>
            <Position>
              <LatitudeDegrees>40.6840878166258335113525390625</LatitudeDegrees>
              <LongitudeDegrees>24.73967679776251316070556640625</LongitudeDegrees>
            </Position>
            <AltitudeMeters>671.20001220703125</AltitudeMeters>
            <DistanceMeters>6684.5789638496</DistanceMeters>
          </Trackpoint>
          <Trackpoint>
            <Time>2022-02-12T11:27:52.000Z</Time>
            <Position>
              <LatitudeDegrees>40.68411086685955524444580078125</LatitudeDegrees>
              <LongitudeDegrees>24.73966271616518497467041015625</LongitudeDegrees>
            </Position>
            <AltitudeMeters>671.5999755859375</AltitudeMeters>
            <DistanceMeters>6687.4075054754</DistanceMeters>
          </Trackpoint>
          <Trackpoint>
            <Time>2022-02-12T11:27:55.000Z</Time>
            <Position>
              <LatitudeDegrees>40.68413970060646533966064453125</LatitudeDegrees>
              <LongitudeDegrees>24.7396410070359706878662109375</LongitudeDegrees>
            </Position>
            <AltitudeMeters>672.4000244140625</AltitudeMeters>
            <DistanceMeters>6691.1037881567</DistanceMeters>
          </Trackpoint>
          <Trackpoint>
            <Time>2022-02-12T11:28:00.000Z</Time>
            <Position>
              <LatitudeDegrees>40.6841907463967800140380859375</LatitudeDegrees>
              <LongitudeDegrees>24.739583842456340789794921875</LongitudeDegrees>
            </Position>
            <AltitudeMeters>673.20001220703125</AltitudeMeters>
            <DistanceMeters>6698.5577844244</DistanceMeters>
          </Trackpoint>
          <Trackpoint>
            <Time>2022-02-12T11:28:01.000Z</Time>
            <Position>
              <LatitudeDegrees>40.684199295938014984130859375</LatitudeDegrees>
              <LongitudeDegrees>24.7395694255828857421875</LongitudeDegrees>
            </Position>
            <AltitudeMeters>673.4000244140625</AltitudeMeters>
            <DistanceMeters>6700.1017857785</DistanceMeters>
          </Trackpoint>
          <Trackpoint>
            <Time>2022-02-12T11:28:02.000Z</Time>
            <Position>
              <LatitudeDegrees>40.68421094678342342376708984375</LatitudeDegrees>
              <LongitudeDegrees>24.7395541705191135406494140625</LongitudeDegrees>
            </Position>
            <AltitudeMeters>673.4000244140625</AltitudeMeters>
            <DistanceMeters>6701.9271893524</DistanceMeters>
          </Trackpoint>
          <Trackpoint>
            <Time>2022-02-12T11:28:08.000Z</Time>
            <Position>
              <LatitudeDegrees>40.684257633984088897705078125</LatitudeDegrees>
              <LongitudeDegrees>24.7394639812409877777099609375</LongitudeDegrees>
            </Position>
            <AltitudeMeters>673.79998779296875</AltitudeMeters>
            <DistanceMeters>6711.1442908049</DistanceMeters>
          </Trackpoint>
          <Trackpoint>
            <Time>2022-02-12T11:28:10.000Z</Time>
            <Position>
              <LatitudeDegrees>40.684265010058879852294921875</LatitudeDegrees>
              <LongitudeDegrees>24.739429950714111328125</LongitudeDegrees>
            </Position>
            <AltitudeMeters>673.5999755859375</AltitudeMeters>
            <DistanceMeters>6714.132726115</DistanceMeters>
          </Trackpoint>
          <Trackpoint>
            <Time>2022-02-12T11:28:16.000Z</Time>
            <Position>
              <LatitudeDegrees>40.684263668954372406005859375</LatitudeDegrees>
              <LongitudeDegrees>24.73932945169508457183837890625</LongitudeDegrees>
            </Position>
            <AltitudeMeters>673.4000244140625</AltitudeMeters>
            <DistanceMeters>6722.6162224024</DistanceMeters>
          </Trackpoint>
          <Trackpoint>
            <Time>2022-02-12T11:28:17.000Z</Time>
            <Position>
              <LatitudeDegrees>40.68425595760345458984375</LatitudeDegrees>
              <LongitudeDegrees>24.7393161244690418243408203125</LongitudeDegrees>
            </Position>
            <AltitudeMeters>673.4000244140625</AltitudeMeters>
            <DistanceMeters>6724.032088558</DistanceMeters>
          </Trackpoint>
          <Trackpoint>
            <Time>2022-02-12T11:28:21.000Z</Time>
            <Position>
              <LatitudeDegrees>40.6842054985463619232177734375</LatitudeDegrees>
              <LongitudeDegrees>24.73929223604500293731689453125</LongitudeDegrees>
            </Position>
            <AltitudeMeters>673.5999755859375</AltitudeMeters>
            <DistanceMeters>6729.9998872724</DistanceMeters>
          </Trackpoint>
          <Trackpoint>
            <Time>2022-02-12T11:28:26.000Z</Time>
            <Position>
              <LatitudeDegrees>40.68416384048759937286376953125</LatitudeDegrees>
              <LongitudeDegrees>24.73922702483832836151123046875</LongitudeDegrees>
            </Position>
            <AltitudeMeters>674</AltitudeMeters>
            <DistanceMeters>6737.1968670891</DistanceMeters>
          </Trackpoint>
          <Trackpoint>
            <Time>2022-02-12T11:28:27.000Z</Time>
            <Position>
              <LatitudeDegrees>40.68415747024118900299072265625</LatitudeDegrees>
              <LongitudeDegrees>24.73920757882297039031982421875</LongitudeDegrees>
            </Position>
            <AltitudeMeters>674.20001220703125</AltitudeMeters>
            <DistanceMeters>6738.9797262839</DistanceMeters>
          </Trackpoint>
          <Trackpoint>
            <Time>2022-02-12T11:28:28.000Z</Time>
            <Position>
              <LatitudeDegrees>40.6841495074331760406494140625</LatitudeDegrees>
              <LongitudeDegrees>24.73919131793081760406494140625</LongitudeDegrees>
            </Position>
            <AltitudeMeters>674.4000244140625</AltitudeMeters>
            <DistanceMeters>6740.614627696</DistanceMeters>
          </Trackpoint>
          <Trackpoint>
            <Time>2022-02-12T11:28:29.000Z</Time>
            <Position>
              <LatitudeDegrees>40.68414263427257537841796875</LatitudeDegrees>
              <LongitudeDegrees>24.73917405121028423309326171875</LongitudeDegrees>
            </Position>
            <AltitudeMeters>674.5999755859375</AltitudeMeters>
            <DistanceMeters>6742.2605386696</DistanceMeters>
          </Trackpoint>
          <Trackpoint>
            <Time>2022-02-12T11:28:32.000Z</Time>
            <Position>
              <LatitudeDegrees>40.6841263733804225921630859375</LatitudeDegrees>
              <LongitudeDegrees>24.7391173057258129119873046875</LongitudeDegrees>
            </Position>
            <AltitudeMeters>675.20001220703125</AltitudeMeters>
            <DistanceMeters>6747.3814118367</DistanceMeters>
          </Trackpoint>
          <Trackpoint>
            <Time>2022-02-12T11:28:34.000Z</Time>
            <Position>
              <LatitudeDegrees>40.68412310443818569183349609375</LatitudeDegrees>
              <LongitudeDegrees>24.7390794195234775543212890625</LongitudeDegrees>
            </Position>
            <AltitudeMeters>675.5999755859375</AltitudeMeters>
            <DistanceMeters>6750.5997184848</DistanceMeters>
          </Trackpoint>
          <Trackpoint>
            <Time>2022-02-12T11:28:35.000Z</Time>
            <Position>
              <LatitudeDegrees>40.6841216795146465301513671875</LatitudeDegrees>
              <LongitudeDegrees>24.73906273953616619110107421875</LongitudeDegrees>
            </Position>
            <AltitudeMeters>675.79998779296875</AltitudeMeters>
            <DistanceMeters>6752.0155846404</DistanceMeters>
          </Trackpoint>
          <Trackpoint>
            <Time>2022-02-12T11:28:41.000Z</Time>
            <Position>
              <LatitudeDegrees>40.68412830121815204620361328125</LatitudeDegrees>
              <LongitudeDegrees>24.73894924856722354888916015625</LongitudeDegrees>
            </Position>
            <AltitudeMeters>676.5999755859375</AltitudeMeters>
            <DistanceMeters>6761.6226867703</DistanceMeters>
          </Trackpoint>
          <Trackpoint>
            <Time>2022-02-12T11:28:45.000Z</Time>
            <Position>
              <LatitudeDegrees>40.6841381080448627471923828125</LatitudeDegrees>
              <LongitudeDegrees>24.7388775832951068878173828125</LongitudeDegrees>
            </Position>
            <AltitudeMeters>676.79998779296875</AltitudeMeters>
            <DistanceMeters>6767.7693801774</DistanceMeters>
          </Trackpoint>
          <Trackpoint>
            <Time>2022-02-12T11:28:49.000Z</Time>
            <Position>
              <LatitudeDegrees>40.6841575540602207183837890625</LatitudeDegrees>
              <LongitudeDegrees>24.7388065047562122344970703125</LongitudeDegrees>
            </Position>
            <AltitudeMeters>677.4000244140625</AltitudeMeters>
            <DistanceMeters>6774.1475064211</DistanceMeters>
          </Trackpoint>
          <Trackpoint>
            <Time>2022-02-12T11:28:51.000Z</Time>
            <Position>
              <LatitudeDegrees>40.684168450534343719482421875</LatitudeDegrees>
              <LongitudeDegrees>24.73877255804836750030517578125</LongitudeDegrees>
            </Position>
            <AltitudeMeters>678</AltitudeMeters>
            <DistanceMeters>6777.2588151406</DistanceMeters>
          </Trackpoint>
          <Trackpoint>
            <Time>2022-02-12T11:28:57.000Z</Time>
            <Position>
              <LatitudeDegrees>40.68420038558542728424072265625</LatitudeDegrees>
              <LongitudeDegrees>24.73867314867675304412841796875</LongitudeDegrees>
            </Position>
            <AltitudeMeters>678.4000244140625</AltitudeMeters>
            <DistanceMeters>6786.3704847365</DistanceMeters>
          </Trackpoint>
          <Trackpoint>
            <Time>2022-02-12T11:28:58.000Z</Time>
            <Position>
              <LatitudeDegrees>40.6842061690986156463623046875</LatitudeDegrees>
              <LongitudeDegrees>24.7386579774320125579833984375</LongitudeDegrees>
            </Position>
            <AltitudeMeters>678.5999755859375</AltitudeMeters>
            <DistanceMeters>6787.8053566574</DistanceMeters>
          </Trackpoint>
          <Trackpoint>
            <Time>2022-02-12T11:29:00.000Z</Time>
            <Position>
              <LatitudeDegrees>40.68421932868659496307373046875</LatitudeDegrees>
              <LongitudeDegrees>24.73862721584737300872802734375</LongitudeDegrees>
            </Position>
            <AltitudeMeters>679</AltitudeMeters>
            <DistanceMeters>6790.7862282113</DistanceMeters>
          </Trackpoint>
          <Trackpoint>
            <Time>2022-02-12T11:29:02.000Z</Time>
            <Position>
              <LatitudeDegrees>40.68423558957874774932861328125</LatitudeDegrees>
              <LongitudeDegrees>24.7385989688336849212646484375</LongitudeDegrees>
            </Position>
            <AltitudeMeters>679.20001220703125</AltitudeMeters>
            <DistanceMeters>6793.7807007706</DistanceMeters>
          </Trackpoint>
          <Trackpoint>
            <Time>2022-02-12T11:29:05.000Z</Time>
            <Position>
              <LatitudeDegrees>40.6842601485550403594970703125</LatitudeDegrees>
              <LongitudeDegrees>24.738559238612651824951171875</LongitudeDegrees>
            </Position>
            <AltitudeMeters>679.4000244140625</AltitudeMeters>
            <DistanceMeters>6798.1062433253</DistanceMeters>
          </Trackpoint>
          <Trackpoint>
            <Time>2022-02-12T11:29:08.000Z</Time>
            <Position>
              <LatitudeDegrees>40.68429040722548961639404296875</LatitudeDegrees>
              <LongitudeDegrees>24.738520346581935882568359375</LongitudeDegrees>
            </Position>
            <AltitudeMeters>680.20001220703125</AltitudeMeters>
            <DistanceMeters>6802.8079054925</DistanceMeters>
          </Trackpoint>
          <Trackpoint>
            <Time>2022-02-12T11:29:11.000Z</Time>
            <Position>
              <LatitudeDegrees>40.68431027233600616455078125</LatitudeDegrees>
              <LongitudeDegrees>24.7384710609912872314453125</LongitudeDegrees>
            </Position>
            <AltitudeMeters>680.79998779296875</AltitudeMeters>
            <DistanceMeters>6807.5191609408</DistanceMeters>
          </Trackpoint>
          <Trackpoint>
            <Time>2022-02-12T11:29:12.000Z</Time>
            <Position>
              <LatitudeDegrees>40.6843154691159725189208984375</LatitudeDegrees>
              <LongitudeDegrees>24.73845790140330791473388671875</LongitudeDegrees>
            </Position>
            <AltitudeMeters>680.79998779296875</AltitudeMeters>
            <DistanceMeters>6808.7726493936</DistanceMeters>
          </Trackpoint>
          <Trackpoint>
            <Time>2022-02-12T11:29:15.000Z</Time>
            <Position>
              <LatitudeDegrees>40.68434740416705608367919921875</LatitudeDegrees>
              <LongitudeDegrees>24.73841314204037189483642578125</LongitudeDegrees>
            </Position>
            <AltitudeMeters>681.20001220703125</AltitudeMeters>
            <DistanceMeters>6813.9592280083</DistanceMeters>
          </Trackpoint>
          <Trackpoint>
            <Time>2022-02-12T11:29:16.000Z</Time>
            <Position>
              <LatitudeDegrees>40.684356205165386199951171875</LatitudeDegrees>
              <LongitudeDegrees>24.73839989863336086273193359375</LongitudeDegrees>
            </Position>
            <AltitudeMeters>681.4000244140625</AltitudeMeters>
            <DistanceMeters>6815.4466313594</DistanceMeters>
          </Trackpoint>
          <Trackpoint>
            <Time>2022-02-12T11:29:18.000Z</Time>
            <Position>
              <LatitudeDegrees>40.68437355570495128631591796875</LatitudeDegrees>
              <LongitudeDegrees>24.738374836742877960205078125</LongitudeDegrees>
            </Position>
            <AltitudeMeters>681.5999755859375</AltitudeMeters>
            <DistanceMeters>6818.3132268251</DistanceMeters>
          </Trackpoint>
          <Trackpoint>
            <Time>2022-02-12T11:29:23.000Z</Time>
            <Position>
              <LatitudeDegrees>40.6844140402972698211669921875</LatitudeDegrees>
              <LongitudeDegrees>24.73829336464405059814453125</LongitudeDegrees>
            </Position>
            <AltitudeMeters>682</AltitudeMeters>
            <DistanceMeters>6826.5345480195</DistanceMeters>
          </Trackpoint>
          <Trackpoint>
            <Time>2022-02-12T11:29:25.000Z</Time>
            <Position>
              <LatitudeDegrees>40.6844365037977695465087890625</LatitudeDegrees>
              <LongitudeDegrees>24.7382703982293605804443359375</LongitudeDegrees>
            </Position>
            <AltitudeMeters>682.4000244140625</AltitudeMeters>
            <DistanceMeters>6829.6976674767</DistanceMeters>
          </Trackpoint>
          <Trackpoint>
            <Time>2022-02-12T11:29:26.000Z</Time>
            <Position>
              <LatitudeDegrees>40.6844468973577022552490234375</LatitudeDegrees>
              <LongitudeDegrees>24.73825807683169841766357421875</LongitudeDegrees>
            </Position>
            <AltitudeMeters>682.4000244140625</AltitudeMeters>
            <DistanceMeters>6831.2533218364</DistanceMeters>
          </Trackpoint>
          <Trackpoint>
            <Time>2022-02-12T11:29:28.000Z</Time>
            <Position>
              <LatitudeDegrees>40.68446357734501361846923828125</LatitudeDegrees>
              <LongitudeDegrees>24.73823024891316890716552734375</LongitudeDegrees>
            </Position>
            <AltitudeMeters>682.4000244140625</AltitudeMeters>
            <DistanceMeters>6834.2477943958</DistanceMeters>
          </Trackpoint>
          <Trackpoint>
            <Time>2022-02-12T11:29:30.000Z</Time>
            <Position>
              <LatitudeDegrees>40.6844747252762317657470703125</LatitudeDegrees>
              <LongitudeDegrees>24.73819923587143421173095703125</LongitudeDegrees>
            </Position>
            <AltitudeMeters>682.4000244140625</AltitudeMeters>
            <DistanceMeters>6837.1426019783</DistanceMeters>
          </Trackpoint>
          <Trackpoint>
            <Time>2022-02-12T11:29:33.000Z</Time>
            <Position>
              <LatitudeDegrees>40.68450179882347583770751953125</LatitudeDegrees>
              <LongitudeDegrees>24.73815120756626129150390625</LongitudeDegrees>
            </Position>
            <AltitudeMeters>682.5999755859375</AltitudeMeters>
            <DistanceMeters>6842.1942349846</DistanceMeters>
          </Trackpoint>
          <Trackpoint>
            <Time>2022-02-12T11:29:39.000Z</Time>
            <Position>
              <LatitudeDegrees>40.68453616462647914886474609375</LatitudeDegrees>
              <LongitudeDegrees>24.73804584704339504241943359375</LongitudeDegrees>
            </Position>
            <AltitudeMeters>683</AltitudeMeters>
            <DistanceMeters>6851.8748410264</DistanceMeters>
          </Trackpoint>
          <Trackpoint>
            <Time>2022-02-12T11:29:41.000Z</Time>
            <Position>
              <LatitudeDegrees>40.684549324214458465576171875</LatitudeDegrees>
              <LongitudeDegrees>24.73801148124039173126220703125</LongitudeDegrees>
            </Position>
            <AltitudeMeters>683.20001220703125</AltitudeMeters>
            <DistanceMeters>6855.1238653973</DistanceMeters>
          </Trackpoint>
          <Trackpoint>
            <Time>2022-02-12T11:29:45.000Z</Time>
            <Position>
              <LatitudeDegrees>40.6845662556588649749755859375</LatitudeDegrees>
              <LongitudeDegrees>24.7379287518560886383056640625</LongitudeDegrees>
            </Position>
            <AltitudeMeters>683.4000244140625</AltitudeMeters>
            <DistanceMeters>6862.3558915839</DistanceMeters>
          </Trackpoint>
          <Trackpoint>
            <Time>2022-02-12T11:29:47.000Z</Time>
            <Position>
              <LatitudeDegrees>40.68458192981779575347900390625</LatitudeDegrees>
              <LongitudeDegrees>24.7378935478627681732177734375</LongitudeDegrees>
            </Position>
            <AltitudeMeters>683.79998779296875</AltitudeMeters>
            <DistanceMeters>6865.8005280593</DistanceMeters>
          </Trackpoint>
          <Trackpoint>
            <Time>2022-02-12T11:29:51.000Z</Time>
            <Position>
              <LatitudeDegrees>40.6846038065850734710693359375</LatitudeDegrees>
              <LongitudeDegrees>24.737827666103839874267578125</LongitudeDegrees>
            </Position>
            <AltitudeMeters>684.4000244140625</AltitudeMeters>
            <DistanceMeters>6871.870347817</DistanceMeters>
          </Trackpoint>
          <Trackpoint>
            <Time>2022-02-12T11:29:53.000Z</Time>
            <Position>
              <LatitudeDegrees>40.68461629562079906463623046875</LatitudeDegrees>
              <LongitudeDegrees>24.737795479595661163330078125</LongitudeDegrees>
            </Position>
            <AltitudeMeters>684.5999755859375</AltitudeMeters>
            <DistanceMeters>6874.9200984195</DistanceMeters>
          </Trackpoint>
          <Trackpoint>
            <Time>2022-02-12T11:29:59.000Z</Time>
            <Position>
              <LatitudeDegrees>40.6846356578171253204345703125</LatitudeDegrees>
              <LongitudeDegrees>24.73769078962504863739013671875</LongitudeDegrees>
            </Position>
            <AltitudeMeters>685.4000244140625</AltitudeMeters>
            <DistanceMeters>6884.0149046421</DistanceMeters>
          </Trackpoint>
          <Trackpoint>
            <Time>2022-02-12T11:30:00.000Z</Time>
            <Position>
              <LatitudeDegrees>40.6846386753022670745849609375</LatitudeDegrees>
              <LongitudeDegrees>24.73767218180000782012939453125</LongitudeDegrees>
            </Position>
            <AltitudeMeters>685.5999755859375</AltitudeMeters>
            <DistanceMeters>6885.621952203</DistanceMeters>
          </Trackpoint>
          <Trackpoint>
            <Time>2022-02-12T11:30:05.000Z</Time>
            <Position>
              <LatitudeDegrees>40.684657283127307891845703125</LatitudeDegrees>
              <LongitudeDegrees>24.73757461644709110260009765625</LongitudeDegrees>
            </Position>
            <AltitudeMeters>686.79998779296875</AltitudeMeters>
            <DistanceMeters>6894.1128962216</DistanceMeters>
          </Trackpoint>
          <Trackpoint>
            <Time>2022-02-12T11:30:07.000Z</Time>
            <Position>
              <LatitudeDegrees>40.68466968834400177001953125</LatitudeDegrees>
              <LongitudeDegrees>24.73753689788281917572021484375</LongitudeDegrees>
            </Position>
            <AltitudeMeters>687</AltitudeMeters>
            <DistanceMeters>6897.5810458469</DistanceMeters>
          </Trackpoint>
          <Trackpoint>
            <Time>2022-02-12T11:30:11.000Z</Time>
            <Position>
              <LatitudeDegrees>40.6846842728555202484130859375</LatitudeDegrees>
              <LongitudeDegrees>24.73746850155293941497802734375</LongitudeDegrees>
            </Position>
            <AltitudeMeters>687.5999755859375</AltitudeMeters>
            <DistanceMeters>6903.579030888</DistanceMeters>
          </Trackpoint>
          <Trackpoint>
            <Time>2022-02-12T11:30:14.000Z</Time>
            <Position>
              <LatitudeDegrees>40.68469927646219730377197265625</LatitudeDegrees>
              <LongitudeDegrees>24.73742156289517879486083984375</LongitudeDegrees>
            </Position>
            <AltitudeMeters>687.79998779296875</AltitudeMeters>
            <DistanceMeters>6907.878399037</DistanceMeters>
          </Trackpoint>
          <Trackpoint>
            <Time>2022-02-12T11:30:15.000Z</Time>
            <Position>
              <LatitudeDegrees>40.6847084127366542816162109375</LatitudeDegrees>
              <LongitudeDegrees>24.737407900393009185791015625</LongitudeDegrees>
            </Position>
            <AltitudeMeters>688</AltitudeMeters>
            <DistanceMeters>6909.4165407822</DistanceMeters>
          </Trackpoint>
          <Trackpoint>
            <Time>2022-02-12T11:30:19.000Z</Time>
            <Position>
              <LatitudeDegrees>40.6847338937222957611083984375</LatitudeDegrees>
              <LongitudeDegrees>24.73735014908015727996826171875</LongitudeDegrees>
            </Position>
            <AltitudeMeters>689</AltitudeMeters>
            <DistanceMeters>6915.0560380325</DistanceMeters>
          </Trackpoint>
          <Trackpoint>
            <Time>2022-02-12T11:30:22.000Z</Time>
            <Position>
              <LatitudeDegrees>40.68474755622446537017822265625</LatitudeDegrees>
              <LongitudeDegrees>24.73732617683708667755126953125</LongitudeDegrees>
            </Position>
            <AltitudeMeters>689.4000244140625</AltitudeMeters>
            <DistanceMeters>6917.5881032518</DistanceMeters>
          </Trackpoint>
          <Trackpoint>
            <Time>2022-02-12T11:30:24.000Z</Time>
            <Position>
              <LatitudeDegrees>40.68475794978439807891845703125</LatitudeDegrees>
              <LongitudeDegrees>24.73730891011655330657958984375</LongitudeDegrees>
            </Position>
            <AltitudeMeters>689.5999755859375</AltitudeMeters>
            <DistanceMeters>6919.4478127125</DistanceMeters>
          </Trackpoint>
          <Trackpoint>
            <Time>2022-02-12T11:30:30.000Z</Time>
            <Position>
              <LatitudeDegrees>40.68478493951261043548583984375</LatitudeDegrees>
              <LongitudeDegrees>24.7372089140117168426513671875</LongitudeDegrees>
            </Position>
            <AltitudeMeters>689.4000244140625</AltitudeMeters>
            <DistanceMeters>6928.406569291</DistanceMeters>
          </Trackpoint>
          <Trackpoint>
            <Time>2022-02-12T11:30:36.000Z</Time>
            <Position>
              <LatitudeDegrees>40.6848260946571826934814453125</LatitudeDegrees>
              <LongitudeDegrees>24.7370734624564647674560546875</LongitudeDegrees>
            </Position>
            <AltitudeMeters>689.79998779296875</AltitudeMeters>
            <DistanceMeters>6940.7227060273</DistanceMeters>
          </Trackpoint>
          <Trackpoint>
            <Time>2022-02-12T11:30:37.000Z</Time>
            <Position>
              <LatitudeDegrees>40.68483103998005390167236328125</LatitudeDegrees>
              <LongitudeDegrees>24.737056195735931396484375</LongitudeDegrees>
            </Position>
            <AltitudeMeters>689.79998779296875</AltitudeMeters>
            <DistanceMeters>6942.278360387</DistanceMeters>
          </Trackpoint>
          <Trackpoint>
            <Time>2022-02-12T11:30:39.000Z</Time>
            <Position>
              <LatitudeDegrees>40.68483942188322544097900390625</LatitudeDegrees>
              <LongitudeDegrees>24.73702090792357921600341796875</LongitudeDegrees>
            </Position>
            <AltitudeMeters>690</AltitudeMeters>
            <DistanceMeters>6945.3983639778</DistanceMeters>
          </Trackpoint>
          <Trackpoint>
            <Time>2022-02-12T11:30:45.000Z</Time>
            <Position>
              <LatitudeDegrees>40.68488837219774723052978515625</LatitudeDegrees>
              <LongitudeDegrees>24.73689484409987926483154296875</LongitudeDegrees>
            </Position>
            <AltitudeMeters>690.5999755859375</AltitudeMeters>
            <DistanceMeters>6957.3521052185</DistanceMeters>
          </Trackpoint>
          <Trackpoint>
            <Time>2022-02-12T11:30:48.000Z</Time>
            <Position>
              <LatitudeDegrees>40.68491670303046703338623046875</LatitudeDegrees>
              <LongitudeDegrees>24.7368474863469600677490234375</LongitudeDegrees>
            </Position>
            <AltitudeMeters>690.79998779296875</AltitudeMeters>
            <DistanceMeters>6962.4429125606</DistanceMeters>
          </Trackpoint>
          <Trackpoint>
            <Time>2022-02-12T11:30:51.000Z</Time>
            <Position>
              <LatitudeDegrees>40.68494218401610851287841796875</LatitudeDegrees>
              <LongitudeDegrees>24.736803732812404632568359375</LongitudeDegrees>
            </Position>
            <AltitudeMeters>691</AltitudeMeters>
            <DistanceMeters>6967.0982518034</DistanceMeters>
          </Trackpoint>
          <Trackpoint>
            <Time>2022-02-12T11:30:56.000Z</Time>
            <Position>
              <LatitudeDegrees>40.68499767221510410308837890625</LatitudeDegrees>
              <LongitudeDegrees>24.7367348335683345794677734375</LongitudeDegrees>
            </Position>
            <AltitudeMeters>691.20001220703125</AltitudeMeters>
            <DistanceMeters>6975.5812158598</DistanceMeters>
          </Trackpoint>
          <Trackpoint>
            <Time>2022-02-12T11:30:59.000Z</Time>
            <Position>
              <LatitudeDegrees>40.6850351393222808837890625</LatitudeDegrees>
              <LongitudeDegrees>24.73669602535665035247802734375</LongitudeDegrees>
            </Position>
            <AltitudeMeters>691.4000244140625</AltitudeMeters>
            <DistanceMeters>6980.8840130505</DistanceMeters>
          </Trackpoint>
          <Trackpoint>
            <Time>2022-02-12T11:31:00.000Z</Time>
            <Position>
              <LatitudeDegrees>40.6850470416247844696044921875</LatitudeDegrees>
              <LongitudeDegrees>24.736680351197719573974609375</LongitudeDegrees>
            </Position>
            <AltitudeMeters>691.4000244140625</AltitudeMeters>
            <DistanceMeters>6982.7558222449</DistanceMeters>
          </Trackpoint>
          <Trackpoint>
            <Time>2022-02-12T11:31:06.000Z</Time>
            <Position>
              <LatitudeDegrees>40.68510596640408039093017578125</LatitudeDegrees>
              <LongitudeDegrees>24.73660717718303203582763671875</LongitudeDegrees>
            </Position>
            <AltitudeMeters>691.79998779296875</AltitudeMeters>
            <DistanceMeters>6991.7648359023</DistanceMeters>
          </Trackpoint>
          <Trackpoint>
            <Time>2022-02-12T11:31:07.000Z</Time>
            <Position>
              <LatitudeDegrees>40.68511887453496456146240234375</LatitudeDegrees>
              <LongitudeDegrees>24.73659074865281581878662109375</LongitudeDegrees>
            </Position>
            <AltitudeMeters>692</AltitudeMeters>
            <DistanceMeters>6993.7626581637</DistanceMeters>
          </Trackpoint>
          <Trackpoint>
            <Time>2022-02-12T11:31:08.000Z</Time>
            <Position>
              <LatitudeDegrees>40.68512876518070697784423828125</LatitudeDegrees>
              <LongitudeDegrees>24.73657784052193164825439453125</LongitudeDegrees>
            </Position>
            <AltitudeMeters>692.20001220703125</AltitudeMeters>
            <DistanceMeters>6995.3124969728</DistanceMeters>
          </Trackpoint>
          <Trackpoint>
            <Time>2022-02-12T11:31:09.000Z</Time>
            <Position>
              <LatitudeDegrees>40.6851345486938953399658203125</LatitudeDegrees>
              <LongitudeDegrees>24.73656359128654003143310546875</LongitudeDegrees>
            </Position>
            <AltitudeMeters>692.4000244140625</AltitudeMeters>
            <DistanceMeters>6996.6763869051</DistanceMeters>
          </Trackpoint>
          <Trackpoint>
            <Time>2022-02-12T11:31:12.000Z</Time>
            <Position>
              <LatitudeDegrees>40.68517134524881839752197265625</LatitudeDegrees>
              <LongitudeDegrees>24.73652956075966358184814453125</LongitudeDegrees>
            </Position>
            <AltitudeMeters>693.20001220703125</AltitudeMeters>
            <DistanceMeters>7001.6795231118</DistanceMeters>
          </Trackpoint>
          <Trackpoint>
            <Time>2022-02-12T11:31:13.000Z</Time>
            <Position>
              <LatitudeDegrees>40.6851744465529918670654296875</LatitudeDegrees>
              <LongitudeDegrees>24.736514054238796234130859375</LongitudeDegrees>
            </Position>
            <AltitudeMeters>693.20001220703125</AltitudeMeters>
            <DistanceMeters>7003.0367760707</DistanceMeters>
          </Trackpoint>
          <Trackpoint>
            <Time>2022-02-12T11:31:18.000Z</Time>
            <Position>
              <LatitudeDegrees>40.685211159288883209228515625</LatitudeDegrees>
              <LongitudeDegrees>24.736443646252155303955078125</LongitudeDegrees>
            </Position>
            <AltitudeMeters>693.20001220703125</AltitudeMeters>
            <DistanceMeters>7010.248796614</DistanceMeters>
          </Trackpoint>
          <Trackpoint>
            <Time>2022-02-12T11:31:19.000Z</Time>
            <Position>
              <LatitudeDegrees>40.68522096611559391021728515625</LatitudeDegrees>
              <LongitudeDegrees>24.7364283911883831024169921875</LongitudeDegrees>
            </Position>
            <AltitudeMeters>693.20001220703125</AltitudeMeters>
            <DistanceMeters>7011.9353534852</DistanceMeters>
          </Trackpoint>
          <Trackpoint>
            <Time>2022-02-12T11:31:21.000Z</Time>
            <Position>
              <LatitudeDegrees>40.6852384842932224273681640625</LatitudeDegrees>
              <LongitudeDegrees>24.736408106982707977294921875</LongitudeDegrees>
            </Position>
            <AltitudeMeters>693.5999755859375</AltitudeMeters>
            <DistanceMeters>7014.5290780178</DistanceMeters>
          </Trackpoint>
          <Trackpoint>
            <Time>2022-02-12T11:31:23.000Z</Time>
            <Position>
              <LatitudeDegrees>40.68525834940373897552490234375</LatitudeDegrees>
              <LongitudeDegrees>24.736393354833126068115234375</LongitudeDegrees>
            </Position>
            <AltitudeMeters>694.20001220703125</AltitudeMeters>
            <DistanceMeters>7017.0682657976</DistanceMeters>
          </Trackpoint>
          <Trackpoint>
            <Time>2022-02-12T11:31:24.000Z</Time>
            <Position>
              <LatitudeDegrees>40.68526874296367168426513671875</LatitudeDegrees>
              <LongitudeDegrees>24.73638757131993770599365234375</LongitudeDegrees>
            </Position>
            <AltitudeMeters>694.4000244140625</AltitudeMeters>
            <DistanceMeters>7018.3217542503</DistanceMeters>
          </Trackpoint>
          <Trackpoint>
            <Time>2022-02-12T11:31:28.000Z</Time>
            <Position>
              <LatitudeDegrees>40.6853226386010646820068359375</LatitudeDegrees>
              <LongitudeDegrees>24.73635873757302761077880859375</LongitudeDegrees>
            </Position>
            <AltitudeMeters>694.5999755859375</AltitudeMeters>
            <DistanceMeters>7024.7947407867</DistanceMeters>
          </Trackpoint>
          <Trackpoint>
            <Time>2022-02-12T11:31:29.000Z</Time>
            <Position>
              <LatitudeDegrees>40.6853333674371242523193359375</LatitudeDegrees>
              <LongitudeDegrees>24.7363512776792049407958984375</LongitudeDegrees>
            </Position>
            <AltitudeMeters>694.79998779296875</AltitudeMeters>
            <DistanceMeters>7026.1453241576</DistanceMeters>
          </Trackpoint>
          <Trackpoint>
            <Time>2022-02-12T11:31:32.000Z</Time>
            <Position>
              <LatitudeDegrees>40.6853722594678401947021484375</LatitudeDegrees>
              <LongitudeDegrees>24.73633694462478160858154296875</LongitudeDegrees>
            </Position>
            <AltitudeMeters>695.20001220703125</AltitudeMeters>
            <DistanceMeters>7030.6397964297</DistanceMeters>
          </Trackpoint>
          <Trackpoint>
            <Time>2022-02-12T11:31:34.000Z</Time>
            <Position>
              <LatitudeDegrees>40.68539522588253021240234375</LatitudeDegrees>
              <LongitudeDegrees>24.7363241203129291534423828125</LongitudeDegrees>
            </Position>
            <AltitudeMeters>695.5999755859375</AltitudeMeters>
            <DistanceMeters>7033.4167885585</DistanceMeters>
          </Trackpoint>
          <Trackpoint>
            <Time>2022-02-12T11:31:35.000Z</Time>
            <Position>
              <LatitudeDegrees>40.6854052841663360595703125</LatitudeDegrees>
              <LongitudeDegrees>24.73631791770458221435546875</LongitudeDegrees>
            </Position>
            <AltitudeMeters>695.5999755859375</AltitudeMeters>
            <DistanceMeters>7034.648475549</DistanceMeters>
          </Trackpoint>
          <Trackpoint>
            <Time>2022-02-12T11:31:36.000Z</Time>
            <Position>
              <LatitudeDegrees>40.685415007174015045166015625</LatitudeDegrees>
              <LongitudeDegrees>24.736308194696903228759765625</LongitudeDegrees>
            </Position>
            <AltitudeMeters>695.5999755859375</AltitudeMeters>
            <DistanceMeters>7036.0090510416</DistanceMeters>
          </Trackpoint>
          <Trackpoint>
            <Time>2022-02-12T11:31:40.000Z</Time>
            <Position>
              <LatitudeDegrees>40.6854721717536449432373046875</LatitudeDegrees>
              <LongitudeDegrees>24.736278355121612548828125</LongitudeDegrees>
            </Position>
            <AltitudeMeters>695.79998779296875</AltitudeMeters>
            <DistanceMeters>7042.8522941644</DistanceMeters>
          </Trackpoint>
          <Trackpoint>
            <Time>2022-02-12T11:31:41.000Z</Time>
            <Position>
              <LatitudeDegrees>40.68548516370356082916259765625</LatitudeDegrees>
              <LongitudeDegrees>24.73626838065683841705322265625</LongitudeDegrees>
            </Position>
            <AltitudeMeters>695.79998779296875</AltitudeMeters>
            <DistanceMeters>7044.5227113641</DistanceMeters>
          </Trackpoint>
          <Trackpoint>
            <Time>2022-02-12T11:31:44.000Z</Time>
            <Position>
              <LatitudeDegrees>40.68552263081073760986328125</LatitudeDegrees>
              <LongitudeDegrees>24.73624591715633869171142578125</LongitudeDegrees>
            </Position>
            <AltitudeMeters>696</AltitudeMeters>
            <DistanceMeters>7049.1037481088</DistanceMeters>
          </Trackpoint>
          <Trackpoint>
            <Time>2022-02-12T11:31:48.000Z</Time>
            <Position>
              <LatitudeDegrees>40.6855744309723377227783203125</LatitudeDegrees>
              <LongitudeDegrees>24.73622647114098072052001953125</LongitudeDegrees>
            </Position>
            <AltitudeMeters>696.20001220703125</AltitudeMeters>
            <DistanceMeters>7055.098721357</DistanceMeters>
          </Trackpoint>
          <Trackpoint>
            <Time>2022-02-12T11:31:49.000Z</Time>
            <Position>
              <LatitudeDegrees>40.6855911947786808013916015625</LatitudeDegrees>
              <LongitudeDegrees>24.736224375665187835693359375</LongitudeDegrees>
            </Position>
            <AltitudeMeters>696.20001220703125</AltitudeMeters>
            <DistanceMeters>7056.9705305514</DistanceMeters>
          </Trackpoint>
          <Trackpoint>
            <Time>2022-02-12T11:31:53.000Z</Time>
            <Position>
              <LatitudeDegrees>40.6856491975486278533935546875</LatitudeDegrees>
              <LongitudeDegrees>24.73621037788689136505126953125</LongitudeDegrees>
            </Position>
            <AltitudeMeters>696.5999755859375</AltitudeMeters>
            <DistanceMeters>7063.5335683113</DistanceMeters>
          </Trackpoint>
          <Trackpoint>
            <Time>2022-02-12T11:31:57.000Z</Time>
            <Position>
              <LatitudeDegrees>40.68569772876799106597900390625</LatitudeDegrees>
              <LongitudeDegrees>24.7362114675343036651611328125</LongitudeDegrees>
            </Position>
            <AltitudeMeters>697</AltitudeMeters>
            <DistanceMeters>7068.9359017948</DistanceMeters>
          </Trackpoint>
          <Trackpoint>
            <Time>2022-02-12T11:31:59.000Z</Time>
            <Position>
              <LatitudeDegrees>40.68571868352591991424560546875</LatitudeDegrees>
              <LongitudeDegrees>24.73620836623013019561767578125</LongitudeDegrees>
            </Position>
            <AltitudeMeters>697.4000244140625</AltitudeMeters>
            <DistanceMeters>7071.2809639591</DistanceMeters>
          </Trackpoint>
          <Trackpoint>
            <Time>2022-02-12T11:32:02.000Z</Time>
            <Position>
              <LatitudeDegrees>40.68574919365346431732177734375</LatitudeDegrees>
              <LongitudeDegrees>24.73620484583079814910888671875</LongitudeDegrees>
            </Position>
            <AltitudeMeters>697.5999755859375</AltitudeMeters>
            <DistanceMeters>7074.6913508081</DistanceMeters>
          </Trackpoint>
          <Trackpoint>
            <Time>2022-02-12T11:32:08.000Z</Time>
            <Position>
              <LatitudeDegrees>40.6858272291719913482666015625</LatitudeDegrees>
              <LongitudeDegrees>24.73619461990892887115478515625</LongitudeDegrees>
            </Position>
            <AltitudeMeters>698.20001220703125</AltitudeMeters>
            <DistanceMeters>7083.419335964</DistanceMeters>
          </Trackpoint>
          <Trackpoint>
            <Time>2022-02-12T11:32:09.000Z</Time>
            <Position>
              <LatitudeDegrees>40.68584072403609752655029296875</LatitudeDegrees>
              <LongitudeDegrees>24.73619059659540653228759765625</LongitudeDegrees>
            </Position>
            <AltitudeMeters>698.20001220703125</AltitudeMeters>
            <DistanceMeters>7084.963337318</DistanceMeters>
          </Trackpoint>
          <Trackpoint>
            <Time>2022-02-12T11:32:10.000Z</Time>
            <Position>
              <LatitudeDegrees>40.68585430271923542022705078125</LatitudeDegrees>
              <LongitudeDegrees>24.736184142529964447021484375</LongitudeDegrees>
            </Position>
            <AltitudeMeters>698.4000244140625</AltitudeMeters>
            <DistanceMeters>7086.5703848789</DistanceMeters>
          </Trackpoint>
          <Trackpoint>
            <Time>2022-02-12T11:32:11.000Z</Time>
            <Position>
              <LatitudeDegrees>40.6858634389936923980712890625</LatitudeDegrees>
              <LongitudeDegrees>24.73617785610258579254150390625</LongitudeDegrees>
            </Position>
            <AltitudeMeters>698.4000244140625</AltitudeMeters>
            <DistanceMeters>7087.7107054513</DistanceMeters>
          </Trackpoint>
          <Trackpoint>
            <Time>2022-02-12T11:32:12.000Z</Time>
            <Position>
              <LatitudeDegrees>40.68587324582040309906005859375</LatitudeDegrees>
              <LongitudeDegrees>24.736169390380382537841796875</LongitudeDegrees>
            </Position>
            <AltitudeMeters>698.5999755859375</AltitudeMeters>
            <DistanceMeters>7089.0136461144</DistanceMeters>
          </Trackpoint>
          <Trackpoint>
            <Time>2022-02-12T11:32:17.000Z</Time>
            <Position>
              <LatitudeDegrees>40.68591892719268798828125</LatitudeDegrees>
              <LongitudeDegrees>24.73610728047788143157958984375</LongitudeDegrees>
            </Position>
            <AltitudeMeters>699</AltitudeMeters>
            <DistanceMeters>7096.3164970288</DistanceMeters>
          </Trackpoint>
          <Trackpoint>
            <Time>2022-02-12T11:32:19.000Z</Time>
            <Position>
              <LatitudeDegrees>40.6859274767339229583740234375</LatitudeDegrees>
              <LongitudeDegrees>24.7360706515610218048095703125</LongitudeDegrees>
            </Position>
            <AltitudeMeters>699</AltitudeMeters>
            <DistanceMeters>7099.552990297</DistanceMeters>
          </Trackpoint>
          <Trackpoint>
            <Time>2022-02-12T11:32:21.000Z</Time>
            <Position>
              <LatitudeDegrees>40.68592756055295467376708984375</LatitudeDegrees>
              <LongitudeDegrees>24.73603553138673305511474609375</LongitudeDegrees>
            </Position>
            <AltitudeMeters>699</AltitudeMeters>
            <DistanceMeters>7102.5156300495</DistanceMeters>
          </Trackpoint>
          <Trackpoint>
            <Time>2022-02-12T11:32:27.000Z</Time>
            <Position>
              <LatitudeDegrees>40.68592756055295467376708984375</LatitudeDegrees>
              <LongitudeDegrees>24.73593897186219692230224609375</LongitudeDegrees>
            </Position>
            <AltitudeMeters>699.20001220703125</AltitudeMeters>
            <DistanceMeters>7110.6652442886</DistanceMeters>
          </Trackpoint>
          <Trackpoint>
            <Time>2022-02-12T11:32:28.000Z</Time>
            <Position>
              <LatitudeDegrees>40.6859291531145572662353515625</LatitudeDegrees>
              <LongitudeDegrees>24.735919944941997528076171875</LongitudeDegrees>
            </Position>
            <AltitudeMeters>699.4000244140625</AltitudeMeters>
            <DistanceMeters>7112.2834909227</DistanceMeters>
          </Trackpoint>
          <Trackpoint>
            <Time>2022-02-12T11:32:29.000Z</Time>
            <Position>
              <LatitudeDegrees>40.685930661857128143310546875</LatitudeDegrees>
              <LongitudeDegrees>24.73590108565986156463623046875</LongitudeDegrees>
            </Position>
            <AltitudeMeters>699.4000244140625</AltitudeMeters>
            <DistanceMeters>7113.8877264997</DistanceMeters>
          </Trackpoint>
          <Trackpoint>
            <Time>2022-02-12T11:32:30.000Z</Time>
            <Position>
              <LatitudeDegrees>40.68593359552323818206787109375</LatitudeDegrees>
              <LongitudeDegrees>24.73588482476770877838134765625</LongitudeDegrees>
            </Position>
            <AltitudeMeters>699.4000244140625</AltitudeMeters>
            <DistanceMeters>7115.3004001683</DistanceMeters>
          </Trackpoint>
          <Trackpoint>
            <Time>2022-02-12T11:32:31.000Z</Time>
            <Position>
              <LatitudeDegrees>40.6859368644654750823974609375</LatitudeDegrees>
              <LongitudeDegrees>24.73587124608457088470458984375</LongitudeDegrees>
            </Position>
            <AltitudeMeters>699.4000244140625</AltitudeMeters>
            <DistanceMeters>7116.4986414439</DistanceMeters>
          </Trackpoint>
          <Trackpoint>
            <Time>2022-02-12T11:32:33.000Z</Time>
            <Position>
              <LatitudeDegrees>40.6859457492828369140625</LatitudeDegrees>
              <LongitudeDegrees>24.73584853112697601318359375</LongitudeDegrees>
            </Position>
            <AltitudeMeters>699.4000244140625</AltitudeMeters>
            <DistanceMeters>7118.6530460699</DistanceMeters>
          </Trackpoint>
          <Trackpoint>
            <Time>2022-02-12T11:32:34.000Z</Time>
            <Position>
              <LatitudeDegrees>40.685952790081501007080078125</LatitudeDegrees>
              <LongitudeDegrees>24.73584040068089962005615234375</LongitudeDegrees>
            </Position>
            <AltitudeMeters>699.4000244140625</AltitudeMeters>
            <DistanceMeters>7119.6940115704</DistanceMeters>
          </Trackpoint>
          <Trackpoint>
            <Time>2022-02-12T11:32:35.000Z</Time>
            <Position>
              <LatitudeDegrees>40.6859633512794971466064453125</LatitudeDegrees>
              <LongitudeDegrees>24.73583654500544071197509765625</LongitudeDegrees>
            </Position>
            <AltitudeMeters>699.4000244140625</AltitudeMeters>
            <DistanceMeters>7120.9146518177</DistanceMeters>
          </Trackpoint>
          <Trackpoint>
            <Time>2022-02-12T11:32:40.000Z</Time>
            <Position>
              <LatitudeDegrees>40.68603761494159698486328125</LatitudeDegrees>
              <LongitudeDegrees>24.73586462438106536865234375</LongitudeDegrees>
            </Position>
            <AltitudeMeters>699</AltitudeMeters>
            <DistanceMeters>7129.5133881157</DistanceMeters>
          </Trackpoint>
          <Trackpoint>
            <Time>2022-02-12T11:32:41.000Z</Time>
            <Position>
              <LatitudeDegrees>40.6860511936247348785400390625</LatitudeDegrees>
              <LongitudeDegrees>24.7358741797506809234619140625</LongitudeDegrees>
            </Position>
            <AltitudeMeters>698.79998779296875</AltitudeMeters>
            <DistanceMeters>7131.2265065717</DistanceMeters>
          </Trackpoint>
          <Trackpoint>
            <Time>2022-02-12T11:32:42.000Z</Time>
            <Position>
              <LatitudeDegrees>40.686060748994350433349609375</LatitudeDegrees>
              <LongitudeDegrees>24.73588532768189907073974609375</LongitudeDegrees>
            </Position>
            <AltitudeMeters>698.79998779296875</AltitudeMeters>
            <DistanceMeters>7132.6487362027</DistanceMeters>
          </Trackpoint>
          <Trackpoint>
            <Time>2022-02-12T11:32:43.000Z</Time>
            <Position>
              <LatitudeDegrees>40.68606619723141193389892578125</LatitudeDegrees>
              <LongitudeDegrees>24.73589186556637287139892578125</LongitudeDegrees>
            </Position>
            <AltitudeMeters>698.5999755859375</AltitudeMeters>
            <DistanceMeters>7133.4661869088</DistanceMeters>
          </Trackpoint>
          <Trackpoint>
            <Time>2022-02-12T11:32:45.000Z</Time>
            <Position>
              <LatitudeDegrees>40.68606552667915821075439453125</LatitudeDegrees>
              <LongitudeDegrees>24.735909216105937957763671875</LongitudeDegrees>
            </Position>
            <AltitudeMeters>698.5999755859375</AltitudeMeters>
            <DistanceMeters>7134.932187657</DistanceMeters>
          </Trackpoint>
          <Trackpoint>
            <Time>2022-02-12T11:32:46.000Z</Time>
            <Position>
              <LatitudeDegrees>40.6860686279833316802978515625</LatitudeDegrees>
              <LongitudeDegrees>24.73591265268623828887939453125</LongitudeDegrees>
            </Position>
            <AltitudeMeters>698.5999755859375</AltitudeMeters>
            <DistanceMeters>7135.3676547686</DistanceMeters>
          </Trackpoint>
          <Trackpoint>
            <Time>2022-02-12T11:40:17.000Z</Time>
            <Position>
              <LatitudeDegrees>40.68604976870119571685791015625</LatitudeDegrees>
              <LongitudeDegrees>24.73584107123315334320068359375</LongitudeDegrees>
            </Position>
            <AltitudeMeters>698.4000244140625</AltitudeMeters>
            <DistanceMeters>7141.7620418494</DistanceMeters>
          </Trackpoint>
          <Trackpoint>
            <Time>2022-02-12T11:40:18.000Z</Time>
            <Position>
              <LatitudeDegrees>40.6860562227666378021240234375</LatitudeDegrees>
              <LongitudeDegrees>24.7358264029026031494140625</LongitudeDegrees>
            </Position>
            <AltitudeMeters>698.5999755859375</AltitudeMeters>
            <DistanceMeters>7143.1906066103</DistanceMeters>
          </Trackpoint>
          <Trackpoint>
            <Time>2022-02-12T11:40:24.000Z</Time>
            <Position>
              <LatitudeDegrees>40.686079524457454681396484375</LatitudeDegrees>
              <LongitudeDegrees>24.735725484788417816162109375</LongitudeDegrees>
            </Position>
            <AltitudeMeters>698.79998779296875</AltitudeMeters>
            <DistanceMeters>7152.0937527411</DistanceMeters>
          </Trackpoint>
          <Trackpoint>
            <Time>2022-02-12T11:40:25.000Z</Time>
            <Position>
              <LatitudeDegrees>40.68607860244810581207275390625</LatitudeDegrees>
              <LongitudeDegrees>24.73571064881980419158935546875</LongitudeDegrees>
            </Position>
            <AltitudeMeters>698.79998779296875</AltitudeMeters>
            <DistanceMeters>7153.3508380117</DistanceMeters>
          </Trackpoint>
          <Trackpoint>
            <Time>2022-02-12T11:40:27.000Z</Time>
            <Position>
              <LatitudeDegrees>40.6860785186290740966796875</LatitudeDegrees>
              <LongitudeDegrees>24.73567795939743518829345703125</LongitudeDegrees>
            </Position>
            <AltitudeMeters>698.5999755859375</AltitudeMeters>
            <DistanceMeters>7156.1082506333</DistanceMeters>
          </Trackpoint>
          <Trackpoint>
            <Time>2022-02-12T11:40:31.000Z</Time>
            <Position>
              <LatitudeDegrees>40.68608312867581844329833984375</LatitudeDegrees>
              <LongitudeDegrees>24.73559732548892498016357421875</LongitudeDegrees>
            </Position>
            <AltitudeMeters>698.5999755859375</AltitudeMeters>
            <DistanceMeters>7162.9329948995</DistanceMeters>
          </Trackpoint>
          <Trackpoint>
            <Time>2022-02-12T11:40:34.000Z</Time>
            <Position>
              <LatitudeDegrees>40.68608178757131099700927734375</LatitudeDegrees>
              <LongitudeDegrees>24.7355308569967746734619140625</LongitudeDegrees>
            </Position>
            <AltitudeMeters>699</AltitudeMeters>
            <DistanceMeters>7168.5444008338</DistanceMeters>
          </Trackpoint>
          <Trackpoint>
            <Time>2022-02-12T11:40:36.000Z</Time>
            <Position>
              <LatitudeDegrees>40.68608731962740421295166015625</LatitudeDegrees>
              <LongitudeDegrees>24.73548852838575839996337890625</LongitudeDegrees>
            </Position>
            <AltitudeMeters>699.20001220703125</AltitudeMeters>
            <DistanceMeters>7172.1678979222</DistanceMeters>
          </Trackpoint>
          <Trackpoint>
            <Time>2022-02-12T11:40:40.000Z</Time>
            <Position>
              <LatitudeDegrees>40.68612034432590007781982421875</LatitudeDegrees>
              <LongitudeDegrees>24.73542683757841587066650390625</LongitudeDegrees>
            </Position>
            <AltitudeMeters>699.4000244140625</AltitudeMeters>
            <DistanceMeters>7178.5410669804</DistanceMeters>
          </Trackpoint>
          <Trackpoint>
            <Time>2022-02-12T11:40:46.000Z</Time>
            <Position>
              <LatitudeDegrees>40.686168707907199859619140625</LatitudeDegrees>
              <LongitudeDegrees>24.735345281660556793212890625</LongitudeDegrees>
            </Position>
            <AltitudeMeters>699.4000244140625</AltitudeMeters>
            <DistanceMeters>7187.2793921294</DistanceMeters>
          </Trackpoint>
          <Trackpoint>
            <Time>2022-02-12T11:40:49.000Z</Time>
            <Position>
              <LatitudeDegrees>40.68618915975093841552734375</LatitudeDegrees>
              <LongitudeDegrees>24.73529725335538387298583984375</LongitudeDegrees>
            </Position>
            <AltitudeMeters>699.4000244140625</AltitudeMeters>
            <DistanceMeters>7191.9289085567</DistanceMeters>
          </Trackpoint>
          <Trackpoint>
            <Time>2022-02-12T11:40:54.000Z</Time>
            <Position>
              <LatitudeDegrees>40.68622662685811519622802734375</LatitudeDegrees>
              <LongitudeDegrees>24.73523028194904327392578125</LongitudeDegrees>
            </Position>
            <AltitudeMeters>699.20001220703125</AltitudeMeters>
            <DistanceMeters>7198.9531763256</DistanceMeters>
          </Trackpoint>
          <Trackpoint>
            <Time>2022-02-12T11:40:55.000Z</Time>
            <Position>
              <LatitudeDegrees>40.68623081780970096588134765625</LatitudeDegrees>
              <LongitudeDegrees>24.735219217836856842041015625</LongitudeDegrees>
            </Position>
            <AltitudeMeters>699.20001220703125</AltitudeMeters>
            <DistanceMeters>7200.0027806921</DistanceMeters>
          </Trackpoint>
          <Trackpoint>
            <Time>2022-02-12T11:40:56.000Z</Time>
            <Position>
              <LatitudeDegrees>40.6862379424273967742919921875</LatitudeDegrees>
              <LongitudeDegrees>24.735207818448543548583984375</LongitudeDegrees>
            </Position>
            <AltitudeMeters>699.20001220703125</AltitudeMeters>
            <DistanceMeters>7201.2490443674</DistanceMeters>
          </Trackpoint>
          <Trackpoint>
            <Time>2022-02-12T11:41:02.000Z</Time>
            <Position>
              <LatitudeDegrees>40.6862969510257244110107421875</LatitudeDegrees>
              <LongitudeDegrees>24.73512257449328899383544921875</LongitudeDegrees>
            </Position>
            <AltitudeMeters>699.4000244140625</AltitudeMeters>
            <DistanceMeters>7210.9900937602</DistanceMeters>
          </Trackpoint>
          <Trackpoint>
            <Time>2022-02-12T11:41:06.000Z</Time>
            <Position>
              <LatitudeDegrees>40.68631715141236782073974609375</LatitudeDegrees>
              <LongitudeDegrees>24.73505417816340923309326171875</LongitudeDegrees>
            </Position>
            <AltitudeMeters>699.20001220703125</AltitudeMeters>
            <DistanceMeters>7217.185077609</DistanceMeters>
          </Trackpoint>
          <Trackpoint>
            <Time>2022-02-12T11:41:10.000Z</Time>
            <Position>
              <LatitudeDegrees>40.68633140064775943756103515625</LatitudeDegrees>
              <LongitudeDegrees>24.7350115142762660980224609375</LongitudeDegrees>
            </Position>
            <AltitudeMeters>698.5999755859375</AltitudeMeters>
            <DistanceMeters>7221.1215241256</DistanceMeters>
          </Trackpoint>
          <Trackpoint>
            <Time>2022-02-12T11:41:11.000Z</Time>
            <Position>
              <LatitudeDegrees>40.68633642978966236114501953125</LatitudeDegrees>
              <LongitudeDegrees>24.7349989414215087890625</LongitudeDegrees>
            </Position>
            <AltitudeMeters>698.20001220703125</AltitudeMeters>
            <DistanceMeters>7222.3197654012</DistanceMeters>
          </Trackpoint>
          <Trackpoint>
            <Time>2022-02-12T11:41:14.000Z</Time>
            <Position>
              <LatitudeDegrees>40.6863472424447536468505859375</LatitudeDegrees>
              <LongitudeDegrees>24.7349602170288562774658203125</LongitudeDegrees>
            </Position>
            <AltitudeMeters>697.5999755859375</AltitudeMeters>
            <DistanceMeters>7225.8009092631</DistanceMeters>
          </Trackpoint>
          <Trackpoint>
            <Time>2022-02-12T11:41:17.000Z</Time>
            <Position>
              <LatitudeDegrees>40.68635168485343456268310546875</LatitudeDegrees>
              <LongitudeDegrees>24.7349347360432147979736328125</LongitudeDegrees>
            </Position>
            <AltitudeMeters>697.20001220703125</AltitudeMeters>
            <DistanceMeters>7228.0050374642</DistanceMeters>
          </Trackpoint>
          <Trackpoint>
            <Time>2022-02-12T11:41:19.000Z</Time>
            <Position>
              <LatitudeDegrees>40.68636107258498668670654296875</LatitudeDegrees>
              <LongitudeDegrees>24.73492660559713840484619140625</LongitudeDegrees>
            </Position>
            <AltitudeMeters>697.20001220703125</AltitudeMeters>
            <DistanceMeters>7229.2513011395</DistanceMeters>
          </Trackpoint>
          <Trackpoint>
            <Time>2022-02-12T11:41:24.000Z</Time>
            <Position>
              <LatitudeDegrees>40.686373896896839141845703125</LatitudeDegrees>
              <LongitudeDegrees>24.73488721065223217010498046875</LongitudeDegrees>
            </Position>
            <AltitudeMeters>697</AltitudeMeters>
            <DistanceMeters>7232.8698106177</DistanceMeters>
          </Trackpoint>
          <Trackpoint>
            <Time>2022-02-12T11:41:27.000Z</Time>
            <Position>
              <LatitudeDegrees>40.68638504482805728912353515625</LatitudeDegrees>
              <LongitudeDegrees>24.7348566167056560516357421875</LongitudeDegrees>
            </Position>
            <AltitudeMeters>697</AltitudeMeters>
            <DistanceMeters>7235.7332542458</DistanceMeters>
          </Trackpoint>
          <Trackpoint>
            <Time>2022-02-12T11:41:30.000Z</Time>
            <Position>
              <LatitudeDegrees>40.68640172481536865234375</LatitudeDegrees>
              <LongitudeDegrees>24.73483289591968059539794921875</LongitudeDegrees>
            </Position>
            <AltitudeMeters>696.79998779296875</AltitudeMeters>
            <DistanceMeters>7238.4643425166</DistanceMeters>
          </Trackpoint>
          <Trackpoint>
            <Time>2022-02-12T11:41:32.000Z</Time>
            <Position>
              <LatitudeDegrees>40.686424858868122100830078125</LatitudeDegrees>
              <LongitudeDegrees>24.73480976186692714691162109375</LongitudeDegrees>
            </Position>
            <AltitudeMeters>697</AltitudeMeters>
            <DistanceMeters>7241.6952508051</DistanceMeters>
          </Trackpoint>
          <Trackpoint>
            <Time>2022-02-12T11:41:38.000Z</Time>
            <Position>
              <LatitudeDegrees>40.6864723004400730133056640625</LatitudeDegrees>
              <LongitudeDegrees>24.73474991507828235626220703125</LongitudeDegrees>
            </Position>
            <AltitudeMeters>697.4000244140625</AltitudeMeters>
            <DistanceMeters>7249.0030461012</DistanceMeters>
          </Trackpoint>
          <Trackpoint>
            <Time>2022-02-12T11:41:39.000Z</Time>
            <Position>
              <LatitudeDegrees>40.6864790059626102447509765625</LatitudeDegrees>
              <LongitudeDegrees>24.73474069498479366302490234375</LongitudeDegrees>
            </Position>
            <AltitudeMeters>697.4000244140625</AltitudeMeters>
            <DistanceMeters>7250.0781506472</DistanceMeters>
          </Trackpoint>
          <Trackpoint>
            <Time>2022-02-12T11:41:40.000Z</Time>
            <Position>
              <LatitudeDegrees>40.68648529238998889923095703125</LatitudeDegrees>
              <LongitudeDegrees>24.73473030142486095428466796875</LongitudeDegrees>
            </Position>
            <AltitudeMeters>697.4000244140625</AltitudeMeters>
            <DistanceMeters>7251.1944617818</DistanceMeters>
          </Trackpoint>
          <Trackpoint>
            <Time>2022-02-12T11:41:44.000Z</Time>
            <Position>
              <LatitudeDegrees>40.68651278503239154815673828125</LatitudeDegrees>
              <LongitudeDegrees>24.73469140939414501190185546875</LongitudeDegrees>
            </Position>
            <AltitudeMeters>697.4000244140625</AltitudeMeters>
            <DistanceMeters>7255.6818965134</DistanceMeters>
          </Trackpoint>
          <Trackpoint>
            <Time>2022-02-12T11:41:49.000Z</Time>
            <Position>
              <LatitudeDegrees>40.6865614838898181915283203125</LatitudeDegrees>
              <LongitudeDegrees>24.73464949987828731536865234375</LongitudeDegrees>
            </Position>
            <AltitudeMeters>697.4000244140625</AltitudeMeters>
            <DistanceMeters>7262.1548830498</DistanceMeters>
          </Trackpoint>
          <Trackpoint>
            <Time>2022-02-12T11:41:55.000Z</Time>
            <Position>
              <LatitudeDegrees>40.68662426434457302093505859375</LatitudeDegrees>
              <LongitudeDegrees>24.73460138775408267974853515625</LongitudeDegrees>
            </Position>
            <AltitudeMeters>697.4000244140625</AltitudeMeters>
            <DistanceMeters>7270.2366243794</DistanceMeters>
          </Trackpoint>
          <Trackpoint>
            <Time>2022-02-12T11:41:59.000Z</Time>
            <Position>
              <LatitudeDegrees>40.6866473145782947540283203125</LatitudeDegrees>
              <LongitudeDegrees>24.73457087762653827667236328125</LongitudeDegrees>
            </Position>
            <AltitudeMeters>697.79998779296875</AltitudeMeters>
            <DistanceMeters>7273.871318567</DistanceMeters>
          </Trackpoint>
          <Trackpoint>
            <Time>2022-02-12T11:42:04.000Z</Time>
            <Position>
              <LatitudeDegrees>40.6866955943405628204345703125</LatitudeDegrees>
              <LongitudeDegrees>24.7345119528472423553466796875</LongitudeDegrees>
            </Position>
            <AltitudeMeters>698.20001220703125</AltitudeMeters>
            <DistanceMeters>7281.1926936955</DistanceMeters>
          </Trackpoint>
          <Trackpoint>
            <Time>2022-02-12T11:42:07.000Z</Time>
            <Position>
              <LatitudeDegrees>40.68672032095491886138916015625</LatitudeDegrees>
              <LongitudeDegrees>24.7344747371971607208251953125</LongitudeDegrees>
            </Position>
            <AltitudeMeters>698.4000244140625</AltitudeMeters>
            <DistanceMeters>7285.3673850058</DistanceMeters>
          </Trackpoint>
          <Trackpoint>
            <Time>2022-02-12T11:42:09.000Z</Time>
            <Position>
              <LatitudeDegrees>40.6867344863712787628173828125</LatitudeDegrees>
              <LongitudeDegrees>24.7344723902642726898193359375</LongitudeDegrees>
            </Position>
            <AltitudeMeters>698.5999755859375</AltitudeMeters>
            <DistanceMeters>7286.9574860731</DistanceMeters>
          </Trackpoint>
          <Trackpoint>
            <Time>2022-09-18T08:44:09.000Z</Time>
            <Position>
              <LatitudeDegrees>40.68577685393393039703369140625</LatitudeDegrees>
              <LongitudeDegrees>24.736257232725620269775390625</LongitudeDegrees>
            </Position>
            <AltitudeMeters>700</AltitudeMeters>
            <DistanceMeters>7471.4917317743</DistanceMeters>
          </Trackpoint>
          <Trackpoint>
            <Time>2022-09-18T08:44:10.000Z</Time>
            <Position>
              <LatitudeDegrees>40.685781799256801605224609375</LatitudeDegrees>
              <LongitudeDegrees>24.73625966347754001617431640625</LongitudeDegrees>
            </Position>
            <AltitudeMeters>699.79998779296875</AltitudeMeters>
            <DistanceMeters>7472.0851734154</DistanceMeters>
          </Trackpoint>
          <Trackpoint>
            <Time>2022-09-18T08:44:16.000Z</Time>
            <Position>
              <LatitudeDegrees>40.6858503632247447967529296875</LatitudeDegrees>
              <LongitudeDegrees>24.736227728426456451416015625</LongitudeDegrees>
            </Position>
            <AltitudeMeters>699.4000244140625</AltitudeMeters>
            <DistanceMeters>7480.1786383423</DistanceMeters>
          </Trackpoint>
          <Trackpoint>
            <Time>2022-09-18T08:44:17.000Z</Time>
            <Position>
              <LatitudeDegrees>40.68586201407015323638916015625</LatitudeDegrees>
              <LongitudeDegrees>24.736220352351665496826171875</LongitudeDegrees>
            </Position>
            <AltitudeMeters>699.4000244140625</AltitudeMeters>
            <DistanceMeters>7481.6197898202</DistanceMeters>
          </Trackpoint>
          <Trackpoint>
            <Time>2022-09-18T08:44:20.000Z</Time>
            <Position>
              <LatitudeDegrees>40.68589051254093647003173828125</LatitudeDegrees>
              <LongitudeDegrees>24.7361916862428188323974609375</LongitudeDegrees>
            </Position>
            <AltitudeMeters>700</AltitudeMeters>
            <DistanceMeters>7485.609780393</DistanceMeters>
          </Trackpoint>
          <Trackpoint>
            <Time>2022-09-18T08:44:26.000Z</Time>
            <Position>
              <LatitudeDegrees>40.68592404015362262725830078125</LatitudeDegrees>
              <LongitudeDegrees>24.7361001558601856231689453125</LongitudeDegrees>
            </Position>
            <AltitudeMeters>700.4000244140625</AltitudeMeters>
            <DistanceMeters>7494.1890666741</DistanceMeters>
          </Trackpoint>
          <Trackpoint>
            <Time>2022-09-18T08:44:28.000Z</Time>
            <Position>
              <LatitudeDegrees>40.68593426607549190521240234375</LatitudeDegrees>
              <LongitudeDegrees>24.73607408814132213592529296875</LongitudeDegrees>
            </Position>
            <AltitudeMeters>700.4000244140625</AltitudeMeters>
            <DistanceMeters>7496.6652374892</DistanceMeters>
          </Trackpoint>
          <Trackpoint>
            <Time>2022-09-18T08:44:34.000Z</Time>
            <Position>
              <LatitudeDegrees>40.68594918586313724517822265625</LatitudeDegrees>
              <LongitudeDegrees>24.73597417585551738739013671875</LongitudeDegrees>
            </Position>
            <AltitudeMeters>700.4000244140625</AltitudeMeters>
            <DistanceMeters>7505.2602974301</DistanceMeters>
          </Trackpoint>
          <Trackpoint>
            <Time>2022-09-18T08:44:39.000Z</Time>
            <Position>
              <LatitudeDegrees>40.68596041761338710784912109375</LatitudeDegrees>
              <LongitudeDegrees>24.73591701127588748931884765625</LongitudeDegrees>
            </Position>
            <AltitudeMeters>700.5999755859375</AltitudeMeters>
            <DistanceMeters>7510.2444463342</DistanceMeters>
          </Trackpoint>
          <Trackpoint>
            <Time>2022-09-18T08:44:42.000Z</Time>
            <Position>
              <LatitudeDegrees>40.68596427328884601593017578125</LatitudeDegrees>
              <LongitudeDegrees>24.735905192792415618896484375</LongitudeDegrees>
            </Position>
            <AltitudeMeters>700.5999755859375</AltitudeMeters>
            <DistanceMeters>7511.3279175787</DistanceMeters>
          </Trackpoint>
          <Trackpoint>
            <Time>2022-09-18T08:44:47.000Z</Time>
            <Position>
              <LatitudeDegrees>40.68597533740103244781494140625</LatitudeDegrees>
              <LongitudeDegrees>24.735907875001430511474609375</LongitudeDegrees>
            </Position>
            <AltitudeMeters>700.4000244140625</AltitudeMeters>
            <DistanceMeters>7512.5814060315</DistanceMeters>
          </Trackpoint>
          <Trackpoint>
            <Time>2022-09-18T08:44:49.000Z</Time>
            <Position>
              <LatitudeDegrees>40.68597718141973018646240234375</LatitudeDegrees>
              <LongitudeDegrees>24.735915921628475189208984375</LongitudeDegrees>
            </Position>
            <AltitudeMeters>700.5999755859375</AltitudeMeters>
            <DistanceMeters>7513.292520847</DistanceMeters>
          </Trackpoint>
          <Trackpoint>
            <Time>2022-09-18T08:44:55.000Z</Time>
            <Position>
              <LatitudeDegrees>40.68601506762206554412841796875</LatitudeDegrees>
              <LongitudeDegrees>24.735907204449176788330078125</LongitudeDegrees>
            </Position>
            <AltitudeMeters>700.4000244140625</AltitudeMeters>
            <DistanceMeters>7517.5729443196</DistanceMeters>
          </Trackpoint>
          <Trackpoint>
            <Time>2022-09-18T08:44:56.000Z</Time>
            <Position>
              <LatitudeDegrees>40.68602462299168109893798828125</LatitudeDegrees>
              <LongitudeDegrees>24.73590829409658908843994140625</LongitudeDegrees>
            </Position>
            <AltitudeMeters>700.4000244140625</AltitudeMeters>
            <DistanceMeters>7518.6396165429</DistanceMeters>
          </Trackpoint>
          <Trackpoint>
            <Time>2022-09-18T08:45:02.000Z</Time>
            <Position>
              <LatitudeDegrees>40.6860642693936824798583984375</LatitudeDegrees>
              <LongitudeDegrees>24.73589203320443630218505859375</LongitudeDegrees>
            </Position>
            <AltitudeMeters>700.4000244140625</AltitudeMeters>
            <DistanceMeters>7523.2618628438</DistanceMeters>
          </Trackpoint>
          <Trackpoint>
            <Time>2022-09-18T08:45:06.000Z</Time>
            <Position>
              <LatitudeDegrees>40.68608832545578479766845703125</LatitudeDegrees>
              <LongitudeDegrees>24.73586060106754302978515625</LongitudeDegrees>
            </Position>
            <AltitudeMeters>700.5999755859375</AltitudeMeters>
            <DistanceMeters>7527.0295252716</DistanceMeters>
          </Trackpoint>
          <Trackpoint>
            <Time>2022-09-18T08:45:07.000Z</Time>
            <Position>
              <LatitudeDegrees>40.68609218113124370574951171875</LatitudeDegrees>
              <LongitudeDegrees>24.73585431464016437530517578125</LongitudeDegrees>
            </Position>
            <AltitudeMeters>700.4000244140625</AltitudeMeters>
            <DistanceMeters>7527.7081517511</DistanceMeters>
          </Trackpoint>
          <Trackpoint>
            <Time>2022-09-18T08:45:13.000Z</Time>
            <Position>
              <LatitudeDegrees>40.686095617711544036865234375</LatitudeDegrees>
              <LongitudeDegrees>24.73583704791963100433349609375</LongitudeDegrees>
            </Position>
            <AltitudeMeters>700</AltitudeMeters>
            <DistanceMeters>7529.2106560309</DistanceMeters>
          </Trackpoint>
          <Trackpoint>
            <Time>2022-09-18T08:45:16.000Z</Time>
            <Position>
              <LatitudeDegrees>40.6860964559018611907958984375</LatitudeDegrees>
              <LongitudeDegrees>24.7358379699289798736572265625</LongitudeDegrees>
            </Position>
            <AltitudeMeters>700</AltitudeMeters>
            <DistanceMeters>7529.3450440992</DistanceMeters>
          </Trackpoint>
          <Trackpoint>
            <Time>2022-09-18T08:45:20.000Z</Time>
            <Position>
              <LatitudeDegrees>40.68609687499701976776123046875</LatitudeDegrees>
              <LongitudeDegrees>24.7358443401753902435302734375</LongitudeDegrees>
            </Position>
            <AltitudeMeters>699.5999755859375</AltitudeMeters>
            <DistanceMeters>7529.8825963722</DistanceMeters>
          </Trackpoint>
          <Trackpoint>
            <Time>2022-09-18T08:46:26.000Z</Time>
            <Position>
              <LatitudeDegrees>40.68608430214226245880126953125</LatitudeDegrees>
              <LongitudeDegrees>24.73580150865018367767333984375</LongitudeDegrees>
            </Position>
            <AltitudeMeters>701.79998779296875</AltitudeMeters>
            <DistanceMeters>7533.7577759972</DistanceMeters>
          </Trackpoint>
          <Trackpoint>
            <Time>2022-09-18T08:46:27.000Z</Time>
            <Position>
              <LatitudeDegrees>40.68608321249485015869140625</LatitudeDegrees>
              <LongitudeDegrees>24.7357940487563610076904296875</LongitudeDegrees>
            </Position>
            <AltitudeMeters>701.79998779296875</AltitudeMeters>
            <DistanceMeters>7534.4022785313</DistanceMeters>
          </Trackpoint>
          <Trackpoint>
            <Time>2022-09-18T08:46:30.000Z</Time>
            <Position>
              <LatitudeDegrees>40.68606368266046047210693359375</LatitudeDegrees>
              <LongitudeDegrees>24.73568801768124103546142578125</LongitudeDegrees>
            </Position>
            <AltitudeMeters>701.5999755859375</AltitudeMeters>
            <DistanceMeters>7543.6110486927</DistanceMeters>
          </Trackpoint>
          <Trackpoint>
            <Time>2022-09-18T08:46:31.000Z</Time>
            <Position>
              <LatitudeDegrees>40.68606309592723846435546875</LatitudeDegrees>
              <LongitudeDegrees>24.735639654099941253662109375</LongitudeDegrees>
            </Position>
            <AltitudeMeters>701.4000244140625</AltitudeMeters>
            <DistanceMeters>7547.6927751704</DistanceMeters>
          </Trackpoint>
          <Trackpoint>
            <Time>2022-09-18T08:46:34.000Z</Time>
            <Position>
              <LatitudeDegrees>40.686080195009708404541015625</LatitudeDegrees>
              <LongitudeDegrees>24.73551183007657527923583984375</LongitudeDegrees>
            </Position>
            <AltitudeMeters>701.4000244140625</AltitudeMeters>
            <DistanceMeters>7558.6476697815</DistanceMeters>
          </Trackpoint>
          <Trackpoint>
            <Time>2022-09-18T08:46:35.000Z</Time>
            <Position>
              <LatitudeDegrees>40.68609486334025859832763671875</LatitudeDegrees>
              <LongitudeDegrees>24.73547293804585933685302734375</LongitudeDegrees>
            </Position>
            <AltitudeMeters>701.4000244140625</AltitudeMeters>
            <DistanceMeters>7562.3145190864</DistanceMeters>
          </Trackpoint>
          <Trackpoint>
            <Time>2022-09-18T08:46:38.000Z</Time>
            <Position>
              <LatitudeDegrees>40.68614046089351177215576171875</LatitudeDegrees>
              <LongitudeDegrees>24.735371433198451995849609375</LongitudeDegrees>
            </Position>
            <AltitudeMeters>701.79998779296875</AltitudeMeters>
            <DistanceMeters>7572.2723938311</DistanceMeters>
          </Trackpoint>
          <Trackpoint>
            <Time>2022-09-18T08:46:40.000Z</Time>
            <Position>
              <LatitudeDegrees>40.68617147393524646759033203125</LatitudeDegrees>
              <LongitudeDegrees>24.735301695764064788818359375</LongitudeDegrees>
            </Position>
            <AltitudeMeters>701.79998779296875</AltitudeMeters>
            <DistanceMeters>7579.0958148313</DistanceMeters>
          </Trackpoint>
          <Trackpoint>
            <Time>2022-09-18T08:46:41.000Z</Time>
            <Position>
              <LatitudeDegrees>40.68618739955127239227294921875</LatitudeDegrees>
              <LongitudeDegrees>24.735267497599124908447265625</LongitudeDegrees>
            </Position>
            <AltitudeMeters>701.5999755859375</AltitudeMeters>
            <DistanceMeters>7582.4822874923</DistanceMeters>
          </Trackpoint>
          <Trackpoint>
            <Time>2022-09-18T08:46:42.000Z</Time>
            <Position>
              <LatitudeDegrees>40.68620231933891773223876953125</LatitudeDegrees>
              <LongitudeDegrees>24.735235981643199920654296875</LongitudeDegrees>
            </Position>
            <AltitudeMeters>701.5999755859375</AltitudeMeters>
            <DistanceMeters>7585.6181690665</DistanceMeters>
          </Trackpoint>
          <Trackpoint>
            <Time>2022-09-18T08:46:44.000Z</Time>
            <Position>
              <LatitudeDegrees>40.686233080923557281494140625</LatitudeDegrees>
              <LongitudeDegrees>24.7351773083209991455078125</LongitudeDegrees>
            </Position>
            <AltitudeMeters>701.20001220703125</AltitudeMeters>
            <DistanceMeters>7591.6386945291</DistanceMeters>
          </Trackpoint>
          <Trackpoint>
            <Time>2022-09-18T08:46:46.000Z</Time>
            <Position>
              <LatitudeDegrees>40.6862560473382472991943359375</LatitudeDegrees>
              <LongitudeDegrees>24.73512810654938220977783203125</LongitudeDegrees>
            </Position>
            <AltitudeMeters>701</AltitudeMeters>
            <DistanceMeters>7596.5157039974</DistanceMeters>
          </Trackpoint>
          <Trackpoint>
            <Time>2022-09-18T08:46:47.000Z</Time>
            <Position>
              <LatitudeDegrees>40.68626828491687774658203125</LatitudeDegrees>
              <LongitudeDegrees>24.7350976802408695220947265625</LongitudeDegrees>
            </Position>
            <AltitudeMeters>701.20001220703125</AltitudeMeters>
            <DistanceMeters>7599.4229624227</DistanceMeters>
          </Trackpoint>
          <Trackpoint>
            <Time>2022-09-18T08:46:48.000Z</Time>
            <Position>
              <LatitudeDegrees>40.68628144450485706329345703125</LatitudeDegrees>
              <LongitudeDegrees>24.735064990818500518798828125</LongitudeDegrees>
            </Position>
            <AltitudeMeters>701.20001220703125</AltitudeMeters>
            <DistanceMeters>7602.5473043751</DistanceMeters>
          </Trackpoint>
          <Trackpoint>
            <Time>2022-09-18T08:46:49.000Z</Time>
            <Position>
              <LatitudeDegrees>40.6862939335405826568603515625</LatitudeDegrees>
              <LongitudeDegrees>24.735031463205814361572265625</LongitudeDegrees>
            </Position>
            <AltitudeMeters>701.20001220703125</AltitudeMeters>
            <DistanceMeters>7605.7004161976</DistanceMeters>
          </Trackpoint>
          <Trackpoint>
            <Time>2022-09-18T08:46:51.000Z</Time>
            <Position>
              <LatitudeDegrees>40.68632033653557300567626953125</LatitudeDegrees>
              <LongitudeDegrees>24.73496449179947376251220703125</LongitudeDegrees>
            </Position>
            <AltitudeMeters>701.4000244140625</AltitudeMeters>
            <DistanceMeters>7612.0707508465</DistanceMeters>
          </Trackpoint>
          <Trackpoint>
            <Time>2022-09-18T08:46:56.000Z</Time>
            <Position>
              <LatitudeDegrees>40.686424858868122100830078125</LatitudeDegrees>
              <LongitudeDegrees>24.73482434637844562530517578125</LongitudeDegrees>
            </Position>
            <AltitudeMeters>701</AltitudeMeters>
            <DistanceMeters>7628.6612830889</DistanceMeters>
          </Trackpoint>
          <Trackpoint>
            <Time>2022-09-18T08:47:00.000Z</Time>
            <Position>
              <LatitudeDegrees>40.686499960720539093017578125</LatitudeDegrees>
              <LongitudeDegrees>24.7347520105540752410888671875</LongitudeDegrees>
            </Position>
            <AltitudeMeters>701</AltitudeMeters>
            <DistanceMeters>7639.0126543548</DistanceMeters>
          </Trackpoint>
          <Trackpoint>
            <Time>2022-09-18T08:47:03.000Z</Time>
            <Position>
              <LatitudeDegrees>40.68654597736895084381103515625</LatitudeDegrees>
              <LongitudeDegrees>24.7346899844706058502197265625</LongitudeDegrees>
            </Position>
            <AltitudeMeters>701.20001220703125</AltitudeMeters>
            <DistanceMeters>7646.3364958384</DistanceMeters>
          </Trackpoint>
          <Trackpoint>
            <Time>2022-09-18T08:47:09.000Z</Time>
            <Position>
              <LatitudeDegrees>40.68666399456560611724853515625</LatitudeDegrees>
              <LongitudeDegrees>24.7345733083784580230712890625</LongitudeDegrees>
            </Position>
            <AltitudeMeters>701.4000244140625</AltitudeMeters>
            <DistanceMeters>7662.7535811956</DistanceMeters>
          </Trackpoint>
          <Trackpoint>
            <Time>2022-09-18T08:47:10.000Z</Time>
            <Position>
              <LatitudeDegrees>40.686680339276790618896484375</LatitudeDegrees>
              <LongitudeDegrees>24.73456249572336673736572265625</LongitudeDegrees>
            </Position>
            <AltitudeMeters>701.5999755859375</AltitudeMeters>
            <DistanceMeters>7664.789460634</DistanceMeters>
          </Trackpoint>
          <Trackpoint>
            <Time>2022-09-18T08:47:12.000Z</Time>
            <Position>
              <LatitudeDegrees>40.686697773635387420654296875</LatitudeDegrees>
              <LongitudeDegrees>24.73455243743956089019775390625</LongitudeDegrees>
            </Position>
            <AltitudeMeters>701.79998779296875</AltitudeMeters>
            <DistanceMeters>7666.9058060491</DistanceMeters>
          </Trackpoint>
          <Trackpoint>
            <Time>2022-09-18T08:47:13.000Z</Time>
            <Position>
              <LatitudeDegrees>40.6867083348333835601806640625</LatitudeDegrees>
              <LongitudeDegrees>24.73453869111835956573486328125</LongitudeDegrees>
            </Position>
            <AltitudeMeters>702</AltitudeMeters>
            <DistanceMeters>7668.5571942791</DistanceMeters>
          </Trackpoint>
          <Trackpoint>
            <Time>2022-09-18T08:47:15.000Z</Time>
            <Position>
              <LatitudeDegrees>40.686729289591312408447265625</LatitudeDegrees>
              <LongitudeDegrees>24.73449879325926303863525390625</LongitudeDegrees>
            </Position>
            <AltitudeMeters>702.20001220703125</AltitudeMeters>
            <DistanceMeters>7672.6521731504</DistanceMeters>
          </Trackpoint>
          <Trackpoint>
            <Time>2022-09-18T08:47:16.000Z</Time>
            <Position>
              <LatitudeDegrees>40.6867391802370548248291015625</LatitudeDegrees>
              <LongitudeDegrees>24.7344794310629367828369140625</LongitudeDegrees>
            </Position>
            <AltitudeMeters>702.20001220703125</AltitudeMeters>
            <DistanceMeters>7674.6226890399</DistanceMeters>
          </Trackpoint>
          <Trackpoint>
            <Time>2022-09-18T08:47:21.000Z</Time>
            <Position>
              <LatitudeDegrees>40.68676575087010860443115234375</LatitudeDegrees>
              <LongitudeDegrees>24.7343523614108562469482421875</LongitudeDegrees>
            </Position>
            <AltitudeMeters>702.4000244140625</AltitudeMeters>
            <DistanceMeters>7685.7477161294</DistanceMeters>
          </Trackpoint>
          <Trackpoint>
            <Time>2022-09-18T08:47:22.000Z</Time>
            <Position>
              <LatitudeDegrees>40.6867747195065021514892578125</LatitudeDegrees>
              <LongitudeDegrees>24.73433081991970539093017578125</LongitudeDegrees>
            </Position>
            <AltitudeMeters>702.4000244140625</AltitudeMeters>
            <DistanceMeters>7687.8231308985</DistanceMeters>
          </Trackpoint>
          <Trackpoint>
            <Time>2022-09-18T08:47:24.000Z</Time>
            <Position>
              <LatitudeDegrees>40.68679793737828731536865234375</LatitudeDegrees>
              <LongitudeDegrees>24.7343241982161998748779296875</LongitudeDegrees>
            </Position>
            <AltitudeMeters>702.20001220703125</AltitudeMeters>
            <DistanceMeters>7690.4668553863</DistanceMeters>
          </Trackpoint>
          <Trackpoint>
            <Time>2022-09-18T08:47:25.000Z</Time>
            <Position>
              <LatitudeDegrees>40.6868082471191883087158203125</LatitudeDegrees>
              <LongitudeDegrees>24.7343324124813079833984375</LongitudeDegrees>
            </Position>
            <AltitudeMeters>701.79998779296875</AltitudeMeters>
            <DistanceMeters>7691.8039997824</DistanceMeters>
          </Trackpoint>
          <Trackpoint>
            <Time>2022-09-18T08:47:27.000Z</Time>
            <Position>
              <LatitudeDegrees>40.6868263520300388336181640625</LatitudeDegrees>
              <LongitudeDegrees>24.73435780964791774749755859375</LongitudeDegrees>
            </Position>
            <AltitudeMeters>701.4000244140625</AltitudeMeters>
            <DistanceMeters>7694.7452262669</DistanceMeters>
          </Trackpoint>
          <Trackpoint>
            <Time>2022-09-18T08:47:29.000Z</Time>
            <Position>
              <LatitudeDegrees>40.686847977340221405029296875</LatitudeDegrees>
              <LongitudeDegrees>24.7343721427023410797119140625</LongitudeDegrees>
            </Position>
            <AltitudeMeters>700.79998779296875</AltitudeMeters>
            <DistanceMeters>7697.439698657</DistanceMeters>
          </Trackpoint>
          <Trackpoint>
            <Time>2022-09-18T08:47:31.000Z</Time>
            <Position>
              <LatitudeDegrees>40.6868669204413890838623046875</LatitudeDegrees>
              <LongitudeDegrees>24.734364934265613555908203125</LongitudeDegrees>
            </Position>
            <AltitudeMeters>700.20001220703125</AltitudeMeters>
            <DistanceMeters>7699.6335607184</DistanceMeters>
          </Trackpoint>
          <Trackpoint>
            <Time>2022-09-18T08:47:32.000Z</Time>
            <Position>
              <LatitudeDegrees>40.68687169812619686126708984375</LatitudeDegrees>
              <LongitudeDegrees>24.7343433089554309844970703125</LongitudeDegrees>
            </Position>
            <AltitudeMeters>699.79998779296875</AltitudeMeters>
            <DistanceMeters>7701.5340950058</DistanceMeters>
          </Trackpoint>
          <Trackpoint>
            <Time>2022-09-18T08:47:33.000Z</Time>
            <Position>
              <LatitudeDegrees>40.6868769787251949310302734375</LatitudeDegrees>
              <LongitudeDegrees>24.73431657068431377410888671875</LongitudeDegrees>
            </Position>
            <AltitudeMeters>699.4000244140625</AltitudeMeters>
            <DistanceMeters>7703.8656408491</DistanceMeters>
          </Trackpoint>
          <Trackpoint>
            <Time>2022-09-18T08:47:35.000Z</Time>
            <Position>
              <LatitudeDegrees>40.68689147941768169403076171875</LatitudeDegrees>
              <LongitudeDegrees>24.73425689153373241424560546875</LongitudeDegrees>
            </Position>
            <AltitudeMeters>698.4000244140625</AltitudeMeters>
            <DistanceMeters>7709.153943672</DistanceMeters>
          </Trackpoint>
          <Trackpoint>
            <Time>2022-09-18T08:47:38.000Z</Time>
            <Position>
              <LatitudeDegrees>40.68693841807544231414794921875</LatitudeDegrees>
              <LongitudeDegrees>24.73419570364058017730712890625</LongitudeDegrees>
            </Position>
            <AltitudeMeters>697.20001220703125</AltitudeMeters>
            <DistanceMeters>7716.4993304387</DistanceMeters>
          </Trackpoint>
          <Trackpoint>
            <Time>2022-09-18T08:47:40.000Z</Time>
            <Position>
              <LatitudeDegrees>40.686974711716175079345703125</LatitudeDegrees>
              <LongitudeDegrees>24.7341620922088623046875</LongitudeDegrees>
            </Position>
            <AltitudeMeters>696.5999755859375</AltitudeMeters>
            <DistanceMeters>7721.4352342309</DistanceMeters>
          </Trackpoint>
          <Trackpoint>
            <Time>2022-09-18T08:47:42.000Z</Time>
            <Position>
              <LatitudeDegrees>40.68702072836458683013916015625</LatitudeDegrees>
              <LongitudeDegrees>24.73413434810936450958251953125</LongitudeDegrees>
            </Position>
            <AltitudeMeters>695.79998779296875</AltitudeMeters>
            <DistanceMeters>7727.0667196896</DistanceMeters>
          </Trackpoint>
          <Trackpoint>
            <Time>2022-09-18T08:47:43.000Z</Time>
            <Position>
              <LatitudeDegrees>40.68703807890415191650390625</LatitudeDegrees>
              <LongitudeDegrees>24.7341263853013515472412109375</LongitudeDegrees>
            </Position>
            <AltitudeMeters>695.4000244140625</AltitudeMeters>
            <DistanceMeters>7729.1114508195</DistanceMeters>
          </Trackpoint>
          <Trackpoint>
            <Time>2022-09-18T08:47:51.000Z</Time>
            <Position>
              <LatitudeDegrees>40.6870670802891254425048828125</LatitudeDegrees>
              <LongitudeDegrees>24.734108112752437591552734375</LongitudeDegrees>
            </Position>
            <AltitudeMeters>693.79998779296875</AltitudeMeters>
            <DistanceMeters>7732.6872847424</DistanceMeters>
          </Trackpoint>
          <Trackpoint>
            <Time>2022-09-18T08:47:52.000Z</Time>
            <Position>
              <LatitudeDegrees>40.68707688711583614349365234375</LatitudeDegrees>
              <LongitudeDegrees>24.73411037586629390716552734375</LongitudeDegrees>
            </Position>
            <AltitudeMeters>693.79998779296875</AltitudeMeters>
            <DistanceMeters>7733.791395389</DistanceMeters>
          </Trackpoint>
          <Trackpoint>
            <Time>2022-09-18T08:47:57.000Z</Time>
            <Position>
              <LatitudeDegrees>40.6871783919632434844970703125</LatitudeDegrees>
              <LongitudeDegrees>24.7341223619878292083740234375</LongitudeDegrees>
            </Position>
            <AltitudeMeters>693.4000244140625</AltitudeMeters>
            <DistanceMeters>7745.1342578661</DistanceMeters>
          </Trackpoint>
          <Trackpoint>
            <Time>2022-09-18T08:47:59.000Z</Time>
            <Position>
              <LatitudeDegrees>40.68722248077392578125</LatitudeDegrees>
              <LongitudeDegrees>24.7341119684278964996337890625</LongitudeDegrees>
            </Position>
            <AltitudeMeters>692.5999755859375</AltitudeMeters>
            <DistanceMeters>7750.1193125673</DistanceMeters>
          </Trackpoint>
          <Trackpoint>
            <Time>2022-09-18T08:48:01.000Z</Time>
            <Position>
              <LatitudeDegrees>40.68726430647075176239013671875</LatitudeDegrees>
              <LongitudeDegrees>24.7340834699571132659912109375</LongitudeDegrees>
            </Position>
            <AltitudeMeters>691.5999755859375</AltitudeMeters>
            <DistanceMeters>7755.3595856962</DistanceMeters>
          </Trackpoint>
          <Trackpoint>
            <Time>2022-09-18T08:48:03.000Z</Time>
            <Position>
              <LatitudeDegrees>40.6873042881488800048828125</LatitudeDegrees>
              <LongitudeDegrees>24.7340502776205539703369140625</LongitudeDegrees>
            </Position>
            <AltitudeMeters>690.79998779296875</AltitudeMeters>
            <DistanceMeters>7760.6179213713</DistanceMeters>
          </Trackpoint>
          <Trackpoint>
            <Time>2022-09-18T08:48:05.000Z</Time>
            <Position>
              <LatitudeDegrees>40.6873403303325176239013671875</LatitudeDegrees>
              <LongitudeDegrees>24.73400660790503025054931640625</LongitudeDegrees>
            </Position>
            <AltitudeMeters>690.4000244140625</AltitudeMeters>
            <DistanceMeters>7766.0651987825</DistanceMeters>
          </Trackpoint>
          <Trackpoint>
            <Time>2022-09-18T08:48:08.000Z</Time>
            <Position>
              <LatitudeDegrees>40.68739322014153003692626953125</LatitudeDegrees>
              <LongitudeDegrees>24.7339165024459362030029296875</LongitudeDegrees>
            </Position>
            <AltitudeMeters>689.4000244140625</AltitudeMeters>
            <DistanceMeters>7775.6821651929</DistanceMeters>
          </Trackpoint>
          <Trackpoint>
            <Time>2022-09-18T08:48:09.000Z</Time>
            <Position>
              <LatitudeDegrees>40.68741166032850742340087890625</LatitudeDegrees>
              <LongitudeDegrees>24.73388490267097949981689453125</LongitudeDegrees>
            </Position>
            <AltitudeMeters>689.20001220703125</AltitudeMeters>
            <DistanceMeters>7779.0472381283</DistanceMeters>
          </Trackpoint>
          <Trackpoint>
            <Time>2022-09-18T08:48:15.000Z</Time>
            <Position>
              <LatitudeDegrees>40.687498748302459716796875</LatitudeDegrees>
              <LongitudeDegrees>24.7337327711284160614013671875</LongitudeDegrees>
            </Position>
            <AltitudeMeters>688.4000244140625</AltitudeMeters>
            <DistanceMeters>7795.1345620476</DistanceMeters>
          </Trackpoint>
          <Trackpoint>
            <Time>2022-09-18T08:48:17.000Z</Time>
            <Position>
              <LatitudeDegrees>40.68753831088542938232421875</LatitudeDegrees>
              <LongitudeDegrees>24.7336975671350955963134765625</LongitudeDegrees>
            </Position>
            <AltitudeMeters>688.4000244140625</AltitudeMeters>
            <DistanceMeters>7800.4458668601</DistanceMeters>
          </Trackpoint>
          <Trackpoint>
            <Time>2022-09-18T08:48:23.000Z</Time>
            <Position>
              <LatitudeDegrees>40.6876675598323345184326171875</LatitudeDegrees>
              <LongitudeDegrees>24.73359287716448307037353515625</LongitudeDegrees>
            </Position>
            <AltitudeMeters>688.79998779296875</AltitudeMeters>
            <DistanceMeters>7817.3282927166</DistanceMeters>
          </Trackpoint>
          <Trackpoint>
            <Time>2022-09-18T08:48:24.000Z</Time>
            <Position>
              <LatitudeDegrees>40.68768960423767566680908203125</LatitudeDegrees>
              <LongitudeDegrees>24.73357963375747203826904296875</LongitudeDegrees>
            </Position>
            <AltitudeMeters>689</AltitudeMeters>
            <DistanceMeters>7820.0261143589</DistanceMeters>
          </Trackpoint>
          <Trackpoint>
            <Time>2022-09-18T08:48:29.000Z</Time>
            <Position>
              <LatitudeDegrees>40.68778297863900661468505859375</LatitudeDegrees>
              <LongitudeDegrees>24.73352305591106414794921875</LongitudeDegrees>
            </Position>
            <AltitudeMeters>690</AltitudeMeters>
            <DistanceMeters>7831.4633206335</DistanceMeters>
          </Trackpoint>
          <Trackpoint>
            <Time>2022-09-18T08:48:31.000Z</Time>
            <Position>
              <LatitudeDegrees>40.6878298334777355194091796875</LatitudeDegrees>
              <LongitudeDegrees>24.7334796376526355743408203125</LongitudeDegrees>
            </Position>
            <AltitudeMeters>690</AltitudeMeters>
            <DistanceMeters>7837.8371980971</DistanceMeters>
          </Trackpoint>
          <Trackpoint>
            <Time>2022-09-18T08:48:33.000Z</Time>
            <Position>
              <LatitudeDegrees>40.68787585012614727020263671875</LatitudeDegrees>
              <LongitudeDegrees>24.7334333695471286773681640625</LongitudeDegrees>
            </Position>
            <AltitudeMeters>690</AltitudeMeters>
            <DistanceMeters>7844.2780187889</DistanceMeters>
          </Trackpoint>
          <Trackpoint>
            <Time>2022-09-18T08:48:34.000Z</Time>
            <Position>
              <LatitudeDegrees>40.68789445795118808746337890625</LatitudeDegrees>
              <LongitudeDegrees>24.73341702483594417572021484375</LongitudeDegrees>
            </Position>
            <AltitudeMeters>690</AltitudeMeters>
            <DistanceMeters>7846.7632898581</DistanceMeters>
          </Trackpoint>
          <Trackpoint>
            <Time>2022-09-18T08:48:36.000Z</Time>
            <Position>
              <LatitudeDegrees>40.6879273988306522369384765625</LatitudeDegrees>
              <LongitudeDegrees>24.73337553441524505615234375</LongitudeDegrees>
            </Position>
            <AltitudeMeters>690</AltitudeMeters>
            <DistanceMeters>7851.8345478591</DistanceMeters>
          </Trackpoint>
          <Trackpoint>
            <Time>2022-09-18T08:48:42.000Z</Time>
            <Position>
              <LatitudeDegrees>40.6880340166389942169189453125</LatitudeDegrees>
              <LongitudeDegrees>24.73326824605464935302734375</LongitudeDegrees>
            </Position>
            <AltitudeMeters>689.5999755859375</AltitudeMeters>
            <DistanceMeters>7866.761305919</DistanceMeters>
          </Trackpoint>
          <Trackpoint>
            <Time>2022-09-18T08:48:43.000Z</Time>
            <Position>
              <LatitudeDegrees>40.68805597722530364990234375</LatitudeDegrees>
              <LongitudeDegrees>24.7332486324012279510498046875</LongitudeDegrees>
            </Position>
            <AltitudeMeters>689.4000244140625</AltitudeMeters>
            <DistanceMeters>7869.7117285484</DistanceMeters>
          </Trackpoint>
          <Trackpoint>
            <Time>2022-09-18T08:48:49.000Z</Time>
            <Position>
              <LatitudeDegrees>40.68817391060292720794677734375</LatitudeDegrees>
              <LongitudeDegrees>24.733140505850315093994140625</LongitudeDegrees>
            </Position>
            <AltitudeMeters>688.20001220703125</AltitudeMeters>
            <DistanceMeters>7885.6982611154</DistanceMeters>
          </Trackpoint>
          <Trackpoint>
            <Time>2022-09-18T08:48:53.000Z</Time>
            <Position>
              <LatitudeDegrees>40.6882160715758800506591796875</LatitudeDegrees>
              <LongitudeDegrees>24.7330568544566631317138671875</LongitudeDegrees>
            </Position>
            <AltitudeMeters>687.20001220703125</AltitudeMeters>
            <DistanceMeters>7894.1753684252</DistanceMeters>
          </Trackpoint>
          <Trackpoint>
            <Time>2022-09-18T08:48:54.000Z</Time>
            <Position>
              <LatitudeDegrees>40.6882162392139434814453125</LatitudeDegrees>
              <LongitudeDegrees>24.73303623497486114501953125</LongitudeDegrees>
            </Position>
            <AltitudeMeters>687.20001220703125</AltitudeMeters>
            <DistanceMeters>7895.9172368717</DistanceMeters>
          </Trackpoint>
          <Trackpoint>
            <Time>2022-09-18T08:48:55.000Z</Time>
            <Position>
              <LatitudeDegrees>40.68821598775684833526611328125</LatitudeDegrees>
              <LongitudeDegrees>24.73301821388304233551025390625</LongitudeDegrees>
            </Position>
            <AltitudeMeters>687</AltitudeMeters>
            <DistanceMeters>7897.4376643017</DistanceMeters>
          </Trackpoint>
          <Trackpoint>
            <Time>2022-09-18T08:48:57.000Z</Time>
            <Position>
              <LatitudeDegrees>40.688229314982891082763671875</LatitudeDegrees>
              <LongitudeDegrees>24.7329834289848804473876953125</LongitudeDegrees>
            </Position>
            <AltitudeMeters>686.20001220703125</AltitudeMeters>
            <DistanceMeters>7900.7267419201</DistanceMeters>
          </Trackpoint>
          <Trackpoint>
            <Time>2022-09-18T08:48:58.000Z</Time>
            <Position>
              <LatitudeDegrees>40.6882449053227901458740234375</LatitudeDegrees>
              <LongitudeDegrees>24.7329680062830448150634765625</LongitudeDegrees>
            </Position>
            <AltitudeMeters>685.79998779296875</AltitudeMeters>
            <DistanceMeters>7902.8936844091</DistanceMeters>
          </Trackpoint>
          <Trackpoint>
            <Time>2022-09-18T08:48:59.000Z</Time>
            <Position>
              <LatitudeDegrees>40.6882573105394840240478515625</LatitudeDegrees>
              <LongitudeDegrees>24.7329545952379703521728515625</LongitudeDegrees>
            </Position>
            <AltitudeMeters>685.5999755859375</AltitudeMeters>
            <DistanceMeters>7904.6816013706</DistanceMeters>
          </Trackpoint>
          <Trackpoint>
            <Time>2022-09-18T08:49:02.000Z</Time>
            <Position>
              <LatitudeDegrees>40.6882928498089313507080078125</LatitudeDegrees>
              <LongitudeDegrees>24.73292416892945766448974609375</LongitudeDegrees>
            </Position>
            <AltitudeMeters>684.79998779296875</AltitudeMeters>
            <DistanceMeters>7909.3986034225</DistanceMeters>
          </Trackpoint>
          <Trackpoint>
            <Time>2022-09-18T08:49:05.000Z</Time>
            <Position>
              <LatitudeDegrees>40.68835596553981304168701171875</LatitudeDegrees>
              <LongitudeDegrees>24.73290841095149517059326171875</LongitudeDegrees>
            </Position>
            <AltitudeMeters>683.4000244140625</AltitudeMeters>
            <DistanceMeters>7916.5490085038</DistanceMeters>
          </Trackpoint>
          <Trackpoint>
            <Time>2022-09-18T08:49:09.000Z</Time>
            <Position>
              <LatitudeDegrees>40.6884182430803775787353515625</LatitudeDegrees>
              <LongitudeDegrees>24.73290086723864078521728515625</LongitudeDegrees>
            </Position>
            <AltitudeMeters>682.20001220703125</AltitudeMeters>
            <DistanceMeters>7923.5099991084</DistanceMeters>
          </Trackpoint>
          <Trackpoint>
            <Time>2022-09-18T08:49:11.000Z</Time>
            <Position>
              <LatitudeDegrees>40.68845235742628574371337890625</LatitudeDegrees>
              <LongitudeDegrees>24.73289944231510162353515625</LongitudeDegrees>
            </Position>
            <AltitudeMeters>681.5999755859375</AltitudeMeters>
            <DistanceMeters>7927.3098796636</DistanceMeters>
          </Trackpoint>
          <Trackpoint>
            <Time>2022-09-18T08:49:13.000Z</Time>
            <Position>
              <LatitudeDegrees>40.6884799338877201080322265625</LatitudeDegrees>
              <LongitudeDegrees>24.73289567045867443084716796875</LongitudeDegrees>
            </Position>
            <AltitudeMeters>681</AltitudeMeters>
            <DistanceMeters>7930.3978823717</DistanceMeters>
          </Trackpoint>
          <Trackpoint>
            <Time>2022-09-18T08:49:16.000Z</Time>
            <Position>
              <LatitudeDegrees>40.68852125667035579681396484375</LatitudeDegrees>
              <LongitudeDegrees>24.73289248533546924591064453125</LongitudeDegrees>
            </Position>
            <AltitudeMeters>680</AltitudeMeters>
            <DistanceMeters>7935.0054532848</DistanceMeters>
          </Trackpoint>
          <Trackpoint>
            <Time>2022-09-18T08:49:19.000Z</Time>
            <Position>
              <LatitudeDegrees>40.68855126388370990753173828125</LatitudeDegrees>
              <LongitudeDegrees>24.7328902222216129302978515625</LongitudeDegrees>
            </Position>
            <AltitudeMeters>678.5999755859375</AltitudeMeters>
            <DistanceMeters>7938.3516891986</DistanceMeters>
          </Trackpoint>
          <Trackpoint>
            <Time>2022-09-18T08:49:21.000Z</Time>
            <Position>
              <LatitudeDegrees>40.68857339210808277130126953125</LatitudeDegrees>
              <LongitudeDegrees>24.73288460634648799896240234375</LongitudeDegrees>
            </Position>
            <AltitudeMeters>677.5999755859375</AltitudeMeters>
            <DistanceMeters>7940.8586661041</DistanceMeters>
          </Trackpoint>
          <Trackpoint>
            <Time>2022-09-18T08:49:22.000Z</Time>
            <Position>
              <LatitudeDegrees>40.688582360744476318359375</LatitudeDegrees>
              <LongitudeDegrees>24.7328841872513294219970703125</LongitudeDegrees>
            </Position>
            <AltitudeMeters>677.20001220703125</AltitudeMeters>
            <DistanceMeters>7941.8553146926</DistanceMeters>
          </Trackpoint>
          <Trackpoint>
            <Time>2022-09-18T08:49:25.000Z</Time>
            <Position>
              <LatitudeDegrees>40.68861396051943302154541015625</LatitudeDegrees>
              <LongitudeDegrees>24.73286733962595462799072265625</LongitudeDegrees>
            </Position>
            <AltitudeMeters>676.20001220703125</AltitudeMeters>
            <DistanceMeters>7945.6492495697</DistanceMeters>
          </Trackpoint>
          <Trackpoint>
            <Time>2022-09-18T08:49:27.000Z</Time>
            <Position>
              <LatitudeDegrees>40.688641369342803955078125</LatitudeDegrees>
              <LongitudeDegrees>24.732868261635303497314453125</LongitudeDegrees>
            </Position>
            <AltitudeMeters>675.4000244140625</AltitudeMeters>
            <DistanceMeters>7948.7004802744</DistanceMeters>
          </Trackpoint>
          <Trackpoint>
            <Time>2022-09-18T08:49:28.000Z</Time>
            <Position>
              <LatitudeDegrees>40.68865410983562469482421875</LatitudeDegrees>
              <LongitudeDegrees>24.732870943844318389892578125</LongitudeDegrees>
            </Position>
            <AltitudeMeters>675</AltitudeMeters>
            <DistanceMeters>7950.1353521953</DistanceMeters>
          </Trackpoint>
          <Trackpoint>
            <Time>2022-09-18T08:49:31.000Z</Time>
            <Position>
              <LatitudeDegrees>40.68870398215949535369873046875</LatitudeDegrees>
              <LongitudeDegrees>24.73290237598121166229248046875</LongitudeDegrees>
            </Position>
            <AltitudeMeters>673.4000244140625</AltitudeMeters>
            <DistanceMeters>7956.287185286</DistanceMeters>
          </Trackpoint>
          <Trackpoint>
            <Time>2022-09-18T08:49:33.000Z</Time>
            <Position>
              <LatitudeDegrees>40.688731558620929718017578125</LatitudeDegrees>
              <LongitudeDegrees>24.732950069010257720947265625</LongitudeDegrees>
            </Position>
            <AltitudeMeters>672.5999755859375</AltitudeMeters>
            <DistanceMeters>7961.3495322662</DistanceMeters>
          </Trackpoint>
          <Trackpoint>
            <Time>2022-09-18T08:49:34.000Z</Time>
            <Position>
              <LatitudeDegrees>40.68874203599989414215087890625</LatitudeDegrees>
              <LongitudeDegrees>24.73297395743429660797119140625</LongitudeDegrees>
            </Position>
            <AltitudeMeters>672.20001220703125</AltitudeMeters>
            <DistanceMeters>7963.6791408048</DistanceMeters>
          </Trackpoint>
          <Trackpoint>
            <Time>2022-09-18T08:49:37.000Z</Time>
            <Position>
              <LatitudeDegrees>40.68875343538820743560791015625</LatitudeDegrees>
              <LongitudeDegrees>24.7329847700893878936767578125</LongitudeDegrees>
            </Position>
            <AltitudeMeters>671.4000244140625</AltitudeMeters>
            <DistanceMeters>7965.2405890556</DistanceMeters>
          </Trackpoint>
          <Trackpoint>
            <Time>2022-09-18T08:49:38.000Z</Time>
            <Position>
              <LatitudeDegrees>40.6887484900653362274169921875</LatitudeDegrees>
              <LongitudeDegrees>24.73297010175883769989013671875</LongitudeDegrees>
            </Position>
            <AltitudeMeters>671.20001220703125</AltitudeMeters>
            <DistanceMeters>7966.5978420145</DistanceMeters>
          </Trackpoint>
          <Trackpoint>
            <Time>2022-09-18T08:49:40.000Z</Time>
            <Position>
              <LatitudeDegrees>40.68874471820890903472900390625</LatitudeDegrees>
              <LongitudeDegrees>24.7329344786703586578369140625</LongitudeDegrees>
            </Position>
            <AltitudeMeters>670.5999755859375</AltitudeMeters>
            <DistanceMeters>7969.6327518934</DistanceMeters>
          </Trackpoint>
          <Trackpoint>
            <Time>2022-09-18T08:49:42.000Z</Time>
            <Position>
              <LatitudeDegrees>40.68877439014613628387451171875</LatitudeDegrees>
              <LongitudeDegrees>24.732927940785884857177734375</LongitudeDegrees>
            </Position>
            <AltitudeMeters>670.4000244140625</AltitudeMeters>
            <DistanceMeters>7972.9816852972</DistanceMeters>
          </Trackpoint>
          <Trackpoint>
            <Time>2022-09-18T08:49:43.000Z</Time>
            <Position>
              <LatitudeDegrees>40.6887937523424625396728515625</LatitudeDegrees>
              <LongitudeDegrees>24.73293791525065898895263671875</LongitudeDegrees>
            </Position>
            <AltitudeMeters>670</AltitudeMeters>
            <DistanceMeters>7975.2976873282</DistanceMeters>
          </Trackpoint>
          <Trackpoint>
            <Time>2022-09-18T08:49:46.000Z</Time>
            <Position>
              <LatitudeDegrees>40.68885502405464649200439453125</LatitudeDegrees>
              <LongitudeDegrees>24.73297378979623317718505859375</LongitudeDegrees>
            </Position>
            <AltitudeMeters>668.5999755859375</AltitudeMeters>
            <DistanceMeters>7982.7595538074</DistanceMeters>
          </Trackpoint>
          <Trackpoint>
            <Time>2022-09-18T08:49:48.000Z</Time>
            <Position>
              <LatitudeDegrees>40.68889576010406017303466796875</LatitudeDegrees>
              <LongitudeDegrees>24.7329908050596714019775390625</LongitudeDegrees>
            </Position>
            <AltitudeMeters>668.20001220703125</AltitudeMeters>
            <DistanceMeters>7987.5156384884</DistanceMeters>
          </Trackpoint>
          <Trackpoint>
            <Time>2022-09-18T08:49:49.000Z</Time>
            <Position>
              <LatitudeDegrees>40.688913278281688690185546875</LatitudeDegrees>
              <LongitudeDegrees>24.73301075398921966552734375</LongitudeDegrees>
            </Position>
            <AltitudeMeters>668.20001220703125</AltitudeMeters>
            <DistanceMeters>7990.0936486246</DistanceMeters>
          </Trackpoint>
          <Trackpoint>
            <Time>2022-09-18T08:49:52.000Z</Time>
            <Position>
              <LatitudeDegrees>40.68895208649337291717529296875</LatitudeDegrees>
              <LongitudeDegrees>24.73307512700557708740234375</LongitudeDegrees>
            </Position>
            <AltitudeMeters>667.5999755859375</AltitudeMeters>
            <DistanceMeters>7997.0345028825</DistanceMeters>
          </Trackpoint>
          <Trackpoint>
            <Time>2022-09-18T08:49:53.000Z</Time>
            <Position>
              <LatitudeDegrees>40.6889680959284305572509765625</LatitudeDegrees>
              <LongitudeDegrees>24.733083508908748626708984375</LongitudeDegrees>
            </Position>
            <AltitudeMeters>667</AltitudeMeters>
            <DistanceMeters>7998.9492381217</DistanceMeters>
          </Trackpoint>
          <Trackpoint>
            <Time>2022-09-18T08:49:54.000Z</Time>
            <Position>
              <LatitudeDegrees>40.688980333507061004638671875</LatitudeDegrees>
              <LongitudeDegrees>24.73308459855616092681884765625</LongitudeDegrees>
            </Position>
            <AltitudeMeters>666.79998779296875</AltitudeMeters>
            <DistanceMeters>8000.313128054</DistanceMeters>
          </Trackpoint>
          <Trackpoint>
            <Time>2022-09-18T08:49:55.000Z</Time>
            <Position>
              <LatitudeDegrees>40.6889851950109004974365234375</LatitudeDegrees>
              <LongitudeDegrees>24.73307806067168712615966796875</LongitudeDegrees>
            </Position>
            <AltitudeMeters>666.4000244140625</AltitudeMeters>
            <DistanceMeters>8001.085128731</DistanceMeters>
          </Trackpoint>
          <Trackpoint>
            <Time>2022-09-18T08:49:57.000Z</Time>
            <Position>
              <LatitudeDegrees>40.68899315781891345977783203125</LatitudeDegrees>
              <LongitudeDegrees>24.73305643536150455474853515625</LongitudeDegrees>
            </Position>
            <AltitudeMeters>665.5999755859375</AltitudeMeters>
            <DistanceMeters>8003.1143440617</DistanceMeters>
          </Trackpoint>
          <Trackpoint>
            <Time>2022-09-18T08:49:58.000Z</Time>
            <Position>
              <LatitudeDegrees>40.68900221027433872222900390625</LatitudeDegrees>
              <LongitudeDegrees>24.73305593244731426239013671875</LongitudeDegrees>
            </Position>
            <AltitudeMeters>665.4000244140625</AltitudeMeters>
            <DistanceMeters>8004.1244918916</DistanceMeters>
          </Trackpoint>
          <Trackpoint>
            <Time>2022-09-18T08:50:00.000Z</Time>
            <Position>
              <LatitudeDegrees>40.68901444785296916961669921875</LatitudeDegrees>
              <LongitudeDegrees>24.73305241204798221588134765625</LongitudeDegrees>
            </Position>
            <AltitudeMeters>665</AltitudeMeters>
            <DistanceMeters>8005.5210936644</DistanceMeters>
          </Trackpoint>
          <Trackpoint>
            <Time>2022-09-18T08:50:01.000Z</Time>
            <Position>
              <LatitudeDegrees>40.689011178910732269287109375</LatitudeDegrees>
              <LongitudeDegrees>24.73304159939289093017578125</LongitudeDegrees>
            </Position>
            <AltitudeMeters>664.79998779296875</AltitudeMeters>
            <DistanceMeters>8006.5040576411</DistanceMeters>
          </Trackpoint>
          <Trackpoint>
            <Time>2022-09-18T08:50:02.000Z</Time>
            <Position>
              <LatitudeDegrees>40.68900506012141704559326171875</LatitudeDegrees>
              <LongitudeDegrees>24.73302709870040416717529296875</LongitudeDegrees>
            </Position>
            <AltitudeMeters>664.4000244140625</AltitudeMeters>
            <DistanceMeters>8007.9071102648</DistanceMeters>
          </Trackpoint>
          <Trackpoint>
            <Time>2022-09-18T08:50:05.000Z</Time>
            <Position>
              <LatitudeDegrees>40.68899868987500667572021484375</LatitudeDegrees>
              <LongitudeDegrees>24.73298988305032253265380859375</LongitudeDegrees>
            </Position>
            <AltitudeMeters>663.5999755859375</AltitudeMeters>
            <DistanceMeters>8011.1268195308</DistanceMeters>
          </Trackpoint>
          <Trackpoint>
            <Time>2022-09-18T08:50:06.000Z</Time>
            <Position>
              <LatitudeDegrees>40.68900958634912967681884765625</LatitudeDegrees>
              <LongitudeDegrees>24.7329911403357982635498046875</LongitudeDegrees>
            </Position>
            <AltitudeMeters>663.20001220703125</AltitudeMeters>
            <DistanceMeters>8012.3437552468</DistanceMeters>
          </Trackpoint>
          <Trackpoint>
            <Time>2022-09-18T08:50:07.000Z</Time>
            <Position>
              <LatitudeDegrees>40.68902417086064815521240234375</LatitudeDegrees>
              <LongitudeDegrees>24.73299575038254261016845703125</LongitudeDegrees>
            </Position>
            <AltitudeMeters>662.79998779296875</AltitudeMeters>
            <DistanceMeters>8014.0141724465</DistanceMeters>
          </Trackpoint>
          <Trackpoint>
            <Time>2022-09-18T08:50:11.000Z</Time>
            <Position>
              <LatitudeDegrees>40.6890664994716644287109375</LatitudeDegrees>
              <LongitudeDegrees>24.733068756759166717529296875</LongitudeDegrees>
            </Position>
            <AltitudeMeters>662</AltitudeMeters>
            <DistanceMeters>8021.7703550945</DistanceMeters>
          </Trackpoint>
          <Trackpoint>
            <Time>2022-09-18T08:50:12.000Z</Time>
            <Position>
              <LatitudeDegrees>40.68907320499420166015625</LatitudeDegrees>
              <LongitudeDegrees>24.73308476619422435760498046875</LongitudeDegrees>
            </Position>
            <AltitudeMeters>662</AltitudeMeters>
            <DistanceMeters>8023.3143564486</DistanceMeters>
          </Trackpoint>
          <Trackpoint>
            <Time>2022-09-18T08:50:18.000Z</Time>
            <Position>
              <LatitudeDegrees>40.6891323812305927276611328125</LatitudeDegrees>
              <LongitudeDegrees>24.7331775538623332977294921875</LongitudeDegrees>
            </Position>
            <AltitudeMeters>661</AltitudeMeters>
            <DistanceMeters>8033.5468408178</DistanceMeters>
          </Trackpoint>
          <Trackpoint>
            <Time>2022-09-18T08:50:19.000Z</Time>
            <Position>
              <LatitudeDegrees>40.689141266047954559326171875</LatitudeDegrees>
              <LongitudeDegrees>24.7331876121461391448974609375</LongitudeDegrees>
            </Position>
            <AltitudeMeters>660.79998779296875</AltitudeMeters>
            <DistanceMeters>8034.8497814809</DistanceMeters>
          </Trackpoint>
          <Trackpoint>
            <Time>2022-09-18T08:50:21.000Z</Time>
            <Position>
              <LatitudeDegrees>40.68915777839720249176025390625</LatitudeDegrees>
              <LongitudeDegrees>24.73317545838654041290283203125</LongitudeDegrees>
            </Position>
            <AltitudeMeters>659.79998779296875</AltitudeMeters>
            <DistanceMeters>8036.9575759705</DistanceMeters>
          </Trackpoint>
          <Trackpoint>
            <Time>2022-09-18T08:50:23.000Z</Time>
            <Position>
              <LatitudeDegrees>40.68915727548301219940185546875</LatitudeDegrees>
              <LongitudeDegrees>24.73314126022160053253173828125</LongitudeDegrees>
            </Position>
            <AltitudeMeters>659</AltitudeMeters>
            <DistanceMeters>8039.8445745084</DistanceMeters>
          </Trackpoint>
          <Trackpoint>
            <Time>2022-09-18T08:50:24.000Z</Time>
            <Position>
              <LatitudeDegrees>40.68915157578885555267333984375</LatitudeDegrees>
              <LongitudeDegrees>24.73312675952911376953125</LongitudeDegrees>
            </Position>
            <AltitudeMeters>658.79998779296875</AltitudeMeters>
            <DistanceMeters>8041.2216424273</DistanceMeters>
          </Trackpoint>
          <Trackpoint>
            <Time>2022-09-18T08:50:28.000Z</Time>
            <Position>
              <LatitudeDegrees>40.68913933821022510528564453125</LatitudeDegrees>
              <LongitudeDegrees>24.7330588661134243011474609375</LongitudeDegrees>
            </Position>
            <AltitudeMeters>657.5999755859375</AltitudeMeters>
            <DistanceMeters>8047.1117658299</DistanceMeters>
          </Trackpoint>
          <Trackpoint>
            <Time>2022-09-18T08:50:29.000Z</Time>
            <Position>
              <LatitudeDegrees>40.6891536712646484375</LatitudeDegrees>
              <LongitudeDegrees>24.73303564824163913726806640625</LongitudeDegrees>
            </Position>
            <AltitudeMeters>657.20001220703125</AltitudeMeters>
            <DistanceMeters>8049.6366883969</DistanceMeters>
          </Trackpoint>
          <Trackpoint>
            <Time>2022-09-18T08:50:31.000Z</Time>
            <Position>
              <LatitudeDegrees>40.68918476812541484832763671875</LatitudeDegrees>
              <LongitudeDegrees>24.73302659578621387481689453125</LongitudeDegrees>
            </Position>
            <AltitudeMeters>656.4000244140625</AltitudeMeters>
            <DistanceMeters>8053.1795412385</DistanceMeters>
          </Trackpoint>
          <Trackpoint>
            <Time>2022-09-18T08:50:33.000Z</Time>
            <Position>
              <LatitudeDegrees>40.6892165355384349822998046875</LatitudeDegrees>
              <LongitudeDegrees>24.73304637707769870758056640625</LongitudeDegrees>
            </Position>
            <AltitudeMeters>655.5999755859375</AltitudeMeters>
            <DistanceMeters>8057.0906727239</DistanceMeters>
          </Trackpoint>
          <Trackpoint>
            <Time>2022-09-18T08:50:34.000Z</Time>
            <Position>
              <LatitudeDegrees>40.689227767288684844970703125</LatitudeDegrees>
              <LongitudeDegrees>24.7330518253147602081298828125</LongitudeDegrees>
            </Position>
            <AltitudeMeters>655</AltitudeMeters>
            <DistanceMeters>8058.4278171199</DistanceMeters>
          </Trackpoint>
          <Trackpoint>
            <Time>2022-09-18T08:50:37.000Z</Time>
            <Position>
              <LatitudeDegrees>40.68926456384360790252685546875</LatitudeDegrees>
              <LongitudeDegrees>24.73307319916784763336181640625</LongitudeDegrees>
            </Position>
            <AltitudeMeters>653.79998779296875</AltitudeMeters>
            <DistanceMeters>8062.9031617494</DistanceMeters>
          </Trackpoint>
          <Trackpoint>
            <Time>2022-09-18T08:50:39.000Z</Time>
            <Position>
              <LatitudeDegrees>40.68929457105696201324462890625</LatitudeDegrees>
              <LongitudeDegrees>24.73308325745165348052978515625</LongitudeDegrees>
            </Position>
            <AltitudeMeters>653.5999755859375</AltitudeMeters>
            <DistanceMeters>8066.34910872</DistanceMeters>
          </Trackpoint>
          <Trackpoint>
            <Time>2022-09-18T08:50:42.000Z</Time>
            <Position>
              <LatitudeDegrees>40.6893469579517841339111328125</LatitudeDegrees>
              <LongitudeDegrees>24.73309918306767940521240234375</LongitudeDegrees>
            </Position>
            <AltitudeMeters>652.5999755859375</AltitudeMeters>
            <DistanceMeters>8072.3327742437</DistanceMeters>
          </Trackpoint>
          <Trackpoint>
            <Time>2022-09-18T08:50:44.000Z</Time>
            <Position>
              <LatitudeDegrees>40.68937554024159908294677734375</LatitudeDegrees>
              <LongitudeDegrees>24.73310538567602634429931640625</LongitudeDegrees>
            </Position>
            <AltitudeMeters>651.5999755859375</AltitudeMeters>
            <DistanceMeters>8075.5566877021</DistanceMeters>
          </Trackpoint>
          <Trackpoint>
            <Time>2022-09-18T08:50:46.000Z</Time>
            <Position>
              <LatitudeDegrees>40.68939515389502048492431640625</LatitudeDegrees>
              <LongitudeDegrees>24.7330974228680133819580078125</LongitudeDegrees>
            </Position>
            <AltitudeMeters>651</AltitudeMeters>
            <DistanceMeters>8077.8412848623</DistanceMeters>
          </Trackpoint>
          <Trackpoint>
            <Time>2022-09-18T08:50:48.000Z</Time>
            <Position>
              <LatitudeDegrees>40.68939046002924442291259765625</LatitudeDegrees>
              <LongitudeDegrees>24.73306833766400814056396484375</LongitudeDegrees>
            </Position>
            <AltitudeMeters>650.5999755859375</AltitudeMeters>
            <DistanceMeters>8080.3518611623</DistanceMeters>
          </Trackpoint>
          <Trackpoint>
            <Time>2022-09-18T08:50:51.000Z</Time>
            <Position>
              <LatitudeDegrees>40.68936950527131557464599609375</LatitudeDegrees>
              <LongitudeDegrees>24.733023159205913543701171875</LongitudeDegrees>
            </Position>
            <AltitudeMeters>649.20001220703125</AltitudeMeters>
            <DistanceMeters>8084.8221585988</DistanceMeters>
          </Trackpoint>
          <Trackpoint>
            <Time>2022-09-18T08:50:54.000Z</Time>
            <Position>
              <LatitudeDegrees>40.68933614529669284820556640625</LatitudeDegrees>
              <LongitudeDegrees>24.73298384808003902435302734375</LongitudeDegrees>
            </Position>
            <AltitudeMeters>648</AltitudeMeters>
            <DistanceMeters>8089.8017760454</DistanceMeters>
          </Trackpoint>
          <Trackpoint>
            <Time>2022-09-18T08:50:56.000Z</Time>
            <Position>
              <LatitudeDegrees>40.68930362351238727569580078125</LatitudeDegrees>
              <LongitudeDegrees>24.732968173921108245849609375</LongitudeDegrees>
            </Position>
            <AltitudeMeters>647.20001220703125</AltitudeMeters>
            <DistanceMeters>8093.6559265031</DistanceMeters>
          </Trackpoint>
          <Trackpoint>
            <Time>2022-09-18T08:50:57.000Z</Time>
            <Position>
              <LatitudeDegrees>40.689297504723072052001953125</LatitudeDegrees>
              <LongitudeDegrees>24.7329572774469852447509765625</LongitudeDegrees>
            </Position>
            <AltitudeMeters>646.79998779296875</AltitudeMeters>
            <DistanceMeters>8094.7962470755</DistanceMeters>
          </Trackpoint>
          <Trackpoint>
            <Time>2022-09-18T08:50:58.000Z</Time>
            <Position>
              <LatitudeDegrees>40.6893077306449413299560546875</LatitudeDegrees>
              <LongitudeDegrees>24.73294680006802082061767578125</LongitudeDegrees>
            </Position>
            <AltitudeMeters>646.5999755859375</AltitudeMeters>
            <DistanceMeters>8096.2373985534</DistanceMeters>
          </Trackpoint>
          <Trackpoint>
            <Time>2022-09-18T08:50:59.000Z</Time>
            <Position>
              <LatitudeDegrees>40.6893211416900157928466796875</LatitudeDegrees>
              <LongitudeDegrees>24.73294445313513278961181640625</LongitudeDegrees>
            </Position>
            <AltitudeMeters>646.20001220703125</AltitudeMeters>
            <DistanceMeters>8097.7429048428</DistanceMeters>
          </Trackpoint>
          <Trackpoint>
            <Time>2022-09-18T08:51:00.000Z</Time>
            <Position>
              <LatitudeDegrees>40.68933966569602489471435546875</LatitudeDegrees>
              <LongitudeDegrees>24.7329512424767017364501953125</LongitudeDegrees>
            </Position>
            <AltitudeMeters>645.79998779296875</AltitudeMeters>
            <DistanceMeters>8099.8804779247</DistanceMeters>
          </Trackpoint>
          <Trackpoint>
            <Time>2022-09-18T08:51:04.000Z</Time>
            <Position>
              <LatitudeDegrees>40.68940487690269947052001953125</LatitudeDegrees>
              <LongitudeDegrees>24.7329752147197723388671875</LongitudeDegrees>
            </Position>
            <AltitudeMeters>644.5999755859375</AltitudeMeters>
            <DistanceMeters>8107.4152035735</DistanceMeters>
          </Trackpoint>
          <Trackpoint>
            <Time>2022-09-18T08:51:07.000Z</Time>
            <Position>
              <LatitudeDegrees>40.68945206701755523681640625</LatitudeDegrees>
              <LongitudeDegrees>24.732985608279705047607421875</LongitudeDegrees>
            </Position>
            <AltitudeMeters>643.5999755859375</AltitudeMeters>
            <DistanceMeters>8112.740092308</DistanceMeters>
          </Trackpoint>
          <Trackpoint>
            <Time>2022-09-18T08:51:11.000Z</Time>
            <Position>
              <LatitudeDegrees>40.68950478918850421905517578125</LatitudeDegrees>
              <LongitudeDegrees>24.73300664685666561126708984375</LongitudeDegrees>
            </Position>
            <AltitudeMeters>642.20001220703125</AltitudeMeters>
            <DistanceMeters>8118.8706043714</DistanceMeters>
          </Trackpoint>
          <Trackpoint>
            <Time>2022-09-18T08:51:14.000Z</Time>
            <Position>
              <LatitudeDegrees>40.68954518996179103851318359375</LatitudeDegrees>
              <LongitudeDegrees>24.733028523623943328857421875</LongitudeDegrees>
            </Position>
            <AltitudeMeters>641.20001220703125</AltitudeMeters>
            <DistanceMeters>8123.731850102</DistanceMeters>
          </Trackpoint>
          <Trackpoint>
            <Time>2022-09-18T08:51:17.000Z</Time>
            <Position>
              <LatitudeDegrees>40.68957813084125518798828125</LatitudeDegrees>
              <LongitudeDegrees>24.73305794410407543182373046875</LongitudeDegrees>
            </Position>
            <AltitudeMeters>640</AltitudeMeters>
            <DistanceMeters>8128.15850413</DistanceMeters>
          </Trackpoint>
          <Trackpoint>
            <Time>2022-09-18T08:51:18.000Z</Time>
            <Position>
              <LatitudeDegrees>40.689585506916046142578125</LatitudeDegrees>
              <LongitudeDegrees>24.733068086206912994384765625</LongitudeDegrees>
            </Position>
            <AltitudeMeters>639.5999755859375</AltitudeMeters>
            <DistanceMeters>8129.3453874121</DistanceMeters>
          </Trackpoint>
          <Trackpoint>
            <Time>2022-09-18T08:51:20.000Z</Time>
            <Position>
              <LatitudeDegrees>40.68960285745561122894287109375</LatitudeDegrees>
              <LongitudeDegrees>24.733091555535793304443359375</LongitudeDegrees>
            </Position>
            <AltitudeMeters>638.5999755859375</AltitudeMeters>
            <DistanceMeters>8132.1142382389</DistanceMeters>
          </Trackpoint>
          <Trackpoint>
            <Time>2022-09-18T08:51:23.000Z</Time>
            <Position>
              <LatitudeDegrees>40.6896386481821537017822265625</LatitudeDegrees>
              <LongitudeDegrees>24.73311058245599269866943359375</LongitudeDegrees>
            </Position>
            <AltitudeMeters>637.20001220703125</AltitudeMeters>
            <DistanceMeters>8136.4104547431</DistanceMeters>
          </Trackpoint>
          <Trackpoint>
            <Time>2022-09-18T08:51:26.000Z</Time>
            <Position>
              <LatitudeDegrees>40.6896711699664592742919921875</LatitudeDegrees>
              <LongitudeDegrees>24.7331173717975616455078125</LongitudeDegrees>
            </Position>
            <AltitudeMeters>636.20001220703125</AltitudeMeters>
            <DistanceMeters>8140.0760725285</DistanceMeters>
          </Trackpoint>
          <Trackpoint>
            <Time>2022-09-18T08:51:28.000Z</Time>
            <Position>
              <LatitudeDegrees>40.68966798484325408935546875</LatitudeDegrees>
              <LongitudeDegrees>24.73308828659355640411376953125</LongitudeDegrees>
            </Position>
            <AltitudeMeters>635.5999755859375</AltitudeMeters>
            <DistanceMeters>8142.5577075006</DistanceMeters>
          </Trackpoint>
          <Trackpoint>
            <Time>2022-09-18T08:51:31.000Z</Time>
            <Position>
              <LatitudeDegrees>40.689649879932403564453125</LatitudeDegrees>
              <LongitudeDegrees>24.733041264116764068603515625</LongitudeDegrees>
            </Position>
            <AltitudeMeters>634.79998779296875</AltitudeMeters>
            <DistanceMeters>8147.0087734087</DistanceMeters>
          </Trackpoint>
          <Trackpoint>
            <Time>2022-09-18T08:51:33.000Z</Time>
            <Position>
              <LatitudeDegrees>40.68963470868766307830810546875</LatitudeDegrees>
              <LongitudeDegrees>24.7330166213214397430419921875</LongitudeDegrees>
            </Position>
            <AltitudeMeters>634.20001220703125</AltitudeMeters>
            <DistanceMeters>8149.68980695</DistanceMeters>
          </Trackpoint>
          <Trackpoint>
            <Time>2022-09-18T08:51:34.000Z</Time>
            <Position>
              <LatitudeDegrees>40.689631439745426177978515625</LatitudeDegrees>
              <LongitudeDegrees>24.73300362937152385711669921875</LongitudeDegrees>
            </Position>
            <AltitudeMeters>633.79998779296875</AltitudeMeters>
            <DistanceMeters>8150.8458568251</DistanceMeters>
          </Trackpoint>
          <Trackpoint>
            <Time>2022-09-18T08:51:38.000Z</Time>
            <Position>
              <LatitudeDegrees>40.68960771895945072174072265625</LatitudeDegrees>
              <LongitudeDegrees>24.7329609654843807220458984375</LongitudeDegrees>
            </Position>
            <AltitudeMeters>632.5999755859375</AltitudeMeters>
            <DistanceMeters>8155.3111013635</DistanceMeters>
          </Trackpoint>
          <Trackpoint>
            <Time>2022-09-18T08:51:41.000Z</Time>
            <Position>
              <LatitudeDegrees>40.689618699252605438232421875</LatitudeDegrees>
              <LongitudeDegrees>24.73293422721326351165771484375</LongitudeDegrees>
            </Position>
            <AltitudeMeters>631.5999755859375</AltitudeMeters>
            <DistanceMeters>8157.8785818024</DistanceMeters>
          </Trackpoint>
          <Trackpoint>
            <Time>2022-09-18T08:51:42.000Z</Time>
            <Position>
              <LatitudeDegrees>40.68963672034442424774169921875</LatitudeDegrees>
              <LongitudeDegrees>24.7329431958496570587158203125</LongitudeDegrees>
            </Position>
            <AltitudeMeters>631</AltitudeMeters>
            <DistanceMeters>8160.0224821989</DistanceMeters>
          </Trackpoint>
          <Trackpoint>
            <Time>2022-09-18T08:51:43.000Z</Time>
            <Position>
              <LatitudeDegrees>40.68965583108365535736083984375</LatitudeDegrees>
              <LongitudeDegrees>24.7329564392566680908203125</LongitudeDegrees>
            </Position>
            <AltitudeMeters>630.4000244140625</AltitudeMeters>
            <DistanceMeters>8162.4264890466</DistanceMeters>
          </Trackpoint>
          <Trackpoint>
            <Time>2022-09-18T08:51:48.000Z</Time>
            <Position>
              <LatitudeDegrees>40.689775943756103515625</LatitudeDegrees>
              <LongitudeDegrees>24.7329921461641788482666015625</LongitudeDegrees>
            </Position>
            <AltitudeMeters>629.4000244140625</AltitudeMeters>
            <DistanceMeters>8176.1307777871</DistanceMeters>
          </Trackpoint>
          <Trackpoint>
            <Time>2022-09-18T08:51:54.000Z</Time>
            <Position>
              <LatitudeDegrees>40.6898961402475833892822265625</LatitudeDegrees>
              <LongitudeDegrees>24.73307319916784763336181640625</LongitudeDegrees>
            </Position>
            <AltitudeMeters>628.4000244140625</AltitudeMeters>
            <DistanceMeters>8191.1561210835</DistanceMeters>
          </Trackpoint>
          <Trackpoint>
            <Time>2022-09-18T08:51:55.000Z</Time>
            <Position>
              <LatitudeDegrees>40.68991416133940219879150390625</LatitudeDegrees>
              <LongitudeDegrees>24.7330866940319538116455078125</LongitudeDegrees>
            </Position>
            <AltitudeMeters>628.4000244140625</AltitudeMeters>
            <DistanceMeters>8193.4623550321</DistanceMeters>
          </Trackpoint>
          <Trackpoint>
            <Time>2022-09-18T08:51:59.000Z</Time>
            <Position>
              <LatitudeDegrees>40.6899873353540897369384765625</LatitudeDegrees>
              <LongitudeDegrees>24.7331416793167591094970703125</LongitudeDegrees>
            </Position>
            <AltitudeMeters>628</AltitudeMeters>
            <DistanceMeters>8202.8358625826</DistanceMeters>
          </Trackpoint>
          <Trackpoint>
            <Time>2022-09-18T08:52:03.000Z</Time>
            <Position>
              <LatitudeDegrees>40.69004927761852741241455078125</LatitudeDegrees>
              <LongitudeDegrees>24.7332006879150867462158203125</LongitudeDegrees>
            </Position>
            <AltitudeMeters>627.20001220703125</AltitudeMeters>
            <DistanceMeters>8211.3406207988</DistanceMeters>
          </Trackpoint>
          <Trackpoint>
            <Time>2022-09-18T08:52:04.000Z</Time>
            <Position>
              <LatitudeDegrees>40.690060593187808990478515625</LatitudeDegrees>
              <LongitudeDegrees>24.7332060523331165313720703125</LongitudeDegrees>
            </Position>
            <AltitudeMeters>627</AltitudeMeters>
            <DistanceMeters>8212.6777651948</DistanceMeters>
          </Trackpoint>
          <Trackpoint>
            <Time>2022-09-18T08:52:06.000Z</Time>
            <Position>
              <LatitudeDegrees>40.6900667957961559295654296875</LatitudeDegrees>
              <LongitudeDegrees>24.7331926412880420684814453125</LongitudeDegrees>
            </Position>
            <AltitudeMeters>626.20001220703125</AltitudeMeters>
            <DistanceMeters>8214.0013341693</DistanceMeters>
          </Trackpoint>
          <Trackpoint>
            <Time>2022-09-18T08:52:07.000Z</Time>
            <Position>
              <LatitudeDegrees>40.69006629288196563720703125</LatitudeDegrees>
              <LongitudeDegrees>24.7331799007952213287353515625</LongitudeDegrees>
            </Position>
            <AltitudeMeters>626</AltitudeMeters>
            <DistanceMeters>8215.0764387153</DistanceMeters>
          </Trackpoint>
          <Trackpoint>
            <Time>2022-09-18T08:52:08.000Z</Time>
            <Position>
              <LatitudeDegrees>40.69006805308163166046142578125</LatitudeDegrees>
              <LongitudeDegrees>24.7331671603024005889892578125</LongitudeDegrees>
            </Position>
            <AltitudeMeters>625.5999755859375</AltitudeMeters>
            <DistanceMeters>8216.1682125429</DistanceMeters>
          </Trackpoint>
          <Trackpoint>
            <Time>2022-09-18T08:52:10.000Z</Time>
            <Position>
              <LatitudeDegrees>40.6900644488632678985595703125</LatitudeDegrees>
              <LongitudeDegrees>24.73313924856483936309814453125</LongitudeDegrees>
            </Position>
            <AltitudeMeters>624.79998779296875</AltitudeMeters>
            <DistanceMeters>8218.5590363317</DistanceMeters>
          </Trackpoint>
          <Trackpoint>
            <Time>2022-09-18T08:52:13.000Z</Time>
            <Position>
              <LatitudeDegrees>40.6900319270789623260498046875</LatitudeDegrees>
              <LongitudeDegrees>24.73308996297419071197509765625</LongitudeDegrees>
            </Position>
            <AltitudeMeters>624</AltitudeMeters>
            <DistanceMeters>8224.0730428049</DistanceMeters>
          </Trackpoint>
          <Trackpoint>
            <Time>2022-09-18T08:52:14.000Z</Time>
            <Position>
              <LatitudeDegrees>40.690019689500331878662109375</LatitudeDegrees>
              <LongitudeDegrees>24.73307621665298938751220703125</LongitudeDegrees>
            </Position>
            <AltitudeMeters>623.79998779296875</AltitudeMeters>
            <DistanceMeters>8225.8609597664</DistanceMeters>
          </Trackpoint>
          <Trackpoint>
            <Time>2022-09-18T08:52:15.000Z</Time>
            <Position>
              <LatitudeDegrees>40.69001541472971439361572265625</LatitudeDegrees>
              <LongitudeDegrees>24.7330605424940586090087890625</LongitudeDegrees>
            </Position>
            <AltitudeMeters>623.4000244140625</AltitudeMeters>
            <DistanceMeters>8227.2704337171</DistanceMeters>
          </Trackpoint>
          <Trackpoint>
            <Time>2022-09-18T08:52:17.000Z</Time>
            <Position>
              <LatitudeDegrees>40.690039135515689849853515625</LatitudeDegrees>
              <LongitudeDegrees>24.73304671235382556915283203125</LongitudeDegrees>
            </Position>
            <AltitudeMeters>622.5999755859375</AltitudeMeters>
            <DistanceMeters>8230.1558679099</DistanceMeters>
          </Trackpoint>
          <Trackpoint>
            <Time>2022-09-18T08:52:18.000Z</Time>
            <Position>
              <LatitudeDegrees>40.6900564022362232208251953125</LatitudeDegrees>
              <LongitudeDegrees>24.73305366933345794677734375</LongitudeDegrees>
            </Position>
            <AltitudeMeters>622.4000244140625</AltitudeMeters>
            <DistanceMeters>8232.1649582938</DistanceMeters>
          </Trackpoint>
          <Trackpoint>
            <Time>2022-09-18T08:52:22.000Z</Time>
            <Position>
              <LatitudeDegrees>40.6901179254055023193359375</LatitudeDegrees>
              <LongitudeDegrees>24.73311695270240306854248046875</LongitudeDegrees>
            </Position>
            <AltitudeMeters>621.4000244140625</AltitudeMeters>
            <DistanceMeters>8240.8493810414</DistanceMeters>
          </Trackpoint>
          <Trackpoint>
            <Time>2022-09-18T08:52:25.000Z</Time>
            <Position>
              <LatitudeDegrees>40.69014131091535091400146484375</LatitudeDegrees>
              <LongitudeDegrees>24.73318015225231647491455078125</LongitudeDegrees>
            </Position>
            <AltitudeMeters>620.79998779296875</AltitudeMeters>
            <DistanceMeters>8246.7837974518</DistanceMeters>
          </Trackpoint>
          <Trackpoint>
            <Time>2022-09-18T08:52:27.000Z</Time>
            <Position>
              <LatitudeDegrees>40.690157823264598846435546875</LatitudeDegrees>
              <LongitudeDegrees>24.733204208314418792724609375</LongitudeDegrees>
            </Position>
            <AltitudeMeters>620.20001220703125</AltitudeMeters>
            <DistanceMeters>8249.5214905406</DistanceMeters>
          </Trackpoint>
          <Trackpoint>
            <Time>2022-09-18T08:52:29.000Z</Time>
            <Position>
              <LatitudeDegrees>40.6901703961193561553955078125</LatitudeDegrees>
              <LongitudeDegrees>24.73320211283862590789794921875</LongitudeDegrees>
            </Position>
            <AltitudeMeters>619.79998779296875</AltitudeMeters>
            <DistanceMeters>8250.9277574929</DistanceMeters>
          </Trackpoint>
          <Trackpoint>
            <Time>2022-09-18T08:52:32.000Z</Time>
            <Position>
              <LatitudeDegrees>40.69017986766993999481201171875</LatitudeDegrees>
              <LongitudeDegrees>24.7331584431231021881103515625</LongitudeDegrees>
            </Position>
            <AltitudeMeters>619.20001220703125</AltitudeMeters>
            <DistanceMeters>8254.7595852941</DistanceMeters>
          </Trackpoint>
          <Trackpoint>
            <Time>2022-09-18T08:52:33.000Z</Time>
            <Position>
              <LatitudeDegrees>40.69018204696476459503173828125</LatitudeDegrees>
              <LongitudeDegrees>24.73314260132610797882080078125</LongitudeDegrees>
            </Position>
            <AltitudeMeters>618.79998779296875</AltitudeMeters>
            <DistanceMeters>8256.1201607867</DistanceMeters>
          </Trackpoint>
          <Trackpoint>
            <Time>2022-09-18T08:52:35.000Z</Time>
            <Position>
              <LatitudeDegrees>40.690186657011508941650390625</LatitudeDegrees>
              <LongitudeDegrees>24.733117036521434783935546875</LongitudeDegrees>
            </Position>
            <AltitudeMeters>618</AltitudeMeters>
            <DistanceMeters>8258.3406160865</DistanceMeters>
          </Trackpoint>
          <Trackpoint>
            <Time>2022-09-18T08:52:37.000Z</Time>
            <Position>
              <LatitudeDegrees>40.69019638001918792724609375</LatitudeDegrees>
              <LongitudeDegrees>24.7330880351364612579345703125</LongitudeDegrees>
            </Position>
            <AltitudeMeters>617</AltitudeMeters>
            <DistanceMeters>8261.0182793768</DistanceMeters>
          </Trackpoint>
          <Trackpoint>
            <Time>2022-09-18T08:52:40.000Z</Time>
            <Position>
              <LatitudeDegrees>40.6901948712766170501708984375</LatitudeDegrees>
              <LongitudeDegrees>24.7330503165721893310546875</LongitudeDegrees>
            </Position>
            <AltitudeMeters>616</AltitudeMeters>
            <DistanceMeters>8264.205572272</DistanceMeters>
          </Trackpoint>
          <Trackpoint>
            <Time>2022-09-18T08:52:42.000Z</Time>
            <Position>
              <LatitudeDegrees>40.69020534865558147430419921875</LatitudeDegrees>
              <LongitudeDegrees>24.73302558995783329010009765625</LongitudeDegrees>
            </Position>
            <AltitudeMeters>615.4000244140625</AltitudeMeters>
            <DistanceMeters>8266.5963960607</DistanceMeters>
          </Trackpoint>
          <Trackpoint>
            <Time>2022-09-18T08:52:44.000Z</Time>
            <Position>
              <LatitudeDegrees>40.69022244773805141448974609375</LatitudeDegrees>
              <LongitudeDegrees>24.73302994854748249053955078125</LongitudeDegrees>
            </Position>
            <AltitudeMeters>614.79998779296875</AltitudeMeters>
            <DistanceMeters>8268.53689648</DistanceMeters>
          </Trackpoint>
          <Trackpoint>
            <Time>2022-09-18T08:52:46.000Z</Time>
            <Position>
              <LatitudeDegrees>40.6902424804866313934326171875</LatitudeDegrees>
              <LongitudeDegrees>24.7330541722476482391357421875</LongitudeDegrees>
            </Position>
            <AltitudeMeters>614</AltitudeMeters>
            <DistanceMeters>8271.5628669878</DistanceMeters>
          </Trackpoint>
          <Trackpoint>
            <Time>2022-09-18T08:52:47.000Z</Time>
            <Position>
              <LatitudeDegrees>40.6902495212852954864501953125</LatitudeDegrees>
              <LongitudeDegrees>24.73305911757051944732666015625</LongitudeDegrees>
            </Position>
            <AltitudeMeters>613.79998779296875</AltitudeMeters>
            <DistanceMeters>8272.4542965852</DistanceMeters>
          </Trackpoint>
          <Trackpoint>
            <Time>2022-09-18T08:52:50.000Z</Time>
            <Position>
              <LatitudeDegrees>40.6902857311069965362548828125</LatitudeDegrees>
              <LongitudeDegrees>24.73307646811008453369140625</LongitudeDegrees>
            </Position>
            <AltitudeMeters>612.4000244140625</AltitudeMeters>
            <DistanceMeters>8276.7420973781</DistanceMeters>
          </Trackpoint>
          <Trackpoint>
            <Time>2022-09-18T08:52:51.000Z</Time>
            <Position>
              <LatitudeDegrees>40.6902974657714366912841796875</LatitudeDegrees>
              <LongitudeDegrees>24.73309348337352275848388671875</LongitudeDegrees>
            </Position>
            <AltitudeMeters>612</AltitudeMeters>
            <DistanceMeters>8278.6802696617</DistanceMeters>
          </Trackpoint>
          <Trackpoint>
            <Time>2022-09-18T08:52:52.000Z</Time>
            <Position>
              <LatitudeDegrees>40.6903065182268619537353515625</LatitudeDegrees>
              <LongitudeDegrees>24.73311133682727813720703125</LongitudeDegrees>
            </Position>
            <AltitudeMeters>611.5999755859375</AltitudeMeters>
            <DistanceMeters>8280.4907717327</DistanceMeters>
          </Trackpoint>
          <Trackpoint>
            <Time>2022-09-18T08:52:53.000Z</Time>
            <Position>
              <LatitudeDegrees>40.69031498394906520843505859375</LatitudeDegrees>
              <LongitudeDegrees>24.7331332974135875701904296875</LongitudeDegrees>
            </Position>
            <AltitudeMeters>611.20001220703125</AltitudeMeters>
            <DistanceMeters>8282.5727027337</DistanceMeters>
          </Trackpoint>
          <Trackpoint>
            <Time>2022-09-18T08:52:56.000Z</Time>
            <Position>
              <LatitudeDegrees>40.690338872373104095458984375</LatitudeDegrees>
              <LongitudeDegrees>24.733188450336456298828125</LongitudeDegrees>
            </Position>
            <AltitudeMeters>610.4000244140625</AltitudeMeters>
            <DistanceMeters>8287.9330854854</DistanceMeters>
          </Trackpoint>
          <Trackpoint>
            <Time>2022-09-18T08:52:57.000Z</Time>
            <Position>
              <LatitudeDegrees>40.6903457455337047576904296875</LatitudeDegrees>
              <LongitudeDegrees>24.73319758661091327667236328125</LongitudeDegrees>
            </Position>
            <AltitudeMeters>610.20001220703125</AltitudeMeters>
            <DistanceMeters>8289.0165567299</DistanceMeters>
          </Trackpoint>
          <Trackpoint>
            <Time>2022-09-18T08:52:58.000Z</Time>
            <Position>
              <LatitudeDegrees>40.69035354070365428924560546875</LatitudeDegrees>
              <LongitudeDegrees>24.73320563323795795440673828125</LongitudeDegrees>
            </Position>
            <AltitudeMeters>610</AltitudeMeters>
            <DistanceMeters>8290.1165704769</DistanceMeters>
          </Trackpoint>
          <Trackpoint>
            <Time>2022-09-18T08:53:01.000Z</Time>
            <Position>
              <LatitudeDegrees>40.69040031172335147857666015625</LatitudeDegrees>
              <LongitudeDegrees>24.733227007091045379638671875</LongitudeDegrees>
            </Position>
            <AltitudeMeters>609</AltitudeMeters>
            <DistanceMeters>8295.6264812751</DistanceMeters>
          </Trackpoint>
          <Trackpoint>
            <Time>2022-09-18T08:53:03.000Z</Time>
            <Position>
              <LatitudeDegrees>40.690426714718341827392578125</LatitudeDegrees>
              <LongitudeDegrees>24.73323832266032695770263671875</LongitudeDegrees>
            </Position>
            <AltitudeMeters>608.4000244140625</AltitudeMeters>
            <DistanceMeters>8298.7159457597</DistanceMeters>
          </Trackpoint>
          <Trackpoint>
            <Time>2022-09-18T08:53:05.000Z</Time>
            <Position>
              <LatitudeDegrees>40.69045781157910823822021484375</LatitudeDegrees>
              <LongitudeDegrees>24.733246453106403350830078125</LongitudeDegrees>
            </Position>
            <AltitudeMeters>607.79998779296875</AltitudeMeters>
            <DistanceMeters>8302.2434725618</DistanceMeters>
          </Trackpoint>
          <Trackpoint>
            <Time>2022-09-18T08:53:10.000Z</Time>
            <Position>
              <LatitudeDegrees>40.690517239272594451904296875</LatitudeDegrees>
              <LongitudeDegrees>24.7332979179918766021728515625</LongitudeDegrees>
            </Position>
            <AltitudeMeters>606.5999755859375</AltitudeMeters>
            <DistanceMeters>8310.1564081778</DistanceMeters>
          </Trackpoint>
          <Trackpoint>
            <Time>2022-09-18T08:53:13.000Z</Time>
            <Position>
              <LatitudeDegrees>40.69053643383085727691650390625</LatitudeDegrees>
              <LongitudeDegrees>24.73328827880322933197021484375</LongitudeDegrees>
            </Position>
            <AltitudeMeters>605.4000244140625</AltitudeMeters>
            <DistanceMeters>8312.441005338</DistanceMeters>
          </Trackpoint>
          <Trackpoint>
            <Time>2022-09-18T08:53:14.000Z</Time>
            <Position>
              <LatitudeDegrees>40.69053475745022296905517578125</LatitudeDegrees>
              <LongitudeDegrees>24.73327537067234516143798828125</LongitudeDegrees>
            </Position>
            <AltitudeMeters>605.20001220703125</AltitudeMeters>
            <DistanceMeters>8313.5491977385</DistanceMeters>
          </Trackpoint>
          <Trackpoint>
            <Time>2022-09-18T08:53:17.000Z</Time>
            <Position>
              <LatitudeDegrees>40.69051824510097503662109375</LatitudeDegrees>
              <LongitudeDegrees>24.73323966376483440399169921875</LongitudeDegrees>
            </Position>
            <AltitudeMeters>604.4000244140625</AltitudeMeters>
            <DistanceMeters>8317.0792835013</DistanceMeters>
          </Trackpoint>
          <Trackpoint>
            <Time>2022-09-18T08:53:20.000Z</Time>
            <Position>
              <LatitudeDegrees>40.6904738210141658782958984375</LatitudeDegrees>
              <LongitudeDegrees>24.73319180309772491455078125</LongitudeDegrees>
            </Position>
            <AltitudeMeters>603.4000244140625</AltitudeMeters>
            <DistanceMeters>8323.4630703861</DistanceMeters>
          </Trackpoint>
          <Trackpoint>
            <Time>2022-09-18T08:53:21.000Z</Time>
            <Position>
              <LatitudeDegrees>40.69046149961650371551513671875</LatitudeDegrees>
              <LongitudeDegrees>24.73317830823361873626708984375</LongitudeDegrees>
            </Position>
            <AltitudeMeters>603.20001220703125</AltitudeMeters>
            <DistanceMeters>8325.2459295809</DistanceMeters>
          </Trackpoint>
          <Trackpoint>
            <Time>2022-09-18T08:53:23.000Z</Time>
            <Position>
              <LatitudeDegrees>40.69043635390698909759521484375</LatitudeDegrees>
              <LongitudeDegrees>24.73315316252410411834716796875</LongitudeDegrees>
            </Position>
            <AltitudeMeters>602.79998779296875</AltitudeMeters>
            <DistanceMeters>8328.7567776758</DistanceMeters>
          </Trackpoint>
          <Trackpoint>
            <Time>2022-09-18T08:53:26.000Z</Time>
            <Position>
              <LatitudeDegrees>40.690400563180446624755859375</LatitudeDegrees>
              <LongitudeDegrees>24.7331146895885467529296875</LongitudeDegrees>
            </Position>
            <AltitudeMeters>602</AltitudeMeters>
            <DistanceMeters>8333.8961330438</DistanceMeters>
          </Trackpoint>
          <Trackpoint>
            <Time>2022-09-18T08:53:28.000Z</Time>
            <Position>
              <LatitudeDegrees>40.69037516601383686065673828125</LatitudeDegrees>
              <LongitudeDegrees>24.733088873326778411865234375</LongitudeDegrees>
            </Position>
            <AltitudeMeters>601</AltitudeMeters>
            <DistanceMeters>8337.4643830051</DistanceMeters>
          </Trackpoint>
          <Trackpoint>
            <Time>2022-09-18T08:53:29.000Z</Time>
            <Position>
              <LatitudeDegrees>40.69036443717777729034423828125</LatitudeDegrees>
              <LongitudeDegrees>24.73308585584163665771484375</LongitudeDegrees>
            </Position>
            <AltitudeMeters>600.79998779296875</AltitudeMeters>
            <DistanceMeters>8338.6887165747</DistanceMeters>
          </Trackpoint>
          <Trackpoint>
            <Time>2022-09-18T08:53:32.000Z</Time>
            <Position>
              <LatitudeDegrees>40.690352283418178558349609375</LatitudeDegrees>
              <LongitudeDegrees>24.73306347616016864776611328125</LongitudeDegrees>
            </Position>
            <AltitudeMeters>600.20001220703125</AltitudeMeters>
            <DistanceMeters>8341.0105597298</DistanceMeters>
          </Trackpoint>
          <Trackpoint>
            <Time>2022-09-18T08:53:34.000Z</Time>
            <Position>
              <LatitudeDegrees>40.69037231616675853729248046875</LatitudeDegrees>
              <LongitudeDegrees>24.73305107094347476959228515625</LongitudeDegrees>
            </Position>
            <AltitudeMeters>599.4000244140625</AltitudeMeters>
            <DistanceMeters>8343.4721001609</DistanceMeters>
          </Trackpoint>
          <Trackpoint>
            <Time>2022-09-18T08:53:36.000Z</Time>
            <Position>
              <LatitudeDegrees>40.6904097832739353179931640625</LatitudeDegrees>
              <LongitudeDegrees>24.73305224440991878509521484375</LongitudeDegrees>
            </Position>
            <AltitudeMeters>598.4000244140625</AltitudeMeters>
            <DistanceMeters>8347.6424631225</DistanceMeters>
          </Trackpoint>
          <Trackpoint>
            <Time>2022-09-18T08:53:37.000Z</Time>
            <Position>
              <LatitudeDegrees>40.69042579270899295806884765625</LatitudeDegrees>
              <LongitudeDegrees>24.7330575250089168548583984375</LongitudeDegrees>
            </Position>
            <AltitudeMeters>598</AltitudeMeters>
            <DistanceMeters>8349.4801923164</DistanceMeters>
          </Trackpoint>
          <Trackpoint>
            <Time>2022-09-18T08:53:40.000Z</Time>
            <Position>
              <LatitudeDegrees>40.69047742523252964019775390625</LatitudeDegrees>
              <LongitudeDegrees>24.73307370208203792572021484375</LongitudeDegrees>
            </Position>
            <AltitudeMeters>596.79998779296875</AltitudeMeters>
            <DistanceMeters>8355.3871556123</DistanceMeters>
          </Trackpoint>
          <Trackpoint>
            <Time>2022-09-18T08:53:43.000Z</Time>
            <Position>
              <LatitudeDegrees>40.69051950238645076751708984375</LatitudeDegrees>
              <LongitudeDegrees>24.7330843470990657806396484375</LongitudeDegrees>
            </Position>
            <AltitudeMeters>595.79998779296875</AltitudeMeters>
            <DistanceMeters>8360.1555654611</DistanceMeters>
          </Trackpoint>
          <Trackpoint>
            <Time>2022-09-18T08:53:45.000Z</Time>
            <Position>
              <LatitudeDegrees>40.6905418820679187774658203125</LatitudeDegrees>
              <LongitudeDegrees>24.7330994345247745513916015625</LongitudeDegrees>
            </Position>
            <AltitudeMeters>595.5999755859375</AltitudeMeters>
            <DistanceMeters>8362.9520000125</DistanceMeters>
          </Trackpoint>
          <Trackpoint>
            <Time>2022-09-18T08:53:48.000Z</Time>
            <Position>
              <LatitudeDegrees>40.690566860139369964599609375</LatitudeDegrees>
              <LongitudeDegrees>24.73312801681458950042724609375</LongitudeDegrees>
            </Position>
            <AltitudeMeters>594.79998779296875</AltitudeMeters>
            <DistanceMeters>8366.6323688345</DistanceMeters>
          </Trackpoint>
          <Trackpoint>
            <Time>2022-09-18T08:53:51.000Z</Time>
            <Position>
              <LatitudeDegrees>40.6906015612185001373291015625</LatitudeDegrees>
              <LongitudeDegrees>24.73313271068036556243896484375</LongitudeDegrees>
            </Position>
            <AltitudeMeters>593.4000244140625</AltitudeMeters>
            <DistanceMeters>8370.5145328683</DistanceMeters>
          </Trackpoint>
          <Trackpoint>
            <Time>2022-09-18T08:53:53.000Z</Time>
            <Position>
              <LatitudeDegrees>40.69061287678778171539306640625</LatitudeDegrees>
              <LongitudeDegrees>24.73310437984764575958251953125</LongitudeDegrees>
            </Position>
            <AltitudeMeters>592.5999755859375</AltitudeMeters>
            <DistanceMeters>8373.21569961</DistanceMeters>
          </Trackpoint>
          <Trackpoint>
            <Time>2022-09-18T08:53:54.000Z</Time>
            <Position>
              <LatitudeDegrees>40.6906052492558956146240234375</LatitudeDegrees>
              <LongitudeDegrees>24.7330903820693492889404296875</LongitudeDegrees>
            </Position>
            <AltitudeMeters>592.4000244140625</AltitudeMeters>
            <DistanceMeters>8374.6724315566</DistanceMeters>
          </Trackpoint>
          <Trackpoint>
            <Time>2022-09-18T08:53:57.000Z</Time>
            <Position>
              <LatitudeDegrees>40.69056442938745021820068359375</LatitudeDegrees>
              <LongitudeDegrees>24.73302676342427730560302734375</LongitudeDegrees>
            </Position>
            <AltitudeMeters>591.20001220703125</AltitudeMeters>
            <DistanceMeters>8381.7056924476</DistanceMeters>
          </Trackpoint>
          <Trackpoint>
            <Time>2022-09-18T08:53:58.000Z</Time>
            <Position>
              <LatitudeDegrees>40.69055001251399517059326171875</LatitudeDegrees>
              <LongitudeDegrees>24.73300932906568050384521484375</LongitudeDegrees>
            </Position>
            <AltitudeMeters>590.79998779296875</AltitudeMeters>
            <DistanceMeters>8383.8809533645</DistanceMeters>
          </Trackpoint>
          <Trackpoint>
            <Time>2022-09-18T08:54:02.000Z</Time>
            <Position>
              <LatitudeDegrees>40.69049217738211154937744140625</LatitudeDegrees>
              <LongitudeDegrees>24.73295568488538265228271484375</LongitudeDegrees>
            </Position>
            <AltitudeMeters>590.20001220703125</AltitudeMeters>
            <DistanceMeters>8391.7504046956</DistanceMeters>
          </Trackpoint>
          <Trackpoint>
            <Time>2022-09-18T08:54:06.000Z</Time>
            <Position>
              <LatitudeDegrees>40.69044859148561954498291015625</LatitudeDegrees>
              <LongitudeDegrees>24.7329215705394744873046875</LongitudeDegrees>
            </Position>
            <AltitudeMeters>589.20001220703125</AltitudeMeters>
            <DistanceMeters>8397.3915029387</DistanceMeters>
          </Trackpoint>
          <Trackpoint>
            <Time>2022-09-18T08:54:07.000Z</Time>
            <Position>
              <LatitudeDegrees>40.6904530338943004608154296875</LatitudeDegrees>
              <LongitudeDegrees>24.73290472291409969329833984375</LongitudeDegrees>
            </Position>
            <AltitudeMeters>588.79998779296875</AltitudeMeters>
            <DistanceMeters>8398.8940072186</DistanceMeters>
          </Trackpoint>
          <Trackpoint>
            <Time>2022-09-18T08:54:09.000Z</Time>
            <Position>
              <LatitudeDegrees>40.69047289900481700897216796875</LatitudeDegrees>
              <LongitudeDegrees>24.7328918986022472381591796875</LongitudeDegrees>
            </Position>
            <AltitudeMeters>588</AltitudeMeters>
            <DistanceMeters>8401.3573811996</DistanceMeters>
          </Trackpoint>
          <Trackpoint>
            <Time>2022-09-18T08:54:10.000Z</Time>
            <Position>
              <LatitudeDegrees>40.690487734973430633544921875</LatitudeDegrees>
              <LongitudeDegrees>24.73288879729807376861572265625</LongitudeDegrees>
            </Position>
            <AltitudeMeters>587.5999755859375</AltitudeMeters>
            <DistanceMeters>8403.0250932685</DistanceMeters>
          </Trackpoint>
          <Trackpoint>
            <Time>2022-09-18T08:54:13.000Z</Time>
            <Position>
              <LatitudeDegrees>40.69052302278578281402587890625</LatitudeDegrees>
              <LongitudeDegrees>24.73288728855550289154052734375</LongitudeDegrees>
            </Position>
            <AltitudeMeters>586.79998779296875</AltitudeMeters>
            <DistanceMeters>8406.9546518593</DistanceMeters>
          </Trackpoint>
          <Trackpoint>
            <Time>2022-09-18T08:54:17.000Z</Time>
            <Position>
              <LatitudeDegrees>40.6905643455684185028076171875</LatitudeDegrees>
              <LongitudeDegrees>24.73288561217486858367919921875</LongitudeDegrees>
            </Position>
            <AltitudeMeters>585.5999755859375</AltitudeMeters>
            <DistanceMeters>8411.5563395129</DistanceMeters>
          </Trackpoint>
          <Trackpoint>
            <Time>2022-09-18T08:54:18.000Z</Time>
            <Position>
              <LatitudeDegrees>40.6905754096806049346923828125</LatitudeDegrees>
              <LongitudeDegrees>24.7328825108706951141357421875</LongitudeDegrees>
            </Position>
            <AltitudeMeters>585.20001220703125</AltitudeMeters>
            <DistanceMeters>8412.8134247836</DistanceMeters>
          </Trackpoint>
          <Trackpoint>
            <Time>2022-09-18T08:54:20.000Z</Time>
            <Position>
              <LatitudeDegrees>40.6905988790094852447509765625</LatitudeDegrees>
              <LongitudeDegrees>24.7328813374042510986328125</LongitudeDegrees>
            </Position>
            <AltitudeMeters>584.4000244140625</AltitudeMeters>
            <DistanceMeters>8415.4279549265</DistanceMeters>
          </Trackpoint>
          <Trackpoint>
            <Time>2022-09-18T08:54:22.000Z</Time>
            <Position>
              <LatitudeDegrees>40.690597705543041229248046875</LatitudeDegrees>
              <LongitudeDegrees>24.73288158886134624481201171875</LongitudeDegrees>
            </Position>
            <AltitudeMeters>583.4000244140625</AltitudeMeters>
            <DistanceMeters>8415.5623429947</DistanceMeters>
          </Trackpoint>
          <Trackpoint>
            <Time>2022-09-18T08:54:23.000Z</Time>
            <Position>
              <LatitudeDegrees>40.69058974273502826690673828125</LatitudeDegrees>
              <LongitudeDegrees>24.73287991248071193695068359375</LongitudeDegrees>
            </Position>
            <AltitudeMeters>583</AltitudeMeters>
            <DistanceMeters>8416.4588232251</DistanceMeters>
          </Trackpoint>
          <Trackpoint>
            <Time>2022-09-18T08:54:26.000Z</Time>
            <Position>
              <LatitudeDegrees>40.690568201243877410888671875</LatitudeDegrees>
              <LongitudeDegrees>24.73285225220024585723876953125</LongitudeDegrees>
            </Position>
            <AltitudeMeters>581.79998779296875</AltitudeMeters>
            <DistanceMeters>8419.8050591389</DistanceMeters>
          </Trackpoint>
          <Trackpoint>
            <Time>2022-09-18T08:54:28.000Z</Time>
            <Position>
              <LatitudeDegrees>40.69055235944688320159912109375</LatitudeDegrees>
              <LongitudeDegrees>24.73283708095550537109375</LongitudeDegrees>
            </Position>
            <AltitudeMeters>581.4000244140625</AltitudeMeters>
            <DistanceMeters>8421.9844673635</DistanceMeters>
          </Trackpoint>
          <Trackpoint>
            <Time>2022-09-18T08:54:29.000Z</Time>
            <Position>
              <LatitudeDegrees>40.690552778542041778564453125</LatitudeDegrees>
              <LongitudeDegrees>24.73282878287136554718017578125</LongitudeDegrees>
            </Position>
            <AltitudeMeters>581.20001220703125</AltitudeMeters>
            <DistanceMeters>8422.6827682499</DistanceMeters>
          </Trackpoint>
          <Trackpoint>
            <Time>2022-09-18T08:54:30.000Z</Time>
            <Position>
              <LatitudeDegrees>40.6905573047697544097900390625</LatitudeDegrees>
              <LongitudeDegrees>24.73282576538622379302978515625</LongitudeDegrees>
            </Position>
            <AltitudeMeters>580.79998779296875</AltitudeMeters>
            <DistanceMeters>8423.2368644501</DistanceMeters>
          </Trackpoint>
          <Trackpoint>
            <Time>2022-09-18T08:54:31.000Z</Time>
            <Position>
              <LatitudeDegrees>40.69056560285389423370361328125</LatitudeDegrees>
              <LongitudeDegrees>24.73282123915851116180419921875</LongitudeDegrees>
            </Position>
            <AltitudeMeters>580.4000244140625</AltitudeMeters>
            <DistanceMeters>8424.2335130386</DistanceMeters>
          </Trackpoint>
          <Trackpoint>
            <Time>2022-09-18T08:54:32.000Z</Time>
            <Position>
              <LatitudeDegrees>40.690572559833526611328125</LatitudeDegrees>
              <LongitudeDegrees>24.732815958559513092041015625</LongitudeDegrees>
            </Position>
            <AltitudeMeters>580</AltitudeMeters>
            <DistanceMeters>8425.1249426359</DistanceMeters>
          </Trackpoint>
          <Trackpoint>
            <Time>2022-09-18T08:54:33.000Z</Time>
            <Position>
              <LatitudeDegrees>40.69058085791766643524169921875</LatitudeDegrees>
              <LongitudeDegrees>24.732814617455005645751953125</LongitudeDegrees>
            </Position>
            <AltitudeMeters>579.4000244140625</AltitudeMeters>
            <DistanceMeters>8426.0560104845</DistanceMeters>
          </Trackpoint>
          <Trackpoint>
            <Time>2022-09-18T08:54:34.000Z</Time>
            <Position>
              <LatitudeDegrees>40.69059359841048717498779296875</LatitudeDegrees>
              <LongitudeDegrees>24.73281218670308589935302734375</LongitudeDegrees>
            </Position>
            <AltitudeMeters>579</AltitudeMeters>
            <DistanceMeters>8427.4877322985</DistanceMeters>
          </Trackpoint>
          <Trackpoint>
            <Time>2022-09-18T08:54:36.000Z</Time>
            <Position>
              <LatitudeDegrees>40.6906236894428730010986328125</LatitudeDegrees>
              <LongitudeDegrees>24.732809923589229583740234375</LongitudeDegrees>
            </Position>
            <AltitudeMeters>578.20001220703125</AltitudeMeters>
            <DistanceMeters>8430.8420541747</DistanceMeters>
          </Trackpoint>
          <Trackpoint>
            <Time>2022-09-18T08:54:39.000Z</Time>
            <Position>
              <LatitudeDegrees>40.6906719692051410675048828125</LatitudeDegrees>
              <LongitudeDegrees>24.732811935245990753173828125</LongitudeDegrees>
            </Position>
            <AltitudeMeters>577</AltitudeMeters>
            <DistanceMeters>8436.2175769047</DistanceMeters>
          </Trackpoint>
          <Trackpoint>
            <Time>2022-09-18T08:54:42.000Z</Time>
            <Position>
              <LatitudeDegrees>40.69071714766323566436767578125</LatitudeDegrees>
              <LongitudeDegrees>24.732823334634304046630859375</LongitudeDegrees>
            </Position>
            <AltitudeMeters>575.79998779296875</AltitudeMeters>
            <DistanceMeters>8441.336686382</DistanceMeters>
          </Trackpoint>
          <Trackpoint>
            <Time>2022-09-18T08:54:44.000Z</Time>
            <Position>
              <LatitudeDegrees>40.6907433830201625823974609375</LatitudeDegrees>
              <LongitudeDegrees>24.73285074345767498016357421875</LongitudeDegrees>
            </Position>
            <AltitudeMeters>575</AltitudeMeters>
            <DistanceMeters>8445.0633816433</DistanceMeters>
          </Trackpoint>
          <Trackpoint>
            <Time>2022-09-18T08:54:45.000Z</Time>
            <Position>
              <LatitudeDegrees>40.6907534413039684295654296875</LatitudeDegrees>
              <LongitudeDegrees>24.732876308262348175048828125</LongitudeDegrees>
            </Position>
            <AltitudeMeters>574.79998779296875</AltitudeMeters>
            <DistanceMeters>8447.4972530753</DistanceMeters>
          </Trackpoint>
          <Trackpoint>
            <Time>2022-09-18T08:54:49.000Z</Time>
            <Position>
              <LatitudeDegrees>40.69079057313501834869384765625</LatitudeDegrees>
              <LongitudeDegrees>24.7329814173281192779541015625</LongitudeDegrees>
            </Position>
            <AltitudeMeters>573.5999755859375</AltitudeMeters>
            <DistanceMeters>8457.2836206733</DistanceMeters>
          </Trackpoint>
          <Trackpoint>
            <Time>2022-09-18T08:54:55.000Z</Time>
            <Position>
              <LatitudeDegrees>40.69085192866623401641845703125</LatitudeDegrees>
              <LongitudeDegrees>24.73308049142360687255859375</LongitudeDegrees>
            </Position>
            <AltitudeMeters>572.4000244140625</AltitudeMeters>
            <DistanceMeters>8468.0790903985</DistanceMeters>
          </Trackpoint>
          <Trackpoint>
            <Time>2022-09-18T08:54:57.000Z</Time>
            <Position>
              <LatitudeDegrees>40.690871961414813995361328125</LatitudeDegrees>
              <LongitudeDegrees>24.733091555535793304443359375</LongitudeDegrees>
            </Position>
            <AltitudeMeters>572</AltitudeMeters>
            <DistanceMeters>8470.4980756269</DistanceMeters>
          </Trackpoint>
          <Trackpoint>
            <Time>2022-09-18T08:54:59.000Z</Time>
            <Position>
              <LatitudeDegrees>40.69091252982616424560546875</LatitudeDegrees>
              <LongitudeDegrees>24.7331161983311176300048828125</LongitudeDegrees>
            </Position>
            <AltitudeMeters>571.5999755859375</AltitudeMeters>
            <DistanceMeters>8475.4686177655</DistanceMeters>
          </Trackpoint>
          <Trackpoint>
            <Time>2022-09-18T08:55:00.000Z</Time>
            <Position>
              <LatitudeDegrees>40.6909254379570484161376953125</LatitudeDegrees>
              <LongitudeDegrees>24.7331249155104160308837890625</LongitudeDegrees>
            </Position>
            <AltitudeMeters>571.20001220703125</AltitudeMeters>
            <DistanceMeters>8477.0812745844</DistanceMeters>
          </Trackpoint>
          <Trackpoint>
            <Time>2022-09-18T08:55:01.000Z</Time>
            <Position>
              <LatitudeDegrees>40.69093658588826656341552734375</LatitudeDegrees>
              <LongitudeDegrees>24.733131788671016693115234375</LongitudeDegrees>
            </Position>
            <AltitudeMeters>570.79998779296875</AltitudeMeters>
            <DistanceMeters>8478.4484709214</DistanceMeters>
          </Trackpoint>
          <Trackpoint>
            <Time>2022-09-18T08:55:04.000Z</Time>
            <Position>
              <LatitudeDegrees>40.69096273742616176605224609375</LatitudeDegrees>
              <LongitudeDegrees>24.7331524081528186798095703125</LongitudeDegrees>
            </Position>
            <AltitudeMeters>570</AltitudeMeters>
            <DistanceMeters>8481.8402724176</DistanceMeters>
          </Trackpoint>
          <Trackpoint>
            <Time>2022-09-18T08:55:07.000Z</Time>
            <Position>
              <LatitudeDegrees>40.6910012103617191314697265625</LatitudeDegrees>
              <LongitudeDegrees>24.73316757939755916595458984375</LongitudeDegrees>
            </Position>
            <AltitudeMeters>569.20001220703125</AltitudeMeters>
            <DistanceMeters>8486.3095597315</DistanceMeters>
          </Trackpoint>
          <Trackpoint>
            <Time>2022-09-18T08:55:08.000Z</Time>
            <Position>
              <LatitudeDegrees>40.691012106835842132568359375</LatitudeDegrees>
              <LongitudeDegrees>24.7331750392913818359375</LongitudeDegrees>
            </Position>
            <AltitudeMeters>568.79998779296875</AltitudeMeters>
            <DistanceMeters>8487.6767560685</DistanceMeters>
          </Trackpoint>
          <Trackpoint>
            <Time>2022-09-18T08:55:12.000Z</Time>
            <Position>
              <LatitudeDegrees>40.6910622306168079376220703125</LatitudeDegrees>
              <LongitudeDegrees>24.7332090698182582855224609375</LongitudeDegrees>
            </Position>
            <AltitudeMeters>567.79998779296875</AltitudeMeters>
            <DistanceMeters>8493.9521176814</DistanceMeters>
          </Trackpoint>
          <Trackpoint>
            <Time>2022-09-18T08:55:13.000Z</Time>
            <Position>
              <LatitudeDegrees>40.6910743005573749542236328125</LatitudeDegrees>
              <LongitudeDegrees>24.73322323523461818695068359375</LongitudeDegrees>
            </Position>
            <AltitudeMeters>567.4000244140625</AltitudeMeters>
            <DistanceMeters>8495.7501074942</DistanceMeters>
          </Trackpoint>
          <Trackpoint>
            <Time>2022-09-18T08:55:17.000Z</Time>
            <Position>
              <LatitudeDegrees>40.69111637771129608154296875</LatitudeDegrees>
              <LongitudeDegrees>24.7332523204386234283447265625</LongitudeDegrees>
            </Position>
            <AltitudeMeters>566.20001220703125</AltitudeMeters>
            <DistanceMeters>8501.0375564699</DistanceMeters>
          </Trackpoint>
          <Trackpoint>
            <Time>2022-09-18T08:55:20.000Z</Time>
            <Position>
              <LatitudeDegrees>40.6911487318575382232666015625</LatitudeDegrees>
              <LongitudeDegrees>24.73325349390506744384765625</LongitudeDegrees>
            </Position>
            <AltitudeMeters>565.20001220703125</AltitudeMeters>
            <DistanceMeters>8504.6410616976</DistanceMeters>
          </Trackpoint>
          <Trackpoint>
            <Time>2022-09-18T08:55:24.000Z</Time>
            <Position>
              <LatitudeDegrees>40.69118636660277843475341796875</LatitudeDegrees>
              <LongitudeDegrees>24.73325349390506744384765625</LongitudeDegrees>
            </Position>
            <AltitudeMeters>563.79998779296875</AltitudeMeters>
            <DistanceMeters>8508.8308670161</DistanceMeters>
          </Trackpoint>
          <Trackpoint>
            <Time>2022-09-18T08:55:26.000Z</Time>
            <Position>
              <LatitudeDegrees>40.69118770770728588104248046875</LatitudeDegrees>
              <LongitudeDegrees>24.73323547281324863433837890625</LongitudeDegrees>
            </Position>
            <AltitudeMeters>563.20001220703125</AltitudeMeters>
            <DistanceMeters>8510.3572220608</DistanceMeters>
          </Trackpoint>
          <Trackpoint>
            <Time>2022-09-18T08:55:27.000Z</Time>
            <Position>
              <LatitudeDegrees>40.6911825947463512420654296875</LatitudeDegrees>
              <LongitudeDegrees>24.7332228161394596099853515625</LongitudeDegrees>
            </Position>
            <AltitudeMeters>562.79998779296875</AltitudeMeters>
            <DistanceMeters>8511.5667146751</DistanceMeters>
          </Trackpoint>
          <Trackpoint>
            <Time>2022-09-18T08:55:28.000Z</Time>
            <Position>
              <LatitudeDegrees>40.69117748178541660308837890625</LatitudeDegrees>
              <LongitudeDegrees>24.7332137636840343475341796875</LongitudeDegrees>
            </Position>
            <AltitudeMeters>562.4000244140625</AltitudeMeters>
            <DistanceMeters>8512.5169818188</DistanceMeters>
          </Trackpoint>
          <Trackpoint>
            <Time>2022-09-18T08:55:31.000Z</Time>
            <Position>
              <LatitudeDegrees>40.691171698272228240966796875</LatitudeDegrees>
              <LongitudeDegrees>24.73319171927869319915771484375</LongitudeDegrees>
            </Position>
            <AltitudeMeters>561.5999755859375</AltitudeMeters>
            <DistanceMeters>8514.4829097722</DistanceMeters>
          </Trackpoint>
          <Trackpoint>
            <Time>2022-09-18T08:55:32.000Z</Time>
            <Position>
              <LatitudeDegrees>40.691181756556034088134765625</LatitudeDegrees>
              <LongitudeDegrees>24.73319004289805889129638671875</LongitudeDegrees>
            </Position>
            <AltitudeMeters>561.20001220703125</AltitudeMeters>
            <DistanceMeters>8515.6072810197</DistanceMeters>
          </Trackpoint>
          <Trackpoint>
            <Time>2022-09-18T08:55:34.000Z</Time>
            <Position>
              <LatitudeDegrees>40.691199861466884613037109375</LatitudeDegrees>
              <LongitudeDegrees>24.73319188691675662994384765625</LongitudeDegrees>
            </Position>
            <AltitudeMeters>560.20001220703125</AltitudeMeters>
            <DistanceMeters>8517.6275766794</DistanceMeters>
          </Trackpoint>
          <Trackpoint>
            <Time>2022-09-18T08:55:37.000Z</Time>
            <Position>
              <LatitudeDegrees>40.6912486441433429718017578125</LatitudeDegrees>
              <LongitudeDegrees>24.7331963293254375457763671875</LongitudeDegrees>
            </Position>
            <AltitudeMeters>559.20001220703125</AltitudeMeters>
            <DistanceMeters>8523.0698786497</DistanceMeters>
          </Trackpoint>
          <Trackpoint>
            <Time>2022-09-18T08:55:38.000Z</Time>
            <Position>
              <LatitudeDegrees>40.69126658141613006591796875</LatitudeDegrees>
              <LongitudeDegrees>24.733198843896389007568359375</LongitudeDegrees>
            </Position>
            <AltitudeMeters>559</AltitudeMeters>
            <DistanceMeters>8525.0767204706</DistanceMeters>
          </Trackpoint>
          <Trackpoint>
            <Time>2022-09-18T08:55:41.000Z</Time>
            <Position>
              <LatitudeDegrees>40.69131745956838130950927734375</LatitudeDegrees>
              <LongitudeDegrees>24.7331926412880420684814453125</LongitudeDegrees>
            </Position>
            <AltitudeMeters>557.79998779296875</AltitudeMeters>
            <DistanceMeters>8530.7624634888</DistanceMeters>
          </Trackpoint>
          <Trackpoint>
            <Time>2022-09-18T08:55:46.000Z</Time>
            <Position>
              <LatitudeDegrees>40.69140203297138214111328125</LatitudeDegrees>
              <LongitudeDegrees>24.7331919707357883453369140625</LongitudeDegrees>
            </Position>
            <AltitudeMeters>556.5999755859375</AltitudeMeters>
            <DistanceMeters>8540.1753859929</DistanceMeters>
          </Trackpoint>
          <Trackpoint>
            <Time>2022-09-18T08:55:49.000Z</Time>
            <Position>
              <LatitudeDegrees>40.69145844317972660064697265625</LatitudeDegrees>
              <LongitudeDegrees>24.7331929765641689300537109375</LongitudeDegrees>
            </Position>
            <AltitudeMeters>555.4000244140625</AltitudeMeters>
            <DistanceMeters>8546.4543440079</DistanceMeters>
          </Trackpoint>
          <Trackpoint>
            <Time>2022-09-18T08:55:54.000Z</Time>
            <Position>
              <LatitudeDegrees>40.69153186865150928497314453125</LatitudeDegrees>
              <LongitudeDegrees>24.73316229879856109619140625</LongitudeDegrees>
            </Position>
            <AltitudeMeters>554.20001220703125</AltitudeMeters>
            <DistanceMeters>8555.026786023</DistanceMeters>
          </Trackpoint>
          <Trackpoint>
            <Time>2022-09-18T08:55:55.000Z</Time>
            <Position>
              <LatitudeDegrees>40.69154058583080768585205078125</LatitudeDegrees>
              <LongitudeDegrees>24.73315265960991382598876953125</LongitudeDegrees>
            </Position>
            <AltitudeMeters>554</AltitudeMeters>
            <DistanceMeters>8556.2910342306</DistanceMeters>
          </Trackpoint>
          <Trackpoint>
            <Time>2022-09-18T08:55:57.000Z</Time>
            <Position>
              <LatitudeDegrees>40.69154377095401287078857421875</LatitudeDegrees>
              <LongitudeDegrees>24.7331336326897144317626953125</LongitudeDegrees>
            </Position>
            <AltitudeMeters>553.20001220703125</AltitudeMeters>
            <DistanceMeters>8557.9369452043</DistanceMeters>
          </Trackpoint>
          <Trackpoint>
            <Time>2022-09-18T08:55:58.000Z</Time>
            <Position>
              <LatitudeDegrees>40.69153723306953907012939453125</LatitudeDegrees>
              <LongitudeDegrees>24.7331232391297817230224609375</LongitudeDegrees>
            </Position>
            <AltitudeMeters>552.79998779296875</AltitudeMeters>
            <DistanceMeters>8559.0732994323</DistanceMeters>
          </Trackpoint>
          <Trackpoint>
            <Time>2022-09-18T08:56:00.000Z</Time>
            <Position>
              <LatitudeDegrees>40.69151611067354679107666015625</LatitudeDegrees>
              <LongitudeDegrees>24.73310303874313831329345703125</LongitudeDegrees>
            </Position>
            <AltitudeMeters>552.4000244140625</AltitudeMeters>
            <DistanceMeters>8561.9774501513</DistanceMeters>
          </Trackpoint>
          <Trackpoint>
            <Time>2022-09-18T08:56:02.000Z</Time>
            <Position>
              <LatitudeDegrees>40.69149347953498363494873046875</LatitudeDegrees>
              <LongitudeDegrees>24.73308610729873180389404296875</LongitudeDegrees>
            </Position>
            <AltitudeMeters>552</AltitudeMeters>
            <DistanceMeters>8564.8722577338</DistanceMeters>
          </Trackpoint>
          <Trackpoint>
            <Time>2022-09-18T08:56:05.000Z</Time>
            <Position>
              <LatitudeDegrees>40.69146581925451755523681640625</LatitudeDegrees>
              <LongitudeDegrees>24.7330685891211032867431640625</LongitudeDegrees>
            </Position>
            <AltitudeMeters>550.79998779296875</AltitudeMeters>
            <DistanceMeters>8568.2879361094</DistanceMeters>
          </Trackpoint>
          <Trackpoint>
            <Time>2022-09-18T08:56:08.000Z</Time>
            <Position>
              <LatitudeDegrees>40.69143380038440227508544921875</LatitudeDegrees>
              <LongitudeDegrees>24.73305006511509418487548828125</LongitudeDegrees>
            </Position>
            <AltitudeMeters>549.4000244140625</AltitudeMeters>
            <DistanceMeters>8572.180553259</DistanceMeters>
          </Trackpoint>
          <Trackpoint>
            <Time>2022-09-18T08:56:10.000Z</Time>
            <Position>
              <LatitudeDegrees>40.6914085708558559417724609375</LatitudeDegrees>
              <LongitudeDegrees>24.733028523623943328857421875</LongitudeDegrees>
            </Position>
            <AltitudeMeters>548.4000244140625</AltitudeMeters>
            <DistanceMeters>8575.5267891727</DistanceMeters>
          </Trackpoint>
          <Trackpoint>
            <Time>2022-09-18T08:56:13.000Z</Time>
            <Position>
              <LatitudeDegrees>40.69137076847255229949951171875</LatitudeDegrees>
              <LongitudeDegrees>24.733015783131122589111328125</LongitudeDegrees>
            </Position>
            <AltitudeMeters>547.20001220703125</AltitudeMeters>
            <DistanceMeters>8579.8700402237</DistanceMeters>
          </Trackpoint>
          <Trackpoint>
            <Time>2022-09-18T08:56:15.000Z</Time>
            <Position>
              <LatitudeDegrees>40.6913562677800655364990234375</LatitudeDegrees>
              <LongitudeDegrees>24.7330045513808727264404296875</LongitudeDegrees>
            </Position>
            <AltitudeMeters>546.79998779296875</AltitudeMeters>
            <DistanceMeters>8581.7418494181</DistanceMeters>
          </Trackpoint>
          <Trackpoint>
            <Time>2022-09-18T08:56:17.000Z</Time>
            <Position>
              <LatitudeDegrees>40.69133908487856388092041015625</LatitudeDegrees>
              <LongitudeDegrees>24.73299390636384487152099609375</LongitudeDegrees>
            </Position>
            <AltitudeMeters>546.20001220703125</AltitudeMeters>
            <DistanceMeters>8583.8539236978</DistanceMeters>
          </Trackpoint>
          <Trackpoint>
            <Time>2022-09-18T08:56:20.000Z</Time>
            <Position>
              <LatitudeDegrees>40.691305138170719146728515625</LatitudeDegrees>
              <LongitudeDegrees>24.73297722637653350830078125</LongitudeDegrees>
            </Position>
            <AltitudeMeters>545.20001220703125</AltitudeMeters>
            <DistanceMeters>8587.8855657453</DistanceMeters>
          </Trackpoint>
          <Trackpoint>
            <Time>2022-09-18T08:56:21.000Z</Time>
            <Position>
              <LatitudeDegrees>40.6912949122488498687744140625</LatitudeDegrees>
              <LongitudeDegrees>24.7329727001488208770751953125</LongitudeDegrees>
            </Position>
            <AltitudeMeters>545</AltitudeMeters>
            <DistanceMeters>8589.0838070209</DistanceMeters>
          </Trackpoint>
          <Trackpoint>
            <Time>2022-09-18T08:56:23.000Z</Time>
            <Position>
              <LatitudeDegrees>40.6912737898528575897216796875</LatitudeDegrees>
              <LongitudeDegrees>24.73295384086668491363525390625</LongitudeDegrees>
            </Position>
            <AltitudeMeters>544.79998779296875</AltitudeMeters>
            <DistanceMeters>8591.9250898898</DistanceMeters>
          </Trackpoint>
          <Trackpoint>
            <Time>2022-09-18T08:56:24.000Z</Time>
            <Position>
              <LatitudeDegrees>40.69126188755035400390625</LatitudeDegrees>
              <LongitudeDegrees>24.7329462133347988128662109375</LongitudeDegrees>
            </Position>
            <AltitudeMeters>544.5999755859375</AltitudeMeters>
            <DistanceMeters>8593.3972374186</DistanceMeters>
          </Trackpoint>
          <Trackpoint>
            <Time>2022-09-18T08:56:26.000Z</Time>
            <Position>
              <LatitudeDegrees>40.69124219007790088653564453125</LatitudeDegrees>
              <LongitudeDegrees>24.732930622994899749755859375</LongitudeDegrees>
            </Position>
            <AltitudeMeters>543.79998779296875</AltitudeMeters>
            <DistanceMeters>8595.9541447977</DistanceMeters>
          </Trackpoint>
          <Trackpoint>
            <Time>2022-09-18T08:56:29.000Z</Time>
            <Position>
              <LatitudeDegrees>40.69121159613132476806640625</LatitudeDegrees>
              <LongitudeDegrees>24.73290271125733852386474609375</LongitudeDegrees>
            </Position>
            <AltitudeMeters>542.4000244140625</AltitudeMeters>
            <DistanceMeters>8600.0962632465</DistanceMeters>
          </Trackpoint>
          <Trackpoint>
            <Time>2022-09-18T08:56:32.000Z</Time>
            <Position>
              <LatitudeDegrees>40.6912015378475189208984375</LatitudeDegrees>
              <LongitudeDegrees>24.7328808344900608062744140625</LongitudeDegrees>
            </Position>
            <AltitudeMeters>541.5999755859375</AltitudeMeters>
            <DistanceMeters>8602.2590345238</DistanceMeters>
          </Trackpoint>
          <Trackpoint>
            <Time>2022-09-18T08:56:33.000Z</Time>
            <Position>
              <LatitudeDegrees>40.6912074051797389984130859375</LatitudeDegrees>
              <LongitudeDegrees>24.73288041539490222930908203125</LongitudeDegrees>
            </Position>
            <AltitudeMeters>541.4000244140625</AltitudeMeters>
            <DistanceMeters>8602.9173989133</DistanceMeters>
          </Trackpoint>
          <Trackpoint>
            <Time>2022-09-18T08:56:35.000Z</Time>
            <Position>
              <LatitudeDegrees>40.69122458808124065399169921875</LatitudeDegrees>
              <LongitudeDegrees>24.7328818403184413909912109375</LongitudeDegrees>
            </Position>
            <AltitudeMeters>540.79998779296875</AltitudeMeters>
            <DistanceMeters>8604.8321341525</DistanceMeters>
          </Trackpoint>
          <Trackpoint>
            <Time>2022-09-18T08:56:37.000Z</Time>
            <Position>
              <LatitudeDegrees>40.69124973379075527191162109375</LatitudeDegrees>
              <LongitudeDegrees>24.73287723027169704437255859375</LongitudeDegrees>
            </Position>
            <AltitudeMeters>540.20001220703125</AltitudeMeters>
            <DistanceMeters>8607.6574814898</DistanceMeters>
          </Trackpoint>
          <Trackpoint>
            <Time>2022-09-18T08:56:40.000Z</Time>
            <Position>
              <LatitudeDegrees>40.69128728471696376800537109375</LatitudeDegrees>
              <LongitudeDegrees>24.73286901600658893585205078125</LongitudeDegrees>
            </Position>
            <AltitudeMeters>539</AltitudeMeters>
            <DistanceMeters>8611.8923051954</DistanceMeters>
          </Trackpoint>
          <Trackpoint>
            <Time>2022-09-18T08:56:44.000Z</Time>
            <Position>
              <LatitudeDegrees>40.69133858196437358856201171875</LatitudeDegrees>
              <LongitudeDegrees>24.73285007290542125701904296875</LongitudeDegrees>
            </Position>
            <AltitudeMeters>537.5999755859375</AltitudeMeters>
            <DistanceMeters>8617.8206319003</DistanceMeters>
          </Trackpoint>
          <Trackpoint>
            <Time>2022-09-18T08:56:48.000Z</Time>
            <Position>
              <LatitudeDegrees>40.6913864426314830780029296875</LatitudeDegrees>
              <LongitudeDegrees>24.73282911814749240875244140625</LongitudeDegrees>
            </Position>
            <AltitudeMeters>536.4000244140625</AltitudeMeters>
            <DistanceMeters>8623.432842395</DistanceMeters>
          </Trackpoint>
          <Trackpoint>
            <Time>2022-09-18T08:56:50.000Z</Time>
            <Position>
              <LatitudeDegrees>40.6914058886468410491943359375</LatitudeDegrees>
              <LongitudeDegrees>24.732824005186557769775390625</LongitudeDegrees>
            </Position>
            <AltitudeMeters>535</AltitudeMeters>
            <DistanceMeters>8625.6410636882</DistanceMeters>
          </Trackpoint>
          <Trackpoint>
            <Time>2022-09-18T08:56:52.000Z</Time>
            <Position>
              <LatitudeDegrees>40.69143111817538738250732421875</LatitudeDegrees>
              <LongitudeDegrees>24.7328131087124347686767578125</LongitudeDegrees>
            </Position>
            <AltitudeMeters>534.20001220703125</AltitudeMeters>
            <DistanceMeters>8628.5976011896</DistanceMeters>
          </Trackpoint>
          <Trackpoint>
            <Time>2022-09-18T08:56:53.000Z</Time>
            <Position>
              <LatitudeDegrees>40.6914447806775569915771484375</LatitudeDegrees>
              <LongitudeDegrees>24.732809253036975860595703125</LongitudeDegrees>
            </Position>
            <AltitudeMeters>534</AltitudeMeters>
            <DistanceMeters>8630.1532555494</DistanceMeters>
          </Trackpoint>
          <Trackpoint>
            <Time>2022-09-18T08:56:55.000Z</Time>
            <Position>
              <LatitudeDegrees>40.6914538331329822540283203125</LatitudeDegrees>
              <LongitudeDegrees>24.73279483616352081298828125</LongitudeDegrees>
            </Position>
            <AltitudeMeters>533.5999755859375</AltitudeMeters>
            <DistanceMeters>8631.7319578958</DistanceMeters>
          </Trackpoint>
          <Trackpoint>
            <Time>2022-09-18T08:57:11.000Z</Time>
            <Position>
              <LatitudeDegrees>40.69146045483648777008056640625</LatitudeDegrees>
              <LongitudeDegrees>24.73279374651610851287841796875</LongitudeDegrees>
            </Position>
            <AltitudeMeters>532.20001220703125</AltitudeMeters>
            <DistanceMeters>8632.480198993</DistanceMeters>
          </Trackpoint>
          <Trackpoint>
            <Time>2022-09-18T08:57:12.000Z</Time>
            <Position>
              <LatitudeDegrees>40.691463388502597808837890625</LatitudeDegrees>
              <LongitudeDegrees>24.73279341123998165130615234375</LongitudeDegrees>
            </Position>
            <AltitudeMeters>532</AltitudeMeters>
            <DistanceMeters>8632.8093811877</DistanceMeters>
          </Trackpoint>
          <Trackpoint>
            <Time>2022-09-18T08:57:13.000Z</Time>
            <Position>
              <LatitudeDegrees>40.69147286005318164825439453125</LatitudeDegrees>
              <LongitudeDegrees>24.73278871737420558929443359375</LongitudeDegrees>
            </Position>
            <AltitudeMeters>532</AltitudeMeters>
            <DistanceMeters>8633.9337524352</DistanceMeters>
          </Trackpoint>
          <Trackpoint>
            <Time>2022-09-18T08:57:18.000Z</Time>
            <Position>
              <LatitudeDegrees>40.6915265880525112152099609375</LatitudeDegrees>
              <LongitudeDegrees>24.7327654995024204254150390625</LongitudeDegrees>
            </Position>
            <AltitudeMeters>531.5999755859375</AltitudeMeters>
            <DistanceMeters>8640.2263580328</DistanceMeters>
          </Trackpoint>
          <Trackpoint>
            <Time>2022-09-18T08:57:19.000Z</Time>
            <Position>
              <LatitudeDegrees>40.69153622724115848541259765625</LatitudeDegrees>
              <LongitudeDegrees>24.7327678464353084564208984375</LongitudeDegrees>
            </Position>
            <AltitudeMeters>531.20001220703125</AltitudeMeters>
            <DistanceMeters>8641.3181318604</DistanceMeters>
          </Trackpoint>
          <Trackpoint>
            <Time>2022-09-18T08:57:20.000Z</Time>
            <Position>
              <LatitudeDegrees>40.69154712371528148651123046875</LatitudeDegrees>
              <LongitudeDegrees>24.73276910372078418731689453125</LongitudeDegrees>
            </Position>
            <AltitudeMeters>530.79998779296875</AltitudeMeters>
            <DistanceMeters>8642.5350675763</DistanceMeters>
          </Trackpoint>
          <Trackpoint>
            <Time>2022-09-18T08:57:22.000Z</Time>
            <Position>
              <LatitudeDegrees>40.691573359072208404541015625</LatitudeDegrees>
              <LongitudeDegrees>24.7327633202075958251953125</LongitudeDegrees>
            </Position>
            <AltitudeMeters>530</AltitudeMeters>
            <DistanceMeters>8645.4946577761</DistanceMeters>
          </Trackpoint>
          <Trackpoint>
            <Time>2022-09-18T08:57:23.000Z</Time>
            <Position>
              <LatitudeDegrees>40.691587440669536590576171875</LatitudeDegrees>
              <LongitudeDegrees>24.73275661468505859375</LongitudeDegrees>
            </Position>
            <AltitudeMeters>529.5999755859375</AltitudeMeters>
            <DistanceMeters>8647.162369845</DistanceMeters>
          </Trackpoint>
          <Trackpoint>
            <Time>2022-09-18T08:57:27.000Z</Time>
            <Position>
              <LatitudeDegrees>40.69159372709691524505615234375</LatitudeDegrees>
              <LongitudeDegrees>24.73270632326602935791015625</LongitudeDegrees>
            </Position>
            <AltitudeMeters>528.4000244140625</AltitudeMeters>
            <DistanceMeters>8651.4638378077</DistanceMeters>
          </Trackpoint>
          <Trackpoint>
            <Time>2022-09-18T08:57:28.000Z</Time>
            <Position>
              <LatitudeDegrees>40.69158802740275859832763671875</LatitudeDegrees>
              <LongitudeDegrees>24.73270674236118793487548828125</LongitudeDegrees>
            </Position>
            <AltitudeMeters>528.20001220703125</AltitudeMeters>
            <DistanceMeters>8652.0941737209</DistanceMeters>
          </Trackpoint>
          <Trackpoint>
            <Time>2022-09-18T08:57:30.000Z</Time>
            <Position>
              <LatitudeDegrees>40.69157059304416179656982421875</LatitudeDegrees>
              <LongitudeDegrees>24.732706658542156219482421875</LongitudeDegrees>
            </Position>
            <AltitudeMeters>527.5999755859375</AltitudeMeters>
            <DistanceMeters>8654.0346741402</DistanceMeters>
          </Trackpoint>
          <Trackpoint>
            <Time>2022-09-18T08:57:32.000Z</Time>
            <Position>
              <LatitudeDegrees>40.69157361052930355072021484375</LatitudeDegrees>
              <LongitudeDegrees>24.73268277011811733245849609375</LongitudeDegrees>
            </Position>
            <AltitudeMeters>527.20001220703125</AltitudeMeters>
            <DistanceMeters>8656.0771959435</DistanceMeters>
          </Trackpoint>
          <Trackpoint>
            <Time>2022-09-18T08:57:35.000Z</Time>
            <Position>
              <LatitudeDegrees>40.6916003488004207611083984375</LatitudeDegrees>
              <LongitudeDegrees>24.7326585464179515838623046875</LongitudeDegrees>
            </Position>
            <AltitudeMeters>525.79998779296875</AltitudeMeters>
            <DistanceMeters>8659.6882110896</DistanceMeters>
          </Trackpoint>
          <Trackpoint>
            <Time>2022-09-18T08:57:38.000Z</Time>
            <Position>
              <LatitudeDegrees>40.6916492991149425506591796875</LatitudeDegrees>
              <LongitudeDegrees>24.7326468117535114288330078125</LongitudeDegrees>
            </Position>
            <AltitudeMeters>524.79998779296875</AltitudeMeters>
            <DistanceMeters>8665.2259127431</DistanceMeters>
          </Trackpoint>
          <Trackpoint>
            <Time>2022-09-18T08:57:39.000Z</Time>
            <Position>
              <LatitudeDegrees>40.69166396744549274444580078125</LatitudeDegrees>
              <LongitudeDegrees>24.73264731466770172119140625</LongitudeDegrees>
            </Position>
            <AltitudeMeters>524.5999755859375</AltitudeMeters>
            <DistanceMeters>8666.8608141552</DistanceMeters>
          </Trackpoint>
          <Trackpoint>
            <Time>2022-09-18T08:57:41.000Z</Time>
            <Position>
              <LatitudeDegrees>40.69169330410659313201904296875</LatitudeDegrees>
              <LongitudeDegrees>24.732651002705097198486328125</LongitudeDegrees>
            </Position>
            <AltitudeMeters>524.20001220703125</AltitudeMeters>
            <DistanceMeters>8670.1416450136</DistanceMeters>
          </Trackpoint>
          <Trackpoint>
            <Time>2022-09-18T08:57:42.000Z</Time>
            <Position>
              <LatitudeDegrees>40.69170914590358734130859375</LatitudeDegrees>
              <LongitudeDegrees>24.732652343809604644775390625</LongitudeDegrees>
            </Position>
            <AltitudeMeters>523.79998779296875</AltitudeMeters>
            <DistanceMeters>8671.906687895</DistanceMeters>
          </Trackpoint>
          <Trackpoint>
            <Time>2022-09-18T08:57:43.000Z</Time>
            <Position>
              <LatitudeDegrees>40.69172582589089870452880859375</LatitudeDegrees>
              <LongitudeDegrees>24.7326545231044292449951171875</LongitudeDegrees>
            </Position>
            <AltitudeMeters>523.5999755859375</AltitudeMeters>
            <DistanceMeters>8673.773666606</DistanceMeters>
          </Trackpoint>
          <Trackpoint>
            <Time>2022-09-18T08:57:47.000Z</Time>
            <Position>
              <LatitudeDegrees>40.69177444092929363250732421875</LatitudeDegrees>
              <LongitudeDegrees>24.73265812732279300689697265625</LongitudeDegrees>
            </Position>
            <AltitudeMeters>522.5999755859375</AltitudeMeters>
            <DistanceMeters>8679.1926894511</DistanceMeters>
          </Trackpoint>
          <Trackpoint>
            <Time>2022-09-18T08:57:49.000Z</Time>
            <Position>
              <LatitudeDegrees>40.69178768433630466461181640625</LatitudeDegrees>
              <LongitudeDegrees>24.732656367123126983642578125</LongitudeDegrees>
            </Position>
            <AltitudeMeters>521.79998779296875</AltitudeMeters>
            <DistanceMeters>8680.6740093274</DistanceMeters>
          </Trackpoint>
          <Trackpoint>
            <Time>2022-09-18T08:57:50.000Z</Time>
            <Position>
              <LatitudeDegrees>40.69179137237370014190673828125</LatitudeDegrees>
              <LongitudeDegrees>24.73264823667705059051513671875</LongitudeDegrees>
            </Position>
            <AltitudeMeters>521.4000244140625</AltitudeMeters>
            <DistanceMeters>8681.4690598611</DistanceMeters>
          </Trackpoint>
          <Trackpoint>
            <Time>2022-09-18T08:57:51.000Z</Time>
            <Position>
              <LatitudeDegrees>40.6917961500585079193115234375</LatitudeDegrees>
              <LongitudeDegrees>24.732632227241992950439453125</LongitudeDegrees>
            </Position>
            <AltitudeMeters>521</AltitudeMeters>
            <DistanceMeters>8682.9195797028</DistanceMeters>
          </Trackpoint>
          <Trackpoint>
            <Time>2022-09-18T08:57:53.000Z</Time>
            <Position>
              <LatitudeDegrees>40.691804699599742889404296875</LatitudeDegrees>
              <LongitudeDegrees>24.7326112724840641021728515625</LongitudeDegrees>
            </Position>
            <AltitudeMeters>520.20001220703125</AltitudeMeters>
            <DistanceMeters>8684.9264215237</DistanceMeters>
          </Trackpoint>
          <Trackpoint>
            <Time>2022-09-18T08:57:55.000Z</Time>
            <Position>
              <LatitudeDegrees>40.69178969599306583404541015625</LatitudeDegrees>
              <LongitudeDegrees>24.73259995691478252410888671875</LongitudeDegrees>
            </Position>
            <AltitudeMeters>519.4000244140625</AltitudeMeters>
            <DistanceMeters>8686.850565838</DistanceMeters>
          </Trackpoint>
          <Trackpoint>
            <Time>2022-09-18T08:57:56.000Z</Time>
            <Position>
              <LatitudeDegrees>40.691777877509593963623046875</LatitudeDegrees>
              <LongitudeDegrees>24.73259392194449901580810546875</LongitudeDegrees>
            </Position>
            <AltitudeMeters>519</AltitudeMeters>
            <DistanceMeters>8688.2664319936</DistanceMeters>
          </Trackpoint>
          <Trackpoint>
            <Time>2022-09-18T08:58:00.000Z</Time>
            <Position>
              <LatitudeDegrees>40.69173051975667476654052734375</LatitudeDegrees>
              <LongitudeDegrees>24.73258889280259609222412109375</LongitudeDegrees>
            </Position>
            <AltitudeMeters>517.5999755859375</AltitudeMeters>
            <DistanceMeters>8693.5547348165</DistanceMeters>
          </Trackpoint>
          <Trackpoint>
            <Time>2022-09-18T08:58:01.000Z</Time>
            <Position>
              <LatitudeDegrees>40.6917176954448223114013671875</LatitudeDegrees>
              <LongitudeDegrees>24.7325836122035980224609375</LongitudeDegrees>
            </Position>
            <AltitudeMeters>517.4000244140625</AltitudeMeters>
            <DistanceMeters>8695.0512170109</DistanceMeters>
          </Trackpoint>
          <Trackpoint>
            <Time>2022-09-18T08:58:03.000Z</Time>
            <Position>
              <LatitudeDegrees>40.6916838325560092926025390625</LatitudeDegrees>
              <LongitudeDegrees>24.732580594718456268310546875</LongitudeDegrees>
            </Position>
            <AltitudeMeters>517</AltitudeMeters>
            <DistanceMeters>8698.8284541998</DistanceMeters>
          </Trackpoint>
          <Trackpoint>
            <Time>2022-09-18T08:58:04.000Z</Time>
            <Position>
              <LatitudeDegrees>40.69167017005383968353271484375</LatitudeDegrees>
              <LongitudeDegrees>24.7325824387371540069580078125</LongitudeDegrees>
            </Position>
            <AltitudeMeters>516.5999755859375</AltitudeMeters>
            <DistanceMeters>8700.3548092445</DistanceMeters>
          </Trackpoint>
          <Trackpoint>
            <Time>2022-09-18T08:58:06.000Z</Time>
            <Position>
              <LatitudeDegrees>40.6916446052491664886474609375</LatitudeDegrees>
              <LongitudeDegrees>24.7325874678790569305419921875</LongitudeDegrees>
            </Position>
            <AltitudeMeters>516.20001220703125</AltitudeMeters>
            <DistanceMeters>8703.2308394986</DistanceMeters>
          </Trackpoint>
          <Trackpoint>
            <Time>2022-09-18T08:58:09.000Z</Time>
            <Position>
              <LatitudeDegrees>40.6916231475770473480224609375</LatitudeDegrees>
              <LongitudeDegrees>24.732589982450008392333984375</LongitudeDegrees>
            </Position>
            <AltitudeMeters>515.5999755859375</AltitudeMeters>
            <DistanceMeters>8705.6273220499</DistanceMeters>
          </Trackpoint>
          <Trackpoint>
            <Time>2022-09-18T08:58:10.000Z</Time>
            <Position>
              <LatitudeDegrees>40.69161367602646350860595703125</LatitudeDegrees>
              <LongitudeDegrees>24.732591994106769561767578125</LongitudeDegrees>
            </Position>
            <AltitudeMeters>515.4000244140625</AltitudeMeters>
            <DistanceMeters>8706.6939942732</DistanceMeters>
          </Trackpoint>
          <Trackpoint>
            <Time>2022-09-18T08:58:11.000Z</Time>
            <Position>
              <LatitudeDegrees>40.69159959442913532257080078125</LatitudeDegrees>
              <LongitudeDegrees>24.73259408958256244659423828125</LongitudeDegrees>
            </Position>
            <AltitudeMeters>515</AltitudeMeters>
            <DistanceMeters>8708.2698340563</DistanceMeters>
          </Trackpoint>
          <Trackpoint>
            <Time>2022-09-18T08:58:13.000Z</Time>
            <Position>
              <LatitudeDegrees>40.6915762089192867279052734375</LatitudeDegrees>
              <LongitudeDegrees>24.7325888089835643768310546875</LongitudeDegrees>
            </Position>
            <AltitudeMeters>514.4000244140625</AltitudeMeters>
            <DistanceMeters>8710.9101406701</DistanceMeters>
          </Trackpoint>
          <Trackpoint>
            <Time>2022-09-18T08:58:14.000Z</Time>
            <Position>
              <LatitudeDegrees>40.69156807847321033477783203125</LatitudeDegrees>
              <LongitudeDegrees>24.732589311897754669189453125</LongitudeDegrees>
            </Position>
            <AltitudeMeters>514</AltitudeMeters>
            <DistanceMeters>8711.811643238</DistanceMeters>
          </Trackpoint>
          <Trackpoint>
            <Time>2022-09-18T08:58:15.000Z</Time>
            <Position>
              <LatitudeDegrees>40.69155818782746791839599609375</LatitudeDegrees>
              <LongitudeDegrees>24.73258403129875659942626953125</LongitudeDegrees>
            </Position>
            <AltitudeMeters>513.79998779296875</AltitudeMeters>
            <DistanceMeters>8712.99852652</DistanceMeters>
          </Trackpoint>
          <Trackpoint>
            <Time>2022-09-18T08:58:17.000Z</Time>
            <Position>
              <LatitudeDegrees>40.6915329582989215850830078125</LatitudeDegrees>
              <LongitudeDegrees>24.73257489502429962158203125</LongitudeDegrees>
            </Position>
            <AltitudeMeters>513</AltitudeMeters>
            <DistanceMeters>8715.9119904133</DistanceMeters>
          </Trackpoint>
          <Trackpoint>
            <Time>2022-09-18T08:58:19.000Z</Time>
            <Position>
              <LatitudeDegrees>40.69153287447988986968994140625</LatitudeDegrees>
              <LongitudeDegrees>24.7325613163411617279052734375</LongitudeDegrees>
            </Position>
            <AltitudeMeters>512.20001220703125</AltitudeMeters>
            <DistanceMeters>8717.0562635819</DistanceMeters>
          </Trackpoint>
          <Trackpoint>
            <Time>2022-09-18T08:58:20.000Z</Time>
            <Position>
              <LatitudeDegrees>40.69154150784015655517578125</LatitudeDegrees>
              <LongitudeDegrees>24.73255637101829051971435546875</LongitudeDegrees>
            </Position>
            <AltitudeMeters>512</AltitudeMeters>
            <DistanceMeters>8718.1058679484</DistanceMeters>
          </Trackpoint>
          <Trackpoint>
            <Time>2022-09-18T08:58:21.000Z</Time>
            <Position>
              <LatitudeDegrees>40.6915470398962497711181640625</LatitudeDegrees>
              <LongitudeDegrees>24.73254178650677204132080078125</LongitudeDegrees>
            </Position>
            <AltitudeMeters>511.79998779296875</AltitudeMeters>
            <DistanceMeters>8719.4829358673</DistanceMeters>
          </Trackpoint>
          <Trackpoint>
            <Time>2022-09-18T08:58:23.000Z</Time>
            <Position>
              <LatitudeDegrees>40.69155936129391193389892578125</LatitudeDegrees>
              <LongitudeDegrees>24.73251597024500370025634765625</LongitudeDegrees>
            </Position>
            <AltitudeMeters>510.600006103515625</AltitudeMeters>
            <DistanceMeters>8722.0556865418</DistanceMeters>
          </Trackpoint>
          <Trackpoint>
            <Time>2022-09-18T08:58:25.000Z</Time>
            <Position>
              <LatitudeDegrees>40.69156908430159091949462890625</LatitudeDegrees>
              <LongitudeDegrees>24.73245981149375438690185546875</LongitudeDegrees>
            </Position>
            <AltitudeMeters>509.79998779296875</AltitudeMeters>
            <DistanceMeters>8726.9178609659</DistanceMeters>
          </Trackpoint>
          <Trackpoint>
            <Time>2022-09-18T08:58:26.000Z</Time>
            <Position>
              <LatitudeDegrees>40.691576041281223297119140625</LatitudeDegrees>
              <LongitudeDegrees>24.7324486635625362396240234375</LongitudeDegrees>
            </Position>
            <AltitudeMeters>509.399993896484375</AltitudeMeters>
            <DistanceMeters>8728.1385012132</DistanceMeters>
          </Trackpoint>
          <Trackpoint>
            <Time>2022-09-18T08:58:27.000Z</Time>
            <Position>
              <LatitudeDegrees>40.69158375263214111328125</LatitudeDegrees>
              <LongitudeDegrees>24.7324360907077789306640625</LongitudeDegrees>
            </Position>
            <AltitudeMeters>509.20001220703125</AltitudeMeters>
            <DistanceMeters>8729.5023911455</DistanceMeters>
          </Trackpoint>
          <Trackpoint>
            <Time>2022-09-18T08:58:29.000Z</Time>
            <Position>
              <LatitudeDegrees>40.69160009734332561492919921875</LatitudeDegrees>
              <LongitudeDegrees>24.7324199974536895751953125</LongitudeDegrees>
            </Position>
            <AltitudeMeters>508.20001220703125</AltitudeMeters>
            <DistanceMeters>8731.7711228557</DistanceMeters>
          </Trackpoint>
          <Trackpoint>
            <Time>2022-09-18T08:58:32.000Z</Time>
            <Position>
              <LatitudeDegrees>40.6916208006441593170166015625</LatitudeDegrees>
              <LongitudeDegrees>24.7323933430016040802001953125</LongitudeDegrees>
            </Position>
            <AltitudeMeters>507</AltitudeMeters>
            <DistanceMeters>8734.9908321218</DistanceMeters>
          </Trackpoint>
          <Trackpoint>
            <Time>2022-09-18T08:58:34.000Z</Time>
            <Position>
              <LatitudeDegrees>40.691642425954341888427734375</LatitudeDegrees>
              <LongitudeDegrees>24.73237833939492702484130859375</LongitudeDegrees>
            </Position>
            <AltitudeMeters>506.20001220703125</AltitudeMeters>
            <DistanceMeters>8737.7103233623</DistanceMeters>
          </Trackpoint>
          <Trackpoint>
            <Time>2022-09-18T08:58:36.000Z</Time>
            <Position>
              <LatitudeDegrees>40.69166279397904872894287109375</LatitudeDegrees>
              <LongitudeDegrees>24.73236341960728168487548828125</LongitudeDegrees>
            </Position>
            <AltitudeMeters>505.600006103515625</AltitudeMeters>
            <DistanceMeters>8740.3040478949</DistanceMeters>
          </Trackpoint>
          <Trackpoint>
            <Time>2022-09-18T08:58:37.000Z</Time>
            <Position>
              <LatitudeDegrees>40.69167117588222026824951171875</LatitudeDegrees>
              <LongitudeDegrees>24.73235495388507843017578125</LongitudeDegrees>
            </Position>
            <AltitudeMeters>505.399993896484375</AltitudeMeters>
            <DistanceMeters>8741.4756159123</DistanceMeters>
          </Trackpoint>
          <Trackpoint>
            <Time>2022-09-18T08:58:39.000Z</Time>
            <Position>
              <LatitudeDegrees>40.69168626330792903900146484375</LatitudeDegrees>
              <LongitudeDegrees>24.73234414122998714447021484375</LongitudeDegrees>
            </Position>
            <AltitudeMeters>504.600006103515625</AltitudeMeters>
            <DistanceMeters>8743.3856292325</DistanceMeters>
          </Trackpoint>
          <Trackpoint>
            <Time>2022-09-18T08:58:40.000Z</Time>
            <Position>
              <LatitudeDegrees>40.6916950643062591552734375</LatitudeDegrees>
              <LongitudeDegrees>24.73233844153583049774169921875</LongitudeDegrees>
            </Position>
            <AltitudeMeters>504</AltitudeMeters>
            <DistanceMeters>8744.4774030601</DistanceMeters>
          </Trackpoint>
          <Trackpoint>
            <Time>2022-09-18T08:58:41.000Z</Time>
            <Position>
              <LatitudeDegrees>40.691704452037811279296875</LatitudeDegrees>
              <LongitudeDegrees>24.7323350049555301666259765625</LongitudeDegrees>
            </Position>
            <AltitudeMeters>503.399993896484375</AltitudeMeters>
            <DistanceMeters>8745.5608743046</DistanceMeters>
          </Trackpoint>
          <Trackpoint>
            <Time>2022-09-18T08:58:45.000Z</Time>
            <Position>
              <LatitudeDegrees>40.69173789583146572113037109375</LatitudeDegrees>
              <LongitudeDegrees>24.73232033662497997283935546875</LongitudeDegrees>
            </Position>
            <AltitudeMeters>502.399993896484375</AltitudeMeters>
            <DistanceMeters>8749.4835328751</DistanceMeters>
          </Trackpoint>
          <Trackpoint>
            <Time>2022-09-18T08:58:47.000Z</Time>
            <Position>
              <LatitudeDegrees>40.69176136516034603118896484375</LatitudeDegrees>
              <LongitudeDegrees>24.73231413401663303375244140625</LongitudeDegrees>
            </Position>
            <AltitudeMeters>502</AltitudeMeters>
            <DistanceMeters>8752.1459772423</DistanceMeters>
          </Trackpoint>
          <Trackpoint>
            <Time>2022-09-18T08:58:49.000Z</Time>
            <Position>
              <LatitudeDegrees>40.69178114645183086395263671875</LatitudeDegrees>
              <LongitudeDegrees>24.73230793140828609466552734375</LongitudeDegrees>
            </Position>
            <AltitudeMeters>501.20001220703125</AltitudeMeters>
            <DistanceMeters>8754.4087307295</DistanceMeters>
          </Trackpoint>
          <Trackpoint>
            <Time>2022-09-18T08:58:52.000Z</Time>
            <Position>
              <LatitudeDegrees>40.691814087331295013427734375</LatitudeDegrees>
              <LongitudeDegrees>24.7322930954396724700927734375</LongitudeDegrees>
            </Position>
            <AltitudeMeters>500</AltitudeMeters>
            <DistanceMeters>8758.2827450622</DistanceMeters>
          </Trackpoint>
          <Trackpoint>
            <Time>2022-09-18T08:58:55.000Z</Time>
            <Position>
              <LatitudeDegrees>40.691850967705249786376953125</LatitudeDegrees>
              <LongitudeDegrees>24.73228211514651775360107421875</LongitudeDegrees>
            </Position>
            <AltitudeMeters>499.20001220703125</AltitudeMeters>
            <DistanceMeters>8762.4908301263</DistanceMeters>
          </Trackpoint>
          <Trackpoint>
            <Time>2022-09-18T08:58:56.000Z</Time>
            <Position>
              <LatitudeDegrees>40.69186270236968994140625</LatitudeDegrees>
              <LongitudeDegrees>24.73228094168007373809814453125</LongitudeDegrees>
            </Position>
            <AltitudeMeters>499</AltitudeMeters>
            <DistanceMeters>8763.8006829899</DistanceMeters>
          </Trackpoint>
          <Trackpoint>
            <Time>2022-09-18T08:58:58.000Z</Time>
            <Position>
              <LatitudeDegrees>40.691890530288219451904296875</LatitudeDegrees>
              <LongitudeDegrees>24.73226970992982387542724609375</LongitudeDegrees>
            </Position>
            <AltitudeMeters>498.20001220703125</AltitudeMeters>
            <DistanceMeters>8767.0399651369</DistanceMeters>
          </Trackpoint>
          <Trackpoint>
            <Time>2022-09-18T08:58:59.000Z</Time>
            <Position>
              <LatitudeDegrees>40.69190385751426219940185546875</LatitudeDegrees>
              <LongitudeDegrees>24.73226300440728664398193359375</LongitudeDegrees>
            </Position>
            <AltitudeMeters>498</AltitudeMeters>
            <DistanceMeters>8768.6300662042</DistanceMeters>
          </Trackpoint>
          <Trackpoint>
            <Time>2022-09-18T08:59:01.000Z</Time>
            <Position>
              <LatitudeDegrees>40.69193403236567974090576171875</LatitudeDegrees>
              <LongitudeDegrees>24.732244648039340972900390625</LongitudeDegrees>
            </Position>
            <AltitudeMeters>497.20001220703125</AltitudeMeters>
            <DistanceMeters>8772.3287910943</DistanceMeters>
          </Trackpoint>
          <Trackpoint>
            <Time>2022-09-18T08:59:03.000Z</Time>
            <Position>
              <LatitudeDegrees>40.69196051917970180511474609375</LatitudeDegrees>
              <LongitudeDegrees>24.73223132081329822540283203125</LongitudeDegrees>
            </Position>
            <AltitudeMeters>496.79998779296875</AltitudeMeters>
            <DistanceMeters>8775.4833345227</DistanceMeters>
          </Trackpoint>
          <Trackpoint>
            <Time>2022-09-18T08:59:06.000Z</Time>
            <Position>
              <LatitudeDegrees>40.69200217723846435546875</LatitudeDegrees>
              <LongitudeDegrees>24.73222830332815647125244140625</LongitudeDegrees>
            </Position>
            <AltitudeMeters>496</AltitudeMeters>
            <DistanceMeters>8780.1279930273</DistanceMeters>
          </Trackpoint>
          <Trackpoint>
            <Time>2022-09-18T08:59:07.000Z</Time>
            <Position>
              <LatitudeDegrees>40.6920154206454753875732421875</LatitudeDegrees>
              <LongitudeDegrees>24.73222444765269756317138671875</LongitudeDegrees>
            </Position>
            <AltitudeMeters>495.600006103515625</AltitudeMeters>
            <DistanceMeters>8781.6364953521</DistanceMeters>
          </Trackpoint>
          <Trackpoint>
            <Time>2022-09-18T08:59:11.000Z</Time>
            <Position>
              <LatitudeDegrees>40.692063532769680023193359375</LatitudeDegrees>
              <LongitudeDegrees>24.73220919258892536163330078125</LongitudeDegrees>
            </Position>
            <AltitudeMeters>494.399993896484375</AltitudeMeters>
            <DistanceMeters>8787.143127417</DistanceMeters>
          </Trackpoint>
          <Trackpoint>
            <Time>2022-09-18T08:59:13.000Z</Time>
            <Position>
              <LatitudeDegrees>40.6920915283262729644775390625</LatitudeDegrees>
              <LongitudeDegrees>24.73220600746572017669677734375</LongitudeDegrees>
            </Position>
            <AltitudeMeters>493.399993896484375</AltitudeMeters>
            <DistanceMeters>8790.270358267</DistanceMeters>
          </Trackpoint>
          <Trackpoint>
            <Time>2022-09-18T08:59:14.000Z</Time>
            <Position>
              <LatitudeDegrees>40.69210745394229888916015625</LatitudeDegrees>
              <LongitudeDegrees>24.7322012297809123992919921875</LongitudeDegrees>
            </Position>
            <AltitudeMeters>493</AltitudeMeters>
            <DistanceMeters>8792.0883263576</DistanceMeters>
          </Trackpoint>
          <Trackpoint>
            <Time>2022-09-18T08:59:17.000Z</Time>
            <Position>
              <LatitudeDegrees>40.69216704927384853363037109375</LatitudeDegrees>
              <LongitudeDegrees>24.7322072647511959075927734375</LongitudeDegrees>
            </Position>
            <AltitudeMeters>492.20001220703125</AltitudeMeters>
            <DistanceMeters>8798.7408750911</DistanceMeters>
          </Trackpoint>
          <Trackpoint>
            <Time>2022-09-18T08:59:20.000Z</Time>
            <Position>
              <LatitudeDegrees>40.69221264682710170745849609375</LatitudeDegrees>
              <LongitudeDegrees>24.73220407962799072265625</LongitudeDegrees>
            </Position>
            <AltitudeMeters>491.20001220703125</AltitudeMeters>
            <DistanceMeters>8803.8228056917</DistanceMeters>
          </Trackpoint>
          <Trackpoint>
            <Time>2022-09-18T08:59:23.000Z</Time>
            <Position>
              <LatitudeDegrees>40.692270062863826751708984375</LatitudeDegrees>
              <LongitudeDegrees>24.7321908362209796905517578125</LongitudeDegrees>
            </Position>
            <AltitudeMeters>490.399993896484375</AltitudeMeters>
            <DistanceMeters>8810.3111195237</DistanceMeters>
          </Trackpoint>
          <Trackpoint>
            <Time>2022-09-18T08:59:24.000Z</Time>
            <Position>
              <LatitudeDegrees>40.69228607229888439178466796875</LatitudeDegrees>
              <LongitudeDegrees>24.7321780957281589508056640625</LongitudeDegrees>
            </Position>
            <AltitudeMeters>490.20001220703125</AltitudeMeters>
            <DistanceMeters>8812.3930505247</DistanceMeters>
          </Trackpoint>
          <Trackpoint>
            <Time>2022-09-18T08:59:26.000Z</Time>
            <Position>
              <LatitudeDegrees>40.692318342626094818115234375</LatitudeDegrees>
              <LongitudeDegrees>24.732160829007625579833984375</LongitudeDegrees>
            </Position>
            <AltitudeMeters>489</AltitudeMeters>
            <DistanceMeters>8816.2693950918</DistanceMeters>
          </Trackpoint>
          <Trackpoint>
            <Time>2022-09-18T08:59:28.000Z</Time>
            <Position>
              <LatitudeDegrees>40.6923413090407848358154296875</LatitudeDegrees>
              <LongitudeDegrees>24.732120931148529052734375</LongitudeDegrees>
            </Position>
            <AltitudeMeters>488.20001220703125</AltitudeMeters>
            <DistanceMeters>8820.4978169439</DistanceMeters>
          </Trackpoint>
          <Trackpoint>
            <Time>2022-09-18T08:59:29.000Z</Time>
            <Position>
              <LatitudeDegrees>40.692348517477512359619140625</LatitudeDegrees>
              <LongitudeDegrees>24.73209888674318790435791015625</LongitudeDegrees>
            </Position>
            <AltitudeMeters>488</AltitudeMeters>
            <DistanceMeters>8822.5225773508</DistanceMeters>
          </Trackpoint>
          <Trackpoint>
            <Time>2022-09-18T08:59:33.000Z</Time>
            <Position>
              <LatitudeDegrees>40.69232244975864887237548828125</LatitudeDegrees>
              <LongitudeDegrees>24.73206200636923313140869140625</LongitudeDegrees>
            </Position>
            <AltitudeMeters>486.600006103515625</AltitudeMeters>
            <DistanceMeters>8826.7776100499</DistanceMeters>
          </Trackpoint>
          <Trackpoint>
            <Time>2022-09-18T08:59:37.000Z</Time>
            <Position>
              <LatitudeDegrees>40.692246593534946441650390625</LatitudeDegrees>
              <LongitudeDegrees>24.73207063972949981689453125</LongitudeDegrees>
            </Position>
            <AltitudeMeters>485.399993896484375</AltitudeMeters>
            <DistanceMeters>8835.252053864</DistanceMeters>
          </Trackpoint>
          <Trackpoint>
            <Time>2022-09-18T08:59:38.000Z</Time>
            <Position>
              <LatitudeDegrees>40.6922303326427936553955078125</LatitudeDegrees>
              <LongitudeDegrees>24.73206737078726291656494140625</LongitudeDegrees>
            </Position>
            <AltitudeMeters>485.20001220703125</AltitudeMeters>
            <DistanceMeters>8837.0823976461</DistanceMeters>
          </Trackpoint>
          <Trackpoint>
            <Time>2022-09-18T08:59:40.000Z</Time>
            <Position>
              <LatitudeDegrees>40.69219957105815410614013671875</LatitudeDegrees>
              <LongitudeDegrees>24.7320624254643917083740234375</LongitudeDegrees>
            </Position>
            <AltitudeMeters>484.79998779296875</AltitudeMeters>
            <DistanceMeters>8840.5322731153</DistanceMeters>
          </Trackpoint>
          <Trackpoint>
            <Time>2022-09-18T08:59:42.000Z</Time>
            <Position>
              <LatitudeDegrees>40.692170821130275726318359375</LatitudeDegrees>
              <LongitudeDegrees>24.7320553846657276153564453125</LongitudeDegrees>
            </Position>
            <AltitudeMeters>484.20001220703125</AltitudeMeters>
            <DistanceMeters>8843.7854637941</DistanceMeters>
          </Trackpoint>
          <Trackpoint>
            <Time>2022-09-18T08:59:45.000Z</Time>
            <Position>
              <LatitudeDegrees>40.69214542396366596221923828125</LatitudeDegrees>
              <LongitudeDegrees>24.7320456616580486297607421875</LongitudeDegrees>
            </Position>
            <AltitudeMeters>483.600006103515625</AltitudeMeters>
            <DistanceMeters>8846.7297588517</DistanceMeters>
          </Trackpoint>
          <Trackpoint>
            <Time>2022-09-18T08:59:46.000Z</Time>
            <Position>
              <LatitudeDegrees>40.69213938899338245391845703125</LatitudeDegrees>
              <LongitudeDegrees>24.73203870467841625213623046875</LongitudeDegrees>
            </Position>
            <AltitudeMeters>483.20001220703125</AltitudeMeters>
            <DistanceMeters>8847.6262390821</DistanceMeters>
          </Trackpoint>
          <Trackpoint>
            <Time>2022-09-18T08:59:47.000Z</Time>
            <Position>
              <LatitudeDegrees>40.69213117472827434539794921875</LatitudeDegrees>
              <LongitudeDegrees>24.732036106288433074951171875</LongitudeDegrees>
            </Position>
            <AltitudeMeters>483</AltitudeMeters>
            <DistanceMeters>8848.5621436793</DistanceMeters>
          </Trackpoint>
          <Trackpoint>
            <Time>2022-09-18T08:59:51.000Z</Time>
            <Position>
              <LatitudeDegrees>40.692089684307575225830078125</LatitudeDegrees>
              <LongitudeDegrees>24.73201858811080455780029296875</LongitudeDegrees>
            </Position>
            <AltitudeMeters>481.79998779296875</AltitudeMeters>
            <DistanceMeters>8853.4113002101</DistanceMeters>
          </Trackpoint>
          <Trackpoint>
            <Time>2022-09-18T08:59:52.000Z</Time>
            <Position>
              <LatitudeDegrees>40.6920732557773590087890625</LatitudeDegrees>
              <LongitudeDegrees>24.732015319168567657470703125</LongitudeDegrees>
            </Position>
            <AltitudeMeters>481.20001220703125</AltitudeMeters>
            <DistanceMeters>8855.2637118945</DistanceMeters>
          </Trackpoint>
          <Trackpoint>
            <Time>2022-09-18T08:59:54.000Z</Time>
            <Position>
              <LatitudeDegrees>40.6920462660491466522216796875</LatitudeDegrees>
              <LongitudeDegrees>24.73200383596122264862060546875</LongitudeDegrees>
            </Position>
            <AltitudeMeters>480.600006103515625</AltitudeMeters>
            <DistanceMeters>8858.4196862794</DistanceMeters>
          </Trackpoint>
          <Trackpoint>
            <Time>2022-09-18T08:59:57.000Z</Time>
            <Position>
              <LatitudeDegrees>40.69200326688587665557861328125</LatitudeDegrees>
              <LongitudeDegrees>24.73198355175554752349853515625</LongitudeDegrees>
            </Position>
            <AltitudeMeters>480</AltitudeMeters>
            <DistanceMeters>8863.50161688</DistanceMeters>
          </Trackpoint>
          <Trackpoint>
            <Time>2022-09-18T08:59:58.000Z</Time>
            <Position>
              <LatitudeDegrees>40.6919882632791996002197265625</LatitudeDegrees>
              <LongitudeDegrees>24.73197198472917079925537109375</LongitudeDegrees>
            </Position>
            <AltitudeMeters>479.399993896484375</AltitudeMeters>
            <DistanceMeters>8865.4351244822</DistanceMeters>
          </Trackpoint>
          <Trackpoint>
            <Time>2022-09-18T09:00:00.000Z</Time>
            <Position>
              <LatitudeDegrees>40.691955573856830596923828125</LatitudeDegrees>
              <LongitudeDegrees>24.7319524548947811126708984375</LongitudeDegrees>
            </Position>
            <AltitudeMeters>478.79998779296875</AltitudeMeters>
            <DistanceMeters>8869.430769005</DistanceMeters>
          </Trackpoint>
          <Trackpoint>
            <Time>2022-09-18T09:00:01.000Z</Time>
            <Position>
              <LatitudeDegrees>40.69194727577269077301025390625</LatitudeDegrees>
              <LongitudeDegrees>24.7319460846483707427978515625</LongitudeDegrees>
            </Position>
            <AltitudeMeters>478.399993896484375</AltitudeMeters>
            <DistanceMeters>8870.4974412283</DistanceMeters>
          </Trackpoint>
          <Trackpoint>
            <Time>2022-09-18T09:00:03.000Z</Time>
            <Position>
              <LatitudeDegrees>40.6919212080538272857666015625</LatitudeDegrees>
              <LongitudeDegrees>24.731944911181926727294921875</LongitudeDegrees>
            </Position>
            <AltitudeMeters>477.600006103515625</AltitudeMeters>
            <DistanceMeters>8873.4000368464</DistanceMeters>
          </Trackpoint>
          <Trackpoint>
            <Time>2022-09-18T09:00:04.000Z</Time>
            <Position>
              <LatitudeDegrees>40.69190335460007190704345703125</LatitudeDegrees>
              <LongitudeDegrees>24.731947593390941619873046875</LongitudeDegrees>
            </Position>
            <AltitudeMeters>477.399993896484375</AltitudeMeters>
            <DistanceMeters>8875.4023739662</DistanceMeters>
          </Trackpoint>
          <Trackpoint>
            <Time>2022-09-18T09:00:09.000Z</Time>
            <Position>
              <LatitudeDegrees>40.69181903265416622161865234375</LatitudeDegrees>
              <LongitudeDegrees>24.73192705772817134857177734375</LongitudeDegrees>
            </Position>
            <AltitudeMeters>476.399993896484375</AltitudeMeters>
            <DistanceMeters>8884.9462925058</DistanceMeters>
          </Trackpoint>
          <Trackpoint>
            <Time>2022-09-18T09:00:11.000Z</Time>
            <Position>
              <LatitudeDegrees>40.69178869016468524932861328125</LatitudeDegrees>
              <LongitudeDegrees>24.73190970718860626220703125</LongitudeDegrees>
            </Position>
            <AltitudeMeters>475.79998779296875</AltitudeMeters>
            <DistanceMeters>8888.6266613278</DistanceMeters>
          </Trackpoint>
          <Trackpoint>
            <Time>2022-09-18T09:00:13.000Z</Time>
            <Position>
              <LatitudeDegrees>40.69175885058939456939697265625</LatitudeDegrees>
              <LongitudeDegrees>24.7318781912326812744140625</LongitudeDegrees>
            </Position>
            <AltitudeMeters>475</AltitudeMeters>
            <DistanceMeters>8892.882755</DistanceMeters>
          </Trackpoint>
          <Trackpoint>
            <Time>2022-09-18T09:00:15.000Z</Time>
            <Position>
              <LatitudeDegrees>40.6917393207550048828125</LatitudeDegrees>
              <LongitudeDegrees>24.73186570219695568084716796875</LongitudeDegrees>
            </Position>
            <AltitudeMeters>474.399993896484375</AltitudeMeters>
            <DistanceMeters>8895.2980043417</DistanceMeters>
          </Trackpoint>
          <Trackpoint>
            <Time>2022-09-18T09:00:16.000Z</Time>
            <Position>
              <LatitudeDegrees>40.6917384825646877288818359375</LatitudeDegrees>
              <LongitudeDegrees>24.73185564391314983367919921875</LongitudeDegrees>
            </Position>
            <AltitudeMeters>473.79998779296875</AltitudeMeters>
            <DistanceMeters>8896.153244771</DistanceMeters>
          </Trackpoint>
          <Trackpoint>
            <Time>2022-09-18T09:00:17.000Z</Time>
            <Position>
              <LatitudeDegrees>40.69174929521977901458740234375</LatitudeDegrees>
              <LongitudeDegrees>24.73184424452483654022216796875</LongitudeDegrees>
            </Position>
            <AltitudeMeters>473.399993896484375</AltitudeMeters>
            <DistanceMeters>8897.6913865162</DistanceMeters>
          </Trackpoint>
          <Trackpoint>
            <Time>2022-09-18T09:00:19.000Z</Time>
            <Position>
              <LatitudeDegrees>40.69176706485450267791748046875</LatitudeDegrees>
              <LongitudeDegrees>24.73182655870914459228515625</LongitudeDegrees>
            </Position>
            <AltitudeMeters>472.600006103515625</AltitudeMeters>
            <DistanceMeters>8900.1693800557</DistanceMeters>
          </Trackpoint>
          <Trackpoint>
            <Time>2022-09-18T09:00:22.000Z</Time>
            <Position>
              <LatitudeDegrees>40.69182875566184520721435546875</LatitudeDegrees>
              <LongitudeDegrees>24.7317999042570590972900390625</LongitudeDegrees>
            </Position>
            <AltitudeMeters>471.600006103515625</AltitudeMeters>
            <DistanceMeters>8907.3951604288</DistanceMeters>
          </Trackpoint>
          <Trackpoint>
            <Time>2022-09-18T09:00:23.000Z</Time>
            <Position>
              <LatitudeDegrees>40.69185574539005756378173828125</LatitudeDegrees>
              <LongitudeDegrees>24.73179244436323642730712890625</LongitudeDegrees>
            </Position>
            <AltitudeMeters>471.20001220703125</AltitudeMeters>
            <DistanceMeters>8910.4640966827</DistanceMeters>
          </Trackpoint>
          <Trackpoint>
            <Time>2022-09-18T09:00:24.000Z</Time>
            <Position>
              <LatitudeDegrees>40.6918685697019100189208984375</LatitudeDegrees>
              <LongitudeDegrees>24.73178624175488948822021484375</LongitudeDegrees>
            </Position>
            <AltitudeMeters>470.79998779296875</AltitudeMeters>
            <DistanceMeters>8911.9845241127</DistanceMeters>
          </Trackpoint>
          <Trackpoint>
            <Time>2022-09-18T09:00:26.000Z</Time>
            <Position>
              <LatitudeDegrees>40.6919031031429767608642578125</LatitudeDegrees>
              <LongitudeDegrees>24.73177601583302021026611328125</LongitudeDegrees>
            </Position>
            <AltitudeMeters>470</AltitudeMeters>
            <DistanceMeters>8915.9232639277</DistanceMeters>
          </Trackpoint>
          <Trackpoint>
            <Time>2022-09-18T09:00:28.000Z</Time>
            <Position>
              <LatitudeDegrees>40.69193637929856777191162109375</LatitudeDegrees>
              <LongitudeDegrees>24.73176511935889720916748046875</LongitudeDegrees>
            </Position>
            <AltitudeMeters>469</AltitudeMeters>
            <DistanceMeters>8919.7409259584</DistanceMeters>
          </Trackpoint>
          <Trackpoint>
            <Time>2022-09-18T09:00:30.000Z</Time>
            <Position>
              <LatitudeDegrees>40.69197879172861576080322265625</LatitudeDegrees>
              <LongitudeDegrees>24.73176226951181888580322265625</LongitudeDegrees>
            </Position>
            <AltitudeMeters>468.20001220703125</AltitudeMeters>
            <DistanceMeters>8924.4674901569</DistanceMeters>
          </Trackpoint>
          <Trackpoint>
            <Time>2022-09-18T09:00:31.000Z</Time>
            <Position>
              <LatitudeDegrees>40.6919966451823711395263671875</LatitudeDegrees>
              <LongitudeDegrees>24.73176126368343830108642578125</LongitudeDegrees>
            </Position>
            <AltitudeMeters>468</AltitudeMeters>
            <DistanceMeters>8926.4562519532</DistanceMeters>
          </Trackpoint>
          <Trackpoint>
            <Time>2022-09-18T09:00:34.000Z</Time>
            <Position>
              <LatitudeDegrees>40.69204618223011493682861328125</LatitudeDegrees>
              <LongitudeDegrees>24.731751792132854461669921875</LongitudeDegrees>
            </Position>
            <AltitudeMeters>467.399993896484375</AltitudeMeters>
            <DistanceMeters>8932.0264712183</DistanceMeters>
          </Trackpoint>
          <Trackpoint>
            <Time>2022-09-18T09:00:35.000Z</Time>
            <Position>
              <LatitudeDegrees>40.6920583359897136688232421875</LatitudeDegrees>
              <LongitudeDegrees>24.73174584098160266876220703125</LongitudeDegrees>
            </Position>
            <AltitudeMeters>467.20001220703125</AltitudeMeters>
            <DistanceMeters>8933.4738750096</DistanceMeters>
          </Trackpoint>
          <Trackpoint>
            <Time>2022-09-18T09:00:37.000Z</Time>
            <Position>
              <LatitudeDegrees>40.69208088330924510955810546875</LatitudeDegrees>
              <LongitudeDegrees>24.73173276521265506744384765625</LongitudeDegrees>
            </Position>
            <AltitudeMeters>466.79998779296875</AltitudeMeters>
            <DistanceMeters>8936.2148645392</DistanceMeters>
          </Trackpoint>
          <Trackpoint>
            <Time>2022-09-18T09:00:40.000Z</Time>
            <Position>
              <LatitudeDegrees>40.6921227090060710906982421875</LatitudeDegrees>
              <LongitudeDegrees>24.7317159175872802734375</LongitudeDegrees>
            </Position>
            <AltitudeMeters>465.399993896484375</AltitudeMeters>
            <DistanceMeters>8941.0826074031</DistanceMeters>
          </Trackpoint>
          <Trackpoint>
            <Time>2022-09-18T09:00:43.000Z</Time>
            <Position>
              <LatitudeDegrees>40.692168809473514556884765625</LatitudeDegrees>
              <LongitudeDegrees>24.73169236443936824798583984375</LongitudeDegrees>
            </Position>
            <AltitudeMeters>464.20001220703125</AltitudeMeters>
            <DistanceMeters>8946.5859587814</DistanceMeters>
          </Trackpoint>
          <Trackpoint>
            <Time>2022-09-18T09:00:44.000Z</Time>
            <Position>
              <LatitudeDegrees>40.6921823881566524505615234375</LatitudeDegrees>
              <LongitudeDegrees>24.731687419116497039794921875</LongitudeDegrees>
            </Position>
            <AltitudeMeters>463.79998779296875</AltitudeMeters>
            <DistanceMeters>8948.1531795038</DistanceMeters>
          </Trackpoint>
          <Trackpoint>
            <Time>2022-09-18T09:00:47.000Z</Time>
            <Position>
              <LatitudeDegrees>40.69221616722643375396728515625</LatitudeDegrees>
              <LongitudeDegrees>24.73167157731950283050537109375</LongitudeDegrees>
            </Position>
            <AltitudeMeters>462.79998779296875</AltitudeMeters>
            <DistanceMeters>8952.1443015073</DistanceMeters>
          </Trackpoint>
          <Trackpoint>
            <Time>2022-09-18T09:00:49.000Z</Time>
            <Position>
              <LatitudeDegrees>40.69221876561641693115234375</LatitudeDegrees>
              <LongitudeDegrees>24.73163955844938755035400390625</LongitudeDegrees>
            </Position>
            <AltitudeMeters>462.20001220703125</AltitudeMeters>
            <DistanceMeters>8954.8604702161</DistanceMeters>
          </Trackpoint>
          <Trackpoint>
            <Time>2022-09-18T09:00:50.000Z</Time>
            <Position>
              <LatitudeDegrees>40.69220996461808681488037109375</LatitudeDegrees>
              <LongitudeDegrees>24.73162765614688396453857421875</LongitudeDegrees>
            </Position>
            <AltitudeMeters>462</AltitudeMeters>
            <DistanceMeters>8956.2635228398</DistanceMeters>
          </Trackpoint>
          <Trackpoint>
            <Time>2022-09-18T09:00:52.000Z</Time>
            <Position>
              <LatitudeDegrees>40.6921860761940479278564453125</LatitudeDegrees>
              <LongitudeDegrees>24.73160888068377971649169921875</LongitudeDegrees>
            </Position>
            <AltitudeMeters>461.600006103515625</AltitudeMeters>
            <DistanceMeters>8959.3588275271</DistanceMeters>
          </Trackpoint>
          <Trackpoint>
            <Time>2022-09-18T09:00:54.000Z</Time>
            <Position>
              <LatitudeDegrees>40.69214223884046077728271484375</LatitudeDegrees>
              <LongitudeDegrees>24.73159798420965671539306640625</LongitudeDegrees>
            </Position>
            <AltitudeMeters>460.79998779296875</AltitudeMeters>
            <DistanceMeters>8964.3239165184</DistanceMeters>
          </Trackpoint>
          <Trackpoint>
            <Time>2022-09-18T09:00:55.000Z</Time>
            <Position>
              <LatitudeDegrees>40.69211977533996105194091796875</LatitudeDegrees>
              <LongitudeDegrees>24.73159454762935638427734375</LongitudeDegrees>
            </Position>
            <AltitudeMeters>460.399993896484375</AltitudeMeters>
            <DistanceMeters>8966.8416761701</DistanceMeters>
          </Trackpoint>
          <Trackpoint>
            <Time>2022-09-18T09:00:58.000Z</Time>
            <Position>
              <LatitudeDegrees>40.69205389358103275299072265625</LatitudeDegrees>
              <LongitudeDegrees>24.73159781657159328460693359375</LongitudeDegrees>
            </Position>
            <AltitudeMeters>459.20001220703125</AltitudeMeters>
            <DistanceMeters>8974.1802983781</DistanceMeters>
          </Trackpoint>
          <Trackpoint>
            <Time>2022-09-18T09:01:00.000Z</Time>
            <Position>
              <LatitudeDegrees>40.69202086888253688812255859375</LatitudeDegrees>
              <LongitudeDegrees>24.73158826120197772979736328125</LongitudeDegrees>
            </Position>
            <AltitudeMeters>459</AltitudeMeters>
            <DistanceMeters>8977.9431642891</DistanceMeters>
          </Trackpoint>
          <Trackpoint>
            <Time>2022-09-18T09:01:01.000Z</Time>
            <Position>
              <LatitudeDegrees>40.6920020096004009246826171875</LatitudeDegrees>
              <LongitudeDegrees>24.73158021457493305206298828125</LongitudeDegrees>
            </Position>
            <AltitudeMeters>459</AltitudeMeters>
            <DistanceMeters>8980.1493399855</DistanceMeters>
          </Trackpoint>
          <Trackpoint>
            <Time>2022-09-18T09:01:05.000Z</Time>
            <Position>
              <LatitudeDegrees>40.69194157607853412628173828125</LatitudeDegrees>
              <LongitudeDegrees>24.7315269894897937774658203125</LongitudeDegrees>
            </Position>
            <AltitudeMeters>458.20001220703125</AltitudeMeters>
            <DistanceMeters>8988.2377825943</DistanceMeters>
          </Trackpoint>
          <Trackpoint>
            <Time>2022-09-18T09:01:07.000Z</Time>
            <Position>
              <LatitudeDegrees>40.691903270781040191650390625</LatitudeDegrees>
              <LongitudeDegrees>24.73150712437927722930908203125</LongitudeDegrees>
            </Position>
            <AltitudeMeters>457.20001220703125</AltitudeMeters>
            <DistanceMeters>8992.818819339</DistanceMeters>
          </Trackpoint>
          <Trackpoint>
            <Time>2022-09-18T09:01:09.000Z</Time>
            <Position>
              <LatitudeDegrees>40.69186546839773654937744140625</LatitudeDegrees>
              <LongitudeDegrees>24.731487594544887542724609375</LongitudeDegrees>
            </Position>
            <AltitudeMeters>456.399993896484375</AltitudeMeters>
            <DistanceMeters>8997.3383362286</DistanceMeters>
          </Trackpoint>
          <Trackpoint>
            <Time>2022-09-18T09:01:10.000Z</Time>
            <Position>
              <LatitudeDegrees>40.69186597131192684173583984375</LatitudeDegrees>
              <LongitudeDegrees>24.7314716689288616180419921875</LongitudeDegrees>
            </Position>
            <AltitudeMeters>456</AltitudeMeters>
            <DistanceMeters>8998.6855724237</DistanceMeters>
          </Trackpoint>
          <Trackpoint>
            <Time>2022-09-18T09:01:11.000Z</Time>
            <Position>
              <LatitudeDegrees>40.6918801367282867431640625</LatitudeDegrees>
              <LongitudeDegrees>24.73145767115056514739990234375</LongitudeDegrees>
            </Position>
            <AltitudeMeters>455.79998779296875</AltitudeMeters>
            <DistanceMeters>9000.6560883132</DistanceMeters>
          </Trackpoint>
          <Trackpoint>
            <Time>2022-09-18T09:01:13.000Z</Time>
            <Position>
              <LatitudeDegrees>40.69190586917102336883544921875</LatitudeDegrees>
              <LongitudeDegrees>24.73144912160933017730712890625</LongitudeDegrees>
            </Position>
            <AltitudeMeters>455</AltitudeMeters>
            <DistanceMeters>9003.6080408481</DistanceMeters>
          </Trackpoint>
          <Trackpoint>
            <Time>2022-09-18T09:01:16.000Z</Time>
            <Position>
              <LatitudeDegrees>40.69194853305816650390625</LatitudeDegrees>
              <LongitudeDegrees>24.7314475290477275848388671875</LongitudeDegrees>
            </Position>
            <AltitudeMeters>454</AltitudeMeters>
            <DistanceMeters>9008.3574756521</DistanceMeters>
          </Trackpoint>
          <Trackpoint>
            <Time>2022-09-18T09:01:21.000Z</Time>
            <Position>
              <LatitudeDegrees>40.6920234672725200653076171875</LatitudeDegrees>
              <LongitudeDegrees>24.7314394824206829071044921875</LongitudeDegrees>
            </Position>
            <AltitudeMeters>453</AltitudeMeters>
            <DistanceMeters>9016.7252240199</DistanceMeters>
          </Trackpoint>
          <Trackpoint>
            <Time>2022-09-18T09:01:24.000Z</Time>
            <Position>
              <LatitudeDegrees>40.692064203321933746337890625</LatitudeDegrees>
              <LongitudeDegrees>24.73143235780298709869384765625</LongitudeDegrees>
            </Position>
            <AltitudeMeters>451.79998779296875</AltitudeMeters>
            <DistanceMeters>9021.2983692225</DistanceMeters>
          </Trackpoint>
          <Trackpoint>
            <Time>2022-09-18T09:01:26.000Z</Time>
            <Position>
              <LatitudeDegrees>40.6921000778675079345703125</LatitudeDegrees>
              <LongitudeDegrees>24.731430597603321075439453125</LongitudeDegrees>
            </Position>
            <AltitudeMeters>451.20001220703125</AltitudeMeters>
            <DistanceMeters>9025.2940137453</DistanceMeters>
          </Trackpoint>
          <Trackpoint>
            <Time>2022-09-18T09:01:28.000Z</Time>
            <Position>
              <LatitudeDegrees>40.69213620387017726898193359375</LatitudeDegrees>
              <LongitudeDegrees>24.7314123250544071197509765625</LongitudeDegrees>
            </Position>
            <AltitudeMeters>450.600006103515625</AltitudeMeters>
            <DistanceMeters>9029.5996782631</DistanceMeters>
          </Trackpoint>
          <Trackpoint>
            <Time>2022-09-18T09:01:31.000Z</Time>
            <Position>
              <LatitudeDegrees>40.69220175035297870635986328125</LatitudeDegrees>
              <LongitudeDegrees>24.73140017129480838775634765625</LongitudeDegrees>
            </Position>
            <AltitudeMeters>449.600006103515625</AltitudeMeters>
            <DistanceMeters>9036.9671601602</DistanceMeters>
          </Trackpoint>
          <Trackpoint>
            <Time>2022-09-18T09:01:32.000Z</Time>
            <Position>
              <LatitudeDegrees>40.692225135862827301025390625</LatitudeDegrees>
              <LongitudeDegrees>24.731399752199649810791015625</LongitudeDegrees>
            </Position>
            <AltitudeMeters>449.20001220703125</AltitudeMeters>
            <DistanceMeters>9039.5695739115</DistanceMeters>
          </Trackpoint>
          <Trackpoint>
            <Time>2022-09-18T09:01:34.000Z</Time>
            <Position>
              <LatitudeDegrees>40.6922636926174163818359375</LatitudeDegrees>
              <LongitudeDegrees>24.7313905321061611175537109375</LongitudeDegrees>
            </Position>
            <AltitudeMeters>448.20001220703125</AltitudeMeters>
            <DistanceMeters>9043.9304615495</DistanceMeters>
          </Trackpoint>
          <Trackpoint>
            <Time>2022-09-18T09:01:38.000Z</Time>
            <Position>
              <LatitudeDegrees>40.6923309154808521270751953125</LatitudeDegrees>
              <LongitudeDegrees>24.731397740542888641357421875</LongitudeDegrees>
            </Position>
            <AltitudeMeters>447.20001220703125</AltitudeMeters>
            <DistanceMeters>9051.4369705257</DistanceMeters>
          </Trackpoint>
          <Trackpoint>
            <Time>2022-09-18T09:01:40.000Z</Time>
            <Position>
              <LatitudeDegrees>40.69235815666615962982177734375</LatitudeDegrees>
              <LongitudeDegrees>24.73139933310449123382568359375</LongitudeDegrees>
            </Position>
            <AltitudeMeters>446.600006103515625</AltitudeMeters>
            <DistanceMeters>9054.4718804046</DistanceMeters>
          </Trackpoint>
          <Trackpoint>
            <Time>2022-09-18T09:01:42.000Z</Time>
            <Position>
              <LatitudeDegrees>40.6923765130341053009033203125</LatitudeDegrees>
              <LongitudeDegrees>24.7314026020467281341552734375</LongitudeDegrees>
            </Position>
            <AltitudeMeters>446.20001220703125</AltitudeMeters>
            <DistanceMeters>9056.5363890826</DistanceMeters>
          </Trackpoint>
          <Trackpoint>
            <Time>2022-09-18T09:01:47.000Z</Time>
            <Position>
              <LatitudeDegrees>40.692438371479511260986328125</LatitudeDegrees>
              <LongitudeDegrees>24.7313828207552433013916015625</LongitudeDegrees>
            </Position>
            <AltitudeMeters>445.20001220703125</AltitudeMeters>
            <DistanceMeters>9063.6208202436</DistanceMeters>
          </Trackpoint>
          <Trackpoint>
            <Time>2022-09-18T09:01:48.000Z</Time>
            <Position>
              <LatitudeDegrees>40.69244901649653911590576171875</LatitudeDegrees>
              <LongitudeDegrees>24.73137837834656238555908203125</LongitudeDegrees>
            </Position>
            <AltitudeMeters>445</AltitudeMeters>
            <DistanceMeters>9064.8670839189</DistanceMeters>
          </Trackpoint>
          <Trackpoint>
            <Time>2022-09-18T09:01:49.000Z</Time>
            <Position>
              <LatitudeDegrees>40.692457146942615509033203125</LatitudeDegrees>
              <LongitudeDegrees>24.73138139583170413970947265625</LongitudeDegrees>
            </Position>
            <AltitudeMeters>444.79998779296875</AltitudeMeters>
            <DistanceMeters>9065.8078003967</DistanceMeters>
          </Trackpoint>
          <Trackpoint>
            <Time>2022-09-18T09:01:52.000Z</Time>
            <Position>
              <LatitudeDegrees>40.69249360822141170501708984375</LatitudeDegrees>
              <LongitudeDegrees>24.73138659261167049407958984375</LongitudeDegrees>
            </Position>
            <AltitudeMeters>444</AltitudeMeters>
            <DistanceMeters>9069.8895268744</DistanceMeters>
          </Trackpoint>
          <Trackpoint>
            <Time>2022-09-18T09:01:53.000Z</Time>
            <Position>
              <LatitudeDegrees>40.6925096176564693450927734375</LatitudeDegrees>
              <LongitudeDegrees>24.73139069974422454833984375</LongitudeDegrees>
            </Position>
            <AltitudeMeters>443.399993896484375</AltitudeMeters>
            <DistanceMeters>9071.7050097033</DistanceMeters>
          </Trackpoint>
          <Trackpoint>
            <Time>2022-09-18T09:01:54.000Z</Time>
            <Position>
              <LatitudeDegrees>40.69251573644578456878662109375</LatitudeDegrees>
              <LongitudeDegrees>24.73139346577227115631103515625</LongitudeDegrees>
            </Position>
            <AltitudeMeters>442.79998779296875</AltitudeMeters>
            <DistanceMeters>9072.428711599</DistanceMeters>
          </Trackpoint>
          <Trackpoint>
            <Time>2022-09-18T09:01:59.000Z</Time>
            <Position>
              <LatitudeDegrees>40.69260324351489543914794921875</LatitudeDegrees>
              <LongitudeDegrees>24.73135524429380893707275390625</LongitudeDegrees>
            </Position>
            <AltitudeMeters>441.399993896484375</AltitudeMeters>
            <DistanceMeters>9082.6889567804</DistanceMeters>
          </Trackpoint>
          <Trackpoint>
            <Time>2022-09-18T09:02:01.000Z</Time>
            <Position>
              <LatitudeDegrees>40.69262436591088771820068359375</LatitudeDegrees>
              <LongitudeDegrees>24.73133973777294158935546875</LongitudeDegrees>
            </Position>
            <AltitudeMeters>440.20001220703125</AltitudeMeters>
            <DistanceMeters>9085.3800757499</DistanceMeters>
          </Trackpoint>
          <Trackpoint>
            <Time>2022-09-18T09:02:05.000Z</Time>
            <Position>
              <LatitudeDegrees>40.69267432205379009246826171875</LatitudeDegrees>
              <LongitudeDegrees>24.7313201241195201873779296875</LongitudeDegrees>
            </Position>
            <AltitudeMeters>439.399993896484375</AltitudeMeters>
            <DistanceMeters>9091.1821551171</DistanceMeters>
          </Trackpoint>
          <Trackpoint>
            <Time>2022-09-18T09:02:06.000Z</Time>
            <Position>
              <LatitudeDegrees>40.69268924184143543243408203125</LatitudeDegrees>
              <LongitudeDegrees>24.73131719045341014862060546875</LongitudeDegrees>
            </Position>
            <AltitudeMeters>439</AltitudeMeters>
            <DistanceMeters>9092.8606615516</DistanceMeters>
          </Trackpoint>
          <Trackpoint>
            <Time>2022-09-18T09:02:07.000Z</Time>
            <Position>
              <LatitudeDegrees>40.6927030719816684722900390625</LatitudeDegrees>
              <LongitudeDegrees>24.73131869919598102569580078125</LongitudeDegrees>
            </Position>
            <AltitudeMeters>438.600006103515625</AltitudeMeters>
            <DistanceMeters>9094.4046629056</DistanceMeters>
          </Trackpoint>
          <Trackpoint>
            <Time>2022-09-18T09:02:09.000Z</Time>
            <Position>
              <LatitudeDegrees>40.69272704422473907470703125</LatitudeDegrees>
              <LongitudeDegrees>24.73133035004138946533203125</LongitudeDegrees>
            </Position>
            <AltitudeMeters>438</AltitudeMeters>
            <DistanceMeters>9097.2491221677</DistanceMeters>
          </Trackpoint>
          <Trackpoint>
            <Time>2022-09-18T09:02:13.000Z</Time>
            <Position>
              <LatitudeDegrees>40.6927811913192272186279296875</LatitudeDegrees>
              <LongitudeDegrees>24.73133613355457782745361328125</LongitudeDegrees>
            </Position>
            <AltitudeMeters>436.600006103515625</AltitudeMeters>
            <DistanceMeters>9103.2950918538</DistanceMeters>
          </Trackpoint>
          <Trackpoint>
            <Time>2022-09-18T09:02:14.000Z</Time>
            <Position>
              <LatitudeDegrees>40.692791081964969635009765625</LatitudeDegrees>
              <LongitudeDegrees>24.7313318587839603424072265625</LongitudeDegrees>
            </Position>
            <AltitudeMeters>436.399993896484375</AltitudeMeters>
            <DistanceMeters>9104.4511417289</DistanceMeters>
          </Trackpoint>
          <Trackpoint>
            <Time>2022-09-18T09:02:16.000Z</Time>
            <Position>
              <LatitudeDegrees>40.692789070308208465576171875</LatitudeDegrees>
              <LongitudeDegrees>24.73131157457828521728515625</LongitudeDegrees>
            </Position>
            <AltitudeMeters>435.600006103515625</AltitudeMeters>
            <DistanceMeters>9106.1773877213</DistanceMeters>
          </Trackpoint>
          <Trackpoint>
            <Time>2022-09-18T09:02:18.000Z</Time>
            <Position>
              <LatitudeDegrees>40.69277507252991199493408203125</LatitudeDegrees>
              <LongitudeDegrees>24.731290452182292938232421875</LongitudeDegrees>
            </Position>
            <AltitudeMeters>435</AltitudeMeters>
            <DistanceMeters>9108.5473471193</DistanceMeters>
          </Trackpoint>
          <Trackpoint>
            <Time>2022-09-18T09:02:20.000Z</Time>
            <Position>
              <LatitudeDegrees>40.69276032038033008575439453125</LatitudeDegrees>
              <LongitudeDegrees>24.73127058707177639007568359375</LongitudeDegrees>
            </Position>
            <AltitudeMeters>434.20001220703125</AltitudeMeters>
            <DistanceMeters>9110.8943338323</DistanceMeters>
          </Trackpoint>
          <Trackpoint>
            <Time>2022-09-18T09:02:24.000Z</Time>
            <Position>
              <LatitudeDegrees>40.69273886270821094512939453125</LatitudeDegrees>
              <LongitudeDegrees>24.73124510608613491058349609375</LongitudeDegrees>
            </Position>
            <AltitudeMeters>433</AltitudeMeters>
            <DistanceMeters>9114.1084289541</DistanceMeters>
          </Trackpoint>
          <Trackpoint>
            <Time>2022-09-18T09:02:26.000Z</Time>
            <Position>
              <LatitudeDegrees>40.69271958433091640472412109375</LatitudeDegrees>
              <LongitudeDegrees>24.73123454488813877105712890625</LongitudeDegrees>
            </Position>
            <AltitudeMeters>432.399993896484375</AltitudeMeters>
            <DistanceMeters>9116.4322158878</DistanceMeters>
          </Trackpoint>
          <Trackpoint>
            <Time>2022-09-18T09:02:28.000Z</Time>
            <Position>
              <LatitudeDegrees>40.69269728846848011016845703125</LatitudeDegrees>
              <LongitudeDegrees>24.731214009225368499755859375</LongitudeDegrees>
            </Position>
            <AltitudeMeters>431.600006103515625</AltitudeMeters>
            <DistanceMeters>9119.4581863956</DistanceMeters>
          </Trackpoint>
          <Trackpoint>
            <Time>2022-09-18T09:02:31.000Z</Time>
            <Position>
              <LatitudeDegrees>40.692671053111553192138671875</LatitudeDegrees>
              <LongitudeDegrees>24.73117067478597164154052734375</LongitudeDegrees>
            </Position>
            <AltitudeMeters>430.600006103515625</AltitudeMeters>
            <DistanceMeters>9124.1386741323</DistanceMeters>
          </Trackpoint>
          <Trackpoint>
            <Time>2022-09-18T09:02:32.000Z</Time>
            <Position>
              <LatitudeDegrees>40.69265387021005153656005859375</LatitudeDegrees>
              <LongitudeDegrees>24.73116564564406871795654296875</LongitudeDegrees>
            </Position>
            <AltitudeMeters>430.399993896484375</AltitudeMeters>
            <DistanceMeters>9126.1000034175</DistanceMeters>
          </Trackpoint>
          <Trackpoint>
            <Time>2022-09-18T09:02:34.000Z</Time>
            <Position>
              <LatitudeDegrees>40.6926262937486171722412109375</LatitudeDegrees>
              <LongitudeDegrees>24.7311669029295444488525390625</LongitudeDegrees>
            </Position>
            <AltitudeMeters>429.600006103515625</AltitudeMeters>
            <DistanceMeters>9129.1718806748</DistanceMeters>
          </Trackpoint>
          <Trackpoint>
            <Time>2022-09-18T09:02:38.000Z</Time>
            <Position>
              <LatitudeDegrees>40.69257440976798534393310546875</LatitudeDegrees>
              <LongitudeDegrees>24.73114569671452045440673828125</LongitudeDegrees>
            </Position>
            <AltitudeMeters>428.20001220703125</AltitudeMeters>
            <DistanceMeters>9135.2178503609</DistanceMeters>
          </Trackpoint>
          <Trackpoint>
            <Time>2022-09-18T09:02:39.000Z</Time>
            <Position>
              <LatitudeDegrees>40.69256284274160861968994140625</LatitudeDegrees>
              <LongitudeDegrees>24.7311477921903133392333984375</LongitudeDegrees>
            </Position>
            <AltitudeMeters>427.79998779296875</AltitudeMeters>
            <DistanceMeters>9136.5138419576</DistanceMeters>
          </Trackpoint>
          <Trackpoint>
            <Time>2022-09-18T09:02:42.000Z</Time>
            <Position>
              <LatitudeDegrees>40.692514143884181976318359375</LatitudeDegrees>
              <LongitudeDegrees>24.731138907372951507568359375</LongitudeDegrees>
            </Position>
            <AltitudeMeters>427</AltitudeMeters>
            <DistanceMeters>9141.9859287157</DistanceMeters>
          </Trackpoint>
          <Trackpoint>
            <Time>2022-09-18T09:02:45.000Z</Time>
            <Position>
              <LatitudeDegrees>40.69247533567249774932861328125</LatitudeDegrees>
              <LongitudeDegrees>24.73113228566944599151611328125</LongitudeDegrees>
            </Position>
            <AltitudeMeters>426.20001220703125</AltitudeMeters>
            <DistanceMeters>9146.3405998321</DistanceMeters>
          </Trackpoint>
          <Trackpoint>
            <Time>2022-09-18T09:02:48.000Z</Time>
            <Position>
              <LatitudeDegrees>40.6924621760845184326171875</LatitudeDegrees>
              <LongitudeDegrees>24.73111501894891262054443359375</LongitudeDegrees>
            </Position>
            <AltitudeMeters>426</AltitudeMeters>
            <DistanceMeters>9148.4094778455</DistanceMeters>
          </Trackpoint>
          <Trackpoint>
            <Time>2022-09-18T09:02:50.000Z</Time>
            <Position>
              <LatitudeDegrees>40.69243560545146465301513671875</LatitudeDegrees>
              <LongitudeDegrees>24.73109389655292034149169921875</LongitudeDegrees>
            </Position>
            <AltitudeMeters>425.399993896484375</AltitudeMeters>
            <DistanceMeters>9151.8619698305</DistanceMeters>
          </Trackpoint>
          <Trackpoint>
            <Time>2022-09-18T09:02:51.000Z</Time>
            <Position>
              <LatitudeDegrees>40.69241582415997982025146484375</LatitudeDegrees>
              <LongitudeDegrees>24.73107512108981609344482421875</LongitudeDegrees>
            </Position>
            <AltitudeMeters>424.79998779296875</AltitudeMeters>
            <DistanceMeters>9154.5731471071</DistanceMeters>
          </Trackpoint>
          <Trackpoint>
            <Time>2022-09-18T09:02:52.000Z</Time>
            <Position>
              <LatitudeDegrees>40.692417919635772705078125</LatitudeDegrees>
              <LongitudeDegrees>24.73105483688414096832275390625</LongitudeDegrees>
            </Position>
            <AltitudeMeters>424.600006103515625</AltitudeMeters>
            <DistanceMeters>9156.2967755909</DistanceMeters>
          </Trackpoint>
          <Trackpoint>
            <Time>2022-09-18T09:02:55.000Z</Time>
            <Position>
              <LatitudeDegrees>40.692406855523586273193359375</LatitudeDegrees>
              <LongitudeDegrees>24.7310076467692852020263671875</LongitudeDegrees>
            </Position>
            <AltitudeMeters>423.600006103515625</AltitudeMeters>
            <DistanceMeters>9160.4638893404</DistanceMeters>
          </Trackpoint>
          <Trackpoint>
            <Time>2022-09-18T09:02:56.000Z</Time>
            <Position>
              <LatitudeDegrees>40.69240308366715908050537109375</LatitudeDegrees>
              <LongitudeDegrees>24.731004796922206878662109375</LongitudeDegrees>
            </Position>
            <AltitudeMeters>423.600006103515625</AltitudeMeters>
            <DistanceMeters>9160.9294232647</DistanceMeters>
          </Trackpoint>
          <Trackpoint>
            <Time>2022-09-18T09:02:57.000Z</Time>
            <Position>
              <LatitudeDegrees>40.692388080060482025146484375</LatitudeDegrees>
              <LongitudeDegrees>24.731006138026714324951171875</LongitudeDegrees>
            </Position>
            <AltitudeMeters>423.600006103515625</AltitudeMeters>
            <DistanceMeters>9162.6025412216</DistanceMeters>
          </Trackpoint>
          <Trackpoint>
            <Time>2022-09-18T09:03:03.000Z</Time>
            <Position>
              <LatitudeDegrees>40.69235346280038356781005859375</LatitudeDegrees>
              <LongitudeDegrees>24.73098568618297576904296875</LongitudeDegrees>
            </Position>
            <AltitudeMeters>423</AltitudeMeters>
            <DistanceMeters>9166.8245515129</DistanceMeters>
          </Trackpoint>
          <Trackpoint>
            <Time>2022-09-18T09:03:05.000Z</Time>
            <Position>
              <LatitudeDegrees>40.69235161878168582916259765625</LatitudeDegrees>
              <LongitudeDegrees>24.730956852436065673828125</LongitudeDegrees>
            </Position>
            <AltitudeMeters>422.79998779296875</AltitudeMeters>
            <DistanceMeters>9169.2695281194</DistanceMeters>
          </Trackpoint>
          <Trackpoint>
            <Time>2022-09-18T09:03:07.000Z</Time>
            <Position>
              <LatitudeDegrees>40.6923453323543071746826171875</LatitudeDegrees>
              <LongitudeDegrees>24.73093229345977306365966796875</LongitudeDegrees>
            </Position>
            <AltitudeMeters>422.600006103515625</AltitudeMeters>
            <DistanceMeters>9171.4572073727</DistanceMeters>
          </Trackpoint>
          <Trackpoint>
            <Time>2022-09-18T09:03:19.000Z</Time>
            <Position>
              <LatitudeDegrees>40.69234340451657772064208984375</LatitudeDegrees>
              <LongitudeDegrees>24.73087646998465061187744140625</LongitudeDegrees>
            </Position>
            <AltitudeMeters>422.600006103515625</AltitudeMeters>
            <DistanceMeters>9176.1742094246</DistanceMeters>
          </Trackpoint>
          <Trackpoint>
            <Time>2022-09-18T09:03:20.000Z</Time>
            <Position>
              <LatitudeDegrees>40.6923295743763446807861328125</LatitudeDegrees>
              <LongitudeDegrees>24.73086155019700527191162109375</LongitudeDegrees>
            </Position>
            <AltitudeMeters>422.600006103515625</AltitudeMeters>
            <DistanceMeters>9178.1629712209</DistanceMeters>
          </Trackpoint>
          <Trackpoint>
            <Time>2022-09-18T09:03:25.000Z</Time>
            <Position>
              <LatitudeDegrees>40.69230317138135433197021484375</LatitudeDegrees>
              <LongitudeDegrees>24.7307991050183773040771484375</LongitudeDegrees>
            </Position>
            <AltitudeMeters>422</AltitudeMeters>
            <DistanceMeters>9184.19698052</DistanceMeters>
          </Trackpoint>
          <Trackpoint>
            <Time>2022-09-18T09:03:26.000Z</Time>
            <Position>
              <LatitudeDegrees>40.6923050992190837860107421875</LatitudeDegrees>
              <LongitudeDegrees>24.730794914066791534423828125</LongitudeDegrees>
            </Position>
            <AltitudeMeters>421.600006103515625</AltitudeMeters>
            <DistanceMeters>9184.6001447248</DistanceMeters>
          </Trackpoint>
          <Trackpoint>
            <Time>2022-09-18T09:03:27.000Z</Time>
            <Position>
              <LatitudeDegrees>40.69230501540005207061767578125</LatitudeDegrees>
              <LongitudeDegrees>24.73079147748649120330810546875</LongitudeDegrees>
            </Position>
            <AltitudeMeters>421.399993896484375</AltitudeMeters>
            <DistanceMeters>9184.8689208613</DistanceMeters>
          </Trackpoint>
          <Trackpoint>
            <Time>2022-09-18T09:03:31.000Z</Time>
            <Position>
              <LatitudeDegrees>40.69232949055731296539306640625</LatitudeDegrees>
              <LongitudeDegrees>24.73077781498432159423828125</LongitudeDegrees>
            </Position>
            <AltitudeMeters>420.20001220703125</AltitudeMeters>
            <DistanceMeters>9187.8254583628</DistanceMeters>
          </Trackpoint>
          <Trackpoint>
            <Time>2022-09-18T09:03:33.000Z</Time>
            <Position>
              <LatitudeDegrees>40.69234038703143596649169921875</LatitudeDegrees>
              <LongitudeDegrees>24.73078879527747631072998046875</LongitudeDegrees>
            </Position>
            <AltitudeMeters>419.600006103515625</AltitudeMeters>
            <DistanceMeters>9189.3518134075</DistanceMeters>
          </Trackpoint>
          <Trackpoint>
            <Time>2022-09-18T09:03:34.000Z</Time>
            <Position>
              <LatitudeDegrees>40.69233485497534275054931640625</LatitudeDegrees>
              <LongitudeDegrees>24.73078846000134944915771484375</LongitudeDegrees>
            </Position>
            <AltitudeMeters>419.399993896484375</AltitudeMeters>
            <DistanceMeters>9189.9749452451</DistanceMeters>
          </Trackpoint>
          <Trackpoint>
            <Time>2022-09-18T09:03:35.000Z</Time>
            <Position>
              <LatitudeDegrees>40.69233183749020099639892578125</LatitudeDegrees>
              <LongitudeDegrees>24.73078309558331966400146484375</LongitudeDegrees>
            </Position>
            <AltitudeMeters>419.20001220703125</AltitudeMeters>
            <DistanceMeters>9190.5290414454</DistanceMeters>
          </Trackpoint>
          <Trackpoint>
            <Time>2022-09-18T09:03:38.000Z</Time>
            <Position>
              <LatitudeDegrees>40.6923278979957103729248046875</LatitudeDegrees>
              <LongitudeDegrees>24.7307838499546051025390625</LongitudeDegrees>
            </Position>
            <AltitudeMeters>418.600006103515625</AltitudeMeters>
            <DistanceMeters>9190.974756244</DistanceMeters>
          </Trackpoint>
          <Trackpoint>
            <Time>2022-09-18T09:03:41.000Z</Time>
            <Position>
              <LatitudeDegrees>40.6923322565853595733642578125</LatitudeDegrees>
              <LongitudeDegrees>24.730782844126224517822265625</LongitudeDegrees>
            </Position>
            <AltitudeMeters>418.79998779296875</AltitudeMeters>
            <DistanceMeters>9191.4685295361</DistanceMeters>
          </Trackpoint>
          <Trackpoint>
            <Time>2022-09-18T09:03:43.000Z</Time>
            <Position>
              <LatitudeDegrees>40.69233946502208709716796875</LatitudeDegrees>
              <LongitudeDegrees>24.7307779826223850250244140625</LongitudeDegrees>
            </Position>
            <AltitudeMeters>418.600006103515625</AltitudeMeters>
            <DistanceMeters>9192.3599591335</DistanceMeters>
          </Trackpoint>
          <Trackpoint>
            <Time>2022-09-18T09:03:45.000Z</Time>
            <Position>
              <LatitudeDegrees>40.6923392973840236663818359375</LatitudeDegrees>
              <LongitudeDegrees>24.7307712770998477935791015625</LongitudeDegrees>
            </Position>
            <AltitudeMeters>418.399993896484375</AltitudeMeters>
            <DistanceMeters>9192.9221447572</DistanceMeters>
          </Trackpoint>
          <Trackpoint>
            <Time>2022-09-18T09:03:46.000Z</Time>
            <Position>
              <LatitudeDegrees>40.69234080612659454345703125</LatitudeDegrees>
              <LongitudeDegrees>24.73076096735894680023193359375</LongitudeDegrees>
            </Position>
            <AltitudeMeters>418</AltitudeMeters>
            <DistanceMeters>9193.8135743546</DistanceMeters>
          </Trackpoint>
          <Trackpoint>
            <Time>2022-09-18T09:03:47.000Z</Time>
            <Position>
              <LatitudeDegrees>40.69234290160238742828369140625</LatitudeDegrees>
              <LongitudeDegrees>24.73075208254158496856689453125</LongitudeDegrees>
            </Position>
            <AltitudeMeters>417.79998779296875</AltitudeMeters>
            <DistanceMeters>9194.5971847158</DistanceMeters>
          </Trackpoint>
          <Trackpoint>
            <Time>2022-09-18T09:03:51.000Z</Time>
            <Position>
              <LatitudeDegrees>40.692369975149631500244140625</LatitudeDegrees>
              <LongitudeDegrees>24.73070464096963405609130859375</LongitudeDegrees>
            </Position>
            <AltitudeMeters>417</AltitudeMeters>
            <DistanceMeters>9199.6075352539</DistanceMeters>
          </Trackpoint>
          <Trackpoint>
            <Time>2022-09-18T09:03:54.000Z</Time>
            <Position>
              <LatitudeDegrees>40.692370645701885223388671875</LatitudeDegrees>
              <LongitudeDegrees>24.73068200983107089996337890625</LongitudeDegrees>
            </Position>
            <AltitudeMeters>416</AltitudeMeters>
            <DistanceMeters>9201.5175485741</DistanceMeters>
          </Trackpoint>
          <Trackpoint>
            <Time>2022-09-18T09:03:55.000Z</Time>
            <Position>
              <LatitudeDegrees>40.69236922077834606170654296875</LatitudeDegrees>
              <LongitudeDegrees>24.73067245446145534515380859375</LongitudeDegrees>
            </Position>
            <AltitudeMeters>415.79998779296875</AltitudeMeters>
            <DistanceMeters>9202.3459722638</DistanceMeters>
          </Trackpoint>
          <Trackpoint>
            <Time>2022-09-18T09:03:59.000Z</Time>
            <Position>
              <LatitudeDegrees>40.69238430820405483245849609375</LatitudeDegrees>
              <LongitudeDegrees>24.730646051466464996337890625</LongitudeDegrees>
            </Position>
            <AltitudeMeters>414.600006103515625</AltitudeMeters>
            <DistanceMeters>9205.1375589043</DistanceMeters>
          </Trackpoint>
          <Trackpoint>
            <Time>2022-09-18T09:04:00.000Z</Time>
            <Position>
              <LatitudeDegrees>40.6923926062881946563720703125</LatitudeDegrees>
              <LongitudeDegrees>24.73063691519200801849365234375</LongitudeDegrees>
            </Position>
            <AltitudeMeters>414.399993896484375</AltitudeMeters>
            <DistanceMeters>9206.3470515185</DistanceMeters>
          </Trackpoint>
          <Trackpoint>
            <Time>2022-09-18T09:04:02.000Z</Time>
            <Position>
              <LatitudeDegrees>40.692407526075839996337890625</LatitudeDegrees>
              <LongitudeDegrees>24.73062702454626560211181640625</LongitudeDegrees>
            </Position>
            <AltitudeMeters>414.20001220703125</AltitudeMeters>
            <DistanceMeters>9208.2067609792</DistanceMeters>
          </Trackpoint>
          <Trackpoint>
            <Time>2022-09-18T09:04:04.000Z</Time>
            <Position>
              <LatitudeDegrees>40.692424289882183074951171875</LatitudeDegrees>
              <LongitudeDegrees>24.73061646334826946258544921875</LongitudeDegrees>
            </Position>
            <AltitudeMeters>413.600006103515625</AltitudeMeters>
            <DistanceMeters>9210.2734554796</DistanceMeters>
          </Trackpoint>
          <Trackpoint>
            <Time>2022-09-18T09:04:05.000Z</Time>
            <Position>
              <LatitudeDegrees>40.69243133068084716796875</LatitudeDegrees>
              <LongitudeDegrees>24.73061160184442996978759765625</LongitudeDegrees>
            </Position>
            <AltitudeMeters>413.399993896484375</AltitudeMeters>
            <DistanceMeters>9211.1598056647</DistanceMeters>
          </Trackpoint>
          <Trackpoint>
            <Time>2022-09-18T09:04:06.000Z</Time>
            <Position>
              <LatitudeDegrees>40.69244004786014556884765625</LatitudeDegrees>
              <LongitudeDegrees>24.7306066565215587615966796875</LongitudeDegrees>
            </Position>
            <AltitudeMeters>413</AltitudeMeters>
            <DistanceMeters>9212.2222366297</DistanceMeters>
          </Trackpoint>
          <Trackpoint>
            <Time>2022-09-18T09:04:09.000Z</Time>
            <Position>
              <LatitudeDegrees>40.69247114472091197967529296875</LatitudeDegrees>
              <LongitudeDegrees>24.73057237453758716583251953125</LongitudeDegrees>
            </Position>
            <AltitudeMeters>412.399993896484375</AltitudeMeters>
            <DistanceMeters>9216.7337543682</DistanceMeters>
          </Trackpoint>
          <Trackpoint>
            <Time>2022-09-18T09:04:10.000Z</Time>
            <Position>
              <LatitudeDegrees>40.69249897263944149017333984375</LatitudeDegrees>
              <LongitudeDegrees>24.73056717775762081146240234375</LongitudeDegrees>
            </Position>
            <AltitudeMeters>412</AltitudeMeters>
            <DistanceMeters>9219.8609852181</DistanceMeters>
          </Trackpoint>
          <Trackpoint>
            <Time>2022-09-18T09:04:12.000Z</Time>
            <Position>
              <LatitudeDegrees>40.69252914749085903167724609375</LatitudeDegrees>
              <LongitudeDegrees>24.73054655827581882476806640625</LongitudeDegrees>
            </Position>
            <AltitudeMeters>411.20001220703125</AltitudeMeters>
            <DistanceMeters>9223.6430006977</DistanceMeters>
          </Trackpoint>
          <Trackpoint>
            <Time>2022-09-18T09:04:16.000Z</Time>
            <Position>
              <LatitudeDegrees>40.6925840489566326141357421875</LatitudeDegrees>
              <LongitudeDegrees>24.7304792515933513641357421875</LongitudeDegrees>
            </Position>
            <AltitudeMeters>410</AltitudeMeters>
            <DistanceMeters>9231.9858916373</DistanceMeters>
          </Trackpoint>
          <Trackpoint>
            <Time>2022-09-18T09:04:18.000Z</Time>
            <Position>
              <LatitudeDegrees>40.69261372089385986328125</LatitudeDegrees>
              <LongitudeDegrees>24.730437509715557098388671875</LongitudeDegrees>
            </Position>
            <AltitudeMeters>409.399993896484375</AltitudeMeters>
            <DistanceMeters>9236.8145205708</DistanceMeters>
          </Trackpoint>
          <Trackpoint>
            <Time>2022-09-18T09:04:19.000Z</Time>
            <Position>
              <LatitudeDegrees>40.69262981414794921875</LatitudeDegrees>
              <LongitudeDegrees>24.73041881807148456573486328125</LongitudeDegrees>
            </Position>
            <AltitudeMeters>408.79998779296875</AltitudeMeters>
            <DistanceMeters>9239.1996721718</DistanceMeters>
          </Trackpoint>
          <Trackpoint>
            <Time>2022-09-18T09:04:21.000Z</Time>
            <Position>
              <LatitudeDegrees>40.69264062680304050445556640625</LatitudeDegrees>
              <LongitudeDegrees>24.73038529045879840850830078125</LongitudeDegrees>
            </Position>
            <AltitudeMeters>407.79998779296875</AltitudeMeters>
            <DistanceMeters>9242.2744876194</DistanceMeters>
          </Trackpoint>
          <Trackpoint>
            <Time>2022-09-18T09:04:22.000Z</Time>
            <Position>
              <LatitudeDegrees>40.69264146499335765838623046875</LatitudeDegrees>
              <LongitudeDegrees>24.730369783937931060791015625</LongitudeDegrees>
            </Position>
            <AltitudeMeters>407.399993896484375</AltitudeMeters>
            <DistanceMeters>9243.5912163984</DistanceMeters>
          </Trackpoint>
          <Trackpoint>
            <Time>2022-09-18T09:04:24.000Z</Time>
            <Position>
              <LatitudeDegrees>40.6926581449806690216064453125</LatitudeDegrees>
              <LongitudeDegrees>24.73033466376364231109619140625</LongitudeDegrees>
            </Position>
            <AltitudeMeters>406.600006103515625</AltitudeMeters>
            <DistanceMeters>9247.0891806037</DistanceMeters>
          </Trackpoint>
          <Trackpoint>
            <Time>2022-09-18T09:04:25.000Z</Time>
            <Position>
              <LatitudeDegrees>40.69267130456864833831787109375</LatitudeDegrees>
              <LongitudeDegrees>24.7303153015673160552978515625</LongitudeDegrees>
            </Position>
            <AltitudeMeters>406.399993896484375</AltitudeMeters>
            <DistanceMeters>9249.2809836669</DistanceMeters>
          </Trackpoint>
          <Trackpoint>
            <Time>2022-09-18T09:04:26.000Z</Time>
            <Position>
              <LatitudeDegrees>40.69267951883375644683837890625</LatitudeDegrees>
              <LongitudeDegrees>24.73030180670320987701416015625</LongitudeDegrees>
            </Position>
            <AltitudeMeters>406.20001220703125</AltitudeMeters>
            <DistanceMeters>9250.740811753</DistanceMeters>
          </Trackpoint>
          <Trackpoint>
            <Time>2022-09-18T09:04:29.000Z</Time>
            <Position>
              <LatitudeDegrees>40.69271053187549114227294921875</LatitudeDegrees>
              <LongitudeDegrees>24.73025503568351268768310546875</LongitudeDegrees>
            </Position>
            <AltitudeMeters>405</AltitudeMeters>
            <DistanceMeters>9255.9836690556</DistanceMeters>
          </Trackpoint>
          <Trackpoint>
            <Time>2022-09-18T09:04:30.000Z</Time>
            <Position>
              <LatitudeDegrees>40.69272092543542385101318359375</LatitudeDegrees>
              <LongitudeDegrees>24.7302412055432796478271484375</LongitudeDegrees>
            </Position>
            <AltitudeMeters>404.79998779296875</AltitudeMeters>
            <DistanceMeters>9257.6268345544</DistanceMeters>
          </Trackpoint>
          <Trackpoint>
            <Time>2022-09-18T09:04:33.000Z</Time>
            <Position>
              <LatitudeDegrees>40.69276149384677410125732421875</LatitudeDegrees>
              <LongitudeDegrees>24.73020290024578571319580078125</LongitudeDegrees>
            </Position>
            <AltitudeMeters>404.20001220703125</AltitudeMeters>
            <DistanceMeters>9263.1808188119</DistanceMeters>
          </Trackpoint>
          <Trackpoint>
            <Time>2022-09-18T09:04:34.000Z</Time>
            <Position>
              <LatitudeDegrees>40.6927704624831676483154296875</LatitudeDegrees>
              <LongitudeDegrees>24.7301912494003772735595703125</LongitudeDegrees>
            </Position>
            <AltitudeMeters>403.79998779296875</AltitudeMeters>
            <DistanceMeters>9264.5838714356</DistanceMeters>
          </Trackpoint>
          <Trackpoint>
            <Time>2022-09-18T09:04:36.000Z</Time>
            <Position>
              <LatitudeDegrees>40.6927868910133838653564453125</LatitudeDegrees>
              <LongitudeDegrees>24.73016870208084583282470703125</LongitudeDegrees>
            </Position>
            <AltitudeMeters>402.79998779296875</AltitudeMeters>
            <DistanceMeters>9267.2224674521</DistanceMeters>
          </Trackpoint>
          <Trackpoint>
            <Time>2022-09-18T09:04:37.000Z</Time>
            <Position>
              <LatitudeDegrees>40.69280189462006092071533203125</LatitudeDegrees>
              <LongitudeDegrees>24.73014808259904384613037109375</LongitudeDegrees>
            </Position>
            <AltitudeMeters>402.399993896484375</AltitudeMeters>
            <DistanceMeters>9269.6339751195</DistanceMeters>
          </Trackpoint>
          <Trackpoint>
            <Time>2022-09-18T09:04:39.000Z</Time>
            <Position>
              <LatitudeDegrees>40.692822933197021484375</LatitudeDegrees>
              <LongitudeDegrees>24.73009661771357059478759765625</LongitudeDegrees>
            </Position>
            <AltitudeMeters>401.20001220703125</AltitudeMeters>
            <DistanceMeters>9274.5680491049</DistanceMeters>
          </Trackpoint>
          <Trackpoint>
            <Time>2022-09-18T09:04:40.000Z</Time>
            <Position>
              <LatitudeDegrees>40.6928242743015289306640625</LatitudeDegrees>
              <LongitudeDegrees>24.73007298074662685394287109375</LongitudeDegrees>
            </Position>
            <AltitudeMeters>400.600006103515625</AltitudeMeters>
            <DistanceMeters>9276.5658713663</DistanceMeters>
          </Trackpoint>
          <Trackpoint>
            <Time>2022-09-18T09:04:41.000Z</Time>
            <Position>
              <LatitudeDegrees>40.69281329400837421417236328125</LatitudeDegrees>
              <LongitudeDegrees>24.73005018197000026702880859375</LongitudeDegrees>
            </Position>
            <AltitudeMeters>399.79998779296875</AltitudeMeters>
            <DistanceMeters>9278.8465125112</DistanceMeters>
          </Trackpoint>
          <Trackpoint>
            <Time>2022-09-18T09:04:43.000Z</Time>
            <Position>
              <LatitudeDegrees>40.69282226264476776123046875</LatitudeDegrees>
              <LongitudeDegrees>24.73000206984579563140869140625</LongitudeDegrees>
            </Position>
            <AltitudeMeters>398.600006103515625</AltitudeMeters>
            <DistanceMeters>9283.0276879434</DistanceMeters>
          </Trackpoint>
          <Trackpoint>
            <Time>2022-09-18T09:04:46.000Z</Time>
            <Position>
              <LatitudeDegrees>40.69283567368984222412109375</LatitudeDegrees>
              <LongitudeDegrees>24.7299679554998874664306640625</LongitudeDegrees>
            </Position>
            <AltitudeMeters>397.79998779296875</AltitudeMeters>
            <DistanceMeters>9286.2697565702</DistanceMeters>
          </Trackpoint>
          <Trackpoint>
            <Time>2022-09-18T09:04:47.000Z</Time>
            <Position>
              <LatitudeDegrees>40.69284464232623577117919921875</LatitudeDegrees>
              <LongitudeDegrees>24.72995948977768421173095703125</LongitudeDegrees>
            </Position>
            <AltitudeMeters>397.600006103515625</AltitudeMeters>
            <DistanceMeters>9287.4940901398</DistanceMeters>
          </Trackpoint>
          <Trackpoint>
            <Time>2022-09-18T09:04:50.000Z</Time>
            <Position>
              <LatitudeDegrees>40.69285604171454906463623046875</LatitudeDegrees>
              <LongitudeDegrees>24.72993987612426280975341796875</LongitudeDegrees>
            </Position>
            <AltitudeMeters>396.79998779296875</AltitudeMeters>
            <DistanceMeters>9289.5803539884</DistanceMeters>
          </Trackpoint>
          <Trackpoint>
            <Time>2022-09-18T09:04:51.000Z</Time>
            <Position>
              <LatitudeDegrees>40.69286475889384746551513671875</LatitudeDegrees>
              <LongitudeDegrees>24.72992948256433010101318359375</LongitudeDegrees>
            </Position>
            <AltitudeMeters>396.20001220703125</AltitudeMeters>
            <DistanceMeters>9290.8867553234</DistanceMeters>
          </Trackpoint>
          <Trackpoint>
            <Time>2022-09-18T09:04:53.000Z</Time>
            <Position>
              <LatitudeDegrees>40.69287548772990703582763671875</LatitudeDegrees>
              <LongitudeDegrees>24.729898385703563690185546875</LongitudeDegrees>
            </Position>
            <AltitudeMeters>394.79998779296875</AltitudeMeters>
            <DistanceMeters>9293.7706243226</DistanceMeters>
          </Trackpoint>
          <Trackpoint>
            <Time>2022-09-18T09:04:56.000Z</Time>
            <Position>
              <LatitudeDegrees>40.69289661012589931488037109375</LatitudeDegrees>
              <LongitudeDegrees>24.72984281368553638458251953125</LongitudeDegrees>
            </Position>
            <AltitudeMeters>393.399993896484375</AltitudeMeters>
            <DistanceMeters>9299.01692521</DistanceMeters>
          </Trackpoint>
          <Trackpoint>
            <Time>2022-09-18T09:04:58.000Z</Time>
            <Position>
              <LatitudeDegrees>40.69290750660002231597900390625</LatitudeDegrees>
              <LongitudeDegrees>24.72980760969221591949462890625</LongitudeDegrees>
            </Position>
            <AltitudeMeters>392.399993896484375</AltitudeMeters>
            <DistanceMeters>9302.225396364</DistanceMeters>
          </Trackpoint>
          <Trackpoint>
            <Time>2022-09-18T09:04:59.000Z</Time>
            <Position>
              <LatitudeDegrees>40.69291018880903720855712890625</LatitudeDegrees>
              <LongitudeDegrees>24.72979319281876087188720703125</LongitudeDegrees>
            </Position>
            <AltitudeMeters>392.20001220703125</AltitudeMeters>
            <DistanceMeters>9303.4788848168</DistanceMeters>
          </Trackpoint>
          <Trackpoint>
            <Time>2022-09-18T09:05:00.000Z</Time>
            <Position>
              <LatitudeDegrees>40.692911110818386077880859375</LatitudeDegrees>
              <LongitudeDegrees>24.72977676428854465484619140625</LongitudeDegrees>
            </Position>
            <AltitudeMeters>391.79998779296875</AltitudeMeters>
            <DistanceMeters>9304.869005804</DistanceMeters>
          </Trackpoint>
          <Trackpoint>
            <Time>2022-09-18T09:05:01.000Z</Time>
            <Position>
              <LatitudeDegrees>40.69291220046579837799072265625</LatitudeDegrees>
              <LongitudeDegrees>24.729762263596057891845703125</LongitudeDegrees>
            </Position>
            <AltitudeMeters>391.20001220703125</AltitudeMeters>
            <DistanceMeters>9306.0970215882</DistanceMeters>
          </Trackpoint>
          <Trackpoint>
            <Time>2022-09-18T09:05:02.000Z</Time>
            <Position>
              <LatitudeDegrees>40.69291940890252590179443359375</LatitudeDegrees>
              <LongitudeDegrees>24.72974424250423908233642578125</LongitudeDegrees>
            </Position>
            <AltitudeMeters>390.600006103515625</AltitudeMeters>
            <DistanceMeters>9307.8127735868</DistanceMeters>
          </Trackpoint>
          <Trackpoint>
            <Time>2022-09-18T09:05:04.000Z</Time>
            <Position>
              <LatitudeDegrees>40.69292309693992137908935546875</LatitudeDegrees>
              <LongitudeDegrees>24.72971440292894840240478515625</LongitudeDegrees>
            </Position>
            <AltitudeMeters>389.600006103515625</AltitudeMeters>
            <DistanceMeters>9310.3643780068</DistanceMeters>
          </Trackpoint>
          <Trackpoint>
            <Time>2022-09-18T09:05:06.000Z</Time>
            <Position>
              <LatitudeDegrees>40.69295234978199005126953125</LatitudeDegrees>
              <LongitudeDegrees>24.729692526161670684814453125</LongitudeDegrees>
            </Position>
            <AltitudeMeters>389</AltitudeMeters>
            <DistanceMeters>9314.1079963956</DistanceMeters>
          </Trackpoint>
          <Trackpoint>
            <Time>2022-09-18T09:05:08.000Z</Time>
            <Position>
              <LatitudeDegrees>40.6929763220250606536865234375</LatitudeDegrees>
              <LongitudeDegrees>24.7296641953289508819580078125</LongitudeDegrees>
            </Position>
            <AltitudeMeters>388.20001220703125</AltitudeMeters>
            <DistanceMeters>9317.6913982295</DistanceMeters>
          </Trackpoint>
          <Trackpoint>
            <Time>2022-09-18T09:05:10.000Z</Time>
            <Position>
              <LatitudeDegrees>40.692979507148265838623046875</LatitudeDegrees>
              <LongitudeDegrees>24.7296373732388019561767578125</LongitudeDegrees>
            </Position>
            <AltitudeMeters>386.79998779296875</AltitudeMeters>
            <DistanceMeters>9319.9799445667</DistanceMeters>
          </Trackpoint>
          <Trackpoint>
            <Time>2022-09-18T09:05:13.000Z</Time>
            <Position>
              <LatitudeDegrees>40.692988894879817962646484375</LatitudeDegrees>
              <LongitudeDegrees>24.7295817174017429351806640625</LongitudeDegrees>
            </Position>
            <AltitudeMeters>385.79998779296875</AltitudeMeters>
            <DistanceMeters>9324.7917130568</DistanceMeters>
          </Trackpoint>
          <Trackpoint>
            <Time>2022-09-18T09:05:15.000Z</Time>
            <Position>
              <LatitudeDegrees>40.69299518130719661712646484375</LatitudeDegrees>
              <LongitudeDegrees>24.72953804768621921539306640625</LongitudeDegrees>
            </Position>
            <AltitudeMeters>385.20001220703125</AltitudeMeters>
            <DistanceMeters>9328.5425608409</DistanceMeters>
          </Trackpoint>
          <Trackpoint>
            <Time>2022-09-18T09:05:17.000Z</Time>
            <Position>
              <LatitudeDegrees>40.69299618713557720184326171875</LatitudeDegrees>
              <LongitudeDegrees>24.72950720228254795074462890625</LongitudeDegrees>
            </Position>
            <AltitudeMeters>384.600006103515625</AltitudeMeters>
            <DistanceMeters>9331.148442167</DistanceMeters>
          </Trackpoint>
          <Trackpoint>
            <Time>2022-09-18T09:05:21.000Z</Time>
            <Position>
              <LatitudeDegrees>40.69299786351621150970458984375</LatitudeDegrees>
              <LongitudeDegrees>24.72943075932562351226806640625</LongitudeDegrees>
            </Position>
            <AltitudeMeters>383.600006103515625</AltitudeMeters>
            <DistanceMeters>9337.603267704</DistanceMeters>
          </Trackpoint>
          <Trackpoint>
            <Time>2022-09-18T09:05:22.000Z</Time>
            <Position>
              <LatitudeDegrees>40.69302468560636043548583984375</LatitudeDegrees>
              <LongitudeDegrees>24.729414917528629302978515625</LongitudeDegrees>
            </Position>
            <AltitudeMeters>383.20001220703125</AltitudeMeters>
            <DistanceMeters>9340.8758310208</DistanceMeters>
          </Trackpoint>
          <Trackpoint>
            <Time>2022-09-18T09:05:24.000Z</Time>
            <Position>
              <LatitudeDegrees>40.6930470652878284454345703125</LatitudeDegrees>
              <LongitudeDegrees>24.72937962971627712249755859375</LongitudeDegrees>
            </Position>
            <AltitudeMeters>382.399993896484375</AltitudeMeters>
            <DistanceMeters>9344.7591579014</DistanceMeters>
          </Trackpoint>
          <Trackpoint>
            <Time>2022-09-18T09:05:26.000Z</Time>
            <Position>
              <LatitudeDegrees>40.693067014217376708984375</LatitudeDegrees>
              <LongitudeDegrees>24.7293446771800518035888671875</LongitudeDegrees>
            </Position>
            <AltitudeMeters>381.20001220703125</AltitudeMeters>
            <DistanceMeters>9348.4517742408</DistanceMeters>
          </Trackpoint>
          <Trackpoint>
            <Time>2022-09-18T09:05:27.000Z</Time>
            <Position>
              <LatitudeDegrees>40.69307439029216766357421875</LatitudeDegrees>
              <LongitudeDegrees>24.72932145930826663970947265625</LongitudeDegrees>
            </Position>
            <AltitudeMeters>380.79998779296875</AltitudeMeters>
            <DistanceMeters>9350.5766361709</DistanceMeters>
          </Trackpoint>
          <Trackpoint>
            <Time>2022-09-18T09:05:29.000Z</Time>
            <Position>
              <LatitudeDegrees>40.6930755637586116790771484375</LatitudeDegrees>
              <LongitudeDegrees>24.7292776219546794891357421875</LongitudeDegrees>
            </Position>
            <AltitudeMeters>380</AltitudeMeters>
            <DistanceMeters>9354.2778016584</DistanceMeters>
          </Trackpoint>
          <Trackpoint>
            <Time>2022-09-18T09:05:33.000Z</Time>
            <Position>
              <LatitudeDegrees>40.6930748932063579559326171875</LatitudeDegrees>
              <LongitudeDegrees>24.72916622646152973175048828125</LongitudeDegrees>
            </Position>
            <AltitudeMeters>379</AltitudeMeters>
            <DistanceMeters>9363.679205183</DistanceMeters>
          </Trackpoint>
          <Trackpoint>
            <Time>2022-09-18T09:05:34.000Z</Time>
            <Position>
              <LatitudeDegrees>40.69306726567447185516357421875</LatitudeDegrees>
              <LongitudeDegrees>24.729136638343334197998046875</LongitudeDegrees>
            </Position>
            <AltitudeMeters>378.399993896484375</AltitudeMeters>
            <DistanceMeters>9366.3160894925</DistanceMeters>
          </Trackpoint>
          <Trackpoint>
            <Time>2022-09-18T09:05:35.000Z</Time>
            <Position>
              <LatitudeDegrees>40.6930628232657909393310546875</LatitudeDegrees>
              <LongitudeDegrees>24.72911258228123188018798828125</LongitudeDegrees>
            </Position>
            <AltitudeMeters>377.79998779296875</AltitudeMeters>
            <DistanceMeters>9368.4066772087</DistanceMeters>
          </Trackpoint>
          <Trackpoint>
            <Time>2022-09-18T09:05:37.000Z</Time>
            <Position>
              <LatitudeDegrees>40.6930554471909999847412109375</LatitudeDegrees>
              <LongitudeDegrees>24.729070253670215606689453125</LongitudeDegrees>
            </Position>
            <AltitudeMeters>376.79998779296875</AltitudeMeters>
            <DistanceMeters>9372.0722949941</DistanceMeters>
          </Trackpoint>
          <Trackpoint>
            <Time>2022-09-18T09:05:40.000Z</Time>
            <Position>
              <LatitudeDegrees>40.693046562373638153076171875</LatitudeDegrees>
              <LongitudeDegrees>24.72899682819843292236328125</LongitudeDegrees>
            </Position>
            <AltitudeMeters>375.79998779296875</AltitudeMeters>
            <DistanceMeters>9378.3476566069</DistanceMeters>
          </Trackpoint>
          <Trackpoint>
            <Time>2022-09-18T09:05:41.000Z</Time>
            <Position>
              <LatitudeDegrees>40.6930576264858245849609375</LatitudeDegrees>
              <LongitudeDegrees>24.7289782203733921051025390625</LongitudeDegrees>
            </Position>
            <AltitudeMeters>375.600006103515625</AltitudeMeters>
            <DistanceMeters>9380.3454788684</DistanceMeters>
          </Trackpoint>
          <Trackpoint>
            <Time>2022-09-18T09:05:42.000Z</Time>
            <Position>
              <LatitudeDegrees>40.6930681876838207244873046875</LatitudeDegrees>
              <LongitudeDegrees>24.72895215265452861785888671875</LongitudeDegrees>
            </Position>
            <AltitudeMeters>375.600006103515625</AltitudeMeters>
            <DistanceMeters>9382.8416264494</DistanceMeters>
          </Trackpoint>
          <Trackpoint>
            <Time>2022-09-18T09:05:43.000Z</Time>
            <Position>
              <LatitudeDegrees>40.69308000616729259490966796875</LatitudeDegrees>
              <LongitudeDegrees>24.72892700694501399993896484375</LongitudeDegrees>
            </Position>
            <AltitudeMeters>375.20001220703125</AltitudeMeters>
            <DistanceMeters>9385.3377740304</DistanceMeters>
          </Trackpoint>
          <Trackpoint>
            <Time>2022-09-18T09:05:45.000Z</Time>
            <Position>
              <LatitudeDegrees>40.693104565143585205078125</LatitudeDegrees>
              <LongitudeDegrees>24.72887336276471614837646484375</LongitudeDegrees>
            </Position>
            <AltitudeMeters>374.399993896484375</AltitudeMeters>
            <DistanceMeters>9390.6269305627</DistanceMeters>
          </Trackpoint>
          <Trackpoint>
            <Time>2022-09-18T09:05:46.000Z</Time>
            <Position>
              <LatitudeDegrees>40.69311269558966159820556640625</LatitudeDegrees>
              <LongitudeDegrees>24.728852994740009307861328125</LongitudeDegrees>
            </Position>
            <AltitudeMeters>374</AltitudeMeters>
            <DistanceMeters>9392.567430982</DistanceMeters>
          </Trackpoint>
          <Trackpoint>
            <Time>2022-09-18T09:05:48.000Z</Time>
            <Position>
              <LatitudeDegrees>40.69312870502471923828125</LatitudeDegrees>
              <LongitudeDegrees>24.72880966030061244964599609375</LongitudeDegrees>
            </Position>
            <AltitudeMeters>373.399993896484375</AltitudeMeters>
            <DistanceMeters>9396.6347519732</DistanceMeters>
          </Trackpoint>
          <Trackpoint>
            <Time>2022-09-18T09:05:50.000Z</Time>
            <Position>
              <LatitudeDegrees>40.6931506656110286712646484375</LatitudeDegrees>
              <LongitudeDegrees>24.728745706379413604736328125</LongitudeDegrees>
            </Position>
            <AltitudeMeters>372.399993896484375</AltitudeMeters>
            <DistanceMeters>9402.5600314783</DistanceMeters>
          </Trackpoint>
          <Trackpoint>
            <Time>2022-09-18T09:05:53.000Z</Time>
            <Position>
              <LatitudeDegrees>40.69317807443439960479736328125</LatitudeDegrees>
              <LongitudeDegrees>24.728676639497280120849609375</LongitudeDegrees>
            </Position>
            <AltitudeMeters>371</AltitudeMeters>
            <DistanceMeters>9409.1381867151</DistanceMeters>
          </Trackpoint>
          <Trackpoint>
            <Time>2022-09-18T09:05:54.000Z</Time>
            <Position>
              <LatitudeDegrees>40.69317991845309734344482421875</LatitudeDegrees>
              <LongitudeDegrees>24.72865878604352474212646484375</LongitudeDegrees>
            </Position>
            <AltitudeMeters>370.600006103515625</AltitudeMeters>
            <DistanceMeters>9410.6586141451</DistanceMeters>
          </Trackpoint>
          <Trackpoint>
            <Time>2022-09-18T09:05:56.000Z</Time>
            <Position>
              <LatitudeDegrees>40.69316265173256397247314453125</LatitudeDegrees>
              <LongitudeDegrees>24.72861989401280879974365234375</LongitudeDegrees>
            </Position>
            <AltitudeMeters>369.79998779296875</AltitudeMeters>
            <DistanceMeters>9414.4620576458</DistanceMeters>
          </Trackpoint>
          <Trackpoint>
            <Time>2022-09-18T09:05:57.000Z</Time>
            <Position>
              <LatitudeDegrees>40.693165920674800872802734375</LatitudeDegrees>
              <LongitudeDegrees>24.72859583795070648193359375</LongitudeDegrees>
            </Position>
            <AltitudeMeters>369.399993896484375</AltitudeMeters>
            <DistanceMeters>9416.5243781847</DistanceMeters>
          </Trackpoint>
          <Trackpoint>
            <Time>2022-09-18T09:05:58.000Z</Time>
            <Position>
              <LatitudeDegrees>40.69317170418798923492431640625</LatitudeDegrees>
              <LongitudeDegrees>24.7285737097263336181640625</LongitudeDegrees>
            </Position>
            <AltitudeMeters>369.20001220703125</AltitudeMeters>
            <DistanceMeters>9418.499471353</DistanceMeters>
          </Trackpoint>
          <Trackpoint>
            <Time>2022-09-18T09:05:59.000Z</Time>
            <Position>
              <LatitudeDegrees>40.69318964146077632904052734375</LatitudeDegrees>
              <LongitudeDegrees>24.72854747436940670013427734375</LongitudeDegrees>
            </Position>
            <AltitudeMeters>368.79998779296875</AltitudeMeters>
            <DistanceMeters>9421.4803429069</DistanceMeters>
          </Trackpoint>
          <Trackpoint>
            <Time>2022-09-18T09:06:01.000Z</Time>
            <Position>
              <LatitudeDegrees>40.6932006217539310455322265625</LatitudeDegrees>
              <LongitudeDegrees>24.72849659621715545654296875</LongitudeDegrees>
            </Position>
            <AltitudeMeters>368.399993896484375</AltitudeMeters>
            <DistanceMeters>9425.9435646845</DistanceMeters>
          </Trackpoint>
          <Trackpoint>
            <Time>2022-09-18T09:06:04.000Z</Time>
            <Position>
              <LatitudeDegrees>40.69319483824074268341064453125</LatitudeDegrees>
              <LongitudeDegrees>24.728430546820163726806640625</LongitudeDegrees>
            </Position>
            <AltitudeMeters>367.399993896484375</AltitudeMeters>
            <DistanceMeters>9431.5541659431</DistanceMeters>
          </Trackpoint>
          <Trackpoint>
            <Time>2022-09-18T09:06:08.000Z</Time>
            <Position>
              <LatitudeDegrees>40.6931932456791400909423828125</LatitudeDegrees>
              <LongitudeDegrees>24.728365503251552581787109375</LongitudeDegrees>
            </Position>
            <AltitudeMeters>366.20001220703125</AltitudeMeters>
            <DistanceMeters>9437.0460194848</DistanceMeters>
          </Trackpoint>
          <Trackpoint>
            <Time>2022-09-18T09:06:12.000Z</Time>
            <Position>
              <LatitudeDegrees>40.69320003502070903778076171875</LatitudeDegrees>
              <LongitudeDegrees>24.72829098813235759735107421875</LongitudeDegrees>
            </Position>
            <AltitudeMeters>365.600006103515625</AltitudeMeters>
            <DistanceMeters>9443.3793913801</DistanceMeters>
          </Trackpoint>
          <Trackpoint>
            <Time>2022-09-18T09:06:15.000Z</Time>
            <Position>
              <LatitudeDegrees>40.693206153810024261474609375</LatitudeDegrees>
              <LongitudeDegrees>24.7282721288502216339111328125</LongitudeDegrees>
            </Position>
            <AltitudeMeters>365.399993896484375</AltitudeMeters>
            <DistanceMeters>9445.1108605191</DistanceMeters>
          </Trackpoint>
          <Trackpoint>
            <Time>2022-09-18T09:06:17.000Z</Time>
            <Position>
              <LatitudeDegrees>40.693219564855098724365234375</LatitudeDegrees>
              <LongitudeDegrees>24.72826567478477954864501953125</LongitudeDegrees>
            </Position>
            <AltitudeMeters>365.20001220703125</AltitudeMeters>
            <DistanceMeters>9446.7009615864</DistanceMeters>
          </Trackpoint>
          <Trackpoint>
            <Time>2022-09-18T09:06:19.000Z</Time>
            <Position>
              <LatitudeDegrees>40.69325200282037258148193359375</LatitudeDegrees>
              <LongitudeDegrees>24.72824706695973873138427734375</LongitudeDegrees>
            </Position>
            <AltitudeMeters>364.79998779296875</AltitudeMeters>
            <DistanceMeters>9450.637408103</DistanceMeters>
          </Trackpoint>
          <Trackpoint>
            <Time>2022-09-18T09:06:21.000Z</Time>
            <Position>
              <LatitudeDegrees>40.69327563978731632232666015625</LatitudeDegrees>
              <LongitudeDegrees>24.72822166979312896728515625</LongitudeDegrees>
            </Position>
            <AltitudeMeters>364.20001220703125</AltitudeMeters>
            <DistanceMeters>9454.0305405003</DistanceMeters>
          </Trackpoint>
          <Trackpoint>
            <Time>2022-09-18T09:06:24.000Z</Time>
            <Position>
              <LatitudeDegrees>40.69331855513155460357666015625</LatitudeDegrees>
              <LongitudeDegrees>24.72818369977176189422607421875</LongitudeDegrees>
            </Position>
            <AltitudeMeters>364</AltitudeMeters>
            <DistanceMeters>9459.7818160123</DistanceMeters>
          </Trackpoint>
          <Trackpoint>
            <Time>2022-09-18T09:06:25.000Z</Time>
            <Position>
              <LatitudeDegrees>40.69332945160567760467529296875</LatitudeDegrees>
              <LongitudeDegrees>24.72817875444889068603515625</LongitudeDegrees>
            </Position>
            <AltitudeMeters>364</AltitudeMeters>
            <DistanceMeters>9461.0673135771</DistanceMeters>
          </Trackpoint>
          <Trackpoint>
            <Time>2022-09-18T09:06:26.000Z</Time>
            <Position>
              <LatitudeDegrees>40.69334101863205432891845703125</LatitudeDegrees>
              <LongitudeDegrees>24.72817062400281429290771484375</LongitudeDegrees>
            </Position>
            <AltitudeMeters>364.20001220703125</AltitudeMeters>
            <DistanceMeters>9462.5271416632</DistanceMeters>
          </Trackpoint>
          <Trackpoint>
            <Time>2022-09-18T09:06:28.000Z</Time>
            <Position>
              <LatitudeDegrees>40.69335191510617733001708984375</LatitudeDegrees>
              <LongitudeDegrees>24.728159643709659576416015625</LongitudeDegrees>
            </Position>
            <AltitudeMeters>364.20001220703125</AltitudeMeters>
            <DistanceMeters>9464.0534967079</DistanceMeters>
          </Trackpoint>
          <Trackpoint>
            <Time>2022-09-18T09:06:33.000Z</Time>
            <Position>
              <LatitudeDegrees>40.69341796450316905975341796875</LatitudeDegrees>
              <LongitudeDegrees>24.72812921740114688873291015625</LongitudeDegrees>
            </Position>
            <AltitudeMeters>363.600006103515625</AltitudeMeters>
            <DistanceMeters>9471.8398908184</DistanceMeters>
          </Trackpoint>
          <Trackpoint>
            <Time>2022-09-18T09:06:34.000Z</Time>
            <Position>
              <LatitudeDegrees>40.69343456067144870758056640625</LatitudeDegrees>
              <LongitudeDegrees>24.72812636755406856536865234375</LongitudeDegrees>
            </Position>
            <AltitudeMeters>363.399993896484375</AltitudeMeters>
            <DistanceMeters>9473.7020265155</DistanceMeters>
          </Trackpoint>
          <Trackpoint>
            <Time>2022-09-18T09:08:11.000Z</Time>
            <Position>
              <LatitudeDegrees>40.69362801499664783477783203125</LatitudeDegrees>
              <LongitudeDegrees>24.72815821878612041473388671875</LongitudeDegrees>
            </Position>
            <AltitudeMeters>360.20001220703125</AltitudeMeters>
            <DistanceMeters>9495.4010183341</DistanceMeters>
          </Trackpoint>
          <Trackpoint>
            <Time>2022-09-18T09:08:12.000Z</Time>
            <Position>
              <LatitudeDegrees>40.693644024431705474853515625</LatitudeDegrees>
              <LongitudeDegrees>24.728156961500644683837890625</LongitudeDegrees>
            </Position>
            <AltitudeMeters>360.20001220703125</AltitudeMeters>
            <DistanceMeters>9497.1838775288</DistanceMeters>
          </Trackpoint>
          <Trackpoint>
            <Time>2022-09-18T09:08:14.000Z</Time>
            <Position>
              <LatitudeDegrees>40.69368300028145313262939453125</LatitudeDegrees>
              <LongitudeDegrees>24.728156290948390960693359375</LongitudeDegrees>
            </Position>
            <AltitudeMeters>360</AltitudeMeters>
            <DistanceMeters>9501.5219277025</DistanceMeters>
          </Trackpoint>
          <Trackpoint>
            <Time>2022-09-18T09:08:17.000Z</Time>
            <Position>
              <LatitudeDegrees>40.6937427632510662078857421875</LatitudeDegrees>
              <LongitudeDegrees>24.72814698703587055206298828125</LongitudeDegrees>
            </Position>
            <AltitudeMeters>359.20001220703125</AltitudeMeters>
            <DistanceMeters>9508.2197945102</DistanceMeters>
          </Trackpoint>
          <Trackpoint>
            <Time>2022-09-18T09:08:18.000Z</Time>
            <Position>
              <LatitudeDegrees>40.69376799277961254119873046875</LatitudeDegrees>
              <LongitudeDegrees>24.72813910804688930511474609375</LongitudeDegrees>
            </Position>
            <AltitudeMeters>359</AltitudeMeters>
            <DistanceMeters>9511.1067930481</DistanceMeters>
          </Trackpoint>
          <Trackpoint>
            <Time>2022-09-18T09:08:21.000Z</Time>
            <Position>
              <LatitudeDegrees>40.69385533221065998077392578125</LatitudeDegrees>
              <LongitudeDegrees>24.72812318243086338043212890625</LongitudeDegrees>
            </Position>
            <AltitudeMeters>358.20001220703125</AltitudeMeters>
            <DistanceMeters>9520.9198830404</DistanceMeters>
          </Trackpoint>
          <Trackpoint>
            <Time>2022-09-18T09:08:22.000Z</Time>
            <Position>
              <LatitudeDegrees>40.6938922964036464691162109375</LatitudeDegrees>
              <LongitudeDegrees>24.728113710880279541015625</LongitudeDegrees>
            </Position>
            <AltitudeMeters>357.79998779296875</AltitudeMeters>
            <DistanceMeters>9525.1118430545</DistanceMeters>
          </Trackpoint>
          <Trackpoint>
            <Time>2022-09-18T09:08:23.000Z</Time>
            <Position>
              <LatitudeDegrees>40.69391819648444652557373046875</LatitudeDegrees>
              <LongitudeDegrees>24.728100299835205078125</LongitudeDegrees>
            </Position>
            <AltitudeMeters>357.399993896484375</AltitudeMeters>
            <DistanceMeters>9528.2086060716</DistanceMeters>
          </Trackpoint>
          <Trackpoint>
            <Time>2022-09-18T09:08:24.000Z</Time>
            <Position>
              <LatitudeDegrees>40.69394669495522975921630859375</LatitudeDegrees>
              <LongitudeDegrees>24.728093259036540985107421875</LongitudeDegrees>
            </Position>
            <AltitudeMeters>357</AltitudeMeters>
            <DistanceMeters>9531.4367182469</DistanceMeters>
          </Trackpoint>
          <Trackpoint>
            <Time>2022-09-18T09:08:27.000Z</Time>
            <Position>
              <LatitudeDegrees>40.694026909768581390380859375</LatitudeDegrees>
              <LongitudeDegrees>24.728096611797809600830078125</LongitudeDegrees>
            </Position>
            <AltitudeMeters>356</AltitudeMeters>
            <DistanceMeters>9540.3697348446</DistanceMeters>
          </Trackpoint>
          <Trackpoint>
            <Time>2022-09-18T09:08:28.000Z</Time>
            <Position>
              <LatitudeDegrees>40.694048367440700531005859375</LatitudeDegrees>
              <LongitudeDegrees>24.72810843028128147125244140625</LongitudeDegrees>
            </Position>
            <AltitudeMeters>355.20001220703125</AltitudeMeters>
            <DistanceMeters>9542.958231845</DistanceMeters>
          </Trackpoint>
          <Trackpoint>
            <Time>2022-09-18T09:08:29.000Z</Time>
            <Position>
              <LatitudeDegrees>40.69403990171849727630615234375</LatitudeDegrees>
              <LongitudeDegrees>24.7281262837350368499755859375</LongitudeDegrees>
            </Position>
            <AltitudeMeters>354.79998779296875</AltitudeMeters>
            <DistanceMeters>9544.7360188839</DistanceMeters>
          </Trackpoint>
          <Trackpoint>
            <Time>2022-09-18T09:08:32.000Z</Time>
            <Position>
              <LatitudeDegrees>40.69407158531248569488525390625</LatitudeDegrees>
              <LongitudeDegrees>24.72816668450832366943359375</LongitudeDegrees>
            </Position>
            <AltitudeMeters>353.79998779296875</AltitudeMeters>
            <DistanceMeters>9549.6407231203</DistanceMeters>
          </Trackpoint>
          <Trackpoint>
            <Time>2022-09-18T09:08:33.000Z</Time>
            <Position>
              <LatitudeDegrees>40.694086253643035888671875</LatitudeDegrees>
              <LongitudeDegrees>24.7281765751540660858154296875</LongitudeDegrees>
            </Position>
            <AltitudeMeters>353.20001220703125</AltitudeMeters>
            <DistanceMeters>9551.473532013</DistanceMeters>
          </Trackpoint>
          <Trackpoint>
            <Time>2022-09-18T09:08:34.000Z</Time>
            <Position>
              <LatitudeDegrees>40.69409823976457118988037109375</LatitudeDegrees>
              <LongitudeDegrees>24.72818872891366481781005859375</LongitudeDegrees>
            </Position>
            <AltitudeMeters>352.399993896484375</AltitudeMeters>
            <DistanceMeters>9553.1574096817</DistanceMeters>
          </Trackpoint>
          <Trackpoint>
            <Time>2022-09-18T09:08:36.000Z</Time>
            <Position>
              <LatitudeDegrees>40.69413042627274990081787109375</LatitudeDegrees>
              <LongitudeDegrees>24.72820431925356388092041015625</LongitudeDegrees>
            </Position>
            <AltitudeMeters>351.399993896484375</AltitudeMeters>
            <DistanceMeters>9556.9727056372</DistanceMeters>
          </Trackpoint>
          <Trackpoint>
            <Time>2022-09-18T09:08:38.000Z</Time>
            <Position>
              <LatitudeDegrees>40.6941484473645687103271484375</LatitudeDegrees>
              <LongitudeDegrees>24.7282040677964687347412109375</LongitudeDegrees>
            </Position>
            <AltitudeMeters>350.79998779296875</AltitudeMeters>
            <DistanceMeters>9558.9795474581</DistanceMeters>
          </Trackpoint>
          <Trackpoint>
            <Time>2022-09-18T09:08:40.000Z</Time>
            <Position>
              <LatitudeDegrees>40.69417543709278106689453125</LatitudeDegrees>
              <LongitudeDegrees>24.7281847894191741943359375</LongitudeDegrees>
            </Position>
            <AltitudeMeters>350.399993896484375</AltitudeMeters>
            <DistanceMeters>9562.3952258337</DistanceMeters>
          </Trackpoint>
          <Trackpoint>
            <Time>2022-09-18T09:08:41.000Z</Time>
            <Position>
              <LatitudeDegrees>40.6942084617912769317626953125</LatitudeDegrees>
              <LongitudeDegrees>24.72816668450832366943359375</LongitudeDegrees>
            </Position>
            <AltitudeMeters>350.399993896484375</AltitudeMeters>
            <DistanceMeters>9566.3750190548</DistanceMeters>
          </Trackpoint>
          <Trackpoint>
            <Time>2022-09-18T09:08:43.000Z</Time>
            <Position>
              <LatitudeDegrees>40.69427090696990489959716796875</LatitudeDegrees>
              <LongitudeDegrees>24.72812854684889316558837890625</LongitudeDegrees>
            </Position>
            <AltitudeMeters>349.20001220703125</AltitudeMeters>
            <DistanceMeters>9574.0339600116</DistanceMeters>
          </Trackpoint>
          <Trackpoint>
            <Time>2022-09-18T09:08:46.000Z</Time>
            <Position>
              <LatitudeDegrees>40.69433645345270633697509765625</LatitudeDegrees>
              <LongitudeDegrees>24.72809971310198307037353515625</LongitudeDegrees>
            </Position>
            <AltitudeMeters>348</AltitudeMeters>
            <DistanceMeters>9581.7246687376</DistanceMeters>
          </Trackpoint>
          <Trackpoint>
            <Time>2022-09-18T09:08:48.000Z</Time>
            <Position>
              <LatitudeDegrees>40.69440501742064952850341796875</LatitudeDegrees>
              <LongitudeDegrees>24.7280803509056568145751953125</LongitudeDegrees>
            </Position>
            <AltitudeMeters>347.399993896484375</AltitudeMeters>
            <DistanceMeters>9589.528439335</DistanceMeters>
          </Trackpoint>
          <Trackpoint>
            <Time>2022-09-18T09:08:50.000Z</Time>
            <Position>
              <LatitudeDegrees>40.6944719888269901275634765625</LatitudeDegrees>
              <LongitudeDegrees>24.7280595637857913970947265625</LongitudeDegrees>
            </Position>
            <AltitudeMeters>347</AltitudeMeters>
            <DistanceMeters>9597.1856115514</DistanceMeters>
          </Trackpoint>
          <Trackpoint>
            <Time>2022-09-18T09:08:54.000Z</Time>
            <Position>
              <LatitudeDegrees>40.6945596635341644287109375</LatitudeDegrees>
              <LongitudeDegrees>24.72802360542118549346923828125</LongitudeDegrees>
            </Position>
            <AltitudeMeters>346</AltitudeMeters>
            <DistanceMeters>9607.4052917886</DistanceMeters>
          </Trackpoint>
          <Trackpoint>
            <Time>2022-09-18T09:08:57.000Z</Time>
            <Position>
              <LatitudeDegrees>40.6946322508156299591064453125</LatitudeDegrees>
              <LongitudeDegrees>24.728011451661586761474609375</LongitudeDegrees>
            </Position>
            <AltitudeMeters>345.20001220703125</AltitudeMeters>
            <DistanceMeters>9615.5499183336</DistanceMeters>
          </Trackpoint>
          <Trackpoint>
            <Time>2022-09-18T09:08:58.000Z</Time>
            <Position>
              <LatitudeDegrees>40.6946590729057788848876953125</LatitudeDegrees>
              <LongitudeDegrees>24.7280096076428890228271484375</LongitudeDegrees>
            </Position>
            <AltitudeMeters>344.79998779296875</AltitudeMeters>
            <DistanceMeters>9618.5398640989</DistanceMeters>
          </Trackpoint>
          <Trackpoint>
            <Time>2022-09-18T09:09:02.000Z</Time>
            <Position>
              <LatitudeDegrees>40.694772563874721527099609375</LatitudeDegrees>
              <LongitudeDegrees>24.72802184522151947021484375</LongitudeDegrees>
            </Position>
            <AltitudeMeters>343.79998779296875</AltitudeMeters>
            <DistanceMeters>9631.2137348488</DistanceMeters>
          </Trackpoint>
          <Trackpoint>
            <Time>2022-09-18T09:09:05.000Z</Time>
            <Position>
              <LatitudeDegrees>40.69483567960560321807861328125</LatitudeDegrees>
              <LongitudeDegrees>24.72801974974572658538818359375</LongitudeDegrees>
            </Position>
            <AltitudeMeters>342.79998779296875</AltitudeMeters>
            <DistanceMeters>9638.2405732556</DistanceMeters>
          </Trackpoint>
          <Trackpoint>
            <Time>2022-09-18T09:09:06.000Z</Time>
            <Position>
              <LatitudeDegrees>40.69487138651311397552490234375</LatitudeDegrees>
              <LongitudeDegrees>24.7280293889343738555908203125</LongitudeDegrees>
            </Position>
            <AltitudeMeters>342.600006103515625</AltitudeMeters>
            <DistanceMeters>9642.29677829</DistanceMeters>
          </Trackpoint>
          <Trackpoint>
            <Time>2022-09-18T09:09:09.000Z</Time>
            <Position>
              <LatitudeDegrees>40.69494598545134067535400390625</LatitudeDegrees>
              <LongitudeDegrees>24.728030227124691009521484375</LongitudeDegrees>
            </Position>
            <AltitudeMeters>341.600006103515625</AltitudeMeters>
            <DistanceMeters>9650.6006125685</DistanceMeters>
          </Trackpoint>
          <Trackpoint>
            <Time>2022-09-18T09:09:12.000Z</Time>
            <Position>
              <LatitudeDegrees>40.6950292177498340606689453125</LatitudeDegrees>
              <LongitudeDegrees>24.72800969146192073822021484375</LongitudeDegrees>
            </Position>
            <AltitudeMeters>340.399993896484375</AltitudeMeters>
            <DistanceMeters>9660.0255190391</DistanceMeters>
          </Trackpoint>
          <Trackpoint>
            <Time>2022-09-18T09:09:14.000Z</Time>
            <Position>
              <LatitudeDegrees>40.6950523518025875091552734375</LatitudeDegrees>
              <LongitudeDegrees>24.7279827855527400970458984375</LongitudeDegrees>
            </Position>
            <AltitudeMeters>339.600006103515625</AltitudeMeters>
            <DistanceMeters>9663.4570230363</DistanceMeters>
          </Trackpoint>
          <Trackpoint>
            <Time>2022-09-18T09:09:15.000Z</Time>
            <Position>
              <LatitudeDegrees>40.69506785832345485687255859375</LatitudeDegrees>
              <LongitudeDegrees>24.727963507175445556640625</LongitudeDegrees>
            </Position>
            <AltitudeMeters>339</AltitudeMeters>
            <DistanceMeters>9665.8269824343</DistanceMeters>
          </Trackpoint>
          <Trackpoint>
            <Time>2022-09-18T09:09:18.000Z</Time>
            <Position>
              <LatitudeDegrees>40.6950800120830535888671875</LatitudeDegrees>
              <LongitudeDegrees>24.72790391184389591217041015625</LongitudeDegrees>
            </Position>
            <AltitudeMeters>337.79998779296875</AltitudeMeters>
            <DistanceMeters>9671.0352786661</DistanceMeters>
          </Trackpoint>
          <Trackpoint>
            <Time>2022-09-18T09:09:20.000Z</Time>
            <Position>
              <LatitudeDegrees>40.69507942534983158111572265625</LatitudeDegrees>
              <LongitudeDegrees>24.72785680554807186126708984375</LongitudeDegrees>
            </Position>
            <AltitudeMeters>337.399993896484375</AltitudeMeters>
            <DistanceMeters>9675.0105313344</DistanceMeters>
          </Trackpoint>
          <Trackpoint>
            <Time>2022-09-18T09:09:23.000Z</Time>
            <Position>
              <LatitudeDegrees>40.695085711777210235595703125</LatitudeDegrees>
              <LongitudeDegrees>24.7277775965631008148193359375</LongitudeDegrees>
            </Position>
            <AltitudeMeters>336.79998779296875</AltitudeMeters>
            <DistanceMeters>9681.7312784932</DistanceMeters>
          </Trackpoint>
          <Trackpoint>
            <Time>2022-09-18T09:09:28.000Z</Time>
            <Position>
              <LatitudeDegrees>40.6951230950653553009033203125</LatitudeDegrees>
              <LongitudeDegrees>24.727636612951755523681640625</LongitudeDegrees>
            </Position>
            <AltitudeMeters>336.20001220703125</AltitudeMeters>
            <DistanceMeters>9694.3351312693</DistanceMeters>
          </Trackpoint>
          <Trackpoint>
            <Time>2022-09-18T09:09:34.000Z</Time>
            <Position>
              <LatitudeDegrees>40.695175230503082275390625</LatitudeDegrees>
              <LongitudeDegrees>24.7275090403854846954345703125</LongitudeDegrees>
            </Position>
            <AltitudeMeters>336.600006103515625</AltitudeMeters>
            <DistanceMeters>9706.5651838537</DistanceMeters>
          </Trackpoint>
          <Trackpoint>
            <Time>2022-09-18T09:09:38.000Z</Time>
            <Position>
              <LatitudeDegrees>40.69524588994681835174560546875</LatitudeDegrees>
              <LongitudeDegrees>24.72746687941253185272216796875</LongitudeDegrees>
            </Position>
            <AltitudeMeters>336.79998779296875</AltitudeMeters>
            <DistanceMeters>9715.1964138161</DistanceMeters>
          </Trackpoint>
          <Trackpoint>
            <Time>2022-09-18T09:09:39.000Z</Time>
            <Position>
              <LatitudeDegrees>40.6952608935534954071044921875</LatitudeDegrees>
              <LongitudeDegrees>24.727466963231563568115234375</LongitudeDegrees>
            </Position>
            <AltitudeMeters>337</AltitudeMeters>
            <DistanceMeters>9716.8668310158</DistanceMeters>
          </Trackpoint>
          <Trackpoint>
            <Time>2022-09-18T09:09:44.000Z</Time>
            <Position>
              <LatitudeDegrees>40.695394836366176605224609375</LatitudeDegrees>
              <LongitudeDegrees>24.72746067680418491363525390625</LongitudeDegrees>
            </Position>
            <AltitudeMeters>337.20001220703125</AltitudeMeters>
            <DistanceMeters>9731.7845119309</DistanceMeters>
          </Trackpoint>
          <Trackpoint>
            <Time>2022-09-18T09:09:45.000Z</Time>
            <Position>
              <LatitudeDegrees>40.6954178027808666229248046875</LatitudeDegrees>
              <LongitudeDegrees>24.7274647839367389678955078125</LongitudeDegrees>
            </Position>
            <AltitudeMeters>337</AltitudeMeters>
            <DistanceMeters>9734.3642728383</DistanceMeters>
          </Trackpoint>
          <Trackpoint>
            <Time>2022-09-18T09:09:50.000Z</Time>
            <Position>
              <LatitudeDegrees>40.69553188048303127288818359375</LatitudeDegrees>
              <LongitudeDegrees>24.72752102650701999664306640625</LongitudeDegrees>
            </Position>
            <AltitudeMeters>335.600006103515625</AltitudeMeters>
            <DistanceMeters>9747.9194930682</DistanceMeters>
          </Trackpoint>
          <Trackpoint>
            <Time>2022-09-18T09:09:52.000Z</Time>
            <Position>
              <LatitudeDegrees>40.69555685855448246002197265625</LatitudeDegrees>
              <LongitudeDegrees>24.72754265181720256805419921875</LongitudeDegrees>
            </Position>
            <AltitudeMeters>335.600006103515625</AltitudeMeters>
            <DistanceMeters>9751.2440702695</DistanceMeters>
          </Trackpoint>
          <Trackpoint>
            <Time>2022-09-18T09:09:56.000Z</Time>
            <Position>
              <LatitudeDegrees>40.69558217190206050872802734375</LatitudeDegrees>
              <LongitudeDegrees>24.7275610081851482391357421875</LongitudeDegrees>
            </Position>
            <AltitudeMeters>336.600006103515625</AltitudeMeters>
            <DistanceMeters>9754.4595698463</DistanceMeters>
          </Trackpoint>
          <Trackpoint>
            <Time>2022-09-18T09:10:00.000Z</Time>
            <Position>
              <LatitudeDegrees>40.69555702619254589080810546875</LatitudeDegrees>
              <LongitudeDegrees>24.72755120135843753814697265625</LongitudeDegrees>
            </Position>
            <AltitudeMeters>336.600006103515625</AltitudeMeters>
            <DistanceMeters>9757.3792260184</DistanceMeters>
          </Trackpoint>
          <Trackpoint>
            <Time>2022-09-18T09:10:04.000Z</Time>
            <Position>
              <LatitudeDegrees>40.695591978728771209716796875</LatitudeDegrees>
              <LongitudeDegrees>24.72752354107797145843505859375</LongitudeDegrees>
            </Position>
            <AltitudeMeters>336.600006103515625</AltitudeMeters>
            <DistanceMeters>9761.9166894389</DistanceMeters>
          </Trackpoint>
          <Trackpoint>
            <Time>2022-09-18T09:10:06.000Z</Time>
            <Position>
              <LatitudeDegrees>40.69562626071274280548095703125</LatitudeDegrees>
              <LongitudeDegrees>24.7275013290345668792724609375</LongitudeDegrees>
            </Position>
            <AltitudeMeters>337</AltitudeMeters>
            <DistanceMeters>9766.16853763</DistanceMeters>
          </Trackpoint>
          <Trackpoint>
            <Time>2022-09-18T09:10:10.000Z</Time>
            <Position>
              <LatitudeDegrees>40.6956727802753448486328125</LatitudeDegrees>
              <LongitudeDegrees>24.72744123078882694244384765625</LongitudeDegrees>
            </Position>
            <AltitudeMeters>337.600006103515625</AltitudeMeters>
            <DistanceMeters>9773.4155318068</DistanceMeters>
          </Trackpoint>
          <Trackpoint>
            <Time>2022-09-18T09:10:11.000Z</Time>
            <Position>
              <LatitudeDegrees>40.695680491626262664794921875</LatitudeDegrees>
              <LongitudeDegrees>24.72742061130702495574951171875</LongitudeDegrees>
            </Position>
            <AltitudeMeters>337.79998779296875</AltitudeMeters>
            <DistanceMeters>9775.3537040903</DistanceMeters>
          </Trackpoint>
          <Trackpoint>
            <Time>2022-09-18T09:10:14.000Z</Time>
            <Position>
              <LatitudeDegrees>40.69569901563227176666259765625</LatitudeDegrees>
              <LongitudeDegrees>24.72736897878348827362060546875</LongitudeDegrees>
            </Position>
            <AltitudeMeters>338.600006103515625</AltitudeMeters>
            <DistanceMeters>9780.1739101741</DistanceMeters>
          </Trackpoint>
          <Trackpoint>
            <Time>2022-09-18T09:10:15.000Z</Time>
            <Position>
              <LatitudeDegrees>40.69571292959153652191162109375</LatitudeDegrees>
              <LongitudeDegrees>24.72735288552939891815185546875</LongitudeDegrees>
            </Position>
            <AltitudeMeters>339.20001220703125</AltitudeMeters>
            <DistanceMeters>9782.2318474551</DistanceMeters>
          </Trackpoint>
          <Trackpoint>
            <Time>2022-09-18T09:10:18.000Z</Time>
            <Position>
              <LatitudeDegrees>40.69575416855514049530029296875</LatitudeDegrees>
              <LongitudeDegrees>24.7272951342165470123291015625</LongitudeDegrees>
            </Position>
            <AltitudeMeters>340.399993896484375</AltitudeMeters>
            <DistanceMeters>9788.9263429096</DistanceMeters>
          </Trackpoint>
          <Trackpoint>
            <Time>2022-09-18T09:10:20.000Z</Time>
            <Position>
              <LatitudeDegrees>40.69580244831740856170654296875</LatitudeDegrees>
              <LongitudeDegrees>24.72725867293775081634521484375</LongitudeDegrees>
            </Position>
            <AltitudeMeters>340.600006103515625</AltitudeMeters>
            <DistanceMeters>9795.1184107856</DistanceMeters>
          </Trackpoint>
          <Trackpoint>
            <Time>2022-09-18T09:10:21.000Z</Time>
            <Position>
              <LatitudeDegrees>40.695825330913066864013671875</LatitudeDegrees>
              <LongitudeDegrees>24.7272344492375850677490234375</LongitudeDegrees>
            </Position>
            <AltitudeMeters>340.600006103515625</AltitudeMeters>
            <DistanceMeters>9798.3840684959</DistanceMeters>
          </Trackpoint>
          <Trackpoint>
            <Time>2022-09-18T09:10:27.000Z</Time>
            <Position>
              <LatitudeDegrees>40.695931278169155120849609375</LatitudeDegrees>
              <LongitudeDegrees>24.7271214611828327178955078125</LongitudeDegrees>
            </Position>
            <AltitudeMeters>340.79998779296875</AltitudeMeters>
            <DistanceMeters>9813.5490936153</DistanceMeters>
          </Trackpoint>
          <Trackpoint>
            <Time>2022-09-18T09:10:28.000Z</Time>
            <Position>
              <LatitudeDegrees>40.69594544358551502227783203125</LatitudeDegrees>
              <LongitudeDegrees>24.727114252746105194091796875</LongitudeDegrees>
            </Position>
            <AltitudeMeters>341</AltitudeMeters>
            <DistanceMeters>9815.2409961636</DistanceMeters>
          </Trackpoint>
          <Trackpoint>
            <Time>2022-09-18T09:10:31.000Z</Time>
            <Position>
              <LatitudeDegrees>40.69598500616848468780517578125</LatitudeDegrees>
              <LongitudeDegrees>24.72709438763558864593505859375</LongitudeDegrees>
            </Position>
            <AltitudeMeters>341</AltitudeMeters>
            <DistanceMeters>9819.9532098658</DistanceMeters>
          </Trackpoint>
          <Trackpoint>
            <Time>2022-09-18T09:10:34.000Z</Time>
            <Position>
              <LatitudeDegrees>40.69605323486030101776123046875</LatitudeDegrees>
              <LongitudeDegrees>24.72705465741455554962158203125</LongitudeDegrees>
            </Position>
            <AltitudeMeters>340.399993896484375</AltitudeMeters>
            <DistanceMeters>9828.2543250526</DistanceMeters>
          </Trackpoint>
          <Trackpoint>
            <Time>2022-09-18T09:10:36.000Z</Time>
            <Position>
              <LatitudeDegrees>40.6960940547287464141845703125</LatitudeDegrees>
              <LongitudeDegrees>24.7270329482853412628173828125</LongitudeDegrees>
            </Position>
            <AltitudeMeters>340.20001220703125</AltitudeMeters>
            <DistanceMeters>9833.1535028599</DistanceMeters>
          </Trackpoint>
          <Trackpoint>
            <Time>2022-09-18T09:10:40.000Z</Time>
            <Position>
              <LatitudeDegrees>40.696183405816555023193359375</LatitudeDegrees>
              <LongitudeDegrees>24.7270007617771625518798828125</LongitudeDegrees>
            </Position>
            <AltitudeMeters>341.600006103515625</AltitudeMeters>
            <DistanceMeters>9843.462916022</DistanceMeters>
          </Trackpoint>
          <Trackpoint>
            <Time>2022-09-18T09:10:43.000Z</Time>
            <Position>
              <LatitudeDegrees>40.696203522384166717529296875</LatitudeDegrees>
              <LongitudeDegrees>24.72701325081288814544677734375</LongitudeDegrees>
            </Position>
            <AltitudeMeters>342.399993896484375</AltitudeMeters>
            <DistanceMeters>9845.9372627699</DistanceMeters>
          </Trackpoint>
          <Trackpoint>
            <Time>2022-09-18T09:10:44.000Z</Time>
            <Position>
              <LatitudeDegrees>40.69621919654309749603271484375</LatitudeDegrees>
              <LongitudeDegrees>24.72701190970838069915771484375</LongitudeDegrees>
            </Position>
            <AltitudeMeters>342.600006103515625</AltitudeMeters>
            <DistanceMeters>9847.6843076571</DistanceMeters>
          </Trackpoint>
          <Trackpoint>
            <Time>2022-09-18T09:10:49.000Z</Time>
            <Position>
              <LatitudeDegrees>40.69635431282222270965576171875</LatitudeDegrees>
              <LongitudeDegrees>24.72698424942791461944580078125</LongitudeDegrees>
            </Position>
            <AltitudeMeters>344</AltitudeMeters>
            <DistanceMeters>9862.9034226376</DistanceMeters>
          </Trackpoint>
          <Trackpoint>
            <Time>2022-09-18T09:10:50.000Z</Time>
            <Position>
              <LatitudeDegrees>40.69637945853173732757568359375</LatitudeDegrees>
              <LongitudeDegrees>24.7269796393811702728271484375</LongitudeDegrees>
            </Position>
            <AltitudeMeters>344.20001220703125</AltitudeMeters>
            <DistanceMeters>9865.7287699749</DistanceMeters>
          </Trackpoint>
          <Trackpoint>
            <Time>2022-09-18T09:10:52.000Z</Time>
            <Position>
              <LatitudeDegrees>40.69645154289901256561279296875</LatitudeDegrees>
              <LongitudeDegrees>24.72696966491639614105224609375</LongitudeDegrees>
            </Position>
            <AltitudeMeters>345</AltitudeMeters>
            <DistanceMeters>9873.7954130719</DistanceMeters>
          </Trackpoint>
          <Trackpoint>
            <Time>2022-09-18T09:10:56.000Z</Time>
            <Position>
              <LatitudeDegrees>40.69655313156545162200927734375</LatitudeDegrees>
              <LongitudeDegrees>24.72695156000554561614990234375</LongitudeDegrees>
            </Position>
            <AltitudeMeters>345.79998779296875</AltitudeMeters>
            <DistanceMeters>9885.2057435741</DistanceMeters>
          </Trackpoint>
          <Trackpoint>
            <Time>2022-09-18T09:10:57.000Z</Time>
            <Position>
              <LatitudeDegrees>40.69657257758080959320068359375</LatitudeDegrees>
              <LongitudeDegrees>24.7269477881491184234619140625</LongitudeDegrees>
            </Position>
            <AltitudeMeters>346</AltitudeMeters>
            <DistanceMeters>9887.3892912293</DistanceMeters>
          </Trackpoint>
          <Trackpoint>
            <Time>2022-09-18T09:10:59.000Z</Time>
            <Position>
              <LatitudeDegrees>40.69660954177379608154296875</LatitudeDegrees>
              <LongitudeDegrees>24.7269263304769992828369140625</LongitudeDegrees>
            </Position>
            <AltitudeMeters>346.20001220703125</AltitudeMeters>
            <DistanceMeters>9891.8837635014</DistanceMeters>
          </Trackpoint>
          <Trackpoint>
            <Time>2022-09-18T09:11:04.000Z</Time>
            <Position>
              <LatitudeDegrees>40.69668137468397617340087890625</LatitudeDegrees>
              <LongitudeDegrees>24.726866148412227630615234375</LongitudeDegrees>
            </Position>
            <AltitudeMeters>347</AltitudeMeters>
            <DistanceMeters>9901.3550242092</DistanceMeters>
          </Trackpoint>
          <Trackpoint>
            <Time>2022-09-18T09:11:07.000Z</Time>
            <Position>
              <LatitudeDegrees>40.69670987315475940704345703125</LatitudeDegrees>
              <LongitudeDegrees>24.7268153540790081024169921875</LongitudeDegrees>
            </Position>
            <AltitudeMeters>347.399993896484375</AltitudeMeters>
            <DistanceMeters>9906.6866919263</DistanceMeters>
          </Trackpoint>
          <Trackpoint>
            <Time>2022-09-18T09:11:11.000Z</Time>
            <Position>
              <LatitudeDegrees>40.6967089511454105377197265625</LatitudeDegrees>
              <LongitudeDegrees>24.72673681564629077911376953125</LongitudeDegrees>
            </Position>
            <AltitudeMeters>347.600006103515625</AltitudeMeters>
            <DistanceMeters>9913.3154438432</DistanceMeters>
          </Trackpoint>
          <Trackpoint>
            <Time>2022-09-18T09:11:15.000Z</Time>
            <Position>
              <LatitudeDegrees>40.69671875797212123870849609375</LatitudeDegrees>
              <LongitudeDegrees>24.72665785811841487884521484375</LongitudeDegrees>
            </Position>
            <AltitudeMeters>347</AltitudeMeters>
            <DistanceMeters>9920.0670233539</DistanceMeters>
          </Trackpoint>
          <Trackpoint>
            <Time>2022-09-18T09:11:18.000Z</Time>
            <Position>
              <LatitudeDegrees>40.6967756710946559906005859375</LatitudeDegrees>
              <LongitudeDegrees>24.72660236991941928863525390625</LongitudeDegrees>
            </Position>
            <AltitudeMeters>346.600006103515625</AltitudeMeters>
            <DistanceMeters>9927.944502984</DistanceMeters>
          </Trackpoint>
          <Trackpoint>
            <Time>2022-09-18T09:11:21.000Z</Time>
            <Position>
              <LatitudeDegrees>40.6968410499393939971923828125</LatitudeDegrees>
              <LongitudeDegrees>24.72656180150806903839111328125</LongitudeDegrees>
            </Position>
            <AltitudeMeters>347</AltitudeMeters>
            <DistanceMeters>9935.9864808186</DistanceMeters>
          </Trackpoint>
          <Trackpoint>
            <Time>2022-09-18T09:11:27.000Z</Time>
            <Position>
              <LatitudeDegrees>40.6970314867794513702392578125</LatitudeDegrees>
              <LongitudeDegrees>24.7264636494219303131103515625</LongitudeDegrees>
            </Position>
            <AltitudeMeters>348</AltitudeMeters>
            <DistanceMeters>9958.7433453667</DistanceMeters>
          </Trackpoint>
          <Trackpoint>
            <Time>2022-09-18T09:11:28.000Z</Time>
            <Position>
              <LatitudeDegrees>40.6970676966011524200439453125</LatitudeDegrees>
              <LongitudeDegrees>24.726434312760829925537109375</LongitudeDegrees>
            </Position>
            <AltitudeMeters>348.20001220703125</AltitudeMeters>
            <DistanceMeters>9963.4737290116</DistanceMeters>
          </Trackpoint>
          <Trackpoint>
            <Time>2022-09-18T09:11:29.000Z</Time>
            <Position>
              <LatitudeDegrees>40.69709108211100101470947265625</LatitudeDegrees>
              <LongitudeDegrees>24.72640807740390300750732421875</LongitudeDegrees>
            </Position>
            <AltitudeMeters>348.399993896484375</AltitudeMeters>
            <DistanceMeters>9966.8894073872</DistanceMeters>
          </Trackpoint>
          <Trackpoint>
            <Time>2022-09-18T09:11:35.000Z</Time>
            <Position>
              <LatitudeDegrees>40.69717959500849246978759765625</LatitudeDegrees>
              <LongitudeDegrees>24.7262557782232761383056640625</LongitudeDegrees>
            </Position>
            <AltitudeMeters>348.79998779296875</AltitudeMeters>
            <DistanceMeters>9983.0827513858</DistanceMeters>
          </Trackpoint>
          <Trackpoint>
            <Time>2022-09-18T09:11:40.000Z</Time>
            <Position>
              <LatitudeDegrees>40.697303898632526397705078125</LatitudeDegrees>
              <LongitudeDegrees>24.7261624038219451904296875</LongitudeDegrees>
            </Position>
            <AltitudeMeters>349.20001220703125</AltitudeMeters>
            <DistanceMeters>9999.0044766696</DistanceMeters>
          </Trackpoint>
          <Trackpoint>
            <Time>2022-09-18T09:11:41.000Z</Time>
            <Position>
              <LatitudeDegrees>40.6973228417336940765380859375</LatitudeDegrees>
              <LongitudeDegrees>24.7261444665491580963134765625</LongitudeDegrees>
            </Position>
            <AltitudeMeters>349.20001220703125</AltitudeMeters>
            <DistanceMeters>10001.599941373</DistanceMeters>
          </Trackpoint>
          <Trackpoint>
            <Time>2022-09-18T09:11:47.000Z</Time>
            <Position>
              <LatitudeDegrees>40.69744597189128398895263671875</LatitudeDegrees>
              <LongitudeDegrees>24.7260122001171112060546875</LongitudeDegrees>
            </Position>
            <AltitudeMeters>350</AltitudeMeters>
            <DistanceMeters>10019.274910246</DistanceMeters>
          </Trackpoint>
          <Trackpoint>
            <Time>2022-09-18T09:11:50.000Z</Time>
            <Position>
              <LatitudeDegrees>40.69749961607158184051513671875</LatitudeDegrees>
              <LongitudeDegrees>24.7259536944329738616943359375</LongitudeDegrees>
            </Position>
            <AltitudeMeters>350</AltitudeMeters>
            <DistanceMeters>10027.021773356</DistanceMeters>
          </Trackpoint>
          <Trackpoint>
            <Time>2022-09-18T09:11:51.000Z</Time>
            <Position>
              <LatitudeDegrees>40.69751872681081295013427734375</LatitudeDegrees>
              <LongitudeDegrees>24.725933410227298736572265625</LongitudeDegrees>
            </Position>
            <AltitudeMeters>349.79998779296875</AltitudeMeters>
            <DistanceMeters>10029.749553221</DistanceMeters>
          </Trackpoint>
          <Trackpoint>
            <Time>2022-09-18T09:11:57.000Z</Time>
            <Position>
              <LatitudeDegrees>40.6975592114031314849853515625</LatitudeDegrees>
              <LongitudeDegrees>24.7257976233959197998046875</LongitudeDegrees>
            </Position>
            <AltitudeMeters>348.399993896484375</AltitudeMeters>
            <DistanceMeters>10042.061656748</DistanceMeters>
          </Trackpoint>
          <Trackpoint>
            <Time>2022-09-18T09:11:58.000Z</Time>
            <Position>
              <LatitudeDegrees>40.6975771486759185791015625</LatitudeDegrees>
              <LongitudeDegrees>24.725761748850345611572265625</LongitudeDegrees>
            </Position>
            <AltitudeMeters>348.20001220703125</AltitudeMeters>
            <DistanceMeters>10045.687645069</DistanceMeters>
          </Trackpoint>
          <Trackpoint>
            <Time>2022-09-18T09:11:59.000Z</Time>
            <Position>
              <LatitudeDegrees>40.69758343510329723358154296875</LatitudeDegrees>
              <LongitudeDegrees>24.72573819570243358612060546875</LongitudeDegrees>
            </Position>
            <AltitudeMeters>348.20001220703125</AltitudeMeters>
            <DistanceMeters>10047.79115106</DistanceMeters>
          </Trackpoint>
          <Trackpoint>
            <Time>2022-09-18T09:12:05.000Z</Time>
            <Position>
              <LatitudeDegrees>40.69760807789862155914306640625</LatitudeDegrees>
              <LongitudeDegrees>24.72560995258390903472900390625</LongitudeDegrees>
            </Position>
            <AltitudeMeters>347.600006103515625</AltitudeMeters>
            <DistanceMeters>10058.955071298</DistanceMeters>
          </Trackpoint>
          <Trackpoint>
            <Time>2022-09-18T09:12:06.000Z</Time>
            <Position>
              <LatitudeDegrees>40.697601623833179473876953125</LatitudeDegrees>
              <LongitudeDegrees>24.7255835495889186859130859375</LongitudeDegrees>
            </Position>
            <AltitudeMeters>347.20001220703125</AltitudeMeters>
            <DistanceMeters>10061.298207333</DistanceMeters>
          </Trackpoint>
          <Trackpoint>
            <Time>2022-09-18T09:12:07.000Z</Time>
            <Position>
              <LatitudeDegrees>40.69758226163685321807861328125</LatitudeDegrees>
              <LongitudeDegrees>24.72554926760494709014892578125</LongitudeDegrees>
            </Position>
            <AltitudeMeters>346.600006103515625</AltitudeMeters>
            <DistanceMeters>10064.90672091</DistanceMeters>
          </Trackpoint>
          <Trackpoint>
            <Time>2022-09-18T09:12:09.000Z</Time>
            <Position>
              <LatitudeDegrees>40.69758477620780467987060546875</LatitudeDegrees>
              <LongitudeDegrees>24.72548992373049259185791015625</LongitudeDegrees>
            </Position>
            <AltitudeMeters>345.79998779296875</AltitudeMeters>
            <DistanceMeters>10069.922475387</DistanceMeters>
          </Trackpoint>
          <Trackpoint>
            <Time>2022-09-18T09:12:12.000Z</Time>
            <Position>
              <LatitudeDegrees>40.69759885780513286590576171875</LatitudeDegrees>
              <LongitudeDegrees>24.7253964655101299285888671875</LongitudeDegrees>
            </Position>
            <AltitudeMeters>345</AltitudeMeters>
            <DistanceMeters>10077.963330275</DistanceMeters>
          </Trackpoint>
          <Trackpoint>
            <Time>2022-09-18T09:12:15.000Z</Time>
            <Position>
              <LatitudeDegrees>40.69763414561748504638671875</LatitudeDegrees>
              <LongitudeDegrees>24.72531205974519252777099609375</LongitudeDegrees>
            </Position>
            <AltitudeMeters>345.20001220703125</AltitudeMeters>
            <DistanceMeters>10086.096862105</DistanceMeters>
          </Trackpoint>
          <Trackpoint>
            <Time>2022-09-18T09:12:21.000Z</Time>
            <Position>
              <LatitudeDegrees>40.69759584031999111175537109375</LatitudeDegrees>
              <LongitudeDegrees>24.725136458873748779296875</LongitudeDegrees>
            </Position>
            <AltitudeMeters>344.79998779296875</AltitudeMeters>
            <DistanceMeters>10101.515806706</DistanceMeters>
          </Trackpoint>
          <Trackpoint>
            <Time>2022-09-18T09:12:23.000Z</Time>
            <Position>
              <LatitudeDegrees>40.69760036654770374298095703125</LatitudeDegrees>
              <LongitudeDegrees>24.725085832178592681884765625</LongitudeDegrees>
            </Position>
            <AltitudeMeters>344.79998779296875</AltitudeMeters>
            <DistanceMeters>10105.817274669</DistanceMeters>
          </Trackpoint>
          <Trackpoint>
            <Time>2022-09-18T09:12:25.000Z</Time>
            <Position>
              <LatitudeDegrees>40.69760992191731929779052734375</LatitudeDegrees>
              <LongitudeDegrees>24.72502891905605792999267578125</LongitudeDegrees>
            </Position>
            <AltitudeMeters>344.600006103515625</AltitudeMeters>
            <DistanceMeters>10110.735767812</DistanceMeters>
          </Trackpoint>
          <Trackpoint>
            <Time>2022-09-18T09:12:26.000Z</Time>
            <Position>
              <LatitudeDegrees>40.6976071558892726898193359375</LatitudeDegrees>
              <LongitudeDegrees>24.7250035218894481658935546875</LongitudeDegrees>
            </Position>
            <AltitudeMeters>344.79998779296875</AltitudeMeters>
            <DistanceMeters>10112.902710301</DistanceMeters>
          </Trackpoint>
          <Trackpoint>
            <Time>2022-09-18T09:12:29.000Z</Time>
            <Position>
              <LatitudeDegrees>40.6976219080388545989990234375</LatitudeDegrees>
              <LongitudeDegrees>24.724900424480438232421875</LongitudeDegrees>
            </Position>
            <AltitudeMeters>345.79998779296875</AltitudeMeters>
            <DistanceMeters>10121.756018357</DistanceMeters>
          </Trackpoint>
          <Trackpoint>
            <Time>2022-09-18T09:12:32.000Z</Time>
            <Position>
              <LatitudeDegrees>40.6976098380982875823974609375</LatitudeDegrees>
              <LongitudeDegrees>24.7248107381165027618408203125</LongitudeDegrees>
            </Position>
            <AltitudeMeters>346.399993896484375</AltitudeMeters>
            <DistanceMeters>10129.442029032</DistanceMeters>
          </Trackpoint>
          <Trackpoint>
            <Time>2022-09-18T09:12:36.000Z</Time>
            <Position>
              <LatitudeDegrees>40.6976390071213245391845703125</LatitudeDegrees>
              <LongitudeDegrees>24.7246662341058254241943359375</LongitudeDegrees>
            </Position>
            <AltitudeMeters>345.399993896484375</AltitudeMeters>
            <DistanceMeters>10142.060918365</DistanceMeters>
          </Trackpoint>
          <Trackpoint>
            <Time>2022-09-18T09:12:39.000Z</Time>
            <Position>
              <LatitudeDegrees>40.69764227606356143951416015625</LatitudeDegrees>
              <LongitudeDegrees>24.72457629628479480743408203125</LongitudeDegrees>
            </Position>
            <AltitudeMeters>344.79998779296875</AltitudeMeters>
            <DistanceMeters>10149.658896959</DistanceMeters>
          </Trackpoint>
          <Trackpoint>
            <Time>2022-09-18T09:12:40.000Z</Time>
            <Position>
              <LatitudeDegrees>40.69762668572366237640380859375</LatitudeDegrees>
              <LongitudeDegrees>24.7245492227375507354736328125</LongitudeDegrees>
            </Position>
            <AltitudeMeters>345.20001220703125</AltitudeMeters>
            <DistanceMeters>10152.5286408</DistanceMeters>
          </Trackpoint>
          <Trackpoint>
            <Time>2022-09-18T09:12:42.000Z</Time>
            <Position>
              <LatitudeDegrees>40.69762601517140865325927734375</LatitudeDegrees>
              <LongitudeDegrees>24.72450806759297847747802734375</LongitudeDegrees>
            </Position>
            <AltitudeMeters>345.79998779296875</AltitudeMeters>
            <DistanceMeters>10156.001993954</DistanceMeters>
          </Trackpoint>
          <Trackpoint>
            <Time>2022-09-18T09:12:43.000Z</Time>
            <Position>
              <LatitudeDegrees>40.69762534461915493011474609375</LatitudeDegrees>
              <LongitudeDegrees>24.72448962740600109100341796875</LongitudeDegrees>
            </Position>
            <AltitudeMeters>345.79998779296875</AltitudeMeters>
            <DistanceMeters>10157.560547951</DistanceMeters>
          </Trackpoint>
          <Trackpoint>
            <Time>2022-09-18T09:12:44.000Z</Time>
            <Position>
              <LatitudeDegrees>40.69764680229127407073974609375</LatitudeDegrees>
              <LongitudeDegrees>24.7244540043175220489501953125</LongitudeDegrees>
            </Position>
            <AltitudeMeters>346</AltitudeMeters>
            <DistanceMeters>10161.399439036</DistanceMeters>
          </Trackpoint>
          <Trackpoint>
            <Time>2022-09-18T09:12:46.000Z</Time>
            <Position>
              <LatitudeDegrees>40.6976638175547122955322265625</LatitudeDegrees>
              <LongitudeDegrees>24.72440027631819248199462890625</LongitudeDegrees>
            </Position>
            <AltitudeMeters>345.79998779296875</AltitudeMeters>
            <DistanceMeters>10166.311502172</DistanceMeters>
          </Trackpoint>
          <Trackpoint>
            <Time>2022-09-18T09:12:50.000Z</Time>
            <Position>
              <LatitudeDegrees>40.6977080740034580230712890625</LatitudeDegrees>
              <LongitudeDegrees>24.72432869486510753631591796875</LongitudeDegrees>
            </Position>
            <AltitudeMeters>345.399993896484375</AltitudeMeters>
            <DistanceMeters>10174.106010131</DistanceMeters>
          </Trackpoint>
          <Trackpoint>
            <Time>2022-09-18T09:12:51.000Z</Time>
            <Position>
              <LatitudeDegrees>40.6977110914885997772216796875</LatitudeDegrees>
              <LongitudeDegrees>24.7243198938667774200439453125</LongitudeDegrees>
            </Position>
            <AltitudeMeters>345.20001220703125</AltitudeMeters>
            <DistanceMeters>10174.923460837</DistanceMeters>
          </Trackpoint>
          <Trackpoint>
            <Time>2022-09-18T09:12:55.000Z</Time>
            <Position>
              <LatitudeDegrees>40.6977389194071292877197265625</LatitudeDegrees>
              <LongitudeDegrees>24.72429567016661167144775390625</LongitudeDegrees>
            </Position>
            <AltitudeMeters>345.399993896484375</AltitudeMeters>
            <DistanceMeters>10178.635589155</DistanceMeters>
          </Trackpoint>
          <Trackpoint>
            <Time>2022-09-18T09:12:57.000Z</Time>
            <Position>
              <LatitudeDegrees>40.69775878451764583587646484375</LatitudeDegrees>
              <LongitudeDegrees>24.72430153749883174896240234375</LongitudeDegrees>
            </Position>
            <AltitudeMeters>345.600006103515625</AltitudeMeters>
            <DistanceMeters>10180.904320866</DistanceMeters>
          </Trackpoint>
          <Trackpoint>
            <Time>2022-09-18T09:12:58.000Z</Time>
            <Position>
              <LatitudeDegrees>40.69778577424585819244384765625</LatitudeDegrees>
              <LongitudeDegrees>24.72429969348013401031494140625</LongitudeDegrees>
            </Position>
            <AltitudeMeters>345.600006103515625</AltitudeMeters>
            <DistanceMeters>10183.912332933</DistanceMeters>
          </Trackpoint>
          <Trackpoint>
            <Time>2022-09-18T09:13:00.000Z</Time>
            <Position>
              <LatitudeDegrees>40.6978185474872589111328125</LatitudeDegrees>
              <LongitudeDegrees>24.7243084944784641265869140625</LongitudeDegrees>
            </Position>
            <AltitudeMeters>345.79998779296875</AltitudeMeters>
            <DistanceMeters>10187.634178882</DistanceMeters>
          </Trackpoint>
          <Trackpoint>
            <Time>2022-09-18T09:13:04.000Z</Time>
            <Position>
              <LatitudeDegrees>40.6978762149810791015625</LatitudeDegrees>
              <LongitudeDegrees>24.724310003221035003662109375</LongitudeDegrees>
            </Position>
            <AltitudeMeters>345</AltitudeMeters>
            <DistanceMeters>10194.053935021</DistanceMeters>
          </Trackpoint>
          <Trackpoint>
            <Time>2022-09-18T09:13:06.000Z</Time>
            <Position>
              <LatitudeDegrees>40.6979151070117950439453125</LatitudeDegrees>
              <LongitudeDegrees>24.724322073161602020263671875</LongitudeDegrees>
            </Position>
            <AltitudeMeters>344.600006103515625</AltitudeMeters>
            <DistanceMeters>10198.500941589</DistanceMeters>
          </Trackpoint>
          <Trackpoint>
            <Time>2022-09-18T09:13:08.000Z</Time>
            <Position>
              <LatitudeDegrees>40.6979357264935970306396484375</LatitudeDegrees>
              <LongitudeDegrees>24.7243460454046726226806640625</LongitudeDegrees>
            </Position>
            <AltitudeMeters>344.20001220703125</AltitudeMeters>
            <DistanceMeters>10201.559562061</DistanceMeters>
          </Trackpoint>
          <Trackpoint>
            <Time>2022-09-18T09:13:11.000Z</Time>
            <Position>
              <LatitudeDegrees>40.6979687511920928955078125</LatitudeDegrees>
              <LongitudeDegrees>24.7243599593639373779296875</LongitudeDegrees>
            </Position>
            <AltitudeMeters>343.600006103515625</AltitudeMeters>
            <DistanceMeters>10205.418395571</DistanceMeters>
          </Trackpoint>
          <Trackpoint>
            <Time>2022-09-18T09:13:12.000Z</Time>
            <Position>
              <LatitudeDegrees>40.69797721691429615020751953125</LatitudeDegrees>
              <LongitudeDegrees>24.7243611328303813934326171875</LongitudeDegrees>
            </Position>
            <AltitudeMeters>343.399993896484375</AltitudeMeters>
            <DistanceMeters>10206.368662715</DistanceMeters>
          </Trackpoint>
          <Trackpoint>
            <Time>2022-09-18T09:13:17.000Z</Time>
            <Position>
              <LatitudeDegrees>40.69801677949726581573486328125</LatitudeDegrees>
              <LongitudeDegrees>24.7244167886674404144287109375</LongitudeDegrees>
            </Position>
            <AltitudeMeters>342.600006103515625</AltitudeMeters>
            <DistanceMeters>10212.806678782</DistanceMeters>
          </Trackpoint>
          <Trackpoint>
            <Time>2022-09-18T09:13:18.000Z</Time>
            <Position>
              <LatitudeDegrees>40.69803019054234027862548828125</LatitudeDegrees>
              <LongitudeDegrees>24.72442525438964366912841796875</LongitudeDegrees>
            </Position>
            <AltitudeMeters>342.399993896484375</AltitudeMeters>
            <DistanceMeters>10214.463526161</DistanceMeters>
          </Trackpoint>
          <Trackpoint>
            <Time>2022-09-18T09:13:20.000Z</Time>
            <Position>
              <LatitudeDegrees>40.69805902428925037384033203125</LatitudeDegrees>
              <LongitudeDegrees>24.72443447448313236236572265625</LongitudeDegrees>
            </Position>
            <AltitudeMeters>341.600006103515625</AltitudeMeters>
            <DistanceMeters>10217.766302621</DistanceMeters>
          </Trackpoint>
          <Trackpoint>
            <Time>2022-09-18T09:13:21.000Z</Time>
            <Position>
              <LatitudeDegrees>40.69807536900043487548828125</LatitudeDegrees>
              <LongitudeDegrees>24.72444570623338222503662109375</LongitudeDegrees>
            </Position>
            <AltitudeMeters>341</AltitudeMeters>
            <DistanceMeters>10219.817647454</DistanceMeters>
          </Trackpoint>
          <Trackpoint>
            <Time>2022-09-18T09:13:23.000Z</Time>
            <Position>
              <LatitudeDegrees>40.69811970926821231842041015625</LatitudeDegrees>
              <LongitudeDegrees>24.72447303123772144317626953125</LongitudeDegrees>
            </Position>
            <AltitudeMeters>340.20001220703125</AltitudeMeters>
            <DistanceMeters>10225.264924865</DistanceMeters>
          </Trackpoint>
          <Trackpoint>
            <Time>2022-09-18T09:13:24.000Z</Time>
            <Position>
              <LatitudeDegrees>40.69812809117138385772705078125</LatitudeDegrees>
              <LongitudeDegrees>24.72448862157762050628662109375</LongitudeDegrees>
            </Position>
            <AltitudeMeters>339.79998779296875</AltitudeMeters>
            <DistanceMeters>10226.877581684</DistanceMeters>
          </Trackpoint>
          <Trackpoint>
            <Time>2022-09-18T09:13:27.000Z</Time>
            <Position>
              <LatitudeDegrees>40.69813144393265247344970703125</LatitudeDegrees>
              <LongitudeDegrees>24.72454436123371124267578125</LongitudeDegrees>
            </Position>
            <AltitudeMeters>338.399993896484375</AltitudeMeters>
            <DistanceMeters>10231.596497715</DistanceMeters>
          </Trackpoint>
          <Trackpoint>
            <Time>2022-09-18T09:13:29.000Z</Time>
            <Position>
              <LatitudeDegrees>40.69814317859709262847900390625</LatitudeDegrees>
              <LongitudeDegrees>24.72456850111484527587890625</LongitudeDegrees>
            </Position>
            <AltitudeMeters>338</AltitudeMeters>
            <DistanceMeters>10234.017348725</DistanceMeters>
          </Trackpoint>
          <Trackpoint>
            <Time>2022-09-18T09:13:31.000Z</Time>
            <Position>
              <LatitudeDegrees>40.6981469504535198211669921875</LatitudeDegrees>
              <LongitudeDegrees>24.7245968319475650787353515625</LongitudeDegrees>
            </Position>
            <AltitudeMeters>337.600006103515625</AltitudeMeters>
            <DistanceMeters>10236.443788471</DistanceMeters>
          </Trackpoint>
          <Trackpoint>
            <Time>2022-09-18T09:13:32.000Z</Time>
            <Position>
              <LatitudeDegrees>40.6981489621102809906005859375</LatitudeDegrees>
              <LongitudeDegrees>24.724615775048732757568359375</LongitudeDegrees>
            </Position>
            <AltitudeMeters>337.20001220703125</AltitudeMeters>
            <DistanceMeters>10238.05644529</DistanceMeters>
          </Trackpoint>
          <Trackpoint>
            <Time>2022-09-18T09:13:34.000Z</Time>
            <Position>
              <LatitudeDegrees>40.69817301817238330841064453125</LatitudeDegrees>
              <LongitudeDegrees>24.72466170787811279296875</LongitudeDegrees>
            </Position>
            <AltitudeMeters>336.600006103515625</AltitudeMeters>
            <DistanceMeters>10242.76674229</DistanceMeters>
          </Trackpoint>
          <Trackpoint>
            <Time>2022-09-18T09:13:35.000Z</Time>
            <Position>
              <LatitudeDegrees>40.69818441756069660186767578125</LatitudeDegrees>
              <LongitudeDegrees>24.72468408755958080291748046875</LongitudeDegrees>
            </Position>
            <AltitudeMeters>336.20001220703125</AltitudeMeters>
            <DistanceMeters>10245.043420545</DistanceMeters>
          </Trackpoint>
          <Trackpoint>
            <Time>2022-09-18T09:13:38.000Z</Time>
            <Position>
              <LatitudeDegrees>40.6982129998505115509033203125</LatitudeDegrees>
              <LongitudeDegrees>24.72475625574588775634765625</LongitudeDegrees>
            </Position>
            <AltitudeMeters>335</AltitudeMeters>
            <DistanceMeters>10251.914318569</DistanceMeters>
          </Trackpoint>
          <Trackpoint>
            <Time>2022-09-18T09:13:41.000Z</Time>
            <Position>
              <LatitudeDegrees>40.6982357986271381378173828125</LatitudeDegrees>
              <LongitudeDegrees>24.72482406534254550933837890625</LongitudeDegrees>
            </Position>
            <AltitudeMeters>334</AltitudeMeters>
            <DistanceMeters>10258.173110115</DistanceMeters>
          </Trackpoint>
          <Trackpoint>
            <Time>2022-09-18T09:13:43.000Z</Time>
            <Position>
              <LatitudeDegrees>40.69825868122279644012451171875</LatitudeDegrees>
              <LongitudeDegrees>24.7248610295355319976806640625</LongitudeDegrees>
            </Position>
            <AltitudeMeters>333</AltitudeMeters>
            <DistanceMeters>10262.19802715</DistanceMeters>
          </Trackpoint>
          <Trackpoint>
            <Time>2022-09-18T09:13:44.000Z</Time>
            <Position>
              <LatitudeDegrees>40.698275528848171234130859375</LatitudeDegrees>
              <LongitudeDegrees>24.72487821243703365325927734375</LongitudeDegrees>
            </Position>
            <AltitudeMeters>332.600006103515625</AltitudeMeters>
            <DistanceMeters>10264.567986548</DistanceMeters>
          </Trackpoint>
          <Trackpoint>
            <Time>2022-09-18T09:13:45.000Z</Time>
            <Position>
              <LatitudeDegrees>40.69828785024583339691162109375</LatitudeDegrees>
              <LongitudeDegrees>24.72489698790013790130615234375</LongitudeDegrees>
            </Position>
            <AltitudeMeters>332.20001220703125</AltitudeMeters>
            <DistanceMeters>10266.660732848</DistanceMeters>
          </Trackpoint>
          <Trackpoint>
            <Time>2022-09-18T09:13:49.000Z</Time>
            <Position>
              <LatitudeDegrees>40.698321796953678131103515625</LatitudeDegrees>
              <LongitudeDegrees>24.7249850817024707794189453125</LongitudeDegrees>
            </Position>
            <AltitudeMeters>331.20001220703125</AltitudeMeters>
            <DistanceMeters>10274.99875171</DistanceMeters>
          </Trackpoint>
          <Trackpoint>
            <Time>2022-09-18T09:13:50.000Z</Time>
            <Position>
              <LatitudeDegrees>40.69834786467254161834716796875</LatitudeDegrees>
              <LongitudeDegrees>24.72500477917492389678955078125</LongitudeDegrees>
            </Position>
            <AltitudeMeters>331</AltitudeMeters>
            <DistanceMeters>10278.342287957</DistanceMeters>
          </Trackpoint>
          <Trackpoint>
            <Time>2022-09-18T09:13:52.000Z</Time>
            <Position>
              <LatitudeDegrees>40.69838340394198894500732421875</LatitudeDegrees>
              <LongitudeDegrees>24.7250454314053058624267578125</LongitudeDegrees>
            </Position>
            <AltitudeMeters>330.20001220703125</AltitudeMeters>
            <DistanceMeters>10283.578251296</DistanceMeters>
          </Trackpoint>
          <Trackpoint>
            <Time>2022-09-18T09:13:55.000Z</Time>
            <Position>
              <LatitudeDegrees>40.69844861514866352081298828125</LatitudeDegrees>
              <LongitudeDegrees>24.72511458210647106170654296875</LongitudeDegrees>
            </Position>
            <AltitudeMeters>328.79998779296875</AltitudeMeters>
            <DistanceMeters>10292.890869304</DistanceMeters>
          </Trackpoint>
          <Trackpoint>
            <Time>2022-09-18T09:13:57.000Z</Time>
            <Position>
              <LatitudeDegrees>40.69850343279540538787841796875</LatitudeDegrees>
              <LongitudeDegrees>24.7251619398593902587890625</LongitudeDegrees>
            </Position>
            <AltitudeMeters>327.600006103515625</AltitudeMeters>
            <DistanceMeters>10300.184440468</DistanceMeters>
          </Trackpoint>
          <Trackpoint>
            <Time>2022-09-18T09:14:00.000Z</Time>
            <Position>
              <LatitudeDegrees>40.69854282774031162261962890625</LatitudeDegrees>
              <LongitudeDegrees>24.7252263128757476806640625</LongitudeDegrees>
            </Position>
            <AltitudeMeters>326.399993896484375</AltitudeMeters>
            <DistanceMeters>10307.165509338</DistanceMeters>
          </Trackpoint>
          <Trackpoint>
            <Time>2022-09-18T09:14:03.000Z</Time>
            <Position>
              <LatitudeDegrees>40.69857669062912464141845703125</LatitudeDegrees>
              <LongitudeDegrees>24.72528205253183841705322265625</LongitudeDegrees>
            </Position>
            <AltitudeMeters>325</AltitudeMeters>
            <DistanceMeters>10313.192031342</DistanceMeters>
          </Trackpoint>
          <Trackpoint>
            <Time>2022-09-18T09:14:05.000Z</Time>
            <Position>
              <LatitudeDegrees>40.6986022554337978363037109375</LatitudeDegrees>
              <LongitudeDegrees>24.7253062762320041656494140625</LongitudeDegrees>
            </Position>
            <AltitudeMeters>324.399993896484375</AltitudeMeters>
            <DistanceMeters>10316.696443413</DistanceMeters>
          </Trackpoint>
          <Trackpoint>
            <Time>2022-09-18T09:14:06.000Z</Time>
            <Position>
              <LatitudeDegrees>40.698612816631793975830078125</LatitudeDegrees>
              <LongitudeDegrees>24.72531725652515888214111328125</LongitudeDegrees>
            </Position>
            <AltitudeMeters>324.20001220703125</AltitudeMeters>
            <DistanceMeters>10318.192925607</DistanceMeters>
          </Trackpoint>
          <Trackpoint>
            <Time>2022-09-18T09:14:07.000Z</Time>
            <Position>
              <LatitudeDegrees>40.6986123137176036834716796875</LatitudeDegrees>
              <LongitudeDegrees>24.7253344394266605377197265625</LongitudeDegrees>
            </Position>
            <AltitudeMeters>323.600006103515625</AltitudeMeters>
            <DistanceMeters>10319.64655482</DistanceMeters>
          </Trackpoint>
          <Trackpoint>
            <Time>2022-09-18T09:14:09.000Z</Time>
            <Position>
              <LatitudeDegrees>40.69861114025115966796875</LatitudeDegrees>
              <LongitudeDegrees>24.7253424860537052154541015625</LongitudeDegrees>
            </Position>
            <AltitudeMeters>322.399993896484375</AltitudeMeters>
            <DistanceMeters>10320.338359743</DistanceMeters>
          </Trackpoint>
          <Trackpoint>
            <Time>2022-09-18T09:14:11.000Z</Time>
            <Position>
              <LatitudeDegrees>40.698629580438137054443359375</LatitudeDegrees>
              <LongitudeDegrees>24.72534810192883014678955078125</LongitudeDegrees>
            </Position>
            <AltitudeMeters>321.600006103515625</AltitudeMeters>
            <DistanceMeters>10322.446154232</DistanceMeters>
          </Trackpoint>
          <Trackpoint>
            <Time>2022-09-18T09:14:12.000Z</Time>
            <Position>
              <LatitudeDegrees>40.69865682162344455718994140625</LatitudeDegrees>
              <LongitudeDegrees>24.72535262815654277801513671875</LongitudeDegrees>
            </Position>
            <AltitudeMeters>321</AltitudeMeters>
            <DistanceMeters>10325.501820943</DistanceMeters>
          </Trackpoint>
          <Trackpoint>
            <Time>2022-09-18T09:14:15.000Z</Time>
            <Position>
              <LatitudeDegrees>40.698706023395061492919921875</LatitudeDegrees>
              <LongitudeDegrees>24.72534944303333759307861328125</LongitudeDegrees>
            </Position>
            <AltitudeMeters>319.600006103515625</AltitudeMeters>
            <DistanceMeters>10330.985446984</DistanceMeters>
          </Trackpoint>
          <Trackpoint>
            <Time>2022-09-18T09:14:18.000Z</Time>
            <Position>
              <LatitudeDegrees>40.6987373717129230499267578125</LatitudeDegrees>
              <LongitudeDegrees>24.7253404743969440460205078125</LongitudeDegrees>
            </Position>
            <AltitudeMeters>318.399993896484375</AltitudeMeters>
            <DistanceMeters>10334.556226722</DistanceMeters>
          </Trackpoint>
          <Trackpoint>
            <Time>2022-09-18T09:14:20.000Z</Time>
            <Position>
              <LatitudeDegrees>40.698749609291553497314453125</LatitudeDegrees>
              <LongitudeDegrees>24.725335277616977691650390625</LongitudeDegrees>
            </Position>
            <AltitudeMeters>317.399993896484375</AltitudeMeters>
            <DistanceMeters>10335.984791483</DistanceMeters>
          </Trackpoint>
          <Trackpoint>
            <Time>2022-09-18T09:14:23.000Z</Time>
            <Position>
              <LatitudeDegrees>40.69880333729088306427001953125</LatitudeDegrees>
              <LongitudeDegrees>24.7253361158072948455810546875</LongitudeDegrees>
            </Position>
            <AltitudeMeters>316</AltitudeMeters>
            <DistanceMeters>10341.966192896</DistanceMeters>
          </Trackpoint>
          <Trackpoint>
            <Time>2022-09-18T09:14:24.000Z</Time>
            <Position>
              <LatitudeDegrees>40.69883183576166629791259765625</LatitudeDegrees>
              <LongitudeDegrees>24.72534005530178546905517578125</LongitudeDegrees>
            </Position>
            <AltitudeMeters>315.20001220703125</AltitudeMeters>
            <DistanceMeters>10345.154902052</DistanceMeters>
          </Trackpoint>
          <Trackpoint>
            <Time>2022-09-18T09:14:25.000Z</Time>
            <Position>
              <LatitudeDegrees>40.69886150769889354705810546875</LatitudeDegrees>
              <LongitudeDegrees>24.7253307513892650604248046875</LongitudeDegrees>
            </Position>
            <AltitudeMeters>314.79998779296875</AltitudeMeters>
            <DistanceMeters>10348.549364828</DistanceMeters>
          </Trackpoint>
          <Trackpoint>
            <Time>2022-09-18T09:14:28.000Z</Time>
            <Position>
              <LatitudeDegrees>40.69891816936433315277099609375</LatitudeDegrees>
              <LongitudeDegrees>24.7253012470901012420654296875</LongitudeDegrees>
            </Position>
            <AltitudeMeters>313.20001220703125</AltitudeMeters>
            <DistanceMeters>10355.329639098</DistanceMeters>
          </Trackpoint>
          <Trackpoint>
            <Time>2022-09-18T09:14:31.000Z</Time>
            <Position>
              <LatitudeDegrees>40.69894800893962383270263671875</LatitudeDegrees>
              <LongitudeDegrees>24.72528926096856594085693359375</LongitudeDegrees>
            </Position>
            <AltitudeMeters>312</AltitudeMeters>
            <DistanceMeters>10358.800391463</DistanceMeters>
          </Trackpoint>
          <Trackpoint>
            <Time>2022-09-18T09:14:34.000Z</Time>
            <Position>
              <LatitudeDegrees>40.6989640183746814727783203125</LatitudeDegrees>
              <LongitudeDegrees>24.72530200146138668060302734375</LongitudeDegrees>
            </Position>
            <AltitudeMeters>310.79998779296875</AltitudeMeters>
            <DistanceMeters>10360.87798058</DistanceMeters>
          </Trackpoint>
          <Trackpoint>
            <Time>2022-09-18T09:14:37.000Z</Time>
            <Position>
              <LatitudeDegrees>40.6990179978311061859130859375</LatitudeDegrees>
              <LongitudeDegrees>24.72530719824135303497314453125</LongitudeDegrees>
            </Position>
            <AltitudeMeters>310.399993896484375</AltitudeMeters>
            <DistanceMeters>10366.901505059</DistanceMeters>
          </Trackpoint>
          <Trackpoint>
            <Time>2022-09-18T09:14:40.000Z</Time>
            <Position>
              <LatitudeDegrees>40.699034593999385833740234375</LatitudeDegrees>
              <LongitudeDegrees>24.72529579885303974151611328125</LongitudeDegrees>
            </Position>
            <AltitudeMeters>310</AltitudeMeters>
            <DistanceMeters>10368.98343606</DistanceMeters>
          </Trackpoint>
          <Trackpoint>
            <Time>2022-09-18T09:14:41.000Z</Time>
            <Position>
              <LatitudeDegrees>40.69904171861708164215087890625</LatitudeDegrees>
              <LongitudeDegrees>24.72529378719627857208251953125</LongitudeDegrees>
            </Position>
            <AltitudeMeters>309.79998779296875</AltitudeMeters>
            <DistanceMeters>10369.78976447</DistanceMeters>
          </Trackpoint>
          <Trackpoint>
            <Time>2022-09-18T09:14:43.000Z</Time>
            <Position>
              <LatitudeDegrees>40.69903987459838390350341796875</LatitudeDegrees>
              <LongitudeDegrees>24.72528942860662937164306640625</LongitudeDegrees>
            </Position>
            <AltitudeMeters>309</AltitudeMeters>
            <DistanceMeters>10370.214736856</DistanceMeters>
          </Trackpoint>
          <Trackpoint>
            <Time>2022-09-18T09:14:44.000Z</Time>
            <Position>
              <LatitudeDegrees>40.6990469992160797119140625</LatitudeDegrees>
              <LongitudeDegrees>24.72528733313083648681640625</LongitudeDegrees>
            </Position>
            <AltitudeMeters>308.79998779296875</AltitudeMeters>
            <DistanceMeters>10371.021065265</DistanceMeters>
          </Trackpoint>
          <Trackpoint>
            <Time>2022-09-18T09:14:45.000Z</Time>
            <Position>
              <LatitudeDegrees>40.69905060343444347381591796875</LatitudeDegrees>
              <LongitudeDegrees>24.72528339363634586334228515625</LongitudeDegrees>
            </Position>
            <AltitudeMeters>308.79998779296875</AltitudeMeters>
            <DistanceMeters>10371.532799783</DistanceMeters>
          </Trackpoint>
          <Trackpoint>
            <Time>2022-09-18T09:14:49.000Z</Time>
            <Position>
              <LatitudeDegrees>40.6990592367947101593017578125</LatitudeDegrees>
              <LongitudeDegrees>24.72528188489377498626708984375</LongitudeDegrees>
            </Position>
            <AltitudeMeters>308.79998779296875</AltitudeMeters>
            <DistanceMeters>10372.501885925</DistanceMeters>
          </Trackpoint>
          <Trackpoint>
            <Time>2022-09-18T09:14:50.000Z</Time>
            <Position>
              <LatitudeDegrees>40.69905898533761501312255859375</LatitudeDegrees>
              <LongitudeDegrees>24.72528255544602870941162109375</LongitudeDegrees>
            </Position>
            <AltitudeMeters>309</AltitudeMeters>
            <DistanceMeters>10372.501885925</DistanceMeters>
          </Trackpoint>
          <Trackpoint>
            <Time>2022-09-18T09:14:51.000Z</Time>
            <Position>
              <LatitudeDegrees>40.69906451739370822906494140625</LatitudeDegrees>
              <LongitudeDegrees>24.72528255544602870941162109375</LongitudeDegrees>
            </Position>
            <AltitudeMeters>309</AltitudeMeters>
            <DistanceMeters>10373.11772942</DistanceMeters>
          </Trackpoint>
          <Trackpoint>
            <Time>2022-09-18T09:14:57.000Z</Time>
            <Position>
              <LatitudeDegrees>40.69911262951791286468505859375</LatitudeDegrees>
              <LongitudeDegrees>24.725319854915142059326171875</LongitudeDegrees>
            </Position>
            <AltitudeMeters>308.600006103515625</AltitudeMeters>
            <DistanceMeters>10379.328726649</DistanceMeters>
          </Trackpoint>
          <Trackpoint>
            <Time>2022-09-18T09:14:58.000Z</Time>
            <Position>
              <LatitudeDegrees>40.6991202570497989654541015625</LatitudeDegrees>
              <LongitudeDegrees>24.725332595407962799072265625</LongitudeDegrees>
            </Position>
            <AltitudeMeters>308.399993896484375</AltitudeMeters>
            <DistanceMeters>10380.699221413</DistanceMeters>
          </Trackpoint>
          <Trackpoint>
            <Time>2022-09-18T09:15:03.000Z</Time>
            <Position>
              <LatitudeDegrees>40.69922142662107944488525390625</LatitudeDegrees>
              <LongitudeDegrees>24.72545631229877471923828125</LongitudeDegrees>
            </Position>
            <AltitudeMeters>307.79998779296875</AltitudeMeters>
            <DistanceMeters>10396.054197674</DistanceMeters>
          </Trackpoint>
          <Trackpoint>
            <Time>2022-09-18T09:15:09.000Z</Time>
            <Position>
              <LatitudeDegrees>40.69931765086948871612548828125</LatitudeDegrees>
              <LongitudeDegrees>24.72554004751145839691162109375</LongitudeDegrees>
            </Position>
            <AltitudeMeters>308.399993896484375</AltitudeMeters>
            <DistanceMeters>10408.885267533</DistanceMeters>
          </Trackpoint>
          <Trackpoint>
            <Time>2022-09-18T09:15:10.000Z</Time>
            <Position>
              <LatitudeDegrees>40.699330307543277740478515625</LatitudeDegrees>
              <LongitudeDegrees>24.72555060870945453643798828125</LongitudeDegrees>
            </Position>
            <AltitudeMeters>308.399993896484375</AltitudeMeters>
            <DistanceMeters>10410.550270076</DistanceMeters>
          </Trackpoint>
          <Trackpoint>
            <Time>2022-09-18T09:15:15.000Z</Time>
            <Position>
              <LatitudeDegrees>40.69938034750521183013916015625</LatitudeDegrees>
              <LongitudeDegrees>24.7256214357912540435791015625</LongitudeDegrees>
            </Position>
            <AltitudeMeters>308.600006103515625</AltitudeMeters>
            <DistanceMeters>10418.71980464</DistanceMeters>
          </Trackpoint>
          <Trackpoint>
            <Time>2022-09-18T09:15:17.000Z</Time>
            <Position>
              <LatitudeDegrees>40.69937531836330890655517578125</LatitudeDegrees>
              <LongitudeDegrees>24.72565613687038421630859375</LongitudeDegrees>
            </Position>
            <AltitudeMeters>308.600006103515625</AltitudeMeters>
            <DistanceMeters>10421.703703997</DistanceMeters>
          </Trackpoint>
          <Trackpoint>
            <Time>2022-09-18T09:15:18.000Z</Time>
            <Position>
              <LatitudeDegrees>40.6994159705936908721923828125</LatitudeDegrees>
              <LongitudeDegrees>24.72566795535385608673095703125</LongitudeDegrees>
            </Position>
            <AltitudeMeters>308.600006103515625</AltitudeMeters>
            <DistanceMeters>10426.337657146</DistanceMeters>
          </Trackpoint>
          <Trackpoint>
            <Time>2022-09-18T09:15:24.000Z</Time>
            <Position>
              <LatitudeDegrees>40.6994679383933544158935546875</LatitudeDegrees>
              <LongitudeDegrees>24.72577205859124660491943359375</LongitudeDegrees>
            </Position>
            <AltitudeMeters>309.79998779296875</AltitudeMeters>
            <DistanceMeters>10436.855616383</DistanceMeters>
          </Trackpoint>
          <Trackpoint>
            <Time>2022-09-18T09:15:25.000Z</Time>
            <Position>
              <LatitudeDegrees>40.6994739733636379241943359375</LatitudeDegrees>
              <LongitudeDegrees>24.72579150460660457611083984375</LongitudeDegrees>
            </Position>
            <AltitudeMeters>310.20001220703125</AltitudeMeters>
            <DistanceMeters>10438.630861909</DistanceMeters>
          </Trackpoint>
          <Trackpoint>
            <Time>2022-09-18T09:15:29.000Z</Time>
            <Position>
              <LatitudeDegrees>40.69950087927281856536865234375</LatitudeDegrees>
              <LongitudeDegrees>24.72585587762296199798583984375</LongitudeDegrees>
            </Position>
            <AltitudeMeters>311</AltitudeMeters>
            <DistanceMeters>10444.833857615</DistanceMeters>
          </Trackpoint>
          <Trackpoint>
            <Time>2022-09-18T09:15:31.000Z</Time>
            <Position>
              <LatitudeDegrees>40.69951211102306842803955078125</LatitudeDegrees>
              <LongitudeDegrees>24.7258866392076015472412109375</LongitudeDegrees>
            </Position>
            <AltitudeMeters>311.399993896484375</AltitudeMeters>
            <DistanceMeters>10447.716160571</DistanceMeters>
          </Trackpoint>
          <Trackpoint>
            <Time>2022-09-18T09:15:35.000Z</Time>
            <Position>
              <LatitudeDegrees>40.69953742437064647674560546875</LatitudeDegrees>
              <LongitudeDegrees>24.72593776881694793701171875</LongitudeDegrees>
            </Position>
            <AltitudeMeters>311.79998779296875</AltitudeMeters>
            <DistanceMeters>10452.868676922</DistanceMeters>
          </Trackpoint>
          <Trackpoint>
            <Time>2022-09-18T09:15:37.000Z</Time>
            <Position>
              <LatitudeDegrees>40.69956709630787372589111328125</LatitudeDegrees>
              <LongitudeDegrees>24.7259496711194515228271484375</LongitudeDegrees>
            </Position>
            <AltitudeMeters>312.20001220703125</AltitudeMeters>
            <DistanceMeters>10456.321168907</DistanceMeters>
          </Trackpoint>
          <Trackpoint>
            <Time>2022-09-18T09:15:38.000Z</Time>
            <Position>
              <LatitudeDegrees>40.69957614876329898834228515625</LatitudeDegrees>
              <LongitudeDegrees>24.7259560413658618927001953125</LongitudeDegrees>
            </Position>
            <AltitudeMeters>312.399993896484375</AltitudeMeters>
            <DistanceMeters>10457.465442075</DistanceMeters>
          </Trackpoint>
          <Trackpoint>
            <Time>2022-09-18T09:15:39.000Z</Time>
            <Position>
              <LatitudeDegrees>40.69958570413291454315185546875</LatitudeDegrees>
              <LongitudeDegrees>24.72596400417387485504150390625</LongitudeDegrees>
            </Position>
            <AltitudeMeters>312.600006103515625</AltitudeMeters>
            <DistanceMeters>10458.722527346</DistanceMeters>
          </Trackpoint>
          <Trackpoint>
            <Time>2022-09-18T09:15:42.000Z</Time>
            <Position>
              <LatitudeDegrees>40.6996142864227294921875</LatitudeDegrees>
              <LongitudeDegrees>24.72599317319691181182861328125</LongitudeDegrees>
            </Position>
            <AltitudeMeters>313.399993896484375</AltitudeMeters>
            <DistanceMeters>10462.745200212</DistanceMeters>
          </Trackpoint>
          <Trackpoint>
            <Time>2022-09-18T09:15:47.000Z</Time>
            <Position>
              <LatitudeDegrees>40.69965778850018978118896484375</LatitudeDegrees>
              <LongitudeDegrees>24.726033322513103485107421875</LongitudeDegrees>
            </Position>
            <AltitudeMeters>314</AltitudeMeters>
            <DistanceMeters>10468.654456139</DistanceMeters>
          </Trackpoint>
          <Trackpoint>
            <Time>2022-09-18T09:15:48.000Z</Time>
            <Position>
              <LatitudeDegrees>40.6996684335172176361083984375</LatitudeDegrees>
              <LongitudeDegrees>24.72604296170175075531005859375</LongitudeDegrees>
            </Position>
            <AltitudeMeters>314</AltitudeMeters>
            <DistanceMeters>10470.08932806</DistanceMeters>
          </Trackpoint>
          <Trackpoint>
            <Time>2022-09-18T09:15:51.000Z</Time>
            <Position>
              <LatitudeDegrees>40.699688382446765899658203125</LatitudeDegrees>
              <LongitudeDegrees>24.72607196308672428131103515625</LongitudeDegrees>
            </Position>
            <AltitudeMeters>314.399993896484375</AltitudeMeters>
            <DistanceMeters>10473.39210452</DistanceMeters>
          </Trackpoint>
          <Trackpoint>
            <Time>2022-09-18T09:15:55.000Z</Time>
            <Position>
              <LatitudeDegrees>40.69971160031855106353759765625</LatitudeDegrees>
              <LongitudeDegrees>24.72609828226268291473388671875</LongitudeDegrees>
            </Position>
            <AltitudeMeters>315.20001220703125</AltitudeMeters>
            <DistanceMeters>10476.799842524</DistanceMeters>
          </Trackpoint>
          <Trackpoint>
            <Time>2022-09-18T09:15:57.000Z</Time>
            <Position>
              <LatitudeDegrees>40.69972266443073749542236328125</LatitudeDegrees>
              <LongitudeDegrees>24.72610884346067905426025390625</LongitudeDegrees>
            </Position>
            <AltitudeMeters>315.399993896484375</AltitudeMeters>
            <DistanceMeters>10478.320269954</DistanceMeters>
          </Trackpoint>
          <Trackpoint>
            <Time>2022-09-18T09:15:59.000Z</Time>
            <Position>
              <LatitudeDegrees>40.69973305799067020416259765625</LatitudeDegrees>
              <LongitudeDegrees>24.7261328995227813720703125</LongitudeDegrees>
            </Position>
            <AltitudeMeters>316</AltitudeMeters>
            <DistanceMeters>10480.655685585</DistanceMeters>
          </Trackpoint>
          <Trackpoint>
            <Time>2022-09-18T09:16:01.000Z</Time>
            <Position>
              <LatitudeDegrees>40.69973859004676342010498046875</LatitudeDegrees>
              <LongitudeDegrees>24.72614706493914127349853515625</LongitudeDegrees>
            </Position>
            <AltitudeMeters>316.600006103515625</AltitudeMeters>
            <DistanceMeters>10481.999566268</DistanceMeters>
          </Trackpoint>
          <Trackpoint>
            <Time>2022-09-18T09:16:05.000Z</Time>
            <Position>
              <LatitudeDegrees>40.69977396167814731597900390625</LatitudeDegrees>
              <LongitudeDegrees>24.7261810116469860076904296875</LongitudeDegrees>
            </Position>
            <AltitudeMeters>317</AltitudeMeters>
            <DistanceMeters>10486.867309132</DistanceMeters>
          </Trackpoint>
          <Trackpoint>
            <Time>2022-09-18T09:16:07.000Z</Time>
            <Position>
              <LatitudeDegrees>40.69978787563741207122802734375</LatitudeDegrees>
              <LongitudeDegrees>24.72618964500725269317626953125</LongitudeDegrees>
            </Position>
            <AltitudeMeters>317.399993896484375</AltitudeMeters>
            <DistanceMeters>10488.577789991</DistanceMeters>
          </Trackpoint>
          <Trackpoint>
            <Time>2022-09-18T09:16:08.000Z</Time>
            <Position>
              <LatitudeDegrees>40.69979039020836353302001953125</LatitudeDegrees>
              <LongitudeDegrees>24.726194925606250762939453125</LongitudeDegrees>
            </Position>
            <AltitudeMeters>317.79998779296875</AltitudeMeters>
            <DistanceMeters>10489.115342264</DistanceMeters>
          </Trackpoint>
          <Trackpoint>
            <Time>2022-09-18T09:16:09.000Z</Time>
            <Position>
              <LatitudeDegrees>40.6997924856841564178466796875</LatitudeDegrees>
              <LongitudeDegrees>24.7262031398713588714599609375</LongitudeDegrees>
            </Position>
            <AltitudeMeters>317.79998779296875</AltitudeMeters>
            <DistanceMeters>10489.845256307</DistanceMeters>
          </Trackpoint>
          <Trackpoint>
            <Time>2022-09-18T09:16:12.000Z</Time>
            <Position>
              <LatitudeDegrees>40.69979357533156871795654296875</LatitudeDegrees>
              <LongitudeDegrees>24.7262442111968994140625</LongitudeDegrees>
            </Position>
            <AltitudeMeters>318.399993896484375</AltitudeMeters>
            <DistanceMeters>10493.313405932</DistanceMeters>
          </Trackpoint>
          <Trackpoint>
            <Time>2022-09-18T09:16:14.000Z</Time>
            <Position>
              <LatitudeDegrees>40.6997894681990146636962890625</LatitudeDegrees>
              <LongitudeDegrees>24.72627765499055385589599609375</LongitudeDegrees>
            </Position>
            <AltitudeMeters>318.79998779296875</AltitudeMeters>
            <DistanceMeters>10496.170535454</DistanceMeters>
          </Trackpoint>
          <Trackpoint>
            <Time>2022-09-18T09:16:16.000Z</Time>
            <Position>
              <LatitudeDegrees>40.69979759864509105682373046875</LatitudeDegrees>
              <LongitudeDegrees>24.726284779608249664306640625</LongitudeDegrees>
            </Position>
            <AltitudeMeters>319.20001220703125</AltitudeMeters>
            <DistanceMeters>10497.254006698</DistanceMeters>
          </Trackpoint>
          <Trackpoint>
            <Time>2022-09-18T09:16:19.000Z</Time>
            <Position>
              <LatitudeDegrees>40.69981436245143413543701171875</LatitudeDegrees>
              <LongitudeDegrees>24.72629274241626262664794921875</LongitudeDegrees>
            </Position>
            <AltitudeMeters>320</AltitudeMeters>
            <DistanceMeters>10499.238222747</DistanceMeters>
          </Trackpoint>
          <Trackpoint>
            <Time>2022-09-18T09:16:20.000Z</Time>
            <Position>
              <LatitudeDegrees>40.6998209841549396514892578125</LatitudeDegrees>
              <LongitudeDegrees>24.72629676572978496551513671875</LongitudeDegrees>
            </Position>
            <AltitudeMeters>320</AltitudeMeters>
            <DistanceMeters>10500.050131351</DistanceMeters>
          </Trackpoint>
          <Trackpoint>
            <Time>2022-09-18T09:16:21.000Z</Time>
            <Position>
              <LatitudeDegrees>40.69982592947781085968017578125</LatitudeDegrees>
              <LongitudeDegrees>24.72630213014781475067138671875</LongitudeDegrees>
            </Position>
            <AltitudeMeters>320.399993896484375</AltitudeMeters>
            <DistanceMeters>10500.754868326</DistanceMeters>
          </Trackpoint>
          <Trackpoint>
            <Time>2022-09-18T09:16:23.000Z</Time>
            <Position>
              <LatitudeDegrees>40.69983263500034809112548828125</LatitudeDegrees>
              <LongitudeDegrees>24.72632442601025104522705078125</LongitudeDegrees>
            </Position>
            <AltitudeMeters>321</AltitudeMeters>
            <DistanceMeters>10502.777397592</DistanceMeters>
          </Trackpoint>
          <Trackpoint>
            <Time>2022-09-18T09:16:27.000Z</Time>
            <Position>
              <LatitudeDegrees>40.69985769689083099365234375</LatitudeDegrees>
              <LongitudeDegrees>24.7263637371361255645751953125</LongitudeDegrees>
            </Position>
            <AltitudeMeters>322</AltitudeMeters>
            <DistanceMeters>10507.11128257</DistanceMeters>
          </Trackpoint>
          <Trackpoint>
            <Time>2022-09-18T09:16:28.000Z</Time>
            <Position>
              <LatitudeDegrees>40.6998665817081928253173828125</LatitudeDegrees>
              <LongitudeDegrees>24.72637119702994823455810546875</LongitudeDegrees>
            </Position>
            <AltitudeMeters>322.20001220703125</AltitudeMeters>
            <DistanceMeters>10508.282850587</DistanceMeters>
          </Trackpoint>
          <Trackpoint>
            <Time>2022-09-18T09:16:31.000Z</Time>
            <Position>
              <LatitudeDegrees>40.69988527335226535797119140625</LatitudeDegrees>
              <LongitudeDegrees>24.72639014013111591339111328125</LongitudeDegrees>
            </Position>
            <AltitudeMeters>323.20001220703125</AltitudeMeters>
            <DistanceMeters>10510.907721694</DistanceMeters>
          </Trackpoint>
          <Trackpoint>
            <Time>2022-09-18T09:16:32.000Z</Time>
            <Position>
              <LatitudeDegrees>40.699890553951263427734375</LatitudeDegrees>
              <LongitudeDegrees>24.7263939119875431060791015625</LongitudeDegrees>
            </Position>
            <AltitudeMeters>323.399993896484375</AltitudeMeters>
            <DistanceMeters>10511.579662035</DistanceMeters>
          </Trackpoint>
          <Trackpoint>
            <Time>2022-09-18T09:16:35.000Z</Time>
            <Position>
              <LatitudeDegrees>40.69990606047213077545166015625</LatitudeDegrees>
              <LongitudeDegrees>24.7264126874506473541259765625</LongitudeDegrees>
            </Position>
            <AltitudeMeters>324.399993896484375</AltitudeMeters>
            <DistanceMeters>10513.92279807</DistanceMeters>
          </Trackpoint>
          <Trackpoint>
            <Time>2022-09-18T09:16:36.000Z</Time>
            <Position>
              <LatitudeDegrees>40.69991360418498516082763671875</LatitudeDegrees>
              <LongitudeDegrees>24.7264200635254383087158203125</LongitudeDegrees>
            </Position>
            <AltitudeMeters>324.600006103515625</AltitudeMeters>
            <DistanceMeters>10514.972402436</DistanceMeters>
          </Trackpoint>
          <Trackpoint>
            <Time>2022-09-18T09:16:38.000Z</Time>
            <Position>
              <LatitudeDegrees>40.6999343074858188629150390625</LatitudeDegrees>
              <LongitudeDegrees>24.726429283618927001953125</LongitudeDegrees>
            </Position>
            <AltitudeMeters>324.79998779296875</AltitudeMeters>
            <DistanceMeters>10517.404418076</DistanceMeters>
          </Trackpoint>
          <Trackpoint>
            <Time>2022-09-18T09:16:42.000Z</Time>
            <Position>
              <LatitudeDegrees>40.699971020221710205078125</LatitudeDegrees>
              <LongitudeDegrees>24.7264448739588260650634765625</LongitudeDegrees>
            </Position>
            <AltitudeMeters>325.600006103515625</AltitudeMeters>
            <DistanceMeters>10521.696428787</DistanceMeters>
          </Trackpoint>
          <Trackpoint>
            <Time>2022-09-18T09:16:43.000Z</Time>
            <Position>
              <LatitudeDegrees>40.69997831247746944427490234375</LatitudeDegrees>
              <LongitudeDegrees>24.72645333968102931976318359375</LongitudeDegrees>
            </Position>
            <AltitudeMeters>325.79998779296875</AltitudeMeters>
            <DistanceMeters>10522.77572479</DistanceMeters>
          </Trackpoint>
          <Trackpoint>
            <Time>2022-09-18T09:16:44.000Z</Time>
            <Position>
              <LatitudeDegrees>40.699983425438404083251953125</LatitudeDegrees>
              <LongitudeDegrees>24.7264670021831989288330078125</LongitudeDegrees>
            </Position>
            <AltitudeMeters>326</AltitudeMeters>
            <DistanceMeters>10524.057705255</DistanceMeters>
          </Trackpoint>
          <Trackpoint>
            <Time>2022-09-18T09:16:48.000Z</Time>
            <Position>
              <LatitudeDegrees>40.70000865496695041656494140625</LatitudeDegrees>
              <LongitudeDegrees>24.72652609460055828094482421875</LongitudeDegrees>
            </Position>
            <AltitudeMeters>326.79998779296875</AltitudeMeters>
            <DistanceMeters>10529.779071098</DistanceMeters>
          </Trackpoint>
          <Trackpoint>
            <Time>2022-09-18T09:16:50.000Z</Time>
            <Position>
              <LatitudeDegrees>40.70002508349716663360595703125</LatitudeDegrees>
              <LongitudeDegrees>24.72654302604496479034423828125</LongitudeDegrees>
            </Position>
            <AltitudeMeters>327</AltitudeMeters>
            <DistanceMeters>10532.098968846</DistanceMeters>
          </Trackpoint>
          <Trackpoint>
            <Time>2022-09-18T09:16:54.000Z</Time>
            <Position>
              <LatitudeDegrees>40.70005760528147220611572265625</LatitudeDegrees>
              <LongitudeDegrees>24.72656666301190853118896484375</LongitudeDegrees>
            </Position>
            <AltitudeMeters>327.79998779296875</AltitudeMeters>
            <DistanceMeters>10536.232357847</DistanceMeters>
          </Trackpoint>
          <Trackpoint>
            <Time>2022-09-18T09:16:56.000Z</Time>
            <Position>
              <LatitudeDegrees>40.70008945651352405548095703125</LatitudeDegrees>
              <LongitudeDegrees>24.7265756316483020782470703125</LongitudeDegrees>
            </Position>
            <AltitudeMeters>328</AltitudeMeters>
            <DistanceMeters>10539.855854935</DistanceMeters>
          </Trackpoint>
          <Trackpoint>
            <Time>2022-09-18T09:16:57.000Z</Time>
            <Position>
              <LatitudeDegrees>40.70009750314056873321533203125</LatitudeDegrees>
              <LongitudeDegrees>24.7265840135514736175537109375</LongitudeDegrees>
            </Position>
            <AltitudeMeters>328</AltitudeMeters>
            <DistanceMeters>10540.996175507</DistanceMeters>
          </Trackpoint>
          <Trackpoint>
            <Time>2022-09-18T09:17:02.000Z</Time>
            <Position>
              <LatitudeDegrees>40.70012968964874744415283203125</LatitudeDegrees>
              <LongitudeDegrees>24.7266363166272640228271484375</LongitudeDegrees>
            </Position>
            <AltitudeMeters>328.79998779296875</AltitudeMeters>
            <DistanceMeters>10546.680330107</DistanceMeters>
          </Trackpoint>
          <Trackpoint>
            <Time>2022-09-18T09:17:03.000Z</Time>
            <Position>
              <LatitudeDegrees>40.7001344673335552215576171875</LatitudeDegrees>
              <LongitudeDegrees>24.7266425192356109619140625</LongitudeDegrees>
            </Position>
            <AltitudeMeters>329</AltitudeMeters>
            <DistanceMeters>10547.428571205</DistanceMeters>
          </Trackpoint>
          <Trackpoint>
            <Time>2022-09-18T09:17:05.000Z</Time>
            <Position>
              <LatitudeDegrees>40.7001508958637714385986328125</LatitudeDegrees>
              <LongitudeDegrees>24.72665132023394107818603515625</LongitudeDegrees>
            </Position>
            <AltitudeMeters>329.79998779296875</AltitudeMeters>
            <DistanceMeters>10549.401377061</DistanceMeters>
          </Trackpoint>
          <Trackpoint>
            <Time>2022-09-18T09:17:06.000Z</Time>
            <Position>
              <LatitudeDegrees>40.7001579366624355316162109375</LatitudeDegrees>
              <LongitudeDegrees>24.7266574390232563018798828125</LongitudeDegrees>
            </Position>
            <AltitudeMeters>329.79998779296875</AltitudeMeters>
            <DistanceMeters>10550.337281658</DistanceMeters>
          </Trackpoint>
          <Trackpoint>
            <Time>2022-09-18T09:17:09.000Z</Time>
            <Position>
              <LatitudeDegrees>40.70017662830650806427001953125</LatitudeDegrees>
              <LongitudeDegrees>24.7266849316656589508056640625</LongitudeDegrees>
            </Position>
            <AltitudeMeters>330.20001220703125</AltitudeMeters>
            <DistanceMeters>10553.452940846</DistanceMeters>
          </Trackpoint>
          <Trackpoint>
            <Time>2022-09-18T09:17:10.000Z</Time>
            <Position>
              <LatitudeDegrees>40.70018316619098186492919921875</LatitudeDegrees>
              <LongitudeDegrees>24.726692475378513336181640625</LongitudeDegrees>
            </Position>
            <AltitudeMeters>330.399993896484375</AltitudeMeters>
            <DistanceMeters>10554.417356666</DistanceMeters>
          </Trackpoint>
          <Trackpoint>
            <Time>2022-09-18T09:17:12.000Z</Time>
            <Position>
              <LatitudeDegrees>40.70021040737628936767578125</LatitudeDegrees>
              <LongitudeDegrees>24.726707898080348968505859375</LongitudeDegrees>
            </Position>
            <AltitudeMeters>330.399993896484375</AltitudeMeters>
            <DistanceMeters>10557.714660419</DistanceMeters>
          </Trackpoint>
          <Trackpoint>
            <Time>2022-09-18T09:17:15.000Z</Time>
            <Position>
              <LatitudeDegrees>40.70023463107645511627197265625</LatitudeDegrees>
              <LongitudeDegrees>24.72673145122826099395751953125</LongitudeDegrees>
            </Position>
            <AltitudeMeters>330.79998779296875</AltitudeMeters>
            <DistanceMeters>10561.063593823</DistanceMeters>
          </Trackpoint>
          <Trackpoint>
            <Time>2022-09-18T09:17:17.000Z</Time>
            <Position>
              <LatitudeDegrees>40.70024988614022731781005859375</LatitudeDegrees>
              <LongitudeDegrees>24.72674352116882801055908203125</LongitudeDegrees>
            </Position>
            <AltitudeMeters>331.20001220703125</AltitudeMeters>
            <DistanceMeters>10563.043253687</DistanceMeters>
          </Trackpoint>
          <Trackpoint>
            <Time>2022-09-18T09:17:23.000Z</Time>
            <Position>
              <LatitudeDegrees>40.70028961636126041412353515625</LatitudeDegrees>
              <LongitudeDegrees>24.72678861580789089202880859375</LongitudeDegrees>
            </Position>
            <AltitudeMeters>332</AltitudeMeters>
            <DistanceMeters>10568.876377039</DistanceMeters>
          </Trackpoint>
          <Trackpoint>
            <Time>2022-09-18T09:17:24.000Z</Time>
            <Position>
              <LatitudeDegrees>40.70029221475124359130859375</LatitudeDegrees>
              <LongitudeDegrees>24.72679607570171356201171875</LongitudeDegrees>
            </Position>
            <AltitudeMeters>332.20001220703125</AltitudeMeters>
            <DistanceMeters>10569.568181962</DistanceMeters>
          </Trackpoint>
          <Trackpoint>
            <Time>2022-09-18T09:17:25.000Z</Time>
            <Position>
              <LatitudeDegrees>40.70029363967478275299072265625</LatitudeDegrees>
              <LongitudeDegrees>24.72680537961423397064208984375</LongitudeDegrees>
            </Position>
            <AltitudeMeters>332.399993896484375</AltitudeMeters>
            <DistanceMeters>10570.363232496</DistanceMeters>
          </Trackpoint>
          <Trackpoint>
            <Time>2022-09-18T09:17:26.000Z</Time>
            <Position>
              <LatitudeDegrees>40.70029565133154392242431640625</LatitudeDegrees>
              <LongitudeDegrees>24.72681225277483463287353515625</LongitudeDegrees>
            </Position>
            <AltitudeMeters>332.79998779296875</AltitudeMeters>
            <DistanceMeters>10570.986364333</DistanceMeters>
          </Trackpoint>
          <Trackpoint>
            <Time>2022-09-18T09:17:28.000Z</Time>
            <Position>
              <LatitudeDegrees>40.70030587725341320037841796875</LatitudeDegrees>
              <LongitudeDegrees>24.72682348452508449554443359375</LongitudeDegrees>
            </Position>
            <AltitudeMeters>333</AltitudeMeters>
            <DistanceMeters>10572.46768421</DistanceMeters>
          </Trackpoint>
          <Trackpoint>
            <Time>2022-09-18T09:17:32.000Z</Time>
            <Position>
              <LatitudeDegrees>40.7003436796367168426513671875</LatitudeDegrees>
              <LongitudeDegrees>24.7268297709524631500244140625</LongitudeDegrees>
            </Position>
            <AltitudeMeters>333.600006103515625</AltitudeMeters>
            <DistanceMeters>10576.708900106</DistanceMeters>
          </Trackpoint>
          <Trackpoint>
            <Time>2022-09-18T09:17:33.000Z</Time>
            <Position>
              <LatitudeDegrees>40.70035616867244243621826171875</LatitudeDegrees>
              <LongitudeDegrees>24.72682817839086055755615234375</LongitudeDegrees>
            </Position>
            <AltitudeMeters>333.79998779296875</AltitudeMeters>
            <DistanceMeters>10578.105501879</DistanceMeters>
          </Trackpoint>
          <Trackpoint>
            <Time>2022-09-18T09:17:35.000Z</Time>
            <Position>
              <LatitudeDegrees>40.7003768719732761383056640625</LatitudeDegrees>
              <LongitudeDegrees>24.726829938590526580810546875</LongitudeDegrees>
            </Position>
            <AltitudeMeters>334.20001220703125</AltitudeMeters>
            <DistanceMeters>10580.413692751</DistanceMeters>
          </Trackpoint>
          <Trackpoint>
            <Time>2022-09-18T09:17:37.000Z</Time>
            <Position>
              <LatitudeDegrees>40.70039221085608005523681640625</LatitudeDegrees>
              <LongitudeDegrees>24.72684008069336414337158203125</LongitudeDegrees>
            </Position>
            <AltitudeMeters>334.79998779296875</AltitudeMeters>
            <DistanceMeters>10582.32842799</DistanceMeters>
          </Trackpoint>
          <Trackpoint>
            <Time>2022-09-18T09:17:38.000Z</Time>
            <Position>
              <LatitudeDegrees>40.70039925165474414825439453125</LatitudeDegrees>
              <LongitudeDegrees>24.7268451936542987823486328125</LongitudeDegrees>
            </Position>
            <AltitudeMeters>336.20001220703125</AltitudeMeters>
            <DistanceMeters>10583.229930558</DistanceMeters>
          </Trackpoint>
          <Trackpoint>
            <Time>2022-09-18T09:21:10.000Z</Time>
            <Position>
              <LatitudeDegrees>40.70043277926743030548095703125</LatitudeDegrees>
              <LongitudeDegrees>24.72687561996281147003173828125</LongitudeDegrees>
            </Position>
            <AltitudeMeters>336.20001220703125</AltitudeMeters>
            <DistanceMeters>10587.759426521</DistanceMeters>
          </Trackpoint>
          <Trackpoint>
            <Time>2022-09-18T09:21:11.000Z</Time>
            <Position>
              <LatitudeDegrees>40.70042791776359081268310546875</LatitudeDegrees>
              <LongitudeDegrees>24.72686849534511566162109375</LongitudeDegrees>
            </Position>
            <AltitudeMeters>336.20001220703125</AltitudeMeters>
            <DistanceMeters>10588.56575493</DistanceMeters>
          </Trackpoint>
          <Trackpoint>
            <Time>2022-09-18T09:21:17.000Z</Time>
            <Position>
              <LatitudeDegrees>40.70041065104305744171142578125</LatitudeDegrees>
              <LongitudeDegrees>24.726799763739109039306640625</LongitudeDegrees>
            </Position>
            <AltitudeMeters>336</AltitudeMeters>
            <DistanceMeters>10594.675610577</DistanceMeters>
          </Trackpoint>
          <Trackpoint>
            <Time>2022-09-18T09:21:22.000Z</Time>
            <Position>
              <LatitudeDegrees>40.70039413869380950927734375</LatitudeDegrees>
              <LongitudeDegrees>24.72673346288502216339111328125</LongitudeDegrees>
            </Position>
            <AltitudeMeters>336.600006103515625</AltitudeMeters>
            <DistanceMeters>10600.564200692</DistanceMeters>
          </Trackpoint>
          <Trackpoint>
            <Time>2022-09-18T09:21:23.000Z</Time>
            <Position>
              <LatitudeDegrees>40.70039204321801662445068359375</LatitudeDegrees>
              <LongitudeDegrees>24.72671988420188426971435546875</LongitudeDegrees>
            </Position>
            <AltitudeMeters>336.79998779296875</AltitudeMeters>
            <DistanceMeters>10601.728035503</DistanceMeters>
          </Trackpoint>
          <Trackpoint>
            <Time>2022-09-18T09:21:25.000Z</Time>
            <Position>
              <LatitudeDegrees>40.7003872655332088470458984375</LatitudeDegrees>
              <LongitudeDegrees>24.7266879491508007049560546875</LongitudeDegrees>
            </Position>
            <AltitudeMeters>337.20001220703125</AltitudeMeters>
            <DistanceMeters>10604.475606049</DistanceMeters>
          </Trackpoint>
          <Trackpoint>
            <Time>2022-09-18T09:21:29.000Z</Time>
            <Position>
              <LatitudeDegrees>40.7003855891525745391845703125</LatitudeDegrees>
              <LongitudeDegrees>24.7266212292015552520751953125</LongitudeDegrees>
            </Position>
            <AltitudeMeters>338.399993896484375</AltitudeMeters>
            <DistanceMeters>10610.108694778</DistanceMeters>
          </Trackpoint>
          <Trackpoint>
            <Time>2022-09-18T09:21:35.000Z</Time>
            <Position>
              <LatitudeDegrees>40.70035281591117382049560546875</LatitudeDegrees>
              <LongitudeDegrees>24.726512432098388671875</LongitudeDegrees>
            </Position>
            <AltitudeMeters>339.20001220703125</AltitudeMeters>
            <DistanceMeters>10619.987817522</DistanceMeters>
          </Trackpoint>
          <Trackpoint>
            <Time>2022-09-18T09:21:36.000Z</Time>
            <Position>
              <LatitudeDegrees>40.700347535312175750732421875</LatitudeDegrees>
              <LongitudeDegrees>24.7264938242733478546142578125</LongitudeDegrees>
            </Position>
            <AltitudeMeters>339.399993896484375</AltitudeMeters>
            <DistanceMeters>10621.666323957</DistanceMeters>
          </Trackpoint>
          <Trackpoint>
            <Time>2022-09-18T09:21:37.000Z</Time>
            <Position>
              <LatitudeDegrees>40.70033672265708446502685546875</LatitudeDegrees>
              <LongitudeDegrees>24.72647177986800670623779296875</LongitudeDegrees>
            </Position>
            <AltitudeMeters>339.600006103515625</AltitudeMeters>
            <DistanceMeters>10623.882708758</DistanceMeters>
          </Trackpoint>
          <Trackpoint>
            <Time>2022-09-18T09:21:42.000Z</Time>
            <Position>
              <LatitudeDegrees>40.700300596654415130615234375</LatitudeDegrees>
              <LongitudeDegrees>24.72639801912009716033935546875</LongitudeDegrees>
            </Position>
            <AltitudeMeters>340.79998779296875</AltitudeMeters>
            <DistanceMeters>10631.292355496</DistanceMeters>
          </Trackpoint>
          <Trackpoint>
            <Time>2022-09-18T09:21:45.000Z</Time>
            <Position>
              <LatitudeDegrees>40.70028827525675296783447265625</LatitudeDegrees>
              <LongitudeDegrees>24.726353175938129425048828125</LongitudeDegrees>
            </Position>
            <AltitudeMeters>341.600006103515625</AltitudeMeters>
            <DistanceMeters>10635.317272531</DistanceMeters>
          </Trackpoint>
          <Trackpoint>
            <Time>2022-09-18T09:21:47.000Z</Time>
            <Position>
              <LatitudeDegrees>40.70028676651418209075927734375</LatitudeDegrees>
              <LongitudeDegrees>24.7263174690306186676025390625</LongitudeDegrees>
            </Position>
            <AltitudeMeters>342</AltitudeMeters>
            <DistanceMeters>10638.335773339</DistanceMeters>
          </Trackpoint>
          <Trackpoint>
            <Time>2022-09-18T09:21:51.000Z</Time>
            <Position>
              <LatitudeDegrees>40.70030964910984039306640625</LatitudeDegrees>
              <LongitudeDegrees>24.72629056312143802642822265625</LongitudeDegrees>
            </Position>
            <AltitudeMeters>342.600006103515625</AltitudeMeters>
            <DistanceMeters>10641.748806977</DistanceMeters>
          </Trackpoint>
          <Trackpoint>
            <Time>2022-09-18T09:21:52.000Z</Time>
            <Position>
              <LatitudeDegrees>40.70032750256359577178955078125</LatitudeDegrees>
              <LongitudeDegrees>24.7262953408062458038330078125</LongitudeDegrees>
            </Position>
            <AltitudeMeters>342.79998779296875</AltitudeMeters>
            <DistanceMeters>10643.778022308</DistanceMeters>
          </Trackpoint>
          <Trackpoint>
            <Time>2022-09-18T09:21:53.000Z</Time>
            <Position>
              <LatitudeDegrees>40.700342841446399688720703125</LatitudeDegrees>
              <LongitudeDegrees>24.72630213014781475067138671875</LongitudeDegrees>
            </Position>
            <AltitudeMeters>343</AltitudeMeters>
            <DistanceMeters>10645.576012121</DistanceMeters>
          </Trackpoint>
          <Trackpoint>
            <Time>2022-09-18T09:21:56.000Z</Time>
            <Position>
              <LatitudeDegrees>40.700377039611339569091796875</LatitudeDegrees>
              <LongitudeDegrees>24.7263271920382976531982421875</LongitudeDegrees>
            </Position>
            <AltitudeMeters>343.399993896484375</AltitudeMeters>
            <DistanceMeters>10649.929646287</DistanceMeters>
          </Trackpoint>
          <Trackpoint>
            <Time>2022-09-18T09:21:57.000Z</Time>
            <Position>
              <LatitudeDegrees>40.70038801990449428558349609375</LatitudeDegrees>
              <LongitudeDegrees>24.7263372503221035003662109375</LongitudeDegrees>
            </Position>
            <AltitudeMeters>343.399993896484375</AltitudeMeters>
            <DistanceMeters>10651.414011017</DistanceMeters>
          </Trackpoint>
          <Trackpoint>
            <Time>2022-09-18T09:21:58.000Z</Time>
            <Position>
              <LatitudeDegrees>40.70040076039731502532958984375</LatitudeDegrees>
              <LongitudeDegrees>24.72634613513946533203125</LongitudeDegrees>
            </Position>
            <AltitudeMeters>343.600006103515625</AltitudeMeters>
            <DistanceMeters>10653.015429673</DistanceMeters>
          </Trackpoint>
          <Trackpoint>
            <Time>2022-09-18T09:22:00.000Z</Time>
            <Position>
              <LatitudeDegrees>40.70042557083070278167724609375</LatitudeDegrees>
              <LongitudeDegrees>24.72635661251842975616455078125</LongitudeDegrees>
            </Position>
            <AltitudeMeters>344</AltitudeMeters>
            <DistanceMeters>10655.916469357</DistanceMeters>
          </Trackpoint>
          <Trackpoint>
            <Time>2022-09-18T09:22:05.000Z</Time>
            <Position>
              <LatitudeDegrees>40.700478293001651763916015625</LatitudeDegrees>
              <LongitudeDegrees>24.7263845242559909820556640625</LongitudeDegrees>
            </Position>
            <AltitudeMeters>345.20001220703125</AltitudeMeters>
            <DistanceMeters>10662.239852825</DistanceMeters>
          </Trackpoint>
          <Trackpoint>
            <Time>2022-09-18T09:22:08.000Z</Time>
            <Position>
              <LatitudeDegrees>40.7005190290510654449462890625</LatitudeDegrees>
              <LongitudeDegrees>24.72639667801558971405029296875</LongitudeDegrees>
            </Position>
            <AltitudeMeters>345.79998779296875</AltitudeMeters>
            <DistanceMeters>10666.890340228</DistanceMeters>
          </Trackpoint>
          <Trackpoint>
            <Time>2022-09-18T09:22:09.000Z</Time>
            <Position>
              <LatitudeDegrees>40.70053235627710819244384765625</LatitudeDegrees>
              <LongitudeDegrees>24.7264012880623340606689453125</LongitudeDegrees>
            </Position>
            <AltitudeMeters>346</AltitudeMeters>
            <DistanceMeters>10668.428481973</DistanceMeters>
          </Trackpoint>
          <Trackpoint>
            <Time>2022-09-18T09:22:10.000Z</Time>
            <Position>
              <LatitudeDegrees>40.7005455158650875091552734375</LatitudeDegrees>
              <LongitudeDegrees>24.7264049760997295379638671875</LongitudeDegrees>
            </Position>
            <AltitudeMeters>346.20001220703125</AltitudeMeters>
            <DistanceMeters>10669.924964168</DistanceMeters>
          </Trackpoint>
          <Trackpoint>
            <Time>2022-09-18T09:22:11.000Z</Time>
            <Position>
              <LatitudeDegrees>40.7005599327385425567626953125</LatitudeDegrees>
              <LongitudeDegrees>24.72640581429004669189453125</LongitudeDegrees>
            </Position>
            <AltitudeMeters>346.20001220703125</AltitudeMeters>
            <DistanceMeters>10671.532011729</DistanceMeters>
          </Trackpoint>
          <Trackpoint>
            <Time>2022-09-18T09:22:13.000Z</Time>
            <Position>
              <LatitudeDegrees>40.70059597492218017578125</LatitudeDegrees>
              <LongitudeDegrees>24.7264100052416324615478515625</LongitudeDegrees>
            </Position>
            <AltitudeMeters>346.600006103515625</AltitudeMeters>
            <DistanceMeters>10675.559171682</DistanceMeters>
          </Trackpoint>
          <Trackpoint>
            <Time>2022-09-18T09:22:16.000Z</Time>
            <Position>
              <LatitudeDegrees>40.7006724178791046142578125</LatitudeDegrees>
              <LongitudeDegrees>24.72641545347869396209716796875</LongitudeDegrees>
            </Position>
            <AltitudeMeters>346.79998779296875</AltitudeMeters>
            <DistanceMeters>10684.079841527</DistanceMeters>
          </Trackpoint>
          <Trackpoint>
            <Time>2022-09-18T09:22:18.000Z</Time>
            <Position>
              <LatitudeDegrees>40.7007242180407047271728515625</LatitudeDegrees>
              <LongitudeDegrees>24.72640673629939556121826171875</LongitudeDegrees>
            </Position>
            <AltitudeMeters>347</AltitudeMeters>
            <DistanceMeters>10689.891251503</DistanceMeters>
          </Trackpoint>
          <Trackpoint>
            <Time>2022-09-18T09:22:22.000Z</Time>
            <Position>
              <LatitudeDegrees>40.70080527104437351226806640625</LatitudeDegrees>
              <LongitudeDegrees>24.72633465193212032318115234375</LongitudeDegrees>
            </Position>
            <AltitudeMeters>346.79998779296875</AltitudeMeters>
            <DistanceMeters>10700.770876589</DistanceMeters>
          </Trackpoint>
          <Trackpoint>
            <Time>2022-09-18T09:22:23.000Z</Time>
            <Position>
              <LatitudeDegrees>40.70081784389913082122802734375</LatitudeDegrees>
              <LongitudeDegrees>24.72631369717419147491455078125</LongitudeDegrees>
            </Position>
            <AltitudeMeters>346.79998779296875</AltitudeMeters>
            <DistanceMeters>10703.023631117</DistanceMeters>
          </Trackpoint>
          <Trackpoint>
            <Time>2022-09-18T09:22:24.000Z</Time>
            <Position>
              <LatitudeDegrees>40.70083410479128360748291015625</LatitudeDegrees>
              <LongitudeDegrees>24.7262866236269474029541015625</LongitudeDegrees>
            </Position>
            <AltitudeMeters>346.79998779296875</AltitudeMeters>
            <DistanceMeters>10705.93709501</DistanceMeters>
          </Trackpoint>
          <Trackpoint>
            <Time>2022-09-18T09:22:25.000Z</Time>
            <Position>
              <LatitudeDegrees>40.7008429057896137237548828125</LatitudeDegrees>
              <LongitudeDegrees>24.72625401802361011505126953125</LongitudeDegrees>
            </Position>
            <AltitudeMeters>346.79998779296875</AltitudeMeters>
            <DistanceMeters>10708.856751182</DistanceMeters>
          </Trackpoint>
          <Trackpoint>
            <Time>2022-09-18T09:22:26.000Z</Time>
            <Position>
              <LatitudeDegrees>40.70085790939629077911376953125</LatitudeDegrees>
              <LongitudeDegrees>24.7262252680957317352294921875</LongitudeDegrees>
            </Position>
            <AltitudeMeters>347</AltitudeMeters>
            <DistanceMeters>10711.804111618</DistanceMeters>
          </Trackpoint>
          <Trackpoint>
            <Time>2022-09-18T09:22:28.000Z</Time>
            <Position>
              <LatitudeDegrees>40.700896717607975006103515625</LatitudeDegrees>
              <LongitudeDegrees>24.72617019899189472198486328125</LongitudeDegrees>
            </Position>
            <AltitudeMeters>347.20001220703125</AltitudeMeters>
            <DistanceMeters>10718.148879604</DistanceMeters>
          </Trackpoint>
          <Trackpoint>
            <Time>2022-09-18T09:22:29.000Z</Time>
            <Position>
              <LatitudeDegrees>40.70091716945171356201171875</LatitudeDegrees>
              <LongitudeDegrees>24.726138599216938018798828125</LongitudeDegrees>
            </Position>
            <AltitudeMeters>347.399993896484375</AltitudeMeters>
            <DistanceMeters>10721.655867502</DistanceMeters>
          </Trackpoint>
          <Trackpoint>
            <Time>2022-09-18T09:22:31.000Z</Time>
            <Position>
              <LatitudeDegrees>40.700965784490108489990234375</LatitudeDegrees>
              <LongitudeDegrees>24.72607363946735858917236328125</LongitudeDegrees>
            </Position>
            <AltitudeMeters>347.600006103515625</AltitudeMeters>
            <DistanceMeters>10729.358308818</DistanceMeters>
          </Trackpoint>
          <Trackpoint>
            <Time>2022-09-18T09:22:32.000Z</Time>
            <Position>
              <LatitudeDegrees>40.700985901057720184326171875</LatitudeDegrees>
              <LongitudeDegrees>24.72604279406368732452392578125</LongitudeDegrees>
            </Position>
            <AltitudeMeters>347.79998779296875</AltitudeMeters>
            <DistanceMeters>10732.792443329</DistanceMeters>
          </Trackpoint>
          <Trackpoint>
            <Time>2022-09-18T09:22:34.000Z</Time>
            <Position>
              <LatitudeDegrees>40.701018087565898895263671875</LatitudeDegrees>
              <LongitudeDegrees>24.7259892337024211883544921875</LongitudeDegrees>
            </Position>
            <AltitudeMeters>348.20001220703125</AltitudeMeters>
            <DistanceMeters>10738.559398465</DistanceMeters>
          </Trackpoint>
          <Trackpoint>
            <Time>2022-09-18T09:22:35.000Z</Time>
            <Position>
              <LatitudeDegrees>40.70103124715387821197509765625</LatitudeDegrees>
              <LongitudeDegrees>24.72596861422061920166015625</LongitudeDegrees>
            </Position>
            <AltitudeMeters>348.399993896484375</AltitudeMeters>
            <DistanceMeters>10740.834092687</DistanceMeters>
          </Trackpoint>
          <Trackpoint>
            <Time>2022-09-18T09:22:39.000Z</Time>
            <Position>
              <LatitudeDegrees>40.701065026223659515380859375</LatitudeDegrees>
              <LongitudeDegrees>24.7259258665144443511962890625</LongitudeDegrees>
            </Position>
            <AltitudeMeters>348.79998779296875</AltitudeMeters>
            <DistanceMeters>10746.044122417</DistanceMeters>
          </Trackpoint>
          <Trackpoint>
            <Time>2022-09-18T09:22:40.000Z</Time>
            <Position>
              <LatitudeDegrees>40.70107416249811649322509765625</LatitudeDegrees>
              <LongitudeDegrees>24.72592075355350971221923828125</LongitudeDegrees>
            </Position>
            <AltitudeMeters>348.79998779296875</AltitudeMeters>
            <DistanceMeters>10747.148233063</DistanceMeters>
          </Trackpoint>
          <Trackpoint>
            <Time>2022-09-18T09:22:43.000Z</Time>
            <Position>
              <LatitudeDegrees>40.70109679363667964935302734375</LatitudeDegrees>
              <LongitudeDegrees>24.7258995473384857177734375</LongitudeDegrees>
            </Position>
            <AltitudeMeters>348.79998779296875</AltitudeMeters>
            <DistanceMeters>10750.239158633</DistanceMeters>
          </Trackpoint>
          <Trackpoint>
            <Time>2022-09-18T09:22:48.000Z</Time>
            <Position>
              <LatitudeDegrees>40.7011563889682292938232421875</LatitudeDegrees>
              <LongitudeDegrees>24.725867696106433868408203125</LongitudeDegrees>
            </Position>
            <AltitudeMeters>349</AltitudeMeters>
            <DistanceMeters>10757.39587531</DistanceMeters>
          </Trackpoint>
          <Trackpoint>
            <Time>2022-09-18T09:22:51.000Z</Time>
            <Position>
              <LatitudeDegrees>40.70120290853083133697509765625</LatitudeDegrees>
              <LongitudeDegrees>24.72583224065601825714111328125</LongitudeDegrees>
            </Position>
            <AltitudeMeters>349.399993896484375</AltitudeMeters>
            <DistanceMeters>10763.375766841</DistanceMeters>
          </Trackpoint>
          <Trackpoint>
            <Time>2022-09-18T09:22:57.000Z</Time>
            <Position>
              <LatitudeDegrees>40.70130600593984127044677734375</LatitudeDegrees>
              <LongitudeDegrees>24.72576954402029514312744140625</LongitudeDegrees>
            </Position>
            <AltitudeMeters>350.399993896484375</AltitudeMeters>
            <DistanceMeters>10776.011818901</DistanceMeters>
          </Trackpoint>
          <Trackpoint>
            <Time>2022-09-18T09:23:02.000Z</Time>
            <Position>
              <LatitudeDegrees>40.701423101127147674560546875</LatitudeDegrees>
              <LongitudeDegrees>24.725796282291412353515625</LongitudeDegrees>
            </Position>
            <AltitudeMeters>351</AltitudeMeters>
            <DistanceMeters>10789.238636395</DistanceMeters>
          </Trackpoint>
          <Trackpoint>
            <Time>2022-09-18T09:23:05.000Z</Time>
            <Position>
              <LatitudeDegrees>40.7015261985361576080322265625</LatitudeDegrees>
              <LongitudeDegrees>24.7258474119007587432861328125</LongitudeDegrees>
            </Position>
            <AltitudeMeters>351.20001220703125</AltitudeMeters>
            <DistanceMeters>10801.497819168</DistanceMeters>
          </Trackpoint>
          <Trackpoint>
            <Time>2022-09-18T09:23:06.000Z</Time>
            <Position>
              <LatitudeDegrees>40.70155260153114795684814453125</LatitudeDegrees>
              <LongitudeDegrees>24.72585923038423061370849609375</LongitudeDegrees>
            </Position>
            <AltitudeMeters>351.399993896484375</AltitudeMeters>
            <DistanceMeters>10804.60040865</DistanceMeters>
          </Trackpoint>
          <Trackpoint>
            <Time>2022-09-18T09:23:08.000Z</Time>
            <Position>
              <LatitudeDegrees>40.7016100175678730010986328125</LatitudeDegrees>
              <LongitudeDegrees>24.72589812241494655609130859375</LongitudeDegrees>
            </Position>
            <AltitudeMeters>351.79998779296875</AltitudeMeters>
            <DistanceMeters>10811.784830474</DistanceMeters>
          </Trackpoint>
          <Trackpoint>
            <Time>2022-09-18T09:23:09.000Z</Time>
            <Position>
              <LatitudeDegrees>40.701637677848339080810546875</LatitudeDegrees>
              <LongitudeDegrees>24.7259134612977504730224609375</LongitudeDegrees>
            </Position>
            <AltitudeMeters>352</AltitudeMeters>
            <DistanceMeters>10815.125664874</DistanceMeters>
          </Trackpoint>
          <Trackpoint>
            <Time>2022-09-18T09:23:13.000Z</Time>
            <Position>
              <LatitudeDegrees>40.7017327286303043365478515625</LatitudeDegrees>
              <LongitudeDegrees>24.7259838692843914031982421875</LongitudeDegrees>
            </Position>
            <AltitudeMeters>352.399993896484375</AltitudeMeters>
            <DistanceMeters>10827.259352126</DistanceMeters>
          </Trackpoint>
          <Trackpoint>
            <Time>2022-09-18T09:23:16.000Z</Time>
            <Position>
              <LatitudeDegrees>40.70183389820158481597900390625</LatitudeDegrees>
              <LongitudeDegrees>24.72601898945868015289306640625</LongitudeDegrees>
            </Position>
            <AltitudeMeters>352.399993896484375</AltitudeMeters>
            <DistanceMeters>10838.903130196</DistanceMeters>
          </Trackpoint>
          <Trackpoint>
            <Time>2022-09-18T09:23:22.000Z</Time>
            <Position>
              <LatitudeDegrees>40.7019965909421443939208984375</LatitudeDegrees>
              <LongitudeDegrees>24.7260583005845546722412109375</LongitudeDegrees>
            </Position>
            <AltitudeMeters>352.399993896484375</AltitudeMeters>
            <DistanceMeters>10857.312333572</DistanceMeters>
          </Trackpoint>
          <Trackpoint>
            <Time>2022-09-18T09:23:23.000Z</Time>
            <Position>
              <LatitudeDegrees>40.7020240835845470428466796875</LatitudeDegrees>
              <LongitudeDegrees>24.726058132946491241455078125</LongitudeDegrees>
            </Position>
            <AltitudeMeters>352.399993896484375</AltitudeMeters>
            <DistanceMeters>10860.372429856</DistanceMeters>
          </Trackpoint>
          <Trackpoint>
            <Time>2022-09-18T09:23:29.000Z</Time>
            <Position>
              <LatitudeDegrees>40.7021880336105823516845703125</LatitudeDegrees>
              <LongitudeDegrees>24.72612761892378330230712890625</LongitudeDegrees>
            </Position>
            <AltitudeMeters>352.600006103515625</AltitudeMeters>
            <DistanceMeters>10879.539108491</DistanceMeters>
          </Trackpoint>
          <Trackpoint>
            <Time>2022-09-18T09:23:33.000Z</Time>
            <Position>
              <LatitudeDegrees>40.70226053707301616668701171875</LatitudeDegrees>
              <LongitudeDegrees>24.7262155450880527496337890625</LongitudeDegrees>
            </Position>
            <AltitudeMeters>353.20001220703125</AltitudeMeters>
            <DistanceMeters>10890.500595487</DistanceMeters>
          </Trackpoint>
          <Trackpoint>
            <Time>2022-09-18T09:23:35.000Z</Time>
            <Position>
              <LatitudeDegrees>40.70228903554379940032958984375</LatitudeDegrees>
              <LongitudeDegrees>24.72626793198287487030029296875</LongitudeDegrees>
            </Position>
            <AltitudeMeters>353.399993896484375</AltitudeMeters>
            <DistanceMeters>10895.941237966</DistanceMeters>
          </Trackpoint>
          <Trackpoint>
            <Time>2022-09-18T09:23:36.000Z</Time>
            <Position>
              <LatitudeDegrees>40.70230253040790557861328125</LatitudeDegrees>
              <LongitudeDegrees>24.72628503106534481048583984375</LongitudeDegrees>
            </Position>
            <AltitudeMeters>353.600006103515625</AltitudeMeters>
            <DistanceMeters>10898.023168967</DistanceMeters>
          </Trackpoint>
          <Trackpoint>
            <Time>2022-09-18T09:23:42.000Z</Time>
            <Position>
              <LatitudeDegrees>40.70240713655948638916015625</LatitudeDegrees>
              <LongitudeDegrees>24.726370275020599365234375</LongitudeDegrees>
            </Position>
            <AltitudeMeters>354.600006103515625</AltitudeMeters>
            <DistanceMeters>10911.708335588</DistanceMeters>
          </Trackpoint>
          <Trackpoint>
            <Time>2022-09-18T09:23:44.000Z</Time>
            <Position>
              <LatitudeDegrees>40.70244410075247287750244140625</LatitudeDegrees>
              <LongitudeDegrees>24.7264053113758563995361328125</LongitudeDegrees>
            </Position>
            <AltitudeMeters>354.600006103515625</AltitudeMeters>
            <DistanceMeters>10916.774248858</DistanceMeters>
          </Trackpoint>
          <Trackpoint>
            <Time>2022-09-18T09:23:50.000Z</Time>
            <Position>
              <LatitudeDegrees>40.70259195752441883087158203125</LatitudeDegrees>
              <LongitudeDegrees>24.7264405153691768646240234375</LongitudeDegrees>
            </Position>
            <AltitudeMeters>355.20001220703125</AltitudeMeters>
            <DistanceMeters>10933.497330735</DistanceMeters>
          </Trackpoint>
          <Trackpoint>
            <Time>2022-09-18T09:23:51.000Z</Time>
            <Position>
              <LatitudeDegrees>40.7026285864412784576416015625</LatitudeDegrees>
              <LongitudeDegrees>24.7264415211975574493408203125</LongitudeDegrees>
            </Position>
            <AltitudeMeters>355.399993896484375</AltitudeMeters>
            <DistanceMeters>10937.575737386</DistanceMeters>
          </Trackpoint>
          <Trackpoint>
            <Time>2022-09-18T09:23:57.000Z</Time>
            <Position>
              <LatitudeDegrees>40.702813155949115753173828125</LatitudeDegrees>
              <LongitudeDegrees>24.726404808461666107177734375</LongitudeDegrees>
            </Position>
            <AltitudeMeters>355</AltitudeMeters>
            <DistanceMeters>10958.350976585</DistanceMeters>
          </Trackpoint>
          <Trackpoint>
            <Time>2022-09-18T09:23:59.000Z</Time>
            <Position>
              <LatitudeDegrees>40.70285850204527378082275390625</LatitudeDegrees>
              <LongitudeDegrees>24.72637672908604145050048828125</LongitudeDegrees>
            </Position>
            <AltitudeMeters>354.79998779296875</AltitudeMeters>
            <DistanceMeters>10963.926057134</DistanceMeters>
          </Trackpoint>
          <Trackpoint>
            <Time>2022-09-18T09:24:05.000Z</Time>
            <Position>
              <LatitudeDegrees>40.70295690558850765228271484375</LatitudeDegrees>
              <LongitudeDegrees>24.72631906159222126007080078125</LongitudeDegrees>
            </Position>
            <AltitudeMeters>354</AltitudeMeters>
            <DistanceMeters>10975.910730509</DistanceMeters>
          </Trackpoint>
          <Trackpoint>
            <Time>2022-09-18T09:24:06.000Z</Time>
            <Position>
              <LatitudeDegrees>40.70298087783157825469970703125</LatitudeDegrees>
              <LongitudeDegrees>24.7263094224035739898681640625</LongitudeDegrees>
            </Position>
            <AltitudeMeters>354</AltitudeMeters>
            <DistanceMeters>10978.699080526</DistanceMeters>
          </Trackpoint>
          <Trackpoint>
            <Time>2022-09-18T09:24:12.000Z</Time>
            <Position>
              <LatitudeDegrees>40.70317399688065052032470703125</LatitudeDegrees>
              <LongitudeDegrees>24.72626499831676483154296875</LongitudeDegrees>
            </Position>
            <AltitudeMeters>353.600006103515625</AltitudeMeters>
            <DistanceMeters>11000.517801846</DistanceMeters>
          </Trackpoint>
          <Trackpoint>
            <Time>2022-09-18T09:24:13.000Z</Time>
            <Position>
              <LatitudeDegrees>40.70319972932338714599609375</LatitudeDegrees>
              <LongitudeDegrees>24.726262986660003662109375</LongitudeDegrees>
            </Position>
            <AltitudeMeters>353.399993896484375</AltitudeMeters>
            <DistanceMeters>11003.385971932</DistanceMeters>
          </Trackpoint>
          <Trackpoint>
            <Time>2022-09-18T09:24:19.000Z</Time>
            <Position>
              <LatitudeDegrees>40.70333861745893955230712890625</LatitudeDegrees>
              <LongitudeDegrees>24.726273380219936370849609375</LongitudeDegrees>
            </Position>
            <AltitudeMeters>352.399993896484375</AltitudeMeters>
            <DistanceMeters>11018.869203812</DistanceMeters>
          </Trackpoint>
          <Trackpoint>
            <Time>2022-09-18T09:24:20.000Z</Time>
            <Position>
              <LatitudeDegrees>40.70336175151169300079345703125</LatitudeDegrees>
              <LongitudeDegrees>24.72627128474414348602294921875</LongitudeDegrees>
            </Position>
            <AltitudeMeters>352.600006103515625</AltitudeMeters>
            <DistanceMeters>11021.448964719</DistanceMeters>
          </Trackpoint>
          <Trackpoint>
            <Time>2022-09-18T09:24:25.000Z</Time>
            <Position>
              <LatitudeDegrees>40.70345730520784854888916015625</LatitudeDegrees>
              <LongitudeDegrees>24.7262111864984035491943359375</LongitudeDegrees>
            </Position>
            <AltitudeMeters>352.79998779296875</AltitudeMeters>
            <DistanceMeters>11033.231127728</DistanceMeters>
          </Trackpoint>
          <Trackpoint>
            <Time>2022-09-18T09:24:26.000Z</Time>
            <Position>
              <LatitudeDegrees>40.70347574539482593536376953125</LatitudeDegrees>
              <LongitudeDegrees>24.72619769163429737091064453125</LongitudeDegrees>
            </Position>
            <AltitudeMeters>352.79998779296875</AltitudeMeters>
            <DistanceMeters>11035.578114441</DistanceMeters>
          </Trackpoint>
          <Trackpoint>
            <Time>2022-09-18T09:24:32.000Z</Time>
            <Position>
              <LatitudeDegrees>40.70356040261685848236083984375</LatitudeDegrees>
              <LongitudeDegrees>24.7260941751301288604736328125</LongitudeDegrees>
            </Position>
            <AltitudeMeters>353</AltitudeMeters>
            <DistanceMeters>11048.426063592</DistanceMeters>
          </Trackpoint>
          <Trackpoint>
            <Time>2022-09-18T09:24:35.000Z</Time>
            <Position>
              <LatitudeDegrees>40.70360432378947734832763671875</LatitudeDegrees>
              <LongitudeDegrees>24.7260150499641895294189453125</LongitudeDegrees>
            </Position>
            <AltitudeMeters>353</AltitudeMeters>
            <DistanceMeters>11056.700484394</DistanceMeters>
          </Trackpoint>
          <Trackpoint>
            <Time>2022-09-18T09:24:38.000Z</Time>
            <Position>
              <LatitudeDegrees>40.70365880616009235382080078125</LatitudeDegrees>
              <LongitudeDegrees>24.72592930309474468231201171875</LongitudeDegrees>
            </Position>
            <AltitudeMeters>353.20001220703125</AltitudeMeters>
            <DistanceMeters>11066.140708142</DistanceMeters>
          </Trackpoint>
          <Trackpoint>
            <Time>2022-09-18T09:24:44.000Z</Time>
            <Position>
              <LatitudeDegrees>40.70377112366259098052978515625</LatitudeDegrees>
              <LongitudeDegrees>24.7257464937865734100341796875</LongitudeDegrees>
            </Position>
            <AltitudeMeters>353</AltitudeMeters>
            <DistanceMeters>11085.995379813</DistanceMeters>
          </Trackpoint>
          <Trackpoint>
            <Time>2022-09-18T09:24:46.000Z</Time>
            <Position>
              <LatitudeDegrees>40.70379794575273990631103515625</LatitudeDegrees>
              <LongitudeDegrees>24.725690670311450958251953125</LongitudeDegrees>
            </Position>
            <AltitudeMeters>353</AltitudeMeters>
            <DistanceMeters>11091.572079848</DistanceMeters>
          </Trackpoint>
          <Trackpoint>
            <Time>2022-09-18T09:24:52.000Z</Time>
            <Position>
              <LatitudeDegrees>40.70389618165791034698486328125</LatitudeDegrees>
              <LongitudeDegrees>24.7255426459014415740966796875</LongitudeDegrees>
            </Position>
            <AltitudeMeters>353.20001220703125</AltitudeMeters>
            <DistanceMeters>11108.171318461</DistanceMeters>
          </Trackpoint>
          <Trackpoint>
            <Time>2022-09-18T09:24:58.000Z</Time>
            <Position>
              <LatitudeDegrees>40.70395988412201404571533203125</LatitudeDegrees>
              <LongitudeDegrees>24.7253981418907642364501953125</LongitudeDegrees>
            </Position>
            <AltitudeMeters>353.399993896484375</AltitudeMeters>
            <DistanceMeters>11122.275664743</DistanceMeters>
          </Trackpoint>
          <Trackpoint>
            <Time>2022-09-18T09:25:00.000Z</Time>
            <Position>
              <LatitudeDegrees>40.70397446863353252410888671875</LatitudeDegrees>
              <LongitudeDegrees>24.7253542207181453704833984375</LongitudeDegrees>
            </Position>
            <AltitudeMeters>353.20001220703125</AltitudeMeters>
            <DistanceMeters>11126.320723274</DistanceMeters>
          </Trackpoint>
          <Trackpoint>
            <Time>2022-09-18T09:25:06.000Z</Time>
            <Position>
              <LatitudeDegrees>40.70404060184955596923828125</LatitudeDegrees>
              <LongitudeDegrees>24.72518063150346279144287109375</LongitudeDegrees>
            </Position>
            <AltitudeMeters>353.20001220703125</AltitudeMeters>
            <DistanceMeters>11142.712762643</DistanceMeters>
          </Trackpoint>
          <Trackpoint>
            <Time>2022-09-18T09:25:07.000Z</Time>
            <Position>
              <LatitudeDegrees>40.7040504924952983856201171875</LatitudeDegrees>
              <LongitudeDegrees>24.725147187709808349609375</LongitudeDegrees>
            </Position>
            <AltitudeMeters>353</AltitudeMeters>
            <DistanceMeters>11145.741715872</DistanceMeters>
          </Trackpoint>
          <Trackpoint>
            <Time>2022-09-18T09:25:11.000Z</Time>
            <Position>
              <LatitudeDegrees>40.70413959212601184844970703125</LatitudeDegrees>
              <LongitudeDegrees>24.7250055335462093353271484375</LongitudeDegrees>
            </Position>
            <AltitudeMeters>353.399993896484375</AltitudeMeters>
            <DistanceMeters>11161.272407161</DistanceMeters>
          </Trackpoint>
          <Trackpoint>
            <Time>2022-09-18T09:25:13.000Z</Time>
            <Position>
              <LatitudeDegrees>40.70418275892734527587890625</LatitudeDegrees>
              <LongitudeDegrees>24.7249425016343593597412109375</LongitudeDegrees>
            </Position>
            <AltitudeMeters>353.399993896484375</AltitudeMeters>
            <DistanceMeters>11168.439210829</DistanceMeters>
          </Trackpoint>
          <Trackpoint>
            <Time>2022-09-18T09:25:19.000Z</Time>
            <Position>
              <LatitudeDegrees>40.70427487604320049285888671875</LatitudeDegrees>
              <LongitudeDegrees>24.72476572729647159576416015625</LongitudeDegrees>
            </Position>
            <AltitudeMeters>353.399993896484375</AltitudeMeters>
            <DistanceMeters>11186.538744337</DistanceMeters>
          </Trackpoint>
          <Trackpoint>
            <Time>2022-09-18T09:25:21.000Z</Time>
            <Position>
              <LatitudeDegrees>40.70430169813334941864013671875</LatitudeDegrees>
              <LongitudeDegrees>24.72470722161233425140380859375</LongitudeDegrees>
            </Position>
            <AltitudeMeters>353.79998779296875</AltitudeMeters>
            <DistanceMeters>11192.308047742</DistanceMeters>
          </Trackpoint>
          <Trackpoint>
            <Time>2022-09-18T09:25:26.000Z</Time>
            <Position>
              <LatitudeDegrees>40.70437093265354633331298828125</LatitudeDegrees>
              <LongitudeDegrees>24.72456875257194042205810546875</LongitudeDegrees>
            </Position>
            <AltitudeMeters>354.399993896484375</AltitudeMeters>
            <DistanceMeters>11206.3044215</DistanceMeters>
          </Trackpoint>
          <Trackpoint>
            <Time>2022-09-18T09:25:29.000Z</Time>
            <Position>
              <LatitudeDegrees>40.70440580137073993682861328125</LatitudeDegrees>
              <LongitudeDegrees>24.72450655885040760040283203125</LongitudeDegrees>
            </Position>
            <AltitudeMeters>354.600006103515625</AltitudeMeters>
            <DistanceMeters>11212.830896091</DistanceMeters>
          </Trackpoint>
          <Trackpoint>
            <Time>2022-09-18T09:25:35.000Z</Time>
            <Position>
              <LatitudeDegrees>40.70449783466756343841552734375</LatitudeDegrees>
              <LongitudeDegrees>24.724483005702495574951171875</LongitudeDegrees>
            </Position>
            <AltitudeMeters>354.20001220703125</AltitudeMeters>
            <DistanceMeters>11223.265677438</DistanceMeters>
          </Trackpoint>
          <Trackpoint>
            <Time>2022-09-18T09:25:41.000Z</Time>
            <Position>
              <LatitudeDegrees>40.704660527408123016357421875</LatitudeDegrees>
              <LongitudeDegrees>24.72449876368045806884765625</LongitudeDegrees>
            </Position>
            <AltitudeMeters>354.79998779296875</AltitudeMeters>
            <DistanceMeters>11241.422495188</DistanceMeters>
          </Trackpoint>
          <Trackpoint>
            <Time>2022-09-18T09:25:43.000Z</Time>
            <Position>
              <LatitudeDegrees>40.70471785962581634521484375</LatitudeDegrees>
              <LongitudeDegrees>24.72450035624206066131591796875</LongitudeDegrees>
            </Position>
            <AltitudeMeters>355</AltitudeMeters>
            <DistanceMeters>11247.804159921</DistanceMeters>
          </Trackpoint>
          <Trackpoint>
            <Time>2022-09-18T09:25:49.000Z</Time>
            <Position>
              <LatitudeDegrees>40.70486060343682765960693359375</LatitudeDegrees>
              <LongitudeDegrees>24.724497757852077484130859375</LongitudeDegrees>
            </Position>
            <AltitudeMeters>355.20001220703125</AltitudeMeters>
            <DistanceMeters>11263.693240361</DistanceMeters>
          </Trackpoint>
          <Trackpoint>
            <Time>2022-09-18T09:25:51.000Z</Time>
            <Position>
              <LatitudeDegrees>40.7048933766782283782958984375</LatitudeDegrees>
              <LongitudeDegrees>24.72451142035424709320068359375</LongitudeDegrees>
            </Position>
            <AltitudeMeters>355.399993896484375</AltitudeMeters>
            <DistanceMeters>11267.519172132</DistanceMeters>
          </Trackpoint>
          <Trackpoint>
            <Time>2022-09-18T09:25:52.000Z</Time>
            <Position>
              <LatitudeDegrees>40.70491810329258441925048828125</LatitudeDegrees>
              <LongitudeDegrees>24.72452164627611637115478515625</LongitudeDegrees>
            </Position>
            <AltitudeMeters>355.79998779296875</AltitudeMeters>
            <DistanceMeters>11270.401475087</DistanceMeters>
          </Trackpoint>
          <Trackpoint>
            <Time>2022-09-18T09:25:56.000Z</Time>
            <Position>
              <LatitudeDegrees>40.7050090469419956207275390625</LatitudeDegrees>
              <LongitudeDegrees>24.7245490550994873046875</LongitudeDegrees>
            </Position>
            <AltitudeMeters>356.600006103515625</AltitudeMeters>
            <DistanceMeters>11280.784203659</DistanceMeters>
          </Trackpoint>
          <Trackpoint>
            <Time>2022-09-18T09:25:59.000Z</Time>
            <Position>
              <LatitudeDegrees>40.7050834782421588897705078125</LatitudeDegrees>
              <LongitudeDegrees>24.72458819858729839324951171875</LongitudeDegrees>
            </Position>
            <AltitudeMeters>356.79998779296875</AltitudeMeters>
            <DistanceMeters>11289.702550665</DistanceMeters>
          </Trackpoint>
          <Trackpoint>
            <Time>2022-09-18T09:26:05.000Z</Time>
            <Position>
              <LatitudeDegrees>40.70518816821277141571044921875</LatitudeDegrees>
              <LongitudeDegrees>24.724702946841716766357421875</LongitudeDegrees>
            </Position>
            <AltitudeMeters>356.79998779296875</AltitudeMeters>
            <DistanceMeters>11304.852384095</DistanceMeters>
          </Trackpoint>
          <Trackpoint>
            <Time>2022-09-18T09:26:06.000Z</Time>
            <Position>
              <LatitudeDegrees>40.7052001543343067169189453125</LatitudeDegrees>
              <LongitudeDegrees>24.724723398685455322265625</LongitudeDegrees>
            </Position>
            <AltitudeMeters>357</AltitudeMeters>
            <DistanceMeters>11307.035931751</DistanceMeters>
          </Trackpoint>
          <Trackpoint>
            <Time>2022-09-18T09:26:09.000Z</Time>
            <Position>
              <LatitudeDegrees>40.70522974245250225067138671875</LatitudeDegrees>
              <LongitudeDegrees>24.7247788868844509124755859375</LongitudeDegrees>
            </Position>
            <AltitudeMeters>357.600006103515625</AltitudeMeters>
            <DistanceMeters>11312.759664566</DistanceMeters>
          </Trackpoint>
          <Trackpoint>
            <Time>2022-09-18T09:26:11.000Z</Time>
            <Position>
              <LatitudeDegrees>40.70524047128856182098388671875</LatitudeDegrees>
              <LongitudeDegrees>24.72481115721166133880615234375</LongitudeDegrees>
            </Position>
            <AltitudeMeters>357.600006103515625</AltitudeMeters>
            <DistanceMeters>11315.732953122</DistanceMeters>
          </Trackpoint>
          <Trackpoint>
            <Time>2022-09-18T09:26:13.000Z</Time>
            <Position>
              <LatitudeDegrees>40.7052578218281269073486328125</LatitudeDegrees>
              <LongitudeDegrees>24.7248400747776031494140625</LongitudeDegrees>
            </Position>
            <AltitudeMeters>357.79998779296875</AltitudeMeters>
            <DistanceMeters>11318.844261841</DistanceMeters>
          </Trackpoint>
          <Trackpoint>
            <Time>2022-09-18T09:26:16.000Z</Time>
            <Position>
              <LatitudeDegrees>40.705280788242816925048828125</LatitudeDegrees>
              <LongitudeDegrees>24.7248898632824420928955078125</LongitudeDegrees>
            </Position>
            <AltitudeMeters>358.20001220703125</AltitudeMeters>
            <DistanceMeters>11323.761836926</DistanceMeters>
          </Trackpoint>
          <Trackpoint>
            <Time>2022-09-18T09:26:21.000Z</Time>
            <Position>
              <LatitudeDegrees>40.70530752651393413543701171875</LatitudeDegrees>
              <LongitudeDegrees>24.7249669767916202545166015625</LongitudeDegrees>
            </Position>
            <AltitudeMeters>358.399993896484375</AltitudeMeters>
            <DistanceMeters>11330.917291729</DistanceMeters>
          </Trackpoint>
          <Trackpoint>
            <Time>2022-09-18T09:26:24.000Z</Time>
            <Position>
              <LatitudeDegrees>40.70533074438571929931640625</LatitudeDegrees>
              <LongitudeDegrees>24.7250142507255077362060546875</LongitudeDegrees>
            </Position>
            <AltitudeMeters>358.600006103515625</AltitudeMeters>
            <DistanceMeters>11335.670527602</DistanceMeters>
          </Trackpoint>
          <Trackpoint>
            <Time>2022-09-18T09:26:28.000Z</Time>
            <Position>
              <LatitudeDegrees>40.70537365972995758056640625</LatitudeDegrees>
              <LongitudeDegrees>24.7251141630113124847412109375</LongitudeDegrees>
            </Position>
            <AltitudeMeters>358.79998779296875</AltitudeMeters>
            <DistanceMeters>11345.360457161</DistanceMeters>
          </Trackpoint>
          <Trackpoint>
            <Time>2022-09-18T09:26:32.000Z</Time>
            <Position>
              <LatitudeDegrees>40.70543409325182437896728515625</LatitudeDegrees>
              <LongitudeDegrees>24.725234024226665496826171875</LongitudeDegrees>
            </Position>
            <AltitudeMeters>359.600006103515625</AltitudeMeters>
            <DistanceMeters>11357.506789486</DistanceMeters>
          </Trackpoint>
          <Trackpoint>
            <Time>2022-09-18T09:26:33.000Z</Time>
            <Position>
              <LatitudeDegrees>40.70545303635299205780029296875</LatitudeDegrees>
              <LongitudeDegrees>24.7252633608877658843994140625</LongitudeDegrees>
            </Position>
            <AltitudeMeters>360</AltitudeMeters>
            <DistanceMeters>11360.759980165</DistanceMeters>
          </Trackpoint>
          <Trackpoint>
            <Time>2022-09-18T09:26:36.000Z</Time>
            <Position>
              <LatitudeDegrees>40.70549444295465946197509765625</LatitudeDegrees>
              <LongitudeDegrees>24.725352711975574493408203125</LongitudeDegrees>
            </Position>
            <AltitudeMeters>360.399993896484375</AltitudeMeters>
            <DistanceMeters>11369.595931779</DistanceMeters>
          </Trackpoint>
          <Trackpoint>
            <Time>2022-09-18T09:26:38.000Z</Time>
            <Position>
              <LatitudeDegrees>40.70550911128520965576171875</LatitudeDegrees>
              <LongitudeDegrees>24.72541272640228271484375</LongitudeDegrees>
            </Position>
            <AltitudeMeters>360.79998779296875</AltitudeMeters>
            <DistanceMeters>11374.915730608</DistanceMeters>
          </Trackpoint>
          <Trackpoint>
            <Time>2022-09-18T09:26:39.000Z</Time>
            <Position>
              <LatitudeDegrees>40.7055146433413028717041015625</LatitudeDegrees>
              <LongitudeDegrees>24.7254383750259876251220703125</LongitudeDegrees>
            </Position>
            <AltitudeMeters>360.79998779296875</AltitudeMeters>
            <DistanceMeters>11377.166480013</DistanceMeters>
          </Trackpoint>
          <Trackpoint>
            <Time>2022-09-18T09:26:40.000Z</Time>
            <Position>
              <LatitudeDegrees>40.7055218517780303955078125</LatitudeDegrees>
              <LongitudeDegrees>24.7254584915935993194580078125</LongitudeDegrees>
            </Position>
            <AltitudeMeters>361</AltitudeMeters>
            <DistanceMeters>11379.045511649</DistanceMeters>
          </Trackpoint>
          <Trackpoint>
            <Time>2022-09-18T09:26:42.000Z</Time>
            <Position>
              <LatitudeDegrees>40.70554104633629322052001953125</LatitudeDegrees>
              <LongitudeDegrees>24.7254940308630466461181640625</LongitudeDegrees>
            </Position>
            <AltitudeMeters>361.20001220703125</AltitudeMeters>
            <DistanceMeters>11382.727107056</DistanceMeters>
          </Trackpoint>
          <Trackpoint>
            <Time>2022-09-18T09:26:48.000Z</Time>
            <Position>
              <LatitudeDegrees>40.7055914215743541717529296875</LatitudeDegrees>
              <LongitudeDegrees>24.7255615890026092529296875</LongitudeDegrees>
            </Position>
            <AltitudeMeters>361.600006103515625</AltitudeMeters>
            <DistanceMeters>11390.722350089</DistanceMeters>
          </Trackpoint>
          <Trackpoint>
            <Time>2022-09-18T09:26:50.000Z</Time>
            <Position>
              <LatitudeDegrees>40.70562520064413547515869140625</LatitudeDegrees>
              <LongitudeDegrees>24.7255778498947620391845703125</LongitudeDegrees>
            </Position>
            <AltitudeMeters>361.600006103515625</AltitudeMeters>
            <DistanceMeters>11394.725896727</DistanceMeters>
          </Trackpoint>
          <Trackpoint>
            <Time>2022-09-18T09:26:56.000Z</Time>
            <Position>
              <LatitudeDegrees>40.705719329416751861572265625</LatitudeDegrees>
              <LongitudeDegrees>24.725602827966213226318359375</LongitudeDegrees>
            </Position>
            <AltitudeMeters>361.79998779296875</AltitudeMeters>
            <DistanceMeters>11405.412494726</DistanceMeters>
          </Trackpoint>
          <Trackpoint>
            <Time>2022-09-18T09:26:57.000Z</Time>
            <Position>
              <LatitudeDegrees>40.705734752118587493896484375</LatitudeDegrees>
              <LongitudeDegrees>24.72560911439359188079833984375</LongitudeDegrees>
            </Position>
            <AltitudeMeters>362</AltitudeMeters>
            <DistanceMeters>11407.207971624</DistanceMeters>
          </Trackpoint>
          <Trackpoint>
            <Time>2022-09-18T09:26:58.000Z</Time>
            <Position>
              <LatitudeDegrees>40.70574707351624965667724609375</LatitudeDegrees>
              <LongitudeDegrees>24.7256164066493511199951171875</LongitudeDegrees>
            </Position>
            <AltitudeMeters>362.20001220703125</AltitudeMeters>
            <DistanceMeters>11408.710475904</DistanceMeters>
          </Trackpoint>
          <Trackpoint>
            <Time>2022-09-18T09:27:02.000Z</Time>
            <Position>
              <LatitudeDegrees>40.7058173976838588714599609375</LatitudeDegrees>
              <LongitudeDegrees>24.72565001808106899261474609375</LongitudeDegrees>
            </Position>
            <AltitudeMeters>362.399993896484375</AltitudeMeters>
            <DistanceMeters>11417.036030947</DistanceMeters>
          </Trackpoint>
          <Trackpoint>
            <Time>2022-09-18T09:27:03.000Z</Time>
            <Position>
              <LatitudeDegrees>40.705839693546295166015625</LatitudeDegrees>
              <LongitudeDegrees>24.72565471194684505462646484375</LongitudeDegrees>
            </Position>
            <AltitudeMeters>362.600006103515625</AltitudeMeters>
            <DistanceMeters>11419.546607247</DistanceMeters>
          </Trackpoint>
          <Trackpoint>
            <Time>2022-09-18T09:27:06.000Z</Time>
            <Position>
              <LatitudeDegrees>40.7059089280664920806884765625</LatitudeDegrees>
              <LongitudeDegrees>24.72569259814918041229248046875</LongitudeDegrees>
            </Position>
            <AltitudeMeters>362.600006103515625</AltitudeMeters>
            <DistanceMeters>11427.889498187</DistanceMeters>
          </Trackpoint>
          <Trackpoint>
            <Time>2022-09-18T09:27:09.000Z</Time>
            <Position>
              <LatitudeDegrees>40.7059719599783420562744140625</LatitudeDegrees>
              <LongitudeDegrees>24.72574288956820964813232421875</LongitudeDegrees>
            </Position>
            <AltitudeMeters>362.79998779296875</AltitudeMeters>
            <DistanceMeters>11436.088822496</DistanceMeters>
          </Trackpoint>
          <Trackpoint>
            <Time>2022-09-18T09:27:11.000Z</Time>
            <Position>
              <LatitudeDegrees>40.70600473321974277496337890625</LatitudeDegrees>
              <LongitudeDegrees>24.72579435445368289947509765625</LongitudeDegrees>
            </Position>
            <AltitudeMeters>362.79998779296875</AltitudeMeters>
            <DistanceMeters>11441.760253735</DistanceMeters>
          </Trackpoint>
          <Trackpoint>
            <Time>2022-09-18T09:27:13.000Z</Time>
            <Position>
              <LatitudeDegrees>40.7060329802334308624267578125</LatitudeDegrees>
              <LongitudeDegrees>24.72583425231277942657470703125</LongitudeDegrees>
            </Position>
            <AltitudeMeters>362.399993896484375</AltitudeMeters>
            <DistanceMeters>11446.366844626</DistanceMeters>
          </Trackpoint>
          <Trackpoint>
            <Time>2022-09-18T09:27:14.000Z</Time>
            <Position>
              <LatitudeDegrees>40.7060544379055500030517578125</LatitudeDegrees>
              <LongitudeDegrees>24.72585001029074192047119140625</LongitudeDegrees>
            </Position>
            <AltitudeMeters>362</AltitudeMeters>
            <DistanceMeters>11449.1012373</DistanceMeters>
          </Trackpoint>
          <Trackpoint>
            <Time>2022-09-18T09:27:18.000Z</Time>
            <Position>
              <LatitudeDegrees>40.70611520670354366302490234375</LatitudeDegrees>
              <LongitudeDegrees>24.7259570471942424774169921875</LongitudeDegrees>
            </Position>
            <AltitudeMeters>362</AltitudeMeters>
            <DistanceMeters>11460.384234141</DistanceMeters>
          </Trackpoint>
          <Trackpoint>
            <Time>2022-09-18T09:27:20.000Z</Time>
            <Position>
              <LatitudeDegrees>40.70614638738334178924560546875</LatitudeDegrees>
              <LongitudeDegrees>24.7260039858520030975341796875</LongitudeDegrees>
            </Position>
            <AltitudeMeters>362</AltitudeMeters>
            <DistanceMeters>11465.650291942</DistanceMeters>
          </Trackpoint>
          <Trackpoint>
            <Time>2022-09-18T09:27:21.000Z</Time>
            <Position>
              <LatitudeDegrees>40.70616625249385833740234375</LatitudeDegrees>
              <LongitudeDegrees>24.7260277904570102691650390625</LongitudeDegrees>
            </Position>
            <AltitudeMeters>362</AltitudeMeters>
            <DistanceMeters>11468.638727252</DistanceMeters>
          </Trackpoint>
          <Trackpoint>
            <Time>2022-09-18T09:27:23.000Z</Time>
            <Position>
              <LatitudeDegrees>40.70620170794427394866943359375</LatitudeDegrees>
              <LongitudeDegrees>24.72608034498989582061767578125</LongitudeDegrees>
            </Position>
            <AltitudeMeters>361.79998779296875</AltitudeMeters>
            <DistanceMeters>11474.574665112</DistanceMeters>
          </Trackpoint>
          <Trackpoint>
            <Time>2022-09-18T09:27:25.000Z</Time>
            <Position>
              <LatitudeDegrees>40.706231631338596343994140625</LatitudeDegrees>
              <LongitudeDegrees>24.72612527199089527130126953125</LongitudeDegrees>
            </Position>
            <AltitudeMeters>361.79998779296875</AltitudeMeters>
            <DistanceMeters>11479.620037794</DistanceMeters>
          </Trackpoint>
          <Trackpoint>
            <Time>2022-09-18T09:27:27.000Z</Time>
            <Position>
              <LatitudeDegrees>40.70625434629619121551513671875</LatitudeDegrees>
              <LongitudeDegrees>24.726166091859340667724609375</LongitudeDegrees>
            </Position>
            <AltitudeMeters>362</AltitudeMeters>
            <DistanceMeters>11483.893071209</DistanceMeters>
          </Trackpoint>
          <Trackpoint>
            <Time>2022-09-18T09:28:38.000Z</Time>
            <Position>
              <LatitudeDegrees>40.706391222774982452392578125</LatitudeDegrees>
              <LongitudeDegrees>24.72635082900524139404296875</LongitudeDegrees>
            </Position>
            <AltitudeMeters>360.399993896484375</AltitudeMeters>
            <DistanceMeters>11505.688810737</DistanceMeters>
          </Trackpoint>
          <Trackpoint>
            <Time>2022-09-18T09:28:39.000Z</Time>
            <Position>
              <LatitudeDegrees>40.7063989341259002685546875</LatitudeDegrees>
              <LongitudeDegrees>24.72634471021592617034912109375</LongitudeDegrees>
            </Position>
            <AltitudeMeters>360.20001220703125</AltitudeMeters>
            <DistanceMeters>11506.689979297</DistanceMeters>
          </Trackpoint>
          <Trackpoint>
            <Time>2022-09-18T09:28:43.000Z</Time>
            <Position>
              <LatitudeDegrees>40.70648870430886745452880859375</LatitudeDegrees>
              <LongitudeDegrees>24.72628586925566196441650390625</LongitudeDegrees>
            </Position>
            <AltitudeMeters>360.20001220703125</AltitudeMeters>
            <DistanceMeters>11517.847022085</DistanceMeters>
          </Trackpoint>
          <Trackpoint>
            <Time>2022-09-18T09:28:48.000Z</Time>
            <Position>
              <LatitudeDegrees>40.70660521276295185089111328125</LatitudeDegrees>
              <LongitudeDegrees>24.7261789999902248382568359375</LongitudeDegrees>
            </Position>
            <AltitudeMeters>359.20001220703125</AltitudeMeters>
            <DistanceMeters>11533.641479716</DistanceMeters>
          </Trackpoint>
          <Trackpoint>
            <Time>2022-09-18T09:28:50.000Z</Time>
            <Position>
              <LatitudeDegrees>40.70664460770785808563232421875</LatitudeDegrees>
              <LongitudeDegrees>24.7261250205338001251220703125</LongitudeDegrees>
            </Position>
            <AltitudeMeters>358.600006103515625</AltitudeMeters>
            <DistanceMeters>11539.963434978</DistanceMeters>
          </Trackpoint>
          <Trackpoint>
            <Time>2022-09-18T09:28:52.000Z</Time>
            <Position>
              <LatitudeDegrees>40.70667184889316558837890625</LatitudeDegrees>
              <LongitudeDegrees>24.72606559284031391143798828125</LongitudeDegrees>
            </Position>
            <AltitudeMeters>358</AltitudeMeters>
            <DistanceMeters>11545.822816399</DistanceMeters>
          </Trackpoint>
          <Trackpoint>
            <Time>2022-09-18T09:28:54.000Z</Time>
            <Position>
              <LatitudeDegrees>40.706696994602680206298828125</LatitudeDegrees>
              <LongitudeDegrees>24.72600339911878108978271484375</LongitudeDegrees>
            </Position>
            <AltitudeMeters>356.79998779296875</AltitudeMeters>
            <DistanceMeters>11551.769393512</DistanceMeters>
          </Trackpoint>
          <Trackpoint>
            <Time>2022-09-18T09:28:56.000Z</Time>
            <Position>
              <LatitudeDegrees>40.7067323662340641021728515625</LatitudeDegrees>
              <LongitudeDegrees>24.72593969665467739105224609375</LongitudeDegrees>
            </Position>
            <AltitudeMeters>356.20001220703125</AltitudeMeters>
            <DistanceMeters>11558.432114863</DistanceMeters>
          </Trackpoint>
          <Trackpoint>
            <Time>2022-09-18T09:28:58.000Z</Time>
            <Position>
              <LatitudeDegrees>40.7067685760557651519775390625</LatitudeDegrees>
              <LongitudeDegrees>24.7258638404309749603271484375</LongitudeDegrees>
            </Position>
            <AltitudeMeters>355.600006103515625</AltitudeMeters>
            <DistanceMeters>11565.996145822</DistanceMeters>
          </Trackpoint>
          <Trackpoint>
            <Time>2022-09-18T09:29:01.000Z</Time>
            <Position>
              <LatitudeDegrees>40.70681626908481121063232421875</LatitudeDegrees>
              <LongitudeDegrees>24.725732244551181793212890625</LongitudeDegrees>
            </Position>
            <AltitudeMeters>354.600006103515625</AltitudeMeters>
            <DistanceMeters>11578.302747388</DistanceMeters>
          </Trackpoint>
          <Trackpoint>
            <Time>2022-09-18T09:29:02.000Z</Time>
            <Position>
              <LatitudeDegrees>40.70681945420801639556884765625</LatitudeDegrees>
              <LongitudeDegrees>24.7256911732256412506103515625</LongitudeDegrees>
            </Position>
            <AltitudeMeters>354.20001220703125</AltitudeMeters>
            <DistanceMeters>11581.786484281</DistanceMeters>
          </Trackpoint>
          <Trackpoint>
            <Time>2022-09-18T09:29:04.000Z</Time>
            <Position>
              <LatitudeDegrees>40.7068173587322235107421875</LatitudeDegrees>
              <LongitudeDegrees>24.72561188042163848876953125</LongitudeDegrees>
            </Position>
            <AltitudeMeters>354</AltitudeMeters>
            <DistanceMeters>11588.480305262</DistanceMeters>
          </Trackpoint>
          <Trackpoint>
            <Time>2022-09-18T09:29:07.000Z</Time>
            <Position>
              <LatitudeDegrees>40.70682900957763195037841796875</LatitudeDegrees>
              <LongitudeDegrees>24.72550836391746997833251953125</LongitudeDegrees>
            </Position>
            <AltitudeMeters>353.79998779296875</AltitudeMeters>
            <DistanceMeters>11597.310122928</DistanceMeters>
          </Trackpoint>
          <Trackpoint>
            <Time>2022-09-18T09:29:12.000Z</Time>
            <Position>
              <LatitudeDegrees>40.70692255161702632904052734375</LatitudeDegrees>
              <LongitudeDegrees>24.7254142351448535919189453125</LongitudeDegrees>
            </Position>
            <AltitudeMeters>353.600006103515625</AltitudeMeters>
            <DistanceMeters>11610.404514533</DistanceMeters>
          </Trackpoint>
          <Trackpoint>
            <Time>2022-09-18T09:29:13.000Z</Time>
            <Position>
              <LatitudeDegrees>40.7069583423435688018798828125</LatitudeDegrees>
              <LongitudeDegrees>24.72538095898926258087158203125</LongitudeDegrees>
            </Position>
            <AltitudeMeters>353.399993896484375</AltitudeMeters>
            <DistanceMeters>11615.277819474</DistanceMeters>
          </Trackpoint>
          <Trackpoint>
            <Time>2022-09-18T09:29:18.000Z</Time>
            <Position>
              <LatitudeDegrees>40.7070733420550823211669921875</LatitudeDegrees>
              <LongitudeDegrees>24.72526947967708110809326171875</LongitudeDegrees>
            </Position>
            <AltitudeMeters>352.399993896484375</AltitudeMeters>
            <DistanceMeters>11631.161784214</DistanceMeters>
          </Trackpoint>
          <Trackpoint>
            <Time>2022-09-18T09:29:19.000Z</Time>
            <Position>
              <LatitudeDegrees>40.7070894353091716766357421875</LatitudeDegrees>
              <LongitudeDegrees>24.725248776376247406005859375</LongitudeDegrees>
            </Position>
            <AltitudeMeters>352.399993896484375</AltitudeMeters>
            <DistanceMeters>11633.66515655</DistanceMeters>
          </Trackpoint>
          <Trackpoint>
            <Time>2022-09-18T09:29:25.000Z</Time>
            <Position>
              <LatitudeDegrees>40.70718121714890003204345703125</LatitudeDegrees>
              <LongitudeDegrees>24.72514291293919086456298828125</LongitudeDegrees>
            </Position>
            <AltitudeMeters>352</AltitudeMeters>
            <DistanceMeters>11647.235024598</DistanceMeters>
          </Trackpoint>
          <Trackpoint>
            <Time>2022-09-18T09:29:27.000Z</Time>
            <Position>
              <LatitudeDegrees>40.70720669813454151153564453125</LatitudeDegrees>
              <LongitudeDegrees>24.7251061163842678070068359375</LongitudeDegrees>
            </Position>
            <AltitudeMeters>351.399993896484375</AltitudeMeters>
            <DistanceMeters>11651.439889599</DistanceMeters>
          </Trackpoint>
          <Trackpoint>
            <Time>2022-09-18T09:29:30.000Z</Time>
            <Position>
              <LatitudeDegrees>40.70724726654589176177978515625</LatitudeDegrees>
              <LongitudeDegrees>24.72506797872483730316162109375</LongitudeDegrees>
            </Position>
            <AltitudeMeters>351</AltitudeMeters>
            <DistanceMeters>11656.984110032</DistanceMeters>
          </Trackpoint>
          <Trackpoint>
            <Time>2022-09-18T09:29:32.000Z</Time>
            <Position>
              <LatitudeDegrees>40.707280375063419342041015625</LatitudeDegrees>
              <LongitudeDegrees>24.7250393964350223541259765625</LongitudeDegrees>
            </Position>
            <AltitudeMeters>350.600006103515625</AltitudeMeters>
            <DistanceMeters>11661.388267636</DistanceMeters>
          </Trackpoint>
          <Trackpoint>
            <Time>2022-09-18T09:29:34.000Z</Time>
            <Position>
              <LatitudeDegrees>40.70731692016124725341796875</LatitudeDegrees>
              <LongitudeDegrees>24.7250092215836048126220703125</LongitudeDegrees>
            </Position>
            <AltitudeMeters>350.20001220703125</AltitudeMeters>
            <DistanceMeters>11666.186881492</DistanceMeters>
          </Trackpoint>
          <Trackpoint>
            <Time>2022-09-18T09:29:36.000Z</Time>
            <Position>
              <LatitudeDegrees>40.70736092515289783477783203125</LatitudeDegrees>
              <LongitudeDegrees>24.7249736823141574859619140625</LongitudeDegrees>
            </Position>
            <AltitudeMeters>349.600006103515625</AltitudeMeters>
            <DistanceMeters>11671.930301139</DistanceMeters>
          </Trackpoint>
          <Trackpoint>
            <Time>2022-09-18T09:29:38.000Z</Time>
            <Position>
              <LatitudeDegrees>40.70740384049713611602783203125</LatitudeDegrees>
              <LongitudeDegrees>24.72494074143469333648681640625</LongitudeDegrees>
            </Position>
            <AltitudeMeters>349.20001220703125</AltitudeMeters>
            <DistanceMeters>11677.458210209</DistanceMeters>
          </Trackpoint>
          <Trackpoint>
            <Time>2022-09-18T09:29:39.000Z</Time>
            <Position>
              <LatitudeDegrees>40.70742144249379634857177734375</LatitudeDegrees>
              <LongitudeDegrees>24.72492389380931854248046875</LongitudeDegrees>
            </Position>
            <AltitudeMeters>348.79998779296875</AltitudeMeters>
            <DistanceMeters>11679.879061219</DistanceMeters>
          </Trackpoint>
          <Trackpoint>
            <Time>2022-09-18T09:29:42.000Z</Time>
            <Position>
              <LatitudeDegrees>40.70747424848377704620361328125</LatitudeDegrees>
              <LongitudeDegrees>24.72486547194421291351318359375</LongitudeDegrees>
            </Position>
            <AltitudeMeters>347.79998779296875</AltitudeMeters>
            <DistanceMeters>11687.548606053</DistanceMeters>
          </Trackpoint>
          <Trackpoint>
            <Time>2022-09-18T09:29:46.000Z</Time>
            <Position>
              <LatitudeDegrees>40.7075319997966289520263671875</LatitudeDegrees>
              <LongitudeDegrees>24.72476027905941009521484375</LongitudeDegrees>
            </Position>
            <AltitudeMeters>346.79998779296875</AltitudeMeters>
            <DistanceMeters>11698.506797352</DistanceMeters>
          </Trackpoint>
          <Trackpoint>
            <Time>2022-09-18T09:29:47.000Z</Time>
            <Position>
              <LatitudeDegrees>40.70751816965639591217041015625</LatitudeDegrees>
              <LongitudeDegrees>24.72472381778061389923095703125</LongitudeDegrees>
            </Position>
            <AltitudeMeters>346.399993896484375</AltitudeMeters>
            <DistanceMeters>11701.946186854</DistanceMeters>
          </Trackpoint>
          <Trackpoint>
            <Time>2022-09-18T09:29:50.000Z</Time>
            <Position>
              <LatitudeDegrees>40.7074850611388683319091796875</LatitudeDegrees>
              <LongitudeDegrees>24.724624492228031158447265625</LongitudeDegrees>
            </Position>
            <AltitudeMeters>345</AltitudeMeters>
            <DistanceMeters>11711.100372202</DistanceMeters>
          </Trackpoint>
          <Trackpoint>
            <Time>2022-09-18T09:29:53.000Z</Time>
            <Position>
              <LatitudeDegrees>40.70749453268945217132568359375</LatitudeDegrees>
              <LongitudeDegrees>24.72453287802636623382568359375</LongitudeDegrees>
            </Position>
            <AltitudeMeters>344</AltitudeMeters>
            <DistanceMeters>11718.901828171</DistanceMeters>
          </Trackpoint>
          <Trackpoint>
            <Time>2022-09-18T09:29:55.000Z</Time>
            <Position>
              <LatitudeDegrees>40.707518756389617919921875</LatitudeDegrees>
              <LongitudeDegrees>24.724483676254749298095703125</LongitudeDegrees>
            </Position>
            <AltitudeMeters>343.20001220703125</AltitudeMeters>
            <DistanceMeters>11723.851433953</DistanceMeters>
          </Trackpoint>
          <Trackpoint>
            <Time>2022-09-18T09:30:00.000Z</Time>
            <Position>
              <LatitudeDegrees>40.70757248438894748687744140625</LatitudeDegrees>
              <LongitudeDegrees>24.7243607975542545318603515625</LongitudeDegrees>
            </Position>
            <AltitudeMeters>343.399993896484375</AltitudeMeters>
            <DistanceMeters>11735.819519537</DistanceMeters>
          </Trackpoint>
          <Trackpoint>
            <Time>2022-09-18T09:30:04.000Z</Time>
            <Position>
              <LatitudeDegrees>40.7076047547161579132080078125</LatitudeDegrees>
              <LongitudeDegrees>24.72426733933389186859130859375</LongitudeDegrees>
            </Position>
            <AltitudeMeters>344.399993896484375</AltitudeMeters>
            <DistanceMeters>11744.484163532</DistanceMeters>
          </Trackpoint>
          <Trackpoint>
            <Time>2022-09-18T09:30:06.000Z</Time>
            <Position>
              <LatitudeDegrees>40.70763409137725830078125</LatitudeDegrees>
              <LongitudeDegrees>24.72422383725643157958984375</LongitudeDegrees>
            </Position>
            <AltitudeMeters>344.600006103515625</AltitudeMeters>
            <DistanceMeters>11749.397145756</DistanceMeters>
          </Trackpoint>
          <Trackpoint>
            <Time>2022-09-18T09:30:07.000Z</Time>
            <Position>
              <LatitudeDegrees>40.7076516933739185333251953125</LatitudeDegrees>
              <LongitudeDegrees>24.7242028824985027313232421875</LongitudeDegrees>
            </Position>
            <AltitudeMeters>344.79998779296875</AltitudeMeters>
            <DistanceMeters>11752.03745237</DistanceMeters>
          </Trackpoint>
          <Trackpoint>
            <Time>2022-09-18T09:30:08.000Z</Time>
            <Position>
              <LatitudeDegrees>40.7076622545719146728515625</LatitudeDegrees>
              <LongitudeDegrees>24.72418385557830333709716796875</LongitudeDegrees>
            </Position>
            <AltitudeMeters>345</AltitudeMeters>
            <DistanceMeters>11754.028483148</DistanceMeters>
          </Trackpoint>
          <Trackpoint>
            <Time>2022-09-18T09:30:11.000Z</Time>
            <Position>
              <LatitudeDegrees>40.70769519545137882232666015625</LatitudeDegrees>
              <LongitudeDegrees>24.7241150401532649993896484375</LongitudeDegrees>
            </Position>
            <AltitudeMeters>346</AltitudeMeters>
            <DistanceMeters>11760.89543729</DistanceMeters>
          </Trackpoint>
          <Trackpoint>
            <Time>2022-09-18T09:30:12.000Z</Time>
            <Position>
              <LatitudeDegrees>40.70770273916423320770263671875</LatitudeDegrees>
              <LongitudeDegrees>24.724096767604351043701171875</LongitudeDegrees>
            </Position>
            <AltitudeMeters>346.20001220703125</AltitudeMeters>
            <DistanceMeters>11762.652789316</DistanceMeters>
          </Trackpoint>
          <Trackpoint>
            <Time>2022-09-18T09:30:15.000Z</Time>
            <Position>
              <LatitudeDegrees>40.7077427208423614501953125</LatitudeDegrees>
              <LongitudeDegrees>24.72404505126178264617919921875</LongitudeDegrees>
            </Position>
            <AltitudeMeters>347.399993896484375</AltitudeMeters>
            <DistanceMeters>11768.884107692</DistanceMeters>
          </Trackpoint>
          <Trackpoint>
            <Time>2022-09-18T09:30:20.000Z</Time>
            <Position>
              <LatitudeDegrees>40.7077770866453647613525390625</LatitudeDegrees>
              <LongitudeDegrees>24.72395000047981739044189453125</LongitudeDegrees>
            </Position>
            <AltitudeMeters>348.20001220703125</AltitudeMeters>
            <DistanceMeters>11777.768978444</DistanceMeters>
          </Trackpoint>
          <Trackpoint>
            <Time>2022-09-18T09:30:22.000Z</Time>
            <Position>
              <LatitudeDegrees>40.7077901624143123626708984375</LatitudeDegrees>
              <LongitudeDegrees>24.723907671868801116943359375</LongitudeDegrees>
            </Position>
            <AltitudeMeters>348.399993896484375</AltitudeMeters>
            <DistanceMeters>11781.624300198</DistanceMeters>
          </Trackpoint>
          <Trackpoint>
            <Time>2022-09-18T09:30:27.000Z</Time>
            <Position>
              <LatitudeDegrees>40.70784774608910083770751953125</LatitudeDegrees>
              <LongitudeDegrees>24.723825193941593170166015625</LongitudeDegrees>
            </Position>
            <AltitudeMeters>349.399993896484375</AltitudeMeters>
            <DistanceMeters>11791.085067488</DistanceMeters>
          </Trackpoint>
          <Trackpoint>
            <Time>2022-09-18T09:30:28.000Z</Time>
            <Position>
              <LatitudeDegrees>40.70786601863801479339599609375</LatitudeDegrees>
              <LongitudeDegrees>24.72381412982940673828125</LongitudeDegrees>
            </Position>
            <AltitudeMeters>349.600006103515625</AltitudeMeters>
            <DistanceMeters>11793.321730706</DistanceMeters>
          </Trackpoint>
          <Trackpoint>
            <Time>2022-09-18T09:30:34.000Z</Time>
            <Position>
              <LatitudeDegrees>40.707945562899112701416015625</LatitudeDegrees>
              <LongitudeDegrees>24.7237878106534481048583984375</LongitudeDegrees>
            </Position>
            <AltitudeMeters>350.20001220703125</AltitudeMeters>
            <DistanceMeters>11802.449243251</DistanceMeters>
          </Trackpoint>
          <Trackpoint>
            <Time>2022-09-18T09:30:36.000Z</Time>
            <Position>
              <LatitudeDegrees>40.70797045715153217315673828125</LatitudeDegrees>
              <LongitudeDegrees>24.7237832844257354736328125</LongitudeDegrees>
            </Position>
            <AltitudeMeters>350.399993896484375</AltitudeMeters>
            <DistanceMeters>11805.245677803</DistanceMeters>
          </Trackpoint>
          <Trackpoint>
            <Time>2022-09-18T09:30:37.000Z</Time>
            <Position>
              <LatitudeDegrees>40.70798051543533802032470703125</LatitudeDegrees>
              <LongitudeDegrees>24.7237847931683063507080078125</LongitudeDegrees>
            </Position>
            <AltitudeMeters>350.600006103515625</AltitudeMeters>
            <DistanceMeters>11806.37004905</DistanceMeters>
          </Trackpoint>
          <Trackpoint>
            <Time>2022-09-18T09:30:40.000Z</Time>
            <Position>
              <LatitudeDegrees>40.70802276022732257843017578125</LatitudeDegrees>
              <LongitudeDegrees>24.72380298189818859100341796875</LongitudeDegrees>
            </Position>
            <AltitudeMeters>351</AltitudeMeters>
            <DistanceMeters>11811.31600468</DistanceMeters>
          </Trackpoint>
          <Trackpoint>
            <Time>2022-09-18T09:30:43.000Z</Time>
            <Position>
              <LatitudeDegrees>40.70808277465403079986572265625</LatitudeDegrees>
              <LongitudeDegrees>24.72381957806646823883056640625</LongitudeDegrees>
            </Position>
            <AltitudeMeters>351.600006103515625</AltitudeMeters>
            <DistanceMeters>11818.140748946</DistanceMeters>
          </Trackpoint>
          <Trackpoint>
            <Time>2022-09-18T09:30:47.000Z</Time>
            <Position>
              <LatitudeDegrees>40.70815586484968662261962890625</LatitudeDegrees>
              <LongitudeDegrees>24.723847322165966033935546875</LongitudeDegrees>
            </Position>
            <AltitudeMeters>352.20001220703125</AltitudeMeters>
            <DistanceMeters>11826.606130606</DistanceMeters>
          </Trackpoint>
          <Trackpoint>
            <Time>2022-09-18T09:30:50.000Z</Time>
            <Position>
              <LatitudeDegrees>40.70820883847773075103759765625</LatitudeDegrees>
              <LongitudeDegrees>24.7238562069833278656005859375</LongitudeDegrees>
            </Position>
            <AltitudeMeters>352.79998779296875</AltitudeMeters>
            <DistanceMeters>11832.550429482</DistanceMeters>
          </Trackpoint>
          <Trackpoint>
            <Time>2022-09-18T09:30:51.000Z</Time>
            <Position>
              <LatitudeDegrees>40.70822727866470813751220703125</LatitudeDegrees>
              <LongitudeDegrees>24.7238622419536113739013671875</LongitudeDegrees>
            </Position>
            <AltitudeMeters>353</AltitudeMeters>
            <DistanceMeters>11834.666774897</DistanceMeters>
          </Trackpoint>
          <Trackpoint>
            <Time>2022-09-18T09:30:57.000Z</Time>
            <Position>
              <LatitudeDegrees>40.708327107131481170654296875</LatitudeDegrees>
              <LongitudeDegrees>24.72388009540736675262451171875</LongitudeDegrees>
            </Position>
            <AltitudeMeters>353.600006103515625</AltitudeMeters>
            <DistanceMeters>11845.879121853</DistanceMeters>
          </Trackpoint>
          <Trackpoint>
            <Time>2022-09-18T09:30:58.000Z</Time>
            <Position>
              <LatitudeDegrees>40.70834227837622165679931640625</LatitudeDegrees>
              <LongitudeDegrees>24.72388185560703277587890625</LongitudeDegrees>
            </Position>
            <AltitudeMeters>353.79998779296875</AltitudeMeters>
            <DistanceMeters>11847.573690916</DistanceMeters>
          </Trackpoint>
          <Trackpoint>
            <Time>2022-09-18T09:31:04.000Z</Time>
            <Position>
              <LatitudeDegrees>40.70843196474015712738037109375</LatitudeDegrees>
              <LongitudeDegrees>24.7238736413419246673583984375</LongitudeDegrees>
            </Position>
            <AltitudeMeters>354.600006103515625</AltitudeMeters>
            <DistanceMeters>11857.579512098</DistanceMeters>
          </Trackpoint>
          <Trackpoint>
            <Time>2022-09-18T09:31:06.000Z</Time>
            <Position>
              <LatitudeDegrees>40.70846381597220897674560546875</LatitudeDegrees>
              <LongitudeDegrees>24.7238645888864994049072265625</LongitudeDegrees>
            </Position>
            <AltitudeMeters>355</AltitudeMeters>
            <DistanceMeters>11861.205500419</DistanceMeters>
          </Trackpoint>
          <Trackpoint>
            <Time>2022-09-18T09:31:12.000Z</Time>
            <Position>
              <LatitudeDegrees>40.7085586152970790863037109375</LatitudeDegrees>
              <LongitudeDegrees>24.72380465827882289886474609375</LongitudeDegrees>
            </Position>
            <AltitudeMeters>355.20001220703125</AltitudeMeters>
            <DistanceMeters>11872.906140956</DistanceMeters>
          </Trackpoint>
          <Trackpoint>
            <Time>2022-09-18T09:31:15.000Z</Time>
            <Position>
              <LatitudeDegrees>40.7085975073277950286865234375</LatitudeDegrees>
              <LongitudeDegrees>24.72378605045378208160400390625</LongitudeDegrees>
            </Position>
            <AltitudeMeters>355.399993896484375</AltitudeMeters>
            <DistanceMeters>11877.510771179</DistanceMeters>
          </Trackpoint>
          <Trackpoint>
            <Time>2022-09-18T09:31:18.000Z</Time>
            <Position>
              <LatitudeDegrees>40.70863430388271808624267578125</LatitudeDegrees>
              <LongitudeDegrees>24.72377196885645389556884765625</LongitudeDegrees>
            </Position>
            <AltitudeMeters>356</AltitudeMeters>
            <DistanceMeters>11881.773225144</DistanceMeters>
          </Trackpoint>
          <Trackpoint>
            <Time>2022-09-18T09:31:19.000Z</Time>
            <Position>
              <LatitudeDegrees>40.70864997804164886474609375</LatitudeDegrees>
              <LongitudeDegrees>24.72376442514359951019287109375</LongitudeDegrees>
            </Position>
            <AltitudeMeters>356</AltitudeMeters>
            <DistanceMeters>11883.630505198</DistanceMeters>
          </Trackpoint>
          <Trackpoint>
            <Time>2022-09-18T09:31:23.000Z</Time>
            <Position>
              <LatitudeDegrees>40.70869884453713893890380859375</LatitudeDegrees>
              <LongitudeDegrees>24.72375587560236454010009765625</LongitudeDegrees>
            </Position>
            <AltitudeMeters>356.399993896484375</AltitudeMeters>
            <DistanceMeters>11889.115777727</DistanceMeters>
          </Trackpoint>
          <Trackpoint>
            <Time>2022-09-18T09:31:24.000Z</Time>
            <Position>
              <LatitudeDegrees>40.708711333572864532470703125</LatitudeDegrees>
              <LongitudeDegrees>24.7237537801265716552734375</LongitudeDegrees>
            </Position>
            <AltitudeMeters>356.399993896484375</AltitudeMeters>
            <DistanceMeters>11890.515608641</DistanceMeters>
          </Trackpoint>
          <Trackpoint>
            <Time>2022-09-18T09:31:27.000Z</Time>
            <Position>
              <LatitudeDegrees>40.70875550620257854461669921875</LatitudeDegrees>
              <LongitudeDegrees>24.72375252284109592437744140625</LongitudeDegrees>
            </Position>
            <AltitudeMeters>357</AltitudeMeters>
            <DistanceMeters>11895.433183726</DistanceMeters>
          </Trackpoint>
          <Trackpoint>
            <Time>2022-09-18T09:31:31.000Z</Time>
            <Position>
              <LatitudeDegrees>40.7087949849665164947509765625</LatitudeDegrees>
              <LongitudeDegrees>24.72377347759902477264404296875</LongitudeDegrees>
            </Position>
            <AltitudeMeters>357.399993896484375</AltitudeMeters>
            <DistanceMeters>11900.169290765</DistanceMeters>
          </Trackpoint>
          <Trackpoint>
            <Time>2022-09-18T09:31:35.000Z</Time>
            <Position>
              <LatitudeDegrees>40.70885307155549526214599609375</LatitudeDegrees>
              <LongitudeDegrees>24.7238136269152164459228515625</LongitudeDegrees>
            </Position>
            <AltitudeMeters>358.20001220703125</AltitudeMeters>
            <DistanceMeters>11907.467193948</DistanceMeters>
          </Trackpoint>
          <Trackpoint>
            <Time>2022-09-18T09:31:40.000Z</Time>
            <Position>
              <LatitudeDegrees>40.70893990807235240936279296875</LatitudeDegrees>
              <LongitudeDegrees>24.72384522669017314910888671875</LongitudeDegrees>
            </Position>
            <AltitudeMeters>358.600006103515625</AltitudeMeters>
            <DistanceMeters>11917.493300419</DistanceMeters>
          </Trackpoint>
          <Trackpoint>
            <Time>2022-09-18T09:31:42.000Z</Time>
            <Position>
              <LatitudeDegrees>40.7089669816195964813232421875</LatitudeDegrees>
              <LongitudeDegrees>24.72386836074292659759521484375</LongitudeDegrees>
            </Position>
            <AltitudeMeters>358.600006103515625</AltitudeMeters>
            <DistanceMeters>11921.084254215</DistanceMeters>
          </Trackpoint>
          <Trackpoint>
            <Time>2022-09-18T09:31:45.000Z</Time>
            <Position>
              <LatitudeDegrees>40.70899791084229946136474609375</LatitudeDegrees>
              <LongitudeDegrees>24.72389501519501209259033203125</LongitudeDegrees>
            </Position>
            <AltitudeMeters>358.79998779296875</AltitudeMeters>
            <DistanceMeters>11925.195738509</DistanceMeters>
          </Trackpoint>
          <Trackpoint>
            <Time>2022-09-18T09:31:49.000Z</Time>
            <Position>
              <LatitudeDegrees>40.7090558297932147979736328125</LatitudeDegrees>
              <LongitudeDegrees>24.72394287586212158203125</LongitudeDegrees>
            </Position>
            <AltitudeMeters>359.20001220703125</AltitudeMeters>
            <DistanceMeters>11932.802625511</DistanceMeters>
          </Trackpoint>
          <Trackpoint>
            <Time>2022-09-18T09:31:52.000Z</Time>
            <Position>
              <LatitudeDegrees>40.70910989306867122650146484375</LatitudeDegrees>
              <LongitudeDegrees>24.7240139544010162353515625</LongitudeDegrees>
            </Position>
            <AltitudeMeters>360.20001220703125</AltitudeMeters>
            <DistanceMeters>11941.297822444</DistanceMeters>
          </Trackpoint>
          <Trackpoint>
            <Time>2022-09-18T09:31:53.000Z</Time>
            <Position>
              <LatitudeDegrees>40.70912481285631656646728515625</LatitudeDegrees>
              <LongitudeDegrees>24.72403868101537227630615234375</LongitudeDegrees>
            </Position>
            <AltitudeMeters>360.399993896484375</AltitudeMeters>
            <DistanceMeters>11943.965349434</DistanceMeters>
          </Trackpoint>
          <Trackpoint>
            <Time>2022-09-18T09:31:59.000Z</Time>
            <Position>
              <LatitudeDegrees>40.70921299047768115997314453125</LatitudeDegrees>
              <LongitudeDegrees>24.7241824306547641754150390625</LongitudeDegrees>
            </Position>
            <AltitudeMeters>360.399993896484375</AltitudeMeters>
            <DistanceMeters>11959.567103842</DistanceMeters>
          </Trackpoint>
          <Trackpoint>
            <Time>2022-09-18T09:32:00.000Z</Time>
            <Position>
              <LatitudeDegrees>40.70922304876148700714111328125</LatitudeDegrees>
              <LongitudeDegrees>24.72421335987746715545654296875</LongitudeDegrees>
            </Position>
            <AltitudeMeters>360.399993896484375</AltitudeMeters>
            <DistanceMeters>11962.405206763</DistanceMeters>
          </Trackpoint>
          <Trackpoint>
            <Time>2022-09-18T09:32:04.000Z</Time>
            <Position>
              <LatitudeDegrees>40.70927887223660945892333984375</LatitudeDegrees>
              <LongitudeDegrees>24.7243205644190311431884765625</LongitudeDegrees>
            </Position>
            <AltitudeMeters>360.20001220703125</AltitudeMeters>
            <DistanceMeters>11973.379043806</DistanceMeters>
          </Trackpoint>
          <Trackpoint>
            <Time>2022-09-18T09:32:07.000Z</Time>
            <Position>
              <LatitudeDegrees>40.7093270681798458099365234375</LatitudeDegrees>
              <LongitudeDegrees>24.7244053892791271209716796875</LongitudeDegrees>
            </Position>
            <AltitudeMeters>359</AltitudeMeters>
            <DistanceMeters>11982.323677801</DistanceMeters>
          </Trackpoint>
          <Trackpoint>
            <Time>2022-09-18T09:32:08.000Z</Time>
            <Position>
              <LatitudeDegrees>40.70934441871941089630126953125</LatitudeDegrees>
              <LongitudeDegrees>24.72443447448313236236572265625</LongitudeDegrees>
            </Position>
            <AltitudeMeters>358.399993896484375</AltitudeMeters>
            <DistanceMeters>11985.448019753</DistanceMeters>
          </Trackpoint>
          <Trackpoint>
            <Time>2022-09-18T09:32:10.000Z</Time>
            <Position>
              <LatitudeDegrees>40.7093864120543003082275390625</LatitudeDegrees>
              <LongitudeDegrees>24.72449448890984058380126953125</LongitudeDegrees>
            </Position>
            <AltitudeMeters>357.79998779296875</AltitudeMeters>
            <DistanceMeters>11992.33925854</DistanceMeters>
          </Trackpoint>
          <Trackpoint>
            <Time>2022-09-18T09:32:12.000Z</Time>
            <Position>
              <LatitudeDegrees>40.70943050086498260498046875</LatitudeDegrees>
              <LongitudeDegrees>24.7245482169091701507568359375</LongitudeDegrees>
            </Position>
            <AltitudeMeters>357.79998779296875</AltitudeMeters>
            <DistanceMeters>11999.019575732</DistanceMeters>
          </Trackpoint>
          <Trackpoint>
            <Time>2022-09-18T09:32:14.000Z</Time>
            <Position>
              <LatitudeDegrees>40.709463693201541900634765625</LatitudeDegrees>
              <LongitudeDegrees>24.724601022899150848388671875</LongitudeDegrees>
            </Position>
            <AltitudeMeters>358.399993896484375</AltitudeMeters>
            <DistanceMeters>12004.807630985</DistanceMeters>
          </Trackpoint>
          <Trackpoint>
            <Time>2022-09-18T09:32:16.000Z</Time>
            <Position>
              <LatitudeDegrees>40.70949059911072254180908203125</LatitudeDegrees>
              <LongitudeDegrees>24.72466128878295421600341796875</LongitudeDegrees>
            </Position>
            <AltitudeMeters>359.20001220703125</AltitudeMeters>
            <DistanceMeters>12010.708476243</DistanceMeters>
          </Trackpoint>
          <Trackpoint>
            <Time>2022-09-18T09:32:17.000Z</Time>
            <Position>
              <LatitudeDegrees>40.70950560271739959716796875</LatitudeDegrees>
              <LongitudeDegrees>24.724690206348896026611328125</LongitudeDegrees>
            </Position>
            <AltitudeMeters>359.399993896484375</AltitudeMeters>
            <DistanceMeters>12013.665013745</DistanceMeters>
          </Trackpoint>
          <Trackpoint>
            <Time>2022-09-18T09:32:18.000Z</Time>
            <Position>
              <LatitudeDegrees>40.7095221988856792449951171875</LatitudeDegrees>
              <LongitudeDegrees>24.72471811808645725250244140625</LongitudeDegrees>
            </Position>
            <AltitudeMeters>359.79998779296875</AltitudeMeters>
            <DistanceMeters>12016.657978134</DistanceMeters>
          </Trackpoint>
          <Trackpoint>
            <Time>2022-09-18T09:32:20.000Z</Time>
            <Position>
              <LatitudeDegrees>40.70955128408968448638916015625</LatitudeDegrees>
              <LongitudeDegrees>24.7247721813619136810302734375</LongitudeDegrees>
            </Position>
            <AltitudeMeters>360.20001220703125</AltitudeMeters>
            <DistanceMeters>12022.250847236</DistanceMeters>
          </Trackpoint>
          <Trackpoint>
            <Time>2022-09-18T09:32:22.000Z</Time>
            <Position>
              <LatitudeDegrees>40.709583051502704620361328125</LatitudeDegrees>
              <LongitudeDegrees>24.7248171083629131317138671875</LongitudeDegrees>
            </Position>
            <AltitudeMeters>360.399993896484375</AltitudeMeters>
            <DistanceMeters>12027.434813623</DistanceMeters>
          </Trackpoint>
          <Trackpoint>
            <Time>2022-09-18T09:32:23.000Z</Time>
            <Position>
              <LatitudeDegrees>40.70959839038550853729248046875</LatitudeDegrees>
              <LongitudeDegrees>24.7248389013111591339111328125</LongitudeDegrees>
            </Position>
            <AltitudeMeters>360.600006103515625</AltitudeMeters>
            <DistanceMeters>12029.945389923</DistanceMeters>
          </Trackpoint>
          <Trackpoint>
            <Time>2022-09-18T09:32:26.000Z</Time>
            <Position>
              <LatitudeDegrees>40.70965890772640705108642578125</LatitudeDegrees>
              <LongitudeDegrees>24.72490109503269195556640625</LongitudeDegrees>
            </Position>
            <AltitudeMeters>360.399993896484375</AltitudeMeters>
            <DistanceMeters>12038.484057103</DistanceMeters>
          </Trackpoint>
          <Trackpoint>
            <Time>2022-09-18T09:32:31.000Z</Time>
            <Position>
              <LatitudeDegrees>40.709750019013881683349609375</LatitudeDegrees>
              <LongitudeDegrees>24.72499103285372257232666015625</LongitudeDegrees>
            </Position>
            <AltitudeMeters>360.600006103515625</AltitudeMeters>
            <DistanceMeters>12051.14937502</DistanceMeters>
          </Trackpoint>
          <Trackpoint>
            <Time>2022-09-18T09:32:37.000Z</Time>
            <Position>
              <LatitudeDegrees>40.7098883204162120819091796875</LatitudeDegrees>
              <LongitudeDegrees>24.7250222973525524139404296875</LongitudeDegrees>
            </Position>
            <AltitudeMeters>361</AltitudeMeters>
            <DistanceMeters>12066.766748831</DistanceMeters>
          </Trackpoint>
          <Trackpoint>
            <Time>2022-09-18T09:32:42.000Z</Time>
            <Position>
              <LatitudeDegrees>40.70997356437146663665771484375</LatitudeDegrees>
              <LongitudeDegrees>24.7249079681932926177978515625</LongitudeDegrees>
            </Position>
            <AltitudeMeters>360</AltitudeMeters>
            <DistanceMeters>12080.296630933</DistanceMeters>
          </Trackpoint>
          <Trackpoint>
            <Time>2022-09-18T09:32:47.000Z</Time>
            <Position>
              <LatitudeDegrees>40.7099372707307338714599609375</LatitudeDegrees>
              <LongitudeDegrees>24.724749214947223663330078125</LongitudeDegrees>
            </Position>
            <AltitudeMeters>360.20001220703125</AltitudeMeters>
            <DistanceMeters>12094.286551477</DistanceMeters>
          </Trackpoint>
          <Trackpoint>
            <Time>2022-09-18T09:32:53.000Z</Time>
            <Position>
              <LatitudeDegrees>40.7098616659641265869140625</LatitudeDegrees>
              <LongitudeDegrees>24.72457998432219028472900390625</LongitudeDegrees>
            </Position>
            <AltitudeMeters>360.399993896484375</AltitudeMeters>
            <DistanceMeters>12110.859657257</DistanceMeters>
          </Trackpoint>
          <Trackpoint>
            <Time>2022-09-18T09:32:55.000Z</Time>
            <Position>
              <LatitudeDegrees>40.7098447345197200775146484375</LatitudeDegrees>
              <LongitudeDegrees>24.72451485693454742431640625</LongitudeDegrees>
            </Position>
            <AltitudeMeters>360.20001220703125</AltitudeMeters>
            <DistanceMeters>12116.668735985</DistanceMeters>
          </Trackpoint>
          <Trackpoint>
            <Time>2022-09-18T09:32:58.000Z</Time>
            <Position>
              <LatitudeDegrees>40.7098276354372501373291015625</LatitudeDegrees>
              <LongitudeDegrees>24.7244090773165225982666015625</LongitudeDegrees>
            </Position>
            <AltitudeMeters>359.79998779296875</AltitudeMeters>
            <DistanceMeters>12125.793280073</DistanceMeters>
          </Trackpoint>
          <Trackpoint>
            <Time>2022-09-18T09:33:01.000Z</Time>
            <Position>
              <LatitudeDegrees>40.709807686507701873779296875</LatitudeDegrees>
              <LongitudeDegrees>24.72430807538330554962158203125</LongitudeDegrees>
            </Position>
            <AltitudeMeters>359</AltitudeMeters>
            <DistanceMeters>12134.59954469</DistanceMeters>
          </Trackpoint>
          <Trackpoint>
            <Time>2022-09-18T09:33:03.000Z</Time>
            <Position>
              <LatitudeDegrees>40.709795616567134857177734375</LatitudeDegrees>
              <LongitudeDegrees>24.72423515282571315765380859375</LongitudeDegrees>
            </Position>
            <AltitudeMeters>358.79998779296875</AltitudeMeters>
            <DistanceMeters>12140.897170889</DistanceMeters>
          </Trackpoint>
          <Trackpoint>
            <Time>2022-09-18T09:33:09.000Z</Time>
            <Position>
              <LatitudeDegrees>40.70978279225528240203857421875</LatitudeDegrees>
              <LongitudeDegrees>24.7240191511809825897216796875</LongitudeDegrees>
            </Position>
            <AltitudeMeters>359.399993896484375</AltitudeMeters>
            <DistanceMeters>12159.176912373</DistanceMeters>
          </Trackpoint>
          <Trackpoint>
            <Time>2022-09-18T09:33:11.000Z</Time>
            <Position>
              <LatitudeDegrees>40.7097984664142131805419921875</LatitudeDegrees>
              <LongitudeDegrees>24.72394513897597789764404296875</LongitudeDegrees>
            </Position>
            <AltitudeMeters>359.600006103515625</AltitudeMeters>
            <DistanceMeters>12165.659656836</DistanceMeters>
          </Trackpoint>
          <Trackpoint>
            <Time>2022-09-18T09:33:17.000Z</Time>
            <Position>
              <LatitudeDegrees>40.7098858058452606201171875</LatitudeDegrees>
              <LongitudeDegrees>24.723797701299190521240234375</LongitudeDegrees>
            </Position>
            <AltitudeMeters>359</AltitudeMeters>
            <DistanceMeters>12181.447252284</DistanceMeters>
          </Trackpoint>
          <Trackpoint>
            <Time>2022-09-18T09:33:23.000Z</Time>
            <Position>
              <LatitudeDegrees>40.7099662721157073974609375</LatitudeDegrees>
              <LongitudeDegrees>24.72367909736931324005126953125</LongitudeDegrees>
            </Position>
            <AltitudeMeters>358.399993896484375</AltitudeMeters>
            <DistanceMeters>12194.876648649</DistanceMeters>
          </Trackpoint>
          <Trackpoint>
            <Time>2022-09-18T09:33:25.000Z</Time>
            <Position>
              <LatitudeDegrees>40.70999770425260066986083984375</LatitudeDegrees>
              <LongitudeDegrees>24.72363769076764583587646484375</LongitudeDegrees>
            </Position>
            <AltitudeMeters>358</AltitudeMeters>
            <DistanceMeters>12199.820778191</DistanceMeters>
          </Trackpoint>
          <Trackpoint>
            <Time>2022-09-18T09:33:31.000Z</Time>
            <Position>
              <LatitudeDegrees>40.71011572144925594329833984375</LatitudeDegrees>
              <LongitudeDegrees>24.72347290255129337310791015625</LongitudeDegrees>
            </Position>
            <AltitudeMeters>357</AltitudeMeters>
            <DistanceMeters>12218.947368502</DistanceMeters>
          </Trackpoint>
          <Trackpoint>
            <Time>2022-09-18T09:33:36.000Z</Time>
            <Position>
              <LatitudeDegrees>40.71018076501786708831787109375</LatitudeDegrees>
              <LongitudeDegrees>24.7233539633452892303466796875</LongitudeDegrees>
            </Position>
            <AltitudeMeters>356.20001220703125</AltitudeMeters>
            <DistanceMeters>12231.320561947</DistanceMeters>
          </Trackpoint>
          <Trackpoint>
            <Time>2022-09-18T09:33:37.000Z</Time>
            <Position>
              <LatitudeDegrees>40.71020029485225677490234375</LatitudeDegrees>
              <LongitudeDegrees>24.72332806326448917388916015625</LongitudeDegrees>
            </Position>
            <AltitudeMeters>356</AltitudeMeters>
            <DistanceMeters>12234.402710616</DistanceMeters>
          </Trackpoint>
          <Trackpoint>
            <Time>2022-09-18T09:33:38.000Z</Time>
            <Position>
              <LatitudeDegrees>40.71022267453372478485107421875</LatitudeDegrees>
              <LongitudeDegrees>24.72330425865948200225830078125</LongitudeDegrees>
            </Position>
            <AltitudeMeters>355.600006103515625</AltitudeMeters>
            <DistanceMeters>12237.602727286</DistanceMeters>
          </Trackpoint>
          <Trackpoint>
            <Time>2022-09-18T09:33:42.000Z</Time>
            <Position>
              <LatitudeDegrees>40.7102758996188640594482421875</LatitudeDegrees>
              <LongitudeDegrees>24.72321130335330963134765625</LongitudeDegrees>
            </Position>
            <AltitudeMeters>354.399993896484375</AltitudeMeters>
            <DistanceMeters>12247.431448352</DistanceMeters>
          </Trackpoint>
          <Trackpoint>
            <Time>2022-09-18T09:33:44.000Z</Time>
            <Position>
              <LatitudeDegrees>40.71028889156877994537353515625</LatitudeDegrees>
              <LongitudeDegrees>24.72315472550690174102783203125</LongitudeDegrees>
            </Position>
            <AltitudeMeters>354</AltitudeMeters>
            <DistanceMeters>12252.418314154</DistanceMeters>
          </Trackpoint>
          <Trackpoint>
            <Time>2022-09-18T09:33:46.000Z</Time>
            <Position>
              <LatitudeDegrees>40.7102638296782970428466796875</LatitudeDegrees>
              <LongitudeDegrees>24.7230907715857028961181640625</LongitudeDegrees>
            </Position>
            <AltitudeMeters>353.20001220703125</AltitudeMeters>
            <DistanceMeters>12258.492595375</DistanceMeters>
          </Trackpoint>
          <Trackpoint>
            <Time>2022-09-18T09:33:49.000Z</Time>
            <Position>
              <LatitudeDegrees>40.710226781666278839111328125</LatitudeDegrees>
              <LongitudeDegrees>24.722991026937961578369140625</LongitudeDegrees>
            </Position>
            <AltitudeMeters>352</AltitudeMeters>
            <DistanceMeters>12267.864657772</DistanceMeters>
          </Trackpoint>
          <Trackpoint>
            <Time>2022-09-18T09:33:53.000Z</Time>
            <Position>
              <LatitudeDegrees>40.71018462069332599639892578125</LatitudeDegrees>
              <LongitudeDegrees>24.7228606045246124267578125</LongitudeDegrees>
            </Position>
            <AltitudeMeters>350.600006103515625</AltitudeMeters>
            <DistanceMeters>12279.827460599</DistanceMeters>
          </Trackpoint>
          <Trackpoint>
            <Time>2022-09-18T09:33:55.000Z</Time>
            <Position>
              <LatitudeDegrees>40.71018311195075511932373046875</LatitudeDegrees>
              <LongitudeDegrees>24.722783826291561126708984375</LongitudeDegrees>
            </Position>
            <AltitudeMeters>350</AltitudeMeters>
            <DistanceMeters>12286.307418582</DistanceMeters>
          </Trackpoint>
          <Trackpoint>
            <Time>2022-09-18T09:33:58.000Z</Time>
            <Position>
              <LatitudeDegrees>40.71020825766026973724365234375</LatitudeDegrees>
              <LongitudeDegrees>24.7226820699870586395263671875</LongitudeDegrees>
            </Position>
            <AltitudeMeters>349.600006103515625</AltitudeMeters>
            <DistanceMeters>12295.337456804</DistanceMeters>
          </Trackpoint>
          <Trackpoint>
            <Time>2022-09-18T09:34:00.000Z</Time>
            <Position>
              <LatitudeDegrees>40.7102209143340587615966796875</LatitudeDegrees>
              <LongitudeDegrees>24.72263270057737827301025390625</LongitudeDegrees>
            </Position>
            <AltitudeMeters>349.399993896484375</AltitudeMeters>
            <DistanceMeters>12299.733405347</DistanceMeters>
          </Trackpoint>
          <Trackpoint>
            <Time>2022-09-18T09:34:06.000Z</Time>
            <Position>
              <LatitudeDegrees>40.7102997042238712310791015625</LatitudeDegrees>
              <LongitudeDegrees>24.722488783299922943115234375</LongitudeDegrees>
            </Position>
            <AltitudeMeters>349.20001220703125</AltitudeMeters>
            <DistanceMeters>12314.711496653</DistanceMeters>
          </Trackpoint>
          <Trackpoint>
            <Time>2022-09-18T09:34:07.000Z</Time>
            <Position>
              <LatitudeDegrees>40.7103144563734531402587890625</LatitudeDegrees>
              <LongitudeDegrees>24.72246321849524974822998046875</LongitudeDegrees>
            </Position>
            <AltitudeMeters>349</AltitudeMeters>
            <DistanceMeters>12317.42267393</DistanceMeters>
          </Trackpoint>
          <Trackpoint>
            <Time>2022-09-18T09:34:09.000Z</Time>
            <Position>
              <LatitudeDegrees>40.7103498280048370361328125</LatitudeDegrees>
              <LongitudeDegrees>24.722414351999759674072265625</LongitudeDegrees>
            </Position>
            <AltitudeMeters>348.399993896484375</AltitudeMeters>
            <DistanceMeters>12323.122692793</DistanceMeters>
          </Trackpoint>
          <Trackpoint>
            <Time>2022-09-18T09:34:12.000Z</Time>
            <Position>
              <LatitudeDegrees>40.7103908993303775787353515625</LatitudeDegrees>
              <LongitudeDegrees>24.72233128733932971954345703125</LongitudeDegrees>
            </Position>
            <AltitudeMeters>347.399993896484375</AltitudeMeters>
            <DistanceMeters>12331.490441161</DistanceMeters>
          </Trackpoint>
          <Trackpoint>
            <Time>2022-09-18T09:34:15.000Z</Time>
            <Position>
              <LatitudeDegrees>40.71042870171368122100830078125</LatitudeDegrees>
              <LongitudeDegrees>24.72225601784884929656982421875</LongitudeDegrees>
            </Position>
            <AltitudeMeters>347</AltitudeMeters>
            <DistanceMeters>12339.109189837</DistanceMeters>
          </Trackpoint>
          <Trackpoint>
            <Time>2022-09-18T09:34:19.000Z</Time>
            <Position>
              <LatitudeDegrees>40.71045988239347934722900390625</LatitudeDegrees>
              <LongitudeDegrees>24.7221657447516918182373046875</LongitudeDegrees>
            </Position>
            <AltitudeMeters>346.20001220703125</AltitudeMeters>
            <DistanceMeters>12347.479096231</DistanceMeters>
          </Trackpoint>
          <Trackpoint>
            <Time>2022-09-18T09:34:21.000Z</Time>
            <Position>
              <LatitudeDegrees>40.7104596309363842010498046875</LatitudeDegrees>
              <LongitudeDegrees>24.72211956046521663665771484375</LongitudeDegrees>
            </Position>
            <AltitudeMeters>346</AltitudeMeters>
            <DistanceMeters>12351.37635021</DistanceMeters>
          </Trackpoint>
          <Trackpoint>
            <Time>2022-09-18T09:34:27.000Z</Time>
            <Position>
              <LatitudeDegrees>40.71047983132302761077880859375</LatitudeDegrees>
              <LongitudeDegrees>24.7219971008598804473876953125</LongitudeDegrees>
            </Position>
            <AltitudeMeters>345.79998779296875</AltitudeMeters>
            <DistanceMeters>12361.94996721</DistanceMeters>
          </Trackpoint>
          <Trackpoint>
            <Time>2022-09-18T09:34:28.000Z</Time>
            <Position>
              <LatitudeDegrees>40.7104887999594211578369140625</LatitudeDegrees>
              <LongitudeDegrees>24.7219749726355075836181640625</LongitudeDegrees>
            </Position>
            <AltitudeMeters>345.600006103515625</AltitudeMeters>
            <DistanceMeters>12364.066312625</DistanceMeters>
          </Trackpoint>
          <Trackpoint>
            <Time>2022-09-18T09:34:29.000Z</Time>
            <Position>
              <LatitudeDegrees>40.7104978524148464202880859375</LatitudeDegrees>
              <LongitudeDegrees>24.7219531796872615814208984375</LongitudeDegrees>
            </Position>
            <AltitudeMeters>345</AltitudeMeters>
            <DistanceMeters>12366.165521358</DistanceMeters>
          </Trackpoint>
          <Trackpoint>
            <Time>2022-09-18T09:34:34.000Z</Time>
            <Position>
              <LatitudeDegrees>40.7104975171387195587158203125</LatitudeDegrees>
              <LongitudeDegrees>24.721819572150707244873046875</LongitudeDegrees>
            </Position>
            <AltitudeMeters>344</AltitudeMeters>
            <DistanceMeters>12377.438109158</DistanceMeters>
          </Trackpoint>
          <Trackpoint>
            <Time>2022-09-18T09:34:51.000Z</Time>
            <Position>
              <LatitudeDegrees>40.71058862842619419097900390625</LatitudeDegrees>
              <LongitudeDegrees>24.72162469290196895599365234375</LongitudeDegrees>
            </Position>
            <AltitudeMeters>342.399993896484375</AltitudeMeters>
            <DistanceMeters>12396.755429857</DistanceMeters>
          </Trackpoint>
          <Trackpoint>
            <Time>2022-09-18T09:34:53.000Z</Time>
            <Position>
              <LatitudeDegrees>40.71060438640415668487548828125</LatitudeDegrees>
              <LongitudeDegrees>24.72158663906157016754150390625</LongitudeDegrees>
            </Position>
            <AltitudeMeters>342.20001220703125</AltitudeMeters>
            <DistanceMeters>12400.413649819</DistanceMeters>
          </Trackpoint>
          <Trackpoint>
            <Time>2022-09-18T09:34:54.000Z</Time>
            <Position>
              <LatitudeDegrees>40.7106165401637554168701171875</LatitudeDegrees>
              <LongitudeDegrees>24.72156216390430927276611328125</LongitudeDegrees>
            </Position>
            <AltitudeMeters>342.20001220703125</AltitudeMeters>
            <DistanceMeters>12402.884344393</DistanceMeters>
          </Trackpoint>
          <Trackpoint>
            <Time>2022-09-18T09:34:56.000Z</Time>
            <Position>
              <LatitudeDegrees>40.71061830036342144012451171875</LatitudeDegrees>
              <LongitudeDegrees>24.72151614725589752197265625</LongitudeDegrees>
            </Position>
            <AltitudeMeters>341.79998779296875</AltitudeMeters>
            <DistanceMeters>12406.771157726</DistanceMeters>
          </Trackpoint>
          <Trackpoint>
            <Time>2022-09-18T09:34:58.000Z</Time>
            <Position>
              <LatitudeDegrees>40.7106239162385463714599609375</LatitudeDegrees>
              <LongitudeDegrees>24.72148387692868709564208984375</LongitudeDegrees>
            </Position>
            <AltitudeMeters>341.79998779296875</AltitudeMeters>
            <DistanceMeters>12409.564361272</DistanceMeters>
          </Trackpoint>
          <Trackpoint>
            <Time>2022-09-18T09:35:41.000Z</Time>
            <Position>
              <LatitudeDegrees>40.71064646355807781219482421875</LatitudeDegrees>
              <LongitudeDegrees>24.7214780934154987335205078125</LongitudeDegrees>
            </Position>
            <AltitudeMeters>340.79998779296875</AltitudeMeters>
            <DistanceMeters>12412.121268651</DistanceMeters>
          </Trackpoint>
          <Trackpoint>
            <Time>2022-09-18T09:35:42.000Z</Time>
            <Position>
              <LatitudeDegrees>40.71064763702452182769775390625</LatitudeDegrees>
              <LongitudeDegrees>24.72147113643586635589599609375</LongitudeDegrees>
            </Position>
            <AltitudeMeters>341</AltitudeMeters>
            <DistanceMeters>12412.722270363</DistanceMeters>
          </Trackpoint>
          <Trackpoint>
            <Time>2022-09-18T09:35:43.000Z</Time>
            <Position>
              <LatitudeDegrees>40.710651911795139312744140625</LatitudeDegrees>
              <LongitudeDegrees>24.721462838351726531982421875</LongitudeDegrees>
            </Position>
            <AltitudeMeters>341</AltitudeMeters>
            <DistanceMeters>12413.56152358</DistanceMeters>
          </Trackpoint>
          <Trackpoint>
            <Time>2022-09-18T09:35:49.000Z</Time>
            <Position>
              <LatitudeDegrees>40.71064847521483898162841796875</LatitudeDegrees>
              <LongitudeDegrees>24.721303917467594146728515625</LongitudeDegrees>
            </Position>
            <AltitudeMeters>340.399993896484375</AltitudeMeters>
            <DistanceMeters>12426.974772369</DistanceMeters>
          </Trackpoint>
          <Trackpoint>
            <Time>2022-09-18T09:35:50.000Z</Time>
            <Position>
              <LatitudeDegrees>40.7106343097984790802001953125</LatitudeDegrees>
              <LongitudeDegrees>24.72126930020749568939208984375</LongitudeDegrees>
            </Position>
            <AltitudeMeters>340.399993896484375</AltitudeMeters>
            <DistanceMeters>12430.293912809</DistanceMeters>
          </Trackpoint>
          <Trackpoint>
            <Time>2022-09-18T09:35:51.000Z</Time>
            <Position>
              <LatitudeDegrees>40.71062031202018260955810546875</LatitudeDegrees>
              <LongitudeDegrees>24.72123661078512668609619140625</LongitudeDegrees>
            </Position>
            <AltitudeMeters>340.20001220703125</AltitudeMeters>
            <DistanceMeters>12433.462736724</DistanceMeters>
          </Trackpoint>
          <Trackpoint>
            <Time>2022-09-18T09:35:52.000Z</Time>
            <Position>
              <LatitudeDegrees>40.7106078229844570159912109375</LatitudeDegrees>
              <LongitudeDegrees>24.72119956277310848236083984375</LongitudeDegrees>
            </Position>
            <AltitudeMeters>340</AltitudeMeters>
            <DistanceMeters>12436.883698442</DistanceMeters>
          </Trackpoint>
          <Trackpoint>
            <Time>2022-09-18T09:35:53.000Z</Time>
            <Position>
              <LatitudeDegrees>40.7105826772749423980712890625</LatitudeDegrees>
              <LongitudeDegrees>24.72116050310432910919189453125</LongitudeDegrees>
            </Position>
            <AltitudeMeters>339.79998779296875</AltitudeMeters>
            <DistanceMeters>12441.207152875</DistanceMeters>
          </Trackpoint>
          <Trackpoint>
            <Time>2022-09-18T09:35:55.000Z</Time>
            <Position>
              <LatitudeDegrees>40.71052827872335910797119140625</LatitudeDegrees>
              <LongitudeDegrees>24.72108808346092700958251953125</LongitudeDegrees>
            </Position>
            <AltitudeMeters>339</AltitudeMeters>
            <DistanceMeters>12449.809039086</DistanceMeters>
          </Trackpoint>
          <Trackpoint>
            <Time>2022-09-18T09:35:57.000Z</Time>
            <Position>
              <LatitudeDegrees>40.71047815494239330291748046875</LatitudeDegrees>
              <LongitudeDegrees>24.721024967730045318603515625</LongitudeDegrees>
            </Position>
            <AltitudeMeters>338.79998779296875</AltitudeMeters>
            <DistanceMeters>12457.521439071</DistanceMeters>
          </Trackpoint>
          <Trackpoint>
            <Time>2022-09-18T09:35:59.000Z</Time>
            <Position>
              <LatitudeDegrees>40.71042970754206180572509765625</LatitudeDegrees>
              <LongitudeDegrees>24.72096922807395458221435546875</LongitudeDegrees>
            </Position>
            <AltitudeMeters>338.600006103515625</AltitudeMeters>
            <DistanceMeters>12464.676893874</DistanceMeters>
          </Trackpoint>
          <Trackpoint>
            <Time>2022-09-18T09:36:03.000Z</Time>
            <Position>
              <LatitudeDegrees>40.710330046713352203369140625</LatitudeDegrees>
              <LongitudeDegrees>24.7208618558943271636962890625</LongitudeDegrees>
            </Position>
            <AltitudeMeters>338.79998779296875</AltitudeMeters>
            <DistanceMeters>12478.998526335</DistanceMeters>
          </Trackpoint>
          <Trackpoint>
            <Time>2022-09-18T09:36:09.000Z</Time>
            <Position>
              <LatitudeDegrees>40.7101920805871486663818359375</LatitudeDegrees>
              <LongitudeDegrees>24.72069949842989444732666015625</LongitudeDegrees>
            </Position>
            <AltitudeMeters>338.79998779296875</AltitudeMeters>
            <DistanceMeters>12499.576143899</DistanceMeters>
          </Trackpoint>
          <Trackpoint>
            <Time>2022-09-18T09:36:10.000Z</Time>
            <Position>
              <LatitudeDegrees>40.71016718633472919464111328125</LatitudeDegrees>
              <LongitudeDegrees>24.720672257244586944580078125</LongitudeDegrees>
            </Position>
            <AltitudeMeters>339</AltitudeMeters>
            <DistanceMeters>12503.177142341</DistanceMeters>
          </Trackpoint>
          <Trackpoint>
            <Time>2022-09-18T09:36:16.000Z</Time>
            <Position>
              <LatitudeDegrees>40.71003441698849201202392578125</LatitudeDegrees>
              <LongitudeDegrees>24.72051434218883514404296875</LongitudeDegrees>
            </Position>
            <AltitudeMeters>338.79998779296875</AltitudeMeters>
            <DistanceMeters>12523.073839335</DistanceMeters>
          </Trackpoint>
          <Trackpoint>
            <Time>2022-09-18T09:36:17.000Z</Time>
            <Position>
              <LatitudeDegrees>40.7100163958966732025146484375</LatitudeDegrees>
              <LongitudeDegrees>24.7204860113561153411865234375</LongitudeDegrees>
            </Position>
            <AltitudeMeters>338.600006103515625</AltitudeMeters>
            <DistanceMeters>12526.193842926</DistanceMeters>
          </Trackpoint>
          <Trackpoint>
            <Time>2022-09-18T09:36:23.000Z</Time>
            <Position>
              <LatitudeDegrees>40.709878094494342803955078125</LatitudeDegrees>
              <LongitudeDegrees>24.72030772827565670013427734375</LongitudeDegrees>
            </Position>
            <AltitudeMeters>338.79998779296875</AltitudeMeters>
            <DistanceMeters>12547.71587283</DistanceMeters>
          </Trackpoint>
          <Trackpoint>
            <Time>2022-09-18T09:36:25.000Z</Time>
            <Position>
              <LatitudeDegrees>40.70984079502522945404052734375</LatitudeDegrees>
              <LongitudeDegrees>24.7202540002763271331787109375</LongitudeDegrees>
            </Position>
            <AltitudeMeters>339</AltitudeMeters>
            <DistanceMeters>12553.861096967</DistanceMeters>
          </Trackpoint>
          <Trackpoint>
            <Time>2022-09-18T09:36:31.000Z</Time>
            <Position>
              <LatitudeDegrees>40.70980726741254329681396484375</LatitudeDegrees>
              <LongitudeDegrees>24.7200880385935306549072265625</LongitudeDegrees>
            </Position>
            <AltitudeMeters>339.399993896484375</AltitudeMeters>
            <DistanceMeters>12568.351969875</DistanceMeters>
          </Trackpoint>
          <Trackpoint>
            <Time>2022-09-18T09:36:35.000Z</Time>
            <Position>
              <LatitudeDegrees>40.70988790132105350494384765625</LatitudeDegrees>
              <LongitudeDegrees>24.7200273536145687103271484375</LongitudeDegrees>
            </Position>
            <AltitudeMeters>340</AltitudeMeters>
            <DistanceMeters>12578.684131494</DistanceMeters>
          </Trackpoint>
          <Trackpoint>
            <Time>2022-09-18T09:36:36.000Z</Time>
            <Position>
              <LatitudeDegrees>40.7099060900509357452392578125</LatitudeDegrees>
              <LongitudeDegrees>24.72001469694077968597412109375</LongitudeDegrees>
            </Position>
            <AltitudeMeters>340.20001220703125</AltitudeMeters>
            <DistanceMeters>12580.972677831</DistanceMeters>
          </Trackpoint>
          <Trackpoint>
            <Time>2022-09-18T09:36:42.000Z</Time>
            <Position>
              <LatitudeDegrees>40.71008286438882350921630859375</LatitudeDegrees>
              <LongitudeDegrees>24.7199371643364429473876953125</LongitudeDegrees>
            </Position>
            <AltitudeMeters>341</AltitudeMeters>
            <DistanceMeters>12601.707019137</DistanceMeters>
          </Trackpoint>
          <Trackpoint>
            <Time>2022-09-18T09:36:43.000Z</Time>
            <Position>
              <LatitudeDegrees>40.710104405879974365234375</LatitudeDegrees>
              <LongitudeDegrees>24.7199240885674953460693359375</LongitudeDegrees>
            </Position>
            <AltitudeMeters>341</AltitudeMeters>
            <DistanceMeters>12604.345615154</DistanceMeters>
          </Trackpoint>
          <Trackpoint>
            <Time>2022-09-18T09:36:45.000Z</Time>
            <Position>
              <LatitudeDegrees>40.710145644843578338623046875</LatitudeDegrees>
              <LongitudeDegrees>24.7198940813541412353515625</LongitudeDegrees>
            </Position>
            <AltitudeMeters>341</AltitudeMeters>
            <DistanceMeters>12609.587611207</DistanceMeters>
          </Trackpoint>
          <Trackpoint>
            <Time>2022-09-18T09:36:50.000Z</Time>
            <Position>
              <LatitudeDegrees>40.71023575030267238616943359375</LatitudeDegrees>
              <LongitudeDegrees>24.71981504000723361968994140625</LongitudeDegrees>
            </Position>
            <AltitudeMeters>341.20001220703125</AltitudeMeters>
            <DistanceMeters>12621.631661522</DistanceMeters>
          </Trackpoint>
          <Trackpoint>
            <Time>2022-09-18T09:36:56.000Z</Time>
            <Position>
              <LatitudeDegrees>40.71036382578313350677490234375</LatitudeDegrees>
              <LongitudeDegrees>24.71971445716917514801025390625</LongitudeDegrees>
            </Position>
            <AltitudeMeters>341.79998779296875</AltitudeMeters>
            <DistanceMeters>12638.221377308</DistanceMeters>
          </Trackpoint>
          <Trackpoint>
            <Time>2022-09-18T09:37:00.000Z</Time>
            <Position>
              <LatitudeDegrees>40.7104106806218624114990234375</LatitudeDegrees>
              <LongitudeDegrees>24.71964153461158275604248046875</LongitudeDegrees>
            </Position>
            <AltitudeMeters>341.79998779296875</AltitudeMeters>
            <DistanceMeters>12646.286900893</DistanceMeters>
          </Trackpoint>
          <Trackpoint>
            <Time>2022-09-18T09:37:06.000Z</Time>
            <Position>
              <LatitudeDegrees>40.71049039252102375030517578125</LatitudeDegrees>
              <LongitudeDegrees>24.71952192485332489013671875</LongitudeDegrees>
            </Position>
            <AltitudeMeters>340.600006103515625</AltitudeMeters>
            <DistanceMeters>12659.723691746</DistanceMeters>
          </Trackpoint>
          <Trackpoint>
            <Time>2022-09-18T09:37:08.000Z</Time>
            <Position>
              <LatitudeDegrees>40.71052341721951961517333984375</LatitudeDegrees>
              <LongitudeDegrees>24.7194862179458141326904296875</LongitudeDegrees>
            </Position>
            <AltitudeMeters>339.79998779296875</AltitudeMeters>
            <DistanceMeters>12664.475977637</DistanceMeters>
          </Trackpoint>
          <Trackpoint>
            <Time>2022-09-18T09:37:14.000Z</Time>
            <Position>
              <LatitudeDegrees>40.710627771914005279541015625</LatitudeDegrees>
              <LongitudeDegrees>24.71934079192578792572021484375</LongitudeDegrees>
            </Position>
            <AltitudeMeters>339.20001220703125</AltitudeMeters>
            <DistanceMeters>12681.370968503</DistanceMeters>
          </Trackpoint>
          <Trackpoint>
            <Time>2022-09-18T09:37:16.000Z</Time>
            <Position>
              <LatitudeDegrees>40.7106554321944713592529296875</LatitudeDegrees>
              <LongitudeDegrees>24.71929452382028102874755859375</LongitudeDegrees>
            </Position>
            <AltitudeMeters>339</AltitudeMeters>
            <DistanceMeters>12686.343327029</DistanceMeters>
          </Trackpoint>
          <Trackpoint>
            <Time>2022-09-18T09:37:18.000Z</Time>
            <Position>
              <LatitudeDegrees>40.7106862775981426239013671875</LatitudeDegrees>
              <LongitudeDegrees>24.7192585654556751251220703125</LongitudeDegrees>
            </Position>
            <AltitudeMeters>338.600006103515625</AltitudeMeters>
            <DistanceMeters>12690.924363773</DistanceMeters>
          </Trackpoint>
          <Trackpoint>
            <Time>2022-09-18T09:37:22.000Z</Time>
            <Position>
              <LatitudeDegrees>40.7107513211667537689208984375</LatitudeDegrees>
              <LongitudeDegrees>24.7191898338496685028076171875</LongitudeDegrees>
            </Position>
            <AltitudeMeters>337.600006103515625</AltitudeMeters>
            <DistanceMeters>12700.200061502</DistanceMeters>
          </Trackpoint>
          <Trackpoint>
            <Time>2022-09-18T09:37:23.000Z</Time>
            <Position>
              <LatitudeDegrees>40.71076213382184505462646484375</LatitudeDegrees>
              <LongitudeDegrees>24.71917449496686458587646484375</LongitudeDegrees>
            </Position>
            <AltitudeMeters>337.20001220703125</AltitudeMeters>
            <DistanceMeters>12701.967660566</DistanceMeters>
          </Trackpoint>
          <Trackpoint>
            <Time>2022-09-18T09:37:29.000Z</Time>
            <Position>
              <LatitudeDegrees>40.71090663783252239227294921875</LatitudeDegrees>
              <LongitudeDegrees>24.71908782608807086944580078125</LongitudeDegrees>
            </Position>
            <AltitudeMeters>336.79998779296875</AltitudeMeters>
            <DistanceMeters>12719.635475442</DistanceMeters>
          </Trackpoint>
          <Trackpoint>
            <Time>2022-09-18T09:37:30.000Z</Time>
            <Position>
              <LatitudeDegrees>40.71093547157943248748779296875</LatitudeDegrees>
              <LongitudeDegrees>24.719083718955516815185546875</LongitudeDegrees>
            </Position>
            <AltitudeMeters>336.79998779296875</AltitudeMeters>
            <DistanceMeters>12722.863587618</DistanceMeters>
          </Trackpoint>
          <Trackpoint>
            <Time>2022-09-18T09:37:34.000Z</Time>
            <Position>
              <LatitudeDegrees>40.7110284268856048583984375</LatitudeDegrees>
              <LongitudeDegrees>24.7190463356673717498779296875</LongitudeDegrees>
            </Position>
            <AltitudeMeters>336.399993896484375</AltitudeMeters>
            <DistanceMeters>12733.679948855</DistanceMeters>
          </Trackpoint>
          <Trackpoint>
            <Time>2022-09-18T09:37:37.000Z</Time>
            <Position>
              <LatitudeDegrees>40.71109657175838947296142578125</LatitudeDegrees>
              <LongitudeDegrees>24.71899998374283313751220703125</LongitudeDegrees>
            </Position>
            <AltitudeMeters>335.20001220703125</AltitudeMeters>
            <DistanceMeters>12742.213326641</DistanceMeters>
          </Trackpoint>
          <Trackpoint>
            <Time>2022-09-18T09:37:38.000Z</Time>
            <Position>
              <LatitudeDegrees>40.711126662790775299072265625</LatitudeDegrees>
              <LongitudeDegrees>24.71898741088807582855224609375</LongitudeDegrees>
            </Position>
            <AltitudeMeters>335</AltitudeMeters>
            <DistanceMeters>12745.726745844</DistanceMeters>
          </Trackpoint>
          <Trackpoint>
            <Time>2022-09-18T09:37:44.000Z</Time>
            <Position>
              <LatitudeDegrees>40.7113122381269931793212890625</LatitudeDegrees>
              <LongitudeDegrees>24.71891297958791255950927734375</LongitudeDegrees>
            </Position>
            <AltitudeMeters>334.399993896484375</AltitudeMeters>
            <DistanceMeters>12767.315175742</DistanceMeters>
          </Trackpoint>
          <Trackpoint>
            <Time>2022-09-18T09:37:45.000Z</Time>
            <Position>
              <LatitudeDegrees>40.7113417424261569976806640625</LatitudeDegrees>
              <LongitudeDegrees>24.718897640705108642578125</LongitudeDegrees>
            </Position>
            <AltitudeMeters>334.20001220703125</AltitudeMeters>
            <DistanceMeters>12770.845261504</DistanceMeters>
          </Trackpoint>
          <Trackpoint>
            <Time>2022-09-18T09:37:46.000Z</Time>
            <Position>
              <LatitudeDegrees>40.7113819755613803863525390625</LatitudeDegrees>
              <LongitudeDegrees>24.718879871070384979248046875</LongitudeDegrees>
            </Position>
            <AltitudeMeters>333.79998779296875</AltitudeMeters>
            <DistanceMeters>12775.568003168</DistanceMeters>
          </Trackpoint>
          <Trackpoint>
            <Time>2022-09-18T09:37:48.000Z</Time>
            <Position>
              <LatitudeDegrees>40.7114500366151332855224609375</LatitudeDegrees>
              <LongitudeDegrees>24.7188481874763965606689453125</LongitudeDegrees>
            </Position>
            <AltitudeMeters>332.79998779296875</AltitudeMeters>
            <DistanceMeters>12783.600993039</DistanceMeters>
          </Trackpoint>
          <Trackpoint>
            <Time>2022-09-18T09:37:54.000Z</Time>
            <Position>
              <LatitudeDegrees>40.71158406324684619903564453125</LatitudeDegrees>
              <LongitudeDegrees>24.71871281974017620086669921875</LongitudeDegrees>
            </Position>
            <AltitudeMeters>331.79998779296875</AltitudeMeters>
            <DistanceMeters>12802.388425754</DistanceMeters>
          </Trackpoint>
          <Trackpoint>
            <Time>2022-09-18T09:37:57.000Z</Time>
            <Position>
              <LatitudeDegrees>40.71164977736771106719970703125</LatitudeDegrees>
              <LongitudeDegrees>24.718634448945522308349609375</LongitudeDegrees>
            </Position>
            <AltitudeMeters>331.600006103515625</AltitudeMeters>
            <DistanceMeters>12812.248334628</DistanceMeters>
          </Trackpoint>
          <Trackpoint>
            <Time>2022-09-18T09:37:59.000Z</Time>
            <Position>
              <LatitudeDegrees>40.71167727001011371612548828125</LatitudeDegrees>
              <LongitudeDegrees>24.7185735963284969329833984375</LongitudeDegrees>
            </Position>
            <AltitudeMeters>330.399993896484375</AltitudeMeters>
            <DistanceMeters>12818.225205248</DistanceMeters>
          </Trackpoint>
          <Trackpoint>
            <Time>2022-09-18T09:38:01.000Z</Time>
            <Position>
              <LatitudeDegrees>40.71172068826854228973388671875</LatitudeDegrees>
              <LongitudeDegrees>24.71850964240729808807373046875</LongitudeDegrees>
            </Position>
            <AltitudeMeters>329.600006103515625</AltitudeMeters>
            <DistanceMeters>12825.468460327</DistanceMeters>
          </Trackpoint>
          <Trackpoint>
            <Time>2022-09-18T09:38:03.000Z</Time>
            <Position>
              <LatitudeDegrees>40.71176025085151195526123046875</LatitudeDegrees>
              <LongitudeDegrees>24.71845264546573162078857421875</LongitudeDegrees>
            </Position>
            <AltitudeMeters>329.20001220703125</AltitudeMeters>
            <DistanceMeters>12831.988705713</DistanceMeters>
          </Trackpoint>
          <Trackpoint>
            <Time>2022-09-18T09:38:08.000Z</Time>
            <Position>
              <LatitudeDegrees>40.71186318062245845794677734375</LatitudeDegrees>
              <LongitudeDegrees>24.7183100692927837371826171875</LongitudeDegrees>
            </Position>
            <AltitudeMeters>328.600006103515625</AltitudeMeters>
            <DistanceMeters>12848.60017994</DistanceMeters>
          </Trackpoint>
          <Trackpoint>
            <Time>2022-09-18T09:38:11.000Z</Time>
            <Position>
              <LatitudeDegrees>40.71193777956068515777587890625</LatitudeDegrees>
              <LongitudeDegrees>24.71820739097893238067626953125</LongitudeDegrees>
            </Position>
            <AltitudeMeters>328</AltitudeMeters>
            <DistanceMeters>12860.599160681</DistanceMeters>
          </Trackpoint>
          <Trackpoint>
            <Time>2022-09-18T09:38:15.000Z</Time>
            <Position>
              <LatitudeDegrees>40.71202813647687435150146484375</LatitudeDegrees>
              <LongitudeDegrees>24.7180817462503910064697265625</LongitudeDegrees>
            </Position>
            <AltitudeMeters>327</AltitudeMeters>
            <DistanceMeters>12875.21073477</DistanceMeters>
          </Trackpoint>
          <Trackpoint>
            <Time>2022-09-18T09:38:16.000Z</Time>
            <Position>
              <LatitudeDegrees>40.7120488397777080535888671875</LatitudeDegrees>
              <LongitudeDegrees>24.718052409589290618896484375</LongitudeDegrees>
            </Position>
            <AltitudeMeters>326.79998779296875</AltitudeMeters>
            <DistanceMeters>12878.593205295</DistanceMeters>
          </Trackpoint>
          <Trackpoint>
            <Time>2022-09-18T09:38:22.000Z</Time>
            <Position>
              <LatitudeDegrees>40.71211966685950756072998046875</LatitudeDegrees>
              <LongitudeDegrees>24.71784847788512706756591796875</LongitudeDegrees>
            </Position>
            <AltitudeMeters>327</AltitudeMeters>
            <DistanceMeters>12897.518080247</DistanceMeters>
          </Trackpoint>
          <Trackpoint>
            <Time>2022-09-18T09:38:28.000Z</Time>
            <Position>
              <LatitudeDegrees>40.71209602989256381988525390625</LatitudeDegrees>
              <LongitudeDegrees>24.71765854395925998687744140625</LongitudeDegrees>
            </Position>
            <AltitudeMeters>326.79998779296875</AltitudeMeters>
            <DistanceMeters>12913.756808408</DistanceMeters>
          </Trackpoint>
          <Trackpoint>
            <Time>2022-09-18T09:38:34.000Z</Time>
            <Position>
              <LatitudeDegrees>40.71203618310391902923583984375</LatitudeDegrees>
              <LongitudeDegrees>24.71750448457896709442138671875</LongitudeDegrees>
            </Position>
            <AltitudeMeters>326</AltitudeMeters>
            <DistanceMeters>12928.361891967</DistanceMeters>
          </Trackpoint>
          <Trackpoint>
            <Time>2022-09-18T09:38:38.000Z</Time>
            <Position>
              <LatitudeDegrees>40.71200785227119922637939453125</LatitudeDegrees>
              <LongitudeDegrees>24.71740624867379665374755859375</LongitudeDegrees>
            </Position>
            <AltitudeMeters>326</AltitudeMeters>
            <DistanceMeters>12937.229468055</DistanceMeters>
          </Trackpoint>
          <Trackpoint>
            <Time>2022-09-18T09:38:39.000Z</Time>
            <Position>
              <LatitudeDegrees>40.7120059244334697723388671875</LatitudeDegrees>
              <LongitudeDegrees>24.71737615764141082763671875</LongitudeDegrees>
            </Position>
            <AltitudeMeters>326</AltitudeMeters>
            <DistanceMeters>12939.777531038</DistanceMeters>
          </Trackpoint>
          <Trackpoint>
            <Time>2022-09-18T09:38:40.000Z</Time>
            <Position>
              <LatitudeDegrees>40.7120042480528354644775390625</LatitudeDegrees>
              <LongitudeDegrees>24.71734606660902500152587890625</LongitudeDegrees>
            </Position>
            <AltitudeMeters>325.79998779296875</AltitudeMeters>
            <DistanceMeters>12942.323821455</DistanceMeters>
          </Trackpoint>
          <Trackpoint>
            <Time>2022-09-18T09:38:45.000Z</Time>
            <Position>
              <LatitudeDegrees>40.7120320759713649749755859375</LatitudeDegrees>
              <LongitudeDegrees>24.7171946056187152862548828125</LongitudeDegrees>
            </Position>
            <AltitudeMeters>325.79998779296875</AltitudeMeters>
            <DistanceMeters>12955.471892927</DistanceMeters>
          </Trackpoint>
          <Trackpoint>
            <Time>2022-09-18T09:38:48.000Z</Time>
            <Position>
              <LatitudeDegrees>40.71206317283213138580322265625</LatitudeDegrees>
              <LongitudeDegrees>24.71713417209684848785400390625</LongitudeDegrees>
            </Position>
            <AltitudeMeters>326</AltitudeMeters>
            <DistanceMeters>12961.63325977</DistanceMeters>
          </Trackpoint>
          <Trackpoint>
            <Time>2022-09-18T09:38:52.000Z</Time>
            <Position>
              <LatitudeDegrees>40.71210776455700397491455078125</LatitudeDegrees>
              <LongitudeDegrees>24.71708186902105808258056640625</LongitudeDegrees>
            </Position>
            <AltitudeMeters>326.20001220703125</AltitudeMeters>
            <DistanceMeters>12968.273580792</DistanceMeters>
          </Trackpoint>
          <Trackpoint>
            <Time>2022-09-18T09:38:56.000Z</Time>
            <Position>
              <LatitudeDegrees>40.71218311786651611328125</LatitudeDegrees>
              <LongitudeDegrees>24.717054627835750579833984375</LongitudeDegrees>
            </Position>
            <AltitudeMeters>327</AltitudeMeters>
            <DistanceMeters>12976.969433834</DistanceMeters>
          </Trackpoint>
          <Trackpoint>
            <Time>2022-09-18T09:38:59.000Z</Time>
            <Position>
              <LatitudeDegrees>40.7122488319873809814453125</LatitudeDegrees>
              <LongitudeDegrees>24.71702671609818935394287109375</LongitudeDegrees>
            </Position>
            <AltitudeMeters>327.600006103515625</AltitudeMeters>
            <DistanceMeters>12984.653094407</DistanceMeters>
          </Trackpoint>
          <Trackpoint>
            <Time>2022-09-18T09:39:01.000Z</Time>
            <Position>
              <LatitudeDegrees>40.7123009674251079559326171875</LatitudeDegrees>
              <LongitudeDegrees>24.71701204776763916015625</LongitudeDegrees>
            </Position>
            <AltitudeMeters>328.20001220703125</AltitudeMeters>
            <DistanceMeters>12990.585988977</DistanceMeters>
          </Trackpoint>
          <Trackpoint>
            <Time>2022-09-18T09:39:06.000Z</Time>
            <Position>
              <LatitudeDegrees>40.712426193058490753173828125</LatitudeDegrees>
              <LongitudeDegrees>24.71699167974293231964111328125</LongitudeDegrees>
            </Position>
            <AltitudeMeters>329</AltitudeMeters>
            <DistanceMeters>13004.629059847</DistanceMeters>
          </Trackpoint>
          <Trackpoint>
            <Time>2022-09-18T09:39:12.000Z</Time>
            <Position>
              <LatitudeDegrees>40.7125400193035602569580078125</LatitudeDegrees>
              <LongitudeDegrees>24.71702990122139453887939453125</LongitudeDegrees>
            </Position>
            <AltitudeMeters>329</AltitudeMeters>
            <DistanceMeters>13017.702055937</DistanceMeters>
          </Trackpoint>
          <Trackpoint>
            <Time>2022-09-18T09:39:18.000Z</Time>
            <Position>
              <LatitudeDegrees>40.71266951970756053924560546875</LatitudeDegrees>
              <LongitudeDegrees>24.71707717515528202056884765625</LongitudeDegrees>
            </Position>
            <AltitudeMeters>329.20001220703125</AltitudeMeters>
            <DistanceMeters>13032.657521943</DistanceMeters>
          </Trackpoint>
          <Trackpoint>
            <Time>2022-09-18T09:39:19.000Z</Time>
            <Position>
              <LatitudeDegrees>40.712689720094203948974609375</LatitudeDegrees>
              <LongitudeDegrees>24.7170938551425933837890625</LongitudeDegrees>
            </Position>
            <AltitudeMeters>329.399993896484375</AltitudeMeters>
            <DistanceMeters>13035.308068957</DistanceMeters>
          </Trackpoint>
          <Trackpoint>
            <Time>2022-09-18T09:39:24.000Z</Time>
            <Position>
              <LatitudeDegrees>40.71277496404945850372314453125</LatitudeDegrees>
              <LongitudeDegrees>24.71711573190987110137939453125</LongitudeDegrees>
            </Position>
            <AltitudeMeters>330</AltitudeMeters>
            <DistanceMeters>13044.973738664</DistanceMeters>
          </Trackpoint>
          <Trackpoint>
            <Time>2022-09-18T09:39:26.000Z</Time>
            <Position>
              <LatitudeDegrees>40.7128085754811763763427734375</LatitudeDegrees>
              <LongitudeDegrees>24.71712495200335979461669921875</LongitudeDegrees>
            </Position>
            <AltitudeMeters>330.20001220703125</AltitudeMeters>
            <DistanceMeters>13048.796128451</DistanceMeters>
          </Trackpoint>
          <Trackpoint>
            <Time>2022-09-18T09:39:27.000Z</Time>
            <Position>
              <LatitudeDegrees>40.7128228247165679931640625</LatitudeDegrees>
              <LongitudeDegrees>24.7171309031546115875244140625</LongitudeDegrees>
            </Position>
            <AltitudeMeters>330.20001220703125</AltitudeMeters>
            <DistanceMeters>13050.46384052</DistanceMeters>
          </Trackpoint>
          <Trackpoint>
            <Time>2022-09-18T09:39:30.000Z</Time>
            <Position>
              <LatitudeDegrees>40.71286062709987163543701171875</LatitudeDegrees>
              <LongitudeDegrees>24.71714121289551258087158203125</LongitudeDegrees>
            </Position>
            <AltitudeMeters>330.600006103515625</AltitudeMeters>
            <DistanceMeters>13054.761107829</DistanceMeters>
          </Trackpoint>
          <Trackpoint>
            <Time>2022-09-18T09:39:34.000Z</Time>
            <Position>
              <LatitudeDegrees>40.712926089763641357421875</LatitudeDegrees>
              <LongitudeDegrees>24.71717390231788158416748046875</LongitudeDegrees>
            </Position>
            <AltitudeMeters>331.399993896484375</AltitudeMeters>
            <DistanceMeters>13062.552139459</DistanceMeters>
          </Trackpoint>
          <Trackpoint>
            <Time>2022-09-18T09:39:35.000Z</Time>
            <Position>
              <LatitudeDegrees>40.7129440270364284515380859375</LatitudeDegrees>
              <LongitudeDegrees>24.71717901527881622314453125</LongitudeDegrees>
            </Position>
            <AltitudeMeters>331.399993896484375</AltitudeMeters>
            <DistanceMeters>13064.594661262</DistanceMeters>
          </Trackpoint>
          <Trackpoint>
            <Time>2022-09-18T09:39:39.000Z</Time>
            <Position>
              <LatitudeDegrees>40.71302457712590694427490234375</LatitudeDegrees>
              <LongitudeDegrees>24.7171969525516033172607421875</LongitudeDegrees>
            </Position>
            <AltitudeMeters>332.20001220703125</AltitudeMeters>
            <DistanceMeters>13073.686488349</DistanceMeters>
          </Trackpoint>
          <Trackpoint>
            <Time>2022-09-18T09:39:40.000Z</Time>
            <Position>
              <LatitudeDegrees>40.7130399160087108612060546875</LatitudeDegrees>
              <LongitudeDegrees>24.71719401888549327850341796875</LongitudeDegrees>
            </Position>
            <AltitudeMeters>332.20001220703125</AltitudeMeters>
            <DistanceMeters>13075.412734341</DistanceMeters>
          </Trackpoint>
          <Trackpoint>
            <Time>2022-09-18T09:39:42.000Z</Time>
            <Position>
              <LatitudeDegrees>40.71306950412690639495849609375</LatitudeDegrees>
              <LongitudeDegrees>24.7171996347606182098388671875</LongitudeDegrees>
            </Position>
            <AltitudeMeters>332.399993896484375</AltitudeMeters>
            <DistanceMeters>13078.740026592</DistanceMeters>
          </Trackpoint>
          <Trackpoint>
            <Time>2022-09-18T09:39:47.000Z</Time>
            <Position>
              <LatitudeDegrees>40.7131451927125453948974609375</LatitudeDegrees>
              <LongitudeDegrees>24.7172328270971775054931640625</LongitudeDegrees>
            </Position>
            <AltitudeMeters>332.600006103515625</AltitudeMeters>
            <DistanceMeters>13087.617780092</DistanceMeters>
          </Trackpoint>
          <Trackpoint>
            <Time>2022-09-18T09:39:50.000Z</Time>
            <Position>
              <LatitudeDegrees>40.713190622627735137939453125</LatitudeDegrees>
              <LongitudeDegrees>24.71725411713123321533203125</LongitudeDegrees>
            </Position>
            <AltitudeMeters>333.20001220703125</AltitudeMeters>
            <DistanceMeters>13092.98321425</DistanceMeters>
          </Trackpoint>
          <Trackpoint>
            <Time>2022-09-18T09:39:53.000Z</Time>
            <Position>
              <LatitudeDegrees>40.7132440991699695587158203125</LatitudeDegrees>
              <LongitudeDegrees>24.71726090647280216217041015625</LongitudeDegrees>
            </Position>
            <AltitudeMeters>333.399993896484375</AltitudeMeters>
            <DistanceMeters>13098.96310578</DistanceMeters>
          </Trackpoint>
          <Trackpoint>
            <Time>2022-09-18T09:39:57.000Z</Time>
            <Position>
              <LatitudeDegrees>40.7133128307759761810302734375</LatitudeDegrees>
              <LongitudeDegrees>24.7172928415238857269287109375</LongitudeDegrees>
            </Position>
            <AltitudeMeters>333.600006103515625</AltitudeMeters>
            <DistanceMeters>13107.073845999</DistanceMeters>
          </Trackpoint>
          <Trackpoint>
            <Time>2022-09-18T09:39:58.000Z</Time>
            <Position>
              <LatitudeDegrees>40.7133297622203826904296875</LatitudeDegrees>
              <LongitudeDegrees>24.717307426035404205322265625</LongitudeDegrees>
            </Position>
            <AltitudeMeters>333.600006103515625</AltitudeMeters>
            <DistanceMeters>13109.326600526</DistanceMeters>
          </Trackpoint>
          <Trackpoint>
            <Time>2022-09-18T09:40:04.000Z</Time>
            <Position>
              <LatitudeDegrees>40.71341819129884243011474609375</LatitudeDegrees>
              <LongitudeDegrees>24.717345647513866424560546875</LongitudeDegrees>
            </Position>
            <AltitudeMeters>334</AltitudeMeters>
            <DistanceMeters>13119.683204603</DistanceMeters>
          </Trackpoint>
          <Trackpoint>
            <Time>2022-09-18T09:40:07.000Z</Time>
            <Position>
              <LatitudeDegrees>40.71346814744174480438232421875</LatitudeDegrees>
              <LongitudeDegrees>24.71735059283673763275146484375</LongitudeDegrees>
            </Position>
            <AltitudeMeters>334.600006103515625</AltitudeMeters>
            <DistanceMeters>13125.259904637</DistanceMeters>
          </Trackpoint>
          <Trackpoint>
            <Time>2022-09-18T09:40:13.000Z</Time>
            <Position>
              <LatitudeDegrees>40.71355716325342655181884765625</LatitudeDegrees>
              <LongitudeDegrees>24.7173736430704593658447265625</LongitudeDegrees>
            </Position>
            <AltitudeMeters>334.79998779296875</AltitudeMeters>
            <DistanceMeters>13135.35646509</DistanceMeters>
          </Trackpoint>
          <Trackpoint>
            <Time>2022-09-18T09:40:15.000Z</Time>
            <Position>
              <LatitudeDegrees>40.71359991095960140228271484375</LatitudeDegrees>
              <LongitudeDegrees>24.71737557090818881988525390625</LongitudeDegrees>
            </Position>
            <AltitudeMeters>334.79998779296875</AltitudeMeters>
            <DistanceMeters>13140.117293996</DistanceMeters>
          </Trackpoint>
          <Trackpoint>
            <Time>2022-09-18T09:40:17.000Z</Time>
            <Position>
              <LatitudeDegrees>40.7136380486190319061279296875</LatitudeDegrees>
              <LongitudeDegrees>24.7173756547272205352783203125</LongitudeDegrees>
            </Position>
            <AltitudeMeters>335</AltitudeMeters>
            <DistanceMeters>13144.361702377</DistanceMeters>
          </Trackpoint>
          <Trackpoint>
            <Time>2022-09-18T09:40:22.000Z</Time>
            <Position>
              <LatitudeDegrees>40.71374106220901012420654296875</LatitudeDegrees>
              <LongitudeDegrees>24.71740960143506526947021484375</LongitudeDegrees>
            </Position>
            <AltitudeMeters>335.20001220703125</AltitudeMeters>
            <DistanceMeters>13156.179450144</DistanceMeters>
          </Trackpoint>
          <Trackpoint>
            <Time>2022-09-18T09:40:28.000Z</Time>
            <Position>
              <LatitudeDegrees>40.71383762173354625701904296875</LatitudeDegrees>
              <LongitudeDegrees>24.71740323118865489959716796875</LongitudeDegrees>
            </Position>
            <AltitudeMeters>335.399993896484375</AltitudeMeters>
            <DistanceMeters>13166.940569989</DistanceMeters>
          </Trackpoint>
          <Trackpoint>
            <Time>2022-09-18T09:40:29.000Z</Time>
            <Position>
              <LatitudeDegrees>40.71384650655090808868408203125</LatitudeDegrees>
              <LongitudeDegrees>24.71739401109516620635986328125</LongitudeDegrees>
            </Position>
            <AltitudeMeters>335.600006103515625</AltitudeMeters>
            <DistanceMeters>13168.19765526</DistanceMeters>
          </Trackpoint>
          <Trackpoint>
            <Time>2022-09-18T09:40:35.000Z</Time>
            <Position>
              <LatitudeDegrees>40.71391372941434383392333984375</LatitudeDegrees>
              <LongitudeDegrees>24.717423431575298309326171875</LongitudeDegrees>
            </Position>
            <AltitudeMeters>336.20001220703125</AltitudeMeters>
            <DistanceMeters>13176.079718818</DistanceMeters>
          </Trackpoint>
          <Trackpoint>
            <Time>2022-09-18T09:40:36.000Z</Time>
            <Position>
              <LatitudeDegrees>40.7139223627746105194091796875</LatitudeDegrees>
              <LongitudeDegrees>24.71743156202137470245361328125</LongitudeDegrees>
            </Position>
            <AltitudeMeters>336.399993896484375</AltitudeMeters>
            <DistanceMeters>13177.258969331</DistanceMeters>
          </Trackpoint>
          <Trackpoint>
            <Time>2022-09-18T09:40:41.000Z</Time>
            <Position>
              <LatitudeDegrees>40.7139694690704345703125</LatitudeDegrees>
              <LongitudeDegrees>24.7174452245235443115234375</LongitudeDegrees>
            </Position>
            <AltitudeMeters>336.399993896484375</AltitudeMeters>
            <DistanceMeters>13182.62692741</DistanceMeters>
          </Trackpoint>
          <Trackpoint>
            <Time>2022-09-18T09:40:43.000Z</Time>
            <Position>
              <LatitudeDegrees>40.7140024937689304351806640625</LatitudeDegrees>
              <LongitudeDegrees>24.7174527682363986968994140625</LongitudeDegrees>
            </Position>
            <AltitudeMeters>336.600006103515625</AltitudeMeters>
            <DistanceMeters>13186.357255518</DistanceMeters>
          </Trackpoint>
          <Trackpoint>
            <Time>2022-09-18T09:40:48.000Z</Time>
            <Position>
              <LatitudeDegrees>40.714065693318843841552734375</LatitudeDegrees>
              <LongitudeDegrees>24.71748881042003631591796875</LongitudeDegrees>
            </Position>
            <AltitudeMeters>336.79998779296875</AltitudeMeters>
            <DistanceMeters>13194.019732731</DistanceMeters>
          </Trackpoint>
          <Trackpoint>
            <Time>2022-09-18T09:40:50.000Z</Time>
            <Position>
              <LatitudeDegrees>40.7140839658677577972412109375</LatitudeDegrees>
              <LongitudeDegrees>24.7175097651779651641845703125</LongitudeDegrees>
            </Position>
            <AltitudeMeters>337</AltitudeMeters>
            <DistanceMeters>13196.714205122</DistanceMeters>
          </Trackpoint>
          <Trackpoint>
            <Time>2022-09-18T09:40:55.000Z</Time>
            <Position>
              <LatitudeDegrees>40.71413903497159481048583984375</LatitudeDegrees>
              <LongitudeDegrees>24.71756315790116786956787109375</LongitudeDegrees>
            </Position>
            <AltitudeMeters>337.79998779296875</AltitudeMeters>
            <DistanceMeters>13204.319904938</DistanceMeters>
          </Trackpoint>
          <Trackpoint>
            <Time>2022-09-18T09:40:58.000Z</Time>
            <Position>
              <LatitudeDegrees>40.71417071856558322906494140625</LatitudeDegrees>
              <LongitudeDegrees>24.717582352459430694580078125</LongitudeDegrees>
            </Position>
            <AltitudeMeters>338.399993896484375</AltitudeMeters>
            <DistanceMeters>13208.19857834</DistanceMeters>
          </Trackpoint>
          <Trackpoint>
            <Time>2022-09-18T09:41:00.000Z</Time>
            <Position>
              <LatitudeDegrees>40.7141919247806072235107421875</LatitudeDegrees>
              <LongitudeDegrees>24.717587716877460479736328125</LongitudeDegrees>
            </Position>
            <AltitudeMeters>338.79998779296875</AltitudeMeters>
            <DistanceMeters>13210.602585187</DistanceMeters>
          </Trackpoint>
          <Trackpoint>
            <Time>2022-09-18T09:41:05.000Z</Time>
            <Position>
              <LatitudeDegrees>40.7142469100654125213623046875</LatitudeDegrees>
              <LongitudeDegrees>24.71762451343238353729248046875</LongitudeDegrees>
            </Position>
            <AltitudeMeters>339.399993896484375</AltitudeMeters>
            <DistanceMeters>13217.46493527</DistanceMeters>
          </Trackpoint>
          <Trackpoint>
            <Time>2022-09-18T09:41:08.000Z</Time>
            <Position>
              <LatitudeDegrees>40.71428588591516017913818359375</LatitudeDegrees>
              <LongitudeDegrees>24.717637337744235992431640625</LongitudeDegrees>
            </Position>
            <AltitudeMeters>339.600006103515625</AltitudeMeters>
            <DistanceMeters>13221.936242601</DistanceMeters>
          </Trackpoint>
          <Trackpoint>
            <Time>2022-09-18T09:41:09.000Z</Time>
            <Position>
              <LatitudeDegrees>40.7142985425889492034912109375</LatitudeDegrees>
              <LongitudeDegrees>24.71763842739164829254150390625</LongitudeDegrees>
            </Position>
            <AltitudeMeters>339.79998779296875</AltitudeMeters>
            <DistanceMeters>13223.345716551</DistanceMeters>
          </Trackpoint>
          <Trackpoint>
            <Time>2022-09-18T09:41:12.000Z</Time>
            <Position>
              <LatitudeDegrees>40.71433651261031627655029296875</LatitudeDegrees>
              <LongitudeDegrees>24.71765167079865932464599609375</LongitudeDegrees>
            </Position>
            <AltitudeMeters>340.20001220703125</AltitudeMeters>
            <DistanceMeters>13227.716945412</DistanceMeters>
          </Trackpoint>
          <Trackpoint>
            <Time>2022-09-18T09:41:17.000Z</Time>
            <Position>
              <LatitudeDegrees>40.71441060863435268402099609375</LatitudeDegrees>
              <LongitudeDegrees>24.7176598012447357177734375</LongitudeDegrees>
            </Position>
            <AltitudeMeters>341</AltitudeMeters>
            <DistanceMeters>13235.992457466</DistanceMeters>
          </Trackpoint>
          <Trackpoint>
            <Time>2022-09-18T09:41:19.000Z</Time>
            <Position>
              <LatitudeDegrees>40.71443407796323299407958984375</LatitudeDegrees>
              <LongitudeDegrees>24.717666842043399810791015625</LongitudeDegrees>
            </Position>
            <AltitudeMeters>341.20001220703125</AltitudeMeters>
            <DistanceMeters>13238.670120757</DistanceMeters>
          </Trackpoint>
          <Trackpoint>
            <Time>2022-09-18T09:41:23.000Z</Time>
            <Position>
              <LatitudeDegrees>40.71448822505772113800048828125</LatitudeDegrees>
              <LongitudeDegrees>24.71767530776560306549072265625</LongitudeDegrees>
            </Position>
            <AltitudeMeters>342</AltitudeMeters>
            <DistanceMeters>13244.738452631</DistanceMeters>
          </Trackpoint>
          <Trackpoint>
            <Time>2022-09-18T09:41:24.000Z</Time>
            <Position>
              <LatitudeDegrees>40.7145007140934467315673828125</LatitudeDegrees>
              <LongitudeDegrees>24.71767933107912540435791015625</LongitudeDegrees>
            </Position>
            <AltitudeMeters>342.20001220703125</AltitudeMeters>
            <DistanceMeters>13246.167017392</DistanceMeters>
          </Trackpoint>
          <Trackpoint>
            <Time>2022-09-18T09:41:25.000Z</Time>
            <Position>
              <LatitudeDegrees>40.71451127529144287109375</LatitudeDegrees>
              <LongitudeDegrees>24.71768553368747234344482421875</LongitudeDegrees>
            </Position>
            <AltitudeMeters>342.20001220703125</AltitudeMeters>
            <DistanceMeters>13247.448997857</DistanceMeters>
          </Trackpoint>
          <Trackpoint>
            <Time>2022-09-18T09:41:26.000Z</Time>
            <Position>
              <LatitudeDegrees>40.71452393196523189544677734375</LatitudeDegrees>
              <LongitudeDegrees>24.717693664133548736572265625</LongitudeDegrees>
            </Position>
            <AltitudeMeters>342.399993896484375</AltitudeMeters>
            <DistanceMeters>13249.016218579</DistanceMeters>
          </Trackpoint>
          <Trackpoint>
            <Time>2022-09-18T09:41:32.000Z</Time>
            <Position>
              <LatitudeDegrees>40.714590735733509063720703125</LatitudeDegrees>
              <LongitudeDegrees>24.7177072428166866302490234375</LongitudeDegrees>
            </Position>
            <AltitudeMeters>343</AltitudeMeters>
            <DistanceMeters>13256.539550232</DistanceMeters>
          </Trackpoint>
          <Trackpoint>
            <Time>2022-09-18T09:41:38.000Z</Time>
            <Position>
              <LatitudeDegrees>40.71464379318058490753173828125</LatitudeDegrees>
              <LongitudeDegrees>24.71772543154656887054443359375</LongitudeDegrees>
            </Position>
            <AltitudeMeters>344.20001220703125</AltitudeMeters>
            <DistanceMeters>13262.642011641</DistanceMeters>
          </Trackpoint>
          <Trackpoint>
            <Time>2022-09-18T09:41:39.000Z</Time>
            <Position>
              <LatitudeDegrees>40.714653097093105316162109375</LatitudeDegrees>
              <LongitudeDegrees>24.71773247234523296356201171875</LongitudeDegrees>
            </Position>
            <AltitudeMeters>344.20001220703125</AltitudeMeters>
            <DistanceMeters>13263.836478919</DistanceMeters>
          </Trackpoint>
          <Trackpoint>
            <Time>2022-09-18T09:41:41.000Z</Time>
            <Position>
              <LatitudeDegrees>40.7146700285375118255615234375</LatitudeDegrees>
              <LongitudeDegrees>24.71773901022970676422119140625</LongitudeDegrees>
            </Position>
            <AltitudeMeters>344.399993896484375</AltitudeMeters>
            <DistanceMeters>13265.797808204</DistanceMeters>
          </Trackpoint>
          <Trackpoint>
            <Time>2022-09-18T09:41:47.000Z</Time>
            <Position>
              <LatitudeDegrees>40.714734233915805816650390625</LatitudeDegrees>
              <LongitudeDegrees>24.71777907572686672210693359375</LongitudeDegrees>
            </Position>
            <AltitudeMeters>345</AltitudeMeters>
            <DistanceMeters>13273.702751531</DistanceMeters>
          </Trackpoint>
          <Trackpoint>
            <Time>2022-09-18T09:41:48.000Z</Time>
            <Position>
              <LatitudeDegrees>40.7147431187331676483154296875</LatitudeDegrees>
              <LongitudeDegrees>24.71778226085007190704345703125</LongitudeDegrees>
            </Position>
            <AltitudeMeters>345</AltitudeMeters>
            <DistanceMeters>13274.726220567</DistanceMeters>
          </Trackpoint>
          <Trackpoint>
            <Time>2022-09-18T09:41:49.000Z</Time>
            <Position>
              <LatitudeDegrees>40.714752674102783203125</LatitudeDegrees>
              <LongitudeDegrees>24.7177853621542453765869140625</LongitudeDegrees>
            </Position>
            <AltitudeMeters>345.20001220703125</AltitudeMeters>
            <DistanceMeters>13275.817994394</DistanceMeters>
          </Trackpoint>
          <Trackpoint>
            <Time>2022-09-18T09:41:50.000Z</Time>
            <Position>
              <LatitudeDegrees>40.71476264856755733489990234375</LatitudeDegrees>
              <LongitudeDegrees>24.7177907265722751617431640625</LongitudeDegrees>
            </Position>
            <AltitudeMeters>345.20001220703125</AltitudeMeters>
            <DistanceMeters>13277.012461672</DistanceMeters>
          </Trackpoint>
          <Trackpoint>
            <Time>2022-09-18T09:41:55.000Z</Time>
            <Position>
              <LatitudeDegrees>40.7148135267198085784912109375</LatitudeDegrees>
              <LongitudeDegrees>24.71783724613487720489501953125</LongitudeDegrees>
            </Position>
            <AltitudeMeters>345.600006103515625</AltitudeMeters>
            <DistanceMeters>13283.901734623</DistanceMeters>
          </Trackpoint>
          <Trackpoint>
            <Time>2022-09-18T09:41:56.000Z</Time>
            <Position>
              <LatitudeDegrees>40.71482442319393157958984375</LatitudeDegrees>
              <LongitudeDegrees>24.71784881316125392913818359375</LongitudeDegrees>
            </Position>
            <AltitudeMeters>345.600006103515625</AltitudeMeters>
            <DistanceMeters>13285.457388983</DistanceMeters>
          </Trackpoint>
          <Trackpoint>
            <Time>2022-09-18T09:42:01.000Z</Time>
            <Position>
              <LatitudeDegrees>40.71487270295619964599609375</LatitudeDegrees>
              <LongitudeDegrees>24.71787798218429088592529296875</LongitudeDegrees>
            </Position>
            <AltitudeMeters>346.20001220703125</AltitudeMeters>
            <DistanceMeters>13291.367408922</DistanceMeters>
          </Trackpoint>
          <Trackpoint>
            <Time>2022-09-18T09:42:03.000Z</Time>
            <Position>
              <LatitudeDegrees>40.7148980163037776947021484375</LatitudeDegrees>
              <LongitudeDegrees>24.71787697635591030120849609375</LongitudeDegrees>
            </Position>
            <AltitudeMeters>346.399993896484375</AltitudeMeters>
            <DistanceMeters>13294.186356824</DistanceMeters>
          </Trackpoint>
          <Trackpoint>
            <Time>2022-09-18T09:42:04.000Z</Time>
            <Position>
              <LatitudeDegrees>40.71491402573883533477783203125</LatitudeDegrees>
              <LongitudeDegrees>24.71787882037460803985595703125</LongitudeDegrees>
            </Position>
            <AltitudeMeters>346.600006103515625</AltitudeMeters>
            <DistanceMeters>13295.974273785</DistanceMeters>
          </Trackpoint>
          <Trackpoint>
            <Time>2022-09-18T09:42:06.000Z</Time>
            <Position>
              <LatitudeDegrees>40.7149486429989337921142578125</LatitudeDegrees>
              <LongitudeDegrees>24.71789005212485790252685546875</LongitudeDegrees>
            </Position>
            <AltitudeMeters>346.600006103515625</AltitudeMeters>
            <DistanceMeters>13299.941567982</DistanceMeters>
          </Trackpoint>
          <Trackpoint>
            <Time>2022-09-18T09:42:08.000Z</Time>
            <Position>
              <LatitudeDegrees>40.71497957222163677215576171875</LatitudeDegrees>
              <LongitudeDegrees>24.7178980149328708648681640625</LongitudeDegrees>
            </Position>
            <AltitudeMeters>346.600006103515625</AltitudeMeters>
            <DistanceMeters>13303.44855588</DistanceMeters>
          </Trackpoint>
          <Trackpoint>
            <Time>2022-09-18T09:42:12.000Z</Time>
            <Position>
              <LatitudeDegrees>40.71507520973682403564453125</LatitudeDegrees>
              <LongitudeDegrees>24.71790597774088382720947265625</LongitudeDegrees>
            </Position>
            <AltitudeMeters>346.600006103515625</AltitudeMeters>
            <DistanceMeters>13314.114431514</DistanceMeters>
          </Trackpoint>
          <Trackpoint>
            <Time>2022-09-18T09:42:15.000Z</Time>
            <Position>
              <LatitudeDegrees>40.7151518203318119049072265625</LatitudeDegrees>
              <LongitudeDegrees>24.71790052950382232666015625</LongitudeDegrees>
            </Position>
            <AltitudeMeters>347.20001220703125</AltitudeMeters>
            <DistanceMeters>13322.654156179</DistanceMeters>
          </Trackpoint>
          <Trackpoint>
            <Time>2022-09-18T09:42:19.000Z</Time>
            <Position>
              <LatitudeDegrees>40.7152314484119415283203125</LatitudeDegrees>
              <LongitudeDegrees>24.717842526733875274658203125</LongitudeDegrees>
            </Position>
            <AltitudeMeters>347.399993896484375</AltitudeMeters>
            <DistanceMeters>13332.777958214</DistanceMeters>
          </Trackpoint>
          <Trackpoint>
            <Time>2022-09-18T09:42:22.000Z</Time>
            <Position>
              <LatitudeDegrees>40.71528148837387561798095703125</LatitudeDegrees>
              <LongitudeDegrees>24.7177806682884693145751953125</LongitudeDegrees>
            </Position>
            <AltitudeMeters>347.399993896484375</AltitudeMeters>
            <DistanceMeters>13340.410916567</DistanceMeters>
          </Trackpoint>
          <Trackpoint>
            <Time>2022-09-18T09:42:25.000Z</Time>
            <Position>
              <LatitudeDegrees>40.71532255969941616058349609375</LatitudeDegrees>
              <LongitudeDegrees>24.71770967356860637664794921875</LongitudeDegrees>
            </Position>
            <AltitudeMeters>347.600006103515625</AltitudeMeters>
            <DistanceMeters>13347.946241422</DistanceMeters>
          </Trackpoint>
          <Trackpoint>
            <Time>2022-09-18T09:42:29.000Z</Time>
            <Position>
              <LatitudeDegrees>40.7153127528727054595947265625</LatitudeDegrees>
              <LongitudeDegrees>24.7175922431051731109619140625</LongitudeDegrees>
            </Position>
            <AltitudeMeters>347.79998779296875</AltitudeMeters>
            <DistanceMeters>13357.912727307</DistanceMeters>
          </Trackpoint>
          <Trackpoint>
            <Time>2022-09-18T09:42:30.000Z</Time>
            <Position>
              <LatitudeDegrees>40.71530160494148731231689453125</LatitudeDegrees>
              <LongitudeDegrees>24.717568941414356231689453125</LongitudeDegrees>
            </Position>
            <AltitudeMeters>347.79998779296875</AltitudeMeters>
            <DistanceMeters>13360.240396928</DistanceMeters>
          </Trackpoint>
          <Trackpoint>
            <Time>2022-09-18T09:42:31.000Z</Time>
            <Position>
              <LatitudeDegrees>40.7152899540960788726806640625</LatitudeDegrees>
              <LongitudeDegrees>24.71754522062838077545166015625</LongitudeDegrees>
            </Position>
            <AltitudeMeters>347.79998779296875</AltitudeMeters>
            <DistanceMeters>13362.625548529</DistanceMeters>
          </Trackpoint>
          <Trackpoint>
            <Time>2022-09-18T09:42:33.000Z</Time>
            <Position>
              <LatitudeDegrees>40.71526790969073772430419921875</LatitudeDegrees>
              <LongitudeDegrees>24.7174970246851444244384765625</LongitudeDegrees>
            </Position>
            <AltitudeMeters>347.79998779296875</AltitudeMeters>
            <DistanceMeters>13367.374983333</DistanceMeters>
          </Trackpoint>
          <Trackpoint>
            <Time>2022-09-18T09:42:35.000Z</Time>
            <Position>
              <LatitudeDegrees>40.7152383215725421905517578125</LatitudeDegrees>
              <LongitudeDegrees>24.71744262613356113433837890625</LongitudeDegrees>
            </Position>
            <AltitudeMeters>348.20001220703125</AltitudeMeters>
            <DistanceMeters>13373.023280428</DistanceMeters>
          </Trackpoint>
          <Trackpoint>
            <Time>2022-09-18T09:42:36.000Z</Time>
            <Position>
              <LatitudeDegrees>40.7152228988707065582275390625</LatitudeDegrees>
              <LongitudeDegrees>24.71741664223372936248779296875</LongitudeDegrees>
            </Position>
            <AltitudeMeters>348.20001220703125</AltitudeMeters>
            <DistanceMeters>13375.806768454</DistanceMeters>
          </Trackpoint>
          <Trackpoint>
            <Time>2022-09-18T09:42:38.000Z</Time>
            <Position>
              <LatitudeDegrees>40.71519398130476474761962890625</LatitudeDegrees>
              <LongitudeDegrees>24.7173593938350677490234375</LongitudeDegrees>
            </Position>
            <AltitudeMeters>348.600006103515625</AltitudeMeters>
            <DistanceMeters>13381.610403964</DistanceMeters>
          </Trackpoint>
          <Trackpoint>
            <Time>2022-09-18T09:42:40.000Z</Time>
            <Position>
              <LatitudeDegrees>40.715173445641994476318359375</LatitudeDegrees>
              <LongitudeDegrees>24.7172911651432514190673828125</LongitudeDegrees>
            </Position>
            <AltitudeMeters>349</AltitudeMeters>
            <DistanceMeters>13387.803929998</DistanceMeters>
          </Trackpoint>
          <Trackpoint>
            <Time>2022-09-18T09:42:42.000Z</Time>
            <Position>
              <LatitudeDegrees>40.7151702605187892913818359375</LatitudeDegrees>
              <LongitudeDegrees>24.7172204218804836273193359375</LongitudeDegrees>
            </Position>
            <AltitudeMeters>349.399993896484375</AltitudeMeters>
            <DistanceMeters>13393.783821529</DistanceMeters>
          </Trackpoint>
          <Trackpoint>
            <Time>2022-09-18T09:42:43.000Z</Time>
            <Position>
              <LatitudeDegrees>40.71517302654683589935302734375</LatitudeDegrees>
              <LongitudeDegrees>24.71718865446746349334716796875</LongitudeDegrees>
            </Position>
            <AltitudeMeters>349.399993896484375</AltitudeMeters>
            <DistanceMeters>13396.483316239</DistanceMeters>
          </Trackpoint>
          <Trackpoint>
            <Time>2022-09-18T09:42:47.000Z</Time>
            <Position>
              <LatitudeDegrees>40.71518157608807086944580078125</LatitudeDegrees>
              <LongitudeDegrees>24.71705286763608455657958984375</LongitudeDegrees>
            </Position>
            <AltitudeMeters>350</AltitudeMeters>
            <DistanceMeters>13407.97840687</DistanceMeters>
          </Trackpoint>
          <Trackpoint>
            <Time>2022-09-18T09:42:50.000Z</Time>
            <Position>
              <LatitudeDegrees>40.715195573866367340087890625</LatitudeDegrees>
              <LongitudeDegrees>24.71695370972156524658203125</LongitudeDegrees>
            </Position>
            <AltitudeMeters>350</AltitudeMeters>
            <DistanceMeters>13416.487411096</DistanceMeters>
          </Trackpoint>
          <Trackpoint>
            <Time>2022-09-18T09:42:56.000Z</Time>
            <Position>
              <LatitudeDegrees>40.71524159051477909088134765625</LatitudeDegrees>
              <LongitudeDegrees>24.71678582020103931427001953125</LongitudeDegrees>
            </Position>
            <AltitudeMeters>349.600006103515625</AltitudeMeters>
            <DistanceMeters>13431.548470829</DistanceMeters>
          </Trackpoint>
          <Trackpoint>
            <Time>2022-09-18T09:43:01.000Z</Time>
            <Position>
              <LatitudeDegrees>40.71530411951243877410888671875</LatitudeDegrees>
              <LongitudeDegrees>24.71666377969086170196533203125</LongitudeDegrees>
            </Position>
            <AltitudeMeters>349.600006103515625</AltitudeMeters>
            <DistanceMeters>13443.975552841</DistanceMeters>
          </Trackpoint>
          <Trackpoint>
            <Time>2022-09-18T09:43:03.000Z</Time>
            <Position>
              <LatitudeDegrees>40.71533245034515857696533203125</LatitudeDegrees>
              <LongitudeDegrees>24.7166343592107295989990234375</LongitudeDegrees>
            </Position>
            <AltitudeMeters>350</AltitudeMeters>
            <DistanceMeters>13447.988111414</DistanceMeters>
          </Trackpoint>
          <Trackpoint>
            <Time>2022-09-18T09:43:09.000Z</Time>
            <Position>
              <LatitudeDegrees>40.71541157551109790802001953125</LatitudeDegrees>
              <LongitudeDegrees>24.7165518812835216522216796875</LongitudeDegrees>
            </Position>
            <AltitudeMeters>350.20001220703125</AltitudeMeters>
            <DistanceMeters>13459.211325585</DistanceMeters>
          </Trackpoint>
          <Trackpoint>
            <Time>2022-09-18T09:43:11.000Z</Time>
            <Position>
              <LatitudeDegrees>40.71542766876518726348876953125</LatitudeDegrees>
              <LongitudeDegrees>24.71651558764278888702392578125</LongitudeDegrees>
            </Position>
            <AltitudeMeters>350.399993896484375</AltitudeMeters>
            <DistanceMeters>13462.757999588</DistanceMeters>
          </Trackpoint>
          <Trackpoint>
            <Time>2022-09-18T09:43:16.000Z</Time>
            <Position>
              <LatitudeDegrees>40.715474523603916168212890625</LatitudeDegrees>
              <LongitudeDegrees>24.71642271615564823150634765625</LongitudeDegrees>
            </Position>
            <AltitudeMeters>351.399993896484375</AltitudeMeters>
            <DistanceMeters>13472.169962716</DistanceMeters>
          </Trackpoint>
          <Trackpoint>
            <Time>2022-09-18T09:43:19.000Z</Time>
            <Position>
              <LatitudeDegrees>40.71550293825566768646240234375</LatitudeDegrees>
              <LongitudeDegrees>24.716374687850475311279296875</LongitudeDegrees>
            </Position>
            <AltitudeMeters>351.79998779296875</AltitudeMeters>
            <DistanceMeters>13477.310196531</DistanceMeters>
          </Trackpoint>
          <Trackpoint>
            <Time>2022-09-18T09:43:22.000Z</Time>
            <Position>
              <LatitudeDegrees>40.71552808396518230438232421875</LatitudeDegrees>
              <LongitudeDegrees>24.7163238935172557830810546875</LongitudeDegrees>
            </Position>
            <AltitudeMeters>352.20001220703125</AltitudeMeters>
            <DistanceMeters>13482.428423935</DistanceMeters>
          </Trackpoint>
          <Trackpoint>
            <Time>2022-09-18T09:43:26.000Z</Time>
            <Position>
              <LatitudeDegrees>40.71556949056684970855712890625</LatitudeDegrees>
              <LongitudeDegrees>24.71626010723412036895751953125</LongitudeDegrees>
            </Position>
            <AltitudeMeters>352.399993896484375</AltitudeMeters>
            <DistanceMeters>13489.512855096</DistanceMeters>
          </Trackpoint>
          <Trackpoint>
            <Time>2022-09-18T09:43:32.000Z</Time>
            <Position>
              <LatitudeDegrees>40.7156155072152614593505859375</LatitudeDegrees>
              <LongitudeDegrees>24.7161757014691829681396484375</LongitudeDegrees>
            </Position>
            <AltitudeMeters>353</AltitudeMeters>
            <DistanceMeters>13498.284186312</DistanceMeters>
          </Trackpoint>
          <Trackpoint>
            <Time>2022-09-18T09:43:34.000Z</Time>
            <Position>
              <LatitudeDegrees>40.71562665514647960662841796875</LatitudeDegrees>
              <LongitudeDegrees>24.716148041188716888427734375</LongitudeDegrees>
            </Position>
            <AltitudeMeters>353.20001220703125</AltitudeMeters>
            <DistanceMeters>13500.926202416</DistanceMeters>
          </Trackpoint>
          <Trackpoint>
            <Time>2022-09-18T09:43:40.000Z</Time>
            <Position>
              <LatitudeDegrees>40.71566202677786350250244140625</LatitudeDegrees>
              <LongitudeDegrees>24.71606229431927204132080078125</LongitudeDegrees>
            </Position>
            <AltitudeMeters>353.399993896484375</AltitudeMeters>
            <DistanceMeters>13509.161241826</DistanceMeters>
          </Trackpoint>
          <Trackpoint>
            <Time>2022-09-18T09:43:42.000Z</Time>
            <Position>
              <LatitudeDegrees>40.715670324862003326416015625</LatitudeDegrees>
              <LongitudeDegrees>24.7160281799733638763427734375</LongitudeDegrees>
            </Position>
            <AltitudeMeters>353.600006103515625</AltitudeMeters>
            <DistanceMeters>13512.182732731</DistanceMeters>
          </Trackpoint>
          <Trackpoint>
            <Time>2022-09-18T09:43:48.000Z</Time>
            <Position>
              <LatitudeDegrees>40.71566873230040073394775390625</LatitudeDegrees>
              <LongitudeDegrees>24.715937487781047821044921875</LongitudeDegrees>
            </Position>
            <AltitudeMeters>354.600006103515625</AltitudeMeters>
            <DistanceMeters>13519.83636624</DistanceMeters>
          </Trackpoint>
          <Trackpoint>
            <Time>2022-09-18T09:43:49.000Z</Time>
            <Position>
              <LatitudeDegrees>40.71566554717719554901123046875</LatitudeDegrees>
              <LongitudeDegrees>24.71592365764081478118896484375</LongitudeDegrees>
            </Position>
            <AltitudeMeters>354.600006103515625</AltitudeMeters>
            <DistanceMeters>13521.060699809</DistanceMeters>
          </Trackpoint>
          <Trackpoint>
            <Time>2022-09-18T09:43:54.000Z</Time>
            <Position>
              <LatitudeDegrees>40.715619362890720367431640625</LatitudeDegrees>
              <LongitudeDegrees>24.71585492603480815887451171875</LongitudeDegrees>
            </Position>
            <AltitudeMeters>355.399993896484375</AltitudeMeters>
            <DistanceMeters>13528.809893855</DistanceMeters>
          </Trackpoint>
          <Trackpoint>
            <Time>2022-09-18T09:43:56.000Z</Time>
            <Position>
              <LatitudeDegrees>40.715599246323108673095703125</LatitudeDegrees>
              <LongitudeDegrees>24.7158347256481647491455078125</LongitudeDegrees>
            </Position>
            <AltitudeMeters>355.600006103515625</AltitudeMeters>
            <DistanceMeters>13531.624032629</DistanceMeters>
          </Trackpoint>
          <Trackpoint>
            <Time>2022-09-18T09:43:57.000Z</Time>
            <Position>
              <LatitudeDegrees>40.71558994241058826446533203125</LatitudeDegrees>
              <LongitudeDegrees>24.71582374535501003265380859375</LongitudeDegrees>
            </Position>
            <AltitudeMeters>355.79998779296875</AltitudeMeters>
            <DistanceMeters>13533.014153616</DistanceMeters>
          </Trackpoint>
          <Trackpoint>
            <Time>2022-09-18T09:44:03.000Z</Time>
            <Position>
              <LatitudeDegrees>40.71552389301359653472900390625</LatitudeDegrees>
              <LongitudeDegrees>24.7157780639827251434326171875</LongitudeDegrees>
            </Position>
            <AltitudeMeters>356.79998779296875</AltitudeMeters>
            <DistanceMeters>13541.314724878</DistanceMeters>
          </Trackpoint>
          <Trackpoint>
            <Time>2022-09-18T09:44:05.000Z</Time>
            <Position>
              <LatitudeDegrees>40.715494640171527862548828125</LatitudeDegrees>
              <LongitudeDegrees>24.71576976589858531951904296875</LongitudeDegrees>
            </Position>
            <AltitudeMeters>356.79998779296875</AltitudeMeters>
            <DistanceMeters>13544.644729964</DistanceMeters>
          </Trackpoint>
          <Trackpoint>
            <Time>2022-09-18T09:44:06.000Z</Time>
            <Position>
              <LatitudeDegrees>40.715479888021945953369140625</LatitudeDegrees>
              <LongitudeDegrees>24.71576725132763385772705078125</LongitudeDegrees>
            </Position>
            <AltitudeMeters>356.79998779296875</AltitudeMeters>
            <DistanceMeters>13546.301577343</DistanceMeters>
          </Trackpoint>
          <Trackpoint>
            <Time>2022-09-18T09:44:11.000Z</Time>
            <Position>
              <LatitudeDegrees>40.71541358716785907745361328125</LatitudeDegrees>
              <LongitudeDegrees>24.71577127464115619659423828125</LongitudeDegrees>
            </Position>
            <AltitudeMeters>356.79998779296875</AltitudeMeters>
            <DistanceMeters>13553.689255059</DistanceMeters>
          </Trackpoint>
          <Trackpoint>
            <Time>2022-09-18T09:44:12.000Z</Time>
            <Position>
              <LatitudeDegrees>40.71539950557053089141845703125</LatitudeDegrees>
              <LongitudeDegrees>24.71577093936502933502197265625</LongitudeDegrees>
            </Position>
            <AltitudeMeters>356.79998779296875</AltitudeMeters>
            <DistanceMeters>13555.262227069</DistanceMeters>
          </Trackpoint>
          <Trackpoint>
            <Time>2022-09-18T09:44:18.000Z</Time>
            <Position>
              <LatitudeDegrees>40.7153181172907352447509765625</LatitudeDegrees>
              <LongitudeDegrees>24.71573791466653347015380859375</LongitudeDegrees>
            </Position>
            <AltitudeMeters>356.79998779296875</AltitudeMeters>
            <DistanceMeters>13564.739206562</DistanceMeters>
          </Trackpoint>
          <Trackpoint>
            <Time>2022-09-18T09:44:20.000Z</Time>
            <Position>
              <LatitudeDegrees>40.71529003791511058807373046875</LatitudeDegrees>
              <LongitudeDegrees>24.7157153673470020294189453125</LongitudeDegrees>
            </Position>
            <AltitudeMeters>356.79998779296875</AltitudeMeters>
            <DistanceMeters>13568.397426524</DistanceMeters>
          </Trackpoint>
          <Trackpoint>
            <Time>2022-09-18T09:44:23.000Z</Time>
            <Position>
              <LatitudeDegrees>40.7152341306209564208984375</LatitudeDegrees>
              <LongitudeDegrees>24.71566448919475078582763671875</LongitudeDegrees>
            </Position>
            <AltitudeMeters>356.600006103515625</AltitudeMeters>
            <DistanceMeters>13575.956680703</DistanceMeters>
          </Trackpoint>
          <Trackpoint>
            <Time>2022-09-18T09:44:26.000Z</Time>
            <Position>
              <LatitudeDegrees>40.71517000906169414520263671875</LatitudeDegrees>
              <LongitudeDegrees>24.7155983559787273406982421875</LongitudeDegrees>
            </Position>
            <AltitudeMeters>356.399993896484375</AltitudeMeters>
            <DistanceMeters>13585.015672629</DistanceMeters>
          </Trackpoint>
          <Trackpoint>
            <Time>2022-09-18T09:44:31.000Z</Time>
            <Position>
              <LatitudeDegrees>40.715117119252681732177734375</LatitudeDegrees>
              <LongitudeDegrees>24.7154394350945949554443359375</LongitudeDegrees>
            </Position>
            <AltitudeMeters>357.399993896484375</AltitudeMeters>
            <DistanceMeters>13599.657806181</DistanceMeters>
          </Trackpoint>
          <Trackpoint>
            <Time>2022-09-18T09:44:32.000Z</Time>
            <Position>
              <LatitudeDegrees>40.71512214839458465576171875</LatitudeDegrees>
              <LongitudeDegrees>24.71540297381579875946044921875</LongitudeDegrees>
            </Position>
            <AltitudeMeters>357.600006103515625</AltitudeMeters>
            <DistanceMeters>13602.783592916</DistanceMeters>
          </Trackpoint>
          <Trackpoint>
            <Time>2022-09-18T09:44:36.000Z</Time>
            <Position>
              <LatitudeDegrees>40.7151377387344837188720703125</LatitudeDegrees>
              <LongitudeDegrees>24.71525679342448711395263671875</LongitudeDegrees>
            </Position>
            <AltitudeMeters>357.600006103515625</AltitudeMeters>
            <DistanceMeters>13615.23753177</DistanceMeters>
          </Trackpoint>
          <Trackpoint>
            <Time>2022-09-18T09:44:39.000Z</Time>
            <Position>
              <LatitudeDegrees>40.7151456177234649658203125</LatitudeDegrees>
              <LongitudeDegrees>24.71514598466455936431884765625</LongitudeDegrees>
            </Position>
            <AltitudeMeters>357.20001220703125</AltitudeMeters>
            <DistanceMeters>13624.626921331</DistanceMeters>
          </Trackpoint>
          <Trackpoint>
            <Time>2022-09-18T09:44:40.000Z</Time>
            <Position>
              <LatitudeDegrees>40.71515031158924102783203125</LatitudeDegrees>
              <LongitudeDegrees>24.71511346288025379180908203125</LongitudeDegrees>
            </Position>
            <AltitudeMeters>357.20001220703125</AltitudeMeters>
            <DistanceMeters>13627.420124877</DistanceMeters>
          </Trackpoint>
          <Trackpoint>
            <Time>2022-09-18T09:44:42.000Z</Time>
            <Position>
              <LatitudeDegrees>40.71515039540827274322509765625</LatitudeDegrees>
              <LongitudeDegrees>24.71505646593868732452392578125</LongitudeDegrees>
            </Position>
            <AltitudeMeters>356.79998779296875</AltitudeMeters>
            <DistanceMeters>13632.229077546</DistanceMeters>
          </Trackpoint>
          <Trackpoint>
            <Time>2022-09-18T09:44:44.000Z</Time>
            <Position>
              <LatitudeDegrees>40.7151400856673717498779296875</LatitudeDegrees>
              <LongitudeDegrees>24.7149928472936153411865234375</LongitudeDegrees>
            </Position>
            <AltitudeMeters>357</AltitudeMeters>
            <DistanceMeters>13637.716818879</DistanceMeters>
          </Trackpoint>
          <Trackpoint>
            <Time>2022-09-18T09:44:47.000Z</Time>
            <Position>
              <LatitudeDegrees>40.71512692607939243316650390625</LatitudeDegrees>
              <LongitudeDegrees>24.7149053402245044708251953125</LongitudeDegrees>
            </Position>
            <AltitudeMeters>357</AltitudeMeters>
            <DistanceMeters>13645.242550701</DistanceMeters>
          </Trackpoint>
          <Trackpoint>
            <Time>2022-09-18T09:44:49.000Z</Time>
            <Position>
              <LatitudeDegrees>40.71513363160192966461181640625</LatitudeDegrees>
              <LongitudeDegrees>24.71486116759479045867919921875</LongitudeDegrees>
            </Position>
            <AltitudeMeters>357.20001220703125</AltitudeMeters>
            <DistanceMeters>13649.041242865</DistanceMeters>
          </Trackpoint>
          <Trackpoint>
            <Time>2022-09-18T09:44:52.000Z</Time>
            <Position>
              <LatitudeDegrees>40.71516372263431549072265625</LatitudeDegrees>
              <LongitudeDegrees>24.7148032486438751220703125</LongitudeDegrees>
            </Position>
            <AltitudeMeters>356.600006103515625</AltitudeMeters>
            <DistanceMeters>13654.964998183</DistanceMeters>
          </Trackpoint>
          <Trackpoint>
            <Time>2022-09-18T09:44:54.000Z</Time>
            <Position>
              <LatitudeDegrees>40.7151912152767181396484375</LatitudeDegrees>
              <LongitudeDegrees>24.7147568129003047943115234375</LongitudeDegrees>
            </Position>
            <AltitudeMeters>355.79998779296875</AltitudeMeters>
            <DistanceMeters>13659.935540321</DistanceMeters>
          </Trackpoint>
          <Trackpoint>
            <Time>2022-09-18T09:44:56.000Z</Time>
            <Position>
              <LatitudeDegrees>40.7152215577661991119384765625</LatitudeDegrees>
              <LongitudeDegrees>24.7146978043019771575927734375</LongitudeDegrees>
            </Position>
            <AltitudeMeters>354.399993896484375</AltitudeMeters>
            <DistanceMeters>13665.950813907</DistanceMeters>
          </Trackpoint>
          <Trackpoint>
            <Time>2022-09-18T09:44:59.000Z</Time>
            <Position>
              <LatitudeDegrees>40.715269334614276885986328125</LatitudeDegrees>
              <LongitudeDegrees>24.71461708657443523406982421875</LongitudeDegrees>
            </Position>
            <AltitudeMeters>353.20001220703125</AltitudeMeters>
            <DistanceMeters>13674.590409493</DistanceMeters>
          </Trackpoint>
          <Trackpoint>
            <Time>2022-09-18T09:45:00.000Z</Time>
            <Position>
              <LatitudeDegrees>40.7152943126857280731201171875</LatitudeDegrees>
              <LongitudeDegrees>24.71458540298044681549072265625</LongitudeDegrees>
            </Position>
            <AltitudeMeters>353</AltitudeMeters>
            <DistanceMeters>13678.446902187</DistanceMeters>
          </Trackpoint>
          <Trackpoint>
            <Time>2022-09-18T09:45:03.000Z</Time>
            <Position>
              <LatitudeDegrees>40.71534468792378902435302734375</LatitudeDegrees>
              <LongitudeDegrees>24.7144983150064945220947265625</LongitudeDegrees>
            </Position>
            <AltitudeMeters>352.20001220703125</AltitudeMeters>
            <DistanceMeters>13687.688952451</DistanceMeters>
          </Trackpoint>
          <Trackpoint>
            <Time>2022-09-18T09:45:07.000Z</Time>
            <Position>
              <LatitudeDegrees>40.715394727885723114013671875</LatitudeDegrees>
              <LongitudeDegrees>24.71439798362553119659423828125</LongitudeDegrees>
            </Position>
            <AltitudeMeters>351.399993896484375</AltitudeMeters>
            <DistanceMeters>13697.82077899</DistanceMeters>
          </Trackpoint>
          <Trackpoint>
            <Time>2022-09-18T09:45:10.000Z</Time>
            <Position>
              <LatitudeDegrees>40.7154237292706966400146484375</LatitudeDegrees>
              <LongitudeDegrees>24.7143340297043323516845703125</LongitudeDegrees>
            </Position>
            <AltitudeMeters>351.20001220703125</AltitudeMeters>
            <DistanceMeters>13704.108359977</DistanceMeters>
          </Trackpoint>
          <Trackpoint>
            <Time>2022-09-18T09:45:15.000Z</Time>
            <Position>
              <LatitudeDegrees>40.71547687053680419921875</LatitudeDegrees>
              <LongitudeDegrees>24.71419346518814563751220703125</LongitudeDegrees>
            </Position>
            <AltitudeMeters>350.399993896484375</AltitudeMeters>
            <DistanceMeters>13717.360413655</DistanceMeters>
          </Trackpoint>
          <Trackpoint>
            <Time>2022-09-18T09:45:17.000Z</Time>
            <Position>
              <LatitudeDegrees>40.71549363434314727783203125</LatitudeDegrees>
              <LongitudeDegrees>24.71414401195943355560302734375</LongitudeDegrees>
            </Position>
            <AltitudeMeters>350</AltitudeMeters>
            <DistanceMeters>13721.930596017</DistanceMeters>
          </Trackpoint>
          <Trackpoint>
            <Time>2022-09-18T09:45:23.000Z</Time>
            <Position>
              <LatitudeDegrees>40.71559815667569637298583984375</LatitudeDegrees>
              <LongitudeDegrees>24.71400990150868892669677734375</LongitudeDegrees>
            </Position>
            <AltitudeMeters>349</AltitudeMeters>
            <DistanceMeters>13738.158198713</DistanceMeters>
          </Trackpoint>
          <Trackpoint>
            <Time>2022-09-18T09:45:24.000Z</Time>
            <Position>
              <LatitudeDegrees>40.715601257979869842529296875</LatitudeDegrees>
              <LongitudeDegrees>24.71397017128765583038330078125</LongitudeDegrees>
            </Position>
            <AltitudeMeters>349</AltitudeMeters>
            <DistanceMeters>13741.528634317</DistanceMeters>
          </Trackpoint>
          <Trackpoint>
            <Time>2022-09-18T09:45:28.000Z</Time>
            <Position>
              <LatitudeDegrees>40.71561978198587894439697265625</LatitudeDegrees>
              <LongitudeDegrees>24.71385802142322063446044921875</LongitudeDegrees>
            </Position>
            <AltitudeMeters>347.79998779296875</AltitudeMeters>
            <DistanceMeters>13751.212038357</DistanceMeters>
          </Trackpoint>
          <Trackpoint>
            <Time>2022-09-18T09:45:30.000Z</Time>
            <Position>
              <LatitudeDegrees>40.715586505830287933349609375</LatitudeDegrees>
              <LongitudeDegrees>24.7137814946472644805908203125</LongitudeDegrees>
            </Position>
            <AltitudeMeters>347.600006103515625</AltitudeMeters>
            <DistanceMeters>13758.65512367</DistanceMeters>
          </Trackpoint>
          <Trackpoint>
            <Time>2022-09-18T09:45:34.000Z</Time>
            <Position>
              <LatitudeDegrees>40.71548826992511749267578125</LatitudeDegrees>
              <LongitudeDegrees>24.71363539807498455047607421875</LongitudeDegrees>
            </Position>
            <AltitudeMeters>346.399993896484375</AltitudeMeters>
            <DistanceMeters>13775.130684295</DistanceMeters>
          </Trackpoint>
          <Trackpoint>
            <Time>2022-09-18T09:45:35.000Z</Time>
            <Position>
              <LatitudeDegrees>40.715475864708423614501953125</LatitudeDegrees>
              <LongitudeDegrees>24.7135967575013637542724609375</LongitudeDegrees>
            </Position>
            <AltitudeMeters>345.79998779296875</AltitudeMeters>
            <DistanceMeters>13778.670987404</DistanceMeters>
          </Trackpoint>
          <Trackpoint>
            <Time>2022-09-18T09:45:37.000Z</Time>
            <Position>
              <LatitudeDegrees>40.71547343395650386810302734375</LatitudeDegrees>
              <LongitudeDegrees>24.71352224238216876983642578125</LongitudeDegrees>
            </Position>
            <AltitudeMeters>345.20001220703125</AltitudeMeters>
            <DistanceMeters>13784.962875446</DistanceMeters>
          </Trackpoint>
          <Trackpoint>
            <Time>2022-09-18T09:45:40.000Z</Time>
            <Position>
              <LatitudeDegrees>40.7154884375631809234619140625</LatitudeDegrees>
              <LongitudeDegrees>24.71341813914477825164794921875</LongitudeDegrees>
            </Position>
            <AltitudeMeters>345.20001220703125</AltitudeMeters>
            <DistanceMeters>13793.902965301</DistanceMeters>
          </Trackpoint>
          <Trackpoint>
            <Time>2022-09-18T09:45:46.000Z</Time>
            <Position>
              <LatitudeDegrees>40.71547695435583591461181640625</LatitudeDegrees>
              <LongitudeDegrees>24.7132256068289279937744140625</LongitudeDegrees>
            </Position>
            <AltitudeMeters>344.79998779296875</AltitudeMeters>
            <DistanceMeters>13810.195821319</DistanceMeters>
          </Trackpoint>
          <Trackpoint>
            <Time>2022-09-18T09:45:47.000Z</Time>
            <Position>
              <LatitudeDegrees>40.7154626213014125823974609375</LatitudeDegrees>
              <LongitudeDegrees>24.71319995820522308349609375</LongitudeDegrees>
            </Position>
            <AltitudeMeters>344.600006103515625</AltitudeMeters>
            <DistanceMeters>13812.881902308</DistanceMeters>
          </Trackpoint>
          <Trackpoint>
            <Time>2022-09-18T09:45:49.000Z</Time>
            <Position>
              <LatitudeDegrees>40.71542733348906040191650390625</LatitudeDegrees>
              <LongitudeDegrees>24.713155366480350494384765625</LongitudeDegrees>
            </Position>
            <AltitudeMeters>344</AltitudeMeters>
            <DistanceMeters>13818.3200546</DistanceMeters>
          </Trackpoint>
          <Trackpoint>
            <Time>2022-09-18T09:45:52.000Z</Time>
            <Position>
              <LatitudeDegrees>40.71537033654749393463134765625</LatitudeDegrees>
              <LongitudeDegrees>24.7131075896322727203369140625</LongitudeDegrees>
            </Position>
            <AltitudeMeters>342.79998779296875</AltitudeMeters>
            <DistanceMeters>13825.836181144</DistanceMeters>
          </Trackpoint>
          <Trackpoint>
            <Time>2022-09-18T09:45:54.000Z</Time>
            <Position>
              <LatitudeDegrees>40.7153333723545074462890625</LatitudeDegrees>
              <LongitudeDegrees>24.7130733914673328399658203125</LongitudeDegrees>
            </Position>
            <AltitudeMeters>342.20001220703125</AltitudeMeters>
            <DistanceMeters>13830.860929271</DistanceMeters>
          </Trackpoint>
          <Trackpoint>
            <Time>2022-09-18T09:45:56.000Z</Time>
            <Position>
              <LatitudeDegrees>40.715302191674709320068359375</LatitudeDegrees>
              <LongitudeDegrees>24.71302955411374568939208984375</LongitudeDegrees>
            </Position>
            <AltitudeMeters>341.600006103515625</AltitudeMeters>
            <DistanceMeters>13835.932187272</DistanceMeters>
          </Trackpoint>
          <Trackpoint>
            <Time>2022-09-18T09:46:00.000Z</Time>
            <Position>
              <LatitudeDegrees>40.71531015448272228240966796875</LatitudeDegrees>
              <LongitudeDegrees>24.712917320430278778076171875</LongitudeDegrees>
            </Position>
            <AltitudeMeters>341</AltitudeMeters>
            <DistanceMeters>13845.442457808</DistanceMeters>
          </Trackpoint>
          <Trackpoint>
            <Time>2022-09-18T09:46:03.000Z</Time>
            <Position>
              <LatitudeDegrees>40.7153161056339740753173828125</LatitudeDegrees>
              <LongitudeDegrees>24.71281548030674457550048828125</LongitudeDegrees>
            </Position>
            <AltitudeMeters>340.600006103515625</AltitudeMeters>
            <DistanceMeters>13854.059028386</DistanceMeters>
          </Trackpoint>
          <Trackpoint>
            <Time>2022-09-18T09:46:07.000Z</Time>
            <Position>
              <LatitudeDegrees>40.7153305225074291229248046875</LatitudeDegrees>
              <LongitudeDegrees>24.71265672706067562103271484375</LongitudeDegrees>
            </Position>
            <AltitudeMeters>339.600006103515625</AltitudeMeters>
            <DistanceMeters>13867.547132408</DistanceMeters>
          </Trackpoint>
          <Trackpoint>
            <Time>2022-09-18T09:46:08.000Z</Time>
            <Position>
              <LatitudeDegrees>40.71533513255417346954345703125</LatitudeDegrees>
              <LongitudeDegrees>24.71262923441827297210693359375</LongitudeDegrees>
            </Position>
            <AltitudeMeters>339.399993896484375</AltitudeMeters>
            <DistanceMeters>13869.920898972</DistanceMeters>
          </Trackpoint>
          <Trackpoint>
            <Time>2022-09-18T09:46:13.000Z</Time>
            <Position>
              <LatitudeDegrees>40.7153486274182796478271484375</LatitudeDegrees>
              <LongitudeDegrees>24.71246561966836452484130859375</LongitudeDegrees>
            </Position>
            <AltitudeMeters>338.399993896484375</AltitudeMeters>
            <DistanceMeters>13883.805209251</DistanceMeters>
          </Trackpoint>
          <Trackpoint>
            <Time>2022-09-18T09:46:19.000Z</Time>
            <Position>
              <LatitudeDegrees>40.71539632044732570648193359375</LatitudeDegrees>
              <LongitudeDegrees>24.712277948856353759765625</LongitudeDegrees>
            </Position>
            <AltitudeMeters>338.20001220703125</AltitudeMeters>
            <DistanceMeters>13900.503704109</DistanceMeters>
          </Trackpoint>
          <Trackpoint>
            <Time>2022-09-18T09:46:20.000Z</Time>
            <Position>
              <LatitudeDegrees>40.7153955660760402679443359375</LatitudeDegrees>
              <LongitudeDegrees>24.7122479416429996490478515625</LongitudeDegrees>
            </Position>
            <AltitudeMeters>338.20001220703125</AltitudeMeters>
            <DistanceMeters>13903.035769328</DistanceMeters>
          </Trackpoint>
          <Trackpoint>
            <Time>2022-09-18T09:46:24.000Z</Time>
            <Position>
              <LatitudeDegrees>40.7153870165348052978515625</LatitudeDegrees>
              <LongitudeDegrees>24.71211441792547702789306640625</LongitudeDegrees>
            </Position>
            <AltitudeMeters>337.20001220703125</AltitudeMeters>
            <DistanceMeters>13914.34035432</DistanceMeters>
          </Trackpoint>
          <Trackpoint>
            <Time>2022-09-18T09:46:28.000Z</Time>
            <Position>
              <LatitudeDegrees>40.71540889330208301544189453125</LatitudeDegrees>
              <LongitudeDegrees>24.7119934670627117156982421875</LongitudeDegrees>
            </Position>
            <AltitudeMeters>336.399993896484375</AltitudeMeters>
            <DistanceMeters>13924.83080434</DistanceMeters>
          </Trackpoint>
          <Trackpoint>
            <Time>2022-09-18T09:46:29.000Z</Time>
            <Position>
              <LatitudeDegrees>40.715412162244319915771484375</LatitudeDegrees>
              <LongitudeDegrees>24.7119646333158016204833984375</LongitudeDegrees>
            </Position>
            <AltitudeMeters>336.20001220703125</AltitudeMeters>
            <DistanceMeters>13927.292344771</DistanceMeters>
          </Trackpoint>
          <Trackpoint>
            <Time>2022-09-18T09:46:32.000Z</Time>
            <Position>
              <LatitudeDegrees>40.7153948955237865447998046875</LatitudeDegrees>
              <LongitudeDegrees>24.71187603659927845001220703125</LongitudeDegrees>
            </Position>
            <AltitudeMeters>335</AltitudeMeters>
            <DistanceMeters>13935.010011791</DistanceMeters>
          </Trackpoint>
          <Trackpoint>
            <Time>2022-09-18T09:46:36.000Z</Time>
            <Position>
              <LatitudeDegrees>40.715371929109096527099609375</LatitudeDegrees>
              <LongitudeDegrees>24.71176573075354099273681640625</LongitudeDegrees>
            </Position>
            <AltitudeMeters>334.399993896484375</AltitudeMeters>
            <DistanceMeters>13944.660722046</DistanceMeters>
          </Trackpoint>
          <Trackpoint>
            <Time>2022-09-18T09:46:39.000Z</Time>
            <Position>
              <LatitudeDegrees>40.71537100709974765777587890625</LatitudeDegrees>
              <LongitudeDegrees>24.711688868701457977294921875</LongitudeDegrees>
            </Position>
            <AltitudeMeters>333.79998779296875</AltitudeMeters>
            <DistanceMeters>13951.146251792</DistanceMeters>
          </Trackpoint>
          <Trackpoint>
            <Time>2022-09-18T09:46:43.000Z</Time>
            <Position>
              <LatitudeDegrees>40.71535340510308742523193359375</LatitudeDegrees>
              <LongitudeDegrees>24.7115810774266719818115234375</LongitudeDegrees>
            </Position>
            <AltitudeMeters>332.79998779296875</AltitudeMeters>
            <DistanceMeters>13960.448197421</DistanceMeters>
          </Trackpoint>
          <Trackpoint>
            <Time>2022-09-18T09:46:44.000Z</Time>
            <Position>
              <LatitudeDegrees>40.7153563387691974639892578125</LatitudeDegrees>
              <LongitudeDegrees>24.71154008992016315460205078125</LongitudeDegrees>
            </Position>
            <AltitudeMeters>332.399993896484375</AltitudeMeters>
            <DistanceMeters>13963.921550574</DistanceMeters>
          </Trackpoint>
          <Trackpoint>
            <Time>2022-09-18T09:46:46.000Z</Time>
            <Position>
              <LatitudeDegrees>40.71537821553647518157958984375</LatitudeDegrees>
              <LongitudeDegrees>24.71145845018327236175537109375</LongitudeDegrees>
            </Position>
            <AltitudeMeters>331.600006103515625</AltitudeMeters>
            <DistanceMeters>13971.226874098</DistanceMeters>
          </Trackpoint>
          <Trackpoint>
            <Time>2022-09-18T09:46:49.000Z</Time>
            <Position>
              <LatitudeDegrees>40.715436302125453948974609375</LatitudeDegrees>
              <LongitudeDegrees>24.71136809326708316802978515625</LongitudeDegrees>
            </Position>
            <AltitudeMeters>331</AltitudeMeters>
            <DistanceMeters>13981.222311346</DistanceMeters>
          </Trackpoint>
          <Trackpoint>
            <Time>2022-09-18T09:46:55.000Z</Time>
            <Position>
              <LatitudeDegrees>40.71557418443262577056884765625</LatitudeDegrees>
              <LongitudeDegrees>24.71128645353019237518310546875</LongitudeDegrees>
            </Position>
            <AltitudeMeters>331.79998779296875</AltitudeMeters>
            <DistanceMeters>13998.043381921</DistanceMeters>
          </Trackpoint>
          <Trackpoint>
            <Time>2022-09-18T09:46:57.000Z</Time>
            <Position>
              <LatitudeDegrees>40.7156150043010711669921875</LatitudeDegrees>
              <LongitudeDegrees>24.71124328672885894775390625</LongitudeDegrees>
            </Position>
            <AltitudeMeters>332</AltitudeMeters>
            <DistanceMeters>14003.865658707</DistanceMeters>
          </Trackpoint>
          <Trackpoint>
            <Time>2022-09-18T09:47:01.000Z</Time>
            <Position>
              <LatitudeDegrees>40.71564543060958385467529296875</LatitudeDegrees>
              <LongitudeDegrees>24.711119234561920166015625</LongitudeDegrees>
            </Position>
            <AltitudeMeters>332.20001220703125</AltitudeMeters>
            <DistanceMeters>14014.86497524</DistanceMeters>
          </Trackpoint>
          <Trackpoint>
            <Time>2022-09-18T09:47:04.000Z</Time>
            <Position>
              <LatitudeDegrees>40.715615339577198028564453125</LatitudeDegrees>
              <LongitudeDegrees>24.71101940609514713287353515625</LongitudeDegrees>
            </Position>
            <AltitudeMeters>332.600006103515625</AltitudeMeters>
            <DistanceMeters>14023.928451693</DistanceMeters>
          </Trackpoint>
          <Trackpoint>
            <Time>2022-09-18T09:47:06.000Z</Time>
            <Position>
              <LatitudeDegrees>40.71559463627636432647705078125</LatitudeDegrees>
              <LongitudeDegrees>24.7109594754874706268310546875</LongitudeDegrees>
            </Position>
            <AltitudeMeters>333</AltitudeMeters>
            <DistanceMeters>14029.484874225</DistanceMeters>
          </Trackpoint>
          <Trackpoint>
            <Time>2022-09-18T09:47:09.000Z</Time>
            <Position>
              <LatitudeDegrees>40.7155935466289520263671875</LatitudeDegrees>
              <LongitudeDegrees>24.71087314188480377197265625</LongitudeDegrees>
            </Position>
            <AltitudeMeters>333.600006103515625</AltitudeMeters>
            <DistanceMeters>14036.769153818</DistanceMeters>
          </Trackpoint>
          <Trackpoint>
            <Time>2022-09-18T09:47:11.000Z</Time>
            <Position>
              <LatitudeDegrees>40.7156007550656795501708984375</LatitudeDegrees>
              <LongitudeDegrees>24.71082695759832859039306640625</LongitudeDegrees>
            </Position>
            <AltitudeMeters>334</AltitudeMeters>
            <DistanceMeters>14040.746677411</DistanceMeters>
          </Trackpoint>
          <Trackpoint>
            <Time>2022-09-18T09:47:17.000Z</Time>
            <Position>
              <LatitudeDegrees>40.715630091726779937744140625</LatitudeDegrees>
              <LongitudeDegrees>24.71070106141269207000732421875</LongitudeDegrees>
            </Position>
            <AltitudeMeters>334.600006103515625</AltitudeMeters>
            <DistanceMeters>14051.858709866</DistanceMeters>
          </Trackpoint>
          <Trackpoint>
            <Time>2022-09-18T09:47:18.000Z</Time>
            <Position>
              <LatitudeDegrees>40.71563017554581165313720703125</LatitudeDegrees>
              <LongitudeDegrees>24.7106785140931606292724609375</LongitudeDegrees>
            </Position>
            <AltitudeMeters>334.79998779296875</AltitudeMeters>
            <DistanceMeters>14053.759244154</DistanceMeters>
          </Trackpoint>
          <Trackpoint>
            <Time>2022-09-18T09:47:20.000Z</Time>
            <Position>
              <LatitudeDegrees>40.71563805453479290008544921875</LatitudeDegrees>
              <LongitudeDegrees>24.710642807185649871826171875</LongitudeDegrees>
            </Position>
            <AltitudeMeters>335</AltitudeMeters>
            <DistanceMeters>14056.896565196</DistanceMeters>
          </Trackpoint>
          <Trackpoint>
            <Time>2022-09-18T09:47:25.000Z</Time>
            <Position>
              <LatitudeDegrees>40.715677700936794281005859375</LatitudeDegrees>
              <LongitudeDegrees>24.7105494327843189239501953125</LongitudeDegrees>
            </Position>
            <AltitudeMeters>335.399993896484375</AltitudeMeters>
            <DistanceMeters>14065.926103402</DistanceMeters>
          </Trackpoint>
          <Trackpoint>
            <Time>2022-09-18T09:47:28.000Z</Time>
            <Position>
              <LatitudeDegrees>40.71569672785699367523193359375</LatitudeDegrees>
              <LongitudeDegrees>24.7105034999549388885498046875</LongitudeDegrees>
            </Position>
            <AltitudeMeters>335.79998779296875</AltitudeMeters>
            <DistanceMeters>14070.342545988</DistanceMeters>
          </Trackpoint>
          <Trackpoint>
            <Time>2022-09-18T09:47:29.000Z</Time>
            <Position>
              <LatitudeDegrees>40.715700499713420867919921875</LatitudeDegrees>
              <LongitudeDegrees>24.7104900889098644256591796875</LongitudeDegrees>
            </Position>
            <AltitudeMeters>336</AltitudeMeters>
            <DistanceMeters>14071.552038603</DistanceMeters>
          </Trackpoint>
          <Trackpoint>
            <Time>2022-09-18T09:47:31.000Z</Time>
            <Position>
              <LatitudeDegrees>40.7157035171985626220703125</LatitudeDegrees>
              <LongitudeDegrees>24.710467793047428131103515625</LongitudeDegrees>
            </Position>
            <AltitudeMeters>336.20001220703125</AltitudeMeters>
            <DistanceMeters>14073.46441434</DistanceMeters>
          </Trackpoint>
          <Trackpoint>
            <Time>2022-09-18T09:47:32.000Z</Time>
            <Position>
              <LatitudeDegrees>40.7157080434262752532958984375</LatitudeDegrees>
              <LongitudeDegrees>24.71045245416462421417236328125</LongitudeDegrees>
            </Position>
            <AltitudeMeters>336.600006103515625</AltitudeMeters>
            <DistanceMeters>14074.854535327</DistanceMeters>
          </Trackpoint>
          <Trackpoint>
            <Time>2022-09-18T09:47:36.000Z</Time>
            <Position>
              <LatitudeDegrees>40.71572363376617431640625</LatitudeDegrees>
              <LongitudeDegrees>24.71039160154759883880615234375</LongitudeDegrees>
            </Position>
            <AltitudeMeters>337</AltitudeMeters>
            <DistanceMeters>14080.272724925</DistanceMeters>
          </Trackpoint>
          <Trackpoint>
            <Time>2022-09-18T09:47:39.000Z</Time>
            <Position>
              <LatitudeDegrees>40.7157355360686779022216796875</LatitudeDegrees>
              <LongitudeDegrees>24.71035145223140716552734375</LongitudeDegrees>
            </Position>
            <AltitudeMeters>337.20001220703125</AltitudeMeters>
            <DistanceMeters>14083.909902676</DistanceMeters>
          </Trackpoint>
          <Trackpoint>
            <Time>2022-09-18T09:47:41.000Z</Time>
            <Position>
              <LatitudeDegrees>40.71575137786567211151123046875</LatitudeDegrees>
              <LongitudeDegrees>24.710319600999355316162109375</LongitudeDegrees>
            </Position>
            <AltitudeMeters>337.399993896484375</AltitudeMeters>
            <DistanceMeters>14087.125402252</DistanceMeters>
          </Trackpoint>
          <Trackpoint>
            <Time>2022-09-18T09:47:43.000Z</Time>
            <Position>
              <LatitudeDegrees>40.7157667167484760284423828125</LatitudeDegrees>
              <LongitudeDegrees>24.71028707921504974365234375</LongitudeDegrees>
            </Position>
            <AltitudeMeters>337.600006103515625</AltitudeMeters>
            <DistanceMeters>14090.359104237</DistanceMeters>
          </Trackpoint>
          <Trackpoint>
            <Time>2022-09-18T09:47:48.000Z</Time>
            <Position>
              <LatitudeDegrees>40.71577417664229869842529296875</LatitudeDegrees>
              <LongitudeDegrees>24.71020887605845928192138671875</LongitudeDegrees>
            </Position>
            <AltitudeMeters>338</AltitudeMeters>
            <DistanceMeters>14097.008258639</DistanceMeters>
          </Trackpoint>
          <Trackpoint>
            <Time>2022-09-18T09:47:54.000Z</Time>
            <Position>
              <LatitudeDegrees>40.71579672396183013916015625</LatitudeDegrees>
              <LongitudeDegrees>24.71003620885312557220458984375</LongitudeDegrees>
            </Position>
            <AltitudeMeters>338</AltitudeMeters>
            <DistanceMeters>14111.789113468</DistanceMeters>
          </Trackpoint>
          <Trackpoint>
            <Time>2022-09-18T09:47:59.000Z</Time>
            <Position>
              <LatitudeDegrees>40.71580703370273113250732421875</LatitudeDegrees>
              <LongitudeDegrees>24.70988265238702297210693359375</LongitudeDegrees>
            </Position>
            <AltitudeMeters>338.399993896484375</AltitudeMeters>
            <DistanceMeters>14124.794240603</DistanceMeters>
          </Trackpoint>
          <Trackpoint>
            <Time>2022-09-18T09:48:02.000Z</Time>
            <Position>
              <LatitudeDegrees>40.7158126495778560638427734375</LatitudeDegrees>
              <LongitudeDegrees>24.7097957320511341094970703125</LongitudeDegrees>
            </Position>
            <AltitudeMeters>338.20001220703125</AltitudeMeters>
            <DistanceMeters>14132.153751356</DistanceMeters>
          </Trackpoint>
          <Trackpoint>
            <Time>2022-09-18T09:48:08.000Z</Time>
            <Position>
              <LatitudeDegrees>40.7158832252025604248046875</LatitudeDegrees>
              <LongitudeDegrees>24.7096103243529796600341796875</LongitudeDegrees>
            </Position>
            <AltitudeMeters>337.20001220703125</AltitudeMeters>
            <DistanceMeters>14149.656991156</DistanceMeters>
          </Trackpoint>
          <Trackpoint>
            <Time>2022-09-18T09:48:09.000Z</Time>
            <Position>
              <LatitudeDegrees>40.7158994860947132110595703125</LatitudeDegrees>
              <LongitudeDegrees>24.70958341844379901885986328125</LongitudeDegrees>
            </Position>
            <AltitudeMeters>337.399993896484375</AltitudeMeters>
            <DistanceMeters>14152.559586774</DistanceMeters>
          </Trackpoint>
          <Trackpoint>
            <Time>2022-09-18T09:48:11.000Z</Time>
            <Position>
              <LatitudeDegrees>40.71592002175748348236083984375</LatitudeDegrees>
              <LongitudeDegrees>24.70954871736466884613037109375</LongitudeDegrees>
            </Position>
            <AltitudeMeters>338</AltitudeMeters>
            <DistanceMeters>14156.274146884</DistanceMeters>
          </Trackpoint>
          <Trackpoint>
            <Time>2022-09-18T09:48:19.000Z</Time>
            <Position>
              <LatitudeDegrees>40.71596008725464344024658203125</LatitudeDegrees>
              <LongitudeDegrees>24.7094963304698467254638671875</LongitudeDegrees>
            </Position>
            <AltitudeMeters>339</AltitudeMeters>
            <DistanceMeters>14162.553104899</DistanceMeters>
          </Trackpoint>
          <Trackpoint>
            <Time>2022-09-18T09:48:21.000Z</Time>
            <Position>
              <LatitudeDegrees>40.71598556824028491973876953125</LatitudeDegrees>
              <LongitudeDegrees>24.709456264972686767578125</LongitudeDegrees>
            </Position>
            <AltitudeMeters>339</AltitudeMeters>
            <DistanceMeters>14166.965456291</DistanceMeters>
          </Trackpoint>
          <Trackpoint>
            <Time>2022-09-18T09:48:27.000Z</Time>
            <Position>
              <LatitudeDegrees>40.71611498482525348663330078125</LatitudeDegrees>
              <LongitudeDegrees>24.7093806602060794830322265625</LongitudeDegrees>
            </Position>
            <AltitudeMeters>339.79998779296875</AltitudeMeters>
            <DistanceMeters>14182.718695985</DistanceMeters>
          </Trackpoint>
          <Trackpoint>
            <Time>2022-09-18T09:48:29.000Z</Time>
            <Position>
              <LatitudeDegrees>40.7161509431898593902587890625</LatitudeDegrees>
              <LongitudeDegrees>24.709356017410755157470703125</LongitudeDegrees>
            </Position>
            <AltitudeMeters>340</AltitudeMeters>
            <DistanceMeters>14187.230213723</DistanceMeters>
          </Trackpoint>
          <Trackpoint>
            <Time>2022-09-18T09:48:30.000Z</Time>
            <Position>
              <LatitudeDegrees>40.716163851320743560791015625</LatitudeDegrees>
              <LongitudeDegrees>24.70934696495532989501953125</LongitudeDegrees>
            </Position>
            <AltitudeMeters>340.20001220703125</AltitudeMeters>
            <DistanceMeters>14188.85403093</DistanceMeters>
          </Trackpoint>
          <Trackpoint>
            <Time>2022-09-18T09:48:36.000Z</Time>
            <Position>
              <LatitudeDegrees>40.71620978415012359619140625</LatitudeDegrees>
              <LongitudeDegrees>24.70935232937335968017578125</LongitudeDegrees>
            </Position>
            <AltitudeMeters>340.399993896484375</AltitudeMeters>
            <DistanceMeters>14193.985473506</DistanceMeters>
          </Trackpoint>
          <Trackpoint>
            <Time>2022-09-18T09:48:37.000Z</Time>
            <Position>
              <LatitudeDegrees>40.71622344665229320526123046875</LatitudeDegrees>
              <LongitudeDegrees>24.7093655727803707122802734375</LongitudeDegrees>
            </Position>
            <AltitudeMeters>340.600006103515625</AltitudeMeters>
            <DistanceMeters>14195.871699929</DistanceMeters>
          </Trackpoint>
          <Trackpoint>
            <Time>2022-09-18T09:48:41.000Z</Time>
            <Position>
              <LatitudeDegrees>40.7162605784833431243896484375</LatitudeDegrees>
              <LongitudeDegrees>24.70943002961575984954833984375</LongitudeDegrees>
            </Position>
            <AltitudeMeters>339.79998779296875</AltitudeMeters>
            <DistanceMeters>14202.701734695</DistanceMeters>
          </Trackpoint>
          <Trackpoint>
            <Time>2022-09-18T09:48:45.000Z</Time>
            <Position>
              <LatitudeDegrees>40.716293938457965850830078125</LatitudeDegrees>
              <LongitudeDegrees>24.70951636321842670440673828125</LongitudeDegrees>
            </Position>
            <AltitudeMeters>339</AltitudeMeters>
            <DistanceMeters>14210.877346345</DistanceMeters>
          </Trackpoint>
          <Trackpoint>
            <Time>2022-09-18T09:48:47.000Z</Time>
            <Position>
              <LatitudeDegrees>40.71632503531873226165771484375</LatitudeDegrees>
              <LongitudeDegrees>24.7095622122287750244140625</LongitudeDegrees>
            </Position>
            <AltitudeMeters>338.20001220703125</AltitudeMeters>
            <DistanceMeters>14216.068275752</DistanceMeters>
          </Trackpoint>
          <Trackpoint>
            <Time>2022-09-18T09:48:48.000Z</Time>
            <Position>
              <LatitudeDegrees>40.7163373567163944244384765625</LatitudeDegrees>
              <LongitudeDegrees>24.7095818258821964263916015625</LongitudeDegrees>
            </Position>
            <AltitudeMeters>337.79998779296875</AltitudeMeters>
            <DistanceMeters>14218.218484844</DistanceMeters>
          </Trackpoint>
          <Trackpoint>
            <Time>2022-09-18T09:48:50.000Z</Time>
            <Position>
              <LatitudeDegrees>40.71636828593909740447998046875</LatitudeDegrees>
              <LongitudeDegrees>24.70962549559772014617919921875</LongitudeDegrees>
            </Position>
            <AltitudeMeters>336.79998779296875</AltitudeMeters>
            <DistanceMeters>14223.26117215</DistanceMeters>
          </Trackpoint>
          <Trackpoint>
            <Time>2022-09-18T09:48:51.000Z</Time>
            <Position>
              <LatitudeDegrees>40.71638421155512332916259765625</LatitudeDegrees>
              <LongitudeDegrees>24.70964142121374607086181640625</LongitudeDegrees>
            </Position>
            <AltitudeMeters>336.399993896484375</AltitudeMeters>
            <DistanceMeters>14225.4856905</DistanceMeters>
          </Trackpoint>
          <Trackpoint>
            <Time>2022-09-18T09:48:52.000Z</Time>
            <Position>
              <LatitudeDegrees>40.71640416048467159271240234375</LatitudeDegrees>
              <LongitudeDegrees>24.709661789238452911376953125</LongitudeDegrees>
            </Position>
            <AltitudeMeters>335.79998779296875</AltitudeMeters>
            <DistanceMeters>14228.293404292</DistanceMeters>
          </Trackpoint>
          <Trackpoint>
            <Time>2022-09-18T09:48:56.000Z</Time>
            <Position>
              <LatitudeDegrees>40.71647590957581996917724609375</LatitudeDegrees>
              <LongitudeDegrees>24.7097447700798511505126953125</LongitudeDegrees>
            </Position>
            <AltitudeMeters>334.79998779296875</AltitudeMeters>
            <DistanceMeters>14238.913038217</DistanceMeters>
          </Trackpoint>
          <Trackpoint>
            <Time>2022-09-18T09:48:58.000Z</Time>
            <Position>
              <LatitudeDegrees>40.7165143825113773345947265625</LatitudeDegrees>
              <LongitudeDegrees>24.70978458411991596221923828125</LongitudeDegrees>
            </Position>
            <AltitudeMeters>334</AltitudeMeters>
            <DistanceMeters>14244.355340187</DistanceMeters>
          </Trackpoint>
          <Trackpoint>
            <Time>2022-09-18T09:49:00.000Z</Time>
            <Position>
              <LatitudeDegrees>40.7165405340492725372314453125</LatitudeDegrees>
              <LongitudeDegrees>24.709843508899211883544921875</LongitudeDegrees>
            </Position>
            <AltitudeMeters>333.600006103515625</AltitudeMeters>
            <DistanceMeters>14250.115244775</DistanceMeters>
          </Trackpoint>
          <Trackpoint>
            <Time>2022-09-18T09:49:03.000Z</Time>
            <Position>
              <LatitudeDegrees>40.7165686972439289093017578125</LatitudeDegrees>
              <LongitudeDegrees>24.709938056766986846923828125</LongitudeDegrees>
            </Position>
            <AltitudeMeters>332.79998779296875</AltitudeMeters>
            <DistanceMeters>14258.685052924</DistanceMeters>
          </Trackpoint>
          <Trackpoint>
            <Time>2022-09-18T09:49:04.000Z</Time>
            <Position>
              <LatitudeDegrees>40.716572217643260955810546875</LatitudeDegrees>
              <LongitudeDegrees>24.70996865071356296539306640625</LongitudeDegrees>
            </Position>
            <AltitudeMeters>332.399993896484375</AltitudeMeters>
            <DistanceMeters>14261.294397217</DistanceMeters>
          </Trackpoint>
          <Trackpoint>
            <Time>2022-09-18T09:49:07.000Z</Time>
            <Position>
              <LatitudeDegrees>40.7165697030723094940185546875</LatitudeDegrees>
              <LongitudeDegrees>24.71007409505546092987060546875</LongitudeDegrees>
            </Position>
            <AltitudeMeters>331</AltitudeMeters>
            <DistanceMeters>14270.194500057</DistanceMeters>
          </Trackpoint>
          <Trackpoint>
            <Time>2022-09-18T09:49:10.000Z</Time>
            <Position>
              <LatitudeDegrees>40.716552771627902984619140625</LatitudeDegrees>
              <LongitudeDegrees>24.71016512252390384674072265625</LongitudeDegrees>
            </Position>
            <AltitudeMeters>329.79998779296875</AltitudeMeters>
            <DistanceMeters>14278.101156697</DistanceMeters>
          </Trackpoint>
          <Trackpoint>
            <Time>2022-09-18T09:49:14.000Z</Time>
            <Position>
              <LatitudeDegrees>40.71652469225227832794189453125</LatitudeDegrees>
              <LongitudeDegrees>24.71029353328049182891845703125</LongitudeDegrees>
            </Position>
            <AltitudeMeters>328.600006103515625</AltitudeMeters>
            <DistanceMeters>14289.375346514</DistanceMeters>
          </Trackpoint>
          <Trackpoint>
            <Time>2022-09-18T09:49:16.000Z</Time>
            <Position>
              <LatitudeDegrees>40.71652092039585113525390625</LatitudeDegrees>
              <LongitudeDegrees>24.710347764194011688232421875</LongitudeDegrees>
            </Position>
            <AltitudeMeters>328</AltitudeMeters>
            <DistanceMeters>14293.969178101</DistanceMeters>
          </Trackpoint>
          <Trackpoint>
            <Time>2022-09-18T09:49:17.000Z</Time>
            <Position>
              <LatitudeDegrees>40.716527290642261505126953125</LatitudeDegrees>
              <LongitudeDegrees>24.71037684939801692962646484375</LongitudeDegrees>
            </Position>
            <AltitudeMeters>327.600006103515625</AltitudeMeters>
            <DistanceMeters>14296.52431905</DistanceMeters>
          </Trackpoint>
          <Trackpoint>
            <Time>2022-09-18T09:49:19.000Z</Time>
            <Position>
              <LatitudeDegrees>40.71655302308499813079833984375</LatitudeDegrees>
              <LongitudeDegrees>24.71042144112288951873779296875</LongitudeDegrees>
            </Position>
            <AltitudeMeters>326.20001220703125</AltitudeMeters>
            <DistanceMeters>14301.252793357</DistanceMeters>
          </Trackpoint>
          <Trackpoint>
            <Time>2022-09-18T09:49:21.000Z</Time>
            <Position>
              <LatitudeDegrees>40.71659962646663188934326171875</LatitudeDegrees>
              <LongitudeDegrees>24.7104381211102008819580078125</LongitudeDegrees>
            </Position>
            <AltitudeMeters>325.20001220703125</AltitudeMeters>
            <DistanceMeters>14306.627476096</DistanceMeters>
          </Trackpoint>
          <Trackpoint>
            <Time>2022-09-18T09:49:22.000Z</Time>
            <Position>
              <LatitudeDegrees>40.7166233472526073455810546875</LatitudeDegrees>
              <LongitudeDegrees>24.7104392945766448974609375</LongitudeDegrees>
            </Position>
            <AltitudeMeters>324.79998779296875</AltitudeMeters>
            <DistanceMeters>14309.26778271</DistanceMeters>
          </Trackpoint>
          <Trackpoint>
            <Time>2022-09-18T09:49:23.000Z</Time>
            <Position>
              <LatitudeDegrees>40.71664606221020221710205078125</LatitudeDegrees>
              <LongitudeDegrees>24.71043401397764682769775390625</LongitudeDegrees>
            </Position>
            <AltitudeMeters>324.600006103515625</AltitudeMeters>
            <DistanceMeters>14311.835263149</DistanceMeters>
          </Trackpoint>
          <Trackpoint>
            <Time>2022-09-18T09:49:25.000Z</Time>
            <Position>
              <LatitudeDegrees>40.7166863791644573211669921875</LatitudeDegrees>
              <LongitudeDegrees>24.71041825599968433380126953125</LongitudeDegrees>
            </Position>
            <AltitudeMeters>323.79998779296875</AltitudeMeters>
            <DistanceMeters>14316.515750885</DistanceMeters>
          </Trackpoint>
          <Trackpoint>
            <Time>2022-09-18T09:49:28.000Z</Time>
            <Position>
              <LatitudeDegrees>40.71674781851470470428466796875</LatitudeDegrees>
              <LongitudeDegrees>24.71040350385010242462158203125</LongitudeDegrees>
            </Position>
            <AltitudeMeters>322.79998779296875</AltitudeMeters>
            <DistanceMeters>14323.466355821</DistanceMeters>
          </Trackpoint>
          <Trackpoint>
            <Time>2022-09-18T09:49:31.000Z</Time>
            <Position>
              <LatitudeDegrees>40.716798193752765655517578125</LatitudeDegrees>
              <LongitudeDegrees>24.71040509641170501708984375</LongitudeDegrees>
            </Position>
            <AltitudeMeters>321.600006103515625</AltitudeMeters>
            <DistanceMeters>14329.075347382</DistanceMeters>
          </Trackpoint>
          <Trackpoint>
            <Time>2022-09-18T09:49:34.000Z</Time>
            <Position>
              <LatitudeDegrees>40.71684622205793857574462890625</LatitudeDegrees>
              <LongitudeDegrees>24.7104478441178798675537109375</LongitudeDegrees>
            </Position>
            <AltitudeMeters>320.600006103515625</AltitudeMeters>
            <DistanceMeters>14335.523874503</DistanceMeters>
          </Trackpoint>
          <Trackpoint>
            <Time>2022-09-18T09:49:36.000Z</Time>
            <Position>
              <LatitudeDegrees>40.716870613396167755126953125</LatitudeDegrees>
              <LongitudeDegrees>24.7104904241859912872314453125</LongitudeDegrees>
            </Position>
            <AltitudeMeters>319.399993896484375</AltitudeMeters>
            <DistanceMeters>14340.026376209</DistanceMeters>
          </Trackpoint>
          <Trackpoint>
            <Time>2022-09-18T09:49:38.000Z</Time>
            <Position>
              <LatitudeDegrees>40.71689332835376262664794921875</LatitudeDegrees>
              <LongitudeDegrees>24.71052738837897777557373046875</LongitudeDegrees>
            </Position>
            <AltitudeMeters>318</AltitudeMeters>
            <DistanceMeters>14344.041184605</DistanceMeters>
          </Trackpoint>
          <Trackpoint>
            <Time>2022-09-18T09:49:41.000Z</Time>
            <Position>
              <LatitudeDegrees>40.71691763587296009063720703125</LatitudeDegrees>
              <LongitudeDegrees>24.71059544943273067474365234375</LongitudeDegrees>
            </Position>
            <AltitudeMeters>317.399993896484375</AltitudeMeters>
            <DistanceMeters>14350.388798416</DistanceMeters>
          </Trackpoint>
          <Trackpoint>
            <Time>2022-09-18T09:49:43.000Z</Time>
            <Position>
              <LatitudeDegrees>40.7169344834983348846435546875</LatitudeDegrees>
              <LongitudeDegrees>24.7106362693011760711669921875</LongitudeDegrees>
            </Position>
            <AltitudeMeters>317</AltitudeMeters>
            <DistanceMeters>14354.310305802</DistanceMeters>
          </Trackpoint>
          <Trackpoint>
            <Time>2022-09-18T09:49:48.000Z</Time>
            <Position>
              <LatitudeDegrees>40.71698226034641265869140625</LatitudeDegrees>
              <LongitudeDegrees>24.71074196510016918182373046875</LongitudeDegrees>
            </Position>
            <AltitudeMeters>315.79998779296875</AltitudeMeters>
            <DistanceMeters>14364.692164616</DistanceMeters>
          </Trackpoint>
          <Trackpoint>
            <Time>2022-09-18T09:49:49.000Z</Time>
            <Position>
              <LatitudeDegrees>40.71699122898280620574951171875</LatitudeDegrees>
              <LongitudeDegrees>24.7107599861919879913330078125</LongitudeDegrees>
            </Position>
            <AltitudeMeters>315.600006103515625</AltitudeMeters>
            <DistanceMeters>14366.510132707</DistanceMeters>
          </Trackpoint>
          <Trackpoint>
            <Time>2022-09-18T09:49:51.000Z</Time>
            <Position>
              <LatitudeDegrees>40.7170186378061771392822265625</LatitudeDegrees>
              <LongitudeDegrees>24.71081874333322048187255859375</LongitudeDegrees>
            </Position>
            <AltitudeMeters>314.79998779296875</AltitudeMeters>
            <DistanceMeters>14372.330858333</DistanceMeters>
          </Trackpoint>
          <Trackpoint>
            <Time>2022-09-18T09:49:56.000Z</Time>
            <Position>
              <LatitudeDegrees>40.7170451246201992034912109375</LatitudeDegrees>
              <LongitudeDegrees>24.71095771528780460357666015625</LongitudeDegrees>
            </Position>
            <AltitudeMeters>313.399993896484375</AltitudeMeters>
            <DistanceMeters>14384.419810197</DistanceMeters>
          </Trackpoint>
          <Trackpoint>
            <Time>2022-09-18T09:50:00.000Z</Time>
            <Position>
              <LatitudeDegrees>40.7170628942549228668212890625</LatitudeDegrees>
              <LongitudeDegrees>24.71109484322369098663330078125</LongitudeDegrees>
            </Position>
            <AltitudeMeters>312</AltitudeMeters>
            <DistanceMeters>14396.156282669</DistanceMeters>
          </Trackpoint>
          <Trackpoint>
            <Time>2022-09-18T09:50:02.000Z</Time>
            <Position>
              <LatitudeDegrees>40.7170823402702808380126953125</LatitudeDegrees>
              <LongitudeDegrees>24.7111539356410503387451171875</LongitudeDegrees>
            </Position>
            <AltitudeMeters>311.399993896484375</AltitudeMeters>
            <DistanceMeters>14401.590282114</DistanceMeters>
          </Trackpoint>
          <Trackpoint>
            <Time>2022-09-18T09:50:04.000Z</Time>
            <Position>
              <LatitudeDegrees>40.71711712516844272613525390625</LatitudeDegrees>
              <LongitudeDegrees>24.71121772192418575286865234375</LongitudeDegrees>
            </Position>
            <AltitudeMeters>310.79998779296875</AltitudeMeters>
            <DistanceMeters>14408.219715126</DistanceMeters>
          </Trackpoint>
          <Trackpoint>
            <Time>2022-09-18T09:50:08.000Z</Time>
            <Position>
              <LatitudeDegrees>40.7171983458101749420166015625</LatitudeDegrees>
              <LongitudeDegrees>24.71132651902735233306884765625</LongitudeDegrees>
            </Position>
            <AltitudeMeters>309.399993896484375</AltitudeMeters>
            <DistanceMeters>14421.10275844</DistanceMeters>
          </Trackpoint>
          <Trackpoint>
            <Time>2022-09-18T09:50:12.000Z</Time>
            <Position>
              <LatitudeDegrees>40.717273615300655364990234375</LatitudeDegrees>
              <LongitudeDegrees>24.71142274327576160430908203125</LongitudeDegrees>
            </Position>
            <AltitudeMeters>308.399993896484375</AltitudeMeters>
            <DistanceMeters>14432.768231084</DistanceMeters>
          </Trackpoint>
          <Trackpoint>
            <Time>2022-09-18T09:50:15.000Z</Time>
            <Position>
              <LatitudeDegrees>40.7173123396933078765869140625</LatitudeDegrees>
              <LongitudeDegrees>24.71151150763034820556640625</LongitudeDegrees>
            </Position>
            <AltitudeMeters>307</AltitudeMeters>
            <DistanceMeters>14441.40782667</DistanceMeters>
          </Trackpoint>
          <Trackpoint>
            <Time>2022-09-18T09:50:19.000Z</Time>
            <Position>
              <LatitudeDegrees>40.71738333441317081451416015625</LatitudeDegrees>
              <LongitudeDegrees>24.7116340510547161102294921875</LongitudeDegrees>
            </Position>
            <AltitudeMeters>305.79998779296875</AltitudeMeters>
            <DistanceMeters>14454.419895426</DistanceMeters>
          </Trackpoint>
          <Trackpoint>
            <Time>2022-09-18T09:50:21.000Z</Time>
            <Position>
              <LatitudeDegrees>40.7174239866435527801513671875</LatitudeDegrees>
              <LongitudeDegrees>24.71170219592750072479248046875</LongitudeDegrees>
            </Position>
            <AltitudeMeters>304.79998779296875</AltitudeMeters>
            <DistanceMeters>14461.73633535</DistanceMeters>
          </Trackpoint>
          <Trackpoint>
            <Time>2022-09-18T09:50:24.000Z</Time>
            <Position>
              <LatitudeDegrees>40.71746631525456905364990234375</LatitudeDegrees>
              <LongitudeDegrees>24.71179406158626079559326171875</LongitudeDegrees>
            </Position>
            <AltitudeMeters>304</AltitudeMeters>
            <DistanceMeters>14470.805787722</DistanceMeters>
          </Trackpoint>
          <Trackpoint>
            <Time>2022-09-18T09:50:26.000Z</Time>
            <Position>
              <LatitudeDegrees>40.71749682538211345672607421875</LatitudeDegrees>
              <LongitudeDegrees>24.7118635475635528564453125</LongitudeDegrees>
            </Position>
            <AltitudeMeters>303.79998779296875</AltitudeMeters>
            <DistanceMeters>14477.58006617</DistanceMeters>
          </Trackpoint>
          <Trackpoint>
            <Time>2022-09-18T09:50:27.000Z</Time>
            <Position>
              <LatitudeDegrees>40.7175074703991413116455078125</LatitudeDegrees>
              <LongitudeDegrees>24.7119022719562053680419921875</LongitudeDegrees>
            </Position>
            <AltitudeMeters>303.600006103515625</AltitudeMeters>
            <DistanceMeters>14481.054718988</DistanceMeters>
          </Trackpoint>
          <Trackpoint>
            <Time>2022-09-18T09:50:29.000Z</Time>
            <Position>
              <LatitudeDegrees>40.71753253228962421417236328125</LatitudeDegrees>
              <LongitudeDegrees>24.7119762003421783447265625</LongitudeDegrees>
            </Position>
            <AltitudeMeters>302.600006103515625</AltitudeMeters>
            <DistanceMeters>14487.886075739</DistanceMeters>
          </Trackpoint>
          <Trackpoint>
            <Time>2022-09-18T09:50:35.000Z</Time>
            <Position>
              <LatitudeDegrees>40.71757762692868709564208984375</LatitudeDegrees>
              <LongitudeDegrees>24.7121570818126201629638671875</LongitudeDegrees>
            </Position>
            <AltitudeMeters>301.79998779296875</AltitudeMeters>
            <DistanceMeters>14503.949526003</DistanceMeters>
          </Trackpoint>
          <Trackpoint>
            <Time>2022-09-18T09:50:41.000Z</Time>
            <Position>
              <LatitudeDegrees>40.71765281260013580322265625</LatitudeDegrees>
              <LongitudeDegrees>24.71234324388206005096435546875</LongitudeDegrees>
            </Position>
            <AltitudeMeters>301.600006103515625</AltitudeMeters>
            <DistanceMeters>14521.744150489</DistanceMeters>
          </Trackpoint>
          <Trackpoint>
            <Time>2022-09-18T09:50:42.000Z</Time>
            <Position>
              <LatitudeDegrees>40.71766362525522708892822265625</LatitudeDegrees>
              <LongitudeDegrees>24.712367467582225799560546875</LongitudeDegrees>
            </Position>
            <AltitudeMeters>301.399993896484375</AltitudeMeters>
            <DistanceMeters>14524.114109887</DistanceMeters>
          </Trackpoint>
          <Trackpoint>
            <Time>2022-09-18T09:50:48.000Z</Time>
            <Position>
              <LatitudeDegrees>40.7177431695163249969482421875</LatitudeDegrees>
              <LongitudeDegrees>24.712513983249664306640625</LongitudeDegrees>
            </Position>
            <AltitudeMeters>301</AltitudeMeters>
            <DistanceMeters>14539.317790258</DistanceMeters>
          </Trackpoint>
          <Trackpoint>
            <Time>2022-09-18T09:50:51.000Z</Time>
            <Position>
              <LatitudeDegrees>40.71778130717575550079345703125</LatitudeDegrees>
              <LongitudeDegrees>24.71259470097720623016357421875</LongitudeDegrees>
            </Position>
            <AltitudeMeters>301</AltitudeMeters>
            <DistanceMeters>14547.341782097</DistanceMeters>
          </Trackpoint>
          <Trackpoint>
            <Time>2022-09-18T09:50:57.000Z</Time>
            <Position>
              <LatitudeDegrees>40.717796981334686279296875</LatitudeDegrees>
              <LongitudeDegrees>24.71275563351809978485107421875</LongitudeDegrees>
            </Position>
            <AltitudeMeters>301.399993896484375</AltitudeMeters>
            <DistanceMeters>14561.029587841</DistanceMeters>
          </Trackpoint>
          <Trackpoint>
            <Time>2022-09-18T09:51:01.000Z</Time>
            <Position>
              <LatitudeDegrees>40.71779907681047916412353515625</LatitudeDegrees>
              <LongitudeDegrees>24.7128796018660068511962890625</LongitudeDegrees>
            </Position>
            <AltitudeMeters>301.20001220703125</AltitudeMeters>
            <DistanceMeters>14571.490298445</DistanceMeters>
          </Trackpoint>
          <Trackpoint>
            <Time>2022-09-18T09:51:39.000Z</Time>
            <Position>
              <LatitudeDegrees>40.71775431744754314422607421875</LatitudeDegrees>
              <LongitudeDegrees>24.71298814751207828521728515625</LongitudeDegrees>
            </Position>
            <AltitudeMeters>300.79998779296875</AltitudeMeters>
            <DistanceMeters>14581.91469003</DistanceMeters>
          </Trackpoint>
          <Trackpoint>
            <Time>2022-09-18T09:51:40.000Z</Time>
            <Position>
              <LatitudeDegrees>40.717769153416156768798828125</LatitudeDegrees>
              <LongitudeDegrees>24.7130049951374530792236328125</LongitudeDegrees>
            </Position>
            <AltitudeMeters>301</AltitudeMeters>
            <DistanceMeters>14584.092025589</DistanceMeters>
          </Trackpoint>
          <Trackpoint>
            <Time>2022-09-18T09:51:42.000Z</Time>
            <Position>
              <LatitudeDegrees>40.71779237128794193267822265625</LatitudeDegrees>
              <LongitudeDegrees>24.71304531209170818328857421875</LongitudeDegrees>
            </Position>
            <AltitudeMeters>300.79998779296875</AltitudeMeters>
            <DistanceMeters>14588.36294521</DistanceMeters>
          </Trackpoint>
          <Trackpoint>
            <Time>2022-09-18T09:51:43.000Z</Time>
            <Position>
              <LatitudeDegrees>40.71781282313168048858642578125</LatitudeDegrees>
              <LongitudeDegrees>24.71307062543928623199462890625</LongitudeDegrees>
            </Position>
            <AltitudeMeters>300.600006103515625</AltitudeMeters>
            <DistanceMeters>14591.484395592</DistanceMeters>
          </Trackpoint>
          <Trackpoint>
            <Time>2022-09-18T09:51:44.000Z</Time>
            <Position>
              <LatitudeDegrees>40.71783386170864105224609375</LatitudeDegrees>
              <LongitudeDegrees>24.713097028434276580810546875</LongitudeDegrees>
            </Position>
            <AltitudeMeters>300.20001220703125</AltitudeMeters>
            <DistanceMeters>14594.71530388</DistanceMeters>
          </Trackpoint>
          <Trackpoint>
            <Time>2022-09-18T09:51:46.000Z</Time>
            <Position>
              <LatitudeDegrees>40.71787317283451557159423828125</LatitudeDegrees>
              <LongitudeDegrees>24.7131511755287647247314453125</LongitudeDegrees>
            </Position>
            <AltitudeMeters>299.79998779296875</AltitudeMeters>
            <DistanceMeters>14601.040115233</DistanceMeters>
          </Trackpoint>
          <Trackpoint>
            <Time>2022-09-18T09:51:48.000Z</Time>
            <Position>
              <LatitudeDegrees>40.71791323833167552947998046875</LatitudeDegrees>
              <LongitudeDegrees>24.71319333650171756744384765625</LongitudeDegrees>
            </Position>
            <AltitudeMeters>299.79998779296875</AltitudeMeters>
            <DistanceMeters>14606.744093268</DistanceMeters>
          </Trackpoint>
          <Trackpoint>
            <Time>2022-09-18T09:51:50.000Z</Time>
            <Position>
              <LatitudeDegrees>40.7179429940879344940185546875</LatitudeDegrees>
              <LongitudeDegrees>24.7132395207881927490234375</LongitudeDegrees>
            </Position>
            <AltitudeMeters>299.79998779296875</AltitudeMeters>
            <DistanceMeters>14611.857908027</DistanceMeters>
          </Trackpoint>
          <Trackpoint>
            <Time>2022-09-18T09:51:53.000Z</Time>
            <Position>
              <LatitudeDegrees>40.717976354062557220458984375</LatitudeDegrees>
              <LongitudeDegrees>24.71330598928034305572509765625</LongitudeDegrees>
            </Position>
            <AltitudeMeters>299.20001220703125</AltitudeMeters>
            <DistanceMeters>14618.584027486</DistanceMeters>
          </Trackpoint>
          <Trackpoint>
            <Time>2022-09-18T09:51:56.000Z</Time>
            <Position>
              <LatitudeDegrees>40.71801625192165374755859375</LatitudeDegrees>
              <LongitudeDegrees>24.71338561736047267913818359375</LongitudeDegrees>
            </Position>
            <AltitudeMeters>298</AltitudeMeters>
            <DistanceMeters>14626.636665498</DistanceMeters>
          </Trackpoint>
          <Trackpoint>
            <Time>2022-09-18T09:51:57.000Z</Time>
            <Position>
              <LatitudeDegrees>40.71803175844252109527587890625</LatitudeDegrees>
              <LongitudeDegrees>24.713411517441272735595703125</LongitudeDegrees>
            </Position>
            <AltitudeMeters>297.600006103515625</AltitudeMeters>
            <DistanceMeters>14629.42177513</DistanceMeters>
          </Trackpoint>
          <Trackpoint>
            <Time>2022-09-18T09:51:59.000Z</Time>
            <Position>
              <LatitudeDegrees>40.7180593349039554595947265625</LatitudeDegrees>
              <LongitudeDegrees>24.7134592942893505096435546875</LongitudeDegrees>
            </Position>
            <AltitudeMeters>296.79998779296875</AltitudeMeters>
            <DistanceMeters>14634.4876884</DistanceMeters>
          </Trackpoint>
          <Trackpoint>
            <Time>2022-09-18T09:52:02.000Z</Time>
            <Position>
              <LatitudeDegrees>40.71809294633567333221435546875</LatitudeDegrees>
              <LongitudeDegrees>24.71353481523692607879638671875</LongitudeDegrees>
            </Position>
            <AltitudeMeters>295.20001220703125</AltitudeMeters>
            <DistanceMeters>14641.875366115</DistanceMeters>
          </Trackpoint>
          <Trackpoint>
            <Time>2022-09-18T09:52:04.000Z</Time>
            <Position>
              <LatitudeDegrees>40.7181012444198131561279296875</LatitudeDegrees>
              <LongitudeDegrees>24.71358711831271648406982421875</LongitudeDegrees>
            </Position>
            <AltitudeMeters>294.20001220703125</AltitudeMeters>
            <DistanceMeters>14646.384881849</DistanceMeters>
          </Trackpoint>
          <Trackpoint>
            <Time>2022-09-18T09:52:07.000Z</Time>
            <Position>
              <LatitudeDegrees>40.71813519112765789031982421875</LatitudeDegrees>
              <LongitudeDegrees>24.7136530838906764984130859375</LongitudeDegrees>
            </Position>
            <AltitudeMeters>293</AltitudeMeters>
            <DistanceMeters>14653.111001308</DistanceMeters>
          </Trackpoint>
          <Trackpoint>
            <Time>2022-09-18T09:52:10.000Z</Time>
            <Position>
              <LatitudeDegrees>40.7181659527122974395751953125</LatitudeDegrees>
              <LongitudeDegrees>24.71372927539050579071044921875</LongitudeDegrees>
            </Position>
            <AltitudeMeters>291.600006103515625</AltitudeMeters>
            <DistanceMeters>14660.394041129</DistanceMeters>
          </Trackpoint>
          <Trackpoint>
            <Time>2022-09-18T09:52:13.000Z</Time>
            <Position>
              <LatitudeDegrees>40.71818598546087741851806640625</LatitudeDegrees>
              <LongitudeDegrees>24.713813178241252899169921875</LongitudeDegrees>
            </Position>
            <AltitudeMeters>290.399993896484375</AltitudeMeters>
            <DistanceMeters>14667.814647988</DistanceMeters>
          </Trackpoint>
          <Trackpoint>
            <Time>2022-09-18T09:52:14.000Z</Time>
            <Position>
              <LatitudeDegrees>40.7181941159069538116455078125</LatitudeDegrees>
              <LongitudeDegrees>24.71384226344525814056396484375</LongitudeDegrees>
            </Position>
            <AltitudeMeters>289.79998779296875</AltitudeMeters>
            <DistanceMeters>14670.430904463</DistanceMeters>
          </Trackpoint>
          <Trackpoint>
            <Time>2022-09-18T09:52:15.000Z</Time>
            <Position>
              <LatitudeDegrees>40.71820425800979137420654296875</LatitudeDegrees>
              <LongitudeDegrees>24.71386824734508991241455078125</LongitudeDegrees>
            </Position>
            <AltitudeMeters>289.20001220703125</AltitudeMeters>
            <DistanceMeters>14672.897941456</DistanceMeters>
          </Trackpoint>
          <Trackpoint>
            <Time>2022-09-18T09:52:17.000Z</Time>
            <Position>
              <LatitudeDegrees>40.71822269819676876068115234375</LatitudeDegrees>
              <LongitudeDegrees>24.7139263339340686798095703125</LongitudeDegrees>
            </Position>
            <AltitudeMeters>288.20001220703125</AltitudeMeters>
            <DistanceMeters>14678.210946158</DistanceMeters>
          </Trackpoint>
          <Trackpoint>
            <Time>2022-09-18T09:52:21.000Z</Time>
            <Position>
              <LatitudeDegrees>40.718275420367717742919921875</LatitudeDegrees>
              <LongitudeDegrees>24.71402549184858798980712890625</LongitudeDegrees>
            </Position>
            <AltitudeMeters>287</AltitudeMeters>
            <DistanceMeters>14688.428859049</DistanceMeters>
          </Trackpoint>
          <Trackpoint>
            <Time>2022-09-18T09:52:23.000Z</Time>
            <Position>
              <LatitudeDegrees>40.71829159744083881378173828125</LatitudeDegrees>
              <LongitudeDegrees>24.71408215351402759552001953125</LongitudeDegrees>
            </Position>
            <AltitudeMeters>286.399993896484375</AltitudeMeters>
            <DistanceMeters>14693.536489698</DistanceMeters>
          </Trackpoint>
          <Trackpoint>
            <Time>2022-09-18T09:52:25.000Z</Time>
            <Position>
              <LatitudeDegrees>40.71830634959042072296142578125</LatitudeDegrees>
              <LongitudeDegrees>24.71414032392203807830810546875</LongitudeDegrees>
            </Position>
            <AltitudeMeters>285.79998779296875</AltitudeMeters>
            <DistanceMeters>14698.711739135</DistanceMeters>
          </Trackpoint>
          <Trackpoint>
            <Time>2022-09-18T09:52:28.000Z</Time>
            <Position>
              <LatitudeDegrees>40.71831774897873401641845703125</LatitudeDegrees>
              <LongitudeDegrees>24.7142176888883113861083984375</LongitudeDegrees>
            </Position>
            <AltitudeMeters>284.600006103515625</AltitudeMeters>
            <DistanceMeters>14705.360893537</DistanceMeters>
          </Trackpoint>
          <Trackpoint>
            <Time>2022-09-18T09:52:30.000Z</Time>
            <Position>
              <LatitudeDegrees>40.7183148153126239776611328125</LatitudeDegrees>
              <LongitudeDegrees>24.71427409909665584564208984375</LongitudeDegrees>
            </Position>
            <AltitudeMeters>283.79998779296875</AltitudeMeters>
            <DistanceMeters>14710.131196739</DistanceMeters>
          </Trackpoint>
          <Trackpoint>
            <Time>2022-09-18T09:52:31.000Z</Time>
            <Position>
              <LatitudeDegrees>40.7183148153126239776611328125</LatitudeDegrees>
              <LongitudeDegrees>24.7142981551587581634521484375</LongitudeDegrees>
            </Position>
            <AltitudeMeters>283.600006103515625</AltitudeMeters>
            <DistanceMeters>14712.162635868</DistanceMeters>
          </Trackpoint>
          <Trackpoint>
            <Time>2022-09-18T09:52:35.000Z</Time>
            <Position>
              <LatitudeDegrees>40.71833300404250621795654296875</LatitudeDegrees>
              <LongitudeDegrees>24.71437199972569942474365234375</LongitudeDegrees>
            </Position>
            <AltitudeMeters>282.399993896484375</AltitudeMeters>
            <DistanceMeters>14718.713278834</DistanceMeters>
          </Trackpoint>
          <Trackpoint>
            <Time>2022-09-18T09:52:36.000Z</Time>
            <Position>
              <LatitudeDegrees>40.71833602152764797210693359375</LatitudeDegrees>
              <LongitudeDegrees>24.7143955528736114501953125</LongitudeDegrees>
            </Position>
            <AltitudeMeters>281.79998779296875</AltitudeMeters>
            <DistanceMeters>14720.726858811</DistanceMeters>
          </Trackpoint>
          <Trackpoint>
            <Time>2022-09-18T09:52:37.000Z</Time>
            <Position>
              <LatitudeDegrees>40.7183423079550266265869140625</LatitudeDegrees>
              <LongitudeDegrees>24.71441508270800113677978515625</LongitudeDegrees>
            </Position>
            <AltitudeMeters>281.20001220703125</AltitudeMeters>
            <DistanceMeters>14722.514775772</DistanceMeters>
          </Trackpoint>
          <Trackpoint>
            <Time>2022-09-18T09:52:40.000Z</Time>
            <Position>
              <LatitudeDegrees>40.71835689246654510498046875</LatitudeDegrees>
              <LongitudeDegrees>24.7144835628569126129150390625</LongitudeDegrees>
            </Position>
            <AltitudeMeters>280</AltitudeMeters>
            <DistanceMeters>14728.515018666</DistanceMeters>
          </Trackpoint>
          <Trackpoint>
            <Time>2022-09-18T09:52:43.000Z</Time>
            <Position>
              <LatitudeDegrees>40.71836653165519237518310546875</LatitudeDegrees>
              <LongitudeDegrees>24.714554138481616973876953125</LongitudeDegrees>
            </Position>
            <AltitudeMeters>279.20001220703125</AltitudeMeters>
            <DistanceMeters>14734.564721123</DistanceMeters>
          </Trackpoint>
          <Trackpoint>
            <Time>2022-09-18T09:52:44.000Z</Time>
            <Position>
              <LatitudeDegrees>40.71836736984550952911376953125</LatitudeDegrees>
              <LongitudeDegrees>24.7145752608776092529296875</LongitudeDegrees>
            </Position>
            <AltitudeMeters>278.79998779296875</AltitudeMeters>
            <DistanceMeters>14736.350110993</DistanceMeters>
          </Trackpoint>
          <Trackpoint>
            <Time>2022-09-18T09:52:48.000Z</Time>
            <Position>
              <LatitudeDegrees>40.7183667831122875213623046875</LatitudeDegrees>
              <LongitudeDegrees>24.71465782262384891510009765625</LongitudeDegrees>
            </Position>
            <AltitudeMeters>277.600006103515625</AltitudeMeters>
            <DistanceMeters>14743.31499223</DistanceMeters>
          </Trackpoint>
          <Trackpoint>
            <Time>2022-09-18T09:52:49.000Z</Time>
            <Position>
              <LatitudeDegrees>40.718368627130985260009765625</LatitudeDegrees>
              <LongitudeDegrees>24.714678861200809478759765625</LongitudeDegrees>
            </Position>
            <AltitudeMeters>277.20001220703125</AltitudeMeters>
            <DistanceMeters>14745.102909192</DistanceMeters>
          </Trackpoint>
          <Trackpoint>
            <Time>2022-09-18T09:52:51.000Z</Time>
            <Position>
              <LatitudeDegrees>40.71837457828223705291748046875</LatitudeDegrees>
              <LongitudeDegrees>24.714722447097301483154296875</LongitudeDegrees>
            </Position>
            <AltitudeMeters>276.399993896484375</AltitudeMeters>
            <DistanceMeters>14748.839284197</DistanceMeters>
          </Trackpoint>
          <Trackpoint>
            <Time>2022-09-18T09:52:55.000Z</Time>
            <Position>
              <LatitudeDegrees>40.71834742091596126556396484375</LatitudeDegrees>
              <LongitudeDegrees>24.7148242034018039703369140625</LongitudeDegrees>
            </Position>
            <AltitudeMeters>275.20001220703125</AltitudeMeters>
            <DistanceMeters>14757.940045767</DistanceMeters>
          </Trackpoint>
          <Trackpoint>
            <Time>2022-09-18T09:52:56.000Z</Time>
            <Position>
              <LatitudeDegrees>40.7183359377086162567138671875</LatitudeDegrees>
              <LongitudeDegrees>24.714841805398464202880859375</LongitudeDegrees>
            </Position>
            <AltitudeMeters>274.79998779296875</AltitudeMeters>
            <DistanceMeters>14759.896765576</DistanceMeters>
          </Trackpoint>
          <Trackpoint>
            <Time>2022-09-18T09:52:58.000Z</Time>
            <Position>
              <LatitudeDegrees>40.71830500848591327667236328125</LatitudeDegrees>
              <LongitudeDegrees>24.71487499773502349853515625</LongitudeDegrees>
            </Position>
            <AltitudeMeters>274</AltitudeMeters>
            <DistanceMeters>14764.333607544</DistanceMeters>
          </Trackpoint>
          <Trackpoint>
            <Time>2022-09-18T09:53:01.000Z</Time>
            <Position>
              <LatitudeDegrees>40.718251280486583709716796875</LatitudeDegrees>
              <LongitudeDegrees>24.7149239480495452880859375</LongitudeDegrees>
            </Position>
            <AltitudeMeters>272.600006103515625</AltitudeMeters>
            <DistanceMeters>14771.600511083</DistanceMeters>
          </Trackpoint>
          <Trackpoint>
            <Time>2022-09-18T09:53:03.000Z</Time>
            <Position>
              <LatitudeDegrees>40.718208365142345428466796875</LatitudeDegrees>
              <LongitudeDegrees>24.7149583138525485992431640625</LongitudeDegrees>
            </Position>
            <AltitudeMeters>272</AltitudeMeters>
            <DistanceMeters>14777.187726335</DistanceMeters>
          </Trackpoint>
          <Trackpoint>
            <Time>2022-09-18T09:53:05.000Z</Time>
            <Position>
              <LatitudeDegrees>40.7181689701974391937255859375</LatitudeDegrees>
              <LongitudeDegrees>24.71499712206423282623291015625</LongitudeDegrees>
            </Position>
            <AltitudeMeters>271.600006103515625</AltitudeMeters>
            <DistanceMeters>14782.659813093</DistanceMeters>
          </Trackpoint>
          <Trackpoint>
            <Time>2022-09-18T09:53:08.000Z</Time>
            <Position>
              <LatitudeDegrees>40.718117840588092803955078125</LatitudeDegrees>
              <LongitudeDegrees>24.71505596302449703216552734375</LongitudeDegrees>
            </Position>
            <AltitudeMeters>270.399993896484375</AltitudeMeters>
            <DistanceMeters>14790.211896436</DistanceMeters>
          </Trackpoint>
          <Trackpoint>
            <Time>2022-09-18T09:53:10.000Z</Time>
            <Position>
              <LatitudeDegrees>40.71810602210462093353271484375</LatitudeDegrees>
              <LongitudeDegrees>24.71509921364486217498779296875</LongitudeDegrees>
            </Position>
            <AltitudeMeters>270</AltitudeMeters>
            <DistanceMeters>14794.090569837</DistanceMeters>
          </Trackpoint>
          <Trackpoint>
            <Time>2022-09-18T09:53:12.000Z</Time>
            <Position>
              <LatitudeDegrees>40.71811616420745849609375</LatitudeDegrees>
              <LongitudeDegrees>24.71514397300779819488525390625</LongitudeDegrees>
            </Position>
            <AltitudeMeters>269.79998779296875</AltitudeMeters>
            <DistanceMeters>14798.032747099</DistanceMeters>
          </Trackpoint>
          <Trackpoint>
            <Time>2022-09-18T09:53:14.000Z</Time>
            <Position>
              <LatitudeDegrees>40.71814097464084625244140625</LatitudeDegrees>
              <LongitudeDegrees>24.7151899896562099456787109375</LongitudeDegrees>
            </Position>
            <AltitudeMeters>269</AltitudeMeters>
            <DistanceMeters>14802.797367984</DistanceMeters>
          </Trackpoint>
          <Trackpoint>
            <Time>2022-09-18T09:53:15.000Z</Time>
            <Position>
              <LatitudeDegrees>40.718156732618808746337890625</LatitudeDegrees>
              <LongitudeDegrees>24.71520968712866306304931640625</LongitudeDegrees>
            </Position>
            <AltitudeMeters>268.399993896484375</AltitudeMeters>
            <DistanceMeters>14805.212617326</DistanceMeters>
          </Trackpoint>
          <Trackpoint>
            <Time>2022-09-18T09:53:17.000Z</Time>
            <Position>
              <LatitudeDegrees>40.71818950586020946502685546875</LatitudeDegrees>
              <LongitudeDegrees>24.71524992026388645172119140625</LongitudeDegrees>
            </Position>
            <AltitudeMeters>267.79998779296875</AltitudeMeters>
            <DistanceMeters>14810.195860268</DistanceMeters>
          </Trackpoint>
          <Trackpoint>
            <Time>2022-09-18T09:53:20.000Z</Time>
            <Position>
              <LatitudeDegrees>40.718237869441509246826171875</LatitudeDegrees>
              <LongitudeDegrees>24.7153137065470218658447265625</LongitudeDegrees>
            </Position>
            <AltitudeMeters>266.600006103515625</AltitudeMeters>
            <DistanceMeters>14817.807494157</DistanceMeters>
          </Trackpoint>
          <Trackpoint>
            <Time>2022-09-18T09:53:23.000Z</Time>
            <Position>
              <LatitudeDegrees>40.7182786054909229278564453125</LatitudeDegrees>
              <LongitudeDegrees>24.71536877565085887908935546875</LongitudeDegrees>
            </Position>
            <AltitudeMeters>265.600006103515625</AltitudeMeters>
            <DistanceMeters>14824.298590882</DistanceMeters>
          </Trackpoint>
          <Trackpoint>
            <Time>2022-09-18T09:53:24.000Z</Time>
            <Position>
              <LatitudeDegrees>40.7182923518121242523193359375</LatitudeDegrees>
              <LongitudeDegrees>24.7153854556381702423095703125</LongitudeDegrees>
            </Position>
            <AltitudeMeters>265.399993896484375</AltitudeMeters>
            <DistanceMeters>14826.374005651</DistanceMeters>
          </Trackpoint>
          <Trackpoint>
            <Time>2022-09-18T09:53:27.000Z</Time>
            <Position>
              <LatitudeDegrees>40.71832604706287384033203125</LatitudeDegrees>
              <LongitudeDegrees>24.71543490886688232421875</LongitudeDegrees>
            </Position>
            <AltitudeMeters>264.20001220703125</AltitudeMeters>
            <DistanceMeters>14831.982997212</DistanceMeters>
          </Trackpoint>
          <Trackpoint>
            <Time>2022-09-18T09:53:29.000Z</Time>
            <Position>
              <LatitudeDegrees>40.718339793384075164794921875</LatitudeDegrees>
              <LongitudeDegrees>24.71546986140310764312744140625</LongitudeDegrees>
            </Position>
            <AltitudeMeters>263.79998779296875</AltitudeMeters>
            <DistanceMeters>14835.304857145</DistanceMeters>
          </Trackpoint>
          <Trackpoint>
            <Time>2022-09-18T09:53:30.000Z</Time>
            <Position>
              <LatitudeDegrees>40.7183454930782318115234375</LatitudeDegrees>
              <LongitudeDegrees>24.715487547218799591064453125</LongitudeDegrees>
            </Position>
            <AltitudeMeters>263.399993896484375</AltitudeMeters>
            <DistanceMeters>14836.928674352</DistanceMeters>
          </Trackpoint>
          <Trackpoint>
            <Time>2022-09-18T09:53:31.000Z</Time>
            <Position>
              <LatitudeDegrees>40.7183506898581981658935546875</LatitudeDegrees>
              <LongitudeDegrees>24.71550171263515949249267578125</LongitudeDegrees>
            </Position>
            <AltitudeMeters>263.20001220703125</AltitudeMeters>
            <DistanceMeters>14838.259048353</DistanceMeters>
          </Trackpoint>
          <Trackpoint>
            <Time>2022-09-18T09:53:34.000Z</Time>
            <Position>
              <LatitudeDegrees>40.71837566792964935302734375</LatitudeDegrees>
              <LongitudeDegrees>24.7155695222318172454833984375</LongitudeDegrees>
            </Position>
            <AltitudeMeters>262</AltitudeMeters>
            <DistanceMeters>14844.620162449</DistanceMeters>
          </Trackpoint>
          <Trackpoint>
            <Time>2022-09-18T09:53:36.000Z</Time>
            <Position>
              <LatitudeDegrees>40.71838480420410633087158203125</LatitudeDegrees>
              <LongitudeDegrees>24.71560598351061344146728515625</LongitudeDegrees>
            </Position>
            <AltitudeMeters>261.79998779296875</AltitudeMeters>
            <DistanceMeters>14847.862231076</DistanceMeters>
          </Trackpoint>
          <Trackpoint>
            <Time>2022-09-18T09:54:14.000Z</Time>
            <Position>
              <LatitudeDegrees>40.7183761708438396453857421875</LatitudeDegrees>
              <LongitudeDegrees>24.71572550944983959197998046875</LongitudeDegrees>
            </Position>
            <AltitudeMeters>260.399993896484375</AltitudeMeters>
            <DistanceMeters>14857.991383486</DistanceMeters>
          </Trackpoint>
          <Trackpoint>
            <Time>2022-09-18T09:54:18.000Z</Time>
            <Position>
              <LatitudeDegrees>40.71839553304016590118408203125</LatitudeDegrees>
              <LongitudeDegrees>24.7157857753336429595947265625</LongitudeDegrees>
            </Position>
            <AltitudeMeters>260</AltitudeMeters>
            <DistanceMeters>14863.512754519</DistanceMeters>
          </Trackpoint>
          <Trackpoint>
            <Time>2022-09-18T09:54:24.000Z</Time>
            <Position>
              <LatitudeDegrees>40.71844280697405338287353515625</LatitudeDegrees>
              <LongitudeDegrees>24.71591142006218433380126953125</LongitudeDegrees>
            </Position>
            <AltitudeMeters>259</AltitudeMeters>
            <DistanceMeters>14875.346156203</DistanceMeters>
          </Trackpoint>
          <Trackpoint>
            <Time>2022-09-18T09:54:26.000Z</Time>
            <Position>
              <LatitudeDegrees>40.71846024133265018463134765625</LatitudeDegrees>
              <LongitudeDegrees>24.71596020273864269256591796875</LongitudeDegrees>
            </Position>
            <AltitudeMeters>258</AltitudeMeters>
            <DistanceMeters>14879.897529112</DistanceMeters>
          </Trackpoint>
          <Trackpoint>
            <Time>2022-09-18T09:54:29.000Z</Time>
            <Position>
              <LatitudeDegrees>40.7184740714728832244873046875</LatitudeDegrees>
              <LongitudeDegrees>24.71602206118404865264892578125</LongitudeDegrees>
            </Position>
            <AltitudeMeters>257</AltitudeMeters>
            <DistanceMeters>14885.338171591</DistanceMeters>
          </Trackpoint>
          <Trackpoint>
            <Time>2022-09-18T09:54:31.000Z</Time>
            <Position>
              <LatitudeDegrees>40.718470551073551177978515625</LatitudeDegrees>
              <LongitudeDegrees>24.7160504758358001708984375</LongitudeDegrees>
            </Position>
            <AltitudeMeters>256.600006103515625</AltitudeMeters>
            <DistanceMeters>14887.766471391</DistanceMeters>
          </Trackpoint>
          <Trackpoint>
            <Time>2022-09-18T09:56:19.000Z</Time>
            <Position>
              <LatitudeDegrees>40.71853634901344776153564453125</LatitudeDegrees>
              <LongitudeDegrees>24.7160707600414752960205078125</LongitudeDegrees>
            </Position>
            <AltitudeMeters>254.399993896484375</AltitudeMeters>
            <DistanceMeters>14895.287402108</DistanceMeters>
          </Trackpoint>
          <Trackpoint>
            <Time>2022-09-18T09:56:22.000Z</Time>
            <Position>
              <LatitudeDegrees>40.71854556910693645477294921875</LatitudeDegrees>
              <LongitudeDegrees>24.71615248359739780426025390625</LongitudeDegrees>
            </Position>
            <AltitudeMeters>254.1999969482421875</AltitudeMeters>
            <DistanceMeters>14902.257467478</DistanceMeters>
          </Trackpoint>
          <Trackpoint>
            <Time>2022-09-18T09:56:24.000Z</Time>
            <Position>
              <LatitudeDegrees>40.71853391826152801513671875</LatitudeDegrees>
              <LongitudeDegrees>24.716211073100566864013671875</LongitudeDegrees>
            </Position>
            <AltitudeMeters>253.8000030517578125</AltitudeMeters>
            <DistanceMeters>14907.36598203</DistanceMeters>
          </Trackpoint>
          <Trackpoint>
            <Time>2022-09-18T09:56:26.000Z</Time>
            <Position>
              <LatitudeDegrees>40.71853048168122768402099609375</LatitudeDegrees>
              <LongitudeDegrees>24.7162652201950550079345703125</LongitudeDegrees>
            </Position>
            <AltitudeMeters>253.1999969482421875</AltitudeMeters>
            <DistanceMeters>14911.948989537</DistanceMeters>
          </Trackpoint>
          <Trackpoint>
            <Time>2022-09-18T09:56:28.000Z</Time>
            <Position>
              <LatitudeDegrees>40.71852612309157848358154296875</LatitudeDegrees>
              <LongitudeDegrees>24.716327078640460968017578125</LongitudeDegrees>
            </Position>
            <AltitudeMeters>251.8000030517578125</AltitudeMeters>
            <DistanceMeters>14917.189262665</DistanceMeters>
          </Trackpoint>
          <Trackpoint>
            <Time>2022-09-18T09:56:31.000Z</Time>
            <Position>
              <LatitudeDegrees>40.71851908229291439056396484375</LatitudeDegrees>
              <LongitudeDegrees>24.71641433425247669219970703125</LongitudeDegrees>
            </Position>
            <AltitudeMeters>250.600006103515625</AltitudeMeters>
            <DistanceMeters>14924.59159364</DistanceMeters>
          </Trackpoint>
          <Trackpoint>
            <Time>2022-09-18T09:56:33.000Z</Time>
            <Position>
              <LatitudeDegrees>40.71851790882647037506103515625</LatitudeDegrees>
              <LongitudeDegrees>24.71646462567150592803955078125</LongitudeDegrees>
            </Position>
            <AltitudeMeters>250</AltitudeMeters>
            <DistanceMeters>14928.836002022</DistanceMeters>
          </Trackpoint>
          <Trackpoint>
            <Time>2022-09-18T09:56:36.000Z</Time>
            <Position>
              <LatitudeDegrees>40.7185210101306438446044921875</LatitudeDegrees>
              <LongitudeDegrees>24.71654006280004978179931640625</LongitudeDegrees>
            </Position>
            <AltitudeMeters>249.1999969482421875</AltitudeMeters>
            <DistanceMeters>14935.20917108</DistanceMeters>
          </Trackpoint>
          <Trackpoint>
            <Time>2022-09-18T09:56:37.000Z</Time>
            <Position>
              <LatitudeDegrees>40.71853525936603546142578125</LatitudeDegrees>
              <LongitudeDegrees>24.716570489108562469482421875</LongitudeDegrees>
            </Position>
            <AltitudeMeters>248.8000030517578125</AltitudeMeters>
            <DistanceMeters>14938.226175729</DistanceMeters>
          </Trackpoint>
          <Trackpoint>
            <Time>2022-09-18T09:56:38.000Z</Time>
            <Position>
              <LatitudeDegrees>40.7185474969446659088134765625</LatitudeDegrees>
              <LongitudeDegrees>24.71660041250288486480712890625</LongitudeDegrees>
            </Position>
            <AltitudeMeters>248.1999969482421875</AltitudeMeters>
            <DistanceMeters>14941.092771195</DistanceMeters>
          </Trackpoint>
          <Trackpoint>
            <Time>2022-09-18T09:56:40.000Z</Time>
            <Position>
              <LatitudeDegrees>40.7185713015496730804443359375</LatitudeDegrees>
              <LongitudeDegrees>24.7166695632040500640869140625</LongitudeDegrees>
            </Position>
            <AltitudeMeters>247</AltitudeMeters>
            <DistanceMeters>14947.498445817</DistanceMeters>
          </Trackpoint>
          <Trackpoint>
            <Time>2022-09-18T09:56:43.000Z</Time>
            <Position>
              <LatitudeDegrees>40.718601308763027191162109375</LatitudeDegrees>
              <LongitudeDegrees>24.71676461398601531982421875</LongitudeDegrees>
            </Position>
            <AltitudeMeters>246</AltitudeMeters>
            <DistanceMeters>14956.184947919</DistanceMeters>
          </Trackpoint>
          <Trackpoint>
            <Time>2022-09-18T09:56:44.000Z</Time>
            <Position>
              <LatitudeDegrees>40.7186122052371501922607421875</LatitudeDegrees>
              <LongitudeDegrees>24.7167969681322574615478515625</LongitudeDegrees>
            </Position>
            <AltitudeMeters>245.8000030517578125</AltitudeMeters>
            <DistanceMeters>14959.17187201</DistanceMeters>
          </Trackpoint>
          <Trackpoint>
            <Time>2022-09-18T09:56:46.000Z</Time>
            <Position>
              <LatitudeDegrees>40.71863659657537937164306640625</LatitudeDegrees>
              <LongitudeDegrees>24.716873578727245330810546875</LongitudeDegrees>
            </Position>
            <AltitudeMeters>244.8000030517578125</AltitudeMeters>
            <DistanceMeters>14966.181340316</DistanceMeters>
          </Trackpoint>
          <Trackpoint>
            <Time>2022-09-18T09:56:50.000Z</Time>
            <Position>
              <LatitudeDegrees>40.718661658465862274169921875</LatitudeDegrees>
              <LongitudeDegrees>24.7170152328908443450927734375</LongitudeDegrees>
            </Position>
            <AltitudeMeters>243.600006103515625</AltitudeMeters>
            <DistanceMeters>14978.45230298</DistanceMeters>
          </Trackpoint>
          <Trackpoint>
            <Time>2022-09-18T09:56:51.000Z</Time>
            <Position>
              <LatitudeDegrees>40.7186638377606868743896484375</LatitudeDegrees>
              <LongitudeDegrees>24.7170480899512767791748046875</LongitudeDegrees>
            </Position>
            <AltitudeMeters>243.600006103515625</AltitudeMeters>
            <DistanceMeters>14981.235791006</DistanceMeters>
          </Trackpoint>
          <Trackpoint>
            <Time>2022-09-18T09:56:55.000Z</Time>
            <Position>
              <LatitudeDegrees>40.71867381222546100616455078125</LatitudeDegrees>
              <LongitudeDegrees>24.71718437969684600830078125</LongitudeDegrees>
            </Position>
            <AltitudeMeters>242.399993896484375</AltitudeMeters>
            <DistanceMeters>14992.786130801</DistanceMeters>
          </Trackpoint>
          <Trackpoint>
            <Time>2022-09-18T09:56:58.000Z</Time>
            <Position>
              <LatitudeDegrees>40.7186819426715373992919921875</LatitudeDegrees>
              <LongitudeDegrees>24.71729191951453685760498046875</LongitudeDegrees>
            </Position>
            <AltitudeMeters>241.399993896484375</AltitudeMeters>
            <DistanceMeters>15001.902754276</DistanceMeters>
          </Trackpoint>
          <Trackpoint>
            <Time>2022-09-18T09:57:00.000Z</Time>
            <Position>
              <LatitudeDegrees>40.71868353523313999176025390625</LatitudeDegrees>
              <LongitudeDegrees>24.7173555381596088409423828125</LongitudeDegrees>
            </Position>
            <AltitudeMeters>241.1999969482421875</AltitudeMeters>
            <DistanceMeters>15007.271553398</DistanceMeters>
          </Trackpoint>
          <Trackpoint>
            <Time>2022-09-18T09:57:05.000Z</Time>
            <Position>
              <LatitudeDegrees>40.718687810003757476806640625</LatitudeDegrees>
              <LongitudeDegrees>24.717524014413356781005859375</LongitudeDegrees>
            </Position>
            <AltitudeMeters>240.1999969482421875</AltitudeMeters>
            <DistanceMeters>15021.491944809</DistanceMeters>
          </Trackpoint>
          <Trackpoint>
            <Time>2022-09-18T09:57:11.000Z</Time>
            <Position>
              <LatitudeDegrees>40.7186755724251270294189453125</LatitudeDegrees>
              <LongitudeDegrees>24.71774253062903881072998046875</LongitudeDegrees>
            </Position>
            <AltitudeMeters>239</AltitudeMeters>
            <DistanceMeters>15039.976045337</DistanceMeters>
          </Trackpoint>
          <Trackpoint>
            <Time>2022-09-18T09:57:12.000Z</Time>
            <Position>
              <LatitudeDegrees>40.718674398958683013916015625</LatitudeDegrees>
              <LongitudeDegrees>24.71777857281267642974853515625</LongitudeDegrees>
            </Position>
            <AltitudeMeters>239</AltitudeMeters>
            <DistanceMeters>15043.019868333</DistanceMeters>
          </Trackpoint>
          <Trackpoint>
            <Time>2022-09-18T09:57:18.000Z</Time>
            <Position>
              <LatitudeDegrees>40.7186754047870635986328125</LatitudeDegrees>
              <LongitudeDegrees>24.71794654615223407745361328125</LongitudeDegrees>
            </Position>
            <AltitudeMeters>238</AltitudeMeters>
            <DistanceMeters>15057.190005235</DistanceMeters>
          </Trackpoint>
          <Trackpoint>
            <Time>2022-09-18T09:58:10.000Z</Time>
            <Position>
              <LatitudeDegrees>40.71860139258205890655517578125</LatitudeDegrees>
              <LongitudeDegrees>24.71805500797927379608154296875</LongitudeDegrees>
            </Position>
            <AltitudeMeters>237.399993896484375</AltitudeMeters>
            <DistanceMeters>15069.501742041</DistanceMeters>
          </Trackpoint>
          <Trackpoint>
            <Time>2022-09-18T09:58:11.000Z</Time>
            <Position>
              <LatitudeDegrees>40.71860231459140777587890625</LatitudeDegrees>
              <LongitudeDegrees>24.71807361580431461334228515625</LongitudeDegrees>
            </Position>
            <AltitudeMeters>237.399993896484375</AltitudeMeters>
            <DistanceMeters>15071.074714051</DistanceMeters>
          </Trackpoint>
          <Trackpoint>
            <Time>2022-09-18T09:58:13.000Z</Time>
            <Position>
              <LatitudeDegrees>40.7186029851436614990234375</LatitudeDegrees>
              <LongitudeDegrees>24.7181283496320247650146484375</LongitudeDegrees>
            </Position>
            <AltitudeMeters>237.1999969482421875</AltitudeMeters>
            <DistanceMeters>15075.693051475</DistanceMeters>
          </Trackpoint>
          <Trackpoint>
            <Time>2022-09-18T09:58:15.000Z</Time>
            <Position>
              <LatitudeDegrees>40.71859971620142459869384765625</LatitudeDegrees>
              <LongitudeDegrees>24.718199931085109710693359375</LongitudeDegrees>
            </Position>
            <AltitudeMeters>236.8000030517578125</AltitudeMeters>
            <DistanceMeters>15081.742007563</DistanceMeters>
          </Trackpoint>
          <Trackpoint>
            <Time>2022-09-18T09:58:18.000Z</Time>
            <Position>
              <LatitudeDegrees>40.7186034880578517913818359375</LatitudeDegrees>
              <LongitudeDegrees>24.7183197923004627227783203125</LongitudeDegrees>
            </Position>
            <AltitudeMeters>236.399993896484375</AltitudeMeters>
            <DistanceMeters>15091.862241109</DistanceMeters>
          </Trackpoint>
          <Trackpoint>
            <Time>2022-09-18T09:58:20.000Z</Time>
            <Position>
              <LatitudeDegrees>40.718601644039154052734375</LatitudeDegrees>
              <LongitudeDegrees>24.7183992527425289154052734375</LongitudeDegrees>
            </Position>
            <AltitudeMeters>235.600006103515625</AltitudeMeters>
            <DistanceMeters>15098.568192249</DistanceMeters>
          </Trackpoint>
          <Trackpoint>
            <Time>2022-09-18T09:58:22.000Z</Time>
            <Position>
              <LatitudeDegrees>40.71859803982079029083251953125</LatitudeDegrees>
              <LongitudeDegrees>24.718468487262725830078125</LongitudeDegrees>
            </Position>
            <AltitudeMeters>235.1999969482421875</AltitudeMeters>
            <DistanceMeters>15104.422948451</DistanceMeters>
          </Trackpoint>
          <Trackpoint>
            <Time>2022-09-18T09:58:26.000Z</Time>
            <Position>
              <LatitudeDegrees>40.7185951061546802520751953125</LatitudeDegrees>
              <LongitudeDegrees>24.71860653720796108245849609375</LongitudeDegrees>
            </Position>
            <AltitudeMeters>235</AltitudeMeters>
            <DistanceMeters>15116.073704182</DistanceMeters>
          </Trackpoint>
          <Trackpoint>
            <Time>2022-09-18T09:58:28.000Z</Time>
            <Position>
              <LatitudeDegrees>40.71859468705952167510986328125</LatitudeDegrees>
              <LongitudeDegrees>24.71867409534752368927001953125</LongitudeDegrees>
            </Position>
            <AltitudeMeters>234.399993896484375</AltitudeMeters>
            <DistanceMeters>15121.772930881</DistanceMeters>
          </Trackpoint>
          <Trackpoint>
            <Time>2022-09-18T09:58:32.000Z</Time>
            <Position>
              <LatitudeDegrees>40.7186108641326427459716796875</LatitudeDegrees>
              <LongitudeDegrees>24.71881650388240814208984375</LongitudeDegrees>
            </Position>
            <AltitudeMeters>233.600006103515625</AltitudeMeters>
            <DistanceMeters>15133.920378315</DistanceMeters>
          </Trackpoint>
          <Trackpoint>
            <Time>2022-09-18T09:58:33.000Z</Time>
            <Position>
              <LatitudeDegrees>40.71861580945551395416259765625</LatitudeDegrees>
              <LongitudeDegrees>24.71885330043733119964599609375</LongitudeDegrees>
            </Position>
            <AltitudeMeters>233.600006103515625</AltitudeMeters>
            <DistanceMeters>15137.072057882</DistanceMeters>
          </Trackpoint>
          <Trackpoint>
            <Time>2022-09-18T09:58:39.000Z</Time>
            <Position>
              <LatitudeDegrees>40.71863642893731594085693359375</LatitudeDegrees>
              <LongitudeDegrees>24.7190389595925807952880859375</LongitudeDegrees>
            </Position>
            <AltitudeMeters>233.600006103515625</AltitudeMeters>
            <DistanceMeters>15152.901067045</DistanceMeters>
          </Trackpoint>
          <Trackpoint>
            <Time>2022-09-18T09:58:40.000Z</Time>
            <Position>
              <LatitudeDegrees>40.718644224107265472412109375</LatitudeDegrees>
              <LongitudeDegrees>24.71906687133014202117919921875</LongitudeDegrees>
            </Position>
            <AltitudeMeters>233.600006103515625</AltitudeMeters>
            <DistanceMeters>15155.40804395</DistanceMeters>
          </Trackpoint>
          <Trackpoint>
            <Time>2022-09-18T09:58:42.000Z</Time>
            <Position>
              <LatitudeDegrees>40.71865352801978588104248046875</LatitudeDegrees>
              <LongitudeDegrees>24.71910978667438030242919921875</LongitudeDegrees>
            </Position>
            <AltitudeMeters>233.399993896484375</AltitudeMeters>
            <DistanceMeters>15159.173308883</DistanceMeters>
          </Trackpoint>
          <Trackpoint>
            <Time>2022-09-18T09:58:44.000Z</Time>
            <Position>
              <LatitudeDegrees>40.71866341866552829742431640625</LatitudeDegrees>
              <LongitudeDegrees>24.7191542945802211761474609375</LongitudeDegrees>
            </Position>
            <AltitudeMeters>232.8000030517578125</AltitudeMeters>
            <DistanceMeters>15163.086748502</DistanceMeters>
          </Trackpoint>
          <Trackpoint>
            <Time>2022-09-18T09:58:47.000Z</Time>
            <Position>
              <LatitudeDegrees>40.71868085302412509918212890625</LatitudeDegrees>
              <LongitudeDegrees>24.71922017633914947509765625</LongitudeDegrees>
            </Position>
            <AltitudeMeters>232.1999969482421875</AltitudeMeters>
            <DistanceMeters>15168.972270844</DistanceMeters>
          </Trackpoint>
          <Trackpoint>
            <Time>2022-09-18T09:58:50.000Z</Time>
            <Position>
              <LatitudeDegrees>40.71869141422212123870849609375</LatitudeDegrees>
              <LongitudeDegrees>24.71930776722729206085205078125</LongitudeDegrees>
            </Position>
            <AltitudeMeters>231.1999969482421875</AltitudeMeters>
            <DistanceMeters>15176.454078372</DistanceMeters>
          </Trackpoint>
          <Trackpoint>
            <Time>2022-09-18T09:58:53.000Z</Time>
            <Position>
              <LatitudeDegrees>40.71868940256536006927490234375</LatitudeDegrees>
              <LongitudeDegrees>24.7193966992199420928955078125</LongitudeDegrees>
            </Position>
            <AltitudeMeters>230.1999969482421875</AltitudeMeters>
            <DistanceMeters>15183.960587348</DistanceMeters>
          </Trackpoint>
          <Trackpoint>
            <Time>2022-09-18T09:58:54.000Z</Time>
            <Position>
              <LatitudeDegrees>40.71868672035634517669677734375</LatitudeDegrees>
              <LongitudeDegrees>24.71942461095750331878662109375</LongitudeDegrees>
            </Position>
            <AltitudeMeters>229.600006103515625</AltitudeMeters>
            <DistanceMeters>15186.334353912</DistanceMeters>
          </Trackpoint>
          <Trackpoint>
            <Time>2022-09-18T09:58:55.000Z</Time>
            <Position>
              <LatitudeDegrees>40.7186859659850597381591796875</LatitudeDegrees>
              <LongitudeDegrees>24.719451181590557098388671875</LongitudeDegrees>
            </Position>
            <AltitudeMeters>229.1999969482421875</AltitudeMeters>
            <DistanceMeters>15188.579077204</DistanceMeters>
          </Trackpoint>
          <Trackpoint>
            <Time>2022-09-18T09:58:56.000Z</Time>
            <Position>
              <LatitudeDegrees>40.71868680417537689208984375</LatitudeDegrees>
              <LongitudeDegrees>24.7194751538336277008056640625</LongitudeDegrees>
            </Position>
            <AltitudeMeters>228.600006103515625</AltitudeMeters>
            <DistanceMeters>15190.60383761</DistanceMeters>
          </Trackpoint>
          <Trackpoint>
            <Time>2022-09-18T09:58:58.000Z</Time>
            <Position>
              <LatitudeDegrees>40.7186933420598506927490234375</LatitudeDegrees>
              <LongitudeDegrees>24.7195264510810375213623046875</LongitudeDegrees>
            </Position>
            <AltitudeMeters>227.8000030517578125</AltitudeMeters>
            <DistanceMeters>15194.991561733</DistanceMeters>
          </Trackpoint>
          <Trackpoint>
            <Time>2022-09-18T09:58:59.000Z</Time>
            <Position>
              <LatitudeDegrees>40.71869485080242156982421875</LatitudeDegrees>
              <LongitudeDegrees>24.71955352462828159332275390625</LongitudeDegrees>
            </Position>
            <AltitudeMeters>227.399993896484375</AltitudeMeters>
            <DistanceMeters>15197.282080106</DistanceMeters>
          </Trackpoint>
          <Trackpoint>
            <Time>2022-09-18T09:59:01.000Z</Time>
            <Position>
              <LatitudeDegrees>40.71869711391627788543701171875</LatitudeDegrees>
              <LongitudeDegrees>24.71961152739822864532470703125</LongitudeDegrees>
            </Position>
            <AltitudeMeters>226.8000030517578125</AltitudeMeters>
            <DistanceMeters>15202.181257913</DistanceMeters>
          </Trackpoint>
          <Trackpoint>
            <Time>2022-09-18T09:59:03.000Z</Time>
            <Position>
              <LatitudeDegrees>40.718702562153339385986328125</LatitudeDegrees>
              <LongitudeDegrees>24.7196910716593265533447265625</LongitudeDegrees>
            </Position>
            <AltitudeMeters>226.1999969482421875</AltitudeMeters>
            <DistanceMeters>15208.918109122</DistanceMeters>
          </Trackpoint>
          <Trackpoint>
            <Time>2022-09-18T09:59:05.000Z</Time>
            <Position>
              <LatitudeDegrees>40.7186956889927387237548828125</LatitudeDegrees>
              <LongitudeDegrees>24.71977212466299533843994140625</LongitudeDegrees>
            </Position>
            <AltitudeMeters>226</AltitudeMeters>
            <DistanceMeters>15215.798200743</DistanceMeters>
          </Trackpoint>
          <Trackpoint>
            <Time>2022-09-18T09:59:06.000Z</Time>
            <Position>
              <LatitudeDegrees>40.71868789382278919219970703125</LatitudeDegrees>
              <LongitudeDegrees>24.71980464644730091094970703125</LongitudeDegrees>
            </Position>
            <AltitudeMeters>226</AltitudeMeters>
            <DistanceMeters>15218.675800454</DistanceMeters>
          </Trackpoint>
          <Trackpoint>
            <Time>2022-09-18T09:59:07.000Z</Time>
            <Position>
              <LatitudeDegrees>40.71867800317704677581787109375</LatitudeDegrees>
              <LongitudeDegrees>24.71984186209738254547119140625</LongitudeDegrees>
            </Position>
            <AltitudeMeters>226</AltitudeMeters>
            <DistanceMeters>15222.001735457</DistanceMeters>
          </Trackpoint>
          <Trackpoint>
            <Time>2022-09-18T09:59:10.000Z</Time>
            <Position>
              <LatitudeDegrees>40.718657970428466796875</LatitudeDegrees>
              <LongitudeDegrees>24.71994931809604167938232421875</LongitudeDegrees>
            </Position>
            <AltitudeMeters>226.1999969482421875</AltitudeMeters>
            <DistanceMeters>15231.337112673</DistanceMeters>
          </Trackpoint>
          <Trackpoint>
            <Time>2022-09-18T09:59:15.000Z</Time>
            <Position>
              <LatitudeDegrees>40.7186333276331424713134765625</LatitudeDegrees>
              <LongitudeDegrees>24.72014545463025569915771484375</LongitudeDegrees>
            </Position>
            <AltitudeMeters>226.399993896484375</AltitudeMeters>
            <DistanceMeters>15248.108183631</DistanceMeters>
          </Trackpoint>
          <Trackpoint>
            <Time>2022-09-18T09:59:20.000Z</Time>
            <Position>
              <LatitudeDegrees>40.71860633790493011474609375</LatitudeDegrees>
              <LongitudeDegrees>24.72029515542089939117431640625</LongitudeDegrees>
            </Position>
            <AltitudeMeters>225.1999969482421875</AltitudeMeters>
            <DistanceMeters>15261.088985858</DistanceMeters>
          </Trackpoint>
          <Trackpoint>
            <Time>2022-09-18T09:59:23.000Z</Time>
            <Position>
              <LatitudeDegrees>40.718575827777385711669921875</LatitudeDegrees>
              <LongitudeDegrees>24.72037914209067821502685546875</LongitudeDegrees>
            </Position>
            <AltitudeMeters>224.399993896484375</AltitudeMeters>
            <DistanceMeters>15268.94523003</DistanceMeters>
          </Trackpoint>
          <Trackpoint>
            <Time>2022-09-18T09:59:24.000Z</Time>
            <Position>
              <LatitudeDegrees>40.7185605727136135101318359375</LatitudeDegrees>
              <LongitudeDegrees>24.72040445543825626373291015625</LongitudeDegrees>
            </Position>
            <AltitudeMeters>224</AltitudeMeters>
            <DistanceMeters>15271.673009895</DistanceMeters>
          </Trackpoint>
          <Trackpoint>
            <Time>2022-09-18T09:59:27.000Z</Time>
            <Position>
              <LatitudeDegrees>40.7185246981680393218994140625</LatitudeDegrees>
              <LongitudeDegrees>24.72048743627965450286865234375</LongitudeDegrees>
            </Position>
            <AltitudeMeters>223</AltitudeMeters>
            <DistanceMeters>15279.731813142</DistanceMeters>
          </Trackpoint>
          <Trackpoint>
            <Time>2022-09-18T09:59:29.000Z</Time>
            <Position>
              <LatitudeDegrees>40.71851271204650402069091796875</LatitudeDegrees>
              <LongitudeDegrees>24.72054225392639636993408203125</LongitudeDegrees>
            </Position>
            <AltitudeMeters>222.399993896484375</AltitudeMeters>
            <DistanceMeters>15284.545457931</DistanceMeters>
          </Trackpoint>
          <Trackpoint>
            <Time>2022-09-18T09:59:31.000Z</Time>
            <Position>
              <LatitudeDegrees>40.71849502623081207275390625</LatitudeDegrees>
              <LongitudeDegrees>24.72060017287731170654296875</LongitudeDegrees>
            </Position>
            <AltitudeMeters>222</AltitudeMeters>
            <DistanceMeters>15289.814087259</DistanceMeters>
          </Trackpoint>
          <Trackpoint>
            <Time>2022-09-18T09:59:33.000Z</Time>
            <Position>
              <LatitudeDegrees>40.7184767536818981170654296875</LatitudeDegrees>
              <LongitudeDegrees>24.7206539846956729888916015625</LongitudeDegrees>
            </Position>
            <AltitudeMeters>221.600006103515625</AltitudeMeters>
            <DistanceMeters>15294.788261507</DistanceMeters>
          </Trackpoint>
          <Trackpoint>
            <Time>2022-09-18T09:59:36.000Z</Time>
            <Position>
              <LatitudeDegrees>40.7184358499944210052490234375</LatitudeDegrees>
              <LongitudeDegrees>24.72073520533740520477294921875</LongitudeDegrees>
            </Position>
            <AltitudeMeters>220.8000030517578125</AltitudeMeters>
            <DistanceMeters>15303.015621535</DistanceMeters>
          </Trackpoint>
          <Trackpoint>
            <Time>2022-09-18T09:59:40.000Z</Time>
            <Position>
              <LatitudeDegrees>40.71838078089058399200439453125</LatitudeDegrees>
              <LongitudeDegrees>24.72086043097078800201416015625</LongitudeDegrees>
            </Position>
            <AltitudeMeters>219.399993896484375</AltitudeMeters>
            <DistanceMeters>15315.228680231</DistanceMeters>
          </Trackpoint>
          <Trackpoint>
            <Time>2022-09-18T09:59:43.000Z</Time>
            <Position>
              <LatitudeDegrees>40.71834809146821498870849609375</LatitudeDegrees>
              <LongitudeDegrees>24.7209403105080127716064453125</LongitudeDegrees>
            </Position>
            <AltitudeMeters>218.399993896484375</AltitudeMeters>
            <DistanceMeters>15322.886442072</DistanceMeters>
          </Trackpoint>
          <Trackpoint>
            <Time>2022-09-18T09:59:44.000Z</Time>
            <Position>
              <LatitudeDegrees>40.7183443196117877960205078125</LatitudeDegrees>
              <LongitudeDegrees>24.7209688089787960052490234375</LongitudeDegrees>
            </Position>
            <AltitudeMeters>218</AltitudeMeters>
            <DistanceMeters>15325.325872411</DistanceMeters>
          </Trackpoint>
          <Trackpoint>
            <Time>2022-09-18T09:59:46.000Z</Time>
            <Position>
              <LatitudeDegrees>40.71833702735602855682373046875</LatitudeDegrees>
              <LongitudeDegrees>24.72102052532136440277099609375</LongitudeDegrees>
            </Position>
            <AltitudeMeters>217.1999969482421875</AltitudeMeters>
            <DistanceMeters>15329.762714379</DistanceMeters>
          </Trackpoint>
          <Trackpoint>
            <Time>2022-09-18T09:59:49.000Z</Time>
            <Position>
              <LatitudeDegrees>40.71832336485385894775390625</LatitudeDegrees>
              <LongitudeDegrees>24.7210943698883056640625</LongitudeDegrees>
            </Position>
            <AltitudeMeters>216</AltitudeMeters>
            <DistanceMeters>15336.174025319</DistanceMeters>
          </Trackpoint>
          <Trackpoint>
            <Time>2022-09-18T09:59:51.000Z</Time>
            <Position>
              <LatitudeDegrees>40.71830634959042072296142578125</LatitudeDegrees>
              <LongitudeDegrees>24.72114742733538150787353515625</LongitudeDegrees>
            </Position>
            <AltitudeMeters>215.1999969482421875</AltitudeMeters>
            <DistanceMeters>15341.034342179</DistanceMeters>
          </Trackpoint>
          <Trackpoint>
            <Time>2022-09-18T09:59:52.000Z</Time>
            <Position>
              <LatitudeDegrees>40.71829696185886859893798828125</LatitudeDegrees>
              <LongitudeDegrees>24.72117374651134014129638671875</LongitudeDegrees>
            </Position>
            <AltitudeMeters>214.8000030517578125</AltitudeMeters>
            <DistanceMeters>15343.488534712</DistanceMeters>
          </Trackpoint>
          <Trackpoint>
            <Time>2022-09-18T09:59:55.000Z</Time>
            <Position>
              <LatitudeDegrees>40.7182605005800724029541015625</LatitudeDegrees>
              <LongitudeDegrees>24.721262343227863311767578125</LongitudeDegrees>
            </Position>
            <AltitudeMeters>213.600006103515625</AltitudeMeters>
            <DistanceMeters>15351.992762028</DistanceMeters>
          </Trackpoint>
          <Trackpoint>
            <Time>2022-09-18T09:59:57.000Z</Time>
            <Position>
              <LatitudeDegrees>40.71824834682047367095947265625</LatitudeDegrees>
              <LongitudeDegrees>24.7213210165500640869140625</LongitudeDegrees>
            </Position>
            <AltitudeMeters>212.600006103515625</AltitudeMeters>
            <DistanceMeters>15357.123324651</DistanceMeters>
          </Trackpoint>
          <Trackpoint>
            <Time>2022-09-18T09:59:58.000Z</Time>
            <Position>
              <LatitudeDegrees>40.71824080310761928558349609375</LatitudeDegrees>
              <LongitudeDegrees>24.72134758718311786651611328125</LongitudeDegrees>
            </Position>
            <AltitudeMeters>212.399993896484375</AltitudeMeters>
            <DistanceMeters>15359.519807202</DistanceMeters>
          </Trackpoint>
          <Trackpoint>
            <Time>2022-09-18T10:00:02.000Z</Time>
            <Position>
              <LatitudeDegrees>40.71820962242782115936279296875</LatitudeDegrees>
              <LongitudeDegrees>24.7214687056839466094970703125</LongitudeDegrees>
            </Position>
            <AltitudeMeters>211</AltitudeMeters>
            <DistanceMeters>15370.310256946</DistanceMeters>
          </Trackpoint>
          <Trackpoint>
            <Time>2022-09-18T10:00:04.000Z</Time>
            <Position>
              <LatitudeDegrees>40.71818657219409942626953125</LatitudeDegrees>
              <LongitudeDegrees>24.7215183265507221221923828125</LongitudeDegrees>
            </Position>
            <AltitudeMeters>210.399993896484375</AltitudeMeters>
            <DistanceMeters>15375.220481391</DistanceMeters>
          </Trackpoint>
          <Trackpoint>
            <Time>2022-09-18T10:00:06.000Z</Time>
            <Position>
              <LatitudeDegrees>40.71816100738942623138427734375</LatitudeDegrees>
              <LongitudeDegrees>24.7215702943503856658935546875</LongitudeDegrees>
            </Position>
            <AltitudeMeters>209.8000030517578125</AltitudeMeters>
            <DistanceMeters>15380.446950682</DistanceMeters>
          </Trackpoint>
          <Trackpoint>
            <Time>2022-09-18T10:00:09.000Z</Time>
            <Position>
              <LatitudeDegrees>40.7181255519390106201171875</LatitudeDegrees>
              <LongitudeDegrees>24.72165151499211788177490234375</LongitudeDegrees>
            </Position>
            <AltitudeMeters>208.600006103515625</AltitudeMeters>
            <DistanceMeters>15388.354178344</DistanceMeters>
          </Trackpoint>
          <Trackpoint>
            <Time>2022-09-18T10:00:11.000Z</Time>
            <Position>
              <LatitudeDegrees>40.71810610592365264892578125</LatitudeDegrees>
              <LongitudeDegrees>24.72171555273234844207763671875</LongitudeDegrees>
            </Position>
            <AltitudeMeters>207.8000030517578125</AltitudeMeters>
            <DistanceMeters>15394.174128235</DistanceMeters>
          </Trackpoint>
          <Trackpoint>
            <Time>2022-09-18T10:00:12.000Z</Time>
            <Position>
              <LatitudeDegrees>40.71809730492532253265380859375</LatitudeDegrees>
              <LongitudeDegrees>24.7217473201453685760498046875</LongitudeDegrees>
            </Position>
            <AltitudeMeters>207.600006103515625</AltitudeMeters>
            <DistanceMeters>15397.028095466</DistanceMeters>
          </Trackpoint>
          <Trackpoint>
            <Time>2022-09-18T10:00:15.000Z</Time>
            <Position>
              <LatitudeDegrees>40.71807936765253543853759765625</LatitudeDegrees>
              <LongitudeDegrees>24.7218328155577182769775390625</LongitudeDegrees>
            </Position>
            <AltitudeMeters>206.1999969482421875</AltitudeMeters>
            <DistanceMeters>15404.512316479</DistanceMeters>
          </Trackpoint>
          <Trackpoint>
            <Time>2022-09-18T10:00:18.000Z</Time>
            <Position>
              <LatitudeDegrees>40.71805153973400592803955078125</LatitudeDegrees>
              <LongitudeDegrees>24.72191386856138706207275390625</LongitudeDegrees>
            </Position>
            <AltitudeMeters>205.1999969482421875</AltitudeMeters>
            <DistanceMeters>15412.018825456</DistanceMeters>
          </Trackpoint>
          <Trackpoint>
            <Time>2022-09-18T10:00:22.000Z</Time>
            <Position>
              <LatitudeDegrees>40.71801499463617801666259765625</LatitudeDegrees>
              <LongitudeDegrees>24.72203037701547145843505859375</LongitudeDegrees>
            </Position>
            <AltitudeMeters>203.8000030517578125</AltitudeMeters>
            <DistanceMeters>15422.655876637</DistanceMeters>
          </Trackpoint>
          <Trackpoint>
            <Time>2022-09-18T10:00:24.000Z</Time>
            <Position>
              <LatitudeDegrees>40.71800610981881618499755859375</LatitudeDegrees>
              <LongitudeDegrees>24.72208318300545215606689453125</LongitudeDegrees>
            </Position>
            <AltitudeMeters>202.600006103515625</AltitudeMeters>
            <DistanceMeters>15427.218148681</DistanceMeters>
          </Trackpoint>
          <Trackpoint>
            <Time>2022-09-18T10:00:26.000Z</Time>
            <Position>
              <LatitudeDegrees>40.7180013321340084075927734375</LatitudeDegrees>
              <LongitudeDegrees>24.7221295349299907684326171875</LongitudeDegrees>
            </Position>
            <AltitudeMeters>202.1999969482421875</AltitudeMeters>
            <DistanceMeters>15431.164904547</DistanceMeters>
          </Trackpoint>
          <Trackpoint>
            <Time>2022-09-18T10:00:28.000Z</Time>
            <Position>
              <LatitudeDegrees>40.71800845675170421600341796875</LatitudeDegrees>
              <LongitudeDegrees>24.72217102535068988800048828125</LongitudeDegrees>
            </Position>
            <AltitudeMeters>201.399993896484375</AltitudeMeters>
            <DistanceMeters>15434.753342788</DistanceMeters>
          </Trackpoint>
          <Trackpoint>
            <Time>2022-09-18T10:00:31.000Z</Time>
            <Position>
              <LatitudeDegrees>40.7180063612759113311767578125</LatitudeDegrees>
              <LongitudeDegrees>24.72224294207990169525146484375</LongitudeDegrees>
            </Position>
            <AltitudeMeters>200.399993896484375</AltitudeMeters>
            <DistanceMeters>15440.825393687</DistanceMeters>
          </Trackpoint>
          <Trackpoint>
            <Time>2022-09-18T10:00:32.000Z</Time>
            <Position>
              <LatitudeDegrees>40.718000829219818115234375</LatitudeDegrees>
              <LongitudeDegrees>24.7222716920077800750732421875</LongitudeDegrees>
            </Position>
            <AltitudeMeters>200.1999969482421875</AltitudeMeters>
            <DistanceMeters>15443.326961791</DistanceMeters>
          </Trackpoint>
          <Trackpoint>
            <Time>2022-09-18T10:00:35.000Z</Time>
            <Position>
              <LatitudeDegrees>40.717977695167064666748046875</LatitudeDegrees>
              <LongitudeDegrees>24.722366072237491607666015625</LongitudeDegrees>
            </Position>
            <AltitudeMeters>199.1999969482421875</AltitudeMeters>
            <DistanceMeters>15451.694710159</DistanceMeters>
          </Trackpoint>
          <Trackpoint>
            <Time>2022-09-18T10:00:37.000Z</Time>
            <Position>
              <LatitudeDegrees>40.717966966331005096435546875</LatitudeDegrees>
              <LongitudeDegrees>24.72243337891995906829833984375</LongitudeDegrees>
            </Position>
            <AltitudeMeters>198</AltitudeMeters>
            <DistanceMeters>15457.496789526</DistanceMeters>
          </Trackpoint>
          <Trackpoint>
            <Time>2022-09-18T10:00:39.000Z</Time>
            <Position>
              <LatitudeDegrees>40.71795816533267498016357421875</LatitudeDegrees>
              <LongitudeDegrees>24.72249624319374561309814453125</LongitudeDegrees>
            </Position>
            <AltitudeMeters>197.1999969482421875</AltitudeMeters>
            <DistanceMeters>15462.890758964</DistanceMeters>
          </Trackpoint>
          <Trackpoint>
            <Time>2022-09-18T10:00:40.000Z</Time>
            <Position>
              <LatitudeDegrees>40.71795053780078887939453125</LatitudeDegrees>
              <LongitudeDegrees>24.7225234843790531158447265625</LongitudeDegrees>
            </Position>
            <AltitudeMeters>196.8000030517578125</AltitudeMeters>
            <DistanceMeters>15465.341269285</DistanceMeters>
          </Trackpoint>
          <Trackpoint>
            <Time>2022-09-18T10:00:44.000Z</Time>
            <Position>
              <LatitudeDegrees>40.71794383227825164794921875</LatitudeDegrees>
              <LongitudeDegrees>24.72265432588756084442138671875</LongitudeDegrees>
            </Position>
            <AltitudeMeters>195.600006103515625</AltitudeMeters>
            <DistanceMeters>15476.404435926</DistanceMeters>
          </Trackpoint>
          <Trackpoint>
            <Time>2022-09-18T10:00:48.000Z</Time>
            <Position>
              <LatitudeDegrees>40.717939473688602447509765625</LatitudeDegrees>
              <LongitudeDegrees>24.72277955152094364166259765625</LongitudeDegrees>
            </Position>
            <AltitudeMeters>194.399993896484375</AltitudeMeters>
            <DistanceMeters>15486.979760827</DistanceMeters>
          </Trackpoint>
          <Trackpoint>
            <Time>2022-09-18T10:00:52.000Z</Time>
            <Position>
              <LatitudeDegrees>40.717906616628170013427734375</LatitudeDegrees>
              <LongitudeDegrees>24.72291626036167144775390625</LongitudeDegrees>
            </Position>
            <AltitudeMeters>193.1999969482421875</AltitudeMeters>
            <DistanceMeters>15499.078419396</DistanceMeters>
          </Trackpoint>
          <Trackpoint>
            <Time>2022-09-18T10:00:55.000Z</Time>
            <Position>
              <LatitudeDegrees>40.71788457222282886505126953125</LatitudeDegrees>
              <LongitudeDegrees>24.7230116464197635650634765625</LongitudeDegrees>
            </Position>
            <AltitudeMeters>192</AltitudeMeters>
            <DistanceMeters>15507.490296654</DistanceMeters>
          </Trackpoint>
          <Trackpoint>
            <Time>2022-09-18T10:00:59.000Z</Time>
            <Position>
              <LatitudeDegrees>40.7178424112498760223388671875</LatitudeDegrees>
              <LongitudeDegrees>24.72313041798770427703857421875</LongitudeDegrees>
            </Position>
            <AltitudeMeters>191.1999969482421875</AltitudeMeters>
            <DistanceMeters>15518.554279494</DistanceMeters>
          </Trackpoint>
          <Trackpoint>
            <Time>2022-09-18T10:01:00.000Z</Time>
            <Position>
              <LatitudeDegrees>40.71783394552767276763916015625</LatitudeDegrees>
              <LongitudeDegrees>24.72315941937267780303955078125</LongitudeDegrees>
            </Position>
            <AltitudeMeters>191</AltitudeMeters>
            <DistanceMeters>15521.173985221</DistanceMeters>
          </Trackpoint>
          <Trackpoint>
            <Time>2022-09-18T10:01:05.000Z</Time>
            <Position>
              <LatitudeDegrees>40.71779790334403514862060546875</LatitudeDegrees>
              <LongitudeDegrees>24.7232932783663272857666015625</LongitudeDegrees>
            </Position>
            <AltitudeMeters>189.8000030517578125</AltitudeMeters>
            <DistanceMeters>15533.15752834</DistanceMeters>
          </Trackpoint>
          <Trackpoint>
            <Time>2022-09-18T10:01:06.000Z</Time>
            <Position>
              <LatitudeDegrees>40.71778717450797557830810546875</LatitudeDegrees>
              <LongitudeDegrees>24.7233174182474613189697265625</LongitudeDegrees>
            </Position>
            <AltitudeMeters>189.8000030517578125</AltitudeMeters>
            <DistanceMeters>15535.517942958</DistanceMeters>
          </Trackpoint>
          <Trackpoint>
            <Time>2022-09-18T10:01:09.000Z</Time>
            <Position>
              <LatitudeDegrees>40.7177549041807651519775390625</LatitudeDegrees>
              <LongitudeDegrees>24.723384641110897064208984375</LongitudeDegrees>
            </Position>
            <AltitudeMeters>188.8000030517578125</AltitudeMeters>
            <DistanceMeters>15542.229950957</DistanceMeters>
          </Trackpoint>
          <Trackpoint>
            <Time>2022-09-18T10:01:11.000Z</Time>
            <Position>
              <LatitudeDegrees>40.71773721836507320404052734375</LatitudeDegrees>
              <LongitudeDegrees>24.72342831082642078399658203125</LongitudeDegrees>
            </Position>
            <AltitudeMeters>187.8000030517578125</AltitudeMeters>
            <DistanceMeters>15546.406804759</DistanceMeters>
          </Trackpoint>
          <Trackpoint>
            <Time>2022-09-18T10:01:13.000Z</Time>
            <Position>
              <LatitudeDegrees>40.71772397495806217193603515625</LatitudeDegrees>
              <LongitudeDegrees>24.723478853702545166015625</LongitudeDegrees>
            </Position>
            <AltitudeMeters>187.1999969482421875</AltitudeMeters>
            <DistanceMeters>15550.918322498</DistanceMeters>
          </Trackpoint>
          <Trackpoint>
            <Time>2022-09-18T10:01:15.000Z</Time>
            <Position>
              <LatitudeDegrees>40.7177079655230045318603515625</LatitudeDegrees>
              <LongitudeDegrees>24.72353476099669933319091796875</LongitudeDegrees>
            </Position>
            <AltitudeMeters>186.600006103515625</AltitudeMeters>
            <DistanceMeters>15555.959218759</DistanceMeters>
          </Trackpoint>
          <Trackpoint>
            <Time>2022-09-18T10:01:18.000Z</Time>
            <Position>
              <LatitudeDegrees>40.7176829874515533447265625</LatitudeDegrees>
              <LongitudeDegrees>24.72362243570387363433837890625</LongitudeDegrees>
            </Position>
            <AltitudeMeters>185.399993896484375</AltitudeMeters>
            <DistanceMeters>15563.860734343</DistanceMeters>
          </Trackpoint>
          <Trackpoint>
            <Time>2022-09-18T10:01:20.000Z</Time>
            <Position>
              <LatitudeDegrees>40.7176798023283481597900390625</LatitudeDegrees>
              <LongitudeDegrees>24.7236791811883449554443359375</LongitudeDegrees>
            </Position>
            <AltitudeMeters>184.8000030517578125</AltitudeMeters>
            <DistanceMeters>15568.661229639</DistanceMeters>
          </Trackpoint>
          <Trackpoint>
            <Time>2022-09-18T10:01:22.000Z</Time>
            <Position>
              <LatitudeDegrees>40.71767921559512615203857421875</LatitudeDegrees>
              <LongitudeDegrees>24.72372586838901042938232421875</LongitudeDegrees>
            </Position>
            <AltitudeMeters>184.1999969482421875</AltitudeMeters>
            <DistanceMeters>15572.599969454</DistanceMeters>
          </Trackpoint>
          <Trackpoint>
            <Time>2022-09-18T10:01:25.000Z</Time>
            <Position>
              <LatitudeDegrees>40.717673934996128082275390625</LatitudeDegrees>
              <LongitudeDegrees>24.72380516119301319122314453125</LongitudeDegrees>
            </Position>
            <AltitudeMeters>183.1999969482421875</AltitudeMeters>
            <DistanceMeters>15579.313995192</DistanceMeters>
          </Trackpoint>
          <Trackpoint>
            <Time>2022-09-18T10:01:26.000Z</Time>
            <Position>
              <LatitudeDegrees>40.71767284534871578216552734375</LatitudeDegrees>
              <LongitudeDegrees>24.72384028136730194091796875</LongitudeDegrees>
            </Position>
            <AltitudeMeters>183</AltitudeMeters>
            <DistanceMeters>15582.278158544</DistanceMeters>
          </Trackpoint>
          <Trackpoint>
            <Time>2022-09-18T10:01:32.000Z</Time>
            <Position>
              <LatitudeDegrees>40.71765792556107044219970703125</LatitudeDegrees>
              <LongitudeDegrees>24.724046476185321807861328125</LongitudeDegrees>
            </Position>
            <AltitudeMeters>182.1999969482421875</AltitudeMeters>
            <DistanceMeters>15599.751708405</DistanceMeters>
          </Trackpoint>
          <Trackpoint>
            <Time>2022-09-18T10:01:37.000Z</Time>
            <Position>
              <LatitudeDegrees>40.71763663552701473236083984375</LatitudeDegrees>
              <LongitudeDegrees>24.7241599671542644500732421875</LongitudeDegrees>
            </Position>
            <AltitudeMeters>181.1999969482421875</AltitudeMeters>
            <DistanceMeters>15609.61482219</DistanceMeters>
          </Trackpoint>
          <Trackpoint>
            <Time>2022-09-18T10:02:45.000Z</Time>
            <Position>
              <LatitudeDegrees>40.71761366911232471466064453125</LatitudeDegrees>
              <LongitudeDegrees>24.72426717169582843780517578125</LongitudeDegrees>
            </Position>
            <AltitudeMeters>178.600006103515625</AltitudeMeters>
            <DistanceMeters>15619.013343763</DistanceMeters>
          </Trackpoint>
          <Trackpoint>
            <Time>2022-09-18T10:02:46.000Z</Time>
            <Position>
              <LatitudeDegrees>40.71761526167392730712890625</LatitudeDegrees>
              <LongitudeDegrees>24.7242773137986660003662109375</LongitudeDegrees>
            </Position>
            <AltitudeMeters>178.399993896484375</AltitudeMeters>
            <DistanceMeters>15619.884277987</DistanceMeters>
          </Trackpoint>
          <Trackpoint>
            <Time>2022-09-18T10:02:48.000Z</Time>
            <Position>
              <LatitudeDegrees>40.71760377846658229827880859375</LatitudeDegrees>
              <LongitudeDegrees>24.72434319555759429931640625</LongitudeDegrees>
            </Position>
            <AltitudeMeters>178.1999969482421875</AltitudeMeters>
            <DistanceMeters>15625.587464408</DistanceMeters>
          </Trackpoint>
          <Trackpoint>
            <Time>2022-09-18T10:02:50.000Z</Time>
            <Position>
              <LatitudeDegrees>40.71759439073503017425537109375</LatitudeDegrees>
              <LongitudeDegrees>24.724422991275787353515625</LongitudeDegrees>
            </Position>
            <AltitudeMeters>178</AltitudeMeters>
            <DistanceMeters>15632.398964446</DistanceMeters>
          </Trackpoint>
          <Trackpoint>
            <Time>2022-09-18T10:02:54.000Z</Time>
            <Position>
              <LatitudeDegrees>40.71757880039513111114501953125</LatitudeDegrees>
              <LongitudeDegrees>24.7245958261191844940185546875</LongitudeDegrees>
            </Position>
            <AltitudeMeters>177.399993896484375</AltitudeMeters>
            <DistanceMeters>15647.08205251</DistanceMeters>
          </Trackpoint>
          <Trackpoint>
            <Time>2022-09-18T10:02:57.000Z</Time>
            <Position>
              <LatitudeDegrees>40.7175560854375362396240234375</LatitudeDegrees>
              <LongitudeDegrees>24.724725745618343353271484375</LongitudeDegrees>
            </Position>
            <AltitudeMeters>177</AltitudeMeters>
            <DistanceMeters>15658.329779879</DistanceMeters>
          </Trackpoint>
          <Trackpoint>
            <Time>2022-09-18T10:02:59.000Z</Time>
            <Position>
              <LatitudeDegrees>40.71754778735339641571044921875</LatitudeDegrees>
              <LongitudeDegrees>24.72482138313353061676025390625</LongitudeDegrees>
            </Position>
            <AltitudeMeters>176.8000030517578125</AltitudeMeters>
            <DistanceMeters>15666.450534048</DistanceMeters>
          </Trackpoint>
          <Trackpoint>
            <Time>2022-09-18T10:03:00.000Z</Time>
            <Position>
              <LatitudeDegrees>40.717544518411159515380859375</LatitudeDegrees>
              <LongitudeDegrees>24.72486899234354496002197265625</LongitudeDegrees>
            </Position>
            <AltitudeMeters>176.600006103515625</AltitudeMeters>
            <DistanceMeters>15670.484415275</DistanceMeters>
          </Trackpoint>
          <Trackpoint>
            <Time>2022-09-18T10:03:01.000Z</Time>
            <Position>
              <LatitudeDegrees>40.71754275821149349212646484375</LatitudeDegrees>
              <LongitudeDegrees>24.72491584718227386474609375</LongitudeDegrees>
            </Position>
            <AltitudeMeters>176.399993896484375</AltitudeMeters>
            <DistanceMeters>15674.441453631</DistanceMeters>
          </Trackpoint>
          <Trackpoint>
            <Time>2022-09-18T10:03:02.000Z</Time>
            <Position>
              <LatitudeDegrees>40.71753974072635173797607421875</LatitudeDegrees>
              <LongitudeDegrees>24.72496286965906620025634765625</LongitudeDegrees>
            </Position>
            <AltitudeMeters>176.1999969482421875</AltitudeMeters>
            <DistanceMeters>15678.421246853</DistanceMeters>
          </Trackpoint>
          <Trackpoint>
            <Time>2022-09-18T10:03:04.000Z</Time>
            <Position>
              <LatitudeDegrees>40.71753068827092647552490234375</LatitudeDegrees>
              <LongitudeDegrees>24.72506294958293437957763671875</LongitudeDegrees>
            </Position>
            <AltitudeMeters>175.600006103515625</AltitudeMeters>
            <DistanceMeters>15686.923881268</DistanceMeters>
          </Trackpoint>
          <Trackpoint>
            <Time>2022-09-18T10:03:05.000Z</Time>
            <Position>
              <LatitudeDegrees>40.7175245694816112518310546875</LatitudeDegrees>
              <LongitudeDegrees>24.7251144982874393463134765625</LongitudeDegrees>
            </Position>
            <AltitudeMeters>175.1999969482421875</AltitudeMeters>
            <DistanceMeters>15691.323936256</DistanceMeters>
          </Trackpoint>
          <Trackpoint>
            <Time>2022-09-18T10:03:06.000Z</Time>
            <Position>
              <LatitudeDegrees>40.717519707977771759033203125</LatitudeDegrees>
              <LongitudeDegrees>24.7251634486019611358642578125</LongitudeDegrees>
            </Position>
            <AltitudeMeters>174.600006103515625</AltitudeMeters>
            <DistanceMeters>15695.487798258</DistanceMeters>
          </Trackpoint>
          <Trackpoint>
            <Time>2022-09-18T10:03:07.000Z</Time>
            <Position>
              <LatitudeDegrees>40.71751493029296398162841796875</LatitudeDegrees>
              <LongitudeDegrees>24.72520829178392887115478515625</LongitudeDegrees>
            </Position>
            <AltitudeMeters>174</AltitudeMeters>
            <DistanceMeters>15699.307824899</DistanceMeters>
          </Trackpoint>
          <Trackpoint>
            <Time>2022-09-18T10:03:10.000Z</Time>
            <Position>
              <LatitudeDegrees>40.71749364025890827178955078125</LatitudeDegrees>
              <LongitudeDegrees>24.7253429889678955078125</LongitudeDegrees>
            </Position>
            <AltitudeMeters>173</AltitudeMeters>
            <DistanceMeters>15710.915095919</DistanceMeters>
          </Trackpoint>
          <Trackpoint>
            <Time>2022-09-18T10:03:11.000Z</Time>
            <Position>
              <LatitudeDegrees>40.71748576126992702484130859375</LatitudeDegrees>
              <LongitudeDegrees>24.72538313828408718109130859375</LongitudeDegrees>
            </Position>
            <AltitudeMeters>172.8000030517578125</AltitudeMeters>
            <DistanceMeters>15714.413060125</DistanceMeters>
          </Trackpoint>
          <Trackpoint>
            <Time>2022-09-18T10:03:16.000Z</Time>
            <Position>
              <LatitudeDegrees>40.71743563748896121978759765625</LatitudeDegrees>
              <LongitudeDegrees>24.7255936078727245330810546875</LongitudeDegrees>
            </Position>
            <AltitudeMeters>171.8000030517578125</AltitudeMeters>
            <DistanceMeters>15733.024230755</DistanceMeters>
          </Trackpoint>
          <Trackpoint>
            <Time>2022-09-18T10:03:18.000Z</Time>
            <Position>
              <LatitudeDegrees>40.71741501800715923309326171875</LatitudeDegrees>
              <LongitudeDegrees>24.72567197866737842559814453125</LongitudeDegrees>
            </Position>
            <AltitudeMeters>171</AltitudeMeters>
            <DistanceMeters>15740.022740213</DistanceMeters>
          </Trackpoint>
          <Trackpoint>
            <Time>2022-09-18T10:03:19.000Z</Time>
            <Position>
              <LatitudeDegrees>40.7174062170088291168212890625</LatitudeDegrees>
              <LongitudeDegrees>24.7257102839648723602294921875</LongitudeDegrees>
            </Position>
            <AltitudeMeters>170.600006103515625</AltitudeMeters>
            <DistanceMeters>15743.398529968</DistanceMeters>
          </Trackpoint>
          <Trackpoint>
            <Time>2022-09-18T10:03:23.000Z</Time>
            <Position>
              <LatitudeDegrees>40.71738299913704395294189453125</LatitudeDegrees>
              <LongitudeDegrees>24.72586694173514842987060546875</LongitudeDegrees>
            </Position>
            <AltitudeMeters>169.600006103515625</AltitudeMeters>
            <DistanceMeters>15756.864522879</DistanceMeters>
          </Trackpoint>
          <Trackpoint>
            <Time>2022-09-18T10:03:25.000Z</Time>
            <Position>
              <LatitudeDegrees>40.71736707352101802825927734375</LatitudeDegrees>
              <LongitudeDegrees>24.7259463183581829071044921875</LongitudeDegrees>
            </Position>
            <AltitudeMeters>169</AltitudeMeters>
            <DistanceMeters>15763.791703129</DistanceMeters>
          </Trackpoint>
          <Trackpoint>
            <Time>2022-09-18T10:03:26.000Z</Time>
            <Position>
              <LatitudeDegrees>40.7173582725226879119873046875</LatitudeDegrees>
              <LongitudeDegrees>24.7259892337024211883544921875</LongitudeDegrees>
            </Position>
            <AltitudeMeters>168.399993896484375</AltitudeMeters>
            <DistanceMeters>15767.542550914</DistanceMeters>
          </Trackpoint>
          <Trackpoint>
            <Time>2022-09-18T10:03:28.000Z</Time>
            <Position>
              <LatitudeDegrees>40.71733706630766391754150390625</LatitudeDegrees>
              <LongitudeDegrees>24.7260750643908977508544921875</LongitudeDegrees>
            </Position>
            <AltitudeMeters>167</AltitudeMeters>
            <DistanceMeters>15775.158335903</DistanceMeters>
          </Trackpoint>
          <Trackpoint>
            <Time>2022-09-18T10:03:31.000Z</Time>
            <Position>
              <LatitudeDegrees>40.71731175296008586883544921875</LatitudeDegrees>
              <LongitudeDegrees>24.7262172214686870574951171875</LongitudeDegrees>
            </Position>
            <AltitudeMeters>165.8000030517578125</AltitudeMeters>
            <DistanceMeters>15787.477405052</DistanceMeters>
          </Trackpoint>
          <Trackpoint>
            <Time>2022-09-18T10:03:32.000Z</Time>
            <Position>
              <LatitudeDegrees>40.71730504743754863739013671875</LatitudeDegrees>
              <LongitudeDegrees>24.7262644954025745391845703125</LongitudeDegrees>
            </Position>
            <AltitudeMeters>165.399993896484375</AltitudeMeters>
            <DistanceMeters>15791.533610087</DistanceMeters>
          </Trackpoint>
          <Trackpoint>
            <Time>2022-09-18T10:03:35.000Z</Time>
            <Position>
              <LatitudeDegrees>40.71729850955307483673095703125</LatitudeDegrees>
              <LongitudeDegrees>24.72640053369104862213134765625</LongitudeDegrees>
            </Position>
            <AltitudeMeters>164.399993896484375</AltitudeMeters>
            <DistanceMeters>15803.033020482</DistanceMeters>
          </Trackpoint>
          <Trackpoint>
            <Time>2022-09-18T10:03:38.000Z</Time>
            <Position>
              <LatitudeDegrees>40.71728409267961978912353515625</LatitudeDegrees>
              <LongitudeDegrees>24.72653992474079132080078125</LongitudeDegrees>
            </Position>
            <AltitudeMeters>162.8000030517578125</AltitudeMeters>
            <DistanceMeters>15814.901092456</DistanceMeters>
          </Trackpoint>
          <Trackpoint>
            <Time>2022-09-18T10:03:42.000Z</Time>
            <Position>
              <LatitudeDegrees>40.7172768004238605499267578125</LatitudeDegrees>
              <LongitudeDegrees>24.7266970016062259674072265625</LongitudeDegrees>
            </Position>
            <AltitudeMeters>161.8000030517578125</AltitudeMeters>
            <DistanceMeters>15828.176974048</DistanceMeters>
          </Trackpoint>
          <Trackpoint>
            <Time>2022-09-18T10:03:45.000Z</Time>
            <Position>
              <LatitudeDegrees>40.717277638614177703857421875</LatitudeDegrees>
              <LongitudeDegrees>24.72678945399820804595947265625</LongitudeDegrees>
            </Position>
            <AltitudeMeters>161.600006103515625</AltitudeMeters>
            <DistanceMeters>15835.976693594</DistanceMeters>
          </Trackpoint>
          <Trackpoint>
            <Time>2022-09-18T10:03:48.000Z</Time>
            <Position>
              <LatitudeDegrees>40.71728107519447803497314453125</LatitudeDegrees>
              <LongitudeDegrees>24.7268867678940296173095703125</LongitudeDegrees>
            </Position>
            <AltitudeMeters>160.600006103515625</AltitudeMeters>
            <DistanceMeters>15844.195268398</DistanceMeters>
          </Trackpoint>
          <Trackpoint>
            <Time>2022-09-18T10:03:51.000Z</Time>
            <Position>
              <LatitudeDegrees>40.717267580330371856689453125</LatitudeDegrees>
              <LongitudeDegrees>24.7269813157618045806884765625</LongitudeDegrees>
            </Position>
            <AltitudeMeters>159.399993896484375</AltitudeMeters>
            <DistanceMeters>15852.31212972</DistanceMeters>
          </Trackpoint>
          <Trackpoint>
            <Time>2022-09-18T10:03:52.000Z</Time>
            <Position>
              <LatitudeDegrees>40.71725056506693363189697265625</LatitudeDegrees>
              <LongitudeDegrees>24.72701358608901500701904296875</LongitudeDegrees>
            </Position>
            <AltitudeMeters>159.1999969482421875</AltitudeMeters>
            <DistanceMeters>15855.628548438</DistanceMeters>
          </Trackpoint>
          <Trackpoint>
            <Time>2022-09-18T10:03:53.000Z</Time>
            <Position>
              <LatitudeDegrees>40.7172335498034954071044921875</LatitudeDegrees>
              <LongitudeDegrees>24.72703202627599239349365234375</LongitudeDegrees>
            </Position>
            <AltitudeMeters>159</AltitudeMeters>
            <DistanceMeters>15858.077215577</DistanceMeters>
          </Trackpoint>
          <Trackpoint>
            <Time>2022-09-18T10:03:56.000Z</Time>
            <Position>
              <LatitudeDegrees>40.71713514626026153564453125</LatitudeDegrees>
              <LongitudeDegrees>24.7270775400102138519287109375</LongitudeDegrees>
            </Position>
            <AltitudeMeters>158.399993896484375</AltitudeMeters>
            <DistanceMeters>15869.683319588</DistanceMeters>
          </Trackpoint>
          <Trackpoint>
            <Time>2022-09-18T10:03:58.000Z</Time>
            <Position>
              <LatitudeDegrees>40.71706918068230152130126953125</LatitudeDegrees>
              <LongitudeDegrees>24.72708173096179962158203125</LongitudeDegrees>
            </Position>
            <AltitudeMeters>157.1999969482421875</AltitudeMeters>
            <DistanceMeters>15877.034236364</DistanceMeters>
          </Trackpoint>
          <Trackpoint>
            <Time>2022-09-18T10:04:00.000Z</Time>
            <Position>
              <LatitudeDegrees>40.71700145490467548370361328125</LatitudeDegrees>
              <LongitudeDegrees>24.7270835749804973602294921875</LongitudeDegrees>
            </Position>
            <AltitudeMeters>156.1999969482421875</AltitudeMeters>
            <DistanceMeters>15884.574353159</DistanceMeters>
          </Trackpoint>
          <Trackpoint>
            <Time>2022-09-18T10:04:02.000Z</Time>
            <Position>
              <LatitudeDegrees>40.7169445417821407318115234375</LatitudeDegrees>
              <LongitudeDegrees>24.72708567045629024505615234375</LongitudeDegrees>
            </Position>
            <AltitudeMeters>155.600006103515625</AltitudeMeters>
            <DistanceMeters>15890.911288534</DistanceMeters>
          </Trackpoint>
          <Trackpoint>
            <Time>2022-09-18T10:04:03.000Z</Time>
            <Position>
              <LatitudeDegrees>40.71691788733005523681640625</LatitudeDegrees>
              <LongitudeDegrees>24.727086089551448822021484375</LongitudeDegrees>
            </Position>
            <AltitudeMeters>155.1999969482421875</AltitudeMeters>
            <DistanceMeters>15893.876974704</DistanceMeters>
          </Trackpoint>
          <Trackpoint>
            <Time>2022-09-18T10:04:05.000Z</Time>
            <Position>
              <LatitudeDegrees>40.7168593816459178924560546875</LatitudeDegrees>
              <LongitudeDegrees>24.72708382643759250640869140625</LongitudeDegrees>
            </Position>
            <AltitudeMeters>154.1999969482421875</AltitudeMeters>
            <DistanceMeters>15900.390984929</DistanceMeters>
          </Trackpoint>
          <Trackpoint>
            <Time>2022-09-18T10:04:09.000Z</Time>
            <Position>
              <LatitudeDegrees>40.716745555400848388671875</LatitudeDegrees>
              <LongitudeDegrees>24.72711483947932720184326171875</LongitudeDegrees>
            </Position>
            <AltitudeMeters>152.8000030517578125</AltitudeMeters>
            <DistanceMeters>15913.327189034</DistanceMeters>
          </Trackpoint>
          <Trackpoint>
            <Time>2022-09-18T10:04:11.000Z</Time>
            <Position>
              <LatitudeDegrees>40.71669417433440685272216796875</LatitudeDegrees>
              <LongitudeDegrees>24.7271548211574554443359375</LongitudeDegrees>
            </Position>
            <AltitudeMeters>151.600006103515625</AltitudeMeters>
            <DistanceMeters>15919.966830079</DistanceMeters>
          </Trackpoint>
          <Trackpoint>
            <Time>2022-09-18T10:04:14.000Z</Time>
            <Position>
              <LatitudeDegrees>40.71662292815744876861572265625</LatitudeDegrees>
              <LongitudeDegrees>24.72723503597080707550048828125</LongitudeDegrees>
            </Position>
            <AltitudeMeters>150.399993896484375</AltitudeMeters>
            <DistanceMeters>15930.391654777</DistanceMeters>
          </Trackpoint>
          <Trackpoint>
            <Time>2022-09-18T10:04:18.000Z</Time>
            <Position>
              <LatitudeDegrees>40.71655637584626674652099609375</LatitudeDegrees>
              <LongitudeDegrees>24.72738205455243587493896484375</LongitudeDegrees>
            </Position>
            <AltitudeMeters>149.1999969482421875</AltitudeMeters>
            <DistanceMeters>15944.838215848</DistanceMeters>
          </Trackpoint>
          <Trackpoint>
            <Time>2022-09-18T10:04:21.000Z</Time>
            <Position>
              <LatitudeDegrees>40.716525614261627197265625</LatitudeDegrees>
              <LongitudeDegrees>24.72749479115009307861328125</LongitudeDegrees>
            </Position>
            <AltitudeMeters>148.1999969482421875</AltitudeMeters>
            <DistanceMeters>15954.946396444</DistanceMeters>
          </Trackpoint>
          <Trackpoint>
            <Time>2022-09-18T10:04:23.000Z</Time>
            <Position>
              <LatitudeDegrees>40.71650491096079349517822265625</LatitudeDegrees>
              <LongitudeDegrees>24.72756964154541492462158203125</LongitudeDegrees>
            </Position>
            <AltitudeMeters>147.1999969482421875</AltitudeMeters>
            <DistanceMeters>15961.667143603</DistanceMeters>
          </Trackpoint>
          <Trackpoint>
            <Time>2022-09-18T10:04:25.000Z</Time>
            <Position>
              <LatitudeDegrees>40.7164828665554523468017578125</LatitudeDegrees>
              <LongitudeDegrees>24.72764206118881702423095703125</LongitudeDegrees>
            </Position>
            <AltitudeMeters>146</AltitudeMeters>
            <DistanceMeters>15968.250787498</DistanceMeters>
          </Trackpoint>
          <Trackpoint>
            <Time>2022-09-18T10:04:28.000Z</Time>
            <Position>
              <LatitudeDegrees>40.716455541551113128662109375</LatitudeDegrees>
              <LongitudeDegrees>24.72775002010166645050048828125</LongitudeDegrees>
            </Position>
            <AltitudeMeters>144.600006103515625</AltitudeMeters>
            <DistanceMeters>15977.851778089</DistanceMeters>
          </Trackpoint>
          <Trackpoint>
            <Time>2022-09-18T10:04:29.000Z</Time>
            <Position>
              <LatitudeDegrees>40.7164476625621318817138671875</LatitudeDegrees>
              <LongitudeDegrees>24.7277891635894775390625</LongitudeDegrees>
            </Position>
            <AltitudeMeters>144.399993896484375</AltitudeMeters>
            <DistanceMeters>15981.267456465</DistanceMeters>
          </Trackpoint>
          <Trackpoint>
            <Time>2022-09-18T10:04:31.000Z</Time>
            <Position>
              <LatitudeDegrees>40.71643567644059658050537109375</LatitudeDegrees>
              <LongitudeDegrees>24.7278597392141819000244140625</LongitudeDegrees>
            </Position>
            <AltitudeMeters>143.600006103515625</AltitudeMeters>
            <DistanceMeters>15987.368437952</DistanceMeters>
          </Trackpoint>
          <Trackpoint>
            <Time>2022-09-18T10:04:33.000Z</Time>
            <Position>
              <LatitudeDegrees>40.71641740389168262481689453125</LatitudeDegrees>
              <LongitudeDegrees>24.72792905755341053009033203125</LongitudeDegrees>
            </Position>
            <AltitudeMeters>142.1999969482421875</AltitudeMeters>
            <DistanceMeters>15993.55977662</DistanceMeters>
          </Trackpoint>
          <Trackpoint>
            <Time>2022-09-18T10:04:35.000Z</Time>
            <Position>
              <LatitudeDegrees>40.71640080772340297698974609375</LatitudeDegrees>
              <LongitudeDegrees>24.727992005646228790283203125</LongitudeDegrees>
            </Position>
            <AltitudeMeters>141.1999969482421875</AltitudeMeters>
            <DistanceMeters>15999.183238873</DistanceMeters>
          </Trackpoint>
          <Trackpoint>
            <Time>2022-09-18T10:04:36.000Z</Time>
            <Position>
              <LatitudeDegrees>40.71639426983892917633056640625</LatitudeDegrees>
              <LongitudeDegrees>24.7280240245163440704345703125</LongitudeDegrees>
            </Position>
            <AltitudeMeters>141</AltitudeMeters>
            <DistanceMeters>16001.979673424</DistanceMeters>
          </Trackpoint>
          <Trackpoint>
            <Time>2022-09-18T10:04:39.000Z</Time>
            <Position>
              <LatitudeDegrees>40.7163561321794986724853515625</LatitudeDegrees>
              <LongitudeDegrees>24.72812619991600513458251953125</LongitudeDegrees>
            </Position>
            <AltitudeMeters>139.8000030517578125</AltitudeMeters>
            <DistanceMeters>16011.587245511</DistanceMeters>
          </Trackpoint>
          <Trackpoint>
            <Time>2022-09-18T10:04:42.000Z</Time>
            <Position>
              <LatitudeDegrees>40.716311372816562652587890625</LatitudeDegrees>
              <LongitudeDegrees>24.72821806557476520538330078125</LongitudeDegrees>
            </Position>
            <AltitudeMeters>138.8000030517578125</AltitudeMeters>
            <DistanceMeters>16020.800427295</DistanceMeters>
          </Trackpoint>
          <Trackpoint>
            <Time>2022-09-18T10:04:43.000Z</Time>
            <Position>
              <LatitudeDegrees>40.71629636920988559722900390625</LatitudeDegrees>
              <LongitudeDegrees>24.72824187017977237701416015625</LongitudeDegrees>
            </Position>
            <AltitudeMeters>138.600006103515625</AltitudeMeters>
            <DistanceMeters>16023.409771587</DistanceMeters>
          </Trackpoint>
          <Trackpoint>
            <Time>2022-09-18T10:04:45.000Z</Time>
            <Position>
              <LatitudeDegrees>40.7162723131477832794189453125</LatitudeDegrees>
              <LongitudeDegrees>24.72828327678143978118896484375</LongitudeDegrees>
            </Position>
            <AltitudeMeters>137.399993896484375</AltitudeMeters>
            <DistanceMeters>16027.809826575</DistanceMeters>
          </Trackpoint>
          <Trackpoint>
            <Time>2022-09-18T10:04:47.000Z</Time>
            <Position>
              <LatitudeDegrees>40.71624037809669971466064453125</LatitudeDegrees>
              <LongitudeDegrees>24.72830372862517833709716796875</LongitudeDegrees>
            </Position>
            <AltitudeMeters>137</AltitudeMeters>
            <DistanceMeters>16031.76115574</DistanceMeters>
          </Trackpoint>
          <Trackpoint>
            <Time>2022-09-18T10:04:50.000Z</Time>
            <Position>
              <LatitudeDegrees>40.71622931398451328277587890625</LatitudeDegrees>
              <LongitudeDegrees>24.728309847414493560791015625</LongitudeDegrees>
            </Position>
            <AltitudeMeters>137</AltitudeMeters>
            <DistanceMeters>16033.091529742</DistanceMeters>
          </Trackpoint>
        </Track>
      </Lap>
    </Activity>
  </Activities>
</TrainingCenterDatabase>
